<?xml version='1.0' encoding='UTF-8'?><gpx version="1.1" creator="JPX - https://github.com/jenetics/jpx" xmlns="http://www.topografix.com/GPX/1/1"><trk><trkseg><trkpt lat="40.1045626" lon="15.2283573"><ele>43.0</ele><time>2026-05-02T06:58:15.913Z</time></trkpt><trkpt lat="40.1046116" lon="15.2284403"><ele>43.0</ele><time>2026-05-02T06:58:16.925Z</time></trkpt><trkpt lat="40.1046861" lon="15.2285573"><ele>43.0</ele><time>2026-05-02T06:58:18.936Z</time></trkpt><trkpt lat="40.1047668" lon="15.2286845"><ele>43.0</ele><time>2026-05-02T06:58:20.922Z</time></trkpt><trkpt lat="40.1048181" lon="15.2287631"><ele>43.0</ele><time>2026-05-02T06:58:21.914Z</time></trkpt><trkpt lat="40.1048722" lon="15.2288531"><ele>43.16666666666667</ele><time>2026-05-02T06:58:23.913Z</time></trkpt><trkpt lat="40.1049327" lon="15.2289235"><ele>43.333333333333336</ele><time>2026-05-02T06:58:25.914Z</time></trkpt><trkpt lat="40.1049442" lon="15.2290114"><ele>43.5</ele><time>2026-05-02T06:58:27.917Z</time></trkpt><trkpt lat="40.1049073" lon="15.2290959"><ele>43.666666666666664</ele><time>2026-05-02T06:58:29.909Z</time></trkpt><trkpt lat="40.1047958" lon="15.2291901"><ele>43.83333333333333</ele><time>2026-05-02T06:58:31.908Z</time></trkpt><trkpt lat="40.1047339" lon="15.2292566"><ele>44.0</ele><time>2026-05-02T06:58:32.911Z</time></trkpt><trkpt lat="40.1046697" lon="15.2293289"><ele>44.6</ele><time>2026-05-02T06:58:33.913Z</time></trkpt><trkpt lat="40.1046005" lon="15.2293998"><ele>45.2</ele><time>2026-05-02T06:58:34.931Z</time></trkpt><trkpt lat="40.1045261" lon="15.2294736"><ele>45.800000000000004</ele><time>2026-05-02T06:58:35.93Z</time></trkpt><trkpt lat="40.104463" lon="15.2295436"><ele>46.400000000000006</ele><time>2026-05-02T06:58:36.923Z</time></trkpt><trkpt lat="40.1043961" lon="15.229619"><ele>47.0</ele><time>2026-05-02T06:58:37.915Z</time></trkpt><trkpt lat="40.1043233" lon="15.2297063"><ele>47.0</ele><time>2026-05-02T06:58:38.925Z</time></trkpt><trkpt lat="40.1042369" lon="15.2298045"><ele>47.0</ele><time>2026-05-02T06:58:39.926Z</time></trkpt><trkpt lat="40.104143" lon="15.2299114"><ele>47.0</ele><time>2026-05-02T06:58:40.936Z</time></trkpt><trkpt lat="40.1040419" lon="15.2300251"><ele>47.0</ele><time>2026-05-02T06:58:41.95Z</time></trkpt><trkpt lat="40.1039374" lon="15.2301366"><ele>44.75</ele><time>2026-05-02T06:58:42.937Z</time></trkpt><trkpt lat="40.103842" lon="15.2302489"><ele>42.5</ele><time>2026-05-02T06:58:43.934Z</time></trkpt><trkpt lat="40.1037538" lon="15.2303676"><ele>40.25</ele><time>2026-05-02T06:58:44.942Z</time></trkpt><trkpt lat="40.1036746" lon="15.2304734"><ele>38.0</ele><time>2026-05-02T06:58:45.929Z</time></trkpt><trkpt lat="40.1035938" lon="15.2305745"><ele>39.25</ele><time>2026-05-02T06:58:46.933Z</time></trkpt><trkpt lat="40.1035048" lon="15.2306885"><ele>40.5</ele><time>2026-05-02T06:58:47.93Z</time></trkpt><trkpt lat="40.1034048" lon="15.2308077"><ele>41.75</ele><time>2026-05-02T06:58:48.941Z</time></trkpt><trkpt lat="40.1033016" lon="15.2309253"><ele>43.0</ele><time>2026-05-02T06:58:49.931Z</time></trkpt><trkpt lat="40.1032024" lon="15.2310438"><ele>44.25</ele><time>2026-05-02T06:58:50.93Z</time></trkpt><trkpt lat="40.103111" lon="15.2311497"><ele>45.5</ele><time>2026-05-02T06:58:51.924Z</time></trkpt><trkpt lat="40.1030204" lon="15.2312527"><ele>46.75</ele><time>2026-05-02T06:58:52.931Z</time></trkpt><trkpt lat="40.1029301" lon="15.2313508"><ele>48.0</ele><time>2026-05-02T06:58:53.924Z</time></trkpt><trkpt lat="40.1028362" lon="15.2314504"><ele>50.0</ele><time>2026-05-02T06:58:54.928Z</time></trkpt><trkpt lat="40.1027447" lon="15.2315469"><ele>52.0</ele><time>2026-05-02T06:58:55.927Z</time></trkpt><trkpt lat="40.1026541" lon="15.2316439"><ele>54.0</ele><time>2026-05-02T06:58:56.924Z</time></trkpt><trkpt lat="40.1025663" lon="15.2317554"><ele>56.0</ele><time>2026-05-02T06:58:57.927Z</time></trkpt><trkpt lat="40.1024777" lon="15.2318704"><ele>54.25</ele><time>2026-05-02T06:58:58.918Z</time></trkpt><trkpt lat="40.1023827" lon="15.2319813"><ele>52.5</ele><time>2026-05-02T06:58:59.931Z</time></trkpt><trkpt lat="40.1022818" lon="15.2320862"><ele>50.75</ele><time>2026-05-02T06:59:00.921Z</time></trkpt><trkpt lat="40.1021723" lon="15.2321954"><ele>49.0</ele><time>2026-05-02T06:59:01.928Z</time></trkpt><trkpt lat="40.1020679" lon="15.232312"><ele>49.0</ele><time>2026-05-02T06:59:02.925Z</time></trkpt><trkpt lat="40.1019717" lon="15.2324298"><ele>49.0</ele><time>2026-05-02T06:59:03.921Z</time></trkpt><trkpt lat="40.1018772" lon="15.2325562"><ele>49.0</ele><time>2026-05-02T06:59:04.919Z</time></trkpt><trkpt lat="40.1017812" lon="15.2326805"><ele>49.0</ele><time>2026-05-02T06:59:05.923Z</time></trkpt><trkpt lat="40.1016804" lon="15.2327952"><ele>47.75</ele><time>2026-05-02T06:59:06.929Z</time></trkpt><trkpt lat="40.1015806" lon="15.2329077"><ele>46.5</ele><time>2026-05-02T06:59:07.924Z</time></trkpt><trkpt lat="40.1014712" lon="15.2330226"><ele>45.25</ele><time>2026-05-02T06:59:08.926Z</time></trkpt><trkpt lat="40.1013544" lon="15.2331467"><ele>44.0</ele><time>2026-05-02T06:59:09.925Z</time></trkpt><trkpt lat="40.1012294" lon="15.2332843"><ele>44.0</ele><time>2026-05-02T06:59:10.927Z</time></trkpt><trkpt lat="40.1011153" lon="15.2334214"><ele>44.0</ele><time>2026-05-02T06:59:11.919Z</time></trkpt><trkpt lat="40.1010118" lon="15.2335431"><ele>44.0</ele><time>2026-05-02T06:59:12.929Z</time></trkpt><trkpt lat="40.1009046" lon="15.233665"><ele>44.0</ele><time>2026-05-02T06:59:13.924Z</time></trkpt><trkpt lat="40.1007907" lon="15.2337961"><ele>40.666666666666664</ele><time>2026-05-02T06:59:14.924Z</time></trkpt><trkpt lat="40.1006692" lon="15.2339236"><ele>37.333333333333336</ele><time>2026-05-02T06:59:15.924Z</time></trkpt><trkpt lat="40.1005429" lon="15.2340544"><ele>34.0</ele><time>2026-05-02T06:59:16.932Z</time></trkpt><trkpt lat="40.1004305" lon="15.2341917"><ele>34.0</ele><time>2026-05-02T06:59:17.928Z</time></trkpt><trkpt lat="40.1003436" lon="15.2343035"><ele>34.0</ele><time>2026-05-02T06:59:18.921Z</time></trkpt><trkpt lat="40.1002757" lon="15.23441"><ele>34.0</ele><time>2026-05-02T06:59:19.929Z</time></trkpt><trkpt lat="40.1002316" lon="15.2345186"><ele>34.0</ele><time>2026-05-02T06:59:20.94Z</time></trkpt><trkpt lat="40.1002028" lon="15.2346396"><ele>34.0</ele><time>2026-05-02T06:59:21.933Z</time></trkpt><trkpt lat="40.1001893" lon="15.2347788"><ele>37.0</ele><time>2026-05-02T06:59:22.931Z</time></trkpt><trkpt lat="40.1001884" lon="15.2349407"><ele>40.0</ele><time>2026-05-02T06:59:23.936Z</time></trkpt><trkpt lat="40.1001896" lon="15.2351123"><ele>43.0</ele><time>2026-05-02T06:59:24.939Z</time></trkpt><trkpt lat="40.100175" lon="15.2352824"><ele>46.0</ele><time>2026-05-02T06:59:25.923Z</time></trkpt><trkpt lat="40.1001405" lon="15.235443"><ele>46.0</ele><time>2026-05-02T06:59:26.943Z</time></trkpt><trkpt lat="40.1000737" lon="15.2355742"><ele>46.0</ele><time>2026-05-02T06:59:27.928Z</time></trkpt><trkpt lat="40.099976" lon="15.2356773"><ele>46.0</ele><time>2026-05-02T06:59:28.932Z</time></trkpt><trkpt lat="40.0998707" lon="15.2357539"><ele>46.0</ele><time>2026-05-02T06:59:29.929Z</time></trkpt><trkpt lat="40.0997562" lon="15.2358083"><ele>45.5</ele><time>2026-05-02T06:59:30.928Z</time></trkpt><trkpt lat="40.0996333" lon="15.2358344"><ele>45.0</ele><time>2026-05-02T06:59:31.927Z</time></trkpt><trkpt lat="40.0995039" lon="15.2358683"><ele>44.5</ele><time>2026-05-02T06:59:32.934Z</time></trkpt><trkpt lat="40.099376" lon="15.2359152"><ele>44.0</ele><time>2026-05-02T06:59:33.923Z</time></trkpt><trkpt lat="40.0992481" lon="15.2359907"><ele>44.0</ele><time>2026-05-02T06:59:34.928Z</time></trkpt><trkpt lat="40.0991298" lon="15.2360963"><ele>44.0</ele><time>2026-05-02T06:59:35.92Z</time></trkpt><trkpt lat="40.099015" lon="15.2362299"><ele>44.0</ele><time>2026-05-02T06:59:36.924Z</time></trkpt><trkpt lat="40.0989049" lon="15.2363825"><ele>43.0</ele><time>2026-05-02T06:59:37.927Z</time></trkpt><trkpt lat="40.0987939" lon="15.2365427"><ele>42.0</ele><time>2026-05-02T06:59:38.931Z</time></trkpt><trkpt lat="40.0986823" lon="15.236711"><ele>41.0</ele><time>2026-05-02T06:59:39.93Z</time></trkpt><trkpt lat="40.098571" lon="15.2368819"><ele>41.0</ele><time>2026-05-02T06:59:40.927Z</time></trkpt><trkpt lat="40.0984603" lon="15.237058"><ele>41.0</ele><time>2026-05-02T06:59:41.924Z</time></trkpt><trkpt lat="40.0983439" lon="15.2372283"><ele>41.0</ele><time>2026-05-02T06:59:42.916Z</time></trkpt><trkpt lat="40.0982208" lon="15.2373905"><ele>40.33333333333333</ele><time>2026-05-02T06:59:43.918Z</time></trkpt><trkpt lat="40.0980889" lon="15.2375435"><ele>39.666666666666664</ele><time>2026-05-02T06:59:44.933Z</time></trkpt><trkpt lat="40.0979571" lon="15.2376858"><ele>39.0</ele><time>2026-05-02T06:59:45.919Z</time></trkpt><trkpt lat="40.0978223" lon="15.2378283"><ele>39.0</ele><time>2026-05-02T06:59:46.924Z</time></trkpt><trkpt lat="40.0976847" lon="15.2379742"><ele>39.0</ele><time>2026-05-02T06:59:47.919Z</time></trkpt><trkpt lat="40.0975434" lon="15.2381191"><ele>39.0</ele><time>2026-05-02T06:59:48.927Z</time></trkpt><trkpt lat="40.097402" lon="15.2382501"><ele>38.333333333333336</ele><time>2026-05-02T06:59:49.924Z</time></trkpt><trkpt lat="40.097259" lon="15.2383695"><ele>37.66666666666667</ele><time>2026-05-02T06:59:50.927Z</time></trkpt><trkpt lat="40.0971168" lon="15.2384833"><ele>37.0</ele><time>2026-05-02T06:59:51.933Z</time></trkpt><trkpt lat="40.0969699" lon="15.2385878"><ele>37.0</ele><time>2026-05-02T06:59:52.933Z</time></trkpt><trkpt lat="40.0968248" lon="15.2386856"><ele>37.0</ele><time>2026-05-02T06:59:53.921Z</time></trkpt><trkpt lat="40.0966778" lon="15.2387835"><ele>37.0</ele><time>2026-05-02T06:59:54.915Z</time></trkpt><trkpt lat="40.0965231" lon="15.2388816"><ele>42.0</ele><time>2026-05-02T06:59:55.926Z</time></trkpt><trkpt lat="40.0963704" lon="15.2389693"><ele>47.0</ele><time>2026-05-02T06:59:56.934Z</time></trkpt><trkpt lat="40.096229" lon="15.239051"><ele>52.0</ele><time>2026-05-02T06:59:57.926Z</time></trkpt><trkpt lat="40.0961021" lon="15.2391281"><ele>52.0</ele><time>2026-05-02T06:59:58.937Z</time></trkpt><trkpt lat="40.0959867" lon="15.2392044"><ele>52.0</ele><time>2026-05-02T06:59:59.935Z</time></trkpt><trkpt lat="40.095871" lon="15.2392882"><ele>52.0</ele><time>2026-05-02T07:00:00.936Z</time></trkpt><trkpt lat="40.0957475" lon="15.2393796"><ele>52.0</ele><time>2026-05-02T07:00:01.921Z</time></trkpt><trkpt lat="40.0956156" lon="15.2394669"><ele>49.75</ele><time>2026-05-02T07:00:02.94Z</time></trkpt><trkpt lat="40.0954892" lon="15.2395441"><ele>47.5</ele><time>2026-05-02T07:00:03.925Z</time></trkpt><trkpt lat="40.0953794" lon="15.2396148"><ele>45.25</ele><time>2026-05-02T07:00:04.943Z</time></trkpt><trkpt lat="40.0952809" lon="15.2396797"><ele>43.0</ele><time>2026-05-02T07:00:05.931Z</time></trkpt><trkpt lat="40.0951904" lon="15.2397396"><ele>43.0</ele><time>2026-05-02T07:00:06.926Z</time></trkpt><trkpt lat="40.0951091" lon="15.2397895"><ele>43.0</ele><time>2026-05-02T07:00:07.926Z</time></trkpt><trkpt lat="40.0950356" lon="15.2398416"><ele>43.0</ele><time>2026-05-02T07:00:08.922Z</time></trkpt><trkpt lat="40.0949556" lon="15.2399081"><ele>43.0</ele><time>2026-05-02T07:00:09.917Z</time></trkpt><trkpt lat="40.0948647" lon="15.2399839"><ele>43.0</ele><time>2026-05-02T07:00:10.935Z</time></trkpt><trkpt lat="40.0947768" lon="15.2400493"><ele>43.599999999999994</ele><time>2026-05-02T07:00:11.924Z</time></trkpt><trkpt lat="40.0946996" lon="15.2400985"><ele>44.199999999999996</ele><time>2026-05-02T07:00:12.943Z</time></trkpt><trkpt lat="40.0946241" lon="15.2401472"><ele>44.8</ele><time>2026-05-02T07:00:13.929Z</time></trkpt><trkpt lat="40.0945198" lon="15.2402044"><ele>45.4</ele><time>2026-05-02T07:00:14.926Z</time></trkpt><trkpt lat="40.0943977" lon="15.2402786"><ele>46.0</ele><time>2026-05-02T07:00:15.921Z</time></trkpt><trkpt lat="40.0942531" lon="15.240368"><ele>46.0</ele><time>2026-05-02T07:00:16.933Z</time></trkpt><trkpt lat="40.0941007" lon="15.2404736"><ele>46.0</ele><time>2026-05-02T07:00:17.924Z</time></trkpt><trkpt lat="40.0939374" lon="15.2405846"><ele>46.0</ele><time>2026-05-02T07:00:18.927Z</time></trkpt><trkpt lat="40.093767" lon="15.240697"><ele>47.66666666666667</ele><time>2026-05-02T07:00:19.927Z</time></trkpt><trkpt lat="40.0935958" lon="15.2408057"><ele>49.333333333333336</ele><time>2026-05-02T07:00:20.921Z</time></trkpt><trkpt lat="40.0934271" lon="15.24091"><ele>51.0</ele><time>2026-05-02T07:00:21.927Z</time></trkpt><trkpt lat="40.0932652" lon="15.2410152"><ele>43.333333333333336</ele><time>2026-05-02T07:00:22.927Z</time></trkpt><trkpt lat="40.0931128" lon="15.2411245"><ele>35.66666666666667</ele><time>2026-05-02T07:00:23.928Z</time></trkpt><trkpt lat="40.0929652" lon="15.2412262"><ele>28.0</ele><time>2026-05-02T07:00:24.924Z</time></trkpt><trkpt lat="40.092832" lon="15.241322"><ele>28.0</ele><time>2026-05-02T07:00:25.924Z</time></trkpt><trkpt lat="40.0927032" lon="15.2414105"><ele>28.0</ele><time>2026-05-02T07:00:26.935Z</time></trkpt><trkpt lat="40.0925665" lon="15.2415026"><ele>28.0</ele><time>2026-05-02T07:00:27.925Z</time></trkpt><trkpt lat="40.0924207" lon="15.2416076"><ele>30.666666666666668</ele><time>2026-05-02T07:00:28.934Z</time></trkpt><trkpt lat="40.0922773" lon="15.2417192"><ele>33.333333333333336</ele><time>2026-05-02T07:00:29.924Z</time></trkpt><trkpt lat="40.0921399" lon="15.2418324"><ele>36.0</ele><time>2026-05-02T07:00:30.924Z</time></trkpt><trkpt lat="40.0920108" lon="15.2419577"><ele>36.0</ele><time>2026-05-02T07:00:31.92Z</time></trkpt><trkpt lat="40.0918937" lon="15.2420957"><ele>36.0</ele><time>2026-05-02T07:00:32.922Z</time></trkpt><trkpt lat="40.0917921" lon="15.242245"><ele>36.0</ele><time>2026-05-02T07:00:33.921Z</time></trkpt><trkpt lat="40.0917067" lon="15.2424058"><ele>36.4</ele><time>2026-05-02T07:00:34.931Z</time></trkpt><trkpt lat="40.0916316" lon="15.2425747"><ele>36.8</ele><time>2026-05-02T07:00:35.933Z</time></trkpt><trkpt lat="40.0915656" lon="15.2427107"><ele>37.199999999999996</ele><time>2026-05-02T07:00:36.93Z</time></trkpt><trkpt lat="40.0915026" lon="15.2428011"><ele>37.6</ele><time>2026-05-02T07:00:37.927Z</time></trkpt><trkpt lat="40.0914524" lon="15.2428703"><ele>38.0</ele><time>2026-05-02T07:00:38.933Z</time></trkpt><trkpt lat="40.0913566" lon="15.2429713"><ele>38.0</ele><time>2026-05-02T07:00:40.927Z</time></trkpt><trkpt lat="40.0912936" lon="15.2429964"><ele>38.0</ele><time>2026-05-02T07:00:41.933Z</time></trkpt><trkpt lat="40.0912231" lon="15.2430199"><ele>38.0</ele><time>2026-05-02T07:00:42.933Z</time></trkpt><trkpt lat="40.0911491" lon="15.2430996"><ele>38.0</ele><time>2026-05-02T07:00:43.934Z</time></trkpt><trkpt lat="40.0910842" lon="15.2432169"><ele>38.0</ele><time>2026-05-02T07:00:44.924Z</time></trkpt><trkpt lat="40.0910232" lon="15.2433675"><ele>44.33333333333333</ele><time>2026-05-02T07:00:45.928Z</time></trkpt><trkpt lat="40.0909418" lon="15.2435286"><ele>50.666666666666664</ele><time>2026-05-02T07:00:46.93Z</time></trkpt><trkpt lat="40.0908605" lon="15.2437107"><ele>57.0</ele><time>2026-05-02T07:00:47.939Z</time></trkpt><trkpt lat="40.0907841" lon="15.2439048"><ele>47.333333333333336</ele><time>2026-05-02T07:00:48.935Z</time></trkpt><trkpt lat="40.0907176" lon="15.2441167"><ele>37.66666666666667</ele><time>2026-05-02T07:00:49.916Z</time></trkpt><trkpt lat="40.0906583" lon="15.2443469"><ele>28.0</ele><time>2026-05-02T07:00:50.93Z</time></trkpt><trkpt lat="40.0905953" lon="15.244584"><ele>30.666666666666668</ele><time>2026-05-02T07:00:51.927Z</time></trkpt><trkpt lat="40.0905276" lon="15.2448244"><ele>33.333333333333336</ele><time>2026-05-02T07:00:52.928Z</time></trkpt><trkpt lat="40.0904584" lon="15.2450649"><ele>36.0</ele><time>2026-05-02T07:00:53.933Z</time></trkpt><trkpt lat="40.0904034" lon="15.2452953"><ele>36.0</ele><time>2026-05-02T07:00:54.928Z</time></trkpt><trkpt lat="40.0903638" lon="15.245526"><ele>36.0</ele><time>2026-05-02T07:00:55.925Z</time></trkpt><trkpt lat="40.090342" lon="15.2457662"><ele>36.0</ele><time>2026-05-02T07:00:56.933Z</time></trkpt><trkpt lat="40.0903307" lon="15.2460143"><ele>37.333333333333336</ele><time>2026-05-02T07:00:57.93Z</time></trkpt><trkpt lat="40.0903164" lon="15.2462756"><ele>38.66666666666667</ele><time>2026-05-02T07:00:58.95Z</time></trkpt><trkpt lat="40.0902929" lon="15.2465312"><ele>40.0</ele><time>2026-05-02T07:00:59.917Z</time></trkpt><trkpt lat="40.0902738" lon="15.2467778"><ele>42.0</ele><time>2026-05-02T07:01:00.926Z</time></trkpt><trkpt lat="40.0902577" lon="15.2470057"><ele>44.0</ele><time>2026-05-02T07:01:01.922Z</time></trkpt><trkpt lat="40.0902412" lon="15.247203"><ele>46.0</ele><time>2026-05-02T07:01:02.934Z</time></trkpt><trkpt lat="40.0902374" lon="15.2473535"><ele>48.0</ele><time>2026-05-02T07:01:03.936Z</time></trkpt><trkpt lat="40.0902286" lon="15.247477"><ele>48.8</ele><time>2026-05-02T07:01:04.931Z</time></trkpt><trkpt lat="40.0902457" lon="15.2475845"><ele>49.599999999999994</ele><time>2026-05-02T07:01:05.927Z</time></trkpt><trkpt lat="40.0902887" lon="15.2476779"><ele>50.400000000000006</ele><time>2026-05-02T07:01:06.936Z</time></trkpt><trkpt lat="40.0903587" lon="15.2477465"><ele>51.2</ele><time>2026-05-02T07:01:07.935Z</time></trkpt><trkpt lat="40.0904421" lon="15.2478092"><ele>52.0</ele><time>2026-05-02T07:01:08.934Z</time></trkpt><trkpt lat="40.0905378" lon="15.2478434"><ele>52.0</ele><time>2026-05-02T07:01:09.915Z</time></trkpt><trkpt lat="40.0906535" lon="15.2478576"><ele>52.0</ele><time>2026-05-02T07:01:10.929Z</time></trkpt><trkpt lat="40.090767" lon="15.2478679"><ele>52.0</ele><time>2026-05-02T07:01:11.926Z</time></trkpt><trkpt lat="40.0908642" lon="15.2479005"><ele>52.0</ele><time>2026-05-02T07:01:12.928Z</time></trkpt><trkpt lat="40.0909428" lon="15.2479646"><ele>52.0</ele><time>2026-05-02T07:01:13.925Z</time></trkpt><trkpt lat="40.0909984" lon="15.2480299"><ele>55.0</ele><time>2026-05-02T07:01:14.937Z</time></trkpt><trkpt lat="40.0910365" lon="15.2481158"><ele>58.0</ele><time>2026-05-02T07:01:15.922Z</time></trkpt><trkpt lat="40.0910519" lon="15.2482419"><ele>61.0</ele><time>2026-05-02T07:01:16.924Z</time></trkpt><trkpt lat="40.0910664" lon="15.2483908"><ele>64.0</ele><time>2026-05-02T07:01:17.931Z</time></trkpt><trkpt lat="40.0910637" lon="15.2485436"><ele>67.0</ele><time>2026-05-02T07:01:18.933Z</time></trkpt><trkpt lat="40.0910438" lon="15.2487103"><ele>67.5</ele><time>2026-05-02T07:01:19.924Z</time></trkpt><trkpt lat="40.0910335" lon="15.248879"><ele>68.0</ele><time>2026-05-02T07:01:20.941Z</time></trkpt><trkpt lat="40.091026" lon="15.2490472"><ele>68.5</ele><time>2026-05-02T07:01:21.931Z</time></trkpt><trkpt lat="40.0910141" lon="15.2492192"><ele>69.0</ele><time>2026-05-02T07:01:22.938Z</time></trkpt><trkpt lat="40.090997" lon="15.2493989"><ele>71.25</ele><time>2026-05-02T07:01:23.938Z</time></trkpt><trkpt lat="40.0909819" lon="15.249586"><ele>73.5</ele><time>2026-05-02T07:01:24.926Z</time></trkpt><trkpt lat="40.0909578" lon="15.2497789"><ele>75.75</ele><time>2026-05-02T07:01:25.924Z</time></trkpt><trkpt lat="40.090926" lon="15.2499778"><ele>78.0</ele><time>2026-05-02T07:01:26.924Z</time></trkpt><trkpt lat="40.0908814" lon="15.2501791"><ele>77.0</ele><time>2026-05-02T07:01:27.928Z</time></trkpt><trkpt lat="40.0908293" lon="15.2503807"><ele>76.0</ele><time>2026-05-02T07:01:28.929Z</time></trkpt><trkpt lat="40.0907656" lon="15.2505743"><ele>75.0</ele><time>2026-05-02T07:01:29.925Z</time></trkpt><trkpt lat="40.0906913" lon="15.250764"><ele>75.0</ele><time>2026-05-02T07:01:30.938Z</time></trkpt><trkpt lat="40.090608" lon="15.2509564"><ele>75.0</ele><time>2026-05-02T07:01:31.934Z</time></trkpt><trkpt lat="40.0905168" lon="15.2511574"><ele>75.0</ele><time>2026-05-02T07:01:32.924Z</time></trkpt><trkpt lat="40.0904335" lon="15.2513534"><ele>77.0</ele><time>2026-05-02T07:01:33.91Z</time></trkpt><trkpt lat="40.0903616" lon="15.2515058"><ele>79.0</ele><time>2026-05-02T07:01:34.926Z</time></trkpt><trkpt lat="40.0903043" lon="15.2516225"><ele>81.0</ele><time>2026-05-02T07:01:35.918Z</time></trkpt><trkpt lat="40.0902515" lon="15.251729"><ele>83.0</ele><time>2026-05-02T07:01:36.927Z</time></trkpt><trkpt lat="40.0902159" lon="15.251813"><ele>85.0</ele><time>2026-05-02T07:01:37.917Z</time></trkpt><trkpt lat="40.0901799" lon="15.2519215"><ele>85.0</ele><time>2026-05-02T07:01:39.926Z</time></trkpt><trkpt lat="40.0902257" lon="15.2520081"><ele>85.0</ele><time>2026-05-02T07:01:42.924Z</time></trkpt><trkpt lat="40.0903099" lon="15.2519947"><ele>85.0</ele><time>2026-05-02T07:01:44.938Z</time></trkpt><trkpt lat="40.0904136" lon="15.2518787"><ele>85.0</ele><time>2026-05-02T07:01:46.938Z</time></trkpt><trkpt lat="40.0904848" lon="15.2518102"><ele>85.0</ele><time>2026-05-02T07:01:47.927Z</time></trkpt><trkpt lat="40.0905627" lon="15.2517397"><ele>85.0</ele><time>2026-05-02T07:01:48.924Z</time></trkpt><trkpt lat="40.0906489" lon="15.2516611"><ele>85.0</ele><time>2026-05-02T07:01:49.93Z</time></trkpt><trkpt lat="40.0907288" lon="15.2515766"><ele>85.0</ele><time>2026-05-02T07:01:50.934Z</time></trkpt><trkpt lat="40.0908047" lon="15.2514783"><ele>85.0</ele><time>2026-05-02T07:01:51.925Z</time></trkpt><trkpt lat="40.0908715" lon="15.2513622"><ele>85.0</ele><time>2026-05-02T07:01:52.934Z</time></trkpt><trkpt lat="40.0909093" lon="15.2512313"><ele>85.66666666666666</ele><time>2026-05-02T07:01:53.93Z</time></trkpt><trkpt lat="40.0909279" lon="15.2511152"><ele>86.33333333333333</ele><time>2026-05-02T07:01:54.916Z</time></trkpt><trkpt lat="40.09094" lon="15.2510185"><ele>87.0</ele><time>2026-05-02T07:01:55.927Z</time></trkpt><trkpt lat="40.0909657" lon="15.2509244"><ele>87.66666666666667</ele><time>2026-05-02T07:01:56.927Z</time></trkpt><trkpt lat="40.0910138" lon="15.2508174"><ele>88.33333333333334</ele><time>2026-05-02T07:01:57.924Z</time></trkpt><trkpt lat="40.0910718" lon="15.2507139"><ele>89.0</ele><time>2026-05-02T07:01:58.934Z</time></trkpt><trkpt lat="40.0911273" lon="15.250624"><ele>89.0</ele><time>2026-05-02T07:01:59.917Z</time></trkpt><trkpt lat="40.0911679" lon="15.2505456"><ele>89.0</ele><time>2026-05-02T07:02:00.926Z</time></trkpt><trkpt lat="40.0912294" lon="15.2504775"><ele>89.0</ele><time>2026-05-02T07:02:02.925Z</time></trkpt><trkpt lat="40.0912895" lon="15.2505189"><ele>89.0</ele><time>2026-05-02T07:02:04.924Z</time></trkpt><trkpt lat="40.091254" lon="15.2506204"><ele>89.0</ele><time>2026-05-02T07:02:06.923Z</time></trkpt><trkpt lat="40.0912209" lon="15.2507102"><ele>89.0</ele><time>2026-05-02T07:02:07.917Z</time></trkpt><trkpt lat="40.0912038" lon="15.250834"><ele>91.80000000000001</ele><time>2026-05-02T07:02:08.92Z</time></trkpt><trkpt lat="40.0911863" lon="15.2509787"><ele>94.60000000000001</ele><time>2026-05-02T07:02:09.924Z</time></trkpt><trkpt lat="40.0911741" lon="15.2511279"><ele>97.4</ele><time>2026-05-02T07:02:10.921Z</time></trkpt><trkpt lat="40.091177" lon="15.2512736"><ele>100.2</ele><time>2026-05-02T07:02:11.917Z</time></trkpt><trkpt lat="40.0911653" lon="15.2514075"><ele>103.0</ele><time>2026-05-02T07:02:12.93Z</time></trkpt><trkpt lat="40.0911321" lon="15.251525"><ele>105.66666666666667</ele><time>2026-05-02T07:02:13.927Z</time></trkpt><trkpt lat="40.0910734" lon="15.2516329"><ele>108.33333333333334</ele><time>2026-05-02T07:02:14.926Z</time></trkpt><trkpt lat="40.0910053" lon="15.2517308"><ele>111.0</ele><time>2026-05-02T07:02:15.934Z</time></trkpt><trkpt lat="40.0909601" lon="15.2518336"><ele>113.66666666666666</ele><time>2026-05-02T07:02:16.918Z</time></trkpt><trkpt lat="40.0909233" lon="15.2519282"><ele>116.33333333333333</ele><time>2026-05-02T07:02:17.922Z</time></trkpt><trkpt lat="40.0908977" lon="15.2520133"><ele>119.0</ele><time>2026-05-02T07:02:18.919Z</time></trkpt><trkpt lat="40.0908784" lon="15.2520942"><ele>119.0</ele><time>2026-05-02T07:02:19.926Z</time></trkpt><trkpt lat="40.0908471" lon="15.2522466"><ele>119.0</ele><time>2026-05-02T07:02:21.931Z</time></trkpt><trkpt lat="40.0908207" lon="15.2523509"><ele>119.0</ele><time>2026-05-02T07:02:22.914Z</time></trkpt><trkpt lat="40.0907836" lon="15.2524816"><ele>119.0</ele><time>2026-05-02T07:02:23.926Z</time></trkpt><trkpt lat="40.090754" lon="15.252634"><ele>119.0</ele><time>2026-05-02T07:02:24.924Z</time></trkpt><trkpt lat="40.090726" lon="15.2528044"><ele>113.25</ele><time>2026-05-02T07:02:25.926Z</time></trkpt><trkpt lat="40.090711" lon="15.2529842"><ele>107.5</ele><time>2026-05-02T07:02:26.94Z</time></trkpt><trkpt lat="40.0907081" lon="15.2531768"><ele>101.75</ele><time>2026-05-02T07:02:27.927Z</time></trkpt><trkpt lat="40.0907034" lon="15.2533647"><ele>96.0</ele><time>2026-05-02T07:02:28.925Z</time></trkpt><trkpt lat="40.0907018" lon="15.2535327"><ele>96.0</ele><time>2026-05-02T07:02:29.923Z</time></trkpt><trkpt lat="40.090697" lon="15.2536782"><ele>96.0</ele><time>2026-05-02T07:02:30.93Z</time></trkpt><trkpt lat="40.0906963" lon="15.2538077"><ele>96.0</ele><time>2026-05-02T07:02:31.929Z</time></trkpt><trkpt lat="40.0907013" lon="15.2539341"><ele>96.0</ele><time>2026-05-02T07:02:32.928Z</time></trkpt><trkpt lat="40.0907112" lon="15.2540662"><ele>96.0</ele><time>2026-05-02T07:02:33.922Z</time></trkpt><trkpt lat="40.0907237" lon="15.2542153"><ele>97.75</ele><time>2026-05-02T07:02:34.93Z</time></trkpt><trkpt lat="40.0907298" lon="15.2543906"><ele>99.5</ele><time>2026-05-02T07:02:35.93Z</time></trkpt><trkpt lat="40.0907148" lon="15.25458"><ele>101.25</ele><time>2026-05-02T07:02:36.929Z</time></trkpt><trkpt lat="40.0906875" lon="15.2547539"><ele>103.0</ele><time>2026-05-02T07:02:37.933Z</time></trkpt><trkpt lat="40.090667" lon="15.2549013"><ele>103.75</ele><time>2026-05-02T07:02:38.933Z</time></trkpt><trkpt lat="40.0906616" lon="15.2550536"><ele>104.5</ele><time>2026-05-02T07:02:39.927Z</time></trkpt><trkpt lat="40.090679" lon="15.2552244"><ele>105.25</ele><time>2026-05-02T07:02:40.942Z</time></trkpt><trkpt lat="40.0907109" lon="15.2553957"><ele>106.0</ele><time>2026-05-02T07:02:41.931Z</time></trkpt><trkpt lat="40.0907554" lon="15.2555446"><ele>107.0</ele><time>2026-05-02T07:02:42.939Z</time></trkpt><trkpt lat="40.0907764" lon="15.2556633"><ele>108.0</ele><time>2026-05-02T07:02:43.932Z</time></trkpt><trkpt lat="40.0907835" lon="15.255774"><ele>109.0</ele><time>2026-05-02T07:02:44.925Z</time></trkpt><trkpt lat="40.0907747" lon="15.2558648"><ele>110.0</ele><time>2026-05-02T07:02:45.929Z</time></trkpt><trkpt lat="40.0907092" lon="15.2560171"><ele>111.0</ele><time>2026-05-02T07:02:47.93Z</time></trkpt><trkpt lat="40.0906464" lon="15.2560984"><ele>111.0</ele><time>2026-05-02T07:02:48.934Z</time></trkpt><trkpt lat="40.0905657" lon="15.2561408"><ele>111.0</ele><time>2026-05-02T07:02:49.924Z</time></trkpt><trkpt lat="40.0904964" lon="15.2562309"><ele>111.0</ele><time>2026-05-02T07:02:50.925Z</time></trkpt><trkpt lat="40.0904446" lon="15.2564019"><ele>111.0</ele><time>2026-05-02T07:02:51.932Z</time></trkpt><trkpt lat="40.0904024" lon="15.2565655"><ele>114.6</ele><time>2026-05-02T07:02:52.937Z</time></trkpt><trkpt lat="40.0903685" lon="15.2567123"><ele>118.19999999999999</ele><time>2026-05-02T07:02:53.936Z</time></trkpt><trkpt lat="40.0903511" lon="15.2568413"><ele>121.80000000000001</ele><time>2026-05-02T07:02:54.935Z</time></trkpt><trkpt lat="40.0903468" lon="15.2569728"><ele>125.4</ele><time>2026-05-02T07:02:55.937Z</time></trkpt><trkpt lat="40.0903489" lon="15.2571095"><ele>129.0</ele><time>2026-05-02T07:02:56.931Z</time></trkpt><trkpt lat="40.0903333" lon="15.2572221"><ele>129.66666666666666</ele><time>2026-05-02T07:02:57.934Z</time></trkpt><trkpt lat="40.0902919" lon="15.2573095"><ele>130.33333333333334</ele><time>2026-05-02T07:02:58.928Z</time></trkpt><trkpt lat="40.0902451" lon="15.2573734"><ele>131.0</ele><time>2026-05-02T07:02:59.929Z</time></trkpt><trkpt lat="40.0901888" lon="15.2574285"><ele>131.66666666666669</ele><time>2026-05-02T07:03:00.929Z</time></trkpt><trkpt lat="40.0900948" lon="15.2574238"><ele>132.33333333333334</ele><time>2026-05-02T07:03:01.925Z</time></trkpt><trkpt lat="40.0900001" lon="15.2573883"><ele>133.0</ele><time>2026-05-02T07:03:02.919Z</time></trkpt><trkpt lat="40.0899211" lon="15.2573886"><ele>133.0</ele><time>2026-05-02T07:03:03.914Z</time></trkpt><trkpt lat="40.0898405" lon="15.2574294"><ele>133.0</ele><time>2026-05-02T07:03:04.922Z</time></trkpt><trkpt lat="40.0897613" lon="15.2575172"><ele>133.0</ele><time>2026-05-02T07:03:05.927Z</time></trkpt><trkpt lat="40.0896848" lon="15.2576396"><ele>133.0</ele><time>2026-05-02T07:03:06.929Z</time></trkpt><trkpt lat="40.0896005" lon="15.257765"><ele>133.0</ele><time>2026-05-02T07:03:07.911Z</time></trkpt><trkpt lat="40.0895309" lon="15.2578918"><ele>133.0</ele><time>2026-05-02T07:03:08.916Z</time></trkpt><trkpt lat="40.0894831" lon="15.2579997"><ele>133.0</ele><time>2026-05-02T07:03:09.926Z</time></trkpt><trkpt lat="40.0894582" lon="15.2581176"><ele>133.0</ele><time>2026-05-02T07:03:10.924Z</time></trkpt><trkpt lat="40.0894538" lon="15.2582606"><ele>133.0</ele><time>2026-05-02T07:03:11.92Z</time></trkpt><trkpt lat="40.0894661" lon="15.2584199"><ele>133.0</ele><time>2026-05-02T07:03:12.918Z</time></trkpt><trkpt lat="40.089485" lon="15.258576"><ele>136.5</ele><time>2026-05-02T07:03:13.93Z</time></trkpt><trkpt lat="40.0894987" lon="15.258726"><ele>140.0</ele><time>2026-05-02T07:03:14.936Z</time></trkpt><trkpt lat="40.0895109" lon="15.2588811"><ele>143.5</ele><time>2026-05-02T07:03:15.93Z</time></trkpt><trkpt lat="40.0895256" lon="15.2590386"><ele>147.0</ele><time>2026-05-02T07:03:16.937Z</time></trkpt><trkpt lat="40.0895476" lon="15.2592049"><ele>147.25</ele><time>2026-05-02T07:03:17.935Z</time></trkpt><trkpt lat="40.0895705" lon="15.2593761"><ele>147.5</ele><time>2026-05-02T07:03:18.933Z</time></trkpt><trkpt lat="40.0895806" lon="15.2595541"><ele>147.75</ele><time>2026-05-02T07:03:19.929Z</time></trkpt><trkpt lat="40.089587" lon="15.2597393"><ele>148.0</ele><time>2026-05-02T07:03:20.922Z</time></trkpt><trkpt lat="40.0895901" lon="15.2599268"><ele>148.5</ele><time>2026-05-02T07:03:21.93Z</time></trkpt><trkpt lat="40.0895877" lon="15.2601155"><ele>149.0</ele><time>2026-05-02T07:03:22.946Z</time></trkpt><trkpt lat="40.0895716" lon="15.2603078"><ele>149.5</ele><time>2026-05-02T07:03:23.918Z</time></trkpt><trkpt lat="40.0895542" lon="15.2605063"><ele>150.0</ele><time>2026-05-02T07:03:24.926Z</time></trkpt><trkpt lat="40.0895374" lon="15.2607027"><ele>153.0</ele><time>2026-05-02T07:03:25.924Z</time></trkpt><trkpt lat="40.0895223" lon="15.2609003"><ele>156.0</ele><time>2026-05-02T07:03:26.918Z</time></trkpt><trkpt lat="40.0895032" lon="15.2610971"><ele>159.0</ele><time>2026-05-02T07:03:27.923Z</time></trkpt><trkpt lat="40.0894894" lon="15.2612915"><ele>159.75</ele><time>2026-05-02T07:03:28.933Z</time></trkpt><trkpt lat="40.0894803" lon="15.2614743"><ele>160.5</ele><time>2026-05-02T07:03:29.928Z</time></trkpt><trkpt lat="40.0894761" lon="15.261657"><ele>161.25</ele><time>2026-05-02T07:03:30.927Z</time></trkpt><trkpt lat="40.0894863" lon="15.2618462"><ele>162.0</ele><time>2026-05-02T07:03:31.93Z</time></trkpt><trkpt lat="40.0895091" lon="15.2620391"><ele>162.0</ele><time>2026-05-02T07:03:32.93Z</time></trkpt><trkpt lat="40.0895365" lon="15.2622246"><ele>162.0</ele><time>2026-05-02T07:03:33.924Z</time></trkpt><trkpt lat="40.089558" lon="15.2624119"><ele>162.0</ele><time>2026-05-02T07:03:34.934Z</time></trkpt><trkpt lat="40.089574" lon="15.2625949"><ele>162.0</ele><time>2026-05-02T07:03:35.935Z</time></trkpt><trkpt lat="40.0895863" lon="15.2627589"><ele>162.75</ele><time>2026-05-02T07:03:36.932Z</time></trkpt><trkpt lat="40.0895971" lon="15.2628994"><ele>163.5</ele><time>2026-05-02T07:03:37.919Z</time></trkpt><trkpt lat="40.0895918" lon="15.2630434"><ele>164.25</ele><time>2026-05-02T07:03:38.935Z</time></trkpt><trkpt lat="40.0895611" lon="15.2631926"><ele>165.0</ele><time>2026-05-02T07:03:39.931Z</time></trkpt><trkpt lat="40.0895212" lon="15.2633484"><ele>165.0</ele><time>2026-05-02T07:03:40.932Z</time></trkpt><trkpt lat="40.0894866" lon="15.2635098"><ele>165.0</ele><time>2026-05-02T07:03:41.925Z</time></trkpt><trkpt lat="40.0894482" lon="15.2636759"><ele>165.0</ele><time>2026-05-02T07:03:42.931Z</time></trkpt><trkpt lat="40.0894093" lon="15.2638462"><ele>165.0</ele><time>2026-05-02T07:03:43.916Z</time></trkpt><trkpt lat="40.089369" lon="15.2640172"><ele>165.4</ele><time>2026-05-02T07:03:44.937Z</time></trkpt><trkpt lat="40.0893388" lon="15.2641612"><ele>165.8</ele><time>2026-05-02T07:03:45.931Z</time></trkpt><trkpt lat="40.0893172" lon="15.2642897"><ele>166.2</ele><time>2026-05-02T07:03:46.936Z</time></trkpt><trkpt lat="40.0893166" lon="15.2644176"><ele>166.6</ele><time>2026-05-02T07:03:47.924Z</time></trkpt><trkpt lat="40.0893385" lon="15.2645544"><ele>167.0</ele><time>2026-05-02T07:03:48.932Z</time></trkpt><trkpt lat="40.0893781" lon="15.2646935"><ele>165.25</ele><time>2026-05-02T07:03:49.935Z</time></trkpt><trkpt lat="40.0894329" lon="15.2648341"><ele>163.5</ele><time>2026-05-02T07:03:50.927Z</time></trkpt><trkpt lat="40.0894935" lon="15.2649781"><ele>161.75</ele><time>2026-05-02T07:03:51.929Z</time></trkpt><trkpt lat="40.0895554" lon="15.2651097"><ele>160.0</ele><time>2026-05-02T07:03:52.945Z</time></trkpt><trkpt lat="40.0896245" lon="15.265221"><ele>160.0</ele><time>2026-05-02T07:03:53.932Z</time></trkpt><trkpt lat="40.089703" lon="15.2653257"><ele>160.0</ele><time>2026-05-02T07:03:54.934Z</time></trkpt><trkpt lat="40.0898018" lon="15.2654214"><ele>160.0</ele><time>2026-05-02T07:03:55.93Z</time></trkpt><trkpt lat="40.0899022" lon="15.2655255"><ele>160.0</ele><time>2026-05-02T07:03:56.928Z</time></trkpt><trkpt lat="40.0899988" lon="15.2656253"><ele>165.25</ele><time>2026-05-02T07:03:57.928Z</time></trkpt><trkpt lat="40.0900811" lon="15.2657452"><ele>170.5</ele><time>2026-05-02T07:03:58.925Z</time></trkpt><trkpt lat="40.0901444" lon="15.2658884"><ele>175.75</ele><time>2026-05-02T07:03:59.933Z</time></trkpt><trkpt lat="40.0902046" lon="15.2660382"><ele>181.0</ele><time>2026-05-02T07:04:00.926Z</time></trkpt><trkpt lat="40.0902652" lon="15.2661958"><ele>181.0</ele><time>2026-05-02T07:04:01.906Z</time></trkpt><trkpt lat="40.0903332" lon="15.2663553"><ele>181.0</ele><time>2026-05-02T07:04:02.904Z</time></trkpt><trkpt lat="40.090405" lon="15.2665142"><ele>181.0</ele><time>2026-05-02T07:04:03.929Z</time></trkpt><trkpt lat="40.090472" lon="15.2666654"><ele>181.0</ele><time>2026-05-02T07:04:04.922Z</time></trkpt><trkpt lat="40.0905311" lon="15.2668072"><ele>179.0</ele><time>2026-05-02T07:04:05.923Z</time></trkpt><trkpt lat="40.0906151" lon="15.2669341"><ele>177.0</ele><time>2026-05-02T07:04:06.926Z</time></trkpt><trkpt lat="40.090701" lon="15.2670424"><ele>175.0</ele><time>2026-05-02T07:04:07.931Z</time></trkpt><trkpt lat="40.0907869" lon="15.26713"><ele>173.0</ele><time>2026-05-02T07:04:08.924Z</time></trkpt><trkpt lat="40.090855" lon="15.2672135"><ele>176.16666666666666</ele><time>2026-05-02T07:04:09.931Z</time></trkpt><trkpt lat="40.0908983" lon="15.2672967"><ele>179.33333333333331</ele><time>2026-05-02T07:04:10.937Z</time></trkpt><trkpt lat="40.0909114" lon="15.2673889"><ele>182.5</ele><time>2026-05-02T07:04:11.939Z</time></trkpt><trkpt lat="40.090911" lon="15.2674942"><ele>185.66666666666666</ele><time>2026-05-02T07:04:12.932Z</time></trkpt><trkpt lat="40.0908954" lon="15.2675947"><ele>188.83333333333334</ele><time>2026-05-02T07:04:13.927Z</time></trkpt><trkpt lat="40.0908624" lon="15.2676812"><ele>192.0</ele><time>2026-05-02T07:04:14.937Z</time></trkpt><trkpt lat="40.090803" lon="15.2677432"><ele>189.39999999999998</ele><time>2026-05-02T07:04:15.914Z</time></trkpt><trkpt lat="40.0907284" lon="15.2677738"><ele>186.79999999999998</ele><time>2026-05-02T07:04:16.903Z</time></trkpt><trkpt lat="40.0906462" lon="15.2677763"><ele>184.2</ele><time>2026-05-02T07:04:17.926Z</time></trkpt><trkpt lat="40.0905473" lon="15.2677728"><ele>181.6</ele><time>2026-05-02T07:04:18.928Z</time></trkpt><trkpt lat="40.0904332" lon="15.2677596"><ele>179.0</ele><time>2026-05-02T07:04:19.928Z</time></trkpt><trkpt lat="40.0903183" lon="15.2677504"><ele>179.0</ele><time>2026-05-02T07:04:20.919Z</time></trkpt><trkpt lat="40.0902144" lon="15.2677505"><ele>179.0</ele><time>2026-05-02T07:04:21.933Z</time></trkpt><trkpt lat="40.090127" lon="15.2677779"><ele>179.0</ele><time>2026-05-02T07:04:22.927Z</time></trkpt><trkpt lat="40.0900496" lon="15.2678411"><ele>179.0</ele><time>2026-05-02T07:04:23.915Z</time></trkpt><trkpt lat="40.0899795" lon="15.2679349"><ele>179.0</ele><time>2026-05-02T07:04:24.93Z</time></trkpt><trkpt lat="40.0899223" lon="15.2680426"><ele>179.75</ele><time>2026-05-02T07:04:25.929Z</time></trkpt><trkpt lat="40.0898629" lon="15.2681789"><ele>180.5</ele><time>2026-05-02T07:04:26.939Z</time></trkpt><trkpt lat="40.0897986" lon="15.2683364"><ele>181.25</ele><time>2026-05-02T07:04:27.918Z</time></trkpt><trkpt lat="40.0897305" lon="15.268498"><ele>182.0</ele><time>2026-05-02T07:04:28.935Z</time></trkpt><trkpt lat="40.0896568" lon="15.2686657"><ele>182.0</ele><time>2026-05-02T07:04:29.91Z</time></trkpt><trkpt lat="40.0895833" lon="15.2688246"><ele>182.0</ele><time>2026-05-02T07:04:30.937Z</time></trkpt><trkpt lat="40.0895164" lon="15.268978"><ele>182.0</ele><time>2026-05-02T07:04:31.925Z</time></trkpt><trkpt lat="40.0894479" lon="15.2691343"><ele>182.0</ele><time>2026-05-02T07:04:32.93Z</time></trkpt><trkpt lat="40.0893659" lon="15.2692741"><ele>183.2</ele><time>2026-05-02T07:04:33.927Z</time></trkpt><trkpt lat="40.0892809" lon="15.2693951"><ele>184.39999999999998</ele><time>2026-05-02T07:04:34.927Z</time></trkpt><trkpt lat="40.0891945" lon="15.2694859"><ele>185.60000000000002</ele><time>2026-05-02T07:04:35.935Z</time></trkpt><trkpt lat="40.089111" lon="15.2695583"><ele>186.8</ele><time>2026-05-02T07:04:36.931Z</time></trkpt><trkpt lat="40.0890081" lon="15.2695989"><ele>188.0</ele><time>2026-05-02T07:04:37.927Z</time></trkpt><trkpt lat="40.0888931" lon="15.2696283"><ele>188.0</ele><time>2026-05-02T07:04:38.938Z</time></trkpt><trkpt lat="40.0887848" lon="15.2696543"><ele>188.0</ele><time>2026-05-02T07:04:39.914Z</time></trkpt><trkpt lat="40.0886831" lon="15.269686"><ele>188.0</ele><time>2026-05-02T07:04:40.93Z</time></trkpt><trkpt lat="40.0885888" lon="15.2697137"><ele>188.0</ele><time>2026-05-02T07:04:41.921Z</time></trkpt><trkpt lat="40.0884959" lon="15.2697486"><ele>188.0</ele><time>2026-05-02T07:04:42.922Z</time></trkpt><trkpt lat="40.0884188" lon="15.2697833"><ele>188.2</ele><time>2026-05-02T07:04:43.925Z</time></trkpt><trkpt lat="40.0883541" lon="15.2698565"><ele>188.4</ele><time>2026-05-02T07:04:44.929Z</time></trkpt><trkpt lat="40.0882911" lon="15.2699453"><ele>188.6</ele><time>2026-05-02T07:04:45.919Z</time></trkpt><trkpt lat="40.0882297" lon="15.270066"><ele>188.79999999999998</ele><time>2026-05-02T07:04:46.931Z</time></trkpt><trkpt lat="40.0881691" lon="15.270209"><ele>189.0</ele><time>2026-05-02T07:04:47.933Z</time></trkpt><trkpt lat="40.0881153" lon="15.2703644"><ele>189.0</ele><time>2026-05-02T07:04:48.93Z</time></trkpt><trkpt lat="40.0880472" lon="15.2705106"><ele>189.0</ele><time>2026-05-02T07:04:49.929Z</time></trkpt><trkpt lat="40.0879766" lon="15.2706451"><ele>189.0</ele><time>2026-05-02T07:04:50.929Z</time></trkpt><trkpt lat="40.0879053" lon="15.270758"><ele>189.0</ele><time>2026-05-02T07:04:51.925Z</time></trkpt><trkpt lat="40.08784" lon="15.270851"><ele>190.66666666666666</ele><time>2026-05-02T07:04:52.931Z</time></trkpt><trkpt lat="40.0877811" lon="15.2709449"><ele>192.33333333333331</ele><time>2026-05-02T07:04:53.927Z</time></trkpt><trkpt lat="40.0877451" lon="15.2710465"><ele>194.0</ele><time>2026-05-02T07:04:54.924Z</time></trkpt><trkpt lat="40.0877328" lon="15.2711387"><ele>195.66666666666666</ele><time>2026-05-02T07:04:55.925Z</time></trkpt><trkpt lat="40.0877463" lon="15.2712769"><ele>197.33333333333331</ele><time>2026-05-02T07:04:57.937Z</time></trkpt><trkpt lat="40.0877692" lon="15.2713594"><ele>199.0</ele><time>2026-05-02T07:04:58.933Z</time></trkpt><trkpt lat="40.0877903" lon="15.2714583"><ele>200.49999999999997</ele><time>2026-05-02T07:04:59.927Z</time></trkpt><trkpt lat="40.0877989" lon="15.2715687"><ele>202.0</ele><time>2026-05-02T07:05:00.922Z</time></trkpt><trkpt lat="40.0878042" lon="15.2716812"><ele>203.5</ele><time>2026-05-02T07:05:01.932Z</time></trkpt><trkpt lat="40.0877963" lon="15.2717894"><ele>205.0</ele><time>2026-05-02T07:05:02.923Z</time></trkpt><trkpt lat="40.0877753" lon="15.2718977"><ele>206.49999999999997</ele><time>2026-05-02T07:05:03.924Z</time></trkpt><trkpt lat="40.0877418" lon="15.2719963"><ele>208.0</ele><time>2026-05-02T07:05:04.912Z</time></trkpt><trkpt lat="40.0876875" lon="15.2720854"><ele>208.0</ele><time>2026-05-02T07:05:05.932Z</time></trkpt><trkpt lat="40.0876214" lon="15.2721736"><ele>208.0</ele><time>2026-05-02T07:05:06.923Z</time></trkpt><trkpt lat="40.0875511" lon="15.2722671"><ele>208.0</ele><time>2026-05-02T07:05:07.923Z</time></trkpt><trkpt lat="40.0874829" lon="15.2723577"><ele>208.0</ele><time>2026-05-02T07:05:08.924Z</time></trkpt><trkpt lat="40.087422" lon="15.2724462"><ele>208.0</ele><time>2026-05-02T07:05:09.933Z</time></trkpt><trkpt lat="40.0873706" lon="15.2725142"><ele>206.83333333333331</ele><time>2026-05-02T07:05:10.931Z</time></trkpt><trkpt lat="40.0873222" lon="15.2725769"><ele>205.66666666666666</ele><time>2026-05-02T07:05:11.92Z</time></trkpt><trkpt lat="40.0872873" lon="15.2726611"><ele>204.5</ele><time>2026-05-02T07:05:12.919Z</time></trkpt><trkpt lat="40.0872723" lon="15.2727712"><ele>203.33333333333331</ele><time>2026-05-02T07:05:13.929Z</time></trkpt><trkpt lat="40.0872675" lon="15.2729072"><ele>202.16666666666666</ele><time>2026-05-02T07:05:14.923Z</time></trkpt><trkpt lat="40.0872724" lon="15.273056"><ele>201.0</ele><time>2026-05-02T07:05:15.928Z</time></trkpt><trkpt lat="40.08728" lon="15.2732077"><ele>201.0</ele><time>2026-05-02T07:05:16.93Z</time></trkpt><trkpt lat="40.0872788" lon="15.2733685"><ele>201.0</ele><time>2026-05-02T07:05:17.926Z</time></trkpt><trkpt lat="40.0872728" lon="15.2735381"><ele>201.0</ele><time>2026-05-02T07:05:18.922Z</time></trkpt><trkpt lat="40.0872693" lon="15.2737174"><ele>201.0</ele><time>2026-05-02T07:05:19.927Z</time></trkpt><trkpt lat="40.0872684" lon="15.2739034"><ele>203.25</ele><time>2026-05-02T07:05:20.914Z</time></trkpt><trkpt lat="40.087261" lon="15.2740956"><ele>205.5</ele><time>2026-05-02T07:05:21.924Z</time></trkpt><trkpt lat="40.0872363" lon="15.274288"><ele>207.75</ele><time>2026-05-02T07:05:22.926Z</time></trkpt><trkpt lat="40.0872" lon="15.2744755"><ele>210.0</ele><time>2026-05-02T07:05:23.92Z</time></trkpt><trkpt lat="40.0871656" lon="15.2746536"><ele>212.6</ele><time>2026-05-02T07:05:24.929Z</time></trkpt><trkpt lat="40.0871265" lon="15.274815"><ele>215.2</ele><time>2026-05-02T07:05:25.919Z</time></trkpt><trkpt lat="40.0870906" lon="15.2749437"><ele>217.8</ele><time>2026-05-02T07:05:26.937Z</time></trkpt><trkpt lat="40.0870499" lon="15.2750488"><ele>220.4</ele><time>2026-05-02T07:05:27.926Z</time></trkpt><trkpt lat="40.0869868" lon="15.2751371"><ele>223.0</ele><time>2026-05-02T07:05:28.919Z</time></trkpt><trkpt lat="40.0869024" lon="15.2752233"><ele>223.0</ele><time>2026-05-02T07:05:29.922Z</time></trkpt><trkpt lat="40.0868094" lon="15.2753069"><ele>223.0</ele><time>2026-05-02T07:05:30.93Z</time></trkpt><trkpt lat="40.0867144" lon="15.2754008"><ele>223.0</ele><time>2026-05-02T07:05:31.923Z</time></trkpt><trkpt lat="40.0866208" lon="15.2754981"><ele>223.0</ele><time>2026-05-02T07:05:32.913Z</time></trkpt><trkpt lat="40.0865368" lon="15.2755798"><ele>223.66666666666666</ele><time>2026-05-02T07:05:33.918Z</time></trkpt><trkpt lat="40.0864707" lon="15.2756488"><ele>224.33333333333331</ele><time>2026-05-02T07:05:34.933Z</time></trkpt><trkpt lat="40.0864165" lon="15.2757078"><ele>225.0</ele><time>2026-05-02T07:05:35.931Z</time></trkpt><trkpt lat="40.0863493" lon="15.2758387"><ele>225.66666666666669</ele><time>2026-05-02T07:05:37.919Z</time></trkpt><trkpt lat="40.0863552" lon="15.2759776"><ele>226.33333333333334</ele><time>2026-05-02T07:05:39.926Z</time></trkpt><trkpt lat="40.0863951" lon="15.2760442"><ele>227.0</ele><time>2026-05-02T07:05:40.932Z</time></trkpt><trkpt lat="40.0865125" lon="15.2760643"><ele>227.6</ele><time>2026-05-02T07:05:42.928Z</time></trkpt><trkpt lat="40.0866147" lon="15.2760471"><ele>228.2</ele><time>2026-05-02T07:05:44.927Z</time></trkpt><trkpt lat="40.0866869" lon="15.2760293"><ele>228.8</ele><time>2026-05-02T07:05:45.922Z</time></trkpt><trkpt lat="40.0867768" lon="15.2760032"><ele>229.4</ele><time>2026-05-02T07:05:46.933Z</time></trkpt><trkpt lat="40.0868847" lon="15.2759737"><ele>230.0</ele><time>2026-05-02T07:05:47.924Z</time></trkpt><trkpt lat="40.0870098" lon="15.2759355"><ele>230.0</ele><time>2026-05-02T07:05:48.927Z</time></trkpt><trkpt lat="40.087139" lon="15.2758919"><ele>230.0</ele><time>2026-05-02T07:05:49.926Z</time></trkpt><trkpt lat="40.087274" lon="15.2758541"><ele>230.0</ele><time>2026-05-02T07:05:50.94Z</time></trkpt><trkpt lat="40.0874108" lon="15.2758118"><ele>230.0</ele><time>2026-05-02T07:05:51.915Z</time></trkpt><trkpt lat="40.0875433" lon="15.2757766"><ele>231.0</ele><time>2026-05-02T07:05:52.915Z</time></trkpt><trkpt lat="40.0876691" lon="15.2757366"><ele>232.0</ele><time>2026-05-02T07:05:53.907Z</time></trkpt><trkpt lat="40.0877991" lon="15.2756895"><ele>233.0</ele><time>2026-05-02T07:05:54.919Z</time></trkpt><trkpt lat="40.087925" lon="15.2756427"><ele>234.0</ele><time>2026-05-02T07:05:55.905Z</time></trkpt><trkpt lat="40.088041" lon="15.2756036"><ele>234.66666666666666</ele><time>2026-05-02T07:05:56.918Z</time></trkpt><trkpt lat="40.088144" lon="15.2755809"><ele>235.33333333333331</ele><time>2026-05-02T07:05:57.916Z</time></trkpt><trkpt lat="40.088235" lon="15.2755693"><ele>236.0</ele><time>2026-05-02T07:05:58.927Z</time></trkpt><trkpt lat="40.0883137" lon="15.2755729"><ele>236.66666666666666</ele><time>2026-05-02T07:05:59.908Z</time></trkpt><trkpt lat="40.0883914" lon="15.2755841"><ele>237.33333333333331</ele><time>2026-05-02T07:06:00.929Z</time></trkpt><trkpt lat="40.0884659" lon="15.2756253"><ele>238.0</ele><time>2026-05-02T07:06:01.928Z</time></trkpt><trkpt lat="40.0885536" lon="15.2756605"><ele>238.0</ele><time>2026-05-02T07:06:02.929Z</time></trkpt><trkpt lat="40.0886205" lon="15.2757102"><ele>238.0</ele><time>2026-05-02T07:06:03.911Z</time></trkpt><trkpt lat="40.0886654" lon="15.2757896"><ele>238.0</ele><time>2026-05-02T07:06:04.924Z</time></trkpt><trkpt lat="40.0887109" lon="15.275891"><ele>238.0</ele><time>2026-05-02T07:06:05.928Z</time></trkpt><trkpt lat="40.0887589" lon="15.2760067"><ele>238.0</ele><time>2026-05-02T07:06:06.941Z</time></trkpt><trkpt lat="40.0888172" lon="15.2761267"><ele>238.0</ele><time>2026-05-02T07:06:07.917Z</time></trkpt><trkpt lat="40.0888793" lon="15.2762483"><ele>238.0</ele><time>2026-05-02T07:06:08.92Z</time></trkpt><trkpt lat="40.0889245" lon="15.2763753"><ele>238.0</ele><time>2026-05-02T07:06:09.915Z</time></trkpt><trkpt lat="40.0889504" lon="15.2765084"><ele>238.0</ele><time>2026-05-02T07:06:10.934Z</time></trkpt><trkpt lat="40.0889571" lon="15.2766506"><ele>238.0</ele><time>2026-05-02T07:06:11.919Z</time></trkpt><trkpt lat="40.0889416" lon="15.276774"><ele>238.2</ele><time>2026-05-02T07:06:12.916Z</time></trkpt><trkpt lat="40.0889238" lon="15.2768857"><ele>238.4</ele><time>2026-05-02T07:06:13.931Z</time></trkpt><trkpt lat="40.0888891" lon="15.2769969"><ele>238.59999999999997</ele><time>2026-05-02T07:06:14.926Z</time></trkpt><trkpt lat="40.0888284" lon="15.2771154"><ele>238.79999999999998</ele><time>2026-05-02T07:06:15.926Z</time></trkpt><trkpt lat="40.0887408" lon="15.2772461"><ele>239.0</ele><time>2026-05-02T07:06:16.932Z</time></trkpt><trkpt lat="40.0886462" lon="15.2773669"><ele>239.0</ele><time>2026-05-02T07:06:17.927Z</time></trkpt><trkpt lat="40.0885437" lon="15.2774634"><ele>239.0</ele><time>2026-05-02T07:06:18.933Z</time></trkpt><trkpt lat="40.0884341" lon="15.2775514"><ele>239.0</ele><time>2026-05-02T07:06:19.918Z</time></trkpt><trkpt lat="40.0883382" lon="15.2776306"><ele>239.0</ele><time>2026-05-02T07:06:20.933Z</time></trkpt><trkpt lat="40.0882586" lon="15.2777151"><ele>236.75</ele><time>2026-05-02T07:06:21.932Z</time></trkpt><trkpt lat="40.0881819" lon="15.2778303"><ele>234.5</ele><time>2026-05-02T07:06:22.927Z</time></trkpt><trkpt lat="40.0881298" lon="15.2779743"><ele>232.25</ele><time>2026-05-02T07:06:23.932Z</time></trkpt><trkpt lat="40.0880815" lon="15.2781376"><ele>230.0</ele><time>2026-05-02T07:06:24.929Z</time></trkpt><trkpt lat="40.0880303" lon="15.2783064"><ele>230.0</ele><time>2026-05-02T07:06:25.923Z</time></trkpt><trkpt lat="40.0879764" lon="15.2784622"><ele>230.0</ele><time>2026-05-02T07:06:26.94Z</time></trkpt><trkpt lat="40.0879255" lon="15.2785961"><ele>230.0</ele><time>2026-05-02T07:06:27.93Z</time></trkpt><trkpt lat="40.0878802" lon="15.2787219"><ele>230.0</ele><time>2026-05-02T07:06:28.942Z</time></trkpt><trkpt lat="40.0878521" lon="15.278838"><ele>230.0</ele><time>2026-05-02T07:06:29.93Z</time></trkpt><trkpt lat="40.0878357" lon="15.2789418"><ele>230.8</ele><time>2026-05-02T07:06:30.933Z</time></trkpt><trkpt lat="40.0878458" lon="15.2790462"><ele>231.6</ele><time>2026-05-02T07:06:31.93Z</time></trkpt><trkpt lat="40.0878821" lon="15.2791641"><ele>232.39999999999998</ele><time>2026-05-02T07:06:32.93Z</time></trkpt><trkpt lat="40.0879447" lon="15.279271"><ele>233.2</ele><time>2026-05-02T07:06:33.929Z</time></trkpt><trkpt lat="40.0880239" lon="15.2793772"><ele>234.0</ele><time>2026-05-02T07:06:34.935Z</time></trkpt><trkpt lat="40.0881139" lon="15.2794798"><ele>234.0</ele><time>2026-05-02T07:06:35.923Z</time></trkpt><trkpt lat="40.0882055" lon="15.2795818"><ele>233.99999999999997</ele><time>2026-05-02T07:06:36.938Z</time></trkpt><trkpt lat="40.0882887" lon="15.2796805"><ele>233.99999999999997</ele><time>2026-05-02T07:06:37.927Z</time></trkpt><trkpt lat="40.0883505" lon="15.2797806"><ele>234.0</ele><time>2026-05-02T07:06:38.929Z</time></trkpt><trkpt lat="40.0883888" lon="15.279876"><ele>234.0</ele><time>2026-05-02T07:06:39.926Z</time></trkpt><trkpt lat="40.0884097" lon="15.2799847"><ele>237.0</ele><time>2026-05-02T07:06:40.926Z</time></trkpt><trkpt lat="40.0884119" lon="15.2801017"><ele>239.99999999999997</ele><time>2026-05-02T07:06:41.923Z</time></trkpt><trkpt lat="40.0883943" lon="15.2802352"><ele>242.99999999999997</ele><time>2026-05-02T07:06:42.933Z</time></trkpt><trkpt lat="40.0883792" lon="15.280374"><ele>246.0</ele><time>2026-05-02T07:06:43.925Z</time></trkpt><trkpt lat="40.0883732" lon="15.2805134"><ele>249.0</ele><time>2026-05-02T07:06:44.924Z</time></trkpt><trkpt lat="40.0883777" lon="15.2806412"><ele>249.16666666666666</ele><time>2026-05-02T07:06:45.932Z</time></trkpt><trkpt lat="40.0883842" lon="15.2807444"><ele>249.33333333333331</ele><time>2026-05-02T07:06:46.929Z</time></trkpt><trkpt lat="40.0883995" lon="15.2808408"><ele>249.5</ele><time>2026-05-02T07:06:47.921Z</time></trkpt><trkpt lat="40.0884407" lon="15.280925"><ele>249.66666666666666</ele><time>2026-05-02T07:06:48.937Z</time></trkpt><trkpt lat="40.088511" lon="15.2810056"><ele>249.83333333333331</ele><time>2026-05-02T07:06:49.927Z</time></trkpt><trkpt lat="40.0886006" lon="15.2810614"><ele>250.0</ele><time>2026-05-02T07:06:50.934Z</time></trkpt><trkpt lat="40.0887063" lon="15.281138"><ele>250.0</ele><time>2026-05-02T07:06:51.931Z</time></trkpt><trkpt lat="40.0888123" lon="15.2812122"><ele>250.0</ele><time>2026-05-02T07:06:52.936Z</time></trkpt><trkpt lat="40.0889054" lon="15.2812833"><ele>250.0</ele><time>2026-05-02T07:06:53.936Z</time></trkpt><trkpt lat="40.0889929" lon="15.2813508"><ele>250.0</ele><time>2026-05-02T07:06:54.94Z</time></trkpt><trkpt lat="40.0890818" lon="15.2814212"><ele>250.0</ele><time>2026-05-02T07:06:55.932Z</time></trkpt><trkpt lat="40.0891819" lon="15.2814852"><ele>248.0</ele><time>2026-05-02T07:06:56.935Z</time></trkpt><trkpt lat="40.0892892" lon="15.2815604"><ele>246.0</ele><time>2026-05-02T07:06:57.927Z</time></trkpt><trkpt lat="40.0894049" lon="15.2816389"><ele>244.0</ele><time>2026-05-02T07:06:58.926Z</time></trkpt><trkpt lat="40.0895235" lon="15.2817202"><ele>242.0</ele><time>2026-05-02T07:06:59.924Z</time></trkpt><trkpt lat="40.0896436" lon="15.2818035"><ele>242.0</ele><time>2026-05-02T07:07:00.928Z</time></trkpt><trkpt lat="40.0897569" lon="15.2818886"><ele>242.0</ele><time>2026-05-02T07:07:01.928Z</time></trkpt><trkpt lat="40.0898584" lon="15.2819681"><ele>242.0</ele><time>2026-05-02T07:07:02.93Z</time></trkpt><trkpt lat="40.0899455" lon="15.2820382"><ele>242.0</ele><time>2026-05-02T07:07:03.925Z</time></trkpt><trkpt lat="40.090012" lon="15.2820733"><ele>242.0</ele><time>2026-05-02T07:07:04.923Z</time></trkpt><trkpt lat="40.0901076" lon="15.2821389"><ele>241.33333333333334</ele><time>2026-05-02T07:07:06.925Z</time></trkpt><trkpt lat="40.0902086" lon="15.2822138"><ele>240.66666666666669</ele><time>2026-05-02T07:07:08.934Z</time></trkpt><trkpt lat="40.0902707" lon="15.2822572"><ele>240.0</ele><time>2026-05-02T07:07:09.928Z</time></trkpt><trkpt lat="40.090342" lon="15.2823015"><ele>239.33333333333331</ele><time>2026-05-02T07:07:10.936Z</time></trkpt><trkpt lat="40.0904159" lon="15.2823571"><ele>238.66666666666666</ele><time>2026-05-02T07:07:11.921Z</time></trkpt><trkpt lat="40.0904845" lon="15.2824309"><ele>238.0</ele><time>2026-05-02T07:07:12.935Z</time></trkpt><trkpt lat="40.090551" lon="15.2825215"><ele>238.0</ele><time>2026-05-02T07:07:13.924Z</time></trkpt><trkpt lat="40.0906034" lon="15.2826385"><ele>238.0</ele><time>2026-05-02T07:07:14.938Z</time></trkpt><trkpt lat="40.0906487" lon="15.2827661"><ele>238.0</ele><time>2026-05-02T07:07:15.924Z</time></trkpt><trkpt lat="40.0906922" lon="15.2829016"><ele>238.0</ele><time>2026-05-02T07:07:16.926Z</time></trkpt><trkpt lat="40.0907404" lon="15.2830335"><ele>238.0</ele><time>2026-05-02T07:07:17.915Z</time></trkpt><trkpt lat="40.0907858" lon="15.2831586"><ele>238.49999999999997</ele><time>2026-05-02T07:07:18.936Z</time></trkpt><trkpt lat="40.0908194" lon="15.2832689"><ele>239.0</ele><time>2026-05-02T07:07:19.938Z</time></trkpt><trkpt lat="40.0908506" lon="15.2833702"><ele>239.5</ele><time>2026-05-02T07:07:20.931Z</time></trkpt><trkpt lat="40.0908814" lon="15.2834695"><ele>240.0</ele><time>2026-05-02T07:07:21.916Z</time></trkpt><trkpt lat="40.0909178" lon="15.2835741"><ele>240.49999999999997</ele><time>2026-05-02T07:07:22.929Z</time></trkpt><trkpt lat="40.090961" lon="15.2836903"><ele>241.0</ele><time>2026-05-02T07:07:23.924Z</time></trkpt><trkpt lat="40.0910038" lon="15.2838156"><ele>238.75</ele><time>2026-05-02T07:07:24.931Z</time></trkpt><trkpt lat="40.0910478" lon="15.2839494"><ele>236.5</ele><time>2026-05-02T07:07:25.91Z</time></trkpt><trkpt lat="40.0910952" lon="15.2840933"><ele>234.25</ele><time>2026-05-02T07:07:26.935Z</time></trkpt><trkpt lat="40.0911435" lon="15.2842448"><ele>232.0</ele><time>2026-05-02T07:07:27.912Z</time></trkpt><trkpt lat="40.0911915" lon="15.2843926"><ele>232.0</ele><time>2026-05-02T07:07:28.928Z</time></trkpt><trkpt lat="40.0912419" lon="15.2845304"><ele>232.0</ele><time>2026-05-02T07:07:29.919Z</time></trkpt><trkpt lat="40.0912897" lon="15.2846542"><ele>232.0</ele><time>2026-05-02T07:07:30.933Z</time></trkpt><trkpt lat="40.091342" lon="15.28476"><ele>232.0</ele><time>2026-05-02T07:07:31.92Z</time></trkpt><trkpt lat="40.0913954" lon="15.2848536"><ele>232.0</ele><time>2026-05-02T07:07:32.925Z</time></trkpt><trkpt lat="40.0914335" lon="15.2849505"><ele>233.28571428571433</ele><time>2026-05-02T07:07:33.916Z</time></trkpt><trkpt lat="40.0914512" lon="15.2850431"><ele>234.57142857142858</ele><time>2026-05-02T07:07:34.914Z</time></trkpt><trkpt lat="40.0914588" lon="15.2851261"><ele>235.8571428571429</ele><time>2026-05-02T07:07:35.924Z</time></trkpt><trkpt lat="40.0914837" lon="15.2852021"><ele>237.14285714285717</ele><time>2026-05-02T07:07:36.931Z</time></trkpt><trkpt lat="40.0915276" lon="15.2852682"><ele>238.42857142857144</ele><time>2026-05-02T07:07:37.923Z</time></trkpt><trkpt lat="40.0915925" lon="15.2853221"><ele>239.71428571428572</ele><time>2026-05-02T07:07:38.929Z</time></trkpt><trkpt lat="40.0916707" lon="15.2853499"><ele>241.0</ele><time>2026-05-02T07:07:39.921Z</time></trkpt><trkpt lat="40.091758" lon="15.2853636"><ele>241.0</ele><time>2026-05-02T07:07:40.927Z</time></trkpt><trkpt lat="40.0918488" lon="15.2853448"><ele>241.00000000000003</ele><time>2026-05-02T07:07:41.918Z</time></trkpt><trkpt lat="40.0919499" lon="15.2853084"><ele>241.00000000000003</ele><time>2026-05-02T07:07:42.923Z</time></trkpt><trkpt lat="40.0920595" lon="15.2852579"><ele>241.0</ele><time>2026-05-02T07:07:43.915Z</time></trkpt><trkpt lat="40.0921818" lon="15.2852043"><ele>241.0</ele><time>2026-05-02T07:07:44.926Z</time></trkpt><trkpt lat="40.0923095" lon="15.2851632"><ele>240.5</ele><time>2026-05-02T07:07:45.92Z</time></trkpt><trkpt lat="40.092446" lon="15.2851184"><ele>240.0</ele><time>2026-05-02T07:07:46.927Z</time></trkpt><trkpt lat="40.0925841" lon="15.2850726"><ele>239.5</ele><time>2026-05-02T07:07:47.923Z</time></trkpt><trkpt lat="40.0927073" lon="15.2850262"><ele>239.0</ele><time>2026-05-02T07:07:48.913Z</time></trkpt><trkpt lat="40.0928176" lon="15.2849945"><ele>239.0</ele><time>2026-05-02T07:07:49.916Z</time></trkpt><trkpt lat="40.092916" lon="15.2849698"><ele>238.99999999999997</ele><time>2026-05-02T07:07:50.933Z</time></trkpt><trkpt lat="40.0930128" lon="15.2849493"><ele>238.99999999999997</ele><time>2026-05-02T07:07:51.933Z</time></trkpt><trkpt lat="40.0931105" lon="15.2849178"><ele>239.0</ele><time>2026-05-02T07:07:52.942Z</time></trkpt><trkpt lat="40.0932037" lon="15.284859"><ele>239.0</ele><time>2026-05-02T07:07:53.922Z</time></trkpt><trkpt lat="40.0932934" lon="15.2847769"><ele>240.5</ele><time>2026-05-02T07:07:54.932Z</time></trkpt><trkpt lat="40.0933905" lon="15.284691"><ele>242.0</ele><time>2026-05-02T07:07:55.925Z</time></trkpt><trkpt lat="40.0934864" lon="15.2846001"><ele>243.5</ele><time>2026-05-02T07:07:56.927Z</time></trkpt><trkpt lat="40.093571" lon="15.2845076"><ele>245.0</ele><time>2026-05-02T07:07:57.93Z</time></trkpt><trkpt lat="40.0936498" lon="15.2844101"><ele>245.0</ele><time>2026-05-02T07:07:58.936Z</time></trkpt><trkpt lat="40.0937107" lon="15.2842955"><ele>245.0</ele><time>2026-05-02T07:07:59.927Z</time></trkpt><trkpt lat="40.0937603" lon="15.2841623"><ele>245.0</ele><time>2026-05-02T07:08:00.942Z</time></trkpt><trkpt lat="40.0938065" lon="15.284031"><ele>245.0</ele><time>2026-05-02T07:08:01.926Z</time></trkpt><trkpt lat="40.0938575" lon="15.2839307"><ele>245.0</ele><time>2026-05-02T07:08:02.931Z</time></trkpt><trkpt lat="40.0939181" lon="15.2838485"><ele>245.00000000000003</ele><time>2026-05-02T07:08:03.932Z</time></trkpt><trkpt lat="40.0939945" lon="15.2837836"><ele>245.0</ele><time>2026-05-02T07:08:04.922Z</time></trkpt><trkpt lat="40.0940758" lon="15.2837424"><ele>245.0</ele><time>2026-05-02T07:08:05.939Z</time></trkpt><trkpt lat="40.0941635" lon="15.2837284"><ele>245.0</ele><time>2026-05-02T07:08:06.921Z</time></trkpt><trkpt lat="40.0942557" lon="15.2837384"><ele>245.00000000000003</ele><time>2026-05-02T07:08:07.925Z</time></trkpt><trkpt lat="40.0943369" lon="15.2837742"><ele>245.0</ele><time>2026-05-02T07:08:08.932Z</time></trkpt><trkpt lat="40.0944024" lon="15.2838312"><ele>245.00000000000003</ele><time>2026-05-02T07:08:09.929Z</time></trkpt><trkpt lat="40.094455" lon="15.2839222"><ele>245.0</ele><time>2026-05-02T07:08:10.925Z</time></trkpt><trkpt lat="40.0944884" lon="15.2840281"><ele>245.0</ele><time>2026-05-02T07:08:11.921Z</time></trkpt><trkpt lat="40.0945125" lon="15.2841419"><ele>245.0</ele><time>2026-05-02T07:08:12.917Z</time></trkpt><trkpt lat="40.0945319" lon="15.2842654"><ele>245.00000000000003</ele><time>2026-05-02T07:08:13.931Z</time></trkpt><trkpt lat="40.0945492" lon="15.2843757"><ele>245.0</ele><time>2026-05-02T07:08:14.93Z</time></trkpt><trkpt lat="40.0945868" lon="15.2844682"><ele>242.25</ele><time>2026-05-02T07:08:15.932Z</time></trkpt><trkpt lat="40.0946508" lon="15.2845556"><ele>239.5</ele><time>2026-05-02T07:08:16.924Z</time></trkpt><trkpt lat="40.094742" lon="15.2846337"><ele>236.75</ele><time>2026-05-02T07:08:17.925Z</time></trkpt><trkpt lat="40.0948482" lon="15.2847134"><ele>234.0</ele><time>2026-05-02T07:08:18.922Z</time></trkpt><trkpt lat="40.0949675" lon="15.2847981"><ele>233.5</ele><time>2026-05-02T07:08:19.936Z</time></trkpt><trkpt lat="40.0950865" lon="15.2849012"><ele>233.0</ele><time>2026-05-02T07:08:20.928Z</time></trkpt><trkpt lat="40.0952026" lon="15.2850098"><ele>232.5</ele><time>2026-05-02T07:08:21.924Z</time></trkpt><trkpt lat="40.0953066" lon="15.285118"><ele>232.0</ele><time>2026-05-02T07:08:22.931Z</time></trkpt><trkpt lat="40.0953958" lon="15.2852304"><ele>232.0</ele><time>2026-05-02T07:08:23.915Z</time></trkpt><trkpt lat="40.0954773" lon="15.2853289"><ele>232.0</ele><time>2026-05-02T07:08:24.933Z</time></trkpt><trkpt lat="40.0955516" lon="15.2854283"><ele>232.0</ele><time>2026-05-02T07:08:25.921Z</time></trkpt><trkpt lat="40.0956177" lon="15.2855395"><ele>232.0</ele><time>2026-05-02T07:08:26.924Z</time></trkpt><trkpt lat="40.095679" lon="15.2856565"><ele>232.0</ele><time>2026-05-02T07:08:27.927Z</time></trkpt><trkpt lat="40.095731" lon="15.2857622"><ele>231.83333333333331</ele><time>2026-05-02T07:08:28.931Z</time></trkpt><trkpt lat="40.0957622" lon="15.285857"><ele>231.66666666666666</ele><time>2026-05-02T07:08:29.926Z</time></trkpt><trkpt lat="40.0957695" lon="15.2859625"><ele>231.5</ele><time>2026-05-02T07:08:30.932Z</time></trkpt><trkpt lat="40.0957558" lon="15.286073"><ele>231.33333333333331</ele><time>2026-05-02T07:08:31.931Z</time></trkpt><trkpt lat="40.0957174" lon="15.2861751"><ele>231.16666666666666</ele><time>2026-05-02T07:08:32.924Z</time></trkpt><trkpt lat="40.0956626" lon="15.2862675"><ele>231.0</ele><time>2026-05-02T07:08:33.928Z</time></trkpt><trkpt lat="40.0955974" lon="15.2863481"><ele>230.4</ele><time>2026-05-02T07:08:34.929Z</time></trkpt><trkpt lat="40.0955157" lon="15.2864372"><ele>229.8</ele><time>2026-05-02T07:08:35.925Z</time></trkpt><trkpt lat="40.0954282" lon="15.2865307"><ele>229.20000000000002</ele><time>2026-05-02T07:08:36.921Z</time></trkpt><trkpt lat="40.0953532" lon="15.2866109"><ele>228.60000000000002</ele><time>2026-05-02T07:08:37.927Z</time></trkpt><trkpt lat="40.0953016" lon="15.2866827"><ele>228.0</ele><time>2026-05-02T07:08:38.927Z</time></trkpt><trkpt lat="40.0952724" lon="15.2867593"><ele>228.0</ele><time>2026-05-02T07:08:39.918Z</time></trkpt><trkpt lat="40.0952711" lon="15.2868476"><ele>228.0</ele><time>2026-05-02T07:08:40.931Z</time></trkpt><trkpt lat="40.0952987" lon="15.2869437"><ele>228.0</ele><time>2026-05-02T07:08:41.92Z</time></trkpt><trkpt lat="40.0953553" lon="15.2870245"><ele>228.0</ele><time>2026-05-02T07:08:42.913Z</time></trkpt><trkpt lat="40.0954327" lon="15.2870834"><ele>228.0</ele><time>2026-05-02T07:08:43.927Z</time></trkpt><trkpt lat="40.0955243" lon="15.2871425"><ele>228.0</ele><time>2026-05-02T07:08:44.932Z</time></trkpt><trkpt lat="40.0956253" lon="15.2872177"><ele>225.75</ele><time>2026-05-02T07:08:45.935Z</time></trkpt><trkpt lat="40.0957363" lon="15.287302"><ele>223.5</ele><time>2026-05-02T07:08:46.93Z</time></trkpt><trkpt lat="40.0958555" lon="15.2873839"><ele>221.25</ele><time>2026-05-02T07:08:47.926Z</time></trkpt><trkpt lat="40.0959777" lon="15.2874767"><ele>219.0</ele><time>2026-05-02T07:08:48.928Z</time></trkpt><trkpt lat="40.0960963" lon="15.2875884"><ele>224.25</ele><time>2026-05-02T07:08:49.921Z</time></trkpt><trkpt lat="40.0962057" lon="15.2877088"><ele>229.5</ele><time>2026-05-02T07:08:50.93Z</time></trkpt><trkpt lat="40.0962998" lon="15.2878176"><ele>234.75</ele><time>2026-05-02T07:08:51.929Z</time></trkpt><trkpt lat="40.0963901" lon="15.2879199"><ele>240.0</ele><time>2026-05-02T07:08:52.926Z</time></trkpt><trkpt lat="40.0964968" lon="15.2880125"><ele>239.75</ele><time>2026-05-02T07:08:53.926Z</time></trkpt><trkpt lat="40.0966185" lon="15.2880943"><ele>239.5</ele><time>2026-05-02T07:08:54.929Z</time></trkpt><trkpt lat="40.0967607" lon="15.2881619"><ele>239.25</ele><time>2026-05-02T07:08:55.928Z</time></trkpt><trkpt lat="40.0969049" lon="15.2882313"><ele>239.0</ele><time>2026-05-02T07:08:56.929Z</time></trkpt><trkpt lat="40.0970435" lon="15.2883062"><ele>239.0</ele><time>2026-05-02T07:08:57.935Z</time></trkpt><trkpt lat="40.0971599" lon="15.2883619"><ele>238.99999999999997</ele><time>2026-05-02T07:08:58.937Z</time></trkpt><trkpt lat="40.0972485" lon="15.2884179"><ele>238.99999999999997</ele><time>2026-05-02T07:08:59.92Z</time></trkpt><trkpt lat="40.0973222" lon="15.2884815"><ele>239.0</ele><time>2026-05-02T07:09:00.931Z</time></trkpt><trkpt lat="40.0973786" lon="15.2885684"><ele>239.0</ele><time>2026-05-02T07:09:01.947Z</time></trkpt><trkpt lat="40.0974214" lon="15.2886781"><ele>237.5</ele><time>2026-05-02T07:09:02.939Z</time></trkpt><trkpt lat="40.0974659" lon="15.2888136"><ele>236.0</ele><time>2026-05-02T07:09:03.928Z</time></trkpt><trkpt lat="40.0975154" lon="15.2889692"><ele>234.5</ele><time>2026-05-02T07:09:04.929Z</time></trkpt><trkpt lat="40.0975807" lon="15.2891289"><ele>233.0</ele><time>2026-05-02T07:09:05.919Z</time></trkpt><trkpt lat="40.0976403" lon="15.2892755"><ele>233.0</ele><time>2026-05-02T07:09:06.926Z</time></trkpt><trkpt lat="40.097691" lon="15.289388"><ele>233.0</ele><time>2026-05-02T07:09:07.928Z</time></trkpt><trkpt lat="40.097742" lon="15.28948"><ele>233.0</ele><time>2026-05-02T07:09:08.924Z</time></trkpt><trkpt lat="40.0978069" lon="15.2895597"><ele>233.0</ele><time>2026-05-02T07:09:09.928Z</time></trkpt><trkpt lat="40.097887" lon="15.2896136"><ele>233.0</ele><time>2026-05-02T07:09:10.933Z</time></trkpt><trkpt lat="40.0979844" lon="15.2896341"><ele>233.0</ele><time>2026-05-02T07:09:11.928Z</time></trkpt><trkpt lat="40.0980901" lon="15.2896259"><ele>233.0</ele><time>2026-05-02T07:09:12.926Z</time></trkpt><trkpt lat="40.0981965" lon="15.2896175"><ele>233.0</ele><time>2026-05-02T07:09:13.922Z</time></trkpt><trkpt lat="40.0982995" lon="15.2896386"><ele>233.0</ele><time>2026-05-02T07:09:14.925Z</time></trkpt><trkpt lat="40.0983789" lon="15.2896964"><ele>233.0</ele><time>2026-05-02T07:09:15.926Z</time></trkpt><trkpt lat="40.0984631" lon="15.2897711"><ele>231.0</ele><time>2026-05-02T07:09:16.928Z</time></trkpt><trkpt lat="40.098545" lon="15.2898792"><ele>229.0</ele><time>2026-05-02T07:09:17.915Z</time></trkpt><trkpt lat="40.0986298" lon="15.2900129"><ele>227.0</ele><time>2026-05-02T07:09:18.932Z</time></trkpt><trkpt lat="40.0987168" lon="15.2901526"><ele>225.0</ele><time>2026-05-02T07:09:19.924Z</time></trkpt><trkpt lat="40.0988027" lon="15.2902958"><ele>225.0</ele><time>2026-05-02T07:09:20.928Z</time></trkpt><trkpt lat="40.0988779" lon="15.2904436"><ele>225.0</ele><time>2026-05-02T07:09:21.933Z</time></trkpt><trkpt lat="40.0989548" lon="15.2906024"><ele>225.0</ele><time>2026-05-02T07:09:22.932Z</time></trkpt><trkpt lat="40.0990264" lon="15.2907733"><ele>225.0</ele><time>2026-05-02T07:09:23.932Z</time></trkpt><trkpt lat="40.0990916" lon="15.2909511"><ele>224.75</ele><time>2026-05-02T07:09:24.911Z</time></trkpt><trkpt lat="40.0991498" lon="15.2911195"><ele>224.5</ele><time>2026-05-02T07:09:25.941Z</time></trkpt><trkpt lat="40.0992055" lon="15.2912768"><ele>224.25</ele><time>2026-05-02T07:09:26.936Z</time></trkpt><trkpt lat="40.0992519" lon="15.2914141"><ele>224.0</ele><time>2026-05-02T07:09:27.929Z</time></trkpt><trkpt lat="40.0992961" lon="15.291531"><ele>221.79999999999998</ele><time>2026-05-02T07:09:28.922Z</time></trkpt><trkpt lat="40.0993422" lon="15.2916399"><ele>219.59999999999997</ele><time>2026-05-02T07:09:29.929Z</time></trkpt><trkpt lat="40.0993965" lon="15.2917281"><ele>217.4</ele><time>2026-05-02T07:09:30.94Z</time></trkpt><trkpt lat="40.0994639" lon="15.2917846"><ele>215.2</ele><time>2026-05-02T07:09:31.925Z</time></trkpt><trkpt lat="40.0995475" lon="15.2918216"><ele>213.0</ele><time>2026-05-02T07:09:32.924Z</time></trkpt><trkpt lat="40.0996579" lon="15.2918417"><ele>213.0</ele><time>2026-05-02T07:09:33.924Z</time></trkpt><trkpt lat="40.0997812" lon="15.2918511"><ele>213.0</ele><time>2026-05-02T07:09:34.932Z</time></trkpt><trkpt lat="40.0998969" lon="15.291863"><ele>213.0</ele><time>2026-05-02T07:09:35.92Z</time></trkpt><trkpt lat="40.1000034" lon="15.2918907"><ele>213.0</ele><time>2026-05-02T07:09:36.94Z</time></trkpt><trkpt lat="40.1001041" lon="15.2919324"><ele>214.0</ele><time>2026-05-02T07:09:37.914Z</time></trkpt><trkpt lat="40.1001909" lon="15.291995"><ele>215.0</ele><time>2026-05-02T07:09:38.919Z</time></trkpt><trkpt lat="40.10026" lon="15.2920658"><ele>216.0</ele><time>2026-05-02T07:09:39.917Z</time></trkpt><trkpt lat="40.1003241" lon="15.2921291"><ele>217.0</ele><time>2026-05-02T07:09:40.927Z</time></trkpt><trkpt lat="40.1003907" lon="15.2921658"><ele>218.0</ele><time>2026-05-02T07:09:41.927Z</time></trkpt><trkpt lat="40.1004845" lon="15.2921606"><ele>219.0</ele><time>2026-05-02T07:09:42.919Z</time></trkpt><trkpt lat="40.1005932" lon="15.2921285"><ele>219.0</ele><time>2026-05-02T07:09:43.926Z</time></trkpt><trkpt lat="40.1007073" lon="15.2920701"><ele>219.0</ele><time>2026-05-02T07:09:44.932Z</time></trkpt><trkpt lat="40.100834" lon="15.2919975"><ele>219.0</ele><time>2026-05-02T07:09:45.919Z</time></trkpt><trkpt lat="40.1009494" lon="15.2919175"><ele>219.0</ele><time>2026-05-02T07:09:46.929Z</time></trkpt><trkpt lat="40.1010464" lon="15.2918431"><ele>217.6</ele><time>2026-05-02T07:09:47.912Z</time></trkpt><trkpt lat="40.1011405" lon="15.2917928"><ele>216.2</ele><time>2026-05-02T07:09:48.927Z</time></trkpt><trkpt lat="40.1012394" lon="15.2917614"><ele>214.79999999999998</ele><time>2026-05-02T07:09:49.921Z</time></trkpt><trkpt lat="40.1013479" lon="15.2917454"><ele>213.39999999999998</ele><time>2026-05-02T07:09:50.926Z</time></trkpt><trkpt lat="40.1014582" lon="15.2917468"><ele>212.0</ele><time>2026-05-02T07:09:51.931Z</time></trkpt><trkpt lat="40.1015615" lon="15.2917565"><ele>211.83333333333334</ele><time>2026-05-02T07:09:52.923Z</time></trkpt><trkpt lat="40.1016508" lon="15.2917591"><ele>211.66666666666669</ele><time>2026-05-02T07:09:53.924Z</time></trkpt><trkpt lat="40.1017248" lon="15.2917405"><ele>211.5</ele><time>2026-05-02T07:09:54.916Z</time></trkpt><trkpt lat="40.1017965" lon="15.2916927"><ele>211.33333333333331</ele><time>2026-05-02T07:09:55.918Z</time></trkpt><trkpt lat="40.1018588" lon="15.2916094"><ele>211.16666666666666</ele><time>2026-05-02T07:09:56.929Z</time></trkpt><trkpt lat="40.1019203" lon="15.2914982"><ele>211.0</ele><time>2026-05-02T07:09:57.92Z</time></trkpt><trkpt lat="40.1019865" lon="15.2913918"><ele>210.99999999999997</ele><time>2026-05-02T07:09:58.93Z</time></trkpt><trkpt lat="40.1020725" lon="15.2913042"><ele>211.0</ele><time>2026-05-02T07:09:59.926Z</time></trkpt><trkpt lat="40.1021565" lon="15.2912402"><ele>211.0</ele><time>2026-05-02T07:10:00.923Z</time></trkpt><trkpt lat="40.1022392" lon="15.2911892"><ele>211.0</ele><time>2026-05-02T07:10:01.935Z</time></trkpt><trkpt lat="40.1023138" lon="15.2911677"><ele>210.99999999999997</ele><time>2026-05-02T07:10:02.941Z</time></trkpt><trkpt lat="40.1023859" lon="15.2911663"><ele>211.0</ele><time>2026-05-02T07:10:03.922Z</time></trkpt><trkpt lat="40.1024513" lon="15.2911966"><ele>209.66666666666666</ele><time>2026-05-02T07:10:04.923Z</time></trkpt><trkpt lat="40.1025025" lon="15.2912562"><ele>208.33333333333331</ele><time>2026-05-02T07:10:05.921Z</time></trkpt><trkpt lat="40.1025379" lon="15.2913483"><ele>207.0</ele><time>2026-05-02T07:10:06.929Z</time></trkpt><trkpt lat="40.1025507" lon="15.291459"><ele>205.66666666666669</ele><time>2026-05-02T07:10:07.921Z</time></trkpt><trkpt lat="40.1025658" lon="15.291583"><ele>204.33333333333334</ele><time>2026-05-02T07:10:08.916Z</time></trkpt><trkpt lat="40.1025921" lon="15.2916986"><ele>203.0</ele><time>2026-05-02T07:10:09.922Z</time></trkpt><trkpt lat="40.1026411" lon="15.2917892"><ele>200.60000000000002</ele><time>2026-05-02T07:10:10.932Z</time></trkpt><trkpt lat="40.1027105" lon="15.2918635"><ele>198.20000000000002</ele><time>2026-05-02T07:10:11.922Z</time></trkpt><trkpt lat="40.1028007" lon="15.2919226"><ele>195.8</ele><time>2026-05-02T07:10:12.936Z</time></trkpt><trkpt lat="40.102902" lon="15.2919872"><ele>193.4</ele><time>2026-05-02T07:10:13.919Z</time></trkpt><trkpt lat="40.1030021" lon="15.2920762"><ele>191.0</ele><time>2026-05-02T07:10:14.922Z</time></trkpt><trkpt lat="40.1031008" lon="15.2921846"><ele>188.4</ele><time>2026-05-02T07:10:15.928Z</time></trkpt><trkpt lat="40.103184" lon="15.292302"><ele>185.8</ele><time>2026-05-02T07:10:16.93Z</time></trkpt><trkpt lat="40.1032544" lon="15.2924197"><ele>183.20000000000002</ele><time>2026-05-02T07:10:17.932Z</time></trkpt><trkpt lat="40.1033065" lon="15.2925212"><ele>180.60000000000002</ele><time>2026-05-02T07:10:18.927Z</time></trkpt><trkpt lat="40.1033587" lon="15.2926004"><ele>178.0</ele><time>2026-05-02T07:10:19.924Z</time></trkpt><trkpt lat="40.1034153" lon="15.2926549"><ele>178.0</ele><time>2026-05-02T07:10:20.928Z</time></trkpt><trkpt lat="40.1034798" lon="15.2926864"><ele>178.0</ele><time>2026-05-02T07:10:21.923Z</time></trkpt><trkpt lat="40.1035498" lon="15.2926875"><ele>178.0</ele><time>2026-05-02T07:10:22.93Z</time></trkpt><trkpt lat="40.1036259" lon="15.2926498"><ele>178.0</ele><time>2026-05-02T07:10:23.938Z</time></trkpt><trkpt lat="40.1036951" lon="15.2925661"><ele>178.0</ele><time>2026-05-02T07:10:24.934Z</time></trkpt><trkpt lat="40.1037539" lon="15.2924542"><ele>178.0</ele><time>2026-05-02T07:10:25.918Z</time></trkpt><trkpt lat="40.1038116" lon="15.2923311"><ele>180.0</ele><time>2026-05-02T07:10:26.924Z</time></trkpt><trkpt lat="40.1038624" lon="15.292199"><ele>182.0</ele><time>2026-05-02T07:10:27.922Z</time></trkpt><trkpt lat="40.1038926" lon="15.2920617"><ele>184.0</ele><time>2026-05-02T07:10:28.926Z</time></trkpt><trkpt lat="40.1039079" lon="15.2919298"><ele>186.0</ele><time>2026-05-02T07:10:29.926Z</time></trkpt><trkpt lat="40.1039094" lon="15.2918058"><ele>188.0</ele><time>2026-05-02T07:10:30.939Z</time></trkpt><trkpt lat="40.1039119" lon="15.2917054"><ele>188.0</ele><time>2026-05-02T07:10:31.924Z</time></trkpt><trkpt lat="40.1039356" lon="15.2916216"><ele>188.0</ele><time>2026-05-02T07:10:32.926Z</time></trkpt><trkpt lat="40.103976" lon="15.2915513"><ele>188.0</ele><time>2026-05-02T07:10:33.928Z</time></trkpt><trkpt lat="40.1040266" lon="15.2915009"><ele>188.0</ele><time>2026-05-02T07:10:34.92Z</time></trkpt><trkpt lat="40.1040917" lon="15.2914881"><ele>188.0</ele><time>2026-05-02T07:10:35.933Z</time></trkpt><trkpt lat="40.1042075" lon="15.2915822"><ele>188.0</ele><time>2026-05-02T07:10:37.919Z</time></trkpt><trkpt lat="40.1042548" lon="15.2916882"><ele>185.60000000000002</ele><time>2026-05-02T07:10:38.927Z</time></trkpt><trkpt lat="40.1043153" lon="15.2918129"><ele>183.20000000000002</ele><time>2026-05-02T07:10:39.933Z</time></trkpt><trkpt lat="40.1043565" lon="15.2919509"><ele>180.8</ele><time>2026-05-02T07:10:40.916Z</time></trkpt><trkpt lat="40.104377" lon="15.2920872"><ele>178.4</ele><time>2026-05-02T07:10:41.923Z</time></trkpt><trkpt lat="40.1043943" lon="15.2922211"><ele>176.0</ele><time>2026-05-02T07:10:42.927Z</time></trkpt><trkpt lat="40.1044222" lon="15.2923482"><ele>174.83333333333331</ele><time>2026-05-02T07:10:43.916Z</time></trkpt><trkpt lat="40.1044632" lon="15.2924522"><ele>173.66666666666666</ele><time>2026-05-02T07:10:44.927Z</time></trkpt><trkpt lat="40.104519" lon="15.2925297"><ele>172.5</ele><time>2026-05-02T07:10:45.916Z</time></trkpt><trkpt lat="40.1045925" lon="15.2925915"><ele>171.33333333333334</ele><time>2026-05-02T07:10:46.922Z</time></trkpt><trkpt lat="40.1046682" lon="15.2926362"><ele>170.16666666666669</ele><time>2026-05-02T07:10:47.925Z</time></trkpt><trkpt lat="40.1047398" lon="15.2926582"><ele>169.0</ele><time>2026-05-02T07:10:48.921Z</time></trkpt><trkpt lat="40.1048443" lon="15.2926464"><ele>169.0</ele><time>2026-05-02T07:10:50.914Z</time></trkpt><trkpt lat="40.1049052" lon="15.2926684"><ele>169.0</ele><time>2026-05-02T07:10:52.919Z</time></trkpt><trkpt lat="40.1049026" lon="15.2927789"><ele>169.0</ele><time>2026-05-02T07:10:54.931Z</time></trkpt><trkpt lat="40.1048595" lon="15.2928425"><ele>169.0</ele><time>2026-05-02T07:10:55.911Z</time></trkpt><trkpt lat="40.1048041" lon="15.292922"><ele>169.0</ele><time>2026-05-02T07:10:56.926Z</time></trkpt><trkpt lat="40.1047435" lon="15.2929891"><ele>169.0</ele><time>2026-05-02T07:10:57.91Z</time></trkpt><trkpt lat="40.1046768" lon="15.2930268"><ele>169.0</ele><time>2026-05-02T07:10:58.927Z</time></trkpt><trkpt lat="40.104557" lon="15.2930187"><ele>169.0</ele><time>2026-05-02T07:11:00.932Z</time></trkpt><trkpt lat="40.1044889" lon="15.2929454"><ele>169.0</ele><time>2026-05-02T07:11:01.915Z</time></trkpt><trkpt lat="40.1044111" lon="15.2928459"><ele>169.0</ele><time>2026-05-02T07:11:02.932Z</time></trkpt><trkpt lat="40.1043449" lon="15.2927486"><ele>169.0</ele><time>2026-05-02T07:11:03.929Z</time></trkpt><trkpt lat="40.1042703" lon="15.2926857"><ele>169.0</ele><time>2026-05-02T07:11:04.914Z</time></trkpt><trkpt lat="40.1041938" lon="15.2926703"><ele>169.0</ele><time>2026-05-02T07:11:05.918Z</time></trkpt><trkpt lat="40.1041231" lon="15.2926923"><ele>169.0</ele><time>2026-05-02T07:11:06.925Z</time></trkpt><trkpt lat="40.1040572" lon="15.2927502"><ele>169.0</ele><time>2026-05-02T07:11:07.926Z</time></trkpt><trkpt lat="40.1039971" lon="15.2928451"><ele>169.0</ele><time>2026-05-02T07:11:08.923Z</time></trkpt><trkpt lat="40.1039794" lon="15.2929798"><ele>169.0</ele><time>2026-05-02T07:11:09.918Z</time></trkpt><trkpt lat="40.103983" lon="15.2931222"><ele>168.25</ele><time>2026-05-02T07:11:10.928Z</time></trkpt><trkpt lat="40.1039966" lon="15.2932804"><ele>167.5</ele><time>2026-05-02T07:11:11.927Z</time></trkpt><trkpt lat="40.1040118" lon="15.2934496"><ele>166.75</ele><time>2026-05-02T07:11:12.931Z</time></trkpt><trkpt lat="40.1040253" lon="15.2936032"><ele>166.0</ele><time>2026-05-02T07:11:13.922Z</time></trkpt><trkpt lat="40.1040245" lon="15.2937285"><ele>166.0</ele><time>2026-05-02T07:11:14.927Z</time></trkpt><trkpt lat="40.1040052" lon="15.2938266"><ele>166.0</ele><time>2026-05-02T07:11:15.938Z</time></trkpt><trkpt lat="40.1039605" lon="15.2939158"><ele>166.0</ele><time>2026-05-02T07:11:16.931Z</time></trkpt><trkpt lat="40.1038963" lon="15.2939923"><ele>166.0</ele><time>2026-05-02T07:11:17.925Z</time></trkpt><trkpt lat="40.1038132" lon="15.29407"><ele>166.0</ele><time>2026-05-02T07:11:18.937Z</time></trkpt><trkpt lat="40.1037165" lon="15.2941366"><ele>163.75</ele><time>2026-05-02T07:11:19.927Z</time></trkpt><trkpt lat="40.1036108" lon="15.2942213"><ele>161.5</ele><time>2026-05-02T07:11:20.927Z</time></trkpt><trkpt lat="40.1034927" lon="15.2943083"><ele>159.25</ele><time>2026-05-02T07:11:21.93Z</time></trkpt><trkpt lat="40.103368" lon="15.2943977"><ele>157.0</ele><time>2026-05-02T07:11:22.926Z</time></trkpt><trkpt lat="40.1032475" lon="15.294481"><ele>156.4</ele><time>2026-05-02T07:11:23.923Z</time></trkpt><trkpt lat="40.103142" lon="15.294551"><ele>155.79999999999998</ele><time>2026-05-02T07:11:24.929Z</time></trkpt><trkpt lat="40.1030374" lon="15.2946018"><ele>155.2</ele><time>2026-05-02T07:11:25.919Z</time></trkpt><trkpt lat="40.1029408" lon="15.2946324"><ele>154.6</ele><time>2026-05-02T07:11:26.919Z</time></trkpt><trkpt lat="40.1028479" lon="15.2946361"><ele>154.0</ele><time>2026-05-02T07:11:27.924Z</time></trkpt><trkpt lat="40.102743" lon="15.2946263"><ele>154.0</ele><time>2026-05-02T07:11:28.934Z</time></trkpt><trkpt lat="40.1026451" lon="15.2946064"><ele>154.0</ele><time>2026-05-02T07:11:29.914Z</time></trkpt><trkpt lat="40.1025626" lon="15.2945945"><ele>154.0</ele><time>2026-05-02T07:11:30.925Z</time></trkpt><trkpt lat="40.1024945" lon="15.2946079"><ele>154.0</ele><time>2026-05-02T07:11:31.93Z</time></trkpt><trkpt lat="40.1024245" lon="15.2946669"><ele>154.0</ele><time>2026-05-02T07:11:32.925Z</time></trkpt><trkpt lat="40.1023537" lon="15.2947647"><ele>154.0</ele><time>2026-05-02T07:11:33.917Z</time></trkpt><trkpt lat="40.1022857" lon="15.294883"><ele>152.0</ele><time>2026-05-02T07:11:34.923Z</time></trkpt><trkpt lat="40.1022068" lon="15.295013"><ele>150.0</ele><time>2026-05-02T07:11:35.929Z</time></trkpt><trkpt lat="40.10211" lon="15.295163"><ele>148.0</ele><time>2026-05-02T07:11:36.927Z</time></trkpt><trkpt lat="40.1020125" lon="15.2953189"><ele>146.0</ele><time>2026-05-02T07:11:37.926Z</time></trkpt><trkpt lat="40.1019172" lon="15.2954601"><ele>144.25</ele><time>2026-05-02T07:11:38.92Z</time></trkpt><trkpt lat="40.1018276" lon="15.2955951"><ele>142.5</ele><time>2026-05-02T07:11:39.923Z</time></trkpt><trkpt lat="40.1017392" lon="15.2957226"><ele>140.75</ele><time>2026-05-02T07:11:40.915Z</time></trkpt><trkpt lat="40.1016357" lon="15.2958442"><ele>139.0</ele><time>2026-05-02T07:11:41.927Z</time></trkpt><trkpt lat="40.1015126" lon="15.2959651"><ele>139.0</ele><time>2026-05-02T07:11:42.935Z</time></trkpt><trkpt lat="40.1013798" lon="15.2960934"><ele>139.0</ele><time>2026-05-02T07:11:43.917Z</time></trkpt><trkpt lat="40.1012377" lon="15.2962293"><ele>139.0</ele><time>2026-05-02T07:11:44.934Z</time></trkpt><trkpt lat="40.1011019" lon="15.296366"><ele>137.0</ele><time>2026-05-02T07:11:45.918Z</time></trkpt><trkpt lat="40.100975" lon="15.2964913"><ele>135.0</ele><time>2026-05-02T07:11:46.934Z</time></trkpt><trkpt lat="40.1008566" lon="15.29661"><ele>133.0</ele><time>2026-05-02T07:11:47.928Z</time></trkpt><trkpt lat="40.1007482" lon="15.2967107"><ele>131.0</ele><time>2026-05-02T07:11:48.927Z</time></trkpt><trkpt lat="40.1006513" lon="15.2968036"><ele>131.0</ele><time>2026-05-02T07:11:49.926Z</time></trkpt><trkpt lat="40.1005639" lon="15.2969043"><ele>131.0</ele><time>2026-05-02T07:11:50.937Z</time></trkpt><trkpt lat="40.1004864" lon="15.2970224"><ele>131.0</ele><time>2026-05-02T07:11:51.949Z</time></trkpt><trkpt lat="40.1004133" lon="15.2971545"><ele>131.0</ele><time>2026-05-02T07:11:52.921Z</time></trkpt><trkpt lat="40.1003423" lon="15.2972983"><ele>129.4</ele><time>2026-05-02T07:11:53.926Z</time></trkpt><trkpt lat="40.1002838" lon="15.2974287"><ele>127.8</ele><time>2026-05-02T07:11:54.926Z</time></trkpt><trkpt lat="40.100215" lon="15.2975291"><ele>126.20000000000002</ele><time>2026-05-02T07:11:55.94Z</time></trkpt><trkpt lat="40.1001347" lon="15.2976221"><ele>124.60000000000001</ele><time>2026-05-02T07:11:56.927Z</time></trkpt><trkpt lat="40.1000353" lon="15.2977008"><ele>123.0</ele><time>2026-05-02T07:11:57.933Z</time></trkpt><trkpt lat="40.0999073" lon="15.2977667"><ele>122.0</ele><time>2026-05-02T07:11:58.937Z</time></trkpt><trkpt lat="40.0997706" lon="15.2978293"><ele>121.0</ele><time>2026-05-02T07:11:59.925Z</time></trkpt><trkpt lat="40.0996308" lon="15.2979017"><ele>120.0</ele><time>2026-05-02T07:12:00.944Z</time></trkpt><trkpt lat="40.0995022" lon="15.2979648"><ele>119.0</ele><time>2026-05-02T07:12:01.932Z</time></trkpt><trkpt lat="40.0993867" lon="15.2980212"><ele>119.0</ele><time>2026-05-02T07:12:02.933Z</time></trkpt><trkpt lat="40.0992732" lon="15.2980656"><ele>119.0</ele><time>2026-05-02T07:12:03.931Z</time></trkpt><trkpt lat="40.0991437" lon="15.298086"><ele>119.0</ele><time>2026-05-02T07:12:04.937Z</time></trkpt><trkpt lat="40.0989889" lon="15.2980795"><ele>119.0</ele><time>2026-05-02T07:12:05.922Z</time></trkpt><trkpt lat="40.0988277" lon="15.2980659"><ele>117.4</ele><time>2026-05-02T07:12:06.931Z</time></trkpt><trkpt lat="40.0986832" lon="15.2980675"><ele>115.80000000000001</ele><time>2026-05-02T07:12:07.928Z</time></trkpt><trkpt lat="40.0985702" lon="15.2980717"><ele>114.19999999999999</ele><time>2026-05-02T07:12:08.928Z</time></trkpt><trkpt lat="40.0984726" lon="15.298059"><ele>112.6</ele><time>2026-05-02T07:12:09.932Z</time></trkpt><trkpt lat="40.0983888" lon="15.2980262"><ele>111.0</ele><time>2026-05-02T07:12:10.926Z</time></trkpt><trkpt lat="40.0983162" lon="15.2979494"><ele>108.0</ele><time>2026-05-02T07:12:11.923Z</time></trkpt><trkpt lat="40.0982421" lon="15.2978344"><ele>105.0</ele><time>2026-05-02T07:12:12.931Z</time></trkpt><trkpt lat="40.0981625" lon="15.2976887"><ele>102.0</ele><time>2026-05-02T07:12:13.933Z</time></trkpt><trkpt lat="40.0980812" lon="15.2975412"><ele>99.0</ele><time>2026-05-02T07:12:14.931Z</time></trkpt><trkpt lat="40.0980116" lon="15.2974084"><ele>99.0</ele><time>2026-05-02T07:12:15.934Z</time></trkpt><trkpt lat="40.0979515" lon="15.2972994"><ele>99.0</ele><time>2026-05-02T07:12:16.931Z</time></trkpt><trkpt lat="40.0978953" lon="15.2972056"><ele>99.0</ele><time>2026-05-02T07:12:17.927Z</time></trkpt><trkpt lat="40.0978435" lon="15.2971346"><ele>99.0</ele><time>2026-05-02T07:12:18.937Z</time></trkpt><trkpt lat="40.0977801" lon="15.2971034"><ele>99.0</ele><time>2026-05-02T07:12:19.928Z</time></trkpt><trkpt lat="40.0976722" lon="15.2971616"><ele>99.0</ele><time>2026-05-02T07:12:21.927Z</time></trkpt><trkpt lat="40.0976408" lon="15.2972484"><ele>99.0</ele><time>2026-05-02T07:12:22.955Z</time></trkpt><trkpt lat="40.0976421" lon="15.2973621"><ele>99.0</ele><time>2026-05-02T07:12:23.929Z</time></trkpt><trkpt lat="40.097687" lon="15.2974786"><ele>99.0</ele><time>2026-05-02T07:12:24.931Z</time></trkpt><trkpt lat="40.0977332" lon="15.2976122"><ele>99.0</ele><time>2026-05-02T07:12:25.918Z</time></trkpt><trkpt lat="40.0977771" lon="15.2977598"><ele>99.0</ele><time>2026-05-02T07:12:26.927Z</time></trkpt><trkpt lat="40.097824" lon="15.2979128"><ele>99.0</ele><time>2026-05-02T07:12:27.932Z</time></trkpt><trkpt lat="40.097863" lon="15.2980749"><ele>99.0</ele><time>2026-05-02T07:12:28.927Z</time></trkpt><trkpt lat="40.0978911" lon="15.2982357"><ele>99.0</ele><time>2026-05-02T07:12:29.93Z</time></trkpt><trkpt lat="40.0979054" lon="15.2984013"><ele>97.0</ele><time>2026-05-02T07:12:30.932Z</time></trkpt><trkpt lat="40.0979115" lon="15.2985771"><ele>95.0</ele><time>2026-05-02T07:12:31.926Z</time></trkpt><trkpt lat="40.0979097" lon="15.2987567"><ele>93.0</ele><time>2026-05-02T07:12:32.925Z</time></trkpt><trkpt lat="40.0979005" lon="15.298914"><ele>91.0</ele><time>2026-05-02T07:12:33.926Z</time></trkpt><trkpt lat="40.0978934" lon="15.2990477"><ele>89.75</ele><time>2026-05-02T07:12:34.946Z</time></trkpt><trkpt lat="40.0979021" lon="15.299178"><ele>88.5</ele><time>2026-05-02T07:12:35.927Z</time></trkpt><trkpt lat="40.0979441" lon="15.299304"><ele>87.25</ele><time>2026-05-02T07:12:36.935Z</time></trkpt><trkpt lat="40.0980184" lon="15.2994242"><ele>86.0</ele><time>2026-05-02T07:12:37.921Z</time></trkpt><trkpt lat="40.0981142" lon="15.2995506"><ele>86.0</ele><time>2026-05-02T07:12:38.96Z</time></trkpt><trkpt lat="40.0981951" lon="15.2996952"><ele>86.0</ele><time>2026-05-02T07:12:39.927Z</time></trkpt><trkpt lat="40.0982652" lon="15.2998591"><ele>86.0</ele><time>2026-05-02T07:12:40.926Z</time></trkpt><trkpt lat="40.098306" lon="15.3000318"><ele>86.0</ele><time>2026-05-02T07:12:41.927Z</time></trkpt><trkpt lat="40.0983488" lon="15.3001874"><ele>86.75</ele><time>2026-05-02T07:12:42.923Z</time></trkpt><trkpt lat="40.0984116" lon="15.3003251"><ele>87.5</ele><time>2026-05-02T07:12:43.924Z</time></trkpt><trkpt lat="40.0985056" lon="15.3004456"><ele>88.25</ele><time>2026-05-02T07:12:44.927Z</time></trkpt><trkpt lat="40.0986114" lon="15.3005699"><ele>89.0</ele><time>2026-05-02T07:12:45.934Z</time></trkpt><trkpt lat="40.0987139" lon="15.3006875"><ele>87.4</ele><time>2026-05-02T07:12:46.93Z</time></trkpt><trkpt lat="40.0987954" lon="15.3007879"><ele>85.80000000000001</ele><time>2026-05-02T07:12:47.926Z</time></trkpt><trkpt lat="40.0988696" lon="15.3008829"><ele>84.19999999999999</ele><time>2026-05-02T07:12:48.937Z</time></trkpt><trkpt lat="40.0989391" lon="15.3009781"><ele>82.6</ele><time>2026-05-02T07:12:49.922Z</time></trkpt><trkpt lat="40.0989981" lon="15.3010865"><ele>81.0</ele><time>2026-05-02T07:12:50.934Z</time></trkpt><trkpt lat="40.0990368" lon="15.3012228"><ele>81.0</ele><time>2026-05-02T07:12:51.917Z</time></trkpt><trkpt lat="40.0990529" lon="15.3013678"><ele>81.0</ele><time>2026-05-02T07:12:52.938Z</time></trkpt><trkpt lat="40.0990695" lon="15.3015113"><ele>81.0</ele><time>2026-05-02T07:12:53.929Z</time></trkpt><trkpt lat="40.0990955" lon="15.3016312"><ele>81.0</ele><time>2026-05-02T07:12:54.936Z</time></trkpt><trkpt lat="40.0991544" lon="15.3017603"><ele>81.0</ele><time>2026-05-02T07:12:55.931Z</time></trkpt><trkpt lat="40.099245" lon="15.3018863"><ele>82.25</ele><time>2026-05-02T07:12:56.928Z</time></trkpt><trkpt lat="40.0993466" lon="15.3020144"><ele>83.5</ele><time>2026-05-02T07:12:57.927Z</time></trkpt><trkpt lat="40.0994593" lon="15.3021375"><ele>84.75</ele><time>2026-05-02T07:12:58.919Z</time></trkpt><trkpt lat="40.0995735" lon="15.3022678"><ele>86.0</ele><time>2026-05-02T07:12:59.916Z</time></trkpt><trkpt lat="40.099676" lon="15.3023925"><ele>86.75</ele><time>2026-05-02T07:13:00.924Z</time></trkpt><trkpt lat="40.0997708" lon="15.3025198"><ele>87.5</ele><time>2026-05-02T07:13:01.924Z</time></trkpt><trkpt lat="40.0998637" lon="15.3026426"><ele>88.25</ele><time>2026-05-02T07:13:02.934Z</time></trkpt><trkpt lat="40.0999563" lon="15.3027591"><ele>89.0</ele><time>2026-05-02T07:13:03.927Z</time></trkpt><trkpt lat="40.1000547" lon="15.3028908"><ele>89.0</ele><time>2026-05-02T07:13:04.931Z</time></trkpt><trkpt lat="40.1001565" lon="15.3030211"><ele>89.0</ele><time>2026-05-02T07:13:05.921Z</time></trkpt><trkpt lat="40.1002492" lon="15.3031513"><ele>89.0</ele><time>2026-05-02T07:13:06.948Z</time></trkpt><trkpt lat="40.1003367" lon="15.303269"><ele>89.0</ele><time>2026-05-02T07:13:07.933Z</time></trkpt><trkpt lat="40.1004315" lon="15.3033611"><ele>87.5</ele><time>2026-05-02T07:13:08.941Z</time></trkpt><trkpt lat="40.1005379" lon="15.3034463"><ele>86.0</ele><time>2026-05-02T07:13:09.918Z</time></trkpt><trkpt lat="40.1006526" lon="15.3035105"><ele>84.5</ele><time>2026-05-02T07:13:10.931Z</time></trkpt><trkpt lat="40.1007545" lon="15.3035649"><ele>83.0</ele><time>2026-05-02T07:13:11.927Z</time></trkpt><trkpt lat="40.1008664" lon="15.303589"><ele>83.0</ele><time>2026-05-02T07:13:12.927Z</time></trkpt><trkpt lat="40.1009862" lon="15.3035907"><ele>83.0</ele><time>2026-05-02T07:13:13.941Z</time></trkpt><trkpt lat="40.1011024" lon="15.3035869"><ele>83.0</ele><time>2026-05-02T07:13:14.938Z</time></trkpt><trkpt lat="40.1012166" lon="15.3036014"><ele>83.0</ele><time>2026-05-02T07:13:15.92Z</time></trkpt><trkpt lat="40.1013162" lon="15.3036371"><ele>83.0</ele><time>2026-05-02T07:13:16.929Z</time></trkpt><trkpt lat="40.101418" lon="15.3036931"><ele>83.0</ele><time>2026-05-02T07:13:17.924Z</time></trkpt><trkpt lat="40.1015213" lon="15.3037706"><ele>83.0</ele><time>2026-05-02T07:13:18.938Z</time></trkpt><trkpt lat="40.1016199" lon="15.3038624"><ele>83.0</ele><time>2026-05-02T07:13:19.922Z</time></trkpt><trkpt lat="40.1017324" lon="15.3039541"><ele>81.0</ele><time>2026-05-02T07:13:20.932Z</time></trkpt><trkpt lat="40.1018603" lon="15.304038"><ele>79.0</ele><time>2026-05-02T07:13:21.915Z</time></trkpt><trkpt lat="40.1020018" lon="15.3041083"><ele>77.0</ele><time>2026-05-02T07:13:22.932Z</time></trkpt><trkpt lat="40.1021575" lon="15.3041749"><ele>77.0</ele><time>2026-05-02T07:13:23.925Z</time></trkpt><trkpt lat="40.1023166" lon="15.3042369"><ele>77.0</ele><time>2026-05-02T07:13:24.936Z</time></trkpt><trkpt lat="40.1024774" lon="15.3043047"><ele>77.0</ele><time>2026-05-02T07:13:25.927Z</time></trkpt><trkpt lat="40.1026305" lon="15.3043675"><ele>79.25</ele><time>2026-05-02T07:13:26.922Z</time></trkpt><trkpt lat="40.1027651" lon="15.3044245"><ele>81.5</ele><time>2026-05-02T07:13:27.921Z</time></trkpt><trkpt lat="40.1028887" lon="15.3044726"><ele>83.75</ele><time>2026-05-02T07:13:28.935Z</time></trkpt><trkpt lat="40.1029996" lon="15.304512"><ele>86.0</ele><time>2026-05-02T07:13:29.927Z</time></trkpt><trkpt lat="40.1031132" lon="15.3045553"><ele>86.0</ele><time>2026-05-02T07:13:30.926Z</time></trkpt><trkpt lat="40.103224" lon="15.3045991"><ele>86.0</ele><time>2026-05-02T07:13:31.917Z</time></trkpt><trkpt lat="40.103324" lon="15.3046388"><ele>86.0</ele><time>2026-05-02T07:13:32.933Z</time></trkpt><trkpt lat="40.1034162" lon="15.3046774"><ele>86.0</ele><time>2026-05-02T07:13:33.928Z</time></trkpt><trkpt lat="40.1035129" lon="15.3047189"><ele>86.0</ele><time>2026-05-02T07:13:34.929Z</time></trkpt><trkpt lat="40.1036176" lon="15.3047574"><ele>85.25</ele><time>2026-05-02T07:13:35.929Z</time></trkpt><trkpt lat="40.1037254" lon="15.3047969"><ele>84.5</ele><time>2026-05-02T07:13:36.938Z</time></trkpt><trkpt lat="40.103835" lon="15.304834"><ele>83.75</ele><time>2026-05-02T07:13:37.938Z</time></trkpt><trkpt lat="40.1039474" lon="15.3048839"><ele>83.0</ele><time>2026-05-02T07:13:38.926Z</time></trkpt><trkpt lat="40.1040636" lon="15.3049347"><ele>85.25</ele><time>2026-05-02T07:13:39.929Z</time></trkpt><trkpt lat="40.104169" lon="15.3049849"><ele>87.5</ele><time>2026-05-02T07:13:40.93Z</time></trkpt><trkpt lat="40.1042719" lon="15.3050368"><ele>89.75</ele><time>2026-05-02T07:13:41.924Z</time></trkpt><trkpt lat="40.104372" lon="15.3051149"><ele>92.0</ele><time>2026-05-02T07:13:42.926Z</time></trkpt><trkpt lat="40.1044707" lon="15.3052065"><ele>92.0</ele><time>2026-05-02T07:13:43.919Z</time></trkpt><trkpt lat="40.1045736" lon="15.3052985"><ele>92.0</ele><time>2026-05-02T07:13:44.926Z</time></trkpt><trkpt lat="40.1046694" lon="15.3053828"><ele>92.0</ele><time>2026-05-02T07:13:45.915Z</time></trkpt><trkpt lat="40.1047448" lon="15.3054546"><ele>92.0</ele><time>2026-05-02T07:13:46.925Z</time></trkpt><trkpt lat="40.1048051" lon="15.3055243"><ele>92.0</ele><time>2026-05-02T07:13:47.923Z</time></trkpt><trkpt lat="40.1048496" lon="15.3056103"><ele>91.8</ele><time>2026-05-02T07:13:48.935Z</time></trkpt><trkpt lat="40.1048811" lon="15.3057175"><ele>91.6</ele><time>2026-05-02T07:13:49.929Z</time></trkpt><trkpt lat="40.1049077" lon="15.305848"><ele>91.39999999999999</ele><time>2026-05-02T07:13:50.93Z</time></trkpt><trkpt lat="40.1049439" lon="15.3059945"><ele>91.19999999999999</ele><time>2026-05-02T07:13:51.923Z</time></trkpt><trkpt lat="40.1049779" lon="15.3061481"><ele>91.0</ele><time>2026-05-02T07:13:52.936Z</time></trkpt><trkpt lat="40.1050238" lon="15.3063091"><ele>89.6</ele><time>2026-05-02T07:13:53.922Z</time></trkpt><trkpt lat="40.1050608" lon="15.3064573"><ele>88.19999999999999</ele><time>2026-05-02T07:13:54.934Z</time></trkpt><trkpt lat="40.1050909" lon="15.3065947"><ele>86.80000000000001</ele><time>2026-05-02T07:13:55.925Z</time></trkpt><trkpt lat="40.1051278" lon="15.3067219"><ele>85.4</ele><time>2026-05-02T07:13:56.933Z</time></trkpt><trkpt lat="40.1051541" lon="15.30684"><ele>84.0</ele><time>2026-05-02T07:13:57.918Z</time></trkpt><trkpt lat="40.1051607" lon="15.3069707"><ele>84.0</ele><time>2026-05-02T07:13:58.931Z</time></trkpt><trkpt lat="40.1051426" lon="15.3071317"><ele>84.0</ele><time>2026-05-02T07:13:59.923Z</time></trkpt><trkpt lat="40.1051056" lon="15.3073085"><ele>84.0</ele><time>2026-05-02T07:14:00.93Z</time></trkpt><trkpt lat="40.1050636" lon="15.3074896"><ele>84.0</ele><time>2026-05-02T07:14:01.914Z</time></trkpt><trkpt lat="40.1050303" lon="15.307668"><ele>83.75</ele><time>2026-05-02T07:14:02.932Z</time></trkpt><trkpt lat="40.1050026" lon="15.3078417"><ele>83.5</ele><time>2026-05-02T07:14:03.932Z</time></trkpt><trkpt lat="40.1049735" lon="15.3080131"><ele>83.25</ele><time>2026-05-02T07:14:04.944Z</time></trkpt><trkpt lat="40.1049403" lon="15.3081641"><ele>83.0</ele><time>2026-05-02T07:14:05.927Z</time></trkpt><trkpt lat="40.1049058" lon="15.3082906"><ele>84.0</ele><time>2026-05-02T07:14:06.936Z</time></trkpt><trkpt lat="40.1048606" lon="15.3084044"><ele>85.0</ele><time>2026-05-02T07:14:07.923Z</time></trkpt><trkpt lat="40.1047917" lon="15.308497"><ele>86.0</ele><time>2026-05-02T07:14:08.928Z</time></trkpt><trkpt lat="40.1047077" lon="15.3085569"><ele>87.0</ele><time>2026-05-02T07:14:09.929Z</time></trkpt><trkpt lat="40.1046067" lon="15.3086048"><ele>88.0</ele><time>2026-05-02T07:14:10.934Z</time></trkpt><trkpt lat="40.1044883" lon="15.3086339"><ele>88.0</ele><time>2026-05-02T07:14:11.925Z</time></trkpt><trkpt lat="40.1043561" lon="15.3086639"><ele>88.0</ele><time>2026-05-02T07:14:12.933Z</time></trkpt><trkpt lat="40.1042086" lon="15.308692"><ele>88.0</ele><time>2026-05-02T07:14:13.913Z</time></trkpt><trkpt lat="40.1040522" lon="15.3087192"><ele>88.0</ele><time>2026-05-02T07:14:14.94Z</time></trkpt><trkpt lat="40.1038856" lon="15.3087425"><ele>89.0</ele><time>2026-05-02T07:14:15.919Z</time></trkpt><trkpt lat="40.1037105" lon="15.3087705"><ele>90.0</ele><time>2026-05-02T07:14:16.925Z</time></trkpt><trkpt lat="40.1035306" lon="15.3088062"><ele>91.0</ele><time>2026-05-02T07:14:17.919Z</time></trkpt><trkpt lat="40.1033474" lon="15.3088417"><ele>91.33333333333333</ele><time>2026-05-02T07:14:18.94Z</time></trkpt><trkpt lat="40.1031643" lon="15.3088677"><ele>91.66666666666667</ele><time>2026-05-02T07:14:19.929Z</time></trkpt><trkpt lat="40.1029867" lon="15.3088872"><ele>92.0</ele><time>2026-05-02T07:14:20.924Z</time></trkpt><trkpt lat="40.1028304" lon="15.3088922"><ele>92.0</ele><time>2026-05-02T07:14:21.922Z</time></trkpt><trkpt lat="40.1026816" lon="15.3089069"><ele>92.0</ele><time>2026-05-02T07:14:22.918Z</time></trkpt><trkpt lat="40.1025347" lon="15.3089373"><ele>92.0</ele><time>2026-05-02T07:14:23.931Z</time></trkpt><trkpt lat="40.1023801" lon="15.3089737"><ele>96.0</ele><time>2026-05-02T07:14:24.935Z</time></trkpt><trkpt lat="40.1022298" lon="15.309026"><ele>100.0</ele><time>2026-05-02T07:14:25.929Z</time></trkpt><trkpt lat="40.1020851" lon="15.3090881"><ele>104.0</ele><time>2026-05-02T07:14:26.932Z</time></trkpt><trkpt lat="40.1019523" lon="15.3091483"><ele>108.0</ele><time>2026-05-02T07:14:27.927Z</time></trkpt><trkpt lat="40.1018202" lon="15.3091731"><ele>108.0</ele><time>2026-05-02T07:14:28.937Z</time></trkpt><trkpt lat="40.1016737" lon="15.3091754"><ele>108.0</ele><time>2026-05-02T07:14:29.923Z</time></trkpt><trkpt lat="40.1015232" lon="15.3091752"><ele>108.0</ele><time>2026-05-02T07:14:30.941Z</time></trkpt><trkpt lat="40.1013706" lon="15.3091788"><ele>109.75</ele><time>2026-05-02T07:14:31.919Z</time></trkpt><trkpt lat="40.1012203" lon="15.3091814"><ele>111.5</ele><time>2026-05-02T07:14:32.934Z</time></trkpt><trkpt lat="40.1010835" lon="15.309176"><ele>113.25</ele><time>2026-05-02T07:14:33.928Z</time></trkpt><trkpt lat="40.1009699" lon="15.3091588"><ele>115.0</ele><time>2026-05-02T07:14:34.925Z</time></trkpt><trkpt lat="40.1008757" lon="15.3091264"><ele>115.0</ele><time>2026-05-02T07:14:35.923Z</time></trkpt><trkpt lat="40.1007916" lon="15.3090663"><ele>115.0</ele><time>2026-05-02T07:14:36.928Z</time></trkpt><trkpt lat="40.1007163" lon="15.3089646"><ele>115.0</ele><time>2026-05-02T07:14:37.934Z</time></trkpt><trkpt lat="40.1006388" lon="15.3088537"><ele>115.0</ele><time>2026-05-02T07:14:38.932Z</time></trkpt><trkpt lat="40.1005815" lon="15.3087235"><ele>115.0</ele><time>2026-05-02T07:14:39.918Z</time></trkpt><trkpt lat="40.1005494" lon="15.3085947"><ele>115.16666666666667</ele><time>2026-05-02T07:14:40.937Z</time></trkpt><trkpt lat="40.1005242" lon="15.3084893"><ele>115.33333333333334</ele><time>2026-05-02T07:14:41.923Z</time></trkpt><trkpt lat="40.1004891" lon="15.3084056"><ele>115.5</ele><time>2026-05-02T07:14:42.926Z</time></trkpt><trkpt lat="40.1004073" lon="15.308364"><ele>115.66666666666666</ele><time>2026-05-02T07:14:43.921Z</time></trkpt><trkpt lat="40.1003161" lon="15.3083707"><ele>115.83333333333333</ele><time>2026-05-02T07:14:44.931Z</time></trkpt><trkpt lat="40.1002181" lon="15.3084219"><ele>116.0</ele><time>2026-05-02T07:14:45.929Z</time></trkpt><trkpt lat="40.1001226" lon="15.3084971"><ele>116.0</ele><time>2026-05-02T07:14:46.925Z</time></trkpt><trkpt lat="40.1000252" lon="15.3085769"><ele>116.0</ele><time>2026-05-02T07:14:47.936Z</time></trkpt><trkpt lat="40.0999279" lon="15.3086256"><ele>116.0</ele><time>2026-05-02T07:14:48.936Z</time></trkpt><trkpt lat="40.0998187" lon="15.3086463"><ele>116.0</ele><time>2026-05-02T07:14:49.931Z</time></trkpt><trkpt lat="40.0996973" lon="15.3086582"><ele>116.19999999999999</ele><time>2026-05-02T07:14:50.938Z</time></trkpt><trkpt lat="40.0995753" lon="15.3086535"><ele>116.39999999999999</ele><time>2026-05-02T07:14:51.934Z</time></trkpt><trkpt lat="40.0994699" lon="15.3086443"><ele>116.6</ele><time>2026-05-02T07:14:52.931Z</time></trkpt><trkpt lat="40.0993782" lon="15.3086638"><ele>116.8</ele><time>2026-05-02T07:14:53.925Z</time></trkpt><trkpt lat="40.0992849" lon="15.3087092"><ele>117.0</ele><time>2026-05-02T07:14:54.936Z</time></trkpt><trkpt lat="40.0991978" lon="15.308804"><ele>119.25</ele><time>2026-05-02T07:14:55.924Z</time></trkpt><trkpt lat="40.0991347" lon="15.3089264"><ele>121.5</ele><time>2026-05-02T07:14:56.926Z</time></trkpt><trkpt lat="40.0990681" lon="15.3090749"><ele>123.75</ele><time>2026-05-02T07:14:57.923Z</time></trkpt><trkpt lat="40.0989971" lon="15.3092123"><ele>126.0</ele><time>2026-05-02T07:14:58.928Z</time></trkpt><trkpt lat="40.0989347" lon="15.3093258"><ele>126.19999999999999</ele><time>2026-05-02T07:14:59.928Z</time></trkpt><trkpt lat="40.0988681" lon="15.3094088"><ele>126.39999999999999</ele><time>2026-05-02T07:15:00.935Z</time></trkpt><trkpt lat="40.0987822" lon="15.309471"><ele>126.6</ele><time>2026-05-02T07:15:01.927Z</time></trkpt><trkpt lat="40.0986789" lon="15.3095316"><ele>126.8</ele><time>2026-05-02T07:15:02.92Z</time></trkpt><trkpt lat="40.09856" lon="15.3095966"><ele>127.0</ele><time>2026-05-02T07:15:03.922Z</time></trkpt><trkpt lat="40.098435" lon="15.3096593"><ele>127.0</ele><time>2026-05-02T07:15:04.923Z</time></trkpt><trkpt lat="40.0983051" lon="15.3096996"><ele>127.0</ele><time>2026-05-02T07:15:05.932Z</time></trkpt><trkpt lat="40.09818" lon="15.3097137"><ele>127.0</ele><time>2026-05-02T07:15:06.93Z</time></trkpt><trkpt lat="40.0980593" lon="15.3096958"><ele>127.0</ele><time>2026-05-02T07:15:07.936Z</time></trkpt><trkpt lat="40.0979324" lon="15.3096387"><ele>129.0</ele><time>2026-05-02T07:15:08.919Z</time></trkpt><trkpt lat="40.0978002" lon="15.3095523"><ele>131.0</ele><time>2026-05-02T07:15:09.919Z</time></trkpt><trkpt lat="40.0976708" lon="15.3094528"><ele>133.0</ele><time>2026-05-02T07:15:10.908Z</time></trkpt><trkpt lat="40.0975483" lon="15.3093619"><ele>135.0</ele><time>2026-05-02T07:15:11.921Z</time></trkpt><trkpt lat="40.097442" lon="15.3092906"><ele>135.4</ele><time>2026-05-02T07:15:12.935Z</time></trkpt><trkpt lat="40.0973456" lon="15.3092412"><ele>135.8</ele><time>2026-05-02T07:15:13.912Z</time></trkpt><trkpt lat="40.0972471" lon="15.3092272"><ele>136.2</ele><time>2026-05-02T07:15:14.937Z</time></trkpt><trkpt lat="40.0971375" lon="15.3092524"><ele>136.6</ele><time>2026-05-02T07:15:15.922Z</time></trkpt><trkpt lat="40.097021" lon="15.3093208"><ele>137.0</ele><time>2026-05-02T07:15:16.928Z</time></trkpt><trkpt lat="40.0969023" lon="15.3094145"><ele>137.0</ele><time>2026-05-02T07:15:17.931Z</time></trkpt><trkpt lat="40.0967749" lon="15.3095197"><ele>137.0</ele><time>2026-05-02T07:15:18.932Z</time></trkpt><trkpt lat="40.0966407" lon="15.3096327"><ele>137.0</ele><time>2026-05-02T07:15:19.937Z</time></trkpt><trkpt lat="40.0964993" lon="15.309743"><ele>139.5</ele><time>2026-05-02T07:15:20.933Z</time></trkpt><trkpt lat="40.0963656" lon="15.3098478"><ele>142.0</ele><time>2026-05-02T07:15:21.929Z</time></trkpt><trkpt lat="40.0962497" lon="15.3099484"><ele>144.5</ele><time>2026-05-02T07:15:22.919Z</time></trkpt><trkpt lat="40.0961477" lon="15.3100349"><ele>147.0</ele><time>2026-05-02T07:15:23.926Z</time></trkpt><trkpt lat="40.0960508" lon="15.310111"><ele>147.0</ele><time>2026-05-02T07:15:24.931Z</time></trkpt><trkpt lat="40.0959486" lon="15.3101879"><ele>147.0</ele><time>2026-05-02T07:15:25.922Z</time></trkpt><trkpt lat="40.0958389" lon="15.3102485"><ele>147.0</ele><time>2026-05-02T07:15:26.92Z</time></trkpt><trkpt lat="40.0957326" lon="15.3102644"><ele>147.0</ele><time>2026-05-02T07:15:27.928Z</time></trkpt><trkpt lat="40.0956293" lon="15.3102371"><ele>147.0</ele><time>2026-05-02T07:15:28.927Z</time></trkpt><trkpt lat="40.0955258" lon="15.3101758"><ele>149.0</ele><time>2026-05-02T07:15:29.929Z</time></trkpt><trkpt lat="40.0954065" lon="15.3100993"><ele>151.0</ele><time>2026-05-02T07:15:30.931Z</time></trkpt><trkpt lat="40.0952843" lon="15.3100361"><ele>153.0</ele><time>2026-05-02T07:15:31.929Z</time></trkpt><trkpt lat="40.0951584" lon="15.3099873"><ele>155.0</ele><time>2026-05-02T07:15:32.925Z</time></trkpt><trkpt lat="40.0950216" lon="15.309964"><ele>156.75</ele><time>2026-05-02T07:15:33.927Z</time></trkpt><trkpt lat="40.094879" lon="15.3099688"><ele>158.5</ele><time>2026-05-02T07:15:34.926Z</time></trkpt><trkpt lat="40.0947355" lon="15.3099776"><ele>160.25</ele><time>2026-05-02T07:15:35.925Z</time></trkpt><trkpt lat="40.09459" lon="15.3099718"><ele>162.0</ele><time>2026-05-02T07:15:36.917Z</time></trkpt><trkpt lat="40.0944428" lon="15.3099494"><ele>162.0</ele><time>2026-05-02T07:15:37.925Z</time></trkpt><trkpt lat="40.0942978" lon="15.3099286"><ele>162.0</ele><time>2026-05-02T07:15:38.935Z</time></trkpt><trkpt lat="40.0941689" lon="15.3099043"><ele>162.0</ele><time>2026-05-02T07:15:39.922Z</time></trkpt><trkpt lat="40.0940636" lon="15.3098838"><ele>162.0</ele><time>2026-05-02T07:15:40.929Z</time></trkpt><trkpt lat="40.0939633" lon="15.309888"><ele>162.6</ele><time>2026-05-02T07:15:41.932Z</time></trkpt><trkpt lat="40.0938732" lon="15.3099254"><ele>163.2</ele><time>2026-05-02T07:15:42.933Z</time></trkpt><trkpt lat="40.0938058" lon="15.3100012"><ele>163.8</ele><time>2026-05-02T07:15:43.931Z</time></trkpt><trkpt lat="40.093756" lon="15.3101103"><ele>164.4</ele><time>2026-05-02T07:15:44.94Z</time></trkpt><trkpt lat="40.0937456" lon="15.3102274"><ele>165.0</ele><time>2026-05-02T07:15:45.927Z</time></trkpt><trkpt lat="40.0937782" lon="15.3103414"><ele>165.0</ele><time>2026-05-02T07:15:46.934Z</time></trkpt><trkpt lat="40.0938516" lon="15.3104365"><ele>165.0</ele><time>2026-05-02T07:15:47.926Z</time></trkpt><trkpt lat="40.0939557" lon="15.3105129"><ele>165.0</ele><time>2026-05-02T07:15:48.931Z</time></trkpt><trkpt lat="40.0940644" lon="15.3105846"><ele>165.0</ele><time>2026-05-02T07:15:49.925Z</time></trkpt><trkpt lat="40.0941635" lon="15.310658"><ele>165.8</ele><time>2026-05-02T07:15:50.933Z</time></trkpt><trkpt lat="40.0942352" lon="15.3107339"><ele>166.6</ele><time>2026-05-02T07:15:51.916Z</time></trkpt><trkpt lat="40.0942816" lon="15.3108202"><ele>167.39999999999998</ele><time>2026-05-02T07:15:52.925Z</time></trkpt><trkpt lat="40.0942914" lon="15.3109283"><ele>168.2</ele><time>2026-05-02T07:15:53.936Z</time></trkpt><trkpt lat="40.0942717" lon="15.3110535"><ele>169.0</ele><time>2026-05-02T07:15:54.934Z</time></trkpt><trkpt lat="40.0942475" lon="15.3111902"><ele>169.0</ele><time>2026-05-02T07:15:55.93Z</time></trkpt><trkpt lat="40.0942144" lon="15.3113524"><ele>169.0</ele><time>2026-05-02T07:15:56.927Z</time></trkpt><trkpt lat="40.0941745" lon="15.311527"><ele>169.0</ele><time>2026-05-02T07:15:57.921Z</time></trkpt><trkpt lat="40.0941259" lon="15.311716"><ele>169.0</ele><time>2026-05-02T07:15:58.938Z</time></trkpt><trkpt lat="40.0941014" lon="15.3119218"><ele>170.0</ele><time>2026-05-02T07:15:59.922Z</time></trkpt><trkpt lat="40.0940898" lon="15.3121325"><ele>171.0</ele><time>2026-05-02T07:16:00.919Z</time></trkpt><trkpt lat="40.0940803" lon="15.3123203"><ele>172.0</ele><time>2026-05-02T07:16:01.919Z</time></trkpt><trkpt lat="40.0940699" lon="15.3124889"><ele>173.0</ele><time>2026-05-02T07:16:02.939Z</time></trkpt><trkpt lat="40.0940505" lon="15.3126357"><ele>175.4</ele><time>2026-05-02T07:16:03.912Z</time></trkpt><trkpt lat="40.094031" lon="15.3127638"><ele>177.8</ele><time>2026-05-02T07:16:04.927Z</time></trkpt><trkpt lat="40.0940327" lon="15.3128852"><ele>180.2</ele><time>2026-05-02T07:16:05.929Z</time></trkpt><trkpt lat="40.0940611" lon="15.313"><ele>182.6</ele><time>2026-05-02T07:16:06.932Z</time></trkpt><trkpt lat="40.0941228" lon="15.3131043"><ele>185.0</ele><time>2026-05-02T07:16:07.923Z</time></trkpt><trkpt lat="40.0942127" lon="15.313195"><ele>185.0</ele><time>2026-05-02T07:16:08.925Z</time></trkpt><trkpt lat="40.0943144" lon="15.3132658"><ele>185.0</ele><time>2026-05-02T07:16:09.922Z</time></trkpt><trkpt lat="40.0944158" lon="15.313312"><ele>185.0</ele><time>2026-05-02T07:16:10.924Z</time></trkpt><trkpt lat="40.0945254" lon="15.3133307"><ele>185.0</ele><time>2026-05-02T07:16:11.926Z</time></trkpt><trkpt lat="40.0946456" lon="15.3133125"><ele>185.0</ele><time>2026-05-02T07:16:12.936Z</time></trkpt><trkpt lat="40.0947688" lon="15.3132611"><ele>185.0</ele><time>2026-05-02T07:16:13.923Z</time></trkpt><trkpt lat="40.0948913" lon="15.3131987"><ele>185.0</ele><time>2026-05-02T07:16:14.936Z</time></trkpt><trkpt lat="40.095015" lon="15.3131456"><ele>185.0</ele><time>2026-05-02T07:16:15.929Z</time></trkpt><trkpt lat="40.0951424" lon="15.31312"><ele>185.75</ele><time>2026-05-02T07:16:16.921Z</time></trkpt><trkpt lat="40.0952627" lon="15.3131167"><ele>186.5</ele><time>2026-05-02T07:16:17.929Z</time></trkpt><trkpt lat="40.0953755" lon="15.3131359"><ele>187.25</ele><time>2026-05-02T07:16:18.934Z</time></trkpt><trkpt lat="40.0954811" lon="15.3131716"><ele>188.0</ele><time>2026-05-02T07:16:19.925Z</time></trkpt><trkpt lat="40.0955845" lon="15.3132214"><ele>188.0</ele><time>2026-05-02T07:16:20.928Z</time></trkpt><trkpt lat="40.095691" lon="15.3133051"><ele>188.0</ele><time>2026-05-02T07:16:21.927Z</time></trkpt><trkpt lat="40.0958068" lon="15.3134132"><ele>188.0</ele><time>2026-05-02T07:16:22.929Z</time></trkpt><trkpt lat="40.095926" lon="15.3135306"><ele>188.0</ele><time>2026-05-02T07:16:23.921Z</time></trkpt><trkpt lat="40.0960543" lon="15.313645"><ele>188.66666666666666</ele><time>2026-05-02T07:16:24.933Z</time></trkpt><trkpt lat="40.0961862" lon="15.3137555"><ele>189.33333333333334</ele><time>2026-05-02T07:16:25.924Z</time></trkpt><trkpt lat="40.0963176" lon="15.3138718"><ele>190.0</ele><time>2026-05-02T07:16:26.928Z</time></trkpt><trkpt lat="40.0964543" lon="15.3139874"><ele>191.75</ele><time>2026-05-02T07:16:27.927Z</time></trkpt><trkpt lat="40.0965835" lon="15.3141072"><ele>193.5</ele><time>2026-05-02T07:16:28.922Z</time></trkpt><trkpt lat="40.0967071" lon="15.314216"><ele>195.25</ele><time>2026-05-02T07:16:29.919Z</time></trkpt><trkpt lat="40.0968206" lon="15.3143131"><ele>197.0</ele><time>2026-05-02T07:16:30.936Z</time></trkpt><trkpt lat="40.0969251" lon="15.3144035"><ele>197.0</ele><time>2026-05-02T07:16:31.931Z</time></trkpt><trkpt lat="40.0970205" lon="15.3144903"><ele>197.0</ele><time>2026-05-02T07:16:32.923Z</time></trkpt><trkpt lat="40.0971151" lon="15.3145822"><ele>197.0</ele><time>2026-05-02T07:16:33.929Z</time></trkpt><trkpt lat="40.09718" lon="15.3146784"><ele>197.0</ele><time>2026-05-02T07:16:34.926Z</time></trkpt><trkpt lat="40.0972276" lon="15.3147672"><ele>197.0</ele><time>2026-05-02T07:16:35.925Z</time></trkpt><trkpt lat="40.0972499" lon="15.3148759"><ele>200.0</ele><time>2026-05-02T07:16:36.929Z</time></trkpt><trkpt lat="40.0972448" lon="15.3149967"><ele>203.0</ele><time>2026-05-02T07:16:37.925Z</time></trkpt><trkpt lat="40.0972222" lon="15.3151385"><ele>206.0</ele><time>2026-05-02T07:16:38.92Z</time></trkpt><trkpt lat="40.0971798" lon="15.3152852"><ele>209.0</ele><time>2026-05-02T07:16:39.93Z</time></trkpt><trkpt lat="40.0971386" lon="15.3154373"><ele>212.0</ele><time>2026-05-02T07:16:40.926Z</time></trkpt><trkpt lat="40.0971195" lon="15.3155799"><ele>213.75</ele><time>2026-05-02T07:16:41.934Z</time></trkpt><trkpt lat="40.0971262" lon="15.315711"><ele>215.5</ele><time>2026-05-02T07:16:42.919Z</time></trkpt><trkpt lat="40.0971669" lon="15.3158495"><ele>217.25</ele><time>2026-05-02T07:16:43.926Z</time></trkpt><trkpt lat="40.0972242" lon="15.3159959"><ele>219.0</ele><time>2026-05-02T07:16:44.925Z</time></trkpt><trkpt lat="40.0972903" lon="15.3161517"><ele>219.0</ele><time>2026-05-02T07:16:45.927Z</time></trkpt><trkpt lat="40.0973603" lon="15.3162995"><ele>219.0</ele><time>2026-05-02T07:16:46.934Z</time></trkpt><trkpt lat="40.0974482" lon="15.3164383"><ele>219.0</ele><time>2026-05-02T07:16:47.927Z</time></trkpt><trkpt lat="40.0975455" lon="15.3165734"><ele>219.0</ele><time>2026-05-02T07:16:48.946Z</time></trkpt><trkpt lat="40.0976396" lon="15.316682"><ele>218.0</ele><time>2026-05-02T07:16:49.92Z</time></trkpt><trkpt lat="40.0977296" lon="15.3167586"><ele>216.99999999999997</ele><time>2026-05-02T07:16:50.934Z</time></trkpt><trkpt lat="40.0978206" lon="15.3168014"><ele>215.99999999999997</ele><time>2026-05-02T07:16:51.933Z</time></trkpt><trkpt lat="40.0979339" lon="15.3168082"><ele>215.0</ele><time>2026-05-02T07:16:52.928Z</time></trkpt><trkpt lat="40.0980556" lon="15.3167812"><ele>214.0</ele><time>2026-05-02T07:16:53.932Z</time></trkpt><trkpt lat="40.0981842" lon="15.3167516"><ele>214.2</ele><time>2026-05-02T07:16:54.924Z</time></trkpt><trkpt lat="40.0983002" lon="15.3167323"><ele>214.39999999999998</ele><time>2026-05-02T07:16:55.93Z</time></trkpt><trkpt lat="40.0983906" lon="15.3167299"><ele>214.6</ele><time>2026-05-02T07:16:56.927Z</time></trkpt><trkpt lat="40.0984712" lon="15.3167538"><ele>214.8</ele><time>2026-05-02T07:16:57.933Z</time></trkpt><trkpt lat="40.0985472" lon="15.3168209"><ele>215.0</ele><time>2026-05-02T07:16:58.935Z</time></trkpt><trkpt lat="40.0986048" lon="15.3169126"><ele>215.0</ele><time>2026-05-02T07:16:59.932Z</time></trkpt><trkpt lat="40.0986312" lon="15.3170145"><ele>215.0</ele><time>2026-05-02T07:17:00.942Z</time></trkpt><trkpt lat="40.0986187" lon="15.3171397"><ele>215.0</ele><time>2026-05-02T07:17:01.925Z</time></trkpt><trkpt lat="40.0985877" lon="15.3172784"><ele>215.0</ele><time>2026-05-02T07:17:02.932Z</time></trkpt><trkpt lat="40.0985476" lon="15.317432"><ele>215.0</ele><time>2026-05-02T07:17:03.922Z</time></trkpt><trkpt lat="40.0985027" lon="15.317594"><ele>216.75</ele><time>2026-05-02T07:17:04.936Z</time></trkpt><trkpt lat="40.0984594" lon="15.3177678"><ele>218.5</ele><time>2026-05-02T07:17:05.938Z</time></trkpt><trkpt lat="40.0984083" lon="15.3179363"><ele>220.25</ele><time>2026-05-02T07:17:06.93Z</time></trkpt><trkpt lat="40.0983555" lon="15.3181041"><ele>222.0</ele><time>2026-05-02T07:17:07.931Z</time></trkpt><trkpt lat="40.098323" lon="15.3182646"><ele>224.0</ele><time>2026-05-02T07:17:08.926Z</time></trkpt><trkpt lat="40.0983146" lon="15.318423"><ele>226.0</ele><time>2026-05-02T07:17:09.921Z</time></trkpt><trkpt lat="40.0983249" lon="15.3185944"><ele>228.0</ele><time>2026-05-02T07:17:10.928Z</time></trkpt><trkpt lat="40.0983481" lon="15.3187724"><ele>230.0</ele><time>2026-05-02T07:17:11.929Z</time></trkpt><trkpt lat="40.098374" lon="15.3189573"><ele>231.25</ele><time>2026-05-02T07:17:12.924Z</time></trkpt><trkpt lat="40.0984117" lon="15.3191212"><ele>232.5</ele><time>2026-05-02T07:17:13.924Z</time></trkpt><trkpt lat="40.0984532" lon="15.3192765"><ele>233.75</ele><time>2026-05-02T07:17:14.932Z</time></trkpt><trkpt lat="40.0985185" lon="15.3194221"><ele>235.0</ele><time>2026-05-02T07:17:15.92Z</time></trkpt><trkpt lat="40.0985991" lon="15.3195421"><ele>235.0</ele><time>2026-05-02T07:17:16.946Z</time></trkpt><trkpt lat="40.0986795" lon="15.3196342"><ele>235.0</ele><time>2026-05-02T07:17:17.921Z</time></trkpt><trkpt lat="40.0987783" lon="15.3196997"><ele>235.0</ele><time>2026-05-02T07:17:18.93Z</time></trkpt><trkpt lat="40.0988943" lon="15.3197299"><ele>235.0</ele><time>2026-05-02T07:17:19.928Z</time></trkpt><trkpt lat="40.0990058" lon="15.3197542"><ele>235.0</ele><time>2026-05-02T07:17:20.922Z</time></trkpt><trkpt lat="40.099094" lon="15.3197866"><ele>235.6</ele><time>2026-05-02T07:17:21.916Z</time></trkpt><trkpt lat="40.0991692" lon="15.3198491"><ele>236.2</ele><time>2026-05-02T07:17:22.924Z</time></trkpt><trkpt lat="40.0992243" lon="15.3199452"><ele>236.8</ele><time>2026-05-02T07:17:23.921Z</time></trkpt><trkpt lat="40.0992578" lon="15.3200624"><ele>237.4</ele><time>2026-05-02T07:17:24.927Z</time></trkpt><trkpt lat="40.0992764" lon="15.3202198"><ele>238.0</ele><time>2026-05-02T07:17:25.931Z</time></trkpt><trkpt lat="40.0992914" lon="15.320399"><ele>241.0</ele><time>2026-05-02T07:17:26.927Z</time></trkpt><trkpt lat="40.0992788" lon="15.3205777"><ele>244.0</ele><time>2026-05-02T07:17:27.92Z</time></trkpt><trkpt lat="40.0992998" lon="15.3207282"><ele>247.0</ele><time>2026-05-02T07:17:28.927Z</time></trkpt><trkpt lat="40.0993418" lon="15.3208467"><ele>250.0</ele><time>2026-05-02T07:17:29.921Z</time></trkpt><trkpt lat="40.0994115" lon="15.3209567"><ele>250.0</ele><time>2026-05-02T07:17:30.933Z</time></trkpt><trkpt lat="40.0995117" lon="15.3210396"><ele>250.0</ele><time>2026-05-02T07:17:31.926Z</time></trkpt><trkpt lat="40.0996284" lon="15.3210842"><ele>250.0</ele><time>2026-05-02T07:17:32.927Z</time></trkpt><trkpt lat="40.0997436" lon="15.3210918"><ele>250.0</ele><time>2026-05-02T07:17:33.915Z</time></trkpt><trkpt lat="40.0998581" lon="15.3210503"><ele>249.5</ele><time>2026-05-02T07:17:34.922Z</time></trkpt><trkpt lat="40.0999631" lon="15.3209729"><ele>249.0</ele><time>2026-05-02T07:17:35.929Z</time></trkpt><trkpt lat="40.1000688" lon="15.320884"><ele>248.5</ele><time>2026-05-02T07:17:36.919Z</time></trkpt><trkpt lat="40.1001731" lon="15.3208097"><ele>248.0</ele><time>2026-05-02T07:17:37.922Z</time></trkpt><trkpt lat="40.100261" lon="15.3207793"><ele>248.00000000000003</ele><time>2026-05-02T07:17:38.924Z</time></trkpt><trkpt lat="40.1003366" lon="15.3207814"><ele>248.0</ele><time>2026-05-02T07:17:39.929Z</time></trkpt><trkpt lat="40.1003893" lon="15.3208362"><ele>248.0</ele><time>2026-05-02T07:17:40.932Z</time></trkpt><trkpt lat="40.1004317" lon="15.3209375"><ele>248.0</ele><time>2026-05-02T07:17:41.924Z</time></trkpt><trkpt lat="40.1004344" lon="15.3210398"><ele>248.00000000000003</ele><time>2026-05-02T07:17:42.927Z</time></trkpt><trkpt lat="40.10039" lon="15.3211345"><ele>248.0</ele><time>2026-05-02T07:17:43.926Z</time></trkpt><trkpt lat="40.1003079" lon="15.3211984"><ele>248.0</ele><time>2026-05-02T07:17:44.93Z</time></trkpt><trkpt lat="40.1002034" lon="15.3212672"><ele>248.0</ele><time>2026-05-02T07:17:45.921Z</time></trkpt><trkpt lat="40.1000964" lon="15.3213682"><ele>248.0</ele><time>2026-05-02T07:17:46.94Z</time></trkpt><trkpt lat="40.0999726" lon="15.321476"><ele>248.0</ele><time>2026-05-02T07:17:47.922Z</time></trkpt><trkpt lat="40.0998603" lon="15.3215978"><ele>251.0</ele><time>2026-05-02T07:17:48.925Z</time></trkpt><trkpt lat="40.0997725" lon="15.3217048"><ele>254.0</ele><time>2026-05-02T07:17:49.931Z</time></trkpt><trkpt lat="40.0997009" lon="15.3217628"><ele>257.0</ele><time>2026-05-02T07:17:50.923Z</time></trkpt><trkpt lat="40.0996136" lon="15.3217725"><ele>260.0</ele><time>2026-05-02T07:17:51.923Z</time></trkpt><trkpt lat="40.0995117" lon="15.3217397"><ele>263.0</ele><time>2026-05-02T07:17:52.92Z</time></trkpt><trkpt lat="40.0993972" lon="15.3216776"><ele>263.0</ele><time>2026-05-02T07:17:53.927Z</time></trkpt><trkpt lat="40.0992661" lon="15.321621"><ele>263.0</ele><time>2026-05-02T07:17:54.925Z</time></trkpt><trkpt lat="40.0991271" lon="15.3215672"><ele>263.0</ele><time>2026-05-02T07:17:55.925Z</time></trkpt><trkpt lat="40.0989892" lon="15.3215228"><ele>263.0</ele><time>2026-05-02T07:17:56.927Z</time></trkpt><trkpt lat="40.098847" lon="15.3215112"><ele>264.0</ele><time>2026-05-02T07:17:57.924Z</time></trkpt><trkpt lat="40.0986942" lon="15.3215281"><ele>265.0</ele><time>2026-05-02T07:17:58.927Z</time></trkpt><trkpt lat="40.0985397" lon="15.3215663"><ele>266.0</ele><time>2026-05-02T07:17:59.929Z</time></trkpt><trkpt lat="40.0983815" lon="15.3216173"><ele>266.0</ele><time>2026-05-02T07:18:00.923Z</time></trkpt><trkpt lat="40.0982214" lon="15.3216598"><ele>266.0</ele><time>2026-05-02T07:18:01.925Z</time></trkpt><trkpt lat="40.0980462" lon="15.3216934"><ele>266.0</ele><time>2026-05-02T07:18:02.927Z</time></trkpt><trkpt lat="40.0978619" lon="15.3217231"><ele>266.0</ele><time>2026-05-02T07:18:03.926Z</time></trkpt><trkpt lat="40.0976772" lon="15.3217609"><ele>266.0</ele><time>2026-05-02T07:18:04.924Z</time></trkpt><trkpt lat="40.0974829" lon="15.3218134"><ele>266.0</ele><time>2026-05-02T07:18:05.926Z</time></trkpt><trkpt lat="40.0972923" lon="15.321867"><ele>268.0</ele><time>2026-05-02T07:18:06.934Z</time></trkpt><trkpt lat="40.0971173" lon="15.3219257"><ele>270.0</ele><time>2026-05-02T07:18:07.917Z</time></trkpt><trkpt lat="40.0969612" lon="15.3219807"><ele>272.0</ele><time>2026-05-02T07:18:08.923Z</time></trkpt><trkpt lat="40.0967935" lon="15.3220276"><ele>272.0</ele><time>2026-05-02T07:18:09.911Z</time></trkpt><trkpt lat="40.0966328" lon="15.3220675"><ele>272.0</ele><time>2026-05-02T07:18:10.942Z</time></trkpt><trkpt lat="40.0964903" lon="15.3220979"><ele>272.0</ele><time>2026-05-02T07:18:11.933Z</time></trkpt><trkpt lat="40.0963714" lon="15.3221217"><ele>272.0</ele><time>2026-05-02T07:18:12.936Z</time></trkpt><trkpt lat="40.0962652" lon="15.3221141"><ele>274.75</ele><time>2026-05-02T07:18:13.935Z</time></trkpt><trkpt lat="40.0961632" lon="15.3220788"><ele>277.5</ele><time>2026-05-02T07:18:14.933Z</time></trkpt><trkpt lat="40.0960504" lon="15.3220055"><ele>280.25</ele><time>2026-05-02T07:18:15.95Z</time></trkpt><trkpt lat="40.0959333" lon="15.3219153"><ele>283.0</ele><time>2026-05-02T07:18:16.933Z</time></trkpt><trkpt lat="40.0958159" lon="15.3218184"><ele>282.75</ele><time>2026-05-02T07:18:17.93Z</time></trkpt><trkpt lat="40.0957069" lon="15.3217226"><ele>282.5</ele><time>2026-05-02T07:18:18.931Z</time></trkpt><trkpt lat="40.0955957" lon="15.3216217"><ele>282.25</ele><time>2026-05-02T07:18:19.929Z</time></trkpt><trkpt lat="40.0954877" lon="15.3214955"><ele>282.0</ele><time>2026-05-02T07:18:20.933Z</time></trkpt><trkpt lat="40.0953879" lon="15.3213446"><ele>282.0</ele><time>2026-05-02T07:18:21.931Z</time></trkpt><trkpt lat="40.0952967" lon="15.321201"><ele>282.0</ele><time>2026-05-02T07:18:22.922Z</time></trkpt><trkpt lat="40.0952208" lon="15.3210783"><ele>282.0</ele><time>2026-05-02T07:18:23.929Z</time></trkpt><trkpt lat="40.0951546" lon="15.3209781"><ele>282.0</ele><time>2026-05-02T07:18:24.929Z</time></trkpt><trkpt lat="40.0950844" lon="15.3209034"><ele>282.0</ele><time>2026-05-02T07:18:25.926Z</time></trkpt><trkpt lat="40.0950046" lon="15.3208589"><ele>282.0</ele><time>2026-05-02T07:18:26.927Z</time></trkpt><trkpt lat="40.0949192" lon="15.3208413"><ele>282.0</ele><time>2026-05-02T07:18:27.927Z</time></trkpt><trkpt lat="40.0948293" lon="15.3208703"><ele>282.0</ele><time>2026-05-02T07:18:28.94Z</time></trkpt><trkpt lat="40.0947572" lon="15.3209421"><ele>282.0</ele><time>2026-05-02T07:18:29.916Z</time></trkpt><trkpt lat="40.0947012" lon="15.321044"><ele>283.0</ele><time>2026-05-02T07:18:30.929Z</time></trkpt><trkpt lat="40.0946765" lon="15.3211894"><ele>284.0</ele><time>2026-05-02T07:18:31.934Z</time></trkpt><trkpt lat="40.0946808" lon="15.3213538"><ele>285.0</ele><time>2026-05-02T07:18:32.942Z</time></trkpt><trkpt lat="40.0946749" lon="15.3215239"><ele>286.0</ele><time>2026-05-02T07:18:33.922Z</time></trkpt><trkpt lat="40.0946304" lon="15.3216791"><ele>286.0</ele><time>2026-05-02T07:18:34.926Z</time></trkpt><trkpt lat="40.0945629" lon="15.3218406"><ele>286.0</ele><time>2026-05-02T07:18:35.923Z</time></trkpt><trkpt lat="40.0945056" lon="15.3220053"><ele>286.0</ele><time>2026-05-02T07:18:36.929Z</time></trkpt><trkpt lat="40.0944456" lon="15.3221588"><ele>286.0</ele><time>2026-05-02T07:18:37.925Z</time></trkpt><trkpt lat="40.0943756" lon="15.3222783"><ele>288.5</ele><time>2026-05-02T07:18:38.933Z</time></trkpt><trkpt lat="40.0942843" lon="15.3223821"><ele>291.0</ele><time>2026-05-02T07:18:39.937Z</time></trkpt><trkpt lat="40.0941718" lon="15.3224684"><ele>293.5</ele><time>2026-05-02T07:18:40.928Z</time></trkpt><trkpt lat="40.094053" lon="15.3225388"><ele>296.0</ele><time>2026-05-02T07:18:41.923Z</time></trkpt><trkpt lat="40.0939341" lon="15.3226154"><ele>296.0</ele><time>2026-05-02T07:18:42.934Z</time></trkpt><trkpt lat="40.0938274" lon="15.3226846"><ele>296.0</ele><time>2026-05-02T07:18:43.933Z</time></trkpt><trkpt lat="40.0937352" lon="15.3227565"><ele>296.0</ele><time>2026-05-02T07:18:44.919Z</time></trkpt><trkpt lat="40.0936612" lon="15.3228201"><ele>296.0</ele><time>2026-05-02T07:18:45.926Z</time></trkpt><trkpt lat="40.0935928" lon="15.3228932"><ele>296.0</ele><time>2026-05-02T07:18:46.936Z</time></trkpt><trkpt lat="40.0935244" lon="15.3229779"><ele>297.75</ele><time>2026-05-02T07:18:47.927Z</time></trkpt><trkpt lat="40.0934423" lon="15.3230699"><ele>299.5</ele><time>2026-05-02T07:18:48.929Z</time></trkpt><trkpt lat="40.0933535" lon="15.323164"><ele>301.25</ele><time>2026-05-02T07:18:49.927Z</time></trkpt><trkpt lat="40.0932525" lon="15.3232593"><ele>303.0</ele><time>2026-05-02T07:18:50.924Z</time></trkpt><trkpt lat="40.0931547" lon="15.3233663"><ele>303.0</ele><time>2026-05-02T07:18:51.924Z</time></trkpt><trkpt lat="40.0930541" lon="15.3234754"><ele>303.0</ele><time>2026-05-02T07:18:52.94Z</time></trkpt><trkpt lat="40.0929536" lon="15.3235741"><ele>303.0</ele><time>2026-05-02T07:18:53.922Z</time></trkpt><trkpt lat="40.0928678" lon="15.3236659"><ele>303.0</ele><time>2026-05-02T07:18:54.929Z</time></trkpt><trkpt lat="40.0927921" lon="15.323747"><ele>303.0</ele><time>2026-05-02T07:18:55.925Z</time></trkpt><trkpt lat="40.0927198" lon="15.3238137"><ele>303.0</ele><time>2026-05-02T07:18:56.939Z</time></trkpt><trkpt lat="40.0926593" lon="15.3238587"><ele>303.0</ele><time>2026-05-02T07:18:57.926Z</time></trkpt><trkpt lat="40.0925936" lon="15.3238918"><ele>303.0</ele><time>2026-05-02T07:18:58.932Z</time></trkpt><trkpt lat="40.0925169" lon="15.3239266"><ele>303.0</ele><time>2026-05-02T07:18:59.928Z</time></trkpt><trkpt lat="40.0924349" lon="15.3239581"><ele>303.0</ele><time>2026-05-02T07:19:00.936Z</time></trkpt><trkpt lat="40.092357" lon="15.3239841"><ele>303.0</ele><time>2026-05-02T07:19:01.934Z</time></trkpt><trkpt lat="40.0922356" lon="15.3239962"><ele>303.0</ele><time>2026-05-02T07:19:03.924Z</time></trkpt><trkpt lat="40.0921654" lon="15.3239844"><ele>303.0</ele><time>2026-05-02T07:19:04.933Z</time></trkpt><trkpt lat="40.092089" lon="15.3239628"><ele>303.0</ele><time>2026-05-02T07:19:05.922Z</time></trkpt><trkpt lat="40.0920008" lon="15.3239239"><ele>303.0</ele><time>2026-05-02T07:19:06.935Z</time></trkpt><trkpt lat="40.0919044" lon="15.3238877"><ele>303.0</ele><time>2026-05-02T07:19:07.917Z</time></trkpt><trkpt lat="40.0917955" lon="15.3238318"><ele>303.0</ele><time>2026-05-02T07:19:08.928Z</time></trkpt><trkpt lat="40.0916837" lon="15.3237747"><ele>303.0</ele><time>2026-05-02T07:19:09.918Z</time></trkpt><trkpt lat="40.0915796" lon="15.3237257"><ele>303.0</ele><time>2026-05-02T07:19:10.93Z</time></trkpt><trkpt lat="40.091466" lon="15.3236867"><ele>303.8</ele><time>2026-05-02T07:19:11.917Z</time></trkpt><trkpt lat="40.0913577" lon="15.3236496"><ele>304.6</ele><time>2026-05-02T07:19:12.925Z</time></trkpt><trkpt lat="40.0912537" lon="15.3236194"><ele>305.4</ele><time>2026-05-02T07:19:13.929Z</time></trkpt><trkpt lat="40.0911439" lon="15.3235912"><ele>306.2</ele><time>2026-05-02T07:19:14.918Z</time></trkpt><trkpt lat="40.0910407" lon="15.3235658"><ele>307.0</ele><time>2026-05-02T07:19:15.919Z</time></trkpt><trkpt lat="40.0909328" lon="15.3235452"><ele>307.0</ele><time>2026-05-02T07:19:16.928Z</time></trkpt><trkpt lat="40.0908251" lon="15.3235317"><ele>307.0</ele><time>2026-05-02T07:19:17.931Z</time></trkpt><trkpt lat="40.090721" lon="15.3235174"><ele>307.0</ele><time>2026-05-02T07:19:18.917Z</time></trkpt><trkpt lat="40.0906248" lon="15.3234973"><ele>307.0</ele><time>2026-05-02T07:19:19.929Z</time></trkpt><trkpt lat="40.0905404" lon="15.3234837"><ele>307.0</ele><time>2026-05-02T07:19:20.93Z</time></trkpt><trkpt lat="40.090477" lon="15.3234694"><ele>307.8333333333333</ele><time>2026-05-02T07:19:21.933Z</time></trkpt><trkpt lat="40.0903757" lon="15.3234809"><ele>308.66666666666663</ele><time>2026-05-02T07:19:23.925Z</time></trkpt><trkpt lat="40.0903059" lon="15.3235049"><ele>309.5</ele><time>2026-05-02T07:19:25.926Z</time></trkpt><trkpt lat="40.0902322" lon="15.323565"><ele>310.3333333333333</ele><time>2026-05-02T07:19:31.924Z</time></trkpt><trkpt lat="40.0901443" lon="15.3236273"><ele>311.1666666666667</ele><time>2026-05-02T07:19:33.922Z</time></trkpt><trkpt lat="40.0901056" lon="15.3236925"><ele>312.0</ele><time>2026-05-02T07:19:34.923Z</time></trkpt><trkpt lat="40.0900638" lon="15.3237693"><ele>312.0</ele><time>2026-05-02T07:19:35.923Z</time></trkpt><trkpt lat="40.0900342" lon="15.3238437"><ele>312.0</ele><time>2026-05-02T07:19:36.934Z</time></trkpt><trkpt lat="40.0899608" lon="15.3239689"><ele>312.0</ele><time>2026-05-02T07:19:38.936Z</time></trkpt><trkpt lat="40.0899137" lon="15.3240499"><ele>312.0</ele><time>2026-05-02T07:19:39.929Z</time></trkpt><trkpt lat="40.0898653" lon="15.3241333"><ele>312.0</ele><time>2026-05-02T07:19:40.939Z</time></trkpt><trkpt lat="40.0898276" lon="15.3242149"><ele>312.0</ele><time>2026-05-02T07:19:41.936Z</time></trkpt><trkpt lat="40.0897908" lon="15.3243111"><ele>311.42857142857144</ele><time>2026-05-02T07:19:42.917Z</time></trkpt><trkpt lat="40.0897647" lon="15.3244286"><ele>310.85714285714283</ele><time>2026-05-02T07:19:43.912Z</time></trkpt><trkpt lat="40.0897519" lon="15.3245347"><ele>310.2857142857143</ele><time>2026-05-02T07:19:44.937Z</time></trkpt><trkpt lat="40.0897389" lon="15.3246218"><ele>309.7142857142857</ele><time>2026-05-02T07:19:45.935Z</time></trkpt><trkpt lat="40.0897281" lon="15.3247036"><ele>309.1428571428571</ele><time>2026-05-02T07:19:46.929Z</time></trkpt><trkpt lat="40.0897107" lon="15.3247868"><ele>308.57142857142856</ele><time>2026-05-02T07:19:47.926Z</time></trkpt><trkpt lat="40.0896979" lon="15.324872"><ele>308.0</ele><time>2026-05-02T07:19:48.931Z</time></trkpt><trkpt lat="40.0896985" lon="15.3249561"><ele>305.4</ele><time>2026-05-02T07:19:49.923Z</time></trkpt><trkpt lat="40.0896966" lon="15.3250419"><ele>302.8</ele><time>2026-05-02T07:19:50.934Z</time></trkpt><trkpt lat="40.0897008" lon="15.3251283"><ele>300.2</ele><time>2026-05-02T07:19:51.909Z</time></trkpt><trkpt lat="40.0897385" lon="15.3252785"><ele>297.6</ele><time>2026-05-02T07:19:53.923Z</time></trkpt><trkpt lat="40.0897839" lon="15.3254274"><ele>295.0</ele><time>2026-05-02T07:19:55.921Z</time></trkpt><trkpt lat="40.0898165" lon="15.3255267"><ele>293.6</ele><time>2026-05-02T07:19:56.93Z</time></trkpt><trkpt lat="40.0898385" lon="15.3256237"><ele>292.2</ele><time>2026-05-02T07:19:57.929Z</time></trkpt><trkpt lat="40.0898626" lon="15.3257607"><ele>290.8</ele><time>2026-05-02T07:19:59.929Z</time></trkpt><trkpt lat="40.089878" lon="15.3258911"><ele>289.4</ele><time>2026-05-02T07:20:01.919Z</time></trkpt><trkpt lat="40.0898633" lon="15.3260467"><ele>288.0</ele><time>2026-05-02T07:20:03.931Z</time></trkpt><trkpt lat="40.0898338" lon="15.3261199"><ele>288.0</ele><time>2026-05-02T07:20:04.932Z</time></trkpt><trkpt lat="40.0897609" lon="15.3262313"><ele>288.0</ele><time>2026-05-02T07:20:06.927Z</time></trkpt><trkpt lat="40.089676" lon="15.3263427"><ele>288.0</ele><time>2026-05-02T07:20:08.936Z</time></trkpt><trkpt lat="40.0896323" lon="15.3264031"><ele>288.0</ele><time>2026-05-02T07:20:09.93Z</time></trkpt><trkpt lat="40.0895484" lon="15.326517"><ele>288.0</ele><time>2026-05-02T07:20:11.93Z</time></trkpt><trkpt lat="40.0894752" lon="15.3266083"><ele>286.6</ele><time>2026-05-02T07:20:13.926Z</time></trkpt><trkpt lat="40.0894254" lon="15.326719"><ele>285.20000000000005</ele><time>2026-05-02T07:20:15.932Z</time></trkpt><trkpt lat="40.0893987" lon="15.3268286"><ele>283.8</ele><time>2026-05-02T07:20:17.922Z</time></trkpt><trkpt lat="40.0894242" lon="15.3269448"><ele>282.40000000000003</ele><time>2026-05-02T07:20:19.914Z</time></trkpt><trkpt lat="40.089491" lon="15.3270271"><ele>281.0</ele><time>2026-05-02T07:20:21.918Z</time></trkpt><trkpt lat="40.0895703" lon="15.3271341"><ele>281.0</ele><time>2026-05-02T07:20:23.919Z</time></trkpt><trkpt lat="40.0896723" lon="15.3272126"><ele>281.0</ele><time>2026-05-02T07:20:25.911Z</time></trkpt><trkpt lat="40.0897909" lon="15.3271992"><ele>281.0</ele><time>2026-05-02T07:20:27.916Z</time></trkpt><trkpt lat="40.0898879" lon="15.3271517"><ele>281.0</ele><time>2026-05-02T07:20:29.908Z</time></trkpt><trkpt lat="40.0899592" lon="15.3271548"><ele>281.0</ele><time>2026-05-02T07:20:31.929Z</time></trkpt><trkpt lat="40.090021" lon="15.3272515"><ele>278.5</ele><time>2026-05-02T07:20:33.906Z</time></trkpt><trkpt lat="40.0900398" lon="15.3273387"><ele>276.0</ele><time>2026-05-02T07:20:34.929Z</time></trkpt><trkpt lat="40.0900618" lon="15.3274302"><ele>273.5</ele><time>2026-05-02T07:20:35.921Z</time></trkpt><trkpt lat="40.0900944" lon="15.3275335"><ele>271.0</ele><time>2026-05-02T07:20:36.937Z</time></trkpt><trkpt lat="40.0901279" lon="15.3276452"><ele>268.5</ele><time>2026-05-02T07:20:37.921Z</time></trkpt><trkpt lat="40.0901538" lon="15.3277627"><ele>266.0</ele><time>2026-05-02T07:20:38.93Z</time></trkpt><trkpt lat="40.0901802" lon="15.32788"><ele>266.0</ele><time>2026-05-02T07:20:39.933Z</time></trkpt><trkpt lat="40.0902024" lon="15.3279793"><ele>266.0</ele><time>2026-05-02T07:20:40.935Z</time></trkpt><trkpt lat="40.0902189" lon="15.3280625"><ele>266.0</ele><time>2026-05-02T07:20:41.925Z</time></trkpt><trkpt lat="40.0901969" lon="15.3282002"><ele>266.0</ele><time>2026-05-02T07:20:43.924Z</time></trkpt><trkpt lat="40.0901235" lon="15.3283129"><ele>266.0</ele><time>2026-05-02T07:20:45.926Z</time></trkpt><trkpt lat="40.0900646" lon="15.3283463"><ele>266.0</ele><time>2026-05-02T07:20:46.925Z</time></trkpt><trkpt lat="40.0899522" lon="15.3283838"><ele>266.6</ele><time>2026-05-02T07:20:48.931Z</time></trkpt><trkpt lat="40.0898377" lon="15.3283436"><ele>267.20000000000005</ele><time>2026-05-02T07:20:50.925Z</time></trkpt><trkpt lat="40.089769" lon="15.328247"><ele>267.79999999999995</ele><time>2026-05-02T07:20:51.93Z</time></trkpt><trkpt lat="40.0896948" lon="15.3281543"><ele>268.4</ele><time>2026-05-02T07:20:52.928Z</time></trkpt><trkpt lat="40.0896354" lon="15.3280823"><ele>269.0</ele><time>2026-05-02T07:20:53.931Z</time></trkpt><trkpt lat="40.089573" lon="15.3280162"><ele>269.0</ele><time>2026-05-02T07:20:54.926Z</time></trkpt><trkpt lat="40.0895129" lon="15.3279674"><ele>269.0</ele><time>2026-05-02T07:20:55.925Z</time></trkpt><trkpt lat="40.0894461" lon="15.3279331"><ele>269.0</ele><time>2026-05-02T07:20:56.93Z</time></trkpt><trkpt lat="40.089321" lon="15.327948"><ele>269.0</ele><time>2026-05-02T07:20:58.921Z</time></trkpt><trkpt lat="40.0892672" lon="15.3280152"><ele>269.0</ele><time>2026-05-02T07:20:59.919Z</time></trkpt><trkpt lat="40.089225" lon="15.3281323"><ele>269.0</ele><time>2026-05-02T07:21:00.931Z</time></trkpt><trkpt lat="40.0892005" lon="15.3282726"><ele>266.75</ele><time>2026-05-02T07:21:01.919Z</time></trkpt><trkpt lat="40.0891994" lon="15.3284222"><ele>264.5</ele><time>2026-05-02T07:21:02.922Z</time></trkpt><trkpt lat="40.089209" lon="15.3285805"><ele>262.25</ele><time>2026-05-02T07:21:03.916Z</time></trkpt><trkpt lat="40.0892248" lon="15.3287255"><ele>260.0</ele><time>2026-05-02T07:21:04.92Z</time></trkpt><trkpt lat="40.0892452" lon="15.328858"><ele>259.2</ele><time>2026-05-02T07:21:05.925Z</time></trkpt><trkpt lat="40.0892783" lon="15.328986"><ele>258.4</ele><time>2026-05-02T07:21:06.926Z</time></trkpt><trkpt lat="40.0893381" lon="15.3290978"><ele>257.6</ele><time>2026-05-02T07:21:07.924Z</time></trkpt><trkpt lat="40.0894261" lon="15.3291989"><ele>256.8</ele><time>2026-05-02T07:21:08.924Z</time></trkpt><trkpt lat="40.0895213" lon="15.3292962"><ele>256.0</ele><time>2026-05-02T07:21:09.926Z</time></trkpt><trkpt lat="40.0896149" lon="15.3293978"><ele>255.99999999999997</ele><time>2026-05-02T07:21:10.931Z</time></trkpt><trkpt lat="40.0896822" lon="15.3294798"><ele>256.0</ele><time>2026-05-02T07:21:11.921Z</time></trkpt><trkpt lat="40.0897187" lon="15.3295569"><ele>256.0</ele><time>2026-05-02T07:21:12.926Z</time></trkpt><trkpt lat="40.0897396" lon="15.3296398"><ele>256.0</ele><time>2026-05-02T07:21:13.923Z</time></trkpt><trkpt lat="40.0897328" lon="15.3297376"><ele>255.99999999999997</ele><time>2026-05-02T07:21:14.942Z</time></trkpt><trkpt lat="40.0897132" lon="15.3298429"><ele>256.0</ele><time>2026-05-02T07:21:15.93Z</time></trkpt><trkpt lat="40.0896961" lon="15.3299537"><ele>254.8</ele><time>2026-05-02T07:21:16.926Z</time></trkpt><trkpt lat="40.0897045" lon="15.3300549"><ele>253.60000000000002</ele><time>2026-05-02T07:21:17.918Z</time></trkpt><trkpt lat="40.0897231" lon="15.3301353"><ele>252.4</ele><time>2026-05-02T07:21:18.923Z</time></trkpt><trkpt lat="40.0897631" lon="15.3302711"><ele>251.2</ele><time>2026-05-02T07:21:20.929Z</time></trkpt><trkpt lat="40.0897582" lon="15.3304154"><ele>250.0</ele><time>2026-05-02T07:21:22.927Z</time></trkpt><trkpt lat="40.0896995" lon="15.3305424"><ele>246.99999999999997</ele><time>2026-05-02T07:21:24.93Z</time></trkpt><trkpt lat="40.0896436" lon="15.3305838"><ele>244.0</ele><time>2026-05-02T07:21:25.924Z</time></trkpt><trkpt lat="40.0895645" lon="15.3306075"><ele>241.0</ele><time>2026-05-02T07:21:26.92Z</time></trkpt><trkpt lat="40.0894664" lon="15.330623"><ele>238.0</ele><time>2026-05-02T07:21:27.929Z</time></trkpt><trkpt lat="40.0893789" lon="15.3306348"><ele>234.99999999999997</ele><time>2026-05-02T07:21:28.926Z</time></trkpt><trkpt lat="40.089294" lon="15.33064"><ele>232.0</ele><time>2026-05-02T07:21:29.925Z</time></trkpt><trkpt lat="40.0892181" lon="15.3306414"><ele>232.0</ele><time>2026-05-02T07:21:30.927Z</time></trkpt><trkpt lat="40.0891341" lon="15.3306402"><ele>232.0</ele><time>2026-05-02T07:21:31.916Z</time></trkpt><trkpt lat="40.0890478" lon="15.3306261"><ele>232.0</ele><time>2026-05-02T07:21:32.922Z</time></trkpt><trkpt lat="40.0889499" lon="15.3306006"><ele>232.0</ele><time>2026-05-02T07:21:33.932Z</time></trkpt><trkpt lat="40.088851" lon="15.3305355"><ele>232.0</ele><time>2026-05-02T07:21:34.919Z</time></trkpt><trkpt lat="40.0887582" lon="15.3304665"><ele>234.0</ele><time>2026-05-02T07:21:35.916Z</time></trkpt><trkpt lat="40.0886482" lon="15.3304277"><ele>236.0</ele><time>2026-05-02T07:21:36.931Z</time></trkpt><trkpt lat="40.0885313" lon="15.3304266"><ele>238.0</ele><time>2026-05-02T07:21:37.917Z</time></trkpt><trkpt lat="40.0883938" lon="15.3304255"><ele>240.0</ele><time>2026-05-02T07:21:38.926Z</time></trkpt><trkpt lat="40.0882433" lon="15.3304191"><ele>240.0</ele><time>2026-05-02T07:21:39.922Z</time></trkpt><trkpt lat="40.0880892" lon="15.3303989"><ele>240.0</ele><time>2026-05-02T07:21:40.928Z</time></trkpt><trkpt lat="40.0879414" lon="15.3303871"><ele>240.0</ele><time>2026-05-02T07:21:41.922Z</time></trkpt><trkpt lat="40.0878011" lon="15.3303735"><ele>240.0</ele><time>2026-05-02T07:21:42.914Z</time></trkpt><trkpt lat="40.0876731" lon="15.3303524"><ele>240.0</ele><time>2026-05-02T07:21:43.914Z</time></trkpt><trkpt lat="40.0875636" lon="15.3303396"><ele>240.0</ele><time>2026-05-02T07:21:44.912Z</time></trkpt><trkpt lat="40.087474" lon="15.3303452"><ele>240.0</ele><time>2026-05-02T07:21:45.923Z</time></trkpt><trkpt lat="40.087413" lon="15.3303667"><ele>240.0</ele><time>2026-05-02T07:21:46.922Z</time></trkpt><trkpt lat="40.0873491" lon="15.330482"><ele>240.0</ele><time>2026-05-02T07:21:48.919Z</time></trkpt><trkpt lat="40.0873476" lon="15.3305902"><ele>241.0</ele><time>2026-05-02T07:21:49.929Z</time></trkpt><trkpt lat="40.0873397" lon="15.3307303"><ele>242.0</ele><time>2026-05-02T07:21:50.928Z</time></trkpt><trkpt lat="40.087345" lon="15.3308682"><ele>243.0</ele><time>2026-05-02T07:21:51.912Z</time></trkpt><trkpt lat="40.0873666" lon="15.3310175"><ele>244.0</ele><time>2026-05-02T07:21:52.927Z</time></trkpt><trkpt lat="40.0873929" lon="15.3311513"><ele>245.0</ele><time>2026-05-02T07:21:53.925Z</time></trkpt><trkpt lat="40.087403" lon="15.3312932"><ele>244.75</ele><time>2026-05-02T07:21:54.928Z</time></trkpt><trkpt lat="40.0873927" lon="15.3314357"><ele>244.5</ele><time>2026-05-02T07:21:55.923Z</time></trkpt><trkpt lat="40.087362" lon="15.331593"><ele>244.25</ele><time>2026-05-02T07:21:56.915Z</time></trkpt><trkpt lat="40.0873228" lon="15.3317533"><ele>244.0</ele><time>2026-05-02T07:21:57.915Z</time></trkpt><trkpt lat="40.0872814" lon="15.3319012"><ele>243.99999999999997</ele><time>2026-05-02T07:21:58.92Z</time></trkpt><trkpt lat="40.0872484" lon="15.3320213"><ele>244.0</ele><time>2026-05-02T07:21:59.901Z</time></trkpt><trkpt lat="40.0872003" lon="15.3321198"><ele>244.0</ele><time>2026-05-02T07:22:00.922Z</time></trkpt><trkpt lat="40.0871346" lon="15.3321859"><ele>244.0</ele><time>2026-05-02T07:22:01.936Z</time></trkpt><trkpt lat="40.0870576" lon="15.3322429"><ele>243.99999999999997</ele><time>2026-05-02T07:22:02.918Z</time></trkpt><trkpt lat="40.0869834" lon="15.3322961"><ele>244.0</ele><time>2026-05-02T07:22:03.918Z</time></trkpt><trkpt lat="40.0868863" lon="15.3323867"><ele>243.0</ele><time>2026-05-02T07:22:05.919Z</time></trkpt><trkpt lat="40.0868538" lon="15.332458"><ele>241.99999999999997</ele><time>2026-05-02T07:22:06.925Z</time></trkpt><trkpt lat="40.0868478" lon="15.3325463"><ele>240.99999999999997</ele><time>2026-05-02T07:22:07.921Z</time></trkpt><trkpt lat="40.0868724" lon="15.3326562"><ele>240.0</ele><time>2026-05-02T07:22:08.923Z</time></trkpt><trkpt lat="40.0869219" lon="15.3327848"><ele>239.0</ele><time>2026-05-02T07:22:09.917Z</time></trkpt><trkpt lat="40.0870211" lon="15.3328843"><ele>239.0</ele><time>2026-05-02T07:22:10.926Z</time></trkpt><trkpt lat="40.0870935" lon="15.3330131"><ele>239.0</ele><time>2026-05-02T07:22:11.905Z</time></trkpt><trkpt lat="40.0871251" lon="15.3331935"><ele>239.0</ele><time>2026-05-02T07:22:12.938Z</time></trkpt><trkpt lat="40.0871437" lon="15.3333767"><ele>239.0</ele><time>2026-05-02T07:22:13.921Z</time></trkpt><trkpt lat="40.0871355" lon="15.3335444"><ele>238.2</ele><time>2026-05-02T07:22:14.924Z</time></trkpt><trkpt lat="40.0871237" lon="15.3336847"><ele>237.39999999999998</ele><time>2026-05-02T07:22:15.905Z</time></trkpt><trkpt lat="40.0870936" lon="15.3338095"><ele>236.6</ele><time>2026-05-02T07:22:16.914Z</time></trkpt><trkpt lat="40.0870385" lon="15.3339142"><ele>235.8</ele><time>2026-05-02T07:22:17.909Z</time></trkpt><trkpt lat="40.0869617" lon="15.3340111"><ele>235.0</ele><time>2026-05-02T07:22:18.918Z</time></trkpt><trkpt lat="40.0868744" lon="15.3341132"><ele>232.5</ele><time>2026-05-02T07:22:19.935Z</time></trkpt><trkpt lat="40.0867793" lon="15.3342256"><ele>230.0</ele><time>2026-05-02T07:22:20.928Z</time></trkpt><trkpt lat="40.0866888" lon="15.3343315"><ele>227.5</ele><time>2026-05-02T07:22:21.929Z</time></trkpt><trkpt lat="40.0866192" lon="15.3344515"><ele>225.0</ele><time>2026-05-02T07:22:22.918Z</time></trkpt><trkpt lat="40.0865603" lon="15.3345937"><ele>230.5</ele><time>2026-05-02T07:22:23.922Z</time></trkpt><trkpt lat="40.0865193" lon="15.3347463"><ele>236.0</ele><time>2026-05-02T07:22:24.921Z</time></trkpt><trkpt lat="40.0864839" lon="15.3348973"><ele>241.5</ele><time>2026-05-02T07:22:25.916Z</time></trkpt><trkpt lat="40.0864663" lon="15.3350403"><ele>247.0</ele><time>2026-05-02T07:22:26.93Z</time></trkpt><trkpt lat="40.0864624" lon="15.3351793"><ele>247.0</ele><time>2026-05-02T07:22:27.906Z</time></trkpt><trkpt lat="40.0864719" lon="15.3353192"><ele>247.0</ele><time>2026-05-02T07:22:28.924Z</time></trkpt><trkpt lat="40.0864967" lon="15.335446"><ele>247.0</ele><time>2026-05-02T07:22:29.925Z</time></trkpt><trkpt lat="40.0865286" lon="15.3355518"><ele>247.0</ele><time>2026-05-02T07:22:30.916Z</time></trkpt><trkpt lat="40.086553" lon="15.3356353"><ele>247.0</ele><time>2026-05-02T07:22:31.916Z</time></trkpt><trkpt lat="40.0865823" lon="15.3357588"><ele>244.16666666666666</ele><time>2026-05-02T07:22:33.919Z</time></trkpt><trkpt lat="40.0865864" lon="15.3358784"><ele>241.33333333333331</ele><time>2026-05-02T07:22:35.923Z</time></trkpt><trkpt lat="40.0865559" lon="15.3359896"><ele>238.5</ele><time>2026-05-02T07:22:37.915Z</time></trkpt><trkpt lat="40.0865206" lon="15.3360851"><ele>235.66666666666669</ele><time>2026-05-02T07:22:39.919Z</time></trkpt><trkpt lat="40.0864695" lon="15.3361565"><ele>232.83333333333334</ele><time>2026-05-02T07:22:41.924Z</time></trkpt><trkpt lat="40.0864235" lon="15.3362277"><ele>230.0</ele><time>2026-05-02T07:22:43.934Z</time></trkpt><trkpt lat="40.0863821" lon="15.3362992"><ele>230.0</ele><time>2026-05-02T07:22:45.921Z</time></trkpt><trkpt lat="40.0863367" lon="15.3363726"><ele>230.0</ele><time>2026-05-02T07:22:47.923Z</time></trkpt><trkpt lat="40.0862791" lon="15.3364837"><ele>230.0</ele><time>2026-05-02T07:22:49.913Z</time></trkpt><trkpt lat="40.0861872" lon="15.3366041"><ele>230.0</ele><time>2026-05-02T07:22:51.926Z</time></trkpt><trkpt lat="40.0861096" lon="15.3366762"><ele>230.0</ele><time>2026-05-02T07:22:52.92Z</time></trkpt><trkpt lat="40.086014" lon="15.3367395"><ele>229.75</ele><time>2026-05-02T07:22:53.917Z</time></trkpt><trkpt lat="40.0859112" lon="15.3368051"><ele>229.5</ele><time>2026-05-02T07:22:54.927Z</time></trkpt><trkpt lat="40.085812" lon="15.336877"><ele>229.25</ele><time>2026-05-02T07:22:55.918Z</time></trkpt><trkpt lat="40.0857271" lon="15.3369754"><ele>229.0</ele><time>2026-05-02T07:22:56.929Z</time></trkpt><trkpt lat="40.0856618" lon="15.3371048"><ele>226.25</ele><time>2026-05-02T07:22:57.916Z</time></trkpt><trkpt lat="40.085626" lon="15.3372521"><ele>223.5</ele><time>2026-05-02T07:22:58.922Z</time></trkpt><trkpt lat="40.0856193" lon="15.3374024"><ele>220.75</ele><time>2026-05-02T07:22:59.922Z</time></trkpt><trkpt lat="40.0856468" lon="15.3375556"><ele>218.0</ele><time>2026-05-02T07:23:00.934Z</time></trkpt><trkpt lat="40.0856757" lon="15.3376927"><ele>218.0</ele><time>2026-05-02T07:23:01.924Z</time></trkpt><trkpt lat="40.0856778" lon="15.3378126"><ele>218.0</ele><time>2026-05-02T07:23:02.929Z</time></trkpt><trkpt lat="40.0856512" lon="15.3379176"><ele>218.0</ele><time>2026-05-02T07:23:03.914Z</time></trkpt><trkpt lat="40.0855986" lon="15.3380128"><ele>218.0</ele><time>2026-05-02T07:23:04.929Z</time></trkpt><trkpt lat="40.085517" lon="15.3381021"><ele>218.0</ele><time>2026-05-02T07:23:05.918Z</time></trkpt><trkpt lat="40.0854209" lon="15.3381732"><ele>217.2</ele><time>2026-05-02T07:23:06.922Z</time></trkpt><trkpt lat="40.0853315" lon="15.3382502"><ele>216.4</ele><time>2026-05-02T07:23:07.92Z</time></trkpt><trkpt lat="40.0852552" lon="15.3383449"><ele>215.59999999999997</ele><time>2026-05-02T07:23:08.923Z</time></trkpt><trkpt lat="40.0852078" lon="15.3384636"><ele>214.79999999999998</ele><time>2026-05-02T07:23:09.918Z</time></trkpt><trkpt lat="40.0851744" lon="15.3386156"><ele>214.0</ele><time>2026-05-02T07:23:10.912Z</time></trkpt><trkpt lat="40.0851355" lon="15.3387799"><ele>212.0</ele><time>2026-05-02T07:23:11.915Z</time></trkpt><trkpt lat="40.0850746" lon="15.338939"><ele>210.0</ele><time>2026-05-02T07:23:12.919Z</time></trkpt><trkpt lat="40.085004" lon="15.3390929"><ele>208.0</ele><time>2026-05-02T07:23:13.913Z</time></trkpt><trkpt lat="40.0849475" lon="15.3392334"><ele>206.0</ele><time>2026-05-02T07:23:14.913Z</time></trkpt><trkpt lat="40.0849179" lon="15.3393588"><ele>206.0</ele><time>2026-05-02T07:23:15.919Z</time></trkpt><trkpt lat="40.0849204" lon="15.3394815"><ele>206.0</ele><time>2026-05-02T07:23:16.911Z</time></trkpt><trkpt lat="40.0849569" lon="15.3396124"><ele>206.0</ele><time>2026-05-02T07:23:17.92Z</time></trkpt><trkpt lat="40.0850311" lon="15.3397466"><ele>206.0</ele><time>2026-05-02T07:23:18.919Z</time></trkpt><trkpt lat="40.0851342" lon="15.3398797"><ele>207.0</ele><time>2026-05-02T07:23:19.917Z</time></trkpt><trkpt lat="40.0852549" lon="15.3400028"><ele>208.0</ele><time>2026-05-02T07:23:20.919Z</time></trkpt><trkpt lat="40.0853759" lon="15.3401239"><ele>209.0</ele><time>2026-05-02T07:23:21.926Z</time></trkpt><trkpt lat="40.0854729" lon="15.3402443"><ele>210.0</ele><time>2026-05-02T07:23:22.936Z</time></trkpt><trkpt lat="40.0855631" lon="15.3403498"><ele>210.0</ele><time>2026-05-02T07:23:23.92Z</time></trkpt><trkpt lat="40.0856371" lon="15.340452"><ele>210.0</ele><time>2026-05-02T07:23:24.92Z</time></trkpt><trkpt lat="40.0856817" lon="15.3405823"><ele>210.0</ele><time>2026-05-02T07:23:25.925Z</time></trkpt><trkpt lat="40.085711" lon="15.3407387"><ele>210.0</ele><time>2026-05-02T07:23:26.924Z</time></trkpt><trkpt lat="40.0857214" lon="15.3409028"><ele>207.0</ele><time>2026-05-02T07:23:27.93Z</time></trkpt><trkpt lat="40.0857421" lon="15.3410512"><ele>204.0</ele><time>2026-05-02T07:23:28.919Z</time></trkpt><trkpt lat="40.0857846" lon="15.3411737"><ele>201.0</ele><time>2026-05-02T07:23:29.922Z</time></trkpt><trkpt lat="40.0858518" lon="15.3412947"><ele>198.0</ele><time>2026-05-02T07:23:30.925Z</time></trkpt><trkpt lat="40.085943" lon="15.3414032"><ele>198.0</ele><time>2026-05-02T07:23:31.917Z</time></trkpt><trkpt lat="40.0860278" lon="15.3414913"><ele>198.0</ele><time>2026-05-02T07:23:32.934Z</time></trkpt><trkpt lat="40.0861" lon="15.3415683"><ele>198.0</ele><time>2026-05-02T07:23:33.923Z</time></trkpt><trkpt lat="40.0861486" lon="15.3416586"><ele>198.0</ele><time>2026-05-02T07:23:34.924Z</time></trkpt><trkpt lat="40.0861743" lon="15.341754"><ele>198.0</ele><time>2026-05-02T07:23:35.92Z</time></trkpt><trkpt lat="40.0861744" lon="15.3418702"><ele>198.0</ele><time>2026-05-02T07:23:36.911Z</time></trkpt><trkpt lat="40.0861552" lon="15.3419834"><ele>198.0</ele><time>2026-05-02T07:23:37.918Z</time></trkpt><trkpt lat="40.0861409" lon="15.3420777"><ele>198.0</ele><time>2026-05-02T07:23:38.925Z</time></trkpt><trkpt lat="40.086174" lon="15.3421994"><ele>198.0</ele><time>2026-05-02T07:23:40.935Z</time></trkpt><trkpt lat="40.0862861" lon="15.3421543"><ele>198.0</ele><time>2026-05-02T07:23:42.92Z</time></trkpt><trkpt lat="40.0863288" lon="15.3420696"><ele>198.0</ele><time>2026-05-02T07:23:43.916Z</time></trkpt><trkpt lat="40.0863572" lon="15.3419719"><ele>198.0</ele><time>2026-05-02T07:23:44.915Z</time></trkpt><trkpt lat="40.0864109" lon="15.3418842"><ele>198.0</ele><time>2026-05-02T07:23:45.919Z</time></trkpt><trkpt lat="40.0864878" lon="15.3418351"><ele>198.0</ele><time>2026-05-02T07:23:46.929Z</time></trkpt><trkpt lat="40.0865794" lon="15.3418036"><ele>198.0</ele><time>2026-05-02T07:23:47.923Z</time></trkpt><trkpt lat="40.0866724" lon="15.3417699"><ele>198.0</ele><time>2026-05-02T07:23:48.931Z</time></trkpt><trkpt lat="40.0867498" lon="15.3417139"><ele>193.8</ele><time>2026-05-02T07:23:49.923Z</time></trkpt><trkpt lat="40.0868021" lon="15.3416371"><ele>189.60000000000002</ele><time>2026-05-02T07:23:50.935Z</time></trkpt><trkpt lat="40.0868387" lon="15.3415478"><ele>185.39999999999998</ele><time>2026-05-02T07:23:51.926Z</time></trkpt><trkpt lat="40.0868407" lon="15.3414385"><ele>181.2</ele><time>2026-05-02T07:23:52.932Z</time></trkpt><trkpt lat="40.0867926" lon="15.3413068"><ele>177.0</ele><time>2026-05-02T07:23:53.926Z</time></trkpt><trkpt lat="40.0867323" lon="15.3411723"><ele>176.6</ele><time>2026-05-02T07:23:54.932Z</time></trkpt><trkpt lat="40.0866795" lon="15.3410435"><ele>176.2</ele><time>2026-05-02T07:23:55.934Z</time></trkpt><trkpt lat="40.0866412" lon="15.3409219"><ele>175.8</ele><time>2026-05-02T07:23:56.917Z</time></trkpt><trkpt lat="40.0866209" lon="15.340794"><ele>175.4</ele><time>2026-05-02T07:23:57.921Z</time></trkpt><trkpt lat="40.0866321" lon="15.34064"><ele>175.0</ele><time>2026-05-02T07:23:58.93Z</time></trkpt><trkpt lat="40.0866562" lon="15.3404663"><ele>173.75</ele><time>2026-05-02T07:23:59.913Z</time></trkpt><trkpt lat="40.0866877" lon="15.3402827"><ele>172.5</ele><time>2026-05-02T07:24:00.939Z</time></trkpt><trkpt lat="40.086713" lon="15.3401182"><ele>171.25</ele><time>2026-05-02T07:24:01.908Z</time></trkpt><trkpt lat="40.0867414" lon="15.339972"><ele>170.0</ele><time>2026-05-02T07:24:02.925Z</time></trkpt><trkpt lat="40.0867724" lon="15.3398455"><ele>170.0</ele><time>2026-05-02T07:24:03.921Z</time></trkpt><trkpt lat="40.0868049" lon="15.339753"><ele>170.0</ele><time>2026-05-02T07:24:04.921Z</time></trkpt><trkpt lat="40.0868415" lon="15.3396763"><ele>170.0</ele><time>2026-05-02T07:24:05.921Z</time></trkpt><trkpt lat="40.0868936" lon="15.3396296"><ele>170.0</ele><time>2026-05-02T07:24:06.914Z</time></trkpt><trkpt lat="40.0870251" lon="15.3396216"><ele>170.0</ele><time>2026-05-02T07:24:08.921Z</time></trkpt><trkpt lat="40.0870986" lon="15.3396291"><ele>170.0</ele><time>2026-05-02T07:24:09.915Z</time></trkpt><trkpt lat="40.0871801" lon="15.3396252"><ele>170.83333333333331</ele><time>2026-05-02T07:24:10.91Z</time></trkpt><trkpt lat="40.0872655" lon="15.3396011"><ele>171.66666666666666</ele><time>2026-05-02T07:24:11.927Z</time></trkpt><trkpt lat="40.0873457" lon="15.3395716"><ele>172.5</ele><time>2026-05-02T07:24:12.932Z</time></trkpt><trkpt lat="40.0874211" lon="15.3395297"><ele>173.33333333333334</ele><time>2026-05-02T07:24:13.914Z</time></trkpt><trkpt lat="40.0874891" lon="15.3394881"><ele>174.16666666666669</ele><time>2026-05-02T07:24:14.927Z</time></trkpt><trkpt lat="40.0875545" lon="15.3394585"><ele>175.0</ele><time>2026-05-02T07:24:15.918Z</time></trkpt><trkpt lat="40.087656" lon="15.3394729"><ele>174.0</ele><time>2026-05-02T07:24:17.915Z</time></trkpt><trkpt lat="40.0876442" lon="15.3396063"><ele>173.0</ele><time>2026-05-02T07:24:19.922Z</time></trkpt><trkpt lat="40.0875929" lon="15.3396957"><ele>172.0</ele><time>2026-05-02T07:24:20.925Z</time></trkpt><trkpt lat="40.0875295" lon="15.3397853"><ele>171.0</ele><time>2026-05-02T07:24:21.92Z</time></trkpt><trkpt lat="40.0874702" lon="15.3398756"><ele>170.0</ele><time>2026-05-02T07:24:22.921Z</time></trkpt><trkpt lat="40.0873992" lon="15.3399755"><ele>170.0</ele><time>2026-05-02T07:24:23.915Z</time></trkpt><trkpt lat="40.0873341" lon="15.3400795"><ele>170.0</ele><time>2026-05-02T07:24:24.926Z</time></trkpt><trkpt lat="40.0872809" lon="15.340164"><ele>170.0</ele><time>2026-05-02T07:24:25.913Z</time></trkpt><trkpt lat="40.0872595" lon="15.3402439"><ele>170.0</ele><time>2026-05-02T07:24:26.925Z</time></trkpt><trkpt lat="40.0872922" lon="15.3404003"><ele>170.0</ele><time>2026-05-02T07:24:28.928Z</time></trkpt><trkpt lat="40.0873529" lon="15.3404946"><ele>171.25</ele><time>2026-05-02T07:24:29.929Z</time></trkpt><trkpt lat="40.0874191" lon="15.3406008"><ele>172.5</ele><time>2026-05-02T07:24:30.921Z</time></trkpt><trkpt lat="40.0874963" lon="15.3407087"><ele>173.75</ele><time>2026-05-02T07:24:31.921Z</time></trkpt><trkpt lat="40.0875899" lon="15.3408195"><ele>175.0</ele><time>2026-05-02T07:24:32.921Z</time></trkpt><trkpt lat="40.0876897" lon="15.3409452"><ele>170.5</ele><time>2026-05-02T07:24:33.921Z</time></trkpt><trkpt lat="40.0877773" lon="15.3410729"><ele>166.0</ele><time>2026-05-02T07:24:34.913Z</time></trkpt><trkpt lat="40.0878519" lon="15.3411928"><ele>161.5</ele><time>2026-05-02T07:24:35.928Z</time></trkpt><trkpt lat="40.0879099" lon="15.3413197"><ele>157.0</ele><time>2026-05-02T07:24:36.925Z</time></trkpt><trkpt lat="40.0879652" lon="15.3414444"><ele>157.0</ele><time>2026-05-02T07:24:37.913Z</time></trkpt><trkpt lat="40.0880053" lon="15.3415718"><ele>157.0</ele><time>2026-05-02T07:24:38.932Z</time></trkpt><trkpt lat="40.0880474" lon="15.3416893"><ele>157.0</ele><time>2026-05-02T07:24:39.93Z</time></trkpt><trkpt lat="40.0880787" lon="15.3418035"><ele>157.0</ele><time>2026-05-02T07:24:40.922Z</time></trkpt><trkpt lat="40.088105" lon="15.3419179"><ele>157.0</ele><time>2026-05-02T07:24:41.923Z</time></trkpt><trkpt lat="40.0881266" lon="15.3420203"><ele>156.99999999999997</ele><time>2026-05-02T07:24:42.931Z</time></trkpt><trkpt lat="40.088144" lon="15.3421164"><ele>157.0</ele><time>2026-05-02T07:24:43.917Z</time></trkpt><trkpt lat="40.0881458" lon="15.342209"><ele>157.0</ele><time>2026-05-02T07:24:44.921Z</time></trkpt><trkpt lat="40.0881264" lon="15.3422957"><ele>157.0</ele><time>2026-05-02T07:24:45.912Z</time></trkpt><trkpt lat="40.0880884" lon="15.3423806"><ele>157.0</ele><time>2026-05-02T07:24:46.921Z</time></trkpt><trkpt lat="40.0880446" lon="15.3424625"><ele>156.99999999999997</ele><time>2026-05-02T07:24:47.92Z</time></trkpt><trkpt lat="40.0880017" lon="15.3425325"><ele>157.0</ele><time>2026-05-02T07:24:48.932Z</time></trkpt><trkpt lat="40.0879806" lon="15.342622"><ele>156.16666666666669</ele><time>2026-05-02T07:24:49.935Z</time></trkpt><trkpt lat="40.0879801" lon="15.3427161"><ele>155.33333333333334</ele><time>2026-05-02T07:24:50.925Z</time></trkpt><trkpt lat="40.0880037" lon="15.3428197"><ele>154.5</ele><time>2026-05-02T07:24:51.921Z</time></trkpt><trkpt lat="40.0880343" lon="15.3429236"><ele>153.66666666666666</ele><time>2026-05-02T07:24:52.932Z</time></trkpt><trkpt lat="40.0880652" lon="15.3430255"><ele>152.83333333333331</ele><time>2026-05-02T07:24:53.925Z</time></trkpt><trkpt lat="40.0880871" lon="15.3431302"><ele>152.0</ele><time>2026-05-02T07:24:54.926Z</time></trkpt><trkpt lat="40.0881033" lon="15.3432396"><ele>151.0</ele><time>2026-05-02T07:24:55.929Z</time></trkpt><trkpt lat="40.088107" lon="15.3433557"><ele>150.0</ele><time>2026-05-02T07:24:56.93Z</time></trkpt><trkpt lat="40.088108" lon="15.3434758"><ele>149.0</ele><time>2026-05-02T07:24:57.923Z</time></trkpt><trkpt lat="40.0881221" lon="15.3436016"><ele>148.0</ele><time>2026-05-02T07:24:58.932Z</time></trkpt><trkpt lat="40.0881462" lon="15.3437239"><ele>147.0</ele><time>2026-05-02T07:24:59.925Z</time></trkpt><trkpt lat="40.0881688" lon="15.3438439"><ele>145.66666666666666</ele><time>2026-05-02T07:25:00.925Z</time></trkpt><trkpt lat="40.0881887" lon="15.3439652"><ele>144.33333333333334</ele><time>2026-05-02T07:25:01.918Z</time></trkpt><trkpt lat="40.0882109" lon="15.3440834"><ele>143.0</ele><time>2026-05-02T07:25:02.926Z</time></trkpt><trkpt lat="40.0882372" lon="15.3441975"><ele>141.66666666666669</ele><time>2026-05-02T07:25:03.922Z</time></trkpt><trkpt lat="40.0882599" lon="15.3443077"><ele>140.33333333333334</ele><time>2026-05-02T07:25:04.923Z</time></trkpt><trkpt lat="40.0882812" lon="15.3444095"><ele>139.0</ele><time>2026-05-02T07:25:05.927Z</time></trkpt><trkpt lat="40.0883031" lon="15.3445019"><ele>136.6</ele><time>2026-05-02T07:25:06.922Z</time></trkpt><trkpt lat="40.0883317" lon="15.3445892"><ele>134.2</ele><time>2026-05-02T07:25:07.924Z</time></trkpt><trkpt lat="40.0883722" lon="15.3446755"><ele>131.79999999999998</ele><time>2026-05-02T07:25:08.922Z</time></trkpt><trkpt lat="40.0884349" lon="15.3447625"><ele>129.4</ele><time>2026-05-02T07:25:09.915Z</time></trkpt><trkpt lat="40.088521" lon="15.3448435"><ele>127.0</ele><time>2026-05-02T07:25:10.931Z</time></trkpt><trkpt lat="40.0886067" lon="15.3449292"><ele>126.19999999999999</ele><time>2026-05-02T07:25:11.929Z</time></trkpt><trkpt lat="40.0886761" lon="15.3450057"><ele>125.39999999999999</ele><time>2026-05-02T07:25:12.931Z</time></trkpt><trkpt lat="40.0887128" lon="15.3450827"><ele>124.60000000000001</ele><time>2026-05-02T07:25:13.914Z</time></trkpt><trkpt lat="40.0887122" lon="15.3452373"><ele>123.80000000000001</ele><time>2026-05-02T07:25:15.92Z</time></trkpt><trkpt lat="40.0886289" lon="15.3453499"><ele>123.0</ele><time>2026-05-02T07:25:17.919Z</time></trkpt><trkpt lat="40.0884998" lon="15.3453428"><ele>123.0</ele><time>2026-05-02T07:25:19.919Z</time></trkpt><trkpt lat="40.0884093" lon="15.3453116"><ele>123.00000000000001</ele><time>2026-05-02T07:25:20.927Z</time></trkpt><trkpt lat="40.0883083" lon="15.3452741"><ele>123.00000000000001</ele><time>2026-05-02T07:25:21.922Z</time></trkpt><trkpt lat="40.0882003" lon="15.3452191"><ele>123.0</ele><time>2026-05-02T07:25:22.924Z</time></trkpt><trkpt lat="40.0880965" lon="15.3451759"><ele>123.0</ele><time>2026-05-02T07:25:23.924Z</time></trkpt><trkpt lat="40.0879988" lon="15.3451603"><ele>124.0</ele><time>2026-05-02T07:25:24.927Z</time></trkpt><trkpt lat="40.0879011" lon="15.3451533"><ele>125.00000000000001</ele><time>2026-05-02T07:25:25.922Z</time></trkpt><trkpt lat="40.0877989" lon="15.3451644"><ele>126.00000000000001</ele><time>2026-05-02T07:25:26.93Z</time></trkpt><trkpt lat="40.0876942" lon="15.3451924"><ele>127.0</ele><time>2026-05-02T07:25:27.923Z</time></trkpt><trkpt lat="40.0875862" lon="15.3452184"><ele>128.0</ele><time>2026-05-02T07:25:28.921Z</time></trkpt><trkpt lat="40.0874927" lon="15.3452399"><ele>131.66666666666666</ele><time>2026-05-02T07:25:29.919Z</time></trkpt><trkpt lat="40.0874067" lon="15.3452696"><ele>135.33333333333331</ele><time>2026-05-02T07:25:30.93Z</time></trkpt><trkpt lat="40.0873344" lon="15.3453216"><ele>139.0</ele><time>2026-05-02T07:25:31.924Z</time></trkpt><trkpt lat="40.0872827" lon="15.3453932"><ele>142.66666666666666</ele><time>2026-05-02T07:25:32.918Z</time></trkpt><trkpt lat="40.0872502" lon="15.3454652"><ele>146.33333333333334</ele><time>2026-05-02T07:25:33.924Z</time></trkpt><trkpt lat="40.0872608" lon="15.3455515"><ele>150.0</ele><time>2026-05-02T07:25:34.913Z</time></trkpt><trkpt lat="40.0872833" lon="15.3456522"><ele>150.0</ele><time>2026-05-02T07:25:35.934Z</time></trkpt><trkpt lat="40.0873183" lon="15.345787"><ele>150.0</ele><time>2026-05-02T07:25:36.921Z</time></trkpt><trkpt lat="40.087358" lon="15.3459364"><ele>150.0</ele><time>2026-05-02T07:25:37.923Z</time></trkpt><trkpt lat="40.087401" lon="15.3461116"><ele>150.0</ele><time>2026-05-02T07:25:38.93Z</time></trkpt><trkpt lat="40.0874433" lon="15.3462872"><ele>140.25</ele><time>2026-05-02T07:25:39.93Z</time></trkpt><trkpt lat="40.0874829" lon="15.3464491"><ele>130.5</ele><time>2026-05-02T07:25:40.928Z</time></trkpt><trkpt lat="40.0875155" lon="15.3466022"><ele>120.75</ele><time>2026-05-02T07:25:41.916Z</time></trkpt><trkpt lat="40.0875305" lon="15.3467515"><ele>111.0</ele><time>2026-05-02T07:25:42.926Z</time></trkpt><trkpt lat="40.0875436" lon="15.346892"><ele>111.0</ele><time>2026-05-02T07:25:43.923Z</time></trkpt><trkpt lat="40.0875514" lon="15.347031"><ele>111.0</ele><time>2026-05-02T07:25:44.928Z</time></trkpt><trkpt lat="40.0875517" lon="15.3471697"><ele>111.0</ele><time>2026-05-02T07:25:45.924Z</time></trkpt><trkpt lat="40.0875465" lon="15.3473057"><ele>111.0</ele><time>2026-05-02T07:25:46.937Z</time></trkpt><trkpt lat="40.087531" lon="15.3474399"><ele>111.0</ele><time>2026-05-02T07:25:47.921Z</time></trkpt><trkpt lat="40.0875106" lon="15.3475634"><ele>109.83333333333333</ele><time>2026-05-02T07:25:48.93Z</time></trkpt><trkpt lat="40.0874851" lon="15.3476844"><ele>108.66666666666666</ele><time>2026-05-02T07:25:49.916Z</time></trkpt><trkpt lat="40.0874611" lon="15.3478009"><ele>107.5</ele><time>2026-05-02T07:25:50.902Z</time></trkpt><trkpt lat="40.0874302" lon="15.3479063"><ele>106.33333333333333</ele><time>2026-05-02T07:25:51.908Z</time></trkpt><trkpt lat="40.0874037" lon="15.347999"><ele>105.16666666666666</ele><time>2026-05-02T07:25:52.918Z</time></trkpt><trkpt lat="40.08738" lon="15.3480776"><ele>104.0</ele><time>2026-05-02T07:25:53.915Z</time></trkpt><trkpt lat="40.0873253" lon="15.348213"><ele>110.6</ele><time>2026-05-02T07:25:55.924Z</time></trkpt><trkpt lat="40.0872772" lon="15.3483427"><ele>117.2</ele><time>2026-05-02T07:25:57.919Z</time></trkpt><trkpt lat="40.0872227" lon="15.3484652"><ele>123.79999999999998</ele><time>2026-05-02T07:25:59.925Z</time></trkpt><trkpt lat="40.0871788" lon="15.3485742"><ele>130.4</ele><time>2026-05-02T07:26:01.922Z</time></trkpt><trkpt lat="40.0871736" lon="15.3486828"><ele>137.0</ele><time>2026-05-02T07:26:03.919Z</time></trkpt><trkpt lat="40.0871959" lon="15.3487662"><ele>137.00000000000003</ele><time>2026-05-02T07:26:05.914Z</time></trkpt><trkpt lat="40.0872583" lon="15.3487858"><ele>137.0</ele><time>2026-05-02T07:27:29.899Z</time></trkpt><trkpt lat="40.0873242" lon="15.3487465"><ele>137.0</ele><time>2026-05-02T07:27:32.93Z</time></trkpt><trkpt lat="40.0873658" lon="15.3486416"><ele>137.0</ele><time>2026-05-02T07:27:34.917Z</time></trkpt><trkpt lat="40.0873837" lon="15.3485595"><ele>137.0</ele><time>2026-05-02T07:27:35.919Z</time></trkpt><trkpt lat="40.0873976" lon="15.3484759"><ele>137.00000000000003</ele><time>2026-05-02T07:27:36.915Z</time></trkpt><trkpt lat="40.0874143" lon="15.3483909"><ele>137.0</ele><time>2026-05-02T07:27:37.931Z</time></trkpt><trkpt lat="40.0874395" lon="15.3483042"><ele>130.4</ele><time>2026-05-02T07:27:38.928Z</time></trkpt><trkpt lat="40.0874887" lon="15.3482077"><ele>123.79999999999998</ele><time>2026-05-02T07:27:39.928Z</time></trkpt><trkpt lat="40.0875487" lon="15.348107"><ele>117.2</ele><time>2026-05-02T07:27:40.924Z</time></trkpt><trkpt lat="40.0876158" lon="15.3480052"><ele>110.6</ele><time>2026-05-02T07:27:41.927Z</time></trkpt><trkpt lat="40.0876879" lon="15.347909"><ele>104.0</ele><time>2026-05-02T07:27:42.924Z</time></trkpt><trkpt lat="40.0877589" lon="15.3478274"><ele>103.99999999999999</ele><time>2026-05-02T07:27:43.919Z</time></trkpt><trkpt lat="40.0878204" lon="15.3477453"><ele>104.0</ele><time>2026-05-02T07:27:44.923Z</time></trkpt><trkpt lat="40.0878732" lon="15.3476694"><ele>104.0</ele><time>2026-05-02T07:27:45.925Z</time></trkpt><trkpt lat="40.0879211" lon="15.347595"><ele>104.0</ele><time>2026-05-02T07:27:46.927Z</time></trkpt><trkpt lat="40.0879611" lon="15.3475255"><ele>103.99999999999999</ele><time>2026-05-02T07:27:47.925Z</time></trkpt><trkpt lat="40.0879936" lon="15.3474486"><ele>104.0</ele><time>2026-05-02T07:27:48.923Z</time></trkpt><trkpt lat="40.0880284" lon="15.3473503"><ele>103.99999999999999</ele><time>2026-05-02T07:27:49.919Z</time></trkpt><trkpt lat="40.0880698" lon="15.3472344"><ele>104.0</ele><time>2026-05-02T07:27:50.929Z</time></trkpt><trkpt lat="40.0881134" lon="15.3471184"><ele>104.0</ele><time>2026-05-02T07:27:51.919Z</time></trkpt><trkpt lat="40.0881559" lon="15.3470111"><ele>104.0</ele><time>2026-05-02T07:27:52.922Z</time></trkpt><trkpt lat="40.0882032" lon="15.3469372"><ele>103.99999999999999</ele><time>2026-05-02T07:27:53.924Z</time></trkpt><trkpt lat="40.088258" lon="15.3468769"><ele>104.0</ele><time>2026-05-02T07:27:54.926Z</time></trkpt><trkpt lat="40.0883182" lon="15.3468252"><ele>102.33333333333333</ele><time>2026-05-02T07:27:55.922Z</time></trkpt><trkpt lat="40.0884337" lon="15.3467588"><ele>100.66666666666666</ele><time>2026-05-02T07:27:57.92Z</time></trkpt><trkpt lat="40.088499" lon="15.3467368"><ele>99.0</ele><time>2026-05-02T07:27:58.93Z</time></trkpt><trkpt lat="40.0885652" lon="15.3467432"><ele>97.33333333333333</ele><time>2026-05-02T07:27:59.917Z</time></trkpt><trkpt lat="40.0886285" lon="15.3467681"><ele>95.66666666666666</ele><time>2026-05-02T07:28:00.928Z</time></trkpt><trkpt lat="40.0886864" lon="15.3468281"><ele>94.0</ele><time>2026-05-02T07:28:01.922Z</time></trkpt><trkpt lat="40.0887478" lon="15.3469019"><ele>94.0</ele><time>2026-05-02T07:28:02.927Z</time></trkpt><trkpt lat="40.0888165" lon="15.3469964"><ele>94.0</ele><time>2026-05-02T07:28:03.922Z</time></trkpt><trkpt lat="40.0888949" lon="15.3471057"><ele>94.0</ele><time>2026-05-02T07:28:04.929Z</time></trkpt><trkpt lat="40.0889761" lon="15.347221"><ele>94.0</ele><time>2026-05-02T07:28:05.932Z</time></trkpt><trkpt lat="40.0890514" lon="15.3473263"><ele>94.0</ele><time>2026-05-02T07:28:06.92Z</time></trkpt><trkpt lat="40.0891231" lon="15.3474197"><ele>91.66666666666666</ele><time>2026-05-02T07:28:07.926Z</time></trkpt><trkpt lat="40.0891931" lon="15.3475117"><ele>89.33333333333333</ele><time>2026-05-02T07:28:08.919Z</time></trkpt><trkpt lat="40.0892497" lon="15.3475982"><ele>87.0</ele><time>2026-05-02T07:28:09.922Z</time></trkpt><trkpt lat="40.089298" lon="15.3476798"><ele>84.66666666666667</ele><time>2026-05-02T07:28:10.922Z</time></trkpt><trkpt lat="40.0893259" lon="15.3477701"><ele>82.33333333333334</ele><time>2026-05-02T07:28:11.932Z</time></trkpt><trkpt lat="40.0893388" lon="15.3478576"><ele>80.0</ele><time>2026-05-02T07:28:12.933Z</time></trkpt><trkpt lat="40.0893297" lon="15.3479502"><ele>79.8</ele><time>2026-05-02T07:28:13.92Z</time></trkpt><trkpt lat="40.0893" lon="15.3480498"><ele>79.6</ele><time>2026-05-02T07:28:14.923Z</time></trkpt><trkpt lat="40.0892519" lon="15.3481468"><ele>79.4</ele><time>2026-05-02T07:28:15.927Z</time></trkpt><trkpt lat="40.0891897" lon="15.3482451"><ele>79.2</ele><time>2026-05-02T07:28:16.938Z</time></trkpt><trkpt lat="40.0891157" lon="15.3483402"><ele>79.0</ele><time>2026-05-02T07:28:17.916Z</time></trkpt><trkpt lat="40.0890399" lon="15.3484285"><ele>79.0</ele><time>2026-05-02T07:28:18.919Z</time></trkpt><trkpt lat="40.0889685" lon="15.3485162"><ele>79.0</ele><time>2026-05-02T07:28:19.924Z</time></trkpt><trkpt lat="40.0889007" lon="15.3485925"><ele>79.0</ele><time>2026-05-02T07:28:20.925Z</time></trkpt><trkpt lat="40.0888327" lon="15.3486617"><ele>79.0</ele><time>2026-05-02T07:28:21.923Z</time></trkpt><trkpt lat="40.088768" lon="15.3487137"><ele>79.0</ele><time>2026-05-02T07:28:22.922Z</time></trkpt><trkpt lat="40.0886993" lon="15.3487451"><ele>79.0</ele><time>2026-05-02T07:28:23.918Z</time></trkpt><trkpt lat="40.0886144" lon="15.3487478"><ele>79.0</ele><time>2026-05-02T07:28:24.919Z</time></trkpt><trkpt lat="40.0885225" lon="15.3487306"><ele>79.0</ele><time>2026-05-02T07:28:25.914Z</time></trkpt><trkpt lat="40.0884284" lon="15.3487188"><ele>79.0</ele><time>2026-05-02T07:28:26.932Z</time></trkpt><trkpt lat="40.0883433" lon="15.348709"><ele>79.0</ele><time>2026-05-02T07:28:27.919Z</time></trkpt><trkpt lat="40.0882636" lon="15.348713"><ele>79.0</ele><time>2026-05-02T07:28:28.924Z</time></trkpt><trkpt lat="40.0881963" lon="15.348756"><ele>79.0</ele><time>2026-05-02T07:28:29.918Z</time></trkpt><trkpt lat="40.088143" lon="15.3488398"><ele>81.6</ele><time>2026-05-02T07:28:30.917Z</time></trkpt><trkpt lat="40.0881073" lon="15.3489363"><ele>84.2</ele><time>2026-05-02T07:28:31.921Z</time></trkpt><trkpt lat="40.0880837" lon="15.3490416"><ele>86.8</ele><time>2026-05-02T07:28:32.922Z</time></trkpt><trkpt lat="40.088059" lon="15.3491708"><ele>89.39999999999999</ele><time>2026-05-02T07:28:33.919Z</time></trkpt><trkpt lat="40.0880337" lon="15.3493009"><ele>92.0</ele><time>2026-05-02T07:28:34.928Z</time></trkpt><trkpt lat="40.088013" lon="15.3494213"><ele>92.0</ele><time>2026-05-02T07:28:35.92Z</time></trkpt><trkpt lat="40.0880047" lon="15.3495431"><ele>92.0</ele><time>2026-05-02T07:28:36.924Z</time></trkpt><trkpt lat="40.0880256" lon="15.3496614"><ele>92.0</ele><time>2026-05-02T07:28:37.931Z</time></trkpt><trkpt lat="40.0880646" lon="15.3497891"><ele>92.0</ele><time>2026-05-02T07:28:38.92Z</time></trkpt><trkpt lat="40.0881194" lon="15.3499207"><ele>92.0</ele><time>2026-05-02T07:28:39.914Z</time></trkpt><trkpt lat="40.0881741" lon="15.3500581"><ele>91.16666666666667</ele><time>2026-05-02T07:28:40.921Z</time></trkpt><trkpt lat="40.0882127" lon="15.3501949"><ele>90.33333333333334</ele><time>2026-05-02T07:28:41.921Z</time></trkpt><trkpt lat="40.08824" lon="15.3503091"><ele>89.5</ele><time>2026-05-02T07:28:42.925Z</time></trkpt><trkpt lat="40.0882703" lon="15.3504113"><ele>88.66666666666667</ele><time>2026-05-02T07:28:43.919Z</time></trkpt><trkpt lat="40.088311" lon="15.3504965"><ele>87.83333333333333</ele><time>2026-05-02T07:28:44.927Z</time></trkpt><trkpt lat="40.0883587" lon="15.3505708"><ele>87.0</ele><time>2026-05-02T07:28:45.922Z</time></trkpt><trkpt lat="40.0884293" lon="15.3506215"><ele>81.39999999999999</ele><time>2026-05-02T07:28:46.919Z</time></trkpt><trkpt lat="40.0885067" lon="15.3506723"><ele>75.8</ele><time>2026-05-02T07:28:47.922Z</time></trkpt><trkpt lat="40.0885627" lon="15.3507232"><ele>70.2</ele><time>2026-05-02T07:28:48.917Z</time></trkpt><trkpt lat="40.0886648" lon="15.3508134"><ele>64.6</ele><time>2026-05-02T07:28:50.918Z</time></trkpt><trkpt lat="40.0887192" lon="15.3509462"><ele>59.0</ele><time>2026-05-02T07:28:52.928Z</time></trkpt><trkpt lat="40.0887324" lon="15.3510423"><ele>59.0</ele><time>2026-05-02T07:28:53.912Z</time></trkpt><trkpt lat="40.0887421" lon="15.3511532"><ele>59.0</ele><time>2026-05-02T07:28:54.915Z</time></trkpt><trkpt lat="40.0887477" lon="15.3512582"><ele>59.0</ele><time>2026-05-02T07:28:55.914Z</time></trkpt><trkpt lat="40.0887513" lon="15.3513569"><ele>59.0</ele><time>2026-05-02T07:28:56.924Z</time></trkpt><trkpt lat="40.0887433" lon="15.351445"><ele>59.0</ele><time>2026-05-02T07:28:57.923Z</time></trkpt><trkpt lat="40.0887128" lon="15.3515191"><ele>59.0</ele><time>2026-05-02T07:28:58.926Z</time></trkpt><trkpt lat="40.0886629" lon="15.3515722"><ele>59.0</ele><time>2026-05-02T07:28:59.914Z</time></trkpt><trkpt lat="40.0885979" lon="15.3516004"><ele>58.2</ele><time>2026-05-02T07:29:00.92Z</time></trkpt><trkpt lat="40.0885221" lon="15.3516101"><ele>57.400000000000006</ele><time>2026-05-02T07:29:01.917Z</time></trkpt><trkpt lat="40.0884344" lon="15.3516158"><ele>56.6</ele><time>2026-05-02T07:29:02.921Z</time></trkpt><trkpt lat="40.0883337" lon="15.3516194"><ele>55.8</ele><time>2026-05-02T07:29:03.921Z</time></trkpt><trkpt lat="40.088232" lon="15.3516287"><ele>55.0</ele><time>2026-05-02T07:29:04.93Z</time></trkpt><trkpt lat="40.088124" lon="15.3516209"><ele>54.99999999999999</ele><time>2026-05-02T07:29:05.919Z</time></trkpt><trkpt lat="40.0880347" lon="15.3516265"><ele>55.0</ele><time>2026-05-02T07:29:06.919Z</time></trkpt><trkpt lat="40.0879638" lon="15.3516483"><ele>55.0</ele><time>2026-05-02T07:29:07.91Z</time></trkpt><trkpt lat="40.0879121" lon="15.3517036"><ele>55.0</ele><time>2026-05-02T07:29:08.928Z</time></trkpt><trkpt lat="40.0878735" lon="15.351779"><ele>54.99999999999999</ele><time>2026-05-02T07:29:09.918Z</time></trkpt><trkpt lat="40.0878348" lon="15.3518695"><ele>55.0</ele><time>2026-05-02T07:29:10.931Z</time></trkpt><trkpt lat="40.0878074" lon="15.3519617"><ele>54.99999999999999</ele><time>2026-05-02T07:29:11.905Z</time></trkpt><trkpt lat="40.0877792" lon="15.352058"><ele>55.0</ele><time>2026-05-02T07:29:12.923Z</time></trkpt><trkpt lat="40.0877531" lon="15.352139"><ele>55.0</ele><time>2026-05-02T07:29:13.912Z</time></trkpt><trkpt lat="40.0877279" lon="15.352249"><ele>55.0</ele><time>2026-05-02T07:29:15.916Z</time></trkpt><trkpt lat="40.0877343" lon="15.3523363"><ele>54.99999999999999</ele><time>2026-05-02T07:29:18.929Z</time></trkpt><trkpt lat="40.087782" lon="15.3524418"><ele>55.0</ele><time>2026-05-02T07:29:20.922Z</time></trkpt><trkpt lat="40.0878466" lon="15.3525073"><ele>56.75</ele><time>2026-05-02T07:29:21.918Z</time></trkpt><trkpt lat="40.0879312" lon="15.3525829"><ele>58.5</ele><time>2026-05-02T07:29:22.915Z</time></trkpt><trkpt lat="40.0880224" lon="15.3526657"><ele>60.25</ele><time>2026-05-02T07:29:23.93Z</time></trkpt><trkpt lat="40.0881216" lon="15.3527523"><ele>62.0</ele><time>2026-05-02T07:29:24.93Z</time></trkpt><trkpt lat="40.0882269" lon="15.3528253"><ele>63.75</ele><time>2026-05-02T07:29:25.911Z</time></trkpt><trkpt lat="40.0883487" lon="15.3528812"><ele>65.5</ele><time>2026-05-02T07:29:26.921Z</time></trkpt><trkpt lat="40.088462" lon="15.3529262"><ele>67.25</ele><time>2026-05-02T07:29:27.92Z</time></trkpt><trkpt lat="40.0885686" lon="15.3529702"><ele>69.0</ele><time>2026-05-02T07:29:28.927Z</time></trkpt><trkpt lat="40.0886669" lon="15.3530452"><ele>69.0</ele><time>2026-05-02T07:29:29.914Z</time></trkpt><trkpt lat="40.0887719" lon="15.3531435"><ele>69.0</ele><time>2026-05-02T07:29:30.919Z</time></trkpt><trkpt lat="40.0888765" lon="15.3532559"><ele>69.0</ele><time>2026-05-02T07:29:31.924Z</time></trkpt><trkpt lat="40.0889664" lon="15.3534081"><ele>69.0</ele><time>2026-05-02T07:29:32.917Z</time></trkpt><trkpt lat="40.0890424" lon="15.3535434"><ele>64.66666666666667</ele><time>2026-05-02T07:29:33.903Z</time></trkpt><trkpt lat="40.0890998" lon="15.3536568"><ele>60.333333333333336</ele><time>2026-05-02T07:29:34.919Z</time></trkpt><trkpt lat="40.0891548" lon="15.3537344"><ele>56.0</ele><time>2026-05-02T07:29:35.919Z</time></trkpt><trkpt lat="40.0892146" lon="15.3537913"><ele>51.66666666666667</ele><time>2026-05-02T07:29:36.906Z</time></trkpt><trkpt lat="40.0892949" lon="15.3538207"><ele>47.333333333333336</ele><time>2026-05-02T07:29:37.916Z</time></trkpt><trkpt lat="40.0893883" lon="15.3538161"><ele>43.0</ele><time>2026-05-02T07:29:38.923Z</time></trkpt><trkpt lat="40.0894829" lon="15.3537774"><ele>43.0</ele><time>2026-05-02T07:29:39.918Z</time></trkpt><trkpt lat="40.0895707" lon="15.3537041"><ele>43.0</ele><time>2026-05-02T07:29:40.928Z</time></trkpt><trkpt lat="40.0896338" lon="15.3536131"><ele>43.0</ele><time>2026-05-02T07:29:41.919Z</time></trkpt><trkpt lat="40.0896988" lon="15.3535417"><ele>43.0</ele><time>2026-05-02T07:29:42.928Z</time></trkpt><trkpt lat="40.0897691" lon="15.3535125"><ele>43.0</ele><time>2026-05-02T07:29:43.924Z</time></trkpt><trkpt lat="40.0898559" lon="15.3535226"><ele>43.0</ele><time>2026-05-02T07:29:44.928Z</time></trkpt><trkpt lat="40.0899555" lon="15.3535702"><ele>42.0</ele><time>2026-05-02T07:29:45.915Z</time></trkpt><trkpt lat="40.0900579" lon="15.353634"><ele>41.0</ele><time>2026-05-02T07:29:46.926Z</time></trkpt><trkpt lat="40.0901588" lon="15.3536916"><ele>40.0</ele><time>2026-05-02T07:29:47.93Z</time></trkpt><trkpt lat="40.0902439" lon="15.3537557"><ele>39.0</ele><time>2026-05-02T07:29:48.92Z</time></trkpt><trkpt lat="40.0903284" lon="15.3538339"><ele>38.0</ele><time>2026-05-02T07:29:49.916Z</time></trkpt><trkpt lat="40.090412" lon="15.3539437"><ele>40.5</ele><time>2026-05-02T07:29:50.909Z</time></trkpt><trkpt lat="40.0904857" lon="15.3540723"><ele>43.0</ele><time>2026-05-02T07:29:51.918Z</time></trkpt><trkpt lat="40.0905593" lon="15.3542035"><ele>45.5</ele><time>2026-05-02T07:29:52.93Z</time></trkpt><trkpt lat="40.0906355" lon="15.3543321"><ele>48.0</ele><time>2026-05-02T07:29:53.915Z</time></trkpt><trkpt lat="40.0907133" lon="15.354431"><ele>47.599999999999994</ele><time>2026-05-02T07:29:54.921Z</time></trkpt><trkpt lat="40.0907878" lon="15.354498"><ele>47.199999999999996</ele><time>2026-05-02T07:29:55.918Z</time></trkpt><trkpt lat="40.0908655" lon="15.3545421"><ele>46.8</ele><time>2026-05-02T07:29:56.927Z</time></trkpt><trkpt lat="40.0909598" lon="15.3545595"><ele>46.4</ele><time>2026-05-02T07:29:57.911Z</time></trkpt><trkpt lat="40.091049" lon="15.3545868"><ele>46.0</ele><time>2026-05-02T07:29:58.926Z</time></trkpt><trkpt lat="40.0911301" lon="15.3546629"><ele>49.0</ele><time>2026-05-02T07:29:59.919Z</time></trkpt><trkpt lat="40.0911923" lon="15.3547688"><ele>52.0</ele><time>2026-05-02T07:30:00.919Z</time></trkpt><trkpt lat="40.0912477" lon="15.3548895"><ele>55.0</ele><time>2026-05-02T07:30:01.915Z</time></trkpt><trkpt lat="40.0913012" lon="15.3550266"><ele>58.0</ele><time>2026-05-02T07:30:02.919Z</time></trkpt><trkpt lat="40.0913609" lon="15.3551708"><ele>58.0</ele><time>2026-05-02T07:30:03.924Z</time></trkpt><trkpt lat="40.0914326" lon="15.3552927"><ele>58.0</ele><time>2026-05-02T07:30:04.914Z</time></trkpt><trkpt lat="40.091515" lon="15.3553908"><ele>58.0</ele><time>2026-05-02T07:30:05.911Z</time></trkpt><trkpt lat="40.0916189" lon="15.355451"><ele>58.0</ele><time>2026-05-02T07:30:06.919Z</time></trkpt><trkpt lat="40.0917285" lon="15.3554928"><ele>59.0</ele><time>2026-05-02T07:30:07.917Z</time></trkpt><trkpt lat="40.0918494" lon="15.3555558"><ele>60.0</ele><time>2026-05-02T07:30:08.916Z</time></trkpt><trkpt lat="40.0919649" lon="15.3556488"><ele>61.0</ele><time>2026-05-02T07:30:09.914Z</time></trkpt><trkpt lat="40.0920674" lon="15.3557511"><ele>62.0</ele><time>2026-05-02T07:30:10.928Z</time></trkpt><trkpt lat="40.0921546" lon="15.3558517"><ele>62.0</ele><time>2026-05-02T07:30:11.921Z</time></trkpt><trkpt lat="40.0922221" lon="15.3559469"><ele>62.0</ele><time>2026-05-02T07:30:12.927Z</time></trkpt><trkpt lat="40.0922798" lon="15.3560524"><ele>62.0</ele><time>2026-05-02T07:30:13.914Z</time></trkpt><trkpt lat="40.0923173" lon="15.3561772"><ele>62.0</ele><time>2026-05-02T07:30:14.92Z</time></trkpt><trkpt lat="40.09236" lon="15.3562907"><ele>62.0</ele><time>2026-05-02T07:30:15.926Z</time></trkpt><trkpt lat="40.0924298" lon="15.3563762"><ele>61.25</ele><time>2026-05-02T07:30:16.924Z</time></trkpt><trkpt lat="40.092532" lon="15.3564421"><ele>60.5</ele><time>2026-05-02T07:30:17.915Z</time></trkpt><trkpt lat="40.0926456" lon="15.3564897"><ele>59.75</ele><time>2026-05-02T07:30:18.935Z</time></trkpt><trkpt lat="40.0927567" lon="15.3565386"><ele>59.0</ele><time>2026-05-02T07:30:19.921Z</time></trkpt><trkpt lat="40.0928604" lon="15.3565984"><ele>59.0</ele><time>2026-05-02T07:30:20.926Z</time></trkpt><trkpt lat="40.0929505" lon="15.3566972"><ele>59.0</ele><time>2026-05-02T07:30:21.924Z</time></trkpt><trkpt lat="40.0930153" lon="15.3568284"><ele>59.0</ele><time>2026-05-02T07:30:22.912Z</time></trkpt><trkpt lat="40.0930706" lon="15.3569801"><ele>59.0</ele><time>2026-05-02T07:30:23.916Z</time></trkpt><trkpt lat="40.0931197" lon="15.3571427"><ele>58.75</ele><time>2026-05-02T07:30:24.93Z</time></trkpt><trkpt lat="40.0931744" lon="15.3573124"><ele>58.5</ele><time>2026-05-02T07:30:25.926Z</time></trkpt><trkpt lat="40.0932298" lon="15.357475"><ele>58.25</ele><time>2026-05-02T07:30:26.919Z</time></trkpt><trkpt lat="40.0932779" lon="15.3576284"><ele>58.0</ele><time>2026-05-02T07:30:27.918Z</time></trkpt><trkpt lat="40.0933191" lon="15.3577625"><ele>58.0</ele><time>2026-05-02T07:30:28.924Z</time></trkpt><trkpt lat="40.09339" lon="15.3578857"><ele>58.0</ele><time>2026-05-02T07:30:29.925Z</time></trkpt><trkpt lat="40.0934895" lon="15.3579923"><ele>58.0</ele><time>2026-05-02T07:30:30.932Z</time></trkpt><trkpt lat="40.0935954" lon="15.3580778"><ele>58.0</ele><time>2026-05-02T07:30:31.924Z</time></trkpt><trkpt lat="40.0936814" lon="15.3581547"><ele>59.2</ele><time>2026-05-02T07:30:32.925Z</time></trkpt><trkpt lat="40.0937535" lon="15.3582181"><ele>60.4</ele><time>2026-05-02T07:30:33.919Z</time></trkpt><trkpt lat="40.0938128" lon="15.3582715"><ele>61.60000000000001</ele><time>2026-05-02T07:30:34.926Z</time></trkpt><trkpt lat="40.0939046" lon="15.358357"><ele>62.800000000000004</ele><time>2026-05-02T07:30:36.925Z</time></trkpt><trkpt lat="40.0939846" lon="15.3584179"><ele>64.0</ele><time>2026-05-02T07:30:38.923Z</time></trkpt><trkpt lat="40.0940838" lon="15.3584929"><ele>63.49999999999999</ele><time>2026-05-02T07:30:40.931Z</time></trkpt><trkpt lat="40.0941551" lon="15.3585484"><ele>63.0</ele><time>2026-05-02T07:30:41.923Z</time></trkpt><trkpt lat="40.0942256" lon="15.3586053"><ele>62.5</ele><time>2026-05-02T07:30:42.917Z</time></trkpt><trkpt lat="40.0942891" lon="15.3586538"><ele>62.0</ele><time>2026-05-02T07:30:43.928Z</time></trkpt><trkpt lat="40.0943532" lon="15.3586955"><ele>61.49999999999999</ele><time>2026-05-02T07:30:44.924Z</time></trkpt><trkpt lat="40.0944301" lon="15.3587519"><ele>61.0</ele><time>2026-05-02T07:30:45.919Z</time></trkpt><trkpt lat="40.0945151" lon="15.3588131"><ele>61.25</ele><time>2026-05-02T07:30:46.943Z</time></trkpt><trkpt lat="40.0946043" lon="15.358891"><ele>61.5</ele><time>2026-05-02T07:30:47.921Z</time></trkpt><trkpt lat="40.0947046" lon="15.3589762"><ele>61.75</ele><time>2026-05-02T07:30:48.932Z</time></trkpt><trkpt lat="40.0948127" lon="15.3590691"><ele>62.0</ele><time>2026-05-02T07:30:49.913Z</time></trkpt><trkpt lat="40.0949255" lon="15.3591523"><ele>62.0</ele><time>2026-05-02T07:30:50.923Z</time></trkpt><trkpt lat="40.0950308" lon="15.3592305"><ele>62.0</ele><time>2026-05-02T07:30:51.908Z</time></trkpt><trkpt lat="40.0951241" lon="15.3593048"><ele>62.0</ele><time>2026-05-02T07:30:52.919Z</time></trkpt><trkpt lat="40.0952003" lon="15.3593854"><ele>62.0</ele><time>2026-05-02T07:30:53.916Z</time></trkpt><trkpt lat="40.0952595" lon="15.3594746"><ele>62.0</ele><time>2026-05-02T07:30:54.928Z</time></trkpt><trkpt lat="40.0953027" lon="15.3595822"><ele>63.0</ele><time>2026-05-02T07:30:55.927Z</time></trkpt><trkpt lat="40.0953403" lon="15.3597113"><ele>64.0</ele><time>2026-05-02T07:30:56.92Z</time></trkpt><trkpt lat="40.0953837" lon="15.3598583"><ele>65.0</ele><time>2026-05-02T07:30:57.942Z</time></trkpt><trkpt lat="40.0954286" lon="15.360001"><ele>66.0</ele><time>2026-05-02T07:30:58.925Z</time></trkpt><trkpt lat="40.0954747" lon="15.3601275"><ele>66.0</ele><time>2026-05-02T07:30:59.923Z</time></trkpt><trkpt lat="40.0955129" lon="15.3602428"><ele>66.0</ele><time>2026-05-02T07:31:00.927Z</time></trkpt><trkpt lat="40.0955314" lon="15.3603499"><ele>66.0</ele><time>2026-05-02T07:31:01.933Z</time></trkpt><trkpt lat="40.0955149" lon="15.3604519"><ele>66.0</ele><time>2026-05-02T07:31:02.925Z</time></trkpt><trkpt lat="40.0954732" lon="15.3605661"><ele>66.0</ele><time>2026-05-02T07:31:03.913Z</time></trkpt><trkpt lat="40.0954224" lon="15.360674"><ele>66.6</ele><time>2026-05-02T07:31:04.929Z</time></trkpt><trkpt lat="40.0953896" lon="15.3607868"><ele>67.19999999999999</ele><time>2026-05-02T07:31:05.927Z</time></trkpt><trkpt lat="40.0953901" lon="15.3608984"><ele>67.80000000000001</ele><time>2026-05-02T07:31:06.93Z</time></trkpt><trkpt lat="40.0954233" lon="15.3610162"><ele>68.4</ele><time>2026-05-02T07:31:07.926Z</time></trkpt><trkpt lat="40.0954823" lon="15.361143"><ele>69.0</ele><time>2026-05-02T07:31:08.918Z</time></trkpt><trkpt lat="40.0955522" lon="15.3612611"><ele>69.5</ele><time>2026-05-02T07:31:09.926Z</time></trkpt><trkpt lat="40.095595" lon="15.3613787"><ele>70.0</ele><time>2026-05-02T07:31:10.93Z</time></trkpt><trkpt lat="40.0956257" lon="15.3614761"><ele>70.5</ele><time>2026-05-02T07:31:11.927Z</time></trkpt><trkpt lat="40.0956441" lon="15.3615735"><ele>71.0</ele><time>2026-05-02T07:31:12.931Z</time></trkpt><trkpt lat="40.0956347" lon="15.3616839"><ele>71.5</ele><time>2026-05-02T07:31:13.92Z</time></trkpt><trkpt lat="40.0955858" lon="15.3617905"><ele>72.0</ele><time>2026-05-02T07:31:14.923Z</time></trkpt><trkpt lat="40.0955223" lon="15.3618964"><ele>72.0</ele><time>2026-05-02T07:31:15.918Z</time></trkpt><trkpt lat="40.095451" lon="15.3619969"><ele>72.0</ele><time>2026-05-02T07:31:16.932Z</time></trkpt><trkpt lat="40.0953642" lon="15.3621119"><ele>72.0</ele><time>2026-05-02T07:31:17.932Z</time></trkpt><trkpt lat="40.0952819" lon="15.3622355"><ele>72.0</ele><time>2026-05-02T07:31:18.927Z</time></trkpt><trkpt lat="40.0951954" lon="15.362371"><ele>72.75</ele><time>2026-05-02T07:31:19.921Z</time></trkpt><trkpt lat="40.0951099" lon="15.3625068"><ele>73.5</ele><time>2026-05-02T07:31:20.921Z</time></trkpt><trkpt lat="40.0950215" lon="15.3626503"><ele>74.25</ele><time>2026-05-02T07:31:21.917Z</time></trkpt><trkpt lat="40.0949313" lon="15.3627943"><ele>75.0</ele><time>2026-05-02T07:31:22.926Z</time></trkpt><trkpt lat="40.09484" lon="15.3629436"><ele>76.5</ele><time>2026-05-02T07:31:23.922Z</time></trkpt><trkpt lat="40.0947536" lon="15.3630982"><ele>78.0</ele><time>2026-05-02T07:31:24.922Z</time></trkpt><trkpt lat="40.0946791" lon="15.3632653"><ele>79.5</ele><time>2026-05-02T07:31:25.915Z</time></trkpt><trkpt lat="40.0946135" lon="15.363432"><ele>81.0</ele><time>2026-05-02T07:31:26.923Z</time></trkpt><trkpt lat="40.0945521" lon="15.3635793"><ele>81.0</ele><time>2026-05-02T07:31:27.913Z</time></trkpt><trkpt lat="40.0944963" lon="15.3636999"><ele>81.0</ele><time>2026-05-02T07:31:28.918Z</time></trkpt><trkpt lat="40.094439" lon="15.3637912"><ele>81.0</ele><time>2026-05-02T07:31:29.915Z</time></trkpt><trkpt lat="40.0943783" lon="15.3638594"><ele>81.0</ele><time>2026-05-02T07:31:30.926Z</time></trkpt><trkpt lat="40.0943117" lon="15.3639154"><ele>81.0</ele><time>2026-05-02T07:31:31.926Z</time></trkpt><trkpt lat="40.0942348" lon="15.3639572"><ele>81.0</ele><time>2026-05-02T07:31:32.921Z</time></trkpt><trkpt lat="40.0941703" lon="15.3640075"><ele>82.19999999999999</ele><time>2026-05-02T07:31:33.932Z</time></trkpt><trkpt lat="40.094129" lon="15.3640717"><ele>83.39999999999999</ele><time>2026-05-02T07:31:34.916Z</time></trkpt><trkpt lat="40.0941167" lon="15.3642292"><ele>84.6</ele><time>2026-05-02T07:31:36.904Z</time></trkpt><trkpt lat="40.0941769" lon="15.3643713"><ele>85.8</ele><time>2026-05-02T07:31:38.93Z</time></trkpt><trkpt lat="40.0942359" lon="15.3644426"><ele>87.0</ele><time>2026-05-02T07:31:39.921Z</time></trkpt><trkpt lat="40.0943052" lon="15.3645132"><ele>87.0</ele><time>2026-05-02T07:31:40.948Z</time></trkpt><trkpt lat="40.0943592" lon="15.3646196"><ele>87.0</ele><time>2026-05-02T07:31:41.923Z</time></trkpt><trkpt lat="40.0943941" lon="15.36476"><ele>87.0</ele><time>2026-05-02T07:31:42.922Z</time></trkpt><trkpt lat="40.0944175" lon="15.3649194"><ele>87.0</ele><time>2026-05-02T07:31:43.922Z</time></trkpt><trkpt lat="40.0944541" lon="15.3650863"><ele>88.0</ele><time>2026-05-02T07:31:44.919Z</time></trkpt><trkpt lat="40.0945034" lon="15.3652561"><ele>89.0</ele><time>2026-05-02T07:31:45.927Z</time></trkpt><trkpt lat="40.0945545" lon="15.3654367"><ele>90.0</ele><time>2026-05-02T07:31:46.927Z</time></trkpt><trkpt lat="40.0946174" lon="15.3656151"><ele>91.0</ele><time>2026-05-02T07:31:47.914Z</time></trkpt><trkpt lat="40.0946928" lon="15.3657836"><ele>92.33333333333333</ele><time>2026-05-02T07:31:48.925Z</time></trkpt><trkpt lat="40.0947782" lon="15.3659461"><ele>93.66666666666667</ele><time>2026-05-02T07:31:49.927Z</time></trkpt><trkpt lat="40.0948755" lon="15.3661019"><ele>95.0</ele><time>2026-05-02T07:31:50.925Z</time></trkpt><trkpt lat="40.0949842" lon="15.3662483"><ele>96.66666666666667</ele><time>2026-05-02T07:31:51.928Z</time></trkpt><trkpt lat="40.0950951" lon="15.3663929"><ele>98.33333333333334</ele><time>2026-05-02T07:31:52.929Z</time></trkpt><trkpt lat="40.0952056" lon="15.3665351"><ele>100.0</ele><time>2026-05-02T07:31:53.92Z</time></trkpt><trkpt lat="40.0953106" lon="15.3666797"><ele>100.0</ele><time>2026-05-02T07:31:54.923Z</time></trkpt><trkpt lat="40.0953999" lon="15.3668092"><ele>100.0</ele><time>2026-05-02T07:31:55.924Z</time></trkpt><trkpt lat="40.0954899" lon="15.3669086"><ele>100.0</ele><time>2026-05-02T07:31:56.915Z</time></trkpt><trkpt lat="40.0955934" lon="15.3669845"><ele>100.0</ele><time>2026-05-02T07:31:57.926Z</time></trkpt><trkpt lat="40.0957185" lon="15.3670413"><ele>100.25</ele><time>2026-05-02T07:31:58.925Z</time></trkpt><trkpt lat="40.0958501" lon="15.3670865"><ele>100.5</ele><time>2026-05-02T07:31:59.919Z</time></trkpt><trkpt lat="40.0959741" lon="15.3671466"><ele>100.75</ele><time>2026-05-02T07:32:00.935Z</time></trkpt><trkpt lat="40.0960705" lon="15.3672237"><ele>101.0</ele><time>2026-05-02T07:32:01.923Z</time></trkpt><trkpt lat="40.0961445" lon="15.3672944"><ele>100.99999999999999</ele><time>2026-05-02T07:32:02.93Z</time></trkpt><trkpt lat="40.09619" lon="15.367371"><ele>101.0</ele><time>2026-05-02T07:32:03.921Z</time></trkpt><trkpt lat="40.0962191" lon="15.3674701"><ele>101.0</ele><time>2026-05-02T07:32:04.935Z</time></trkpt><trkpt lat="40.0962429" lon="15.3675898"><ele>101.0</ele><time>2026-05-02T07:32:05.931Z</time></trkpt><trkpt lat="40.096251" lon="15.3677171"><ele>100.99999999999999</ele><time>2026-05-02T07:32:06.933Z</time></trkpt><trkpt lat="40.0962377" lon="15.3678461"><ele>101.0</ele><time>2026-05-02T07:32:07.923Z</time></trkpt><trkpt lat="40.0961969" lon="15.3679795"><ele>101.75</ele><time>2026-05-02T07:32:08.926Z</time></trkpt><trkpt lat="40.0961388" lon="15.3681097"><ele>102.5</ele><time>2026-05-02T07:32:09.918Z</time></trkpt><trkpt lat="40.0960816" lon="15.368239"><ele>103.25</ele><time>2026-05-02T07:32:10.934Z</time></trkpt><trkpt lat="40.0960446" lon="15.3683884"><ele>104.0</ele><time>2026-05-02T07:32:11.926Z</time></trkpt><trkpt lat="40.096028" lon="15.3685754"><ele>104.0</ele><time>2026-05-02T07:32:12.917Z</time></trkpt><trkpt lat="40.0960212" lon="15.3687718"><ele>104.0</ele><time>2026-05-02T07:32:13.915Z</time></trkpt><trkpt lat="40.0960238" lon="15.3689739"><ele>104.0</ele><time>2026-05-02T07:32:14.93Z</time></trkpt><trkpt lat="40.0960399" lon="15.3691565"><ele>104.0</ele><time>2026-05-02T07:32:15.917Z</time></trkpt><trkpt lat="40.0960368" lon="15.3693224"><ele>104.5</ele><time>2026-05-02T07:32:16.93Z</time></trkpt><trkpt lat="40.0960083" lon="15.3694973"><ele>105.0</ele><time>2026-05-02T07:32:17.921Z</time></trkpt><trkpt lat="40.0959616" lon="15.3696732"><ele>105.5</ele><time>2026-05-02T07:32:18.933Z</time></trkpt><trkpt lat="40.0959107" lon="15.3698582"><ele>106.0</ele><time>2026-05-02T07:32:19.927Z</time></trkpt><trkpt lat="40.0958878" lon="15.3700549"><ele>107.0</ele><time>2026-05-02T07:32:20.918Z</time></trkpt><trkpt lat="40.0958801" lon="15.3702685"><ele>108.0</ele><time>2026-05-02T07:32:21.921Z</time></trkpt><trkpt lat="40.0958709" lon="15.3704911"><ele>109.0</ele><time>2026-05-02T07:32:22.928Z</time></trkpt><trkpt lat="40.0958608" lon="15.3707085"><ele>110.0</ele><time>2026-05-02T07:32:23.922Z</time></trkpt><trkpt lat="40.0958526" lon="15.3709018"><ele>111.0</ele><time>2026-05-02T07:32:24.937Z</time></trkpt><trkpt lat="40.0958376" lon="15.3710619"><ele>112.0</ele><time>2026-05-02T07:32:25.918Z</time></trkpt><trkpt lat="40.0958254" lon="15.3711925"><ele>113.0</ele><time>2026-05-02T07:32:26.928Z</time></trkpt><trkpt lat="40.0957918" lon="15.3712876"><ele>115.4</ele><time>2026-05-02T07:32:27.917Z</time></trkpt><trkpt lat="40.0957348" lon="15.3713692"><ele>117.80000000000001</ele><time>2026-05-02T07:32:28.922Z</time></trkpt><trkpt lat="40.0956743" lon="15.3714672"><ele>120.2</ele><time>2026-05-02T07:32:29.917Z</time></trkpt><trkpt lat="40.0956275" lon="15.371607"><ele>122.6</ele><time>2026-05-02T07:32:30.936Z</time></trkpt><trkpt lat="40.0956034" lon="15.3717596"><ele>125.0</ele><time>2026-05-02T07:32:31.932Z</time></trkpt><trkpt lat="40.0956125" lon="15.3719266"><ele>125.0</ele><time>2026-05-02T07:32:32.926Z</time></trkpt><trkpt lat="40.0956333" lon="15.3720964"><ele>125.0</ele><time>2026-05-02T07:32:33.924Z</time></trkpt><trkpt lat="40.0956338" lon="15.3722578"><ele>125.0</ele><time>2026-05-02T07:32:34.933Z</time></trkpt><trkpt lat="40.0956012" lon="15.3724232"><ele>125.0</ele><time>2026-05-02T07:32:35.919Z</time></trkpt><trkpt lat="40.0955384" lon="15.3725787"><ele>125.25</ele><time>2026-05-02T07:32:36.931Z</time></trkpt><trkpt lat="40.0954643" lon="15.3727384"><ele>125.5</ele><time>2026-05-02T07:32:37.908Z</time></trkpt><trkpt lat="40.0953885" lon="15.3729057"><ele>125.75</ele><time>2026-05-02T07:32:38.927Z</time></trkpt><trkpt lat="40.0953359" lon="15.3730937"><ele>126.0</ele><time>2026-05-02T07:32:39.937Z</time></trkpt><trkpt lat="40.0952895" lon="15.3733023"><ele>126.0</ele><time>2026-05-02T07:32:40.923Z</time></trkpt><trkpt lat="40.0952426" lon="15.3735127"><ele>126.0</ele><time>2026-05-02T07:32:41.923Z</time></trkpt><trkpt lat="40.0952068" lon="15.3737121"><ele>126.0</ele><time>2026-05-02T07:32:42.935Z</time></trkpt><trkpt lat="40.0951724" lon="15.3738922"><ele>126.5</ele><time>2026-05-02T07:32:43.919Z</time></trkpt><trkpt lat="40.0951457" lon="15.374065"><ele>127.0</ele><time>2026-05-02T07:32:44.92Z</time></trkpt><trkpt lat="40.0951426" lon="15.3742472"><ele>127.5</ele><time>2026-05-02T07:32:45.923Z</time></trkpt><trkpt lat="40.0951554" lon="15.3744418"><ele>128.0</ele><time>2026-05-02T07:32:46.934Z</time></trkpt><trkpt lat="40.0951688" lon="15.3746371"><ele>128.75</ele><time>2026-05-02T07:32:47.916Z</time></trkpt><trkpt lat="40.0951816" lon="15.3748229"><ele>129.5</ele><time>2026-05-02T07:32:48.92Z</time></trkpt><trkpt lat="40.0951963" lon="15.374966"><ele>130.25</ele><time>2026-05-02T07:32:49.924Z</time></trkpt><trkpt lat="40.0952012" lon="15.3750784"><ele>131.0</ele><time>2026-05-02T07:32:50.931Z</time></trkpt><trkpt lat="40.0952659" lon="15.3752091"><ele>131.0</ele><time>2026-05-02T07:32:52.925Z</time></trkpt><trkpt lat="40.0953315" lon="15.3752495"><ele>131.0</ele><time>2026-05-02T07:32:53.929Z</time></trkpt><trkpt lat="40.0954186" lon="15.375257"><ele>131.0</ele><time>2026-05-02T07:32:54.94Z</time></trkpt><trkpt lat="40.0955252" lon="15.3752523"><ele>131.0</ele><time>2026-05-02T07:32:55.919Z</time></trkpt><trkpt lat="40.0956227" lon="15.375257"><ele>131.0</ele><time>2026-05-02T07:32:56.924Z</time></trkpt><trkpt lat="40.0956938" lon="15.3752861"><ele>131.0</ele><time>2026-05-02T07:32:57.93Z</time></trkpt><trkpt lat="40.0957534" lon="15.3753467"><ele>130.4</ele><time>2026-05-02T07:32:58.924Z</time></trkpt><trkpt lat="40.0958211" lon="15.37543"><ele>129.8</ele><time>2026-05-02T07:32:59.926Z</time></trkpt><trkpt lat="40.0958907" lon="15.3755371"><ele>129.20000000000002</ele><time>2026-05-02T07:33:00.931Z</time></trkpt><trkpt lat="40.0959694" lon="15.3756478"><ele>128.6</ele><time>2026-05-02T07:33:01.922Z</time></trkpt><trkpt lat="40.0960654" lon="15.3757527"><ele>128.0</ele><time>2026-05-02T07:33:02.936Z</time></trkpt><trkpt lat="40.0961761" lon="15.3758501"><ele>129.83333333333331</ele><time>2026-05-02T07:33:03.933Z</time></trkpt><trkpt lat="40.0962752" lon="15.3759247"><ele>131.66666666666666</ele><time>2026-05-02T07:33:04.934Z</time></trkpt><trkpt lat="40.0963489" lon="15.3759904"><ele>133.5</ele><time>2026-05-02T07:33:05.917Z</time></trkpt><trkpt lat="40.0963952" lon="15.3760642"><ele>135.33333333333334</ele><time>2026-05-02T07:33:06.931Z</time></trkpt><trkpt lat="40.0964091" lon="15.3761467"><ele>137.16666666666669</ele><time>2026-05-02T07:33:07.923Z</time></trkpt><trkpt lat="40.0963875" lon="15.3762401"><ele>139.0</ele><time>2026-05-02T07:33:08.928Z</time></trkpt><trkpt lat="40.0963421" lon="15.3763516"><ele>140.0</ele><time>2026-05-02T07:33:09.919Z</time></trkpt><trkpt lat="40.0962927" lon="15.3764746"><ele>141.0</ele><time>2026-05-02T07:33:10.927Z</time></trkpt><trkpt lat="40.096241" lon="15.3766199"><ele>142.0</ele><time>2026-05-02T07:33:11.917Z</time></trkpt><trkpt lat="40.0961845" lon="15.3767678"><ele>143.0</ele><time>2026-05-02T07:33:12.93Z</time></trkpt><trkpt lat="40.0961298" lon="15.37691"><ele>143.0</ele><time>2026-05-02T07:33:13.92Z</time></trkpt><trkpt lat="40.0960734" lon="15.3770239"><ele>143.0</ele><time>2026-05-02T07:33:14.924Z</time></trkpt><trkpt lat="40.0960052" lon="15.3771201"><ele>143.0</ele><time>2026-05-02T07:33:15.929Z</time></trkpt><trkpt lat="40.0959115" lon="15.3771858"><ele>143.0</ele><time>2026-05-02T07:33:16.938Z</time></trkpt><trkpt lat="40.0958084" lon="15.3772148"><ele>143.0</ele><time>2026-05-02T07:33:17.927Z</time></trkpt><trkpt lat="40.0956924" lon="15.3772241"><ele>144.4</ele><time>2026-05-02T07:33:18.926Z</time></trkpt><trkpt lat="40.0955643" lon="15.3772304"><ele>145.8</ele><time>2026-05-02T07:33:19.926Z</time></trkpt><trkpt lat="40.0954548" lon="15.3772474"><ele>147.2</ele><time>2026-05-02T07:33:20.92Z</time></trkpt><trkpt lat="40.0953608" lon="15.3772778"><ele>148.6</ele><time>2026-05-02T07:33:21.919Z</time></trkpt><trkpt lat="40.0952819" lon="15.3773427"><ele>150.0</ele><time>2026-05-02T07:33:22.923Z</time></trkpt><trkpt lat="40.0952012" lon="15.3774412"><ele>150.0</ele><time>2026-05-02T07:33:23.919Z</time></trkpt><trkpt lat="40.0951331" lon="15.3775736"><ele>150.0</ele><time>2026-05-02T07:33:24.932Z</time></trkpt><trkpt lat="40.0950784" lon="15.3777235"><ele>150.0</ele><time>2026-05-02T07:33:25.914Z</time></trkpt><trkpt lat="40.0950334" lon="15.3778962"><ele>150.0</ele><time>2026-05-02T07:33:26.919Z</time></trkpt><trkpt lat="40.0949722" lon="15.3780689"><ele>153.0</ele><time>2026-05-02T07:33:27.925Z</time></trkpt><trkpt lat="40.0949149" lon="15.3782448"><ele>156.0</ele><time>2026-05-02T07:33:28.929Z</time></trkpt><trkpt lat="40.0948728" lon="15.378428"><ele>159.0</ele><time>2026-05-02T07:33:29.924Z</time></trkpt><trkpt lat="40.0948244" lon="15.3786173"><ele>162.0</ele><time>2026-05-02T07:33:30.924Z</time></trkpt><trkpt lat="40.0947623" lon="15.3788003"><ele>160.5</ele><time>2026-05-02T07:33:31.919Z</time></trkpt><trkpt lat="40.0946801" lon="15.3789819"><ele>159.0</ele><time>2026-05-02T07:33:32.922Z</time></trkpt><trkpt lat="40.094607" lon="15.3791442"><ele>157.5</ele><time>2026-05-02T07:33:33.913Z</time></trkpt><trkpt lat="40.0945358" lon="15.379293"><ele>156.0</ele><time>2026-05-02T07:33:34.927Z</time></trkpt><trkpt lat="40.0944667" lon="15.3794196"><ele>156.0</ele><time>2026-05-02T07:33:35.931Z</time></trkpt><trkpt lat="40.0943986" lon="15.3795432"><ele>156.0</ele><time>2026-05-02T07:33:36.923Z</time></trkpt><trkpt lat="40.0943491" lon="15.3796924"><ele>156.0</ele><time>2026-05-02T07:33:37.927Z</time></trkpt><trkpt lat="40.0943323" lon="15.3798687"><ele>156.0</ele><time>2026-05-02T07:33:38.937Z</time></trkpt><trkpt lat="40.0943177" lon="15.3800524"><ele>155.5</ele><time>2026-05-02T07:33:39.929Z</time></trkpt><trkpt lat="40.0942853" lon="15.380226"><ele>155.0</ele><time>2026-05-02T07:33:40.928Z</time></trkpt><trkpt lat="40.0942364" lon="15.3803816"><ele>154.5</ele><time>2026-05-02T07:33:41.924Z</time></trkpt><trkpt lat="40.094188" lon="15.380523"><ele>154.0</ele><time>2026-05-02T07:33:42.929Z</time></trkpt><trkpt lat="40.0941378" lon="15.380672"><ele>153.8</ele><time>2026-05-02T07:33:43.918Z</time></trkpt><trkpt lat="40.0940908" lon="15.3808202"><ele>153.60000000000002</ele><time>2026-05-02T07:33:44.934Z</time></trkpt><trkpt lat="40.0940636" lon="15.3809649"><ele>153.4</ele><time>2026-05-02T07:33:45.926Z</time></trkpt><trkpt lat="40.0940498" lon="15.3810886"><ele>153.20000000000002</ele><time>2026-05-02T07:33:46.925Z</time></trkpt><trkpt lat="40.0940363" lon="15.3812074"><ele>153.0</ele><time>2026-05-02T07:33:47.912Z</time></trkpt><trkpt lat="40.0940139" lon="15.3813267"><ele>155.0</ele><time>2026-05-02T07:33:48.931Z</time></trkpt><trkpt lat="40.0939839" lon="15.3814517"><ele>157.0</ele><time>2026-05-02T07:33:49.922Z</time></trkpt><trkpt lat="40.0939365" lon="15.3815778"><ele>159.0</ele><time>2026-05-02T07:33:50.92Z</time></trkpt><trkpt lat="40.0938744" lon="15.381704"><ele>161.0</ele><time>2026-05-02T07:33:51.917Z</time></trkpt><trkpt lat="40.0938059" lon="15.3818339"><ele>163.0</ele><time>2026-05-02T07:33:52.934Z</time></trkpt><trkpt lat="40.0937336" lon="15.3819568"><ele>163.0</ele><time>2026-05-02T07:33:53.93Z</time></trkpt><trkpt lat="40.0936579" lon="15.3820692"><ele>163.0</ele><time>2026-05-02T07:33:54.921Z</time></trkpt><trkpt lat="40.0935879" lon="15.3821883"><ele>163.0</ele><time>2026-05-02T07:33:55.925Z</time></trkpt><trkpt lat="40.0935225" lon="15.3823177"><ele>163.0</ele><time>2026-05-02T07:33:56.919Z</time></trkpt><trkpt lat="40.0934764" lon="15.3824618"><ele>163.4</ele><time>2026-05-02T07:33:57.918Z</time></trkpt><trkpt lat="40.0934495" lon="15.3826157"><ele>163.8</ele><time>2026-05-02T07:33:58.924Z</time></trkpt><trkpt lat="40.0934281" lon="15.3827722"><ele>164.2</ele><time>2026-05-02T07:33:59.926Z</time></trkpt><trkpt lat="40.0934052" lon="15.3829155"><ele>164.6</ele><time>2026-05-02T07:34:00.924Z</time></trkpt><trkpt lat="40.0933893" lon="15.3830349"><ele>165.0</ele><time>2026-05-02T07:34:01.921Z</time></trkpt><trkpt lat="40.0933972" lon="15.3831519"><ele>165.83333333333334</ele><time>2026-05-02T07:34:02.922Z</time></trkpt><trkpt lat="40.0934119" lon="15.3832548"><ele>166.66666666666666</ele><time>2026-05-02T07:34:03.911Z</time></trkpt><trkpt lat="40.093466" lon="15.3833713"><ele>167.5</ele><time>2026-05-02T07:34:05.919Z</time></trkpt><trkpt lat="40.0935025" lon="15.3834509"><ele>168.33333333333331</ele><time>2026-05-02T07:34:07.916Z</time></trkpt><trkpt lat="40.0935586" lon="15.38357"><ele>169.16666666666666</ele><time>2026-05-02T07:34:10.921Z</time></trkpt><trkpt lat="40.093605" lon="15.3836386"><ele>170.0</ele><time>2026-05-02T07:34:11.92Z</time></trkpt><trkpt lat="40.0936416" lon="15.3837107"><ele>170.0</ele><time>2026-05-02T07:34:12.92Z</time></trkpt><trkpt lat="40.0937047" lon="15.3838124"><ele>170.0</ele><time>2026-05-02T07:34:14.925Z</time></trkpt><trkpt lat="40.0937695" lon="15.3839241"><ele>170.0</ele><time>2026-05-02T07:34:16.921Z</time></trkpt><trkpt lat="40.0938013" lon="15.3839997"><ele>170.0</ele><time>2026-05-02T07:34:17.916Z</time></trkpt><trkpt lat="40.0938372" lon="15.384081"><ele>170.0</ele><time>2026-05-02T07:34:18.935Z</time></trkpt><trkpt lat="40.0938674" lon="15.3841553"><ele>170.0</ele><time>2026-05-02T07:34:19.908Z</time></trkpt><trkpt lat="40.093931" lon="15.3843096"><ele>171.4</ele><time>2026-05-02T07:34:21.918Z</time></trkpt><trkpt lat="40.0939751" lon="15.3844033"><ele>172.8</ele><time>2026-05-02T07:34:22.922Z</time></trkpt><trkpt lat="40.0940193" lon="15.3845052"><ele>174.2</ele><time>2026-05-02T07:34:23.92Z</time></trkpt><trkpt lat="40.0940685" lon="15.3846153"><ele>175.6</ele><time>2026-05-02T07:34:24.926Z</time></trkpt><trkpt lat="40.0941282" lon="15.3847135"><ele>177.0</ele><time>2026-05-02T07:34:25.921Z</time></trkpt><trkpt lat="40.0941967" lon="15.3847983"><ele>177.0</ele><time>2026-05-02T07:34:26.917Z</time></trkpt><trkpt lat="40.0942531" lon="15.3848757"><ele>177.0</ele><time>2026-05-02T07:34:27.923Z</time></trkpt><trkpt lat="40.0943254" lon="15.3849886"><ele>177.0</ele><time>2026-05-02T07:34:29.912Z</time></trkpt><trkpt lat="40.0943846" lon="15.3850748"><ele>177.0</ele><time>2026-05-02T07:34:31.912Z</time></trkpt><trkpt lat="40.0944405" lon="15.3851346"><ele>177.0</ele><time>2026-05-02T07:34:38.938Z</time></trkpt><trkpt lat="40.0945007" lon="15.3852284"><ele>177.0</ele><time>2026-05-02T07:34:40.93Z</time></trkpt><trkpt lat="40.0945577" lon="15.3853475"><ele>177.0</ele><time>2026-05-02T07:34:42.93Z</time></trkpt><trkpt lat="40.0945908" lon="15.3854533"><ele>177.0</ele><time>2026-05-02T07:34:44.919Z</time></trkpt><trkpt lat="40.0946246" lon="15.3855783"><ele>177.0</ele><time>2026-05-02T07:34:46.934Z</time></trkpt><trkpt lat="40.0946285" lon="15.3856947"><ele>177.0</ele><time>2026-05-02T07:34:48.93Z</time></trkpt><trkpt lat="40.0946345" lon="15.3857844"><ele>177.0</ele><time>2026-05-02T07:34:50.923Z</time></trkpt><trkpt lat="40.0946389" lon="15.3859101"><ele>177.0</ele><time>2026-05-02T07:34:52.921Z</time></trkpt><trkpt lat="40.0946386" lon="15.3860459"><ele>177.66666666666666</ele><time>2026-05-02T07:34:54.933Z</time></trkpt><trkpt lat="40.0946434" lon="15.3861446"><ele>178.33333333333334</ele><time>2026-05-02T07:34:56.919Z</time></trkpt><trkpt lat="40.0946513" lon="15.3862765"><ele>179.0</ele><time>2026-05-02T07:34:58.934Z</time></trkpt><trkpt lat="40.0946476" lon="15.3863605"><ele>179.66666666666669</ele><time>2026-05-02T07:34:59.921Z</time></trkpt><trkpt lat="40.0946431" lon="15.3864506"><ele>180.33333333333334</ele><time>2026-05-02T07:35:00.923Z</time></trkpt><trkpt lat="40.0946391" lon="15.3865431"><ele>181.0</ele><time>2026-05-02T07:35:01.916Z</time></trkpt><trkpt lat="40.0946388" lon="15.3866332"><ele>181.33333333333334</ele><time>2026-05-02T07:35:02.923Z</time></trkpt><trkpt lat="40.0946378" lon="15.3867198"><ele>181.66666666666669</ele><time>2026-05-02T07:35:03.924Z</time></trkpt><trkpt lat="40.0945995" lon="15.3868751"><ele>182.0</ele><time>2026-05-02T07:35:05.93Z</time></trkpt><trkpt lat="40.0945537" lon="15.3869539"><ele>182.33333333333334</ele><time>2026-05-02T07:35:06.918Z</time></trkpt><trkpt lat="40.0944983" lon="15.3870353"><ele>182.66666666666666</ele><time>2026-05-02T07:35:07.922Z</time></trkpt><trkpt lat="40.0944328" lon="15.3871039"><ele>183.0</ele><time>2026-05-02T07:35:08.915Z</time></trkpt><trkpt lat="40.0943673" lon="15.3871586"><ele>183.0</ele><time>2026-05-02T07:35:09.921Z</time></trkpt><trkpt lat="40.0943144" lon="15.3872116"><ele>183.0</ele><time>2026-05-02T07:35:10.927Z</time></trkpt><trkpt lat="40.0942678" lon="15.3872812"><ele>183.0</ele><time>2026-05-02T07:35:11.922Z</time></trkpt><trkpt lat="40.0942286" lon="15.387357"><ele>183.0</ele><time>2026-05-02T07:35:12.927Z</time></trkpt><trkpt lat="40.0941984" lon="15.3874405"><ele>183.0</ele><time>2026-05-02T07:35:13.921Z</time></trkpt><trkpt lat="40.0941689" lon="15.3875305"><ele>183.0</ele><time>2026-05-02T07:35:14.925Z</time></trkpt><trkpt lat="40.0941369" lon="15.3876284"><ele>183.0</ele><time>2026-05-02T07:35:15.918Z</time></trkpt><trkpt lat="40.0941165" lon="15.3877247"><ele>183.0</ele><time>2026-05-02T07:35:16.922Z</time></trkpt><trkpt lat="40.0941033" lon="15.3878201"><ele>183.0</ele><time>2026-05-02T07:35:17.916Z</time></trkpt><trkpt lat="40.0941014" lon="15.3879164"><ele>183.0</ele><time>2026-05-02T07:35:18.923Z</time></trkpt><trkpt lat="40.0941192" lon="15.3880186"><ele>183.0</ele><time>2026-05-02T07:35:19.929Z</time></trkpt><trkpt lat="40.0941573" lon="15.3881217"><ele>183.0</ele><time>2026-05-02T07:35:20.926Z</time></trkpt><trkpt lat="40.0942128" lon="15.3882153"><ele>183.0</ele><time>2026-05-02T07:35:21.923Z</time></trkpt><trkpt lat="40.0942861" lon="15.3882864"><ele>184.75</ele><time>2026-05-02T07:35:22.938Z</time></trkpt><trkpt lat="40.0943949" lon="15.3883556"><ele>186.5</ele><time>2026-05-02T07:35:23.92Z</time></trkpt><trkpt lat="40.094513" lon="15.3884334"><ele>188.25</ele><time>2026-05-02T07:35:24.921Z</time></trkpt><trkpt lat="40.0946314" lon="15.3885209"><ele>190.0</ele><time>2026-05-02T07:35:25.92Z</time></trkpt><trkpt lat="40.0947369" lon="15.3885945"><ele>190.0</ele><time>2026-05-02T07:35:26.921Z</time></trkpt><trkpt lat="40.0948207" lon="15.3886483"><ele>190.0</ele><time>2026-05-02T07:35:27.912Z</time></trkpt><trkpt lat="40.0948848" lon="15.388696"><ele>190.0</ele><time>2026-05-02T07:35:28.925Z</time></trkpt><trkpt lat="40.0949342" lon="15.3888052"><ele>190.0</ele><time>2026-05-02T07:35:30.926Z</time></trkpt><trkpt lat="40.094907" lon="15.3889342"><ele>190.0</ele><time>2026-05-02T07:35:32.929Z</time></trkpt><trkpt lat="40.0948633" lon="15.3890196"><ele>190.0</ele><time>2026-05-02T07:35:33.92Z</time></trkpt><trkpt lat="40.0948045" lon="15.3891305"><ele>192.25</ele><time>2026-05-02T07:35:34.931Z</time></trkpt><trkpt lat="40.0947401" lon="15.3892506"><ele>194.5</ele><time>2026-05-02T07:35:35.925Z</time></trkpt><trkpt lat="40.0946803" lon="15.3893897"><ele>196.75</ele><time>2026-05-02T07:35:36.932Z</time></trkpt><trkpt lat="40.0946272" lon="15.3895393"><ele>199.0</ele><time>2026-05-02T07:35:37.917Z</time></trkpt><trkpt lat="40.0945602" lon="15.3896803"><ele>199.0</ele><time>2026-05-02T07:35:38.904Z</time></trkpt><trkpt lat="40.0944671" lon="15.3898154"><ele>199.0</ele><time>2026-05-02T07:35:39.899Z</time></trkpt><trkpt lat="40.0943549" lon="15.3899194"><ele>199.0</ele><time>2026-05-02T07:35:40.922Z</time></trkpt><trkpt lat="40.0942646" lon="15.3900674"><ele>199.0</ele><time>2026-05-02T07:35:41.905Z</time></trkpt><trkpt lat="40.094197" lon="15.3902617"><ele>199.0</ele><time>2026-05-02T07:35:42.928Z</time></trkpt><trkpt lat="40.0941344" lon="15.3904514"><ele>199.0</ele><time>2026-05-02T07:35:43.926Z</time></trkpt><trkpt lat="40.0940533" lon="15.3906177"><ele>199.0</ele><time>2026-05-02T07:35:44.919Z</time></trkpt><trkpt lat="40.0939473" lon="15.39077"><ele>201.0</ele><time>2026-05-02T07:35:45.908Z</time></trkpt><trkpt lat="40.0938353" lon="15.3909059"><ele>203.0</ele><time>2026-05-02T07:35:46.92Z</time></trkpt><trkpt lat="40.0937363" lon="15.3910356"><ele>205.0</ele><time>2026-05-02T07:35:47.929Z</time></trkpt><trkpt lat="40.0936614" lon="15.3912001"><ele>207.0</ele><time>2026-05-02T07:35:48.915Z</time></trkpt><trkpt lat="40.0935956" lon="15.3913901"><ele>207.0</ele><time>2026-05-02T07:35:49.919Z</time></trkpt><trkpt lat="40.0935216" lon="15.3915869"><ele>207.0</ele><time>2026-05-02T07:35:50.93Z</time></trkpt><trkpt lat="40.093435" lon="15.3917685"><ele>207.0</ele><time>2026-05-02T07:35:51.931Z</time></trkpt><trkpt lat="40.0933508" lon="15.3919203"><ele>207.0</ele><time>2026-05-02T07:35:52.941Z</time></trkpt><trkpt lat="40.0932857" lon="15.3920625"><ele>207.0</ele><time>2026-05-02T07:35:53.919Z</time></trkpt><trkpt lat="40.0932364" lon="15.3922006"><ele>207.0</ele><time>2026-05-02T07:35:54.918Z</time></trkpt><trkpt lat="40.0932097" lon="15.3923512"><ele>207.0</ele><time>2026-05-02T07:35:55.919Z</time></trkpt><trkpt lat="40.093205" lon="15.3925308"><ele>206.5</ele><time>2026-05-02T07:35:56.921Z</time></trkpt><trkpt lat="40.0932098" lon="15.3927166"><ele>206.0</ele><time>2026-05-02T07:35:57.933Z</time></trkpt><trkpt lat="40.0932323" lon="15.3929065"><ele>205.5</ele><time>2026-05-02T07:35:58.933Z</time></trkpt><trkpt lat="40.0932751" lon="15.3930918"><ele>205.0</ele><time>2026-05-02T07:35:59.93Z</time></trkpt><trkpt lat="40.0933369" lon="15.3932695"><ele>205.0</ele><time>2026-05-02T07:36:00.924Z</time></trkpt><trkpt lat="40.0934177" lon="15.3934548"><ele>205.0</ele><time>2026-05-02T07:36:01.933Z</time></trkpt><trkpt lat="40.093506" lon="15.3936424"><ele>205.0</ele><time>2026-05-02T07:36:02.927Z</time></trkpt><trkpt lat="40.0935997" lon="15.3938409"><ele>207.33333333333331</ele><time>2026-05-02T07:36:03.925Z</time></trkpt><trkpt lat="40.0936979" lon="15.3940375"><ele>209.66666666666669</ele><time>2026-05-02T07:36:04.918Z</time></trkpt><trkpt lat="40.0937982" lon="15.3942355"><ele>212.0</ele><time>2026-05-02T07:36:05.927Z</time></trkpt><trkpt lat="40.0938915" lon="15.3944158"><ele>212.0</ele><time>2026-05-02T07:36:06.928Z</time></trkpt><trkpt lat="40.0939782" lon="15.394586"><ele>212.0</ele><time>2026-05-02T07:36:07.917Z</time></trkpt><trkpt lat="40.0940562" lon="15.3947417"><ele>212.0</ele><time>2026-05-02T07:36:08.926Z</time></trkpt><trkpt lat="40.0941109" lon="15.3948718"><ele>212.0</ele><time>2026-05-02T07:36:09.919Z</time></trkpt><trkpt lat="40.0941357" lon="15.3949932"><ele>211.33333333333334</ele><time>2026-05-02T07:36:10.925Z</time></trkpt><trkpt lat="40.0941471" lon="15.3951006"><ele>210.66666666666669</ele><time>2026-05-02T07:36:11.911Z</time></trkpt><trkpt lat="40.0941347" lon="15.3952052"><ele>210.0</ele><time>2026-05-02T07:36:12.929Z</time></trkpt><trkpt lat="40.0940985" lon="15.3952865"><ele>209.33333333333331</ele><time>2026-05-02T07:36:13.92Z</time></trkpt><trkpt lat="40.094028" lon="15.3953714"><ele>208.66666666666666</ele><time>2026-05-02T07:36:14.919Z</time></trkpt><trkpt lat="40.0939494" lon="15.3954597"><ele>208.0</ele><time>2026-05-02T07:36:15.922Z</time></trkpt><trkpt lat="40.0938591" lon="15.3955506"><ele>211.5</ele><time>2026-05-02T07:36:16.92Z</time></trkpt><trkpt lat="40.0937871" lon="15.3956623"><ele>215.0</ele><time>2026-05-02T07:36:17.928Z</time></trkpt><trkpt lat="40.0937259" lon="15.3958271"><ele>218.5</ele><time>2026-05-02T07:36:18.933Z</time></trkpt><trkpt lat="40.0936854" lon="15.3960026"><ele>222.0</ele><time>2026-05-02T07:36:19.928Z</time></trkpt><trkpt lat="40.0936575" lon="15.3961904"><ele>222.66666666666669</ele><time>2026-05-02T07:36:20.924Z</time></trkpt><trkpt lat="40.0936403" lon="15.396387"><ele>223.33333333333334</ele><time>2026-05-02T07:36:21.923Z</time></trkpt><trkpt lat="40.0936362" lon="15.3965934"><ele>224.0</ele><time>2026-05-02T07:36:22.926Z</time></trkpt><trkpt lat="40.0936537" lon="15.3968013"><ele>224.0</ele><time>2026-05-02T07:36:23.926Z</time></trkpt><trkpt lat="40.0936791" lon="15.3970117"><ele>224.0</ele><time>2026-05-02T07:36:24.924Z</time></trkpt><trkpt lat="40.0937008" lon="15.3972109"><ele>224.0</ele><time>2026-05-02T07:36:25.918Z</time></trkpt><trkpt lat="40.0937162" lon="15.3973897"><ele>224.25</ele><time>2026-05-02T07:36:26.929Z</time></trkpt><trkpt lat="40.0937474" lon="15.3975519"><ele>224.5</ele><time>2026-05-02T07:36:27.919Z</time></trkpt><trkpt lat="40.0938073" lon="15.3977181"><ele>224.75</ele><time>2026-05-02T07:36:28.931Z</time></trkpt><trkpt lat="40.0938781" lon="15.3978901"><ele>225.0</ele><time>2026-05-02T07:36:29.924Z</time></trkpt><trkpt lat="40.0939578" lon="15.3980718"><ele>225.33333333333331</ele><time>2026-05-02T07:36:30.93Z</time></trkpt><trkpt lat="40.0940442" lon="15.3982542"><ele>225.66666666666666</ele><time>2026-05-02T07:36:31.918Z</time></trkpt><trkpt lat="40.0941308" lon="15.3984402"><ele>226.0</ele><time>2026-05-02T07:36:32.918Z</time></trkpt><trkpt lat="40.0942135" lon="15.3986257"><ele>226.0</ele><time>2026-05-02T07:36:33.926Z</time></trkpt><trkpt lat="40.0942922" lon="15.3987985"><ele>226.0</ele><time>2026-05-02T07:36:34.934Z</time></trkpt><trkpt lat="40.0943594" lon="15.398952"><ele>226.0</ele><time>2026-05-02T07:36:35.923Z</time></trkpt><trkpt lat="40.0944154" lon="15.3991067"><ele>226.0</ele><time>2026-05-02T07:36:36.929Z</time></trkpt><trkpt lat="40.0944586" lon="15.3992694"><ele>226.0</ele><time>2026-05-02T07:36:37.923Z</time></trkpt><trkpt lat="40.0944956" lon="15.3994479"><ele>226.0</ele><time>2026-05-02T07:36:38.933Z</time></trkpt><trkpt lat="40.0945251" lon="15.3996275"><ele>226.0</ele><time>2026-05-02T07:36:39.906Z</time></trkpt><trkpt lat="40.0945581" lon="15.3997936"><ele>226.0</ele><time>2026-05-02T07:36:40.917Z</time></trkpt><trkpt lat="40.0945934" lon="15.399947"><ele>227.75</ele><time>2026-05-02T07:36:41.921Z</time></trkpt><trkpt lat="40.0946373" lon="15.4000993"><ele>229.5</ele><time>2026-05-02T07:36:42.917Z</time></trkpt><trkpt lat="40.0946917" lon="15.4002529"><ele>231.25</ele><time>2026-05-02T07:36:43.924Z</time></trkpt><trkpt lat="40.0947492" lon="15.4004117"><ele>233.0</ele><time>2026-05-02T07:36:44.925Z</time></trkpt><trkpt lat="40.0948007" lon="15.4005684"><ele>232.0</ele><time>2026-05-02T07:36:45.919Z</time></trkpt><trkpt lat="40.094846" lon="15.4007147"><ele>231.0</ele><time>2026-05-02T07:36:46.917Z</time></trkpt><trkpt lat="40.0948816" lon="15.4008433"><ele>230.0</ele><time>2026-05-02T07:36:47.928Z</time></trkpt><trkpt lat="40.0949122" lon="15.4009525"><ele>229.0</ele><time>2026-05-02T07:36:48.916Z</time></trkpt><trkpt lat="40.094936" lon="15.4010569"><ele>228.0</ele><time>2026-05-02T07:36:49.917Z</time></trkpt><trkpt lat="40.0949419" lon="15.4011698"><ele>228.0</ele><time>2026-05-02T07:36:50.925Z</time></trkpt><trkpt lat="40.0949331" lon="15.4012965"><ele>228.0</ele><time>2026-05-02T07:36:51.925Z</time></trkpt><trkpt lat="40.0949102" lon="15.4014368"><ele>228.0</ele><time>2026-05-02T07:36:52.927Z</time></trkpt><trkpt lat="40.0948879" lon="15.4015806"><ele>228.0</ele><time>2026-05-02T07:36:53.92Z</time></trkpt><trkpt lat="40.0948731" lon="15.4017298"><ele>228.0</ele><time>2026-05-02T07:36:54.939Z</time></trkpt><trkpt lat="40.094863" lon="15.4018711"><ele>230.83333333333334</ele><time>2026-05-02T07:36:55.917Z</time></trkpt><trkpt lat="40.0948486" lon="15.4019968"><ele>233.66666666666669</ele><time>2026-05-02T07:36:56.925Z</time></trkpt><trkpt lat="40.0948247" lon="15.4021022"><ele>236.5</ele><time>2026-05-02T07:36:57.922Z</time></trkpt><trkpt lat="40.0947831" lon="15.4021956"><ele>239.33333333333334</ele><time>2026-05-02T07:36:58.925Z</time></trkpt><trkpt lat="40.0947264" lon="15.4022817"><ele>242.16666666666669</ele><time>2026-05-02T07:36:59.927Z</time></trkpt><trkpt lat="40.0946654" lon="15.4023574"><ele>245.0</ele><time>2026-05-02T07:37:00.928Z</time></trkpt><trkpt lat="40.0945992" lon="15.4024375"><ele>245.66666666666669</ele><time>2026-05-02T07:37:01.921Z</time></trkpt><trkpt lat="40.0945384" lon="15.4025284"><ele>246.33333333333334</ele><time>2026-05-02T07:37:02.925Z</time></trkpt><trkpt lat="40.0944874" lon="15.4026306"><ele>247.0</ele><time>2026-05-02T07:37:03.92Z</time></trkpt><trkpt lat="40.0944609" lon="15.4027342"><ele>247.66666666666669</ele><time>2026-05-02T07:37:04.929Z</time></trkpt><trkpt lat="40.0944425" lon="15.4028327"><ele>248.33333333333334</ele><time>2026-05-02T07:37:05.912Z</time></trkpt><trkpt lat="40.0944409" lon="15.4029449"><ele>249.0</ele><time>2026-05-02T07:37:06.942Z</time></trkpt><trkpt lat="40.0944566" lon="15.4030667"><ele>249.39999999999998</ele><time>2026-05-02T07:37:07.919Z</time></trkpt><trkpt lat="40.0944808" lon="15.4031954"><ele>249.79999999999998</ele><time>2026-05-02T07:37:08.929Z</time></trkpt><trkpt lat="40.0944954" lon="15.4033232"><ele>250.20000000000002</ele><time>2026-05-02T07:37:09.927Z</time></trkpt><trkpt lat="40.0944835" lon="15.4034359"><ele>250.60000000000002</ele><time>2026-05-02T07:37:10.937Z</time></trkpt><trkpt lat="40.0944499" lon="15.4035502"><ele>251.0</ele><time>2026-05-02T07:37:11.934Z</time></trkpt><trkpt lat="40.0944087" lon="15.4036697"><ele>251.0</ele><time>2026-05-02T07:37:12.926Z</time></trkpt><trkpt lat="40.0943631" lon="15.4037933"><ele>251.00000000000003</ele><time>2026-05-02T07:37:13.931Z</time></trkpt><trkpt lat="40.0943145" lon="15.403916"><ele>251.00000000000003</ele><time>2026-05-02T07:37:14.924Z</time></trkpt><trkpt lat="40.0942724" lon="15.4040316"><ele>251.0</ele><time>2026-05-02T07:37:15.926Z</time></trkpt><trkpt lat="40.0942465" lon="15.4041362"><ele>251.0</ele><time>2026-05-02T07:37:16.93Z</time></trkpt><trkpt lat="40.0942364" lon="15.4042342"><ele>251.16666666666669</ele><time>2026-05-02T07:37:17.924Z</time></trkpt><trkpt lat="40.0942303" lon="15.4043293"><ele>251.33333333333334</ele><time>2026-05-02T07:37:18.906Z</time></trkpt><trkpt lat="40.0942275" lon="15.4044182"><ele>251.5</ele><time>2026-05-02T07:37:19.917Z</time></trkpt><trkpt lat="40.0942516" lon="15.4045668"><ele>251.66666666666669</ele><time>2026-05-02T07:37:21.92Z</time></trkpt><trkpt lat="40.0942834" lon="15.4046915"><ele>251.83333333333334</ele><time>2026-05-02T07:37:23.927Z</time></trkpt><trkpt lat="40.0943049" lon="15.4047802"><ele>252.0</ele><time>2026-05-02T07:37:25.931Z</time></trkpt><trkpt lat="40.0943389" lon="15.404873"><ele>252.39999999999998</ele><time>2026-05-02T07:37:29.93Z</time></trkpt><trkpt lat="40.094395" lon="15.4049564"><ele>252.79999999999998</ele><time>2026-05-02T07:37:32.929Z</time></trkpt><trkpt lat="40.0944297" lon="15.4050578"><ele>253.2</ele><time>2026-05-02T07:37:35.915Z</time></trkpt><trkpt lat="40.0945047" lon="15.4051194"><ele>253.6</ele><time>2026-05-02T07:37:37.928Z</time></trkpt><trkpt lat="40.0946255" lon="15.4051277"><ele>254.0</ele><time>2026-05-02T07:37:39.924Z</time></trkpt><trkpt lat="40.0947165" lon="15.4051649"><ele>254.00000000000003</ele><time>2026-05-02T07:37:41.922Z</time></trkpt><trkpt lat="40.0947606" lon="15.40525"><ele>254.0</ele><time>2026-05-02T07:37:42.924Z</time></trkpt><trkpt lat="40.0947774" lon="15.405344"><ele>254.0</ele><time>2026-05-02T07:37:43.924Z</time></trkpt><trkpt lat="40.0947815" lon="15.4054352"><ele>254.0</ele><time>2026-05-02T07:37:44.926Z</time></trkpt><trkpt lat="40.0947837" lon="15.4055386"><ele>254.00000000000003</ele><time>2026-05-02T07:37:45.918Z</time></trkpt><trkpt lat="40.0947832" lon="15.4056479"><ele>254.0</ele><time>2026-05-02T07:37:46.931Z</time></trkpt><trkpt lat="40.0947826" lon="15.4057607"><ele>254.57142857142858</ele><time>2026-05-02T07:37:47.921Z</time></trkpt><trkpt lat="40.0947829" lon="15.4058737"><ele>255.1428571428571</ele><time>2026-05-02T07:37:48.927Z</time></trkpt><trkpt lat="40.0947761" lon="15.4059739"><ele>255.7142857142857</ele><time>2026-05-02T07:37:49.917Z</time></trkpt><trkpt lat="40.094769" lon="15.4060657"><ele>256.2857142857143</ele><time>2026-05-02T07:37:50.932Z</time></trkpt><trkpt lat="40.0947679" lon="15.4061505"><ele>256.85714285714283</ele><time>2026-05-02T07:37:51.922Z</time></trkpt><trkpt lat="40.0947596" lon="15.4062349"><ele>257.4285714285714</ele><time>2026-05-02T07:37:52.926Z</time></trkpt><trkpt lat="40.0947424" lon="15.4063222"><ele>258.0</ele><time>2026-05-02T07:37:53.925Z</time></trkpt><trkpt lat="40.094708" lon="15.4064093"><ele>258.0</ele><time>2026-05-02T07:37:54.925Z</time></trkpt><trkpt lat="40.0946492" lon="15.4064983"><ele>258.0</ele><time>2026-05-02T07:37:55.925Z</time></trkpt><trkpt lat="40.0945848" lon="15.4065796"><ele>258.0</ele><time>2026-05-02T07:37:56.922Z</time></trkpt><trkpt lat="40.0945282" lon="15.4066469"><ele>258.0</ele><time>2026-05-02T07:37:57.927Z</time></trkpt><trkpt lat="40.0944614" lon="15.4067578"><ele>258.0</ele><time>2026-05-02T07:37:59.922Z</time></trkpt><trkpt lat="40.0944511" lon="15.4068926"><ele>258.0</ele><time>2026-05-02T07:38:01.92Z</time></trkpt><trkpt lat="40.0944939" lon="15.407018"><ele>258.0</ele><time>2026-05-02T07:38:03.923Z</time></trkpt><trkpt lat="40.0945423" lon="15.4070931"><ele>258.0</ele><time>2026-05-02T07:38:04.917Z</time></trkpt><trkpt lat="40.094599" lon="15.4071862"><ele>258.0</ele><time>2026-05-02T07:38:05.924Z</time></trkpt><trkpt lat="40.0946695" lon="15.4072884"><ele>258.0</ele><time>2026-05-02T07:38:06.927Z</time></trkpt><trkpt lat="40.0947459" lon="15.4073897"><ele>259.6</ele><time>2026-05-02T07:38:07.928Z</time></trkpt><trkpt lat="40.0948314" lon="15.4074764"><ele>261.20000000000005</ele><time>2026-05-02T07:38:08.931Z</time></trkpt><trkpt lat="40.09493" lon="15.407539"><ele>262.8</ele><time>2026-05-02T07:38:09.918Z</time></trkpt><trkpt lat="40.0950335" lon="15.407589"><ele>264.40000000000003</ele><time>2026-05-02T07:38:10.92Z</time></trkpt><trkpt lat="40.095131" lon="15.4076354"><ele>266.0</ele><time>2026-05-02T07:38:11.926Z</time></trkpt><trkpt lat="40.0952003" lon="15.4076841"><ele>264.6</ele><time>2026-05-02T07:38:12.924Z</time></trkpt><trkpt lat="40.0952589" lon="15.4077977"><ele>263.20000000000005</ele><time>2026-05-02T07:38:14.926Z</time></trkpt><trkpt lat="40.095205" lon="15.4079427"><ele>261.79999999999995</ele><time>2026-05-02T07:38:16.938Z</time></trkpt><trkpt lat="40.0951537" lon="15.4080271"><ele>260.4</ele><time>2026-05-02T07:38:17.925Z</time></trkpt><trkpt lat="40.0950998" lon="15.4081389"><ele>259.0</ele><time>2026-05-02T07:38:18.928Z</time></trkpt><trkpt lat="40.0950345" lon="15.4082659"><ele>259.0</ele><time>2026-05-02T07:38:19.912Z</time></trkpt><trkpt lat="40.0949709" lon="15.4084036"><ele>259.0</ele><time>2026-05-02T07:38:20.93Z</time></trkpt><trkpt lat="40.0949107" lon="15.4085547"><ele>259.0</ele><time>2026-05-02T07:38:21.911Z</time></trkpt><trkpt lat="40.094844" lon="15.4087158"><ele>259.0</ele><time>2026-05-02T07:38:22.925Z</time></trkpt><trkpt lat="40.0947735" lon="15.4088533"><ele>263.3333333333333</ele><time>2026-05-02T07:38:23.927Z</time></trkpt><trkpt lat="40.0947171" lon="15.4089727"><ele>267.66666666666663</ele><time>2026-05-02T07:38:24.929Z</time></trkpt><trkpt lat="40.0946812" lon="15.4090807"><ele>272.0</ele><time>2026-05-02T07:38:25.919Z</time></trkpt><trkpt lat="40.0946697" lon="15.4091781"><ele>276.3333333333333</ele><time>2026-05-02T07:38:26.922Z</time></trkpt><trkpt lat="40.0946842" lon="15.4092651"><ele>280.6666666666667</ele><time>2026-05-02T07:38:27.922Z</time></trkpt><trkpt lat="40.094733" lon="15.4093421"><ele>285.0</ele><time>2026-05-02T07:38:28.93Z</time></trkpt><trkpt lat="40.0948109" lon="15.4093912"><ele>285.0</ele><time>2026-05-02T07:38:29.916Z</time></trkpt><trkpt lat="40.0949105" lon="15.4094215"><ele>285.0</ele><time>2026-05-02T07:38:30.938Z</time></trkpt><trkpt lat="40.0950226" lon="15.4094438"><ele>285.0</ele><time>2026-05-02T07:38:31.912Z</time></trkpt><trkpt lat="40.0951415" lon="15.4094722"><ele>285.0</ele><time>2026-05-02T07:38:32.921Z</time></trkpt><trkpt lat="40.0952641" lon="15.409508"><ele>283.4</ele><time>2026-05-02T07:38:33.922Z</time></trkpt><trkpt lat="40.0953877" lon="15.4095409"><ele>281.8</ele><time>2026-05-02T07:38:34.915Z</time></trkpt><trkpt lat="40.095502" lon="15.4095683"><ele>280.2</ele><time>2026-05-02T07:38:35.921Z</time></trkpt><trkpt lat="40.09559" lon="15.4095969"><ele>278.6</ele><time>2026-05-02T07:38:36.933Z</time></trkpt><trkpt lat="40.0956554" lon="15.4096355"><ele>277.0</ele><time>2026-05-02T07:38:37.923Z</time></trkpt><trkpt lat="40.0957029" lon="15.4097661"><ele>277.0</ele><time>2026-05-02T07:38:39.933Z</time></trkpt><trkpt lat="40.0956974" lon="15.4098521"><ele>277.0</ele><time>2026-05-02T07:38:40.919Z</time></trkpt><trkpt lat="40.0956488" lon="15.4099609"><ele>277.0</ele><time>2026-05-02T07:38:41.919Z</time></trkpt><trkpt lat="40.0956031" lon="15.4100752"><ele>277.0</ele><time>2026-05-02T07:38:42.923Z</time></trkpt><trkpt lat="40.0955677" lon="15.4102166"><ele>277.0</ele><time>2026-05-02T07:38:43.924Z</time></trkpt><trkpt lat="40.0955609" lon="15.4103812"><ele>278.5</ele><time>2026-05-02T07:38:44.928Z</time></trkpt><trkpt lat="40.095549" lon="15.4105282"><ele>280.0</ele><time>2026-05-02T07:38:45.916Z</time></trkpt><trkpt lat="40.0955231" lon="15.4106553"><ele>281.5</ele><time>2026-05-02T07:38:46.929Z</time></trkpt><trkpt lat="40.0954957" lon="15.4107596"><ele>283.0</ele><time>2026-05-02T07:38:47.917Z</time></trkpt><trkpt lat="40.0954988" lon="15.4108492"><ele>284.5</ele><time>2026-05-02T07:38:48.924Z</time></trkpt><trkpt lat="40.0955407" lon="15.4109302"><ele>286.0</ele><time>2026-05-02T07:38:49.909Z</time></trkpt><trkpt lat="40.0956103" lon="15.4109916"><ele>286.0</ele><time>2026-05-02T07:38:50.925Z</time></trkpt><trkpt lat="40.0957169" lon="15.4110432"><ele>286.0</ele><time>2026-05-02T07:38:51.923Z</time></trkpt><trkpt lat="40.0958231" lon="15.4110894"><ele>286.0</ele><time>2026-05-02T07:38:52.919Z</time></trkpt><trkpt lat="40.0959153" lon="15.4111498"><ele>286.0</ele><time>2026-05-02T07:38:53.929Z</time></trkpt><trkpt lat="40.0959849" lon="15.4112263"><ele>286.0</ele><time>2026-05-02T07:38:54.925Z</time></trkpt><trkpt lat="40.0960285" lon="15.4113164"><ele>282.6</ele><time>2026-05-02T07:38:55.926Z</time></trkpt><trkpt lat="40.0960451" lon="15.4114243"><ele>279.20000000000005</ele><time>2026-05-02T07:38:56.918Z</time></trkpt><trkpt lat="40.0960279" lon="15.4115527"><ele>275.79999999999995</ele><time>2026-05-02T07:38:57.926Z</time></trkpt><trkpt lat="40.0960018" lon="15.4116781"><ele>272.4</ele><time>2026-05-02T07:38:58.921Z</time></trkpt><trkpt lat="40.0959636" lon="15.4117993"><ele>269.0</ele><time>2026-05-02T07:38:59.922Z</time></trkpt><trkpt lat="40.0959442" lon="15.4119251"><ele>269.0</ele><time>2026-05-02T07:39:00.933Z</time></trkpt><trkpt lat="40.0959571" lon="15.4120609"><ele>269.0</ele><time>2026-05-02T07:39:01.91Z</time></trkpt><trkpt lat="40.0959831" lon="15.4121868"><ele>269.0</ele><time>2026-05-02T07:39:02.933Z</time></trkpt><trkpt lat="40.0959865" lon="15.4122821"><ele>269.0</ele><time>2026-05-02T07:39:03.928Z</time></trkpt><trkpt lat="40.0959502" lon="15.4123644"><ele>269.0</ele><time>2026-05-02T07:39:04.926Z</time></trkpt><trkpt lat="40.0958858" lon="15.4124304"><ele>269.0</ele><time>2026-05-02T07:39:05.93Z</time></trkpt><trkpt lat="40.0957946" lon="15.4124869"><ele>267.75</ele><time>2026-05-02T07:39:06.922Z</time></trkpt><trkpt lat="40.0956936" lon="15.4125369"><ele>266.5</ele><time>2026-05-02T07:39:07.919Z</time></trkpt><trkpt lat="40.0955709" lon="15.4125666"><ele>265.25</ele><time>2026-05-02T07:39:08.931Z</time></trkpt><trkpt lat="40.0954223" lon="15.4125784"><ele>264.0</ele><time>2026-05-02T07:39:09.913Z</time></trkpt><trkpt lat="40.0952701" lon="15.4126026"><ele>264.0</ele><time>2026-05-02T07:39:10.95Z</time></trkpt><trkpt lat="40.0951265" lon="15.4126368"><ele>264.0</ele><time>2026-05-02T07:39:11.928Z</time></trkpt><trkpt lat="40.0950052" lon="15.4126859"><ele>264.0</ele><time>2026-05-02T07:39:12.92Z</time></trkpt><trkpt lat="40.094923" lon="15.4127441"><ele>264.0</ele><time>2026-05-02T07:39:13.918Z</time></trkpt><trkpt lat="40.0948631" lon="15.4128176"><ele>264.0</ele><time>2026-05-02T07:39:14.929Z</time></trkpt><trkpt lat="40.0948211" lon="15.4129187"><ele>263.75</ele><time>2026-05-02T07:39:15.924Z</time></trkpt><trkpt lat="40.0947957" lon="15.4130662"><ele>263.5</ele><time>2026-05-02T07:39:16.928Z</time></trkpt><trkpt lat="40.094794" lon="15.4132391"><ele>263.25</ele><time>2026-05-02T07:39:17.914Z</time></trkpt><trkpt lat="40.0947928" lon="15.4134275"><ele>263.0</ele><time>2026-05-02T07:39:18.931Z</time></trkpt><trkpt lat="40.0947838" lon="15.4136325"><ele>264.6666666666667</ele><time>2026-05-02T07:39:19.909Z</time></trkpt><trkpt lat="40.0947757" lon="15.4138438"><ele>266.3333333333333</ele><time>2026-05-02T07:39:20.939Z</time></trkpt><trkpt lat="40.0947727" lon="15.4140584"><ele>268.0</ele><time>2026-05-02T07:39:21.915Z</time></trkpt><trkpt lat="40.0947687" lon="15.4142748"><ele>268.0</ele><time>2026-05-02T07:39:22.923Z</time></trkpt><trkpt lat="40.0947578" lon="15.4144851"><ele>268.0</ele><time>2026-05-02T07:39:23.916Z</time></trkpt><trkpt lat="40.0947544" lon="15.4146833"><ele>268.0</ele><time>2026-05-02T07:39:24.925Z</time></trkpt><trkpt lat="40.0947488" lon="15.4148649"><ele>268.5</ele><time>2026-05-02T07:39:25.914Z</time></trkpt><trkpt lat="40.0947468" lon="15.4150515"><ele>269.0</ele><time>2026-05-02T07:39:26.925Z</time></trkpt><trkpt lat="40.0947498" lon="15.4152413"><ele>269.5</ele><time>2026-05-02T07:39:27.917Z</time></trkpt><trkpt lat="40.0947568" lon="15.4154365"><ele>270.0</ele><time>2026-05-02T07:39:28.924Z</time></trkpt><trkpt lat="40.0947689" lon="15.4156301"><ele>271.6666666666667</ele><time>2026-05-02T07:39:29.908Z</time></trkpt><trkpt lat="40.0947858" lon="15.4158287"><ele>273.33333333333337</ele><time>2026-05-02T07:39:30.92Z</time></trkpt><trkpt lat="40.0947946" lon="15.4160386"><ele>275.0</ele><time>2026-05-02T07:39:31.919Z</time></trkpt><trkpt lat="40.094783" lon="15.4162561"><ele>275.33333333333337</ele><time>2026-05-02T07:39:32.933Z</time></trkpt><trkpt lat="40.0947609" lon="15.4164774"><ele>275.6666666666667</ele><time>2026-05-02T07:39:33.92Z</time></trkpt><trkpt lat="40.0947265" lon="15.4166996"><ele>276.0</ele><time>2026-05-02T07:39:34.924Z</time></trkpt><trkpt lat="40.0946899" lon="15.4169303"><ele>277.3333333333333</ele><time>2026-05-02T07:39:35.923Z</time></trkpt><trkpt lat="40.0946602" lon="15.4171631"><ele>278.66666666666663</ele><time>2026-05-02T07:39:36.927Z</time></trkpt><trkpt lat="40.094642" lon="15.4174012"><ele>280.0</ele><time>2026-05-02T07:39:37.915Z</time></trkpt><trkpt lat="40.094624" lon="15.4176438"><ele>280.0</ele><time>2026-05-02T07:39:38.933Z</time></trkpt><trkpt lat="40.0945973" lon="15.4178822"><ele>280.0</ele><time>2026-05-02T07:39:39.919Z</time></trkpt><trkpt lat="40.0945697" lon="15.4181031"><ele>280.0</ele><time>2026-05-02T07:39:40.923Z</time></trkpt><trkpt lat="40.0945369" lon="15.4182969"><ele>280.25</ele><time>2026-05-02T07:39:41.927Z</time></trkpt><trkpt lat="40.0945006" lon="15.4184741"><ele>280.5</ele><time>2026-05-02T07:39:42.93Z</time></trkpt><trkpt lat="40.094482" lon="15.4186502"><ele>280.75</ele><time>2026-05-02T07:39:43.922Z</time></trkpt><trkpt lat="40.0944747" lon="15.4188478"><ele>281.0</ele><time>2026-05-02T07:39:44.933Z</time></trkpt><trkpt lat="40.0944974" lon="15.4190576"><ele>281.6666666666667</ele><time>2026-05-02T07:39:45.928Z</time></trkpt><trkpt lat="40.0945366" lon="15.4192701"><ele>282.3333333333333</ele><time>2026-05-02T07:39:46.927Z</time></trkpt><trkpt lat="40.0945895" lon="15.4194797"><ele>283.0</ele><time>2026-05-02T07:39:47.913Z</time></trkpt><trkpt lat="40.0946218" lon="15.4196641"><ele>284.0</ele><time>2026-05-02T07:39:48.928Z</time></trkpt><trkpt lat="40.094646" lon="15.4198327"><ele>285.0</ele><time>2026-05-02T07:39:49.931Z</time></trkpt><trkpt lat="40.0946608" lon="15.4199862"><ele>286.0</ele><time>2026-05-02T07:39:50.929Z</time></trkpt><trkpt lat="40.0946725" lon="15.4201287"><ele>287.0</ele><time>2026-05-02T07:39:51.924Z</time></trkpt><trkpt lat="40.0946997" lon="15.420264"><ele>287.0</ele><time>2026-05-02T07:39:52.924Z</time></trkpt><trkpt lat="40.094757" lon="15.4203941"><ele>287.0</ele><time>2026-05-02T07:39:53.926Z</time></trkpt><trkpt lat="40.0948458" lon="15.4205014"><ele>287.0</ele><time>2026-05-02T07:39:54.928Z</time></trkpt><trkpt lat="40.0949521" lon="15.42059"><ele>287.0</ele><time>2026-05-02T07:39:55.915Z</time></trkpt><trkpt lat="40.0950378" lon="15.4206732"><ele>285.83333333333337</ele><time>2026-05-02T07:39:56.915Z</time></trkpt><trkpt lat="40.0950834" lon="15.4207385"><ele>284.6666666666667</ele><time>2026-05-02T07:39:57.915Z</time></trkpt><trkpt lat="40.0951039" lon="15.4208269"><ele>283.5</ele><time>2026-05-02T07:39:58.927Z</time></trkpt><trkpt lat="40.0951005" lon="15.4209453"><ele>282.3333333333333</ele><time>2026-05-02T07:39:59.919Z</time></trkpt><trkpt lat="40.0950823" lon="15.4210755"><ele>281.16666666666663</ele><time>2026-05-02T07:40:00.925Z</time></trkpt><trkpt lat="40.0950763" lon="15.4212074"><ele>280.0</ele><time>2026-05-02T07:40:01.916Z</time></trkpt><trkpt lat="40.0951108" lon="15.4213467"><ele>280.0</ele><time>2026-05-02T07:40:02.946Z</time></trkpt><trkpt lat="40.0951744" lon="15.4214971"><ele>280.0</ele><time>2026-05-02T07:40:03.924Z</time></trkpt><trkpt lat="40.0952399" lon="15.4216528"><ele>280.0</ele><time>2026-05-02T07:40:04.927Z</time></trkpt><trkpt lat="40.0952904" lon="15.4218014"><ele>280.0</ele><time>2026-05-02T07:40:05.921Z</time></trkpt><trkpt lat="40.0953243" lon="15.4219507"><ele>280.0</ele><time>2026-05-02T07:40:06.919Z</time></trkpt><trkpt lat="40.0953416" lon="15.4221046"><ele>280.0</ele><time>2026-05-02T07:40:07.918Z</time></trkpt><trkpt lat="40.0953423" lon="15.4222715"><ele>280.0</ele><time>2026-05-02T07:40:08.926Z</time></trkpt><trkpt lat="40.0953239" lon="15.4224471"><ele>280.0</ele><time>2026-05-02T07:40:09.909Z</time></trkpt><trkpt lat="40.0952916" lon="15.4226247"><ele>281.66666666666663</ele><time>2026-05-02T07:40:10.929Z</time></trkpt><trkpt lat="40.0952595" lon="15.4228149"><ele>283.3333333333333</ele><time>2026-05-02T07:40:11.921Z</time></trkpt><trkpt lat="40.0952385" lon="15.4230189"><ele>285.0</ele><time>2026-05-02T07:40:12.929Z</time></trkpt><trkpt lat="40.0952249" lon="15.4232286"><ele>285.2</ele><time>2026-05-02T07:40:13.923Z</time></trkpt><trkpt lat="40.0952221" lon="15.4234102"><ele>285.4</ele><time>2026-05-02T07:40:14.929Z</time></trkpt><trkpt lat="40.0952309" lon="15.4235433"><ele>285.6</ele><time>2026-05-02T07:40:15.928Z</time></trkpt><trkpt lat="40.0952398" lon="15.4236566"><ele>285.8</ele><time>2026-05-02T07:40:16.922Z</time></trkpt><trkpt lat="40.0952288" lon="15.4237612"><ele>286.0</ele><time>2026-05-02T07:40:17.919Z</time></trkpt><trkpt lat="40.0951818" lon="15.4238773"><ele>286.0</ele><time>2026-05-02T07:40:18.925Z</time></trkpt><trkpt lat="40.0951047" lon="15.4239864"><ele>286.0</ele><time>2026-05-02T07:40:19.907Z</time></trkpt><trkpt lat="40.0950237" lon="15.4241141"><ele>286.0</ele><time>2026-05-02T07:40:20.91Z</time></trkpt><trkpt lat="40.0949422" lon="15.424261"><ele>286.0</ele><time>2026-05-02T07:40:21.922Z</time></trkpt><trkpt lat="40.0948838" lon="15.424431"><ele>288.75</ele><time>2026-05-02T07:40:22.918Z</time></trkpt><trkpt lat="40.094841" lon="15.4245998"><ele>291.5</ele><time>2026-05-02T07:40:23.917Z</time></trkpt><trkpt lat="40.0947984" lon="15.4247411"><ele>294.25</ele><time>2026-05-02T07:40:24.926Z</time></trkpt><trkpt lat="40.0947249" lon="15.4248582"><ele>297.0</ele><time>2026-05-02T07:40:25.923Z</time></trkpt><trkpt lat="40.0946274" lon="15.4249674"><ele>297.0</ele><time>2026-05-02T07:40:26.921Z</time></trkpt><trkpt lat="40.0945353" lon="15.4250602"><ele>297.0</ele><time>2026-05-02T07:40:27.926Z</time></trkpt><trkpt lat="40.0944765" lon="15.4251887"><ele>297.0</ele><time>2026-05-02T07:40:28.926Z</time></trkpt><trkpt lat="40.0944515" lon="15.4253329"><ele>297.0</ele><time>2026-05-02T07:40:29.921Z</time></trkpt><trkpt lat="40.0944612" lon="15.4254921"><ele>296.75</ele><time>2026-05-02T07:40:30.936Z</time></trkpt><trkpt lat="40.0944829" lon="15.4256699"><ele>296.5</ele><time>2026-05-02T07:40:31.922Z</time></trkpt><trkpt lat="40.0945079" lon="15.4258574"><ele>296.25</ele><time>2026-05-02T07:40:32.933Z</time></trkpt><trkpt lat="40.0945356" lon="15.4260618"><ele>296.0</ele><time>2026-05-02T07:40:33.924Z</time></trkpt><trkpt lat="40.0945695" lon="15.42627"><ele>296.25</ele><time>2026-05-02T07:40:34.922Z</time></trkpt><trkpt lat="40.0945877" lon="15.4264636"><ele>296.5</ele><time>2026-05-02T07:40:35.921Z</time></trkpt><trkpt lat="40.0945848" lon="15.4266426"><ele>296.75</ele><time>2026-05-02T07:40:36.917Z</time></trkpt><trkpt lat="40.0945754" lon="15.4267917"><ele>297.0</ele><time>2026-05-02T07:40:37.919Z</time></trkpt><trkpt lat="40.0945881" lon="15.4269334"><ele>297.0</ele><time>2026-05-02T07:40:38.923Z</time></trkpt><trkpt lat="40.0946311" lon="15.4270686"><ele>297.0</ele><time>2026-05-02T07:40:39.927Z</time></trkpt><trkpt lat="40.0947143" lon="15.4271939"><ele>297.0</ele><time>2026-05-02T07:40:40.921Z</time></trkpt><trkpt lat="40.0948036" lon="15.4273217"><ele>297.0</ele><time>2026-05-02T07:40:41.924Z</time></trkpt><trkpt lat="40.0948767" lon="15.4274291"><ele>298.0</ele><time>2026-05-02T07:40:42.913Z</time></trkpt><trkpt lat="40.0949152" lon="15.4275271"><ele>299.0</ele><time>2026-05-02T07:40:43.917Z</time></trkpt><trkpt lat="40.0949163" lon="15.4276109"><ele>300.0</ele><time>2026-05-02T07:40:44.928Z</time></trkpt><trkpt lat="40.0948947" lon="15.4276929"><ele>301.0</ele><time>2026-05-02T07:40:45.92Z</time></trkpt><trkpt lat="40.0948337" lon="15.4277577"><ele>302.0</ele><time>2026-05-02T07:40:46.925Z</time></trkpt><trkpt lat="40.0947292" lon="15.4277869"><ele>303.0</ele><time>2026-05-02T07:40:47.91Z</time></trkpt><trkpt lat="40.094622" lon="15.4277993"><ele>303.0</ele><time>2026-05-02T07:40:48.92Z</time></trkpt><trkpt lat="40.0945213" lon="15.4278378"><ele>303.0</ele><time>2026-05-02T07:40:49.918Z</time></trkpt><trkpt lat="40.094418" lon="15.4279093"><ele>303.0</ele><time>2026-05-02T07:40:50.918Z</time></trkpt><trkpt lat="40.094295" lon="15.4280023"><ele>303.0</ele><time>2026-05-02T07:40:51.912Z</time></trkpt><trkpt lat="40.0941787" lon="15.4280855"><ele>305.4</ele><time>2026-05-02T07:40:52.911Z</time></trkpt><trkpt lat="40.094078" lon="15.4281469"><ele>307.8</ele><time>2026-05-02T07:40:53.919Z</time></trkpt><trkpt lat="40.0939979" lon="15.428211"><ele>310.2</ele><time>2026-05-02T07:40:54.922Z</time></trkpt><trkpt lat="40.0939466" lon="15.4282902"><ele>312.6</ele><time>2026-05-02T07:40:55.926Z</time></trkpt><trkpt lat="40.0939192" lon="15.4284099"><ele>315.0</ele><time>2026-05-02T07:40:56.918Z</time></trkpt><trkpt lat="40.0939202" lon="15.4285388"><ele>315.0</ele><time>2026-05-02T07:40:57.925Z</time></trkpt><trkpt lat="40.0939575" lon="15.4286651"><ele>315.0</ele><time>2026-05-02T07:40:58.931Z</time></trkpt><trkpt lat="40.094025" lon="15.4287996"><ele>315.0</ele><time>2026-05-02T07:40:59.925Z</time></trkpt><trkpt lat="40.0941043" lon="15.4289403"><ele>315.0</ele><time>2026-05-02T07:41:00.923Z</time></trkpt><trkpt lat="40.0941958" lon="15.4290855"><ele>314.25</ele><time>2026-05-02T07:41:01.922Z</time></trkpt><trkpt lat="40.0942956" lon="15.4292339"><ele>313.5</ele><time>2026-05-02T07:41:02.934Z</time></trkpt><trkpt lat="40.0943953" lon="15.4293814"><ele>312.75</ele><time>2026-05-02T07:41:03.922Z</time></trkpt><trkpt lat="40.0944806" lon="15.4295307"><ele>312.0</ele><time>2026-05-02T07:41:04.931Z</time></trkpt><trkpt lat="40.0945457" lon="15.4296902"><ele>312.0</ele><time>2026-05-02T07:41:05.921Z</time></trkpt><trkpt lat="40.0945923" lon="15.4298655"><ele>312.0</ele><time>2026-05-02T07:41:06.929Z</time></trkpt><trkpt lat="40.0946272" lon="15.4300578"><ele>312.0</ele><time>2026-05-02T07:41:07.918Z</time></trkpt><trkpt lat="40.0946557" lon="15.4302486"><ele>312.0</ele><time>2026-05-02T07:41:08.917Z</time></trkpt><trkpt lat="40.0946658" lon="15.4304158"><ele>312.6</ele><time>2026-05-02T07:41:09.912Z</time></trkpt><trkpt lat="40.0946682" lon="15.4305629"><ele>313.2</ele><time>2026-05-02T07:41:10.916Z</time></trkpt><trkpt lat="40.0946585" lon="15.4307035"><ele>313.8</ele><time>2026-05-02T07:41:11.922Z</time></trkpt><trkpt lat="40.0946213" lon="15.4308269"><ele>314.4</ele><time>2026-05-02T07:41:12.924Z</time></trkpt><trkpt lat="40.0945494" lon="15.4309402"><ele>315.0</ele><time>2026-05-02T07:41:13.915Z</time></trkpt><trkpt lat="40.0944671" lon="15.43105"><ele>315.0</ele><time>2026-05-02T07:41:14.933Z</time></trkpt><trkpt lat="40.0943839" lon="15.4311767"><ele>315.0</ele><time>2026-05-02T07:41:15.922Z</time></trkpt><trkpt lat="40.0943207" lon="15.4313442"><ele>315.0</ele><time>2026-05-02T07:41:16.928Z</time></trkpt><trkpt lat="40.0942798" lon="15.4315224"><ele>315.0</ele><time>2026-05-02T07:41:17.909Z</time></trkpt><trkpt lat="40.0942476" lon="15.4316727"><ele>315.0</ele><time>2026-05-02T07:41:18.924Z</time></trkpt><trkpt lat="40.0942141" lon="15.4317978"><ele>315.0</ele><time>2026-05-02T07:41:19.916Z</time></trkpt><trkpt lat="40.0941983" lon="15.4319104"><ele>315.0</ele><time>2026-05-02T07:41:20.924Z</time></trkpt><trkpt lat="40.0942048" lon="15.4320134"><ele>315.0</ele><time>2026-05-02T07:41:21.919Z</time></trkpt><trkpt lat="40.0942304" lon="15.4321189"><ele>315.0</ele><time>2026-05-02T07:41:22.922Z</time></trkpt><trkpt lat="40.094283" lon="15.4322117"><ele>315.0</ele><time>2026-05-02T07:41:23.928Z</time></trkpt><trkpt lat="40.0943667" lon="15.4322941"><ele>316.2</ele><time>2026-05-02T07:41:24.918Z</time></trkpt><trkpt lat="40.0944626" lon="15.4323771"><ele>317.4</ele><time>2026-05-02T07:41:25.922Z</time></trkpt><trkpt lat="40.0945658" lon="15.4324442"><ele>318.6</ele><time>2026-05-02T07:41:26.918Z</time></trkpt><trkpt lat="40.0946676" lon="15.4324686"><ele>319.8</ele><time>2026-05-02T07:41:27.92Z</time></trkpt><trkpt lat="40.0947745" lon="15.4324475"><ele>321.0</ele><time>2026-05-02T07:41:28.926Z</time></trkpt><trkpt lat="40.0948814" lon="15.4323793"><ele>320.25</ele><time>2026-05-02T07:41:29.919Z</time></trkpt><trkpt lat="40.0949947" lon="15.4323165"><ele>319.5</ele><time>2026-05-02T07:41:30.92Z</time></trkpt><trkpt lat="40.0951096" lon="15.4322787"><ele>318.75</ele><time>2026-05-02T07:41:31.917Z</time></trkpt><trkpt lat="40.0952266" lon="15.432274"><ele>318.0</ele><time>2026-05-02T07:41:32.932Z</time></trkpt><trkpt lat="40.0953321" lon="15.4322893"><ele>318.0</ele><time>2026-05-02T07:41:33.924Z</time></trkpt><trkpt lat="40.0954326" lon="15.4323433"><ele>318.0</ele><time>2026-05-02T07:41:34.927Z</time></trkpt><trkpt lat="40.0955268" lon="15.432431"><ele>318.0</ele><time>2026-05-02T07:41:35.933Z</time></trkpt><trkpt lat="40.0956185" lon="15.4325578"><ele>318.0</ele><time>2026-05-02T07:41:36.932Z</time></trkpt><trkpt lat="40.0957174" lon="15.4326973"><ele>317.3333333333333</ele><time>2026-05-02T07:41:37.932Z</time></trkpt><trkpt lat="40.0958216" lon="15.4328498"><ele>316.66666666666663</ele><time>2026-05-02T07:41:38.924Z</time></trkpt><trkpt lat="40.0959275" lon="15.4330141"><ele>316.0</ele><time>2026-05-02T07:41:39.919Z</time></trkpt><trkpt lat="40.0960366" lon="15.4331739"><ele>318.5</ele><time>2026-05-02T07:41:40.926Z</time></trkpt><trkpt lat="40.096158" lon="15.433313"><ele>321.0</ele><time>2026-05-02T07:41:41.91Z</time></trkpt><trkpt lat="40.0962815" lon="15.4334144"><ele>323.5</ele><time>2026-05-02T07:41:42.919Z</time></trkpt><trkpt lat="40.0963916" lon="15.4334918"><ele>326.0</ele><time>2026-05-02T07:41:43.925Z</time></trkpt><trkpt lat="40.0964706" lon="15.4335609"><ele>326.0</ele><time>2026-05-02T07:41:44.911Z</time></trkpt><trkpt lat="40.0965179" lon="15.4336245"><ele>326.0</ele><time>2026-05-02T07:41:45.916Z</time></trkpt><trkpt lat="40.0965297" lon="15.4337827"><ele>326.0</ele><time>2026-05-02T07:41:47.917Z</time></trkpt><trkpt lat="40.0964893" lon="15.4338738"><ele>326.0</ele><time>2026-05-02T07:41:48.929Z</time></trkpt><trkpt lat="40.0964192" lon="15.4339601"><ele>326.0</ele><time>2026-05-02T07:41:49.917Z</time></trkpt><trkpt lat="40.0963503" lon="15.4340747"><ele>328.5</ele><time>2026-05-02T07:41:50.924Z</time></trkpt><trkpt lat="40.0962745" lon="15.4342358"><ele>331.0</ele><time>2026-05-02T07:41:51.923Z</time></trkpt><trkpt lat="40.0962258" lon="15.4343984"><ele>333.5</ele><time>2026-05-02T07:41:52.922Z</time></trkpt><trkpt lat="40.0961864" lon="15.4345368"><ele>336.0</ele><time>2026-05-02T07:41:53.926Z</time></trkpt><trkpt lat="40.0961713" lon="15.4346735"><ele>337.0</ele><time>2026-05-02T07:41:54.928Z</time></trkpt><trkpt lat="40.0961981" lon="15.434801"><ele>338.0</ele><time>2026-05-02T07:41:55.901Z</time></trkpt><trkpt lat="40.0962436" lon="15.4349306"><ele>339.0</ele><time>2026-05-02T07:41:56.91Z</time></trkpt><trkpt lat="40.0963212" lon="15.4350526"><ele>340.0</ele><time>2026-05-02T07:41:57.911Z</time></trkpt><trkpt lat="40.0964216" lon="15.4351664"><ele>340.0</ele><time>2026-05-02T07:41:58.921Z</time></trkpt><trkpt lat="40.0965138" lon="15.4352612"><ele>340.0</ele><time>2026-05-02T07:41:59.922Z</time></trkpt><trkpt lat="40.0965996" lon="15.4353272"><ele>340.0</ele><time>2026-05-02T07:42:00.93Z</time></trkpt><trkpt lat="40.0966908" lon="15.435363"><ele>340.0</ele><time>2026-05-02T07:42:01.922Z</time></trkpt><trkpt lat="40.0967864" lon="15.4353671"><ele>340.0</ele><time>2026-05-02T07:42:02.921Z</time></trkpt><trkpt lat="40.0968884" lon="15.4353405"><ele>338.66666666666663</ele><time>2026-05-02T07:42:03.926Z</time></trkpt><trkpt lat="40.0969777" lon="15.4352867"><ele>337.3333333333333</ele><time>2026-05-02T07:42:04.926Z</time></trkpt><trkpt lat="40.0970566" lon="15.4352339"><ele>336.0</ele><time>2026-05-02T07:42:05.925Z</time></trkpt><trkpt lat="40.0971312" lon="15.4352045"><ele>334.6666666666667</ele><time>2026-05-02T07:42:06.92Z</time></trkpt><trkpt lat="40.097209" lon="15.435221"><ele>333.33333333333337</ele><time>2026-05-02T07:42:07.919Z</time></trkpt><trkpt lat="40.0972939" lon="15.4352839"><ele>332.0</ele><time>2026-05-02T07:42:08.924Z</time></trkpt><trkpt lat="40.0973846" lon="15.4353906"><ele>333.5</ele><time>2026-05-02T07:42:09.919Z</time></trkpt><trkpt lat="40.097481" lon="15.43552"><ele>335.0</ele><time>2026-05-02T07:42:10.917Z</time></trkpt><trkpt lat="40.0975679" lon="15.4356636"><ele>336.5</ele><time>2026-05-02T07:42:11.912Z</time></trkpt><trkpt lat="40.0976382" lon="15.4358282"><ele>338.0</ele><time>2026-05-02T07:42:12.923Z</time></trkpt><trkpt lat="40.0976889" lon="15.4359995"><ele>338.0</ele><time>2026-05-02T07:42:13.914Z</time></trkpt><trkpt lat="40.0977384" lon="15.4361519"><ele>338.0</ele><time>2026-05-02T07:42:14.925Z</time></trkpt><trkpt lat="40.0978019" lon="15.4362825"><ele>338.0</ele><time>2026-05-02T07:42:15.918Z</time></trkpt><trkpt lat="40.0978791" lon="15.4364109"><ele>338.0</ele><time>2026-05-02T07:42:16.914Z</time></trkpt><trkpt lat="40.0979591" lon="15.43653"><ele>338.0</ele><time>2026-05-02T07:42:17.918Z</time></trkpt><trkpt lat="40.0980344" lon="15.4366315"><ele>338.0</ele><time>2026-05-02T07:42:18.922Z</time></trkpt><trkpt lat="40.0981024" lon="15.4367136"><ele>338.0</ele><time>2026-05-02T07:42:19.922Z</time></trkpt><trkpt lat="40.0981694" lon="15.4367854"><ele>338.0</ele><time>2026-05-02T07:42:20.923Z</time></trkpt><trkpt lat="40.098222" lon="15.4368507"><ele>338.0</ele><time>2026-05-02T07:42:21.916Z</time></trkpt><trkpt lat="40.0982562" lon="15.4369258"><ele>338.0</ele><time>2026-05-02T07:42:22.92Z</time></trkpt><trkpt lat="40.098268" lon="15.4370184"><ele>340.33333333333337</ele><time>2026-05-02T07:42:23.929Z</time></trkpt><trkpt lat="40.0982508" lon="15.4371318"><ele>342.6666666666667</ele><time>2026-05-02T07:42:24.917Z</time></trkpt><trkpt lat="40.0982218" lon="15.4372366"><ele>345.0</ele><time>2026-05-02T07:42:25.916Z</time></trkpt><trkpt lat="40.098202" lon="15.4373425"><ele>347.3333333333333</ele><time>2026-05-02T07:42:26.927Z</time></trkpt><trkpt lat="40.0981993" lon="15.4374465"><ele>349.66666666666663</ele><time>2026-05-02T07:42:27.919Z</time></trkpt><trkpt lat="40.0982114" lon="15.4375407"><ele>352.0</ele><time>2026-05-02T07:42:28.92Z</time></trkpt><trkpt lat="40.0982304" lon="15.4376242"><ele>350.8333333333333</ele><time>2026-05-02T07:42:29.923Z</time></trkpt><trkpt lat="40.0982579" lon="15.4377105"><ele>349.66666666666663</ele><time>2026-05-02T07:42:30.918Z</time></trkpt><trkpt lat="40.098307" lon="15.4377945"><ele>348.5</ele><time>2026-05-02T07:42:31.904Z</time></trkpt><trkpt lat="40.0983672" lon="15.4378519"><ele>347.3333333333333</ele><time>2026-05-02T07:42:32.917Z</time></trkpt><trkpt lat="40.0984258" lon="15.4379043"><ele>346.1666666666667</ele><time>2026-05-02T07:42:33.913Z</time></trkpt><trkpt lat="40.0985013" lon="15.4379909"><ele>345.0</ele><time>2026-05-02T07:42:35.917Z</time></trkpt><trkpt lat="40.0984877" lon="15.4380753"><ele>344.1666666666667</ele><time>2026-05-02T07:42:38.926Z</time></trkpt><trkpt lat="40.0984061" lon="15.438052"><ele>343.3333333333333</ele><time>2026-05-02T07:42:41.923Z</time></trkpt><trkpt lat="40.0983018" lon="15.4379794"><ele>342.5</ele><time>2026-05-02T07:42:43.912Z</time></trkpt><trkpt lat="40.0982489" lon="15.4379273"><ele>341.66666666666663</ele><time>2026-05-02T07:42:44.931Z</time></trkpt><trkpt lat="40.0981919" lon="15.4378552"><ele>340.8333333333333</ele><time>2026-05-02T07:42:45.92Z</time></trkpt><trkpt lat="40.0981365" lon="15.4377559"><ele>340.0</ele><time>2026-05-02T07:42:46.921Z</time></trkpt><trkpt lat="40.0980926" lon="15.4376278"><ele>342.4</ele><time>2026-05-02T07:42:47.927Z</time></trkpt><trkpt lat="40.0980664" lon="15.4374852"><ele>344.8</ele><time>2026-05-02T07:42:48.919Z</time></trkpt><trkpt lat="40.0980557" lon="15.4373438"><ele>347.20000000000005</ele><time>2026-05-02T07:42:49.916Z</time></trkpt><trkpt lat="40.0980426" lon="15.4372079"><ele>349.6</ele><time>2026-05-02T07:42:50.93Z</time></trkpt><trkpt lat="40.0980094" lon="15.4370956"><ele>352.0</ele><time>2026-05-02T07:42:51.925Z</time></trkpt><trkpt lat="40.0979527" lon="15.4369866"><ele>352.0</ele><time>2026-05-02T07:42:52.926Z</time></trkpt><trkpt lat="40.0978565" lon="15.4369052"><ele>352.0</ele><time>2026-05-02T07:42:53.916Z</time></trkpt><trkpt lat="40.0977537" lon="15.4368288"><ele>352.0</ele><time>2026-05-02T07:42:54.916Z</time></trkpt><trkpt lat="40.097654" lon="15.436772"><ele>352.0</ele><time>2026-05-02T07:42:55.912Z</time></trkpt><trkpt lat="40.0975515" lon="15.4367329"><ele>352.0</ele><time>2026-05-02T07:42:56.923Z</time></trkpt><trkpt lat="40.0974421" lon="15.4366999"><ele>352.40000000000003</ele><time>2026-05-02T07:42:57.929Z</time></trkpt><trkpt lat="40.0973359" lon="15.436685"><ele>352.8</ele><time>2026-05-02T07:42:58.916Z</time></trkpt><trkpt lat="40.0972357" lon="15.4367043"><ele>353.2</ele><time>2026-05-02T07:42:59.917Z</time></trkpt><trkpt lat="40.0971409" lon="15.4367642"><ele>353.6</ele><time>2026-05-02T07:43:00.914Z</time></trkpt><trkpt lat="40.0970503" lon="15.4368582"><ele>354.0</ele><time>2026-05-02T07:43:01.918Z</time></trkpt><trkpt lat="40.096963" lon="15.4369701"><ele>354.0</ele><time>2026-05-02T07:43:02.928Z</time></trkpt><trkpt lat="40.0968751" lon="15.4370796"><ele>354.0</ele><time>2026-05-02T07:43:03.936Z</time></trkpt><trkpt lat="40.0967842" lon="15.4371859"><ele>354.0</ele><time>2026-05-02T07:43:04.924Z</time></trkpt><trkpt lat="40.0966867" lon="15.4372771"><ele>354.0</ele><time>2026-05-02T07:43:05.919Z</time></trkpt><trkpt lat="40.0966024" lon="15.4373516"><ele>354.3333333333333</ele><time>2026-05-02T07:43:06.928Z</time></trkpt><trkpt lat="40.0965267" lon="15.4374126"><ele>354.6666666666667</ele><time>2026-05-02T07:43:07.922Z</time></trkpt><trkpt lat="40.0964526" lon="15.4374499"><ele>355.0</ele><time>2026-05-02T07:43:08.92Z</time></trkpt><trkpt lat="40.096367" lon="15.4374638"><ele>355.33333333333337</ele><time>2026-05-02T07:43:09.93Z</time></trkpt><trkpt lat="40.0962787" lon="15.4374371"><ele>355.6666666666667</ele><time>2026-05-02T07:43:10.926Z</time></trkpt><trkpt lat="40.0961876" lon="15.4373708"><ele>356.0</ele><time>2026-05-02T07:43:11.93Z</time></trkpt><trkpt lat="40.0960831" lon="15.4372818"><ele>356.0</ele><time>2026-05-02T07:43:12.926Z</time></trkpt><trkpt lat="40.0959639" lon="15.437193"><ele>356.0</ele><time>2026-05-02T07:43:13.917Z</time></trkpt><trkpt lat="40.0958344" lon="15.4371207"><ele>356.0</ele><time>2026-05-02T07:43:14.922Z</time></trkpt><trkpt lat="40.0956897" lon="15.4370596"><ele>356.0</ele><time>2026-05-02T07:43:15.917Z</time></trkpt><trkpt lat="40.0955339" lon="15.4370194"><ele>358.0</ele><time>2026-05-02T07:43:16.924Z</time></trkpt><trkpt lat="40.0953721" lon="15.4369962"><ele>360.0</ele><time>2026-05-02T07:43:17.915Z</time></trkpt><trkpt lat="40.0952119" lon="15.4369705"><ele>362.0</ele><time>2026-05-02T07:43:18.928Z</time></trkpt><trkpt lat="40.0950624" lon="15.4369469"><ele>362.0</ele><time>2026-05-02T07:43:19.928Z</time></trkpt><trkpt lat="40.0949329" lon="15.4369329"><ele>362.0</ele><time>2026-05-02T07:43:20.925Z</time></trkpt><trkpt lat="40.0948098" lon="15.4368933"><ele>362.0</ele><time>2026-05-02T07:43:21.921Z</time></trkpt><trkpt lat="40.0946961" lon="15.4368331"><ele>362.0</ele><time>2026-05-02T07:43:22.93Z</time></trkpt><trkpt lat="40.0945983" lon="15.4367812"><ele>362.6</ele><time>2026-05-02T07:43:23.922Z</time></trkpt><trkpt lat="40.0945149" lon="15.4367445"><ele>363.20000000000005</ele><time>2026-05-02T07:43:24.923Z</time></trkpt><trkpt lat="40.0944276" lon="15.4367246"><ele>363.8</ele><time>2026-05-02T07:43:25.923Z</time></trkpt><trkpt lat="40.094333" lon="15.436718"><ele>364.4</ele><time>2026-05-02T07:43:26.926Z</time></trkpt><trkpt lat="40.0942317" lon="15.4367227"><ele>365.0</ele><time>2026-05-02T07:43:27.927Z</time></trkpt><trkpt lat="40.0941223" lon="15.4367362"><ele>365.0</ele><time>2026-05-02T07:43:28.923Z</time></trkpt><trkpt lat="40.0940085" lon="15.4367569"><ele>365.0</ele><time>2026-05-02T07:43:29.93Z</time></trkpt><trkpt lat="40.0938963" lon="15.4367832"><ele>365.0</ele><time>2026-05-02T07:43:30.921Z</time></trkpt><trkpt lat="40.0937826" lon="15.4368148"><ele>365.0</ele><time>2026-05-02T07:43:31.931Z</time></trkpt><trkpt lat="40.093678" lon="15.436845"><ele>365.0</ele><time>2026-05-02T07:43:32.918Z</time></trkpt><trkpt lat="40.093583" lon="15.4368693"><ele>365.0</ele><time>2026-05-02T07:43:33.925Z</time></trkpt><trkpt lat="40.0935" lon="15.4368899"><ele>365.0</ele><time>2026-05-02T07:43:34.915Z</time></trkpt><trkpt lat="40.0934264" lon="15.4368983"><ele>365.0</ele><time>2026-05-02T07:43:35.919Z</time></trkpt><trkpt lat="40.0933051" lon="15.4369144"><ele>365.0</ele><time>2026-05-02T07:43:37.918Z</time></trkpt><trkpt lat="40.0932423" lon="15.4369066"><ele>365.0</ele><time>2026-05-02T07:43:38.929Z</time></trkpt><trkpt lat="40.0931781" lon="15.4368932"><ele>365.14285714285717</ele><time>2026-05-02T07:43:39.917Z</time></trkpt><trkpt lat="40.093109" lon="15.4368751"><ele>365.2857142857143</ele><time>2026-05-02T07:43:40.918Z</time></trkpt><trkpt lat="40.0930385" lon="15.436861"><ele>365.42857142857144</ele><time>2026-05-02T07:43:41.914Z</time></trkpt><trkpt lat="40.0929681" lon="15.4368678"><ele>365.57142857142856</ele><time>2026-05-02T07:43:42.928Z</time></trkpt><trkpt lat="40.0928973" lon="15.4369062"><ele>365.7142857142857</ele><time>2026-05-02T07:43:43.928Z</time></trkpt><trkpt lat="40.0928379" lon="15.4369725"><ele>365.8571428571429</ele><time>2026-05-02T07:43:44.931Z</time></trkpt><trkpt lat="40.0927818" lon="15.4370479"><ele>366.0</ele><time>2026-05-02T07:43:45.914Z</time></trkpt><trkpt lat="40.0927187" lon="15.4371257"><ele>366.25</ele><time>2026-05-02T07:43:46.915Z</time></trkpt><trkpt lat="40.0926369" lon="15.4371955"><ele>366.5</ele><time>2026-05-02T07:43:47.926Z</time></trkpt><trkpt lat="40.0925402" lon="15.4372716"><ele>366.75</ele><time>2026-05-02T07:43:48.935Z</time></trkpt><trkpt lat="40.0924438" lon="15.4373743"><ele>367.0</ele><time>2026-05-02T07:43:49.92Z</time></trkpt><trkpt lat="40.0923628" lon="15.4375162"><ele>369.0</ele><time>2026-05-02T07:43:50.919Z</time></trkpt><trkpt lat="40.0922767" lon="15.4376779"><ele>371.0</ele><time>2026-05-02T07:43:51.916Z</time></trkpt><trkpt lat="40.0921868" lon="15.4378608"><ele>373.0</ele><time>2026-05-02T07:43:52.942Z</time></trkpt><trkpt lat="40.0920893" lon="15.4380467"><ele>373.0</ele><time>2026-05-02T07:43:53.922Z</time></trkpt><trkpt lat="40.0919814" lon="15.4382142"><ele>373.0</ele><time>2026-05-02T07:43:54.914Z</time></trkpt><trkpt lat="40.0918804" lon="15.4383664"><ele>373.0</ele><time>2026-05-02T07:43:55.925Z</time></trkpt><trkpt lat="40.0918064" lon="15.4385346"><ele>373.0</ele><time>2026-05-02T07:43:56.92Z</time></trkpt><trkpt lat="40.0917483" lon="15.4387334"><ele>373.0</ele><time>2026-05-02T07:43:57.921Z</time></trkpt><trkpt lat="40.091703" lon="15.4389367"><ele>373.0</ele><time>2026-05-02T07:43:58.919Z</time></trkpt><trkpt lat="40.0916326" lon="15.439121"><ele>375.25</ele><time>2026-05-02T07:43:59.914Z</time></trkpt><trkpt lat="40.0915456" lon="15.4392629"><ele>377.5</ele><time>2026-05-02T07:44:00.924Z</time></trkpt><trkpt lat="40.0914701" lon="15.4393926"><ele>379.75</ele><time>2026-05-02T07:44:01.926Z</time></trkpt><trkpt lat="40.0913939" lon="15.439491"><ele>382.0</ele><time>2026-05-02T07:44:02.925Z</time></trkpt><trkpt lat="40.091309" lon="15.4395582"><ele>382.0</ele><time>2026-05-02T07:44:03.924Z</time></trkpt><trkpt lat="40.0912086" lon="15.4395892"><ele>382.0</ele><time>2026-05-02T07:44:04.927Z</time></trkpt><trkpt lat="40.0910953" lon="15.439591"><ele>382.0</ele><time>2026-05-02T07:44:05.926Z</time></trkpt><trkpt lat="40.0909665" lon="15.4395654"><ele>382.0</ele><time>2026-05-02T07:44:06.928Z</time></trkpt><trkpt lat="40.0908256" lon="15.4395174"><ele>381.66666666666663</ele><time>2026-05-02T07:44:07.913Z</time></trkpt><trkpt lat="40.090684" lon="15.439453"><ele>381.3333333333333</ele><time>2026-05-02T07:44:08.918Z</time></trkpt><trkpt lat="40.0905471" lon="15.4393649"><ele>381.0</ele><time>2026-05-02T07:44:09.925Z</time></trkpt><trkpt lat="40.0904192" lon="15.4392542"><ele>381.0</ele><time>2026-05-02T07:44:10.918Z</time></trkpt><trkpt lat="40.0902779" lon="15.4391646"><ele>381.0</ele><time>2026-05-02T07:44:11.924Z</time></trkpt><trkpt lat="40.0901209" lon="15.4391055"><ele>381.0</ele><time>2026-05-02T07:44:12.918Z</time></trkpt><trkpt lat="40.0899487" lon="15.4390623"><ele>381.0</ele><time>2026-05-02T07:44:13.92Z</time></trkpt><trkpt lat="40.0897742" lon="15.4390235"><ele>381.0</ele><time>2026-05-02T07:44:14.93Z</time></trkpt><trkpt lat="40.0896095" lon="15.438958"><ele>381.0</ele><time>2026-05-02T07:44:15.921Z</time></trkpt><trkpt lat="40.0894577" lon="15.4388753"><ele>384.0</ele><time>2026-05-02T07:44:16.928Z</time></trkpt><trkpt lat="40.0893296" lon="15.4387966"><ele>387.0</ele><time>2026-05-02T07:44:17.925Z</time></trkpt><trkpt lat="40.0892136" lon="15.4387374"><ele>390.0</ele><time>2026-05-02T07:44:18.912Z</time></trkpt><trkpt lat="40.0891099" lon="15.4387088"><ele>393.0</ele><time>2026-05-02T07:44:19.922Z</time></trkpt><trkpt lat="40.0890175" lon="15.4387126"><ele>393.0</ele><time>2026-05-02T07:44:20.928Z</time></trkpt><trkpt lat="40.0889389" lon="15.4387494"><ele>393.0</ele><time>2026-05-02T07:44:21.915Z</time></trkpt><trkpt lat="40.0888844" lon="15.4388179"><ele>393.0</ele><time>2026-05-02T07:44:22.925Z</time></trkpt><trkpt lat="40.0888454" lon="15.438913"><ele>393.0</ele><time>2026-05-02T07:44:23.912Z</time></trkpt><trkpt lat="40.0888524" lon="15.4390328"><ele>393.0</ele><time>2026-05-02T07:44:24.93Z</time></trkpt><trkpt lat="40.0888925" lon="15.4391705"><ele>393.0</ele><time>2026-05-02T07:44:25.922Z</time></trkpt><trkpt lat="40.0889601" lon="15.4392906"><ele>392.6666666666667</ele><time>2026-05-02T07:44:26.92Z</time></trkpt><trkpt lat="40.0890287" lon="15.4394066"><ele>392.33333333333337</ele><time>2026-05-02T07:44:27.921Z</time></trkpt><trkpt lat="40.0890634" lon="15.4395117"><ele>392.0</ele><time>2026-05-02T07:44:28.922Z</time></trkpt><trkpt lat="40.0890549" lon="15.4396059"><ele>391.6666666666667</ele><time>2026-05-02T07:44:29.924Z</time></trkpt><trkpt lat="40.0890126" lon="15.439683"><ele>391.33333333333337</ele><time>2026-05-02T07:44:30.922Z</time></trkpt><trkpt lat="40.0889431" lon="15.4397378"><ele>391.0</ele><time>2026-05-02T07:44:31.926Z</time></trkpt><trkpt lat="40.0888469" lon="15.4397883"><ele>390.25</ele><time>2026-05-02T07:44:32.923Z</time></trkpt><trkpt lat="40.0887322" lon="15.4398336"><ele>389.5</ele><time>2026-05-02T07:44:33.925Z</time></trkpt><trkpt lat="40.0886012" lon="15.4398771"><ele>388.75</ele><time>2026-05-02T07:44:34.923Z</time></trkpt><trkpt lat="40.0884698" lon="15.4399339"><ele>388.0</ele><time>2026-05-02T07:44:35.922Z</time></trkpt><trkpt lat="40.0883446" lon="15.4400214"><ele>388.75</ele><time>2026-05-02T07:44:36.932Z</time></trkpt><trkpt lat="40.0882254" lon="15.4401313"><ele>389.5</ele><time>2026-05-02T07:44:37.922Z</time></trkpt><trkpt lat="40.0881218" lon="15.4402636"><ele>390.25</ele><time>2026-05-02T07:44:38.931Z</time></trkpt><trkpt lat="40.0880205" lon="15.440412"><ele>391.0</ele><time>2026-05-02T07:44:39.932Z</time></trkpt><trkpt lat="40.0879158" lon="15.4405563"><ele>391.0</ele><time>2026-05-02T07:44:40.928Z</time></trkpt><trkpt lat="40.0878289" lon="15.4406958"><ele>391.0</ele><time>2026-05-02T07:44:41.922Z</time></trkpt><trkpt lat="40.0877602" lon="15.440827"><ele>391.0</ele><time>2026-05-02T07:44:42.928Z</time></trkpt><trkpt lat="40.0877135" lon="15.4409471"><ele>391.0</ele><time>2026-05-02T07:44:43.925Z</time></trkpt><trkpt lat="40.0877118" lon="15.4410721"><ele>391.00000000000006</ele><time>2026-05-02T07:44:44.915Z</time></trkpt><trkpt lat="40.0877424" lon="15.4412017"><ele>391.0</ele><time>2026-05-02T07:44:45.908Z</time></trkpt><trkpt lat="40.0878089" lon="15.4413014"><ele>391.0</ele><time>2026-05-02T07:44:46.931Z</time></trkpt><trkpt lat="40.0878782" lon="15.441376"><ele>391.0</ele><time>2026-05-02T07:44:47.922Z</time></trkpt><trkpt lat="40.087919" lon="15.4414548"><ele>391.00000000000006</ele><time>2026-05-02T07:44:48.92Z</time></trkpt><trkpt lat="40.0879264" lon="15.4415467"><ele>391.0</ele><time>2026-05-02T07:44:49.909Z</time></trkpt><trkpt lat="40.0879019" lon="15.4416375"><ele>391.25</ele><time>2026-05-02T07:44:50.918Z</time></trkpt><trkpt lat="40.0878417" lon="15.4417304"><ele>391.5</ele><time>2026-05-02T07:44:51.923Z</time></trkpt><trkpt lat="40.0877551" lon="15.4418215"><ele>391.75</ele><time>2026-05-02T07:44:52.913Z</time></trkpt><trkpt lat="40.0876467" lon="15.4419041"><ele>392.0</ele><time>2026-05-02T07:44:53.922Z</time></trkpt><trkpt lat="40.0875419" lon="15.4420115"><ele>391.5</ele><time>2026-05-02T07:44:54.925Z</time></trkpt><trkpt lat="40.0874304" lon="15.4421439"><ele>391.0</ele><time>2026-05-02T07:44:55.922Z</time></trkpt><trkpt lat="40.0873432" lon="15.4422843"><ele>390.5</ele><time>2026-05-02T07:44:56.927Z</time></trkpt><trkpt lat="40.087275" lon="15.4424028"><ele>390.0</ele><time>2026-05-02T07:44:57.919Z</time></trkpt><trkpt lat="40.0872306" lon="15.4425467"><ele>392.0</ele><time>2026-05-02T07:44:58.929Z</time></trkpt><trkpt lat="40.0871936" lon="15.4427102"><ele>394.0</ele><time>2026-05-02T07:44:59.914Z</time></trkpt><trkpt lat="40.0871546" lon="15.4428622"><ele>396.0</ele><time>2026-05-02T07:45:00.921Z</time></trkpt><trkpt lat="40.0870997" lon="15.4429907"><ele>398.0</ele><time>2026-05-02T07:45:01.917Z</time></trkpt><trkpt lat="40.087008" lon="15.4430935"><ele>398.0</ele><time>2026-05-02T07:45:02.92Z</time></trkpt><trkpt lat="40.0868885" lon="15.443172"><ele>398.0</ele><time>2026-05-02T07:45:03.92Z</time></trkpt><trkpt lat="40.086775" lon="15.4432438"><ele>398.0</ele><time>2026-05-02T07:45:04.923Z</time></trkpt><trkpt lat="40.0866531" lon="15.4433213"><ele>398.0</ele><time>2026-05-02T07:45:05.919Z</time></trkpt><trkpt lat="40.0865353" lon="15.4434131"><ele>400.0</ele><time>2026-05-02T07:45:06.926Z</time></trkpt><trkpt lat="40.0864067" lon="15.4434956"><ele>402.0</ele><time>2026-05-02T07:45:07.925Z</time></trkpt><trkpt lat="40.086265" lon="15.443569"><ele>404.0</ele><time>2026-05-02T07:45:08.924Z</time></trkpt><trkpt lat="40.0861265" lon="15.443647"><ele>406.0</ele><time>2026-05-02T07:45:09.921Z</time></trkpt><trkpt lat="40.0859962" lon="15.4437324"><ele>406.33333333333337</ele><time>2026-05-02T07:45:10.927Z</time></trkpt><trkpt lat="40.0858687" lon="15.4438267"><ele>406.66666666666663</ele><time>2026-05-02T07:45:11.93Z</time></trkpt><trkpt lat="40.0857421" lon="15.4439351"><ele>407.0</ele><time>2026-05-02T07:45:12.923Z</time></trkpt><trkpt lat="40.085606" lon="15.4440351"><ele>407.0</ele><time>2026-05-02T07:45:13.917Z</time></trkpt><trkpt lat="40.0854713" lon="15.4441037"><ele>407.0</ele><time>2026-05-02T07:45:14.926Z</time></trkpt><trkpt lat="40.0853592" lon="15.4441402"><ele>407.0</ele><time>2026-05-02T07:45:15.924Z</time></trkpt><trkpt lat="40.0852802" lon="15.4441658"><ele>407.0</ele><time>2026-05-02T07:45:16.928Z</time></trkpt><trkpt lat="40.0852276" lon="15.4442113"><ele>407.0</ele><time>2026-05-02T07:45:17.917Z</time></trkpt><trkpt lat="40.085183" lon="15.4442857"><ele>406.99999999999994</ele><time>2026-05-02T07:45:18.936Z</time></trkpt><trkpt lat="40.0851527" lon="15.4444018"><ele>407.0</ele><time>2026-05-02T07:45:19.917Z</time></trkpt><trkpt lat="40.0851342" lon="15.4445253"><ele>407.0</ele><time>2026-05-02T07:45:20.927Z</time></trkpt><trkpt lat="40.0850976" lon="15.4446271"><ele>407.0</ele><time>2026-05-02T07:45:21.919Z</time></trkpt><trkpt lat="40.0850385" lon="15.4447076"><ele>406.99999999999994</ele><time>2026-05-02T07:45:22.921Z</time></trkpt><trkpt lat="40.0849781" lon="15.4447633"><ele>407.0</ele><time>2026-05-02T07:45:23.924Z</time></trkpt><trkpt lat="40.0849121" lon="15.4447825"><ele>407.20000000000005</ele><time>2026-05-02T07:45:24.929Z</time></trkpt><trkpt lat="40.0848326" lon="15.4447804"><ele>407.4</ele><time>2026-05-02T07:45:25.922Z</time></trkpt><trkpt lat="40.0847339" lon="15.444761"><ele>407.6</ele><time>2026-05-02T07:45:26.925Z</time></trkpt><trkpt lat="40.0846231" lon="15.4447543"><ele>407.79999999999995</ele><time>2026-05-02T07:45:27.921Z</time></trkpt><trkpt lat="40.0844978" lon="15.4447659"><ele>408.0</ele><time>2026-05-02T07:45:28.942Z</time></trkpt><trkpt lat="40.0843674" lon="15.4447836"><ele>408.0</ele><time>2026-05-02T07:45:29.926Z</time></trkpt><trkpt lat="40.0842333" lon="15.4448114"><ele>408.0</ele><time>2026-05-02T07:45:30.921Z</time></trkpt><trkpt lat="40.0841002" lon="15.4448637"><ele>408.0</ele><time>2026-05-02T07:45:31.918Z</time></trkpt><trkpt lat="40.0839606" lon="15.4449276"><ele>408.0</ele><time>2026-05-02T07:45:32.93Z</time></trkpt><trkpt lat="40.083833" lon="15.4449991"><ele>409.79999999999995</ele><time>2026-05-02T07:45:33.923Z</time></trkpt><trkpt lat="40.0837235" lon="15.4450653"><ele>411.6</ele><time>2026-05-02T07:45:34.923Z</time></trkpt><trkpt lat="40.0836232" lon="15.4451294"><ele>413.4</ele><time>2026-05-02T07:45:35.915Z</time></trkpt><trkpt lat="40.0835398" lon="15.4451966"><ele>415.20000000000005</ele><time>2026-05-02T07:45:36.927Z</time></trkpt><trkpt lat="40.0834584" lon="15.445275"><ele>417.0</ele><time>2026-05-02T07:45:37.923Z</time></trkpt><trkpt lat="40.0833818" lon="15.4453704"><ele>416.1666666666667</ele><time>2026-05-02T07:45:38.928Z</time></trkpt><trkpt lat="40.0833105" lon="15.4454748"><ele>415.33333333333337</ele><time>2026-05-02T07:45:39.927Z</time></trkpt><trkpt lat="40.0832378" lon="15.4455777"><ele>414.5</ele><time>2026-05-02T07:45:40.911Z</time></trkpt><trkpt lat="40.0831692" lon="15.4456563"><ele>413.6666666666667</ele><time>2026-05-02T07:45:41.915Z</time></trkpt><trkpt lat="40.083122" lon="15.4457148"><ele>412.83333333333337</ele><time>2026-05-02T07:45:42.918Z</time></trkpt><trkpt lat="40.0830769" lon="15.4457734"><ele>412.0</ele><time>2026-05-02T07:45:43.915Z</time></trkpt><trkpt lat="40.0830038" lon="15.4458814"><ele>413.8</ele><time>2026-05-02T07:45:45.915Z</time></trkpt><trkpt lat="40.0829545" lon="15.4460003"><ele>415.6</ele><time>2026-05-02T07:45:47.929Z</time></trkpt><trkpt lat="40.0829022" lon="15.4461133"><ele>417.40000000000003</ele><time>2026-05-02T07:45:49.919Z</time></trkpt><trkpt lat="40.0828422" lon="15.4462418"><ele>419.20000000000005</ele><time>2026-05-02T07:45:51.914Z</time></trkpt><trkpt lat="40.0828099" lon="15.4463194"><ele>421.0</ele><time>2026-05-02T07:45:52.917Z</time></trkpt><trkpt lat="40.0827592" lon="15.4464035"><ele>421.0</ele><time>2026-05-02T07:45:53.931Z</time></trkpt><trkpt lat="40.0826988" lon="15.4464914"><ele>421.0</ele><time>2026-05-02T07:45:54.933Z</time></trkpt><trkpt lat="40.0826476" lon="15.4465923"><ele>421.0</ele><time>2026-05-02T07:45:55.915Z</time></trkpt><trkpt lat="40.0825908" lon="15.4467069"><ele>421.0</ele><time>2026-05-02T07:45:56.921Z</time></trkpt><trkpt lat="40.0825304" lon="15.4468237"><ele>421.0</ele><time>2026-05-02T07:45:57.923Z</time></trkpt><trkpt lat="40.0824664" lon="15.4469332"><ele>422.4</ele><time>2026-05-02T07:45:58.919Z</time></trkpt><trkpt lat="40.0823966" lon="15.4470462"><ele>423.8</ele><time>2026-05-02T07:45:59.921Z</time></trkpt><trkpt lat="40.0823341" lon="15.4471696"><ele>425.19999999999993</ele><time>2026-05-02T07:46:00.94Z</time></trkpt><trkpt lat="40.0822704" lon="15.447293"><ele>426.59999999999997</ele><time>2026-05-02T07:46:01.918Z</time></trkpt><trkpt lat="40.0822242" lon="15.4473906"><ele>428.0</ele><time>2026-05-02T07:46:02.921Z</time></trkpt><trkpt lat="40.0821856" lon="15.4474678"><ele>428.0</ele><time>2026-05-02T07:46:03.922Z</time></trkpt><trkpt lat="40.0821043" lon="15.4475626"><ele>427.99999999999994</ele><time>2026-05-02T07:46:05.918Z</time></trkpt><trkpt lat="40.0820009" lon="15.4476538"><ele>427.99999999999994</ele><time>2026-05-02T07:46:07.926Z</time></trkpt><trkpt lat="40.0819311" lon="15.4477073"><ele>428.0</ele><time>2026-05-02T07:46:08.921Z</time></trkpt><trkpt lat="40.0818401" lon="15.4477515"><ele>428.0</ele><time>2026-05-02T07:46:09.915Z</time></trkpt><trkpt lat="40.0817491" lon="15.4478111"><ele>428.0</ele><time>2026-05-02T07:46:10.934Z</time></trkpt><trkpt lat="40.0816831" lon="15.4479029"><ele>427.99999999999994</ele><time>2026-05-02T07:46:11.928Z</time></trkpt><trkpt lat="40.0816305" lon="15.4480251"><ele>427.99999999999994</ele><time>2026-05-02T07:46:12.925Z</time></trkpt><trkpt lat="40.0815951" lon="15.4481776"><ele>428.0</ele><time>2026-05-02T07:46:13.911Z</time></trkpt><trkpt lat="40.0815663" lon="15.4483317"><ele>428.0</ele><time>2026-05-02T07:46:14.914Z</time></trkpt><trkpt lat="40.0815325" lon="15.4484657"><ele>427.2</ele><time>2026-05-02T07:46:15.928Z</time></trkpt><trkpt lat="40.0814942" lon="15.448579"><ele>426.4</ele><time>2026-05-02T07:46:16.924Z</time></trkpt><trkpt lat="40.0814536" lon="15.4486943"><ele>425.59999999999997</ele><time>2026-05-02T07:46:17.927Z</time></trkpt><trkpt lat="40.0814146" lon="15.4488275"><ele>424.79999999999995</ele><time>2026-05-02T07:46:18.911Z</time></trkpt><trkpt lat="40.081375" lon="15.4489562"><ele>424.0</ele><time>2026-05-02T07:46:19.91Z</time></trkpt><trkpt lat="40.0813339" lon="15.449064"><ele>424.0</ele><time>2026-05-02T07:46:20.932Z</time></trkpt><trkpt lat="40.0812737" lon="15.4491328"><ele>424.0</ele><time>2026-05-02T07:46:21.911Z</time></trkpt><trkpt lat="40.0811937" lon="15.4491824"><ele>424.0</ele><time>2026-05-02T07:46:22.924Z</time></trkpt><trkpt lat="40.081093" lon="15.4492266"><ele>424.0</ele><time>2026-05-02T07:46:23.917Z</time></trkpt><trkpt lat="40.0809778" lon="15.4492538"><ele>424.0</ele><time>2026-05-02T07:46:24.921Z</time></trkpt><trkpt lat="40.0808717" lon="15.4492801"><ele>424.0</ele><time>2026-05-02T07:46:25.92Z</time></trkpt><trkpt lat="40.0807872" lon="15.449299"><ele>424.0</ele><time>2026-05-02T07:46:26.918Z</time></trkpt><trkpt lat="40.080719" lon="15.4493602"><ele>424.0</ele><time>2026-05-02T07:46:27.921Z</time></trkpt><trkpt lat="40.0806687" lon="15.4494725"><ele>424.0</ele><time>2026-05-02T07:46:28.93Z</time></trkpt><trkpt lat="40.0806138" lon="15.4495687"><ele>424.0</ele><time>2026-05-02T07:46:29.933Z</time></trkpt><trkpt lat="40.0805405" lon="15.4496683"><ele>423.75</ele><time>2026-05-02T07:46:30.936Z</time></trkpt><trkpt lat="40.0804431" lon="15.44973"><ele>423.5</ele><time>2026-05-02T07:46:31.922Z</time></trkpt><trkpt lat="40.0803266" lon="15.4497625"><ele>423.25</ele><time>2026-05-02T07:46:32.928Z</time></trkpt><trkpt lat="40.0802047" lon="15.4497989"><ele>423.0</ele><time>2026-05-02T07:46:33.918Z</time></trkpt><trkpt lat="40.0800903" lon="15.4498467"><ele>423.0</ele><time>2026-05-02T07:46:34.939Z</time></trkpt><trkpt lat="40.079987" lon="15.4499241"><ele>423.0</ele><time>2026-05-02T07:46:35.919Z</time></trkpt><trkpt lat="40.0799217" lon="15.4500307"><ele>423.0</ele><time>2026-05-02T07:46:36.932Z</time></trkpt><trkpt lat="40.0798811" lon="15.4501756"><ele>423.0</ele><time>2026-05-02T07:46:37.909Z</time></trkpt><trkpt lat="40.0798674" lon="15.4503307"><ele>423.25</ele><time>2026-05-02T07:46:38.926Z</time></trkpt><trkpt lat="40.0798765" lon="15.4504859"><ele>423.5</ele><time>2026-05-02T07:46:39.918Z</time></trkpt><trkpt lat="40.0799173" lon="15.4506349"><ele>423.75</ele><time>2026-05-02T07:46:40.929Z</time></trkpt><trkpt lat="40.0799494" lon="15.450772"><ele>424.0</ele><time>2026-05-02T07:46:41.918Z</time></trkpt><trkpt lat="40.0799531" lon="15.4509091"><ele>424.00000000000006</ele><time>2026-05-02T07:46:42.922Z</time></trkpt><trkpt lat="40.0799253" lon="15.4510106"><ele>424.0</ele><time>2026-05-02T07:46:43.922Z</time></trkpt><trkpt lat="40.0798759" lon="15.4510819"><ele>424.0</ele><time>2026-05-02T07:46:44.925Z</time></trkpt><trkpt lat="40.0798172" lon="15.4511198"><ele>424.0</ele><time>2026-05-02T07:46:45.918Z</time></trkpt><trkpt lat="40.0797296" lon="15.451141"><ele>424.00000000000006</ele><time>2026-05-02T07:46:46.926Z</time></trkpt><trkpt lat="40.079623" lon="15.4511639"><ele>424.0</ele><time>2026-05-02T07:46:47.919Z</time></trkpt><trkpt lat="40.079493" lon="15.4511969"><ele>424.0</ele><time>2026-05-02T07:46:48.924Z</time></trkpt><trkpt lat="40.0793586" lon="15.4512284"><ele>424.0</ele><time>2026-05-02T07:46:49.912Z</time></trkpt><trkpt lat="40.0792176" lon="15.4512736"><ele>424.0</ele><time>2026-05-02T07:46:50.927Z</time></trkpt><trkpt lat="40.0790786" lon="15.4513321"><ele>424.0</ele><time>2026-05-02T07:46:51.927Z</time></trkpt><trkpt lat="40.0789514" lon="15.4513973"><ele>422.79999999999995</ele><time>2026-05-02T07:46:52.934Z</time></trkpt><trkpt lat="40.0788424" lon="15.4514569"><ele>421.59999999999997</ele><time>2026-05-02T07:46:53.93Z</time></trkpt><trkpt lat="40.0787546" lon="15.4515223"><ele>420.4</ele><time>2026-05-02T07:46:54.936Z</time></trkpt><trkpt lat="40.0786843" lon="15.4516013"><ele>419.2</ele><time>2026-05-02T07:46:55.913Z</time></trkpt><trkpt lat="40.0786396" lon="15.4517003"><ele>418.0</ele><time>2026-05-02T07:46:56.925Z</time></trkpt><trkpt lat="40.0786272" lon="15.4518077"><ele>418.00000000000006</ele><time>2026-05-02T07:46:57.917Z</time></trkpt><trkpt lat="40.0786518" lon="15.4519318"><ele>418.0</ele><time>2026-05-02T07:46:58.93Z</time></trkpt><trkpt lat="40.078685" lon="15.4520481"><ele>418.0</ele><time>2026-05-02T07:46:59.917Z</time></trkpt><trkpt lat="40.0786915" lon="15.4521589"><ele>418.0</ele><time>2026-05-02T07:47:00.911Z</time></trkpt><trkpt lat="40.0786674" lon="15.4522389"><ele>418.00000000000006</ele><time>2026-05-02T07:47:01.92Z</time></trkpt><trkpt lat="40.0786227" lon="15.4523106"><ele>418.0</ele><time>2026-05-02T07:47:02.918Z</time></trkpt><trkpt lat="40.0785493" lon="15.4523526"><ele>418.2</ele><time>2026-05-02T07:47:03.928Z</time></trkpt><trkpt lat="40.0784365" lon="15.4523759"><ele>418.4</ele><time>2026-05-02T07:47:04.931Z</time></trkpt><trkpt lat="40.078313" lon="15.4523837"><ele>418.59999999999997</ele><time>2026-05-02T07:47:05.93Z</time></trkpt><trkpt lat="40.0782109" lon="15.4523963"><ele>418.79999999999995</ele><time>2026-05-02T07:47:06.938Z</time></trkpt><trkpt lat="40.0781285" lon="15.4524498"><ele>419.0</ele><time>2026-05-02T07:47:07.912Z</time></trkpt><trkpt lat="40.0780738" lon="15.4525337"><ele>419.0</ele><time>2026-05-02T07:47:08.924Z</time></trkpt><trkpt lat="40.0780437" lon="15.4526258"><ele>419.0</ele><time>2026-05-02T07:47:09.915Z</time></trkpt><trkpt lat="40.0780393" lon="15.4527335"><ele>419.0</ele><time>2026-05-02T07:47:10.924Z</time></trkpt><trkpt lat="40.0780708" lon="15.4528696"><ele>419.0</ele><time>2026-05-02T07:47:11.913Z</time></trkpt><trkpt lat="40.0781289" lon="15.4530187"><ele>419.0</ele><time>2026-05-02T07:47:12.922Z</time></trkpt><trkpt lat="40.0781898" lon="15.4531831"><ele>417.5</ele><time>2026-05-02T07:47:13.92Z</time></trkpt><trkpt lat="40.0782385" lon="15.4533674"><ele>416.0</ele><time>2026-05-02T07:47:14.923Z</time></trkpt><trkpt lat="40.0783042" lon="15.4535541"><ele>414.5</ele><time>2026-05-02T07:47:15.925Z</time></trkpt><trkpt lat="40.0783685" lon="15.4537101"><ele>413.0</ele><time>2026-05-02T07:47:16.927Z</time></trkpt><trkpt lat="40.0784134" lon="15.453852"><ele>412.0</ele><time>2026-05-02T07:47:17.925Z</time></trkpt><trkpt lat="40.0784463" lon="15.4539891"><ele>411.0</ele><time>2026-05-02T07:47:18.921Z</time></trkpt><trkpt lat="40.0784773" lon="15.4541382"><ele>410.0</ele><time>2026-05-02T07:47:19.92Z</time></trkpt><trkpt lat="40.0784941" lon="15.4542926"><ele>409.0</ele><time>2026-05-02T07:47:20.918Z</time></trkpt><trkpt lat="40.0785084" lon="15.4544305"><ele>409.0</ele><time>2026-05-02T07:47:21.92Z</time></trkpt><trkpt lat="40.0785124" lon="15.4545425"><ele>409.0</ele><time>2026-05-02T07:47:22.928Z</time></trkpt><trkpt lat="40.078507" lon="15.4546432"><ele>409.0</ele><time>2026-05-02T07:47:23.924Z</time></trkpt><trkpt lat="40.0784876" lon="15.4547267"><ele>409.0</ele><time>2026-05-02T07:47:24.933Z</time></trkpt><trkpt lat="40.0783944" lon="15.4548528"><ele>409.0</ele><time>2026-05-02T07:47:26.93Z</time></trkpt><trkpt lat="40.0783125" lon="15.4548951"><ele>406.79999999999995</ele><time>2026-05-02T07:47:27.923Z</time></trkpt><trkpt lat="40.078219" lon="15.4549312"><ele>404.59999999999997</ele><time>2026-05-02T07:47:28.937Z</time></trkpt><trkpt lat="40.0781276" lon="15.4549435"><ele>402.4</ele><time>2026-05-02T07:47:29.925Z</time></trkpt><trkpt lat="40.0780418" lon="15.4549263"><ele>400.2</ele><time>2026-05-02T07:47:30.929Z</time></trkpt><trkpt lat="40.0779564" lon="15.4548819"><ele>398.0</ele><time>2026-05-02T07:47:31.926Z</time></trkpt><trkpt lat="40.0778614" lon="15.4547904"><ele>398.0</ele><time>2026-05-02T07:47:32.926Z</time></trkpt><trkpt lat="40.0777645" lon="15.4546869"><ele>398.0</ele><time>2026-05-02T07:47:33.917Z</time></trkpt><trkpt lat="40.077652" lon="15.454594"><ele>398.0</ele><time>2026-05-02T07:47:34.919Z</time></trkpt><trkpt lat="40.0775315" lon="15.4545216"><ele>398.0</ele><time>2026-05-02T07:47:35.925Z</time></trkpt><trkpt lat="40.0774173" lon="15.4544751"><ele>400.2</ele><time>2026-05-02T07:47:36.921Z</time></trkpt><trkpt lat="40.0773165" lon="15.4544444"><ele>402.4</ele><time>2026-05-02T07:47:37.928Z</time></trkpt><trkpt lat="40.0772297" lon="15.4544199"><ele>404.59999999999997</ele><time>2026-05-02T07:47:38.93Z</time></trkpt><trkpt lat="40.0771508" lon="15.454398"><ele>406.79999999999995</ele><time>2026-05-02T07:47:39.913Z</time></trkpt><trkpt lat="40.0770853" lon="15.4543932"><ele>409.0</ele><time>2026-05-02T07:47:40.924Z</time></trkpt><trkpt lat="40.0769802" lon="15.454468"><ele>409.00000000000006</ele><time>2026-05-02T07:47:42.918Z</time></trkpt><trkpt lat="40.0769401" lon="15.4545552"><ele>409.0</ele><time>2026-05-02T07:47:43.92Z</time></trkpt><trkpt lat="40.0769091" lon="15.4546779"><ele>409.0</ele><time>2026-05-02T07:47:44.925Z</time></trkpt><trkpt lat="40.0768845" lon="15.4547876"><ele>409.0</ele><time>2026-05-02T07:47:45.93Z</time></trkpt><trkpt lat="40.0768449" lon="15.4548691"><ele>409.00000000000006</ele><time>2026-05-02T07:47:46.915Z</time></trkpt><trkpt lat="40.0768011" lon="15.4549429"><ele>409.0</ele><time>2026-05-02T07:47:47.92Z</time></trkpt><trkpt lat="40.0767474" lon="15.4550259"><ele>407.79999999999995</ele><time>2026-05-02T07:47:48.924Z</time></trkpt><trkpt lat="40.076678" lon="15.4550981"><ele>406.59999999999997</ele><time>2026-05-02T07:47:49.918Z</time></trkpt><trkpt lat="40.0766136" lon="15.4551549"><ele>405.4</ele><time>2026-05-02T07:47:50.917Z</time></trkpt><trkpt lat="40.0765562" lon="15.455222"><ele>404.2</ele><time>2026-05-02T07:47:51.918Z</time></trkpt><trkpt lat="40.0765107" lon="15.4553417"><ele>403.0</ele><time>2026-05-02T07:47:52.914Z</time></trkpt><trkpt lat="40.0764765" lon="15.4554924"><ele>400.79999999999995</ele><time>2026-05-02T07:47:53.915Z</time></trkpt><trkpt lat="40.0764327" lon="15.4556376"><ele>398.6</ele><time>2026-05-02T07:47:54.929Z</time></trkpt><trkpt lat="40.0763782" lon="15.4557492"><ele>396.4</ele><time>2026-05-02T07:47:55.918Z</time></trkpt><trkpt lat="40.0763189" lon="15.4558335"><ele>394.20000000000005</ele><time>2026-05-02T07:47:56.907Z</time></trkpt><trkpt lat="40.07624" lon="15.4558853"><ele>392.0</ele><time>2026-05-02T07:47:57.914Z</time></trkpt><trkpt lat="40.0761616" lon="15.4558798"><ele>392.0</ele><time>2026-05-02T07:47:58.916Z</time></trkpt><trkpt lat="40.0760701" lon="15.4558278"><ele>392.0</ele><time>2026-05-02T07:47:59.927Z</time></trkpt><trkpt lat="40.0759855" lon="15.4557372"><ele>392.0</ele><time>2026-05-02T07:48:00.929Z</time></trkpt><trkpt lat="40.0759034" lon="15.4556429"><ele>392.0</ele><time>2026-05-02T07:48:01.918Z</time></trkpt><trkpt lat="40.0758274" lon="15.4555614"><ele>392.0</ele><time>2026-05-02T07:48:02.926Z</time></trkpt><trkpt lat="40.0757611" lon="15.4555207"><ele>392.0</ele><time>2026-05-02T07:48:03.919Z</time></trkpt><trkpt lat="40.0756796" lon="15.4555255"><ele>392.0</ele><time>2026-05-02T07:48:04.932Z</time></trkpt><trkpt lat="40.075583" lon="15.4555824"><ele>392.0</ele><time>2026-05-02T07:48:05.917Z</time></trkpt><trkpt lat="40.0754846" lon="15.4556691"><ele>392.0</ele><time>2026-05-02T07:48:06.922Z</time></trkpt><trkpt lat="40.075374" lon="15.4557575"><ele>392.0</ele><time>2026-05-02T07:48:07.923Z</time></trkpt><trkpt lat="40.075257" lon="15.4558585"><ele>392.0</ele><time>2026-05-02T07:48:08.929Z</time></trkpt><trkpt lat="40.0751448" lon="15.4559637"><ele>392.0</ele><time>2026-05-02T07:48:09.915Z</time></trkpt><trkpt lat="40.0750399" lon="15.4560654"><ele>392.0</ele><time>2026-05-02T07:48:10.927Z</time></trkpt><trkpt lat="40.0749394" lon="15.4561503"><ele>392.0</ele><time>2026-05-02T07:48:11.918Z</time></trkpt><trkpt lat="40.0748434" lon="15.456226"><ele>394.0</ele><time>2026-05-02T07:48:12.928Z</time></trkpt><trkpt lat="40.0747484" lon="15.4562792"><ele>396.0</ele><time>2026-05-02T07:48:13.917Z</time></trkpt><trkpt lat="40.0746568" lon="15.4562811"><ele>398.0</ele><time>2026-05-02T07:48:14.93Z</time></trkpt><trkpt lat="40.0745675" lon="15.4562374"><ele>400.0</ele><time>2026-05-02T07:48:15.92Z</time></trkpt><trkpt lat="40.0744643" lon="15.4561916"><ele>402.0</ele><time>2026-05-02T07:48:16.92Z</time></trkpt><trkpt lat="40.07435" lon="15.4561605"><ele>402.0</ele><time>2026-05-02T07:48:17.915Z</time></trkpt><trkpt lat="40.0742344" lon="15.4561506"><ele>402.0</ele><time>2026-05-02T07:48:18.923Z</time></trkpt><trkpt lat="40.0740939" lon="15.4561424"><ele>402.0</ele><time>2026-05-02T07:48:19.916Z</time></trkpt><trkpt lat="40.0739649" lon="15.4561456"><ele>402.0</ele><time>2026-05-02T07:48:20.934Z</time></trkpt><trkpt lat="40.0738556" lon="15.4561469"><ele>402.0</ele><time>2026-05-02T07:48:21.918Z</time></trkpt><trkpt lat="40.0737606" lon="15.4561491"><ele>402.0</ele><time>2026-05-02T07:48:22.934Z</time></trkpt><trkpt lat="40.0736735" lon="15.4561598"><ele>402.0</ele><time>2026-05-02T07:48:23.922Z</time></trkpt><trkpt lat="40.0735908" lon="15.4561662"><ele>402.0</ele><time>2026-05-02T07:48:24.925Z</time></trkpt><trkpt lat="40.0735023" lon="15.4561653"><ele>402.0</ele><time>2026-05-02T07:48:25.925Z</time></trkpt><trkpt lat="40.0734103" lon="15.4561662"><ele>402.0</ele><time>2026-05-02T07:48:26.917Z</time></trkpt><trkpt lat="40.073315" lon="15.4561648"><ele>401.40000000000003</ele><time>2026-05-02T07:48:27.93Z</time></trkpt><trkpt lat="40.0732222" lon="15.4561714"><ele>400.8</ele><time>2026-05-02T07:48:28.923Z</time></trkpt><trkpt lat="40.0731113" lon="15.4561916"><ele>400.2</ele><time>2026-05-02T07:48:29.921Z</time></trkpt><trkpt lat="40.0729975" lon="15.4562208"><ele>399.6</ele><time>2026-05-02T07:48:30.918Z</time></trkpt><trkpt lat="40.072887" lon="15.4562486"><ele>399.0</ele><time>2026-05-02T07:48:31.923Z</time></trkpt><trkpt lat="40.0727732" lon="15.4562792"><ele>397.2</ele><time>2026-05-02T07:48:32.924Z</time></trkpt><trkpt lat="40.0726635" lon="15.4563055"><ele>395.4</ele><time>2026-05-02T07:48:33.919Z</time></trkpt><trkpt lat="40.0725483" lon="15.4563351"><ele>393.6</ele><time>2026-05-02T07:48:34.927Z</time></trkpt><trkpt lat="40.0724678" lon="15.4563692"><ele>391.8</ele><time>2026-05-02T07:48:35.917Z</time></trkpt><trkpt lat="40.0724122" lon="15.4564095"><ele>390.0</ele><time>2026-05-02T07:48:36.921Z</time></trkpt><trkpt lat="40.0723301" lon="15.4564696"><ele>390.0</ele><time>2026-05-02T07:48:38.927Z</time></trkpt><trkpt lat="40.07227" lon="15.4565066"><ele>390.0</ele><time>2026-05-02T07:48:40.924Z</time></trkpt><trkpt lat="40.0722138" lon="15.4565461"><ele>390.0</ele><time>2026-05-02T07:48:42.936Z</time></trkpt><trkpt lat="40.0721369" lon="15.4565927"><ele>390.0</ele><time>2026-05-02T07:48:45.921Z</time></trkpt><trkpt lat="40.072072" lon="15.4566365"><ele>390.0</ele><time>2026-05-02T07:48:47.917Z</time></trkpt><trkpt lat="40.0720014" lon="15.4566862"><ele>390.0</ele><time>2026-05-02T07:48:49.92Z</time></trkpt><trkpt lat="40.0719086" lon="15.4567403"><ele>390.0</ele><time>2026-05-02T07:48:51.925Z</time></trkpt><trkpt lat="40.0717824" lon="15.4567531"><ele>390.0</ele><time>2026-05-02T07:48:53.917Z</time></trkpt><trkpt lat="40.0717161" lon="15.4567474"><ele>390.0</ele><time>2026-05-02T07:48:54.937Z</time></trkpt><trkpt lat="40.0716462" lon="15.4567459"><ele>390.0</ele><time>2026-05-02T07:48:55.92Z</time></trkpt><trkpt lat="40.071516" lon="15.4567375"><ele>390.0</ele><time>2026-05-02T07:48:57.93Z</time></trkpt><trkpt lat="40.0714228" lon="15.4567189"><ele>390.25</ele><time>2026-05-02T07:48:58.921Z</time></trkpt><trkpt lat="40.0713043" lon="15.4566956"><ele>390.5</ele><time>2026-05-02T07:48:59.926Z</time></trkpt><trkpt lat="40.0711818" lon="15.4566658"><ele>390.75</ele><time>2026-05-02T07:49:00.921Z</time></trkpt><trkpt lat="40.0710664" lon="15.4566494"><ele>391.0</ele><time>2026-05-02T07:49:01.917Z</time></trkpt><trkpt lat="40.0709568" lon="15.4566404"><ele>391.0</ele><time>2026-05-02T07:49:02.932Z</time></trkpt><trkpt lat="40.0708567" lon="15.4566614"><ele>391.0</ele><time>2026-05-02T07:49:03.922Z</time></trkpt><trkpt lat="40.07076" lon="15.4566687"><ele>391.0</ele><time>2026-05-02T07:49:04.92Z</time></trkpt><trkpt lat="40.0706707" lon="15.4567371"><ele>391.0</ele><time>2026-05-02T07:49:05.925Z</time></trkpt><trkpt lat="40.0705786" lon="15.4568223"><ele>391.0</ele><time>2026-05-02T07:49:06.93Z</time></trkpt><trkpt lat="40.0704957" lon="15.4569044"><ele>390.00000000000006</ele><time>2026-05-02T07:49:07.933Z</time></trkpt><trkpt lat="40.0704291" lon="15.45697"><ele>389.0</ele><time>2026-05-02T07:49:08.925Z</time></trkpt><trkpt lat="40.0703727" lon="15.4570427"><ele>388.0</ele><time>2026-05-02T07:49:09.927Z</time></trkpt><trkpt lat="40.0703207" lon="15.4571154"><ele>387.0</ele><time>2026-05-02T07:49:10.922Z</time></trkpt><trkpt lat="40.0702908" lon="15.4572038"><ele>386.00000000000006</ele><time>2026-05-02T07:49:11.91Z</time></trkpt><trkpt lat="40.0702741" lon="15.4573017"><ele>385.0</ele><time>2026-05-02T07:49:12.929Z</time></trkpt><trkpt lat="40.0702759" lon="15.457402"><ele>385.0</ele><time>2026-05-02T07:49:13.918Z</time></trkpt><trkpt lat="40.0702828" lon="15.4575091"><ele>385.0</ele><time>2026-05-02T07:49:14.926Z</time></trkpt><trkpt lat="40.0703034" lon="15.4576006"><ele>385.0</ele><time>2026-05-02T07:49:15.922Z</time></trkpt><trkpt lat="40.0703223" lon="15.4577567"><ele>385.0</ele><time>2026-05-02T07:49:17.924Z</time></trkpt><trkpt lat="40.0702515" lon="15.4578684"><ele>385.0</ele><time>2026-05-02T07:49:19.919Z</time></trkpt><trkpt lat="40.0701305" lon="15.4578392"><ele>385.00000000000006</ele><time>2026-05-02T07:49:21.919Z</time></trkpt><trkpt lat="40.0700754" lon="15.4577797"><ele>385.0</ele><time>2026-05-02T07:49:22.92Z</time></trkpt><trkpt lat="40.0700044" lon="15.4577081"><ele>385.0</ele><time>2026-05-02T07:49:23.921Z</time></trkpt><trkpt lat="40.0699187" lon="15.4576416"><ele>385.0</ele><time>2026-05-02T07:49:24.922Z</time></trkpt><trkpt lat="40.0698389" lon="15.4576015"><ele>385.00000000000006</ele><time>2026-05-02T07:49:25.92Z</time></trkpt><trkpt lat="40.0697552" lon="15.4575862"><ele>385.0</ele><time>2026-05-02T07:49:26.925Z</time></trkpt><trkpt lat="40.069674" lon="15.4575794"><ele>384.83333333333337</ele><time>2026-05-02T07:49:27.919Z</time></trkpt><trkpt lat="40.0696081" lon="15.4575938"><ele>384.6666666666667</ele><time>2026-05-02T07:49:28.93Z</time></trkpt><trkpt lat="40.0695512" lon="15.4576332"><ele>384.5</ele><time>2026-05-02T07:49:29.928Z</time></trkpt><trkpt lat="40.0695126" lon="15.4577068"><ele>384.33333333333337</ele><time>2026-05-02T07:49:30.925Z</time></trkpt><trkpt lat="40.069488" lon="15.457801"><ele>384.1666666666667</ele><time>2026-05-02T07:49:31.919Z</time></trkpt><trkpt lat="40.0694901" lon="15.4579288"><ele>384.0</ele><time>2026-05-02T07:49:32.928Z</time></trkpt><trkpt lat="40.0694971" lon="15.4580479"><ele>382.6</ele><time>2026-05-02T07:49:33.921Z</time></trkpt><trkpt lat="40.069503" lon="15.4581548"><ele>381.2</ele><time>2026-05-02T07:49:34.926Z</time></trkpt><trkpt lat="40.0695278" lon="15.4582915"><ele>379.8</ele><time>2026-05-02T07:49:35.916Z</time></trkpt><trkpt lat="40.0695738" lon="15.4584441"><ele>378.40000000000003</ele><time>2026-05-02T07:49:36.925Z</time></trkpt><trkpt lat="40.0696372" lon="15.4585837"><ele>377.0</ele><time>2026-05-02T07:49:37.915Z</time></trkpt><trkpt lat="40.0696879" lon="15.4587064"><ele>377.0</ele><time>2026-05-02T07:49:38.941Z</time></trkpt><trkpt lat="40.0697039" lon="15.4588032"><ele>377.0</ele><time>2026-05-02T07:49:39.924Z</time></trkpt><trkpt lat="40.0696865" lon="15.4589235"><ele>377.0</ele><time>2026-05-02T07:49:40.925Z</time></trkpt><trkpt lat="40.0696461" lon="15.4590391"><ele>377.0</ele><time>2026-05-02T07:49:41.915Z</time></trkpt><trkpt lat="40.0695992" lon="15.4591422"><ele>377.0</ele><time>2026-05-02T07:49:42.934Z</time></trkpt><trkpt lat="40.069568" lon="15.45925"><ele>377.0</ele><time>2026-05-02T07:49:43.923Z</time></trkpt><trkpt lat="40.0695816" lon="15.4593663"><ele>377.0</ele><time>2026-05-02T07:49:44.914Z</time></trkpt><trkpt lat="40.0696366" lon="15.459484"><ele>377.0</ele><time>2026-05-02T07:49:45.904Z</time></trkpt><trkpt lat="40.0697301" lon="15.4595821"><ele>377.0</ele><time>2026-05-02T07:49:46.925Z</time></trkpt><trkpt lat="40.0698524" lon="15.4596488"><ele>377.0</ele><time>2026-05-02T07:49:47.927Z</time></trkpt><trkpt lat="40.0699565" lon="15.4597097"><ele>374.40000000000003</ele><time>2026-05-02T07:49:48.915Z</time></trkpt><trkpt lat="40.07005" lon="15.4597878"><ele>371.8</ele><time>2026-05-02T07:49:49.915Z</time></trkpt><trkpt lat="40.0701339" lon="15.4598649"><ele>369.2</ele><time>2026-05-02T07:49:50.933Z</time></trkpt><trkpt lat="40.0702177" lon="15.4599423"><ele>366.6</ele><time>2026-05-02T07:49:51.92Z</time></trkpt><trkpt lat="40.0702879" lon="15.460027"><ele>364.0</ele><time>2026-05-02T07:49:52.917Z</time></trkpt><trkpt lat="40.0703494" lon="15.460107"><ele>364.0</ele><time>2026-05-02T07:49:53.918Z</time></trkpt><trkpt lat="40.0704108" lon="15.4601917"><ele>364.0</ele><time>2026-05-02T07:49:54.925Z</time></trkpt><trkpt lat="40.0704696" lon="15.4602693"><ele>364.0</ele><time>2026-05-02T07:49:55.911Z</time></trkpt><trkpt lat="40.0705103" lon="15.4603494"><ele>364.0</ele><time>2026-05-02T07:49:56.916Z</time></trkpt><trkpt lat="40.0705393" lon="15.4604319"><ele>364.0</ele><time>2026-05-02T07:49:57.917Z</time></trkpt><trkpt lat="40.0705539" lon="15.4605258"><ele>364.0</ele><time>2026-05-02T07:49:58.921Z</time></trkpt><trkpt lat="40.0705434" lon="15.4606247"><ele>365.2</ele><time>2026-05-02T07:49:59.92Z</time></trkpt><trkpt lat="40.070503" lon="15.4607162"><ele>366.4</ele><time>2026-05-02T07:50:00.925Z</time></trkpt><trkpt lat="40.070448" lon="15.4608014"><ele>367.6</ele><time>2026-05-02T07:50:01.928Z</time></trkpt><trkpt lat="40.070401" lon="15.4608993"><ele>368.8</ele><time>2026-05-02T07:50:02.918Z</time></trkpt><trkpt lat="40.0703489" lon="15.4610195"><ele>370.0</ele><time>2026-05-02T07:50:03.916Z</time></trkpt><trkpt lat="40.0703329" lon="15.4611486"><ele>369.5</ele><time>2026-05-02T07:50:04.931Z</time></trkpt><trkpt lat="40.0703571" lon="15.4612841"><ele>369.0</ele><time>2026-05-02T07:50:05.916Z</time></trkpt><trkpt lat="40.0703914" lon="15.4614282"><ele>368.5</ele><time>2026-05-02T07:50:06.917Z</time></trkpt><trkpt lat="40.0704293" lon="15.4615825"><ele>368.0</ele><time>2026-05-02T07:50:07.915Z</time></trkpt><trkpt lat="40.0704819" lon="15.4617378"><ele>368.0</ele><time>2026-05-02T07:50:08.919Z</time></trkpt><trkpt lat="40.0705373" lon="15.4618845"><ele>368.0</ele><time>2026-05-02T07:50:09.91Z</time></trkpt><trkpt lat="40.0706035" lon="15.462016"><ele>368.0</ele><time>2026-05-02T07:50:10.918Z</time></trkpt><trkpt lat="40.0706657" lon="15.462142"><ele>368.0</ele><time>2026-05-02T07:50:11.918Z</time></trkpt><trkpt lat="40.0707132" lon="15.4622705"><ele>365.2</ele><time>2026-05-02T07:50:12.92Z</time></trkpt><trkpt lat="40.0707542" lon="15.462398"><ele>362.4</ele><time>2026-05-02T07:50:13.926Z</time></trkpt><trkpt lat="40.0707757" lon="15.4625086"><ele>359.59999999999997</ele><time>2026-05-02T07:50:14.931Z</time></trkpt><trkpt lat="40.0707832" lon="15.4626002"><ele>356.79999999999995</ele><time>2026-05-02T07:50:15.916Z</time></trkpt><trkpt lat="40.0707739" lon="15.4626854"><ele>354.0</ele><time>2026-05-02T07:50:16.916Z</time></trkpt><trkpt lat="40.0707046" lon="15.4628226"><ele>354.0</ele><time>2026-05-02T07:50:18.916Z</time></trkpt><trkpt lat="40.0706418" lon="15.462864"><ele>354.0</ele><time>2026-05-02T07:50:19.911Z</time></trkpt><trkpt lat="40.0705578" lon="15.4628914"><ele>354.0</ele><time>2026-05-02T07:50:20.912Z</time></trkpt><trkpt lat="40.0704634" lon="15.4629179"><ele>354.0</ele><time>2026-05-02T07:50:21.92Z</time></trkpt><trkpt lat="40.0703606" lon="15.4629492"><ele>354.0</ele><time>2026-05-02T07:50:22.923Z</time></trkpt><trkpt lat="40.0702511" lon="15.4629857"><ele>349.79999999999995</ele><time>2026-05-02T07:50:23.916Z</time></trkpt><trkpt lat="40.0701416" lon="15.4630208"><ele>345.59999999999997</ele><time>2026-05-02T07:50:24.925Z</time></trkpt><trkpt lat="40.0700409" lon="15.4630584"><ele>341.4</ele><time>2026-05-02T07:50:25.922Z</time></trkpt><trkpt lat="40.0699448" lon="15.463088"><ele>337.2</ele><time>2026-05-02T07:50:26.921Z</time></trkpt><trkpt lat="40.0698652" lon="15.4631123"><ele>333.0</ele><time>2026-05-02T07:50:27.924Z</time></trkpt><trkpt lat="40.0697958" lon="15.4631425"><ele>333.0</ele><time>2026-05-02T07:50:28.93Z</time></trkpt><trkpt lat="40.0697259" lon="15.4631816"><ele>333.0</ele><time>2026-05-02T07:50:30.911Z</time></trkpt><trkpt lat="40.0697184" lon="15.4632806"><ele>333.0</ele><time>2026-05-02T07:50:34.917Z</time></trkpt><trkpt lat="40.0697942" lon="15.4633394"><ele>333.0</ele><time>2026-05-02T07:50:37.915Z</time></trkpt><trkpt lat="40.0699102" lon="15.4634296"><ele>333.0</ele><time>2026-05-02T07:50:39.921Z</time></trkpt><trkpt lat="40.069979" lon="15.4635106"><ele>333.0</ele><time>2026-05-02T07:50:40.922Z</time></trkpt><trkpt lat="40.0700415" lon="15.4636193"><ele>333.0</ele><time>2026-05-02T07:50:41.923Z</time></trkpt><trkpt lat="40.070103" lon="15.4637339"><ele>333.0</ele><time>2026-05-02T07:50:42.932Z</time></trkpt><trkpt lat="40.0701729" lon="15.4638441"><ele>333.0</ele><time>2026-05-02T07:50:43.924Z</time></trkpt><trkpt lat="40.0702619" lon="15.4639468"><ele>333.0</ele><time>2026-05-02T07:50:44.932Z</time></trkpt><trkpt lat="40.0703682" lon="15.4640659"><ele>331.59999999999997</ele><time>2026-05-02T07:50:45.924Z</time></trkpt><trkpt lat="40.0704586" lon="15.4641591"><ele>330.2</ele><time>2026-05-02T07:50:46.934Z</time></trkpt><trkpt lat="40.0705369" lon="15.4642406"><ele>328.8</ele><time>2026-05-02T07:50:47.92Z</time></trkpt><trkpt lat="40.0706253" lon="15.4643055"><ele>327.4</ele><time>2026-05-02T07:50:48.928Z</time></trkpt><trkpt lat="40.0707228" lon="15.4643686"><ele>326.0</ele><time>2026-05-02T07:50:49.921Z</time></trkpt><trkpt lat="40.0708089" lon="15.4644181"><ele>326.0</ele><time>2026-05-02T07:50:50.923Z</time></trkpt><trkpt lat="40.0708844" lon="15.4644642"><ele>326.0</ele><time>2026-05-02T07:50:51.924Z</time></trkpt><trkpt lat="40.0709449" lon="15.4645146"><ele>326.0</ele><time>2026-05-02T07:50:52.939Z</time></trkpt><trkpt lat="40.0709865" lon="15.4645771"><ele>326.0</ele><time>2026-05-02T07:50:53.927Z</time></trkpt><trkpt lat="40.0710182" lon="15.4646605"><ele>326.0</ele><time>2026-05-02T07:50:54.933Z</time></trkpt><trkpt lat="40.0710376" lon="15.4647774"><ele>326.0</ele><time>2026-05-02T07:50:55.93Z</time></trkpt><trkpt lat="40.0710487" lon="15.4649238"><ele>324.25</ele><time>2026-05-02T07:50:56.924Z</time></trkpt><trkpt lat="40.0710758" lon="15.4650918"><ele>322.5</ele><time>2026-05-02T07:50:57.92Z</time></trkpt><trkpt lat="40.0711117" lon="15.4652601"><ele>320.75</ele><time>2026-05-02T07:50:58.924Z</time></trkpt><trkpt lat="40.0711495" lon="15.465419"><ele>319.0</ele><time>2026-05-02T07:50:59.915Z</time></trkpt><trkpt lat="40.0711841" lon="15.4655717"><ele>318.0</ele><time>2026-05-02T07:51:00.93Z</time></trkpt><trkpt lat="40.0712243" lon="15.4657209"><ele>317.0</ele><time>2026-05-02T07:51:01.94Z</time></trkpt><trkpt lat="40.0712674" lon="15.4658734"><ele>316.0</ele><time>2026-05-02T07:51:02.927Z</time></trkpt><trkpt lat="40.0713156" lon="15.4660193"><ele>315.0</ele><time>2026-05-02T07:51:03.914Z</time></trkpt><trkpt lat="40.0713574" lon="15.4661573"><ele>313.6</ele><time>2026-05-02T07:51:04.927Z</time></trkpt><trkpt lat="40.0713954" lon="15.4662889"><ele>312.2</ele><time>2026-05-02T07:51:05.927Z</time></trkpt><trkpt lat="40.0714208" lon="15.4664198"><ele>310.8</ele><time>2026-05-02T07:51:06.927Z</time></trkpt><trkpt lat="40.0714418" lon="15.4665465"><ele>309.4</ele><time>2026-05-02T07:51:07.915Z</time></trkpt><trkpt lat="40.0714657" lon="15.466687"><ele>308.0</ele><time>2026-05-02T07:51:08.933Z</time></trkpt><trkpt lat="40.0714993" lon="15.4668352"><ele>308.0</ele><time>2026-05-02T07:51:09.911Z</time></trkpt><trkpt lat="40.0715342" lon="15.4669865"><ele>308.0</ele><time>2026-05-02T07:51:10.926Z</time></trkpt><trkpt lat="40.0715647" lon="15.4671171"><ele>308.0</ele><time>2026-05-02T07:51:11.918Z</time></trkpt><trkpt lat="40.071584" lon="15.4672251"><ele>308.0</ele><time>2026-05-02T07:51:12.919Z</time></trkpt><trkpt lat="40.0715964" lon="15.4673143"><ele>308.0</ele><time>2026-05-02T07:51:13.921Z</time></trkpt><trkpt lat="40.0716026" lon="15.4674015"><ele>308.0</ele><time>2026-05-02T07:51:14.925Z</time></trkpt><trkpt lat="40.0715981" lon="15.4674856"><ele>306.2</ele><time>2026-05-02T07:51:15.928Z</time></trkpt><trkpt lat="40.0715818" lon="15.4675747"><ele>304.4</ele><time>2026-05-02T07:51:16.923Z</time></trkpt><trkpt lat="40.0715458" lon="15.4676914"><ele>302.59999999999997</ele><time>2026-05-02T07:51:17.923Z</time></trkpt><trkpt lat="40.0714977" lon="15.4678406"><ele>300.8</ele><time>2026-05-02T07:51:18.942Z</time></trkpt><trkpt lat="40.071448" lon="15.4680058"><ele>299.0</ele><time>2026-05-02T07:51:19.91Z</time></trkpt><trkpt lat="40.071396" lon="15.4681602"><ele>297.4</ele><time>2026-05-02T07:51:20.932Z</time></trkpt><trkpt lat="40.0713478" lon="15.4683021"><ele>295.79999999999995</ele><time>2026-05-02T07:51:21.928Z</time></trkpt><trkpt lat="40.0713061" lon="15.4684276"><ele>294.20000000000005</ele><time>2026-05-02T07:51:22.919Z</time></trkpt><trkpt lat="40.0712735" lon="15.4685393"><ele>292.6</ele><time>2026-05-02T07:51:23.919Z</time></trkpt><trkpt lat="40.0712367" lon="15.4686549"><ele>291.0</ele><time>2026-05-02T07:51:24.915Z</time></trkpt><trkpt lat="40.0711982" lon="15.4687829"><ele>290.8</ele><time>2026-05-02T07:51:25.927Z</time></trkpt><trkpt lat="40.0711628" lon="15.4689086"><ele>290.6</ele><time>2026-05-02T07:51:26.921Z</time></trkpt><trkpt lat="40.0711246" lon="15.4690314"><ele>290.4</ele><time>2026-05-02T07:51:27.921Z</time></trkpt><trkpt lat="40.0710843" lon="15.4691585"><ele>290.2</ele><time>2026-05-02T07:51:28.924Z</time></trkpt><trkpt lat="40.0710373" lon="15.4692981"><ele>290.0</ele><time>2026-05-02T07:51:29.933Z</time></trkpt><trkpt lat="40.0709908" lon="15.4694559"><ele>289.25</ele><time>2026-05-02T07:51:30.922Z</time></trkpt><trkpt lat="40.0709449" lon="15.4696213"><ele>288.5</ele><time>2026-05-02T07:51:31.915Z</time></trkpt><trkpt lat="40.0708933" lon="15.4697886"><ele>287.75</ele><time>2026-05-02T07:51:32.916Z</time></trkpt><trkpt lat="40.0708462" lon="15.4699408"><ele>287.0</ele><time>2026-05-02T07:51:33.921Z</time></trkpt><trkpt lat="40.0707977" lon="15.4700885"><ele>285.0</ele><time>2026-05-02T07:51:34.92Z</time></trkpt><trkpt lat="40.0707576" lon="15.4702473"><ele>283.0</ele><time>2026-05-02T07:51:35.918Z</time></trkpt><trkpt lat="40.0707202" lon="15.4704155"><ele>281.0</ele><time>2026-05-02T07:51:36.92Z</time></trkpt><trkpt lat="40.0706843" lon="15.470581"><ele>279.0</ele><time>2026-05-02T07:51:37.925Z</time></trkpt><trkpt lat="40.0706465" lon="15.470751"><ele>279.0</ele><time>2026-05-02T07:51:38.918Z</time></trkpt><trkpt lat="40.0706107" lon="15.4709103"><ele>279.0</ele><time>2026-05-02T07:51:39.916Z</time></trkpt><trkpt lat="40.0705734" lon="15.4710769"><ele>279.0</ele><time>2026-05-02T07:51:40.937Z</time></trkpt><trkpt lat="40.0705359" lon="15.471243"><ele>279.0</ele><time>2026-05-02T07:51:41.921Z</time></trkpt><trkpt lat="40.0704978" lon="15.4713936"><ele>279.5</ele><time>2026-05-02T07:51:42.923Z</time></trkpt><trkpt lat="40.0704634" lon="15.4715489"><ele>280.0</ele><time>2026-05-02T07:51:43.93Z</time></trkpt><trkpt lat="40.0704435" lon="15.4717378"><ele>280.5</ele><time>2026-05-02T07:51:44.925Z</time></trkpt><trkpt lat="40.0704369" lon="15.471951"><ele>281.0</ele><time>2026-05-02T07:51:45.922Z</time></trkpt><trkpt lat="40.0704274" lon="15.4721667"><ele>280.0</ele><time>2026-05-02T07:51:46.924Z</time></trkpt><trkpt lat="40.0704186" lon="15.4723673"><ele>279.0</ele><time>2026-05-02T07:51:47.922Z</time></trkpt><trkpt lat="40.0704101" lon="15.4725576"><ele>278.0</ele><time>2026-05-02T07:51:48.917Z</time></trkpt><trkpt lat="40.0703998" lon="15.4727366"><ele>277.0</ele><time>2026-05-02T07:51:49.923Z</time></trkpt><trkpt lat="40.0703953" lon="15.4728979"><ele>277.0</ele><time>2026-05-02T07:51:50.934Z</time></trkpt><trkpt lat="40.0704059" lon="15.4730597"><ele>277.0</ele><time>2026-05-02T07:51:51.919Z</time></trkpt><trkpt lat="40.0704213" lon="15.4732336"><ele>277.0</ele><time>2026-05-02T07:51:52.927Z</time></trkpt><trkpt lat="40.0704299" lon="15.4734179"><ele>277.0</ele><time>2026-05-02T07:51:53.92Z</time></trkpt><trkpt lat="40.0704411" lon="15.4736034"><ele>277.0</ele><time>2026-05-02T07:51:54.932Z</time></trkpt><trkpt lat="40.0704524" lon="15.473777"><ele>277.0</ele><time>2026-05-02T07:51:55.935Z</time></trkpt><trkpt lat="40.0704653" lon="15.4739534"><ele>277.0</ele><time>2026-05-02T07:51:56.929Z</time></trkpt><trkpt lat="40.0704762" lon="15.4741278"><ele>277.0</ele><time>2026-05-02T07:51:57.926Z</time></trkpt><trkpt lat="40.0704823" lon="15.4742802"><ele>277.0</ele><time>2026-05-02T07:51:58.921Z</time></trkpt><trkpt lat="40.070495" lon="15.4744316"><ele>277.0</ele><time>2026-05-02T07:51:59.919Z</time></trkpt><trkpt lat="40.0705149" lon="15.4746068"><ele>277.0</ele><time>2026-05-02T07:52:00.933Z</time></trkpt><trkpt lat="40.0705372" lon="15.4747724"><ele>277.0</ele><time>2026-05-02T07:52:01.92Z</time></trkpt><trkpt lat="40.0705551" lon="15.4749312"><ele>276.0</ele><time>2026-05-02T07:52:02.923Z</time></trkpt><trkpt lat="40.0705694" lon="15.475086"><ele>275.0</ele><time>2026-05-02T07:52:03.924Z</time></trkpt><trkpt lat="40.0705856" lon="15.4752478"><ele>274.0</ele><time>2026-05-02T07:52:04.933Z</time></trkpt><trkpt lat="40.0705929" lon="15.4754077"><ele>273.0</ele><time>2026-05-02T07:52:05.921Z</time></trkpt><trkpt lat="40.0705986" lon="15.4755647"><ele>270.25</ele><time>2026-05-02T07:52:06.936Z</time></trkpt><trkpt lat="40.0705976" lon="15.4757166"><ele>267.5</ele><time>2026-05-02T07:52:07.92Z</time></trkpt><trkpt lat="40.07059" lon="15.4758628"><ele>264.75</ele><time>2026-05-02T07:52:08.915Z</time></trkpt><trkpt lat="40.0705678" lon="15.4760039"><ele>262.0</ele><time>2026-05-02T07:52:09.916Z</time></trkpt><trkpt lat="40.0705349" lon="15.4761499"><ele>261.75</ele><time>2026-05-02T07:52:10.934Z</time></trkpt><trkpt lat="40.070486" lon="15.4763086"><ele>261.5</ele><time>2026-05-02T07:52:11.917Z</time></trkpt><trkpt lat="40.0704359" lon="15.4764841"><ele>261.25</ele><time>2026-05-02T07:52:12.921Z</time></trkpt><trkpt lat="40.0703972" lon="15.476666"><ele>261.0</ele><time>2026-05-02T07:52:13.925Z</time></trkpt><trkpt lat="40.0703587" lon="15.4768374"><ele>261.0</ele><time>2026-05-02T07:52:14.93Z</time></trkpt><trkpt lat="40.0703204" lon="15.4769832"><ele>261.0</ele><time>2026-05-02T07:52:15.934Z</time></trkpt><trkpt lat="40.0702695" lon="15.4771335"><ele>261.0</ele><time>2026-05-02T07:52:16.923Z</time></trkpt><trkpt lat="40.0702019" lon="15.4772788"><ele>261.0</ele><time>2026-05-02T07:52:17.915Z</time></trkpt><trkpt lat="40.0701201" lon="15.4774246"><ele>262.75</ele><time>2026-05-02T07:52:18.923Z</time></trkpt><trkpt lat="40.0700378" lon="15.4775681"><ele>264.5</ele><time>2026-05-02T07:52:19.921Z</time></trkpt><trkpt lat="40.0699646" lon="15.4776999"><ele>266.25</ele><time>2026-05-02T07:52:20.927Z</time></trkpt><trkpt lat="40.0699018" lon="15.4778421"><ele>268.0</ele><time>2026-05-02T07:52:21.913Z</time></trkpt><trkpt lat="40.0698424" lon="15.4779808"><ele>264.6</ele><time>2026-05-02T07:52:22.93Z</time></trkpt><trkpt lat="40.0697884" lon="15.4781011"><ele>261.20000000000005</ele><time>2026-05-02T07:52:23.909Z</time></trkpt><trkpt lat="40.0697372" lon="15.4781925"><ele>257.8</ele><time>2026-05-02T07:52:24.923Z</time></trkpt><trkpt lat="40.0696989" lon="15.4782964"><ele>254.4</ele><time>2026-05-02T07:52:25.925Z</time></trkpt><trkpt lat="40.0696929" lon="15.4784267"><ele>251.0</ele><time>2026-05-02T07:52:26.922Z</time></trkpt><trkpt lat="40.069703" lon="15.4785758"><ele>251.0</ele><time>2026-05-02T07:52:27.918Z</time></trkpt><trkpt lat="40.0697073" lon="15.4787285"><ele>251.0</ele><time>2026-05-02T07:52:28.918Z</time></trkpt><trkpt lat="40.0697001" lon="15.4788763"><ele>251.0</ele><time>2026-05-02T07:52:29.921Z</time></trkpt><trkpt lat="40.069684" lon="15.4790295"><ele>251.0</ele><time>2026-05-02T07:52:30.929Z</time></trkpt><trkpt lat="40.0696514" lon="15.4791869"><ele>249.75</ele><time>2026-05-02T07:52:31.92Z</time></trkpt><trkpt lat="40.0696047" lon="15.4793597"><ele>248.5</ele><time>2026-05-02T07:52:32.919Z</time></trkpt><trkpt lat="40.0695619" lon="15.479526"><ele>247.25</ele><time>2026-05-02T07:52:33.915Z</time></trkpt><trkpt lat="40.069529" lon="15.4796696"><ele>246.0</ele><time>2026-05-02T07:52:34.929Z</time></trkpt><trkpt lat="40.0695084" lon="15.479802"><ele>245.4</ele><time>2026-05-02T07:52:35.914Z</time></trkpt><trkpt lat="40.0694927" lon="15.4799418"><ele>244.8</ele><time>2026-05-02T07:52:36.934Z</time></trkpt><trkpt lat="40.0694743" lon="15.4800889"><ele>244.20000000000002</ele><time>2026-05-02T07:52:37.91Z</time></trkpt><trkpt lat="40.0694539" lon="15.4802104"><ele>243.60000000000002</ele><time>2026-05-02T07:52:38.923Z</time></trkpt><trkpt lat="40.0694343" lon="15.480309"><ele>243.0</ele><time>2026-05-02T07:52:39.922Z</time></trkpt><trkpt lat="40.0694305" lon="15.4803984"><ele>242.60000000000002</ele><time>2026-05-02T07:52:40.919Z</time></trkpt><trkpt lat="40.069447" lon="15.4805528"><ele>242.20000000000002</ele><time>2026-05-02T07:52:42.924Z</time></trkpt><trkpt lat="40.0694136" lon="15.4807116"><ele>241.8</ele><time>2026-05-02T07:52:44.927Z</time></trkpt><trkpt lat="40.0693602" lon="15.4808117"><ele>241.4</ele><time>2026-05-02T07:52:45.919Z</time></trkpt><trkpt lat="40.0692973" lon="15.4809135"><ele>241.0</ele><time>2026-05-02T07:52:46.931Z</time></trkpt><trkpt lat="40.0692347" lon="15.481008"><ele>241.0</ele><time>2026-05-02T07:52:47.92Z</time></trkpt><trkpt lat="40.0691869" lon="15.4811213"><ele>241.0</ele><time>2026-05-02T07:52:48.92Z</time></trkpt><trkpt lat="40.0691546" lon="15.4812717"><ele>241.0</ele><time>2026-05-02T07:52:49.918Z</time></trkpt><trkpt lat="40.0691278" lon="15.4814415"><ele>241.0</ele><time>2026-05-02T07:52:50.921Z</time></trkpt><trkpt lat="40.0690993" lon="15.4816132"><ele>238.75</ele><time>2026-05-02T07:52:51.916Z</time></trkpt><trkpt lat="40.0690492" lon="15.4817738"><ele>236.5</ele><time>2026-05-02T07:52:52.925Z</time></trkpt><trkpt lat="40.0689919" lon="15.4819085"><ele>234.25</ele><time>2026-05-02T07:52:53.927Z</time></trkpt><trkpt lat="40.068938" lon="15.4820301"><ele>232.0</ele><time>2026-05-02T07:52:54.929Z</time></trkpt><trkpt lat="40.0688824" lon="15.4821548"><ele>230.2</ele><time>2026-05-02T07:52:55.933Z</time></trkpt><trkpt lat="40.0688311" lon="15.4822847"><ele>228.39999999999998</ele><time>2026-05-02T07:52:56.925Z</time></trkpt><trkpt lat="40.0687807" lon="15.482396"><ele>226.60000000000002</ele><time>2026-05-02T07:52:57.916Z</time></trkpt><trkpt lat="40.0687386" lon="15.4824956"><ele>224.8</ele><time>2026-05-02T07:52:58.924Z</time></trkpt><trkpt lat="40.0687109" lon="15.4826021"><ele>223.0</ele><time>2026-05-02T07:52:59.91Z</time></trkpt><trkpt lat="40.0686985" lon="15.4827237"><ele>223.0</ele><time>2026-05-02T07:53:00.929Z</time></trkpt><trkpt lat="40.0686993" lon="15.4828638"><ele>223.0</ele><time>2026-05-02T07:53:01.92Z</time></trkpt><trkpt lat="40.0686984" lon="15.4830065"><ele>223.0</ele><time>2026-05-02T07:53:02.933Z</time></trkpt><trkpt lat="40.0686948" lon="15.4831489"><ele>223.0</ele><time>2026-05-02T07:53:03.923Z</time></trkpt><trkpt lat="40.0686928" lon="15.4832863"><ele>223.0</ele><time>2026-05-02T07:53:04.924Z</time></trkpt><trkpt lat="40.0686814" lon="15.4834146"><ele>222.8</ele><time>2026-05-02T07:53:05.917Z</time></trkpt><trkpt lat="40.0686678" lon="15.4835389"><ele>222.60000000000002</ele><time>2026-05-02T07:53:06.926Z</time></trkpt><trkpt lat="40.0686557" lon="15.483662"><ele>222.39999999999998</ele><time>2026-05-02T07:53:07.926Z</time></trkpt><trkpt lat="40.0686432" lon="15.4838077"><ele>222.2</ele><time>2026-05-02T07:53:08.927Z</time></trkpt><trkpt lat="40.0686243" lon="15.4839803"><ele>222.0</ele><time>2026-05-02T07:53:09.913Z</time></trkpt><trkpt lat="40.0685918" lon="15.484146"><ele>220.0</ele><time>2026-05-02T07:53:10.93Z</time></trkpt><trkpt lat="40.0685582" lon="15.4842991"><ele>218.0</ele><time>2026-05-02T07:53:11.922Z</time></trkpt><trkpt lat="40.0685316" lon="15.484436"><ele>216.0</ele><time>2026-05-02T07:53:12.919Z</time></trkpt><trkpt lat="40.0685093" lon="15.4845603"><ele>214.0</ele><time>2026-05-02T07:53:13.915Z</time></trkpt><trkpt lat="40.068496" lon="15.4846814"><ele>212.0</ele><time>2026-05-02T07:53:14.923Z</time></trkpt><trkpt lat="40.0685068" lon="15.4848054"><ele>210.33333333333334</ele><time>2026-05-02T07:53:15.927Z</time></trkpt><trkpt lat="40.0685225" lon="15.4849221"><ele>208.66666666666669</ele><time>2026-05-02T07:53:16.927Z</time></trkpt><trkpt lat="40.0685299" lon="15.4850189"><ele>207.0</ele><time>2026-05-02T07:53:17.92Z</time></trkpt><trkpt lat="40.068517" lon="15.4851086"><ele>205.33333333333331</ele><time>2026-05-02T07:53:18.915Z</time></trkpt><trkpt lat="40.0684765" lon="15.48519"><ele>203.66666666666666</ele><time>2026-05-02T07:53:19.921Z</time></trkpt><trkpt lat="40.0684126" lon="15.4852671"><ele>202.0</ele><time>2026-05-02T07:53:20.914Z</time></trkpt><trkpt lat="40.0683457" lon="15.4853488"><ele>199.8</ele><time>2026-05-02T07:53:21.921Z</time></trkpt><trkpt lat="40.068285" lon="15.4854375"><ele>197.6</ele><time>2026-05-02T07:53:22.924Z</time></trkpt><trkpt lat="40.0682424" lon="15.4855411"><ele>195.4</ele><time>2026-05-02T07:53:23.917Z</time></trkpt><trkpt lat="40.0682142" lon="15.485666"><ele>193.20000000000002</ele><time>2026-05-02T07:53:24.92Z</time></trkpt><trkpt lat="40.0682036" lon="15.4858158"><ele>191.0</ele><time>2026-05-02T07:53:25.929Z</time></trkpt><trkpt lat="40.0681922" lon="15.4859695"><ele>188.75</ele><time>2026-05-02T07:53:26.92Z</time></trkpt><trkpt lat="40.0681643" lon="15.486123"><ele>186.5</ele><time>2026-05-02T07:53:27.925Z</time></trkpt><trkpt lat="40.0681163" lon="15.4862666"><ele>184.25</ele><time>2026-05-02T07:53:28.932Z</time></trkpt><trkpt lat="40.06805" lon="15.486407"><ele>182.0</ele><time>2026-05-02T07:53:29.93Z</time></trkpt><trkpt lat="40.067989" lon="15.4865646"><ele>181.75</ele><time>2026-05-02T07:53:30.925Z</time></trkpt><trkpt lat="40.0679389" lon="15.486749"><ele>181.5</ele><time>2026-05-02T07:53:31.937Z</time></trkpt><trkpt lat="40.0678964" lon="15.4869283"><ele>181.25</ele><time>2026-05-02T07:53:32.932Z</time></trkpt><trkpt lat="40.0678623" lon="15.4870854"><ele>181.0</ele><time>2026-05-02T07:53:33.922Z</time></trkpt><trkpt lat="40.0678365" lon="15.4872232"><ele>180.8</ele><time>2026-05-02T07:53:34.93Z</time></trkpt><trkpt lat="40.0678049" lon="15.487336"><ele>180.60000000000002</ele><time>2026-05-02T07:53:35.922Z</time></trkpt><trkpt lat="40.0677534" lon="15.4874437"><ele>180.4</ele><time>2026-05-02T07:53:36.923Z</time></trkpt><trkpt lat="40.0676855" lon="15.487548"><ele>180.2</ele><time>2026-05-02T07:53:37.918Z</time></trkpt><trkpt lat="40.0676016" lon="15.4876493"><ele>180.0</ele><time>2026-05-02T07:53:38.92Z</time></trkpt><trkpt lat="40.0675226" lon="15.4877506"><ele>180.0</ele><time>2026-05-02T07:53:39.913Z</time></trkpt><trkpt lat="40.067455" lon="15.4878322"><ele>180.0</ele><time>2026-05-02T07:53:40.918Z</time></trkpt><trkpt lat="40.0673833" lon="15.4879025"><ele>180.0</ele><time>2026-05-02T07:53:41.909Z</time></trkpt><trkpt lat="40.0673064" lon="15.487963"><ele>180.0</ele><time>2026-05-02T07:53:42.923Z</time></trkpt><trkpt lat="40.0672379" lon="15.4880174"><ele>180.0</ele><time>2026-05-02T07:53:43.915Z</time></trkpt><trkpt lat="40.0671782" lon="15.4880601"><ele>180.0</ele><time>2026-05-02T07:53:44.926Z</time></trkpt><trkpt lat="40.0671245" lon="15.4881059"><ele>178.0</ele><time>2026-05-02T07:53:45.914Z</time></trkpt><trkpt lat="40.0670565" lon="15.4882285"><ele>176.0</ele><time>2026-05-02T07:53:47.922Z</time></trkpt><trkpt lat="40.0670498" lon="15.4883748"><ele>174.0</ele><time>2026-05-02T07:53:49.922Z</time></trkpt><trkpt lat="40.067048" lon="15.488462"><ele>172.0</ele><time>2026-05-02T07:53:50.912Z</time></trkpt><trkpt lat="40.0670445" lon="15.4885656"><ele>170.0</ele><time>2026-05-02T07:53:51.914Z</time></trkpt><trkpt lat="40.0670339" lon="15.4886807"><ele>169.0</ele><time>2026-05-02T07:53:52.918Z</time></trkpt><trkpt lat="40.067016" lon="15.4888016"><ele>168.0</ele><time>2026-05-02T07:53:53.922Z</time></trkpt><trkpt lat="40.0669996" lon="15.4889224"><ele>167.0</ele><time>2026-05-02T07:53:54.909Z</time></trkpt><trkpt lat="40.0669944" lon="15.4890328"><ele>166.0</ele><time>2026-05-02T07:53:55.919Z</time></trkpt><trkpt lat="40.0669955" lon="15.4891246"><ele>165.0</ele><time>2026-05-02T07:53:56.924Z</time></trkpt><trkpt lat="40.067" lon="15.4892126"><ele>164.0</ele><time>2026-05-02T07:53:57.909Z</time></trkpt><trkpt lat="40.0670046" lon="15.4892962"><ele>164.0</ele><time>2026-05-02T07:53:58.92Z</time></trkpt><trkpt lat="40.0670126" lon="15.4894391"><ele>164.0</ele><time>2026-05-02T07:54:00.92Z</time></trkpt><trkpt lat="40.0669856" lon="15.4895688"><ele>164.0</ele><time>2026-05-02T07:54:02.91Z</time></trkpt><trkpt lat="40.06691" lon="15.4896452"><ele>164.0</ele><time>2026-05-02T07:54:04.925Z</time></trkpt><trkpt lat="40.0668432" lon="15.4896726"><ele>164.0</ele><time>2026-05-02T07:54:05.923Z</time></trkpt><trkpt lat="40.0667754" lon="15.489715"><ele>162.5</ele><time>2026-05-02T07:54:06.926Z</time></trkpt><trkpt lat="40.0666839" lon="15.4897618"><ele>161.0</ele><time>2026-05-02T07:54:07.925Z</time></trkpt><trkpt lat="40.06658" lon="15.4898113"><ele>159.5</ele><time>2026-05-02T07:54:08.937Z</time></trkpt><trkpt lat="40.0664575" lon="15.4898701"><ele>158.0</ele><time>2026-05-02T07:54:09.923Z</time></trkpt><trkpt lat="40.066323" lon="15.489955"><ele>155.33333333333331</ele><time>2026-05-02T07:54:10.92Z</time></trkpt><trkpt lat="40.0661673" lon="15.4900353"><ele>152.66666666666666</ele><time>2026-05-02T07:54:11.919Z</time></trkpt><trkpt lat="40.0659992" lon="15.4901046"><ele>150.0</ele><time>2026-05-02T07:54:12.919Z</time></trkpt><trkpt lat="40.0658373" lon="15.4902091"><ele>149.25</ele><time>2026-05-02T07:54:13.927Z</time></trkpt><trkpt lat="40.0656991" lon="15.4903153"><ele>148.5</ele><time>2026-05-02T07:54:14.913Z</time></trkpt><trkpt lat="40.0655839" lon="15.4904222"><ele>147.75</ele><time>2026-05-02T07:54:15.918Z</time></trkpt><trkpt lat="40.0654862" lon="15.4905098"><ele>147.0</ele><time>2026-05-02T07:54:16.936Z</time></trkpt><trkpt lat="40.0654133" lon="15.4905776"><ele>147.0</ele><time>2026-05-02T07:54:17.921Z</time></trkpt><trkpt lat="40.0653607" lon="15.4906287"><ele>147.0</ele><time>2026-05-02T07:54:18.934Z</time></trkpt><trkpt lat="40.0652849" lon="15.4907025"><ele>147.0</ele><time>2026-05-02T07:54:20.914Z</time></trkpt><trkpt lat="40.0652154" lon="15.4907478"><ele>147.0</ele><time>2026-05-02T08:13:51.931Z</time></trkpt><trkpt lat="40.0651209" lon="15.4907986"><ele>147.0</ele><time>2026-05-02T08:13:53.922Z</time></trkpt><trkpt lat="40.0650527" lon="15.4907807"><ele>147.0</ele><time>2026-05-02T08:13:54.916Z</time></trkpt><trkpt lat="40.0649886" lon="15.4907106"><ele>144.79999999999998</ele><time>2026-05-02T08:13:55.92Z</time></trkpt><trkpt lat="40.0649163" lon="15.4906178"><ele>142.6</ele><time>2026-05-02T08:13:56.906Z</time></trkpt><trkpt lat="40.0648488" lon="15.4905183"><ele>140.39999999999998</ele><time>2026-05-02T08:13:57.905Z</time></trkpt><trkpt lat="40.0647737" lon="15.4904231"><ele>138.2</ele><time>2026-05-02T08:13:58.926Z</time></trkpt><trkpt lat="40.0647071" lon="15.490328"><ele>136.0</ele><time>2026-05-02T08:13:59.92Z</time></trkpt><trkpt lat="40.0646291" lon="15.4902422"><ele>135.33333333333334</ele><time>2026-05-02T08:14:00.901Z</time></trkpt><trkpt lat="40.0645517" lon="15.4901726"><ele>134.66666666666669</ele><time>2026-05-02T08:14:01.902Z</time></trkpt><trkpt lat="40.0644671" lon="15.4901182"><ele>134.0</ele><time>2026-05-02T08:14:02.916Z</time></trkpt><trkpt lat="40.0643861" lon="15.4900823"><ele>133.33333333333334</ele><time>2026-05-02T08:14:03.905Z</time></trkpt><trkpt lat="40.0643155" lon="15.4900722"><ele>132.66666666666666</ele><time>2026-05-02T08:14:04.898Z</time></trkpt><trkpt lat="40.064248" lon="15.4900906"><ele>132.0</ele><time>2026-05-02T08:14:05.908Z</time></trkpt><trkpt lat="40.0641833" lon="15.4901418"><ele>132.0</ele><time>2026-05-02T08:14:06.899Z</time></trkpt><trkpt lat="40.0641213" lon="15.490233"><ele>132.0</ele><time>2026-05-02T08:14:07.912Z</time></trkpt><trkpt lat="40.0640682" lon="15.4903587"><ele>132.0</ele><time>2026-05-02T08:14:08.904Z</time></trkpt><trkpt lat="40.0640004" lon="15.4904747"><ele>132.0</ele><time>2026-05-02T08:14:09.916Z</time></trkpt><trkpt lat="40.0639383" lon="15.49058"><ele>132.0</ele><time>2026-05-02T08:14:10.94Z</time></trkpt><trkpt lat="40.0638992" lon="15.4906844"><ele>127.19999999999999</ele><time>2026-05-02T08:14:11.915Z</time></trkpt><trkpt lat="40.0638831" lon="15.490789"><ele>122.39999999999999</ele><time>2026-05-02T08:14:12.919Z</time></trkpt><trkpt lat="40.0639035" lon="15.4908945"><ele>117.60000000000001</ele><time>2026-05-02T08:14:13.902Z</time></trkpt><trkpt lat="40.0639639" lon="15.4909984"><ele>112.80000000000001</ele><time>2026-05-02T08:14:14.928Z</time></trkpt><trkpt lat="40.0640429" lon="15.4911383"><ele>108.0</ele><time>2026-05-02T08:14:15.923Z</time></trkpt><trkpt lat="40.0641102" lon="15.4913356"><ele>109.80000000000001</ele><time>2026-05-02T08:14:16.917Z</time></trkpt><trkpt lat="40.0641677" lon="15.4915262"><ele>111.60000000000001</ele><time>2026-05-02T08:14:17.918Z</time></trkpt><trkpt lat="40.0642012" lon="15.491671"><ele>113.39999999999999</ele><time>2026-05-02T08:14:18.895Z</time></trkpt><trkpt lat="40.064233" lon="15.491787"><ele>115.19999999999999</ele><time>2026-05-02T08:14:19.901Z</time></trkpt><trkpt lat="40.0642607" lon="15.4918672"><ele>117.0</ele><time>2026-05-02T08:14:20.928Z</time></trkpt><trkpt lat="40.0642539" lon="15.4920099"><ele>117.0</ele><time>2026-05-02T08:14:22.913Z</time></trkpt><trkpt lat="40.0641525" lon="15.4920304"><ele>116.99999999999999</ele><time>2026-05-02T08:14:24.91Z</time></trkpt><trkpt lat="40.0641" lon="15.491968"><ele>116.99999999999999</ele><time>2026-05-02T08:14:25.925Z</time></trkpt><trkpt lat="40.064033" lon="15.4918727"><ele>117.0</ele><time>2026-05-02T08:14:26.915Z</time></trkpt><trkpt lat="40.0639446" lon="15.4917626"><ele>117.0</ele><time>2026-05-02T08:14:27.899Z</time></trkpt><trkpt lat="40.063848" lon="15.4916898"><ele>113.39999999999999</ele><time>2026-05-02T08:14:28.91Z</time></trkpt><trkpt lat="40.0637412" lon="15.4916587"><ele>109.79999999999998</ele><time>2026-05-02T08:14:29.916Z</time></trkpt><trkpt lat="40.0636305" lon="15.4916591"><ele>106.2</ele><time>2026-05-02T08:14:30.913Z</time></trkpt><trkpt lat="40.0635202" lon="15.4916871"><ele>102.6</ele><time>2026-05-02T08:14:31.922Z</time></trkpt><trkpt lat="40.0634125" lon="15.4917453"><ele>99.0</ele><time>2026-05-02T08:14:32.915Z</time></trkpt><trkpt lat="40.0633096" lon="15.4918018"><ele>95.0</ele><time>2026-05-02T08:14:33.903Z</time></trkpt><trkpt lat="40.063211" lon="15.4918347"><ele>91.0</ele><time>2026-05-02T08:14:34.904Z</time></trkpt><trkpt lat="40.0631188" lon="15.4918364"><ele>87.0</ele><time>2026-05-02T08:14:35.93Z</time></trkpt><trkpt lat="40.0630342" lon="15.4918085"><ele>83.0</ele><time>2026-05-02T08:14:36.928Z</time></trkpt><trkpt lat="40.0629439" lon="15.4917553"><ele>79.0</ele><time>2026-05-02T08:14:37.912Z</time></trkpt><trkpt lat="40.0628632" lon="15.4917038"><ele>79.0</ele><time>2026-05-02T08:14:38.91Z</time></trkpt><trkpt lat="40.0627396" lon="15.4916955"><ele>79.0</ele><time>2026-05-02T08:14:40.925Z</time></trkpt><trkpt lat="40.0626467" lon="15.4918227"><ele>79.0</ele><time>2026-05-02T08:14:42.931Z</time></trkpt><trkpt lat="40.0626101" lon="15.4919153"><ele>79.0</ele><time>2026-05-02T08:14:43.908Z</time></trkpt><trkpt lat="40.0625728" lon="15.4920055"><ele>79.0</ele><time>2026-05-02T08:14:44.948Z</time></trkpt><trkpt lat="40.0625424" lon="15.4920813"><ele>77.0</ele><time>2026-05-02T08:14:45.914Z</time></trkpt><trkpt lat="40.0625091" lon="15.4922307"><ele>75.0</ele><time>2026-05-02T08:14:47.915Z</time></trkpt><trkpt lat="40.0625138" lon="15.4923425"><ele>73.0</ele><time>2026-05-02T08:14:48.923Z</time></trkpt><trkpt lat="40.0625373" lon="15.4924788"><ele>71.0</ele><time>2026-05-02T08:14:49.914Z</time></trkpt><trkpt lat="40.0625972" lon="15.4926186"><ele>69.0</ele><time>2026-05-02T08:14:50.925Z</time></trkpt><trkpt lat="40.0626668" lon="15.492753"><ele>69.0</ele><time>2026-05-02T08:14:51.916Z</time></trkpt><trkpt lat="40.0627559" lon="15.4928835"><ele>69.0</ele><time>2026-05-02T08:14:52.912Z</time></trkpt><trkpt lat="40.0628444" lon="15.4930003"><ele>69.0</ele><time>2026-05-02T08:14:53.916Z</time></trkpt><trkpt lat="40.0629263" lon="15.4931069"><ele>69.0</ele><time>2026-05-02T08:14:54.922Z</time></trkpt><trkpt lat="40.0630065" lon="15.4932054"><ele>65.4</ele><time>2026-05-02T08:14:55.915Z</time></trkpt><trkpt lat="40.0630739" lon="15.4932936"><ele>61.800000000000004</ele><time>2026-05-02T08:14:56.923Z</time></trkpt><trkpt lat="40.0631234" lon="15.4933726"><ele>58.2</ele><time>2026-05-02T08:14:57.917Z</time></trkpt><trkpt lat="40.0631559" lon="15.4935273"><ele>54.599999999999994</ele><time>2026-05-02T08:14:59.923Z</time></trkpt><trkpt lat="40.0630744" lon="15.4936293"><ele>51.0</ele><time>2026-05-02T08:15:01.92Z</time></trkpt><trkpt lat="40.0629945" lon="15.4936382"><ele>51.0</ele><time>2026-05-02T08:15:02.926Z</time></trkpt><trkpt lat="40.0629032" lon="15.4936464"><ele>51.0</ele><time>2026-05-02T08:15:03.925Z</time></trkpt><trkpt lat="40.0628168" lon="15.4936514"><ele>51.0</ele><time>2026-05-02T08:15:04.92Z</time></trkpt><trkpt lat="40.0627406" lon="15.4936779"><ele>51.0</ele><time>2026-05-02T08:15:05.921Z</time></trkpt><trkpt lat="40.0626785" lon="15.4937422"><ele>51.0</ele><time>2026-05-02T08:15:06.92Z</time></trkpt><trkpt lat="40.0626406" lon="15.4938358"><ele>51.0</ele><time>2026-05-02T08:15:07.911Z</time></trkpt><trkpt lat="40.0626342" lon="15.4939558"><ele>49.4</ele><time>2026-05-02T08:15:08.935Z</time></trkpt><trkpt lat="40.0626548" lon="15.4940887"><ele>47.8</ele><time>2026-05-02T08:15:09.91Z</time></trkpt><trkpt lat="40.0626846" lon="15.494234"><ele>46.199999999999996</ele><time>2026-05-02T08:15:10.921Z</time></trkpt><trkpt lat="40.062718" lon="15.4943674"><ele>44.599999999999994</ele><time>2026-05-02T08:15:11.913Z</time></trkpt><trkpt lat="40.0627338" lon="15.4944917"><ele>43.0</ele><time>2026-05-02T08:15:12.923Z</time></trkpt><trkpt lat="40.062722" lon="15.4946123"><ele>41.25</ele><time>2026-05-02T08:15:13.92Z</time></trkpt><trkpt lat="40.0626826" lon="15.4947326"><ele>39.5</ele><time>2026-05-02T08:15:14.925Z</time></trkpt><trkpt lat="40.0626163" lon="15.4948574"><ele>37.75</ele><time>2026-05-02T08:15:15.911Z</time></trkpt><trkpt lat="40.0625595" lon="15.4950022"><ele>36.0</ele><time>2026-05-02T08:15:16.91Z</time></trkpt><trkpt lat="40.062534" lon="15.4951474"><ele>36.0</ele><time>2026-05-02T08:15:17.922Z</time></trkpt><trkpt lat="40.0625272" lon="15.4953055"><ele>36.0</ele><time>2026-05-02T08:15:18.926Z</time></trkpt><trkpt lat="40.0625368" lon="15.4954765"><ele>36.0</ele><time>2026-05-02T08:15:19.919Z</time></trkpt><trkpt lat="40.0625492" lon="15.4956505"><ele>36.0</ele><time>2026-05-02T08:15:20.922Z</time></trkpt><trkpt lat="40.0625736" lon="15.4958005"><ele>34.166666666666664</ele><time>2026-05-02T08:15:21.923Z</time></trkpt><trkpt lat="40.0626059" lon="15.4959426"><ele>32.333333333333336</ele><time>2026-05-02T08:15:22.912Z</time></trkpt><trkpt lat="40.0626502" lon="15.4960649"><ele>30.5</ele><time>2026-05-02T08:15:23.917Z</time></trkpt><trkpt lat="40.0626914" lon="15.4961627"><ele>28.666666666666668</ele><time>2026-05-02T08:15:24.92Z</time></trkpt><trkpt lat="40.0627146" lon="15.4962527"><ele>26.833333333333336</ele><time>2026-05-02T08:15:25.921Z</time></trkpt><trkpt lat="40.0627015" lon="15.4963374"><ele>25.0</ele><time>2026-05-02T08:15:26.923Z</time></trkpt><trkpt lat="40.062675" lon="15.4964198"><ele>25.666666666666668</ele><time>2026-05-02T08:15:27.918Z</time></trkpt><trkpt lat="40.0626276" lon="15.4965002"><ele>26.333333333333336</ele><time>2026-05-02T08:15:28.929Z</time></trkpt><trkpt lat="40.0625787" lon="15.4965759"><ele>27.0</ele><time>2026-05-02T08:15:29.915Z</time></trkpt><trkpt lat="40.0625256" lon="15.4966564"><ele>27.666666666666664</ele><time>2026-05-02T08:15:30.929Z</time></trkpt><trkpt lat="40.0624776" lon="15.4967401"><ele>28.333333333333332</ele><time>2026-05-02T08:15:31.916Z</time></trkpt><trkpt lat="40.0624218" lon="15.4968198"><ele>29.0</ele><time>2026-05-02T08:15:32.914Z</time></trkpt><trkpt lat="40.062378" lon="15.4968936"><ele>29.0</ele><time>2026-05-02T08:15:33.907Z</time></trkpt><trkpt lat="40.06235" lon="15.4969707"><ele>29.0</ele><time>2026-05-02T08:15:34.925Z</time></trkpt><trkpt lat="40.0623332" lon="15.4970716"><ele>29.0</ele><time>2026-05-02T08:15:35.929Z</time></trkpt><trkpt lat="40.0623447" lon="15.4971877"><ele>29.0</ele><time>2026-05-02T08:15:36.919Z</time></trkpt><trkpt lat="40.0623832" lon="15.4973185"><ele>29.0</ele><time>2026-05-02T08:15:37.916Z</time></trkpt><trkpt lat="40.0624281" lon="15.4974616"><ele>26.0</ele><time>2026-05-02T08:15:38.929Z</time></trkpt><trkpt lat="40.0624559" lon="15.4976293"><ele>23.0</ele><time>2026-05-02T08:15:39.909Z</time></trkpt><trkpt lat="40.0624649" lon="15.4978085"><ele>20.0</ele><time>2026-05-02T08:15:40.92Z</time></trkpt><trkpt lat="40.0624673" lon="15.4980043"><ele>17.0</ele><time>2026-05-02T08:15:41.919Z</time></trkpt><trkpt lat="40.062471" lon="15.4982098"><ele>16.75</ele><time>2026-05-02T08:15:42.924Z</time></trkpt><trkpt lat="40.0624911" lon="15.4984016"><ele>16.5</ele><time>2026-05-02T08:15:43.913Z</time></trkpt><trkpt lat="40.0625184" lon="15.4985761"><ele>16.25</ele><time>2026-05-02T08:15:44.924Z</time></trkpt><trkpt lat="40.0625512" lon="15.498738"><ele>16.0</ele><time>2026-05-02T08:15:45.928Z</time></trkpt><trkpt lat="40.0625845" lon="15.4989148"><ele>15.5</ele><time>2026-05-02T08:15:46.921Z</time></trkpt><trkpt lat="40.0626105" lon="15.4990818"><ele>15.0</ele><time>2026-05-02T08:15:47.925Z</time></trkpt><trkpt lat="40.0626359" lon="15.4992285"><ele>14.5</ele><time>2026-05-02T08:15:48.925Z</time></trkpt><trkpt lat="40.0626593" lon="15.4993755"><ele>14.0</ele><time>2026-05-02T08:15:49.91Z</time></trkpt><trkpt lat="40.0627003" lon="15.4995175"><ele>13.0</ele><time>2026-05-02T08:15:50.914Z</time></trkpt><trkpt lat="40.0627546" lon="15.4996696"><ele>12.0</ele><time>2026-05-02T08:15:51.919Z</time></trkpt><trkpt lat="40.0628189" lon="15.4998307"><ele>11.0</ele><time>2026-05-02T08:15:52.915Z</time></trkpt><trkpt lat="40.0628759" lon="15.5000028"><ele>10.0</ele><time>2026-05-02T08:15:53.911Z</time></trkpt><trkpt lat="40.0629285" lon="15.50015"><ele>10.0</ele><time>2026-05-02T08:15:54.927Z</time></trkpt><trkpt lat="40.0629801" lon="15.5002891"><ele>10.0</ele><time>2026-05-02T08:15:55.923Z</time></trkpt><trkpt lat="40.0630445" lon="15.5004346"><ele>10.0</ele><time>2026-05-02T08:15:56.914Z</time></trkpt><trkpt lat="40.0631152" lon="15.500587"><ele>10.0</ele><time>2026-05-02T08:15:57.908Z</time></trkpt><trkpt lat="40.0631799" lon="15.5007247"><ele>9.2</ele><time>2026-05-02T08:15:58.915Z</time></trkpt><trkpt lat="40.0632533" lon="15.5008402"><ele>8.4</ele><time>2026-05-02T08:15:59.927Z</time></trkpt><trkpt lat="40.0633229" lon="15.5009374"><ele>7.6</ele><time>2026-05-02T08:16:00.915Z</time></trkpt><trkpt lat="40.0633836" lon="15.5010142"><ele>6.8</ele><time>2026-05-02T08:16:01.913Z</time></trkpt><trkpt lat="40.0634385" lon="15.5010771"><ele>6.0</ele><time>2026-05-02T08:16:02.923Z</time></trkpt><trkpt lat="40.063508" lon="15.5011827"><ele>6.166666666666667</ele><time>2026-05-02T08:16:04.914Z</time></trkpt><trkpt lat="40.0635033" lon="15.5012695"><ele>6.333333333333334</ele><time>2026-05-02T08:16:06.919Z</time></trkpt><trkpt lat="40.0635045" lon="15.5013524"><ele>6.5</ele><time>2026-05-02T08:16:18.927Z</time></trkpt><trkpt lat="40.0635492" lon="15.5014182"><ele>6.666666666666667</ele><time>2026-05-02T08:16:20.917Z</time></trkpt><trkpt lat="40.0636249" lon="15.5014293"><ele>6.833333333333334</ele><time>2026-05-02T08:16:21.925Z</time></trkpt><trkpt lat="40.0637246" lon="15.501423"><ele>7.0</ele><time>2026-05-02T08:16:22.907Z</time></trkpt><trkpt lat="40.0638463" lon="15.5014423"><ele>7.0</ele><time>2026-05-02T08:16:23.929Z</time></trkpt><trkpt lat="40.0639763" lon="15.5015004"><ele>7.0</ele><time>2026-05-02T08:16:24.938Z</time></trkpt><trkpt lat="40.0641032" lon="15.501575"><ele>7.0</ele><time>2026-05-02T08:16:25.92Z</time></trkpt><trkpt lat="40.0642316" lon="15.5016519"><ele>7.0</ele><time>2026-05-02T08:16:26.925Z</time></trkpt><trkpt lat="40.064362" lon="15.5017361"><ele>8.0</ele><time>2026-05-02T08:16:27.92Z</time></trkpt><trkpt lat="40.0644965" lon="15.5018187"><ele>9.0</ele><time>2026-05-02T08:16:28.912Z</time></trkpt><trkpt lat="40.0646267" lon="15.501887"><ele>10.0</ele><time>2026-05-02T08:16:29.918Z</time></trkpt><trkpt lat="40.064754" lon="15.5019739"><ele>11.0</ele><time>2026-05-02T08:16:30.911Z</time></trkpt><trkpt lat="40.0648674" lon="15.5020793"><ele>11.0</ele><time>2026-05-02T08:16:31.916Z</time></trkpt><trkpt lat="40.0649747" lon="15.5021873"><ele>11.0</ele><time>2026-05-02T08:16:32.917Z</time></trkpt><trkpt lat="40.0650782" lon="15.5022938"><ele>11.0</ele><time>2026-05-02T08:16:33.915Z</time></trkpt><trkpt lat="40.0651834" lon="15.5024045"><ele>11.0</ele><time>2026-05-02T08:16:34.916Z</time></trkpt><trkpt lat="40.0652886" lon="15.5025193"><ele>11.0</ele><time>2026-05-02T08:16:35.923Z</time></trkpt><trkpt lat="40.065398" lon="15.502634"><ele>11.0</ele><time>2026-05-02T08:16:36.939Z</time></trkpt><trkpt lat="40.0655144" lon="15.5027488"><ele>11.0</ele><time>2026-05-02T08:16:37.919Z</time></trkpt><trkpt lat="40.06563" lon="15.5028697"><ele>11.0</ele><time>2026-05-02T08:16:38.926Z</time></trkpt><trkpt lat="40.0657449" lon="15.5029958"><ele>10.5</ele><time>2026-05-02T08:16:39.916Z</time></trkpt><trkpt lat="40.0658576" lon="15.5031159"><ele>10.0</ele><time>2026-05-02T08:16:40.927Z</time></trkpt><trkpt lat="40.0659746" lon="15.5032297"><ele>9.5</ele><time>2026-05-02T08:16:41.916Z</time></trkpt><trkpt lat="40.0661025" lon="15.5033285"><ele>9.0</ele><time>2026-05-02T08:16:42.924Z</time></trkpt><trkpt lat="40.0662266" lon="15.5034036"><ele>9.0</ele><time>2026-05-02T08:16:43.931Z</time></trkpt><trkpt lat="40.0663399" lon="15.5034611"><ele>9.0</ele><time>2026-05-02T08:16:44.926Z</time></trkpt><trkpt lat="40.0664469" lon="15.503508"><ele>9.0</ele><time>2026-05-02T08:16:45.915Z</time></trkpt><trkpt lat="40.06657" lon="15.503516"><ele>9.0</ele><time>2026-05-02T08:16:46.926Z</time></trkpt><trkpt lat="40.066703" lon="15.5034957"><ele>10.5</ele><time>2026-05-02T08:16:47.926Z</time></trkpt><trkpt lat="40.0668433" lon="15.5034635"><ele>12.0</ele><time>2026-05-02T08:16:48.922Z</time></trkpt><trkpt lat="40.0669678" lon="15.5034508"><ele>13.5</ele><time>2026-05-02T08:16:49.916Z</time></trkpt><trkpt lat="40.0670857" lon="15.5034595"><ele>15.0</ele><time>2026-05-02T08:16:50.917Z</time></trkpt><trkpt lat="40.06721" lon="15.503489"><ele>15.0</ele><time>2026-05-02T08:16:51.927Z</time></trkpt><trkpt lat="40.0673407" lon="15.5035172"><ele>15.0</ele><time>2026-05-02T08:16:52.927Z</time></trkpt><trkpt lat="40.0674754" lon="15.503525"><ele>15.0</ele><time>2026-05-02T08:16:53.916Z</time></trkpt><trkpt lat="40.0676055" lon="15.5035071"><ele>15.0</ele><time>2026-05-02T08:16:54.923Z</time></trkpt><trkpt lat="40.0677219" lon="15.5034526"><ele>15.25</ele><time>2026-05-02T08:16:55.918Z</time></trkpt><trkpt lat="40.0678278" lon="15.5033797"><ele>15.5</ele><time>2026-05-02T08:16:56.918Z</time></trkpt><trkpt lat="40.0679261" lon="15.5032842"><ele>15.75</ele><time>2026-05-02T08:16:57.913Z</time></trkpt><trkpt lat="40.0680211" lon="15.5032024"><ele>16.0</ele><time>2026-05-02T08:16:58.924Z</time></trkpt><trkpt lat="40.0681092" lon="15.5031342"><ele>16.0</ele><time>2026-05-02T08:16:59.921Z</time></trkpt><trkpt lat="40.0681844" lon="15.5030674"><ele>16.0</ele><time>2026-05-02T08:17:00.919Z</time></trkpt><trkpt lat="40.0682615" lon="15.5029909"><ele>16.0</ele><time>2026-05-02T08:17:01.917Z</time></trkpt><trkpt lat="40.0683522" lon="15.5029204"><ele>16.0</ele><time>2026-05-02T08:17:02.924Z</time></trkpt><trkpt lat="40.0684478" lon="15.502867"><ele>16.0</ele><time>2026-05-02T08:17:03.923Z</time></trkpt><trkpt lat="40.0685484" lon="15.5028368"><ele>17.4</ele><time>2026-05-02T08:17:04.915Z</time></trkpt><trkpt lat="40.0686489" lon="15.5028255"><ele>18.8</ele><time>2026-05-02T08:17:05.922Z</time></trkpt><trkpt lat="40.0687494" lon="15.5028295"><ele>20.2</ele><time>2026-05-02T08:17:06.936Z</time></trkpt><trkpt lat="40.0688495" lon="15.5028472"><ele>21.599999999999998</ele><time>2026-05-02T08:17:07.919Z</time></trkpt><trkpt lat="40.068952" lon="15.5028726"><ele>23.0</ele><time>2026-05-02T08:17:08.928Z</time></trkpt><trkpt lat="40.0690504" lon="15.5028969"><ele>22.599999999999998</ele><time>2026-05-02T08:17:09.92Z</time></trkpt><trkpt lat="40.0691405" lon="15.5029141"><ele>22.2</ele><time>2026-05-02T08:17:10.915Z</time></trkpt><trkpt lat="40.06923" lon="15.5029302"><ele>21.8</ele><time>2026-05-02T08:17:11.911Z</time></trkpt><trkpt lat="40.0693224" lon="15.5029523"><ele>21.4</ele><time>2026-05-02T08:17:12.923Z</time></trkpt><trkpt lat="40.0694196" lon="15.5029787"><ele>21.0</ele><time>2026-05-02T08:17:13.913Z</time></trkpt><trkpt lat="40.0695198" lon="15.5030018"><ele>18.75</ele><time>2026-05-02T08:17:14.922Z</time></trkpt><trkpt lat="40.0696321" lon="15.5030278"><ele>16.5</ele><time>2026-05-02T08:17:15.918Z</time></trkpt><trkpt lat="40.0697476" lon="15.5030555"><ele>14.25</ele><time>2026-05-02T08:17:16.921Z</time></trkpt><trkpt lat="40.0698643" lon="15.5030803"><ele>12.0</ele><time>2026-05-02T08:17:17.904Z</time></trkpt><trkpt lat="40.0699803" lon="15.5031062"><ele>12.0</ele><time>2026-05-02T08:17:18.92Z</time></trkpt><trkpt lat="40.0700876" lon="15.5031264"><ele>12.0</ele><time>2026-05-02T08:17:19.919Z</time></trkpt><trkpt lat="40.0701831" lon="15.5031442"><ele>12.0</ele><time>2026-05-02T08:17:20.931Z</time></trkpt><trkpt lat="40.0702647" lon="15.5031634"><ele>12.0</ele><time>2026-05-02T08:17:21.923Z</time></trkpt><trkpt lat="40.0703395" lon="15.5031795"><ele>12.0</ele><time>2026-05-02T08:17:22.922Z</time></trkpt><trkpt lat="40.0704105" lon="15.5031921"><ele>12.0</ele><time>2026-05-02T08:17:23.917Z</time></trkpt><trkpt lat="40.0704849" lon="15.5032088"><ele>12.0</ele><time>2026-05-02T08:17:24.921Z</time></trkpt><trkpt lat="40.0705616" lon="15.5032226"><ele>12.0</ele><time>2026-05-02T08:17:25.91Z</time></trkpt><trkpt lat="40.0706405" lon="15.5032375"><ele>12.0</ele><time>2026-05-02T08:17:26.929Z</time></trkpt><trkpt lat="40.0707185" lon="15.5032493"><ele>12.0</ele><time>2026-05-02T08:17:27.907Z</time></trkpt><trkpt lat="40.0707972" lon="15.5032601"><ele>12.0</ele><time>2026-05-02T08:17:28.925Z</time></trkpt><trkpt lat="40.0708771" lon="15.5032799"><ele>12.0</ele><time>2026-05-02T08:17:29.921Z</time></trkpt><trkpt lat="40.0709564" lon="15.5033019"><ele>12.166666666666666</ele><time>2026-05-02T08:17:30.934Z</time></trkpt><trkpt lat="40.0710336" lon="15.5033207"><ele>12.333333333333332</ele><time>2026-05-02T08:17:31.924Z</time></trkpt><trkpt lat="40.0711099" lon="15.5033372"><ele>12.5</ele><time>2026-05-02T08:17:32.916Z</time></trkpt><trkpt lat="40.0711845" lon="15.5033578"><ele>12.666666666666666</ele><time>2026-05-02T08:17:33.914Z</time></trkpt><trkpt lat="40.0712511" lon="15.5033749"><ele>12.833333333333332</ele><time>2026-05-02T08:17:34.923Z</time></trkpt><trkpt lat="40.0713605" lon="15.5034353"><ele>13.0</ele><time>2026-05-02T08:17:36.91Z</time></trkpt><trkpt lat="40.0714335" lon="15.5035424"><ele>13.0</ele><time>2026-05-02T08:17:38.923Z</time></trkpt><trkpt lat="40.0714229" lon="15.5037045"><ele>13.0</ele><time>2026-05-02T08:17:40.917Z</time></trkpt><trkpt lat="40.0713804" lon="15.5038066"><ele>13.0</ele><time>2026-05-02T08:17:41.906Z</time></trkpt><trkpt lat="40.0713107" lon="15.5039194"><ele>13.0</ele><time>2026-05-02T08:17:42.912Z</time></trkpt><trkpt lat="40.0712198" lon="15.5040548"><ele>13.25</ele><time>2026-05-02T08:17:43.913Z</time></trkpt><trkpt lat="40.0711157" lon="15.5042057"><ele>13.5</ele><time>2026-05-02T08:17:44.911Z</time></trkpt><trkpt lat="40.0710223" lon="15.5043462"><ele>13.75</ele><time>2026-05-02T08:17:45.917Z</time></trkpt><trkpt lat="40.0709425" lon="15.5044727"><ele>14.0</ele><time>2026-05-02T08:17:46.933Z</time></trkpt><trkpt lat="40.0708572" lon="15.5046095"><ele>13.0</ele><time>2026-05-02T08:17:47.929Z</time></trkpt><trkpt lat="40.0707612" lon="15.5047368"><ele>12.0</ele><time>2026-05-02T08:17:48.942Z</time></trkpt><trkpt lat="40.0706708" lon="15.504851"><ele>11.0</ele><time>2026-05-02T08:17:49.924Z</time></trkpt><trkpt lat="40.0705801" lon="15.504947"><ele>10.0</ele><time>2026-05-02T08:17:50.929Z</time></trkpt><trkpt lat="40.0704786" lon="15.5050136"><ele>10.0</ele><time>2026-05-02T08:17:51.908Z</time></trkpt><trkpt lat="40.070362" lon="15.5050503"><ele>10.0</ele><time>2026-05-02T08:17:52.921Z</time></trkpt><trkpt lat="40.0702457" lon="15.50508"><ele>10.0</ele><time>2026-05-02T08:17:53.917Z</time></trkpt><trkpt lat="40.0701267" lon="15.5051358"><ele>10.0</ele><time>2026-05-02T08:17:54.935Z</time></trkpt><trkpt lat="40.0700353" lon="15.5052205"><ele>10.0</ele><time>2026-05-02T08:17:55.922Z</time></trkpt><trkpt lat="40.0699742" lon="15.5053075"><ele>10.0</ele><time>2026-05-02T08:17:56.923Z</time></trkpt><trkpt lat="40.0699376" lon="15.5054279"><ele>10.0</ele><time>2026-05-02T08:17:57.932Z</time></trkpt><trkpt lat="40.0699267" lon="15.505573"><ele>10.0</ele><time>2026-05-02T08:17:58.93Z</time></trkpt><trkpt lat="40.0699607" lon="15.5057189"><ele>10.0</ele><time>2026-05-02T08:17:59.927Z</time></trkpt><trkpt lat="40.0700305" lon="15.5058568"><ele>10.25</ele><time>2026-05-02T08:18:00.936Z</time></trkpt><trkpt lat="40.070121" lon="15.5060087"><ele>10.5</ele><time>2026-05-02T08:18:01.922Z</time></trkpt><trkpt lat="40.0702186" lon="15.5061609"><ele>10.75</ele><time>2026-05-02T08:18:02.932Z</time></trkpt><trkpt lat="40.0703049" lon="15.5063003"><ele>11.0</ele><time>2026-05-02T08:18:03.919Z</time></trkpt><trkpt lat="40.0703906" lon="15.5064054"><ele>10.0</ele><time>2026-05-02T08:18:04.928Z</time></trkpt><trkpt lat="40.0704962" lon="15.5064808"><ele>9.0</ele><time>2026-05-02T08:18:05.915Z</time></trkpt><trkpt lat="40.0706197" lon="15.5065329"><ele>8.0</ele><time>2026-05-02T08:18:06.925Z</time></trkpt><trkpt lat="40.0707381" lon="15.506581"><ele>7.0</ele><time>2026-05-02T08:18:07.916Z</time></trkpt><trkpt lat="40.0708256" lon="15.5067225"><ele>7.0</ele><time>2026-05-02T08:18:08.92Z</time></trkpt><trkpt lat="40.0709091" lon="15.5068877"><ele>7.0</ele><time>2026-05-02T08:18:09.913Z</time></trkpt><trkpt lat="40.0709847" lon="15.5070567"><ele>7.0</ele><time>2026-05-02T08:18:10.921Z</time></trkpt><trkpt lat="40.07106" lon="15.5072332"><ele>6.333333333333334</ele><time>2026-05-02T08:18:11.908Z</time></trkpt><trkpt lat="40.0711251" lon="15.5074283"><ele>5.666666666666667</ele><time>2026-05-02T08:18:12.926Z</time></trkpt><trkpt lat="40.0711798" lon="15.5076393"><ele>5.0</ele><time>2026-05-02T08:18:13.916Z</time></trkpt><trkpt lat="40.0712389" lon="15.5078546"><ele>4.333333333333334</ele><time>2026-05-02T08:18:14.922Z</time></trkpt><trkpt lat="40.0712964" lon="15.5080633"><ele>3.666666666666667</ele><time>2026-05-02T08:18:15.934Z</time></trkpt><trkpt lat="40.0713499" lon="15.5082688"><ele>3.0</ele><time>2026-05-02T08:18:16.921Z</time></trkpt><trkpt lat="40.071405" lon="15.5084773"><ele>3.0</ele><time>2026-05-02T08:18:17.92Z</time></trkpt><trkpt lat="40.0714577" lon="15.5086879"><ele>3.0</ele><time>2026-05-02T08:18:18.92Z</time></trkpt><trkpt lat="40.0715128" lon="15.5089017"><ele>3.0</ele><time>2026-05-02T08:18:19.923Z</time></trkpt><trkpt lat="40.0715692" lon="15.5091214"><ele>3.0</ele><time>2026-05-02T08:18:20.932Z</time></trkpt><trkpt lat="40.0716225" lon="15.5093444"><ele>3.0</ele><time>2026-05-02T08:18:21.916Z</time></trkpt><trkpt lat="40.0716833" lon="15.5095729"><ele>3.0</ele><time>2026-05-02T08:18:22.92Z</time></trkpt><trkpt lat="40.0717509" lon="15.5098051"><ele>3.0</ele><time>2026-05-02T08:18:23.919Z</time></trkpt><trkpt lat="40.0718152" lon="15.5100363"><ele>3.0</ele><time>2026-05-02T08:18:24.941Z</time></trkpt><trkpt lat="40.0718781" lon="15.5102535"><ele>3.0</ele><time>2026-05-02T08:18:25.918Z</time></trkpt><trkpt lat="40.0719454" lon="15.5104558"><ele>2.75</ele><time>2026-05-02T08:18:26.927Z</time></trkpt><trkpt lat="40.0720122" lon="15.5106255"><ele>2.5</ele><time>2026-05-02T08:18:27.925Z</time></trkpt><trkpt lat="40.0720649" lon="15.5107614"><ele>2.25</ele><time>2026-05-02T08:18:28.922Z</time></trkpt><trkpt lat="40.0721164" lon="15.5108767"><ele>2.0</ele><time>2026-05-02T08:18:29.933Z</time></trkpt><trkpt lat="40.0721746" lon="15.510999"><ele>2.0</ele><time>2026-05-02T08:18:30.919Z</time></trkpt><trkpt lat="40.0722369" lon="15.5111325"><ele>2.0</ele><time>2026-05-02T08:18:31.927Z</time></trkpt><trkpt lat="40.0723064" lon="15.5112667"><ele>2.0</ele><time>2026-05-02T08:18:32.922Z</time></trkpt><trkpt lat="40.0723818" lon="15.5114125"><ele>2.0</ele><time>2026-05-02T08:18:33.92Z</time></trkpt><trkpt lat="40.0724579" lon="15.5115625"><ele>2.0</ele><time>2026-05-02T08:18:34.928Z</time></trkpt><trkpt lat="40.0725355" lon="15.5117099"><ele>2.0</ele><time>2026-05-02T08:18:35.925Z</time></trkpt><trkpt lat="40.0726133" lon="15.5118541"><ele>2.0</ele><time>2026-05-02T08:18:36.93Z</time></trkpt><trkpt lat="40.0726831" lon="15.5119867"><ele>2.0</ele><time>2026-05-02T08:18:37.917Z</time></trkpt><trkpt lat="40.0727486" lon="15.512105"><ele>2.0</ele><time>2026-05-02T08:18:38.921Z</time></trkpt><trkpt lat="40.0728147" lon="15.5122268"><ele>2.0</ele><time>2026-05-02T08:18:39.916Z</time></trkpt><trkpt lat="40.0728765" lon="15.5123548"><ele>2.0</ele><time>2026-05-02T08:18:40.937Z</time></trkpt><trkpt lat="40.07294" lon="15.5124888"><ele>2.0</ele><time>2026-05-02T08:18:41.925Z</time></trkpt><trkpt lat="40.0730112" lon="15.5126292"><ele>2.0</ele><time>2026-05-02T08:18:42.928Z</time></trkpt><trkpt lat="40.0730902" lon="15.5127807"><ele>2.0</ele><time>2026-05-02T08:18:43.916Z</time></trkpt><trkpt lat="40.0731673" lon="15.512945"><ele>2.0</ele><time>2026-05-02T08:18:44.924Z</time></trkpt><trkpt lat="40.0732448" lon="15.5131092"><ele>2.0</ele><time>2026-05-02T08:18:45.923Z</time></trkpt><trkpt lat="40.0733212" lon="15.5132721"><ele>2.25</ele><time>2026-05-02T08:18:46.928Z</time></trkpt><trkpt lat="40.0733954" lon="15.5134269"><ele>2.5</ele><time>2026-05-02T08:18:47.929Z</time></trkpt><trkpt lat="40.07346" lon="15.5135742"><ele>2.75</ele><time>2026-05-02T08:18:48.915Z</time></trkpt><trkpt lat="40.0735178" lon="15.5137203"><ele>3.0</ele><time>2026-05-02T08:18:49.928Z</time></trkpt><trkpt lat="40.0735731" lon="15.5138675"><ele>3.5</ele><time>2026-05-02T08:18:50.925Z</time></trkpt><trkpt lat="40.073616" lon="15.5140305"><ele>4.0</ele><time>2026-05-02T08:18:51.925Z</time></trkpt><trkpt lat="40.0736528" lon="15.5142047"><ele>4.5</ele><time>2026-05-02T08:18:52.93Z</time></trkpt><trkpt lat="40.0736773" lon="15.5143895"><ele>5.0</ele><time>2026-05-02T08:18:53.919Z</time></trkpt><trkpt lat="40.0736918" lon="15.5145814"><ele>5.0</ele><time>2026-05-02T08:18:54.934Z</time></trkpt><trkpt lat="40.0736942" lon="15.514777"><ele>5.0</ele><time>2026-05-02T08:18:55.93Z</time></trkpt><trkpt lat="40.0736859" lon="15.5149767"><ele>5.0</ele><time>2026-05-02T08:18:56.919Z</time></trkpt><trkpt lat="40.0736786" lon="15.5151718"><ele>5.0</ele><time>2026-05-02T08:18:57.927Z</time></trkpt><trkpt lat="40.0736624" lon="15.5153571"><ele>5.0</ele><time>2026-05-02T08:18:58.919Z</time></trkpt><trkpt lat="40.0736442" lon="15.5155317"><ele>5.0</ele><time>2026-05-02T08:18:59.921Z</time></trkpt><trkpt lat="40.0736161" lon="15.5156929"><ele>5.0</ele><time>2026-05-02T08:19:00.918Z</time></trkpt><trkpt lat="40.0735819" lon="15.5158358"><ele>4.75</ele><time>2026-05-02T08:19:01.93Z</time></trkpt><trkpt lat="40.0735447" lon="15.5159788"><ele>4.5</ele><time>2026-05-02T08:19:02.922Z</time></trkpt><trkpt lat="40.0735081" lon="15.5161273"><ele>4.25</ele><time>2026-05-02T08:19:03.93Z</time></trkpt><trkpt lat="40.0734893" lon="15.5163004"><ele>4.0</ele><time>2026-05-02T08:19:04.927Z</time></trkpt><trkpt lat="40.0734788" lon="15.5164714"><ele>4.0</ele><time>2026-05-02T08:19:05.92Z</time></trkpt><trkpt lat="40.0734808" lon="15.5166362"><ele>4.0</ele><time>2026-05-02T08:19:06.932Z</time></trkpt><trkpt lat="40.0734996" lon="15.5167739"><ele>4.0</ele><time>2026-05-02T08:19:07.917Z</time></trkpt><trkpt lat="40.0735318" lon="15.5168945"><ele>4.0</ele><time>2026-05-02T08:19:08.917Z</time></trkpt><trkpt lat="40.0735693" lon="15.5170085"><ele>4.0</ele><time>2026-05-02T08:19:09.914Z</time></trkpt><trkpt lat="40.0735934" lon="15.5171177"><ele>4.2</ele><time>2026-05-02T08:19:10.933Z</time></trkpt><trkpt lat="40.0736193" lon="15.5172243"><ele>4.4</ele><time>2026-05-02T08:19:11.929Z</time></trkpt><trkpt lat="40.073639" lon="15.5173453"><ele>4.6</ele><time>2026-05-02T08:19:12.923Z</time></trkpt><trkpt lat="40.0736647" lon="15.5174683"><ele>4.8</ele><time>2026-05-02T08:19:13.909Z</time></trkpt><trkpt lat="40.0736937" lon="15.517579"><ele>5.0</ele><time>2026-05-02T08:19:14.927Z</time></trkpt><trkpt lat="40.0737228" lon="15.517681"><ele>5.0</ele><time>2026-05-02T08:19:15.931Z</time></trkpt><trkpt lat="40.073751" lon="15.5177803"><ele>5.0</ele><time>2026-05-02T08:19:16.927Z</time></trkpt><trkpt lat="40.0737713" lon="15.5178753"><ele>5.0</ele><time>2026-05-02T08:19:17.924Z</time></trkpt><trkpt lat="40.0737922" lon="15.5179636"><ele>5.0</ele><time>2026-05-02T08:19:18.931Z</time></trkpt><trkpt lat="40.0738185" lon="15.5180468"><ele>5.0</ele><time>2026-05-02T08:19:19.918Z</time></trkpt><trkpt lat="40.0738473" lon="15.5181275"><ele>5.0</ele><time>2026-05-02T08:19:20.922Z</time></trkpt><trkpt lat="40.073873" lon="15.5182135"><ele>5.0</ele><time>2026-05-02T08:19:21.92Z</time></trkpt><trkpt lat="40.0738886" lon="15.5182948"><ele>5.0</ele><time>2026-05-02T08:19:22.925Z</time></trkpt><trkpt lat="40.0739063" lon="15.5184188"><ele>5.0</ele><time>2026-05-02T08:19:24.927Z</time></trkpt><trkpt lat="40.0739203" lon="15.5185029"><ele>5.0</ele><time>2026-05-02T08:19:26.919Z</time></trkpt><trkpt lat="40.0739472" lon="15.5186006"><ele>5.0</ele><time>2026-05-02T08:19:29.918Z</time></trkpt><trkpt lat="40.0739798" lon="15.5187181"><ele>5.0</ele><time>2026-05-02T08:19:31.919Z</time></trkpt><trkpt lat="40.0740071" lon="15.5188196"><ele>5.0</ele><time>2026-05-02T08:19:33.914Z</time></trkpt><trkpt lat="40.0740246" lon="15.5189273"><ele>5.0</ele><time>2026-05-02T08:19:35.916Z</time></trkpt><trkpt lat="40.0740579" lon="15.5190937"><ele>5.0</ele><time>2026-05-02T08:19:37.916Z</time></trkpt><trkpt lat="40.0740763" lon="15.5192081"><ele>5.0</ele><time>2026-05-02T08:19:38.918Z</time></trkpt><trkpt lat="40.074091" lon="15.5193146"><ele>5.0</ele><time>2026-05-02T08:19:39.917Z</time></trkpt><trkpt lat="40.074097" lon="15.5193986"><ele>5.0</ele><time>2026-05-02T08:19:40.93Z</time></trkpt><trkpt lat="40.0741012" lon="15.5195127"><ele>4.8</ele><time>2026-05-02T08:19:42.926Z</time></trkpt><trkpt lat="40.0741084" lon="15.5196116"><ele>4.6</ele><time>2026-05-02T08:19:44.919Z</time></trkpt><trkpt lat="40.0741107" lon="15.5197415"><ele>4.4</ele><time>2026-05-02T08:19:46.929Z</time></trkpt><trkpt lat="40.0741092" lon="15.5198926"><ele>4.2</ele><time>2026-05-02T08:19:48.913Z</time></trkpt><trkpt lat="40.0741322" lon="15.5200257"><ele>4.0</ele><time>2026-05-02T08:19:50.925Z</time></trkpt><trkpt lat="40.074156" lon="15.5201623"><ele>4.0</ele><time>2026-05-02T08:19:52.933Z</time></trkpt><trkpt lat="40.0741542" lon="15.520313"><ele>4.0</ele><time>2026-05-02T08:19:54.918Z</time></trkpt><trkpt lat="40.0741478" lon="15.5204748"><ele>4.0</ele><time>2026-05-02T08:19:56.935Z</time></trkpt><trkpt lat="40.0741389" lon="15.5206282"><ele>4.0</ele><time>2026-05-02T08:19:58.939Z</time></trkpt><trkpt lat="40.0741198" lon="15.5207434"><ele>4.0</ele><time>2026-05-02T08:20:00.923Z</time></trkpt><trkpt lat="40.0741021" lon="15.5208327"><ele>3.9999999999999996</ele><time>2026-05-02T08:20:02.929Z</time></trkpt><trkpt lat="40.0740791" lon="15.5209303"><ele>4.0</ele><time>2026-05-02T08:20:05.926Z</time></trkpt><trkpt lat="40.0740529" lon="15.5210418"><ele>4.0</ele><time>2026-05-02T08:20:08.921Z</time></trkpt><trkpt lat="40.0740265" lon="15.5211483"><ele>4.0</ele><time>2026-05-02T08:20:10.922Z</time></trkpt><trkpt lat="40.0740176" lon="15.5212354"><ele>3.9999999999999996</ele><time>2026-05-02T08:20:12.929Z</time></trkpt><trkpt lat="40.0740008" lon="15.5213718"><ele>4.0</ele><time>2026-05-02T08:20:14.922Z</time></trkpt><trkpt lat="40.0739857" lon="15.5214657"><ele>4.166666666666666</ele><time>2026-05-02T08:20:15.908Z</time></trkpt><trkpt lat="40.0739687" lon="15.5215616"><ele>4.333333333333333</ele><time>2026-05-02T08:20:16.932Z</time></trkpt><trkpt lat="40.0739598" lon="15.5216546"><ele>4.5</ele><time>2026-05-02T08:20:17.909Z</time></trkpt><trkpt lat="40.0739476" lon="15.5217497"><ele>4.666666666666667</ele><time>2026-05-02T08:20:18.928Z</time></trkpt><trkpt lat="40.073932" lon="15.5218331"><ele>4.833333333333334</ele><time>2026-05-02T08:20:19.915Z</time></trkpt><trkpt lat="40.0739151" lon="15.5219665"><ele>5.0</ele><time>2026-05-02T08:20:21.917Z</time></trkpt><trkpt lat="40.073907" lon="15.5220549"><ele>4.833333333333334</ele><time>2026-05-02T08:20:23.934Z</time></trkpt><trkpt lat="40.0738935" lon="15.522169"><ele>4.666666666666667</ele><time>2026-05-02T08:20:26.93Z</time></trkpt><trkpt lat="40.0738809" lon="15.5222499"><ele>4.5</ele><time>2026-05-02T08:20:29.914Z</time></trkpt><trkpt lat="40.0738598" lon="15.5223651"><ele>4.333333333333333</ele><time>2026-05-02T08:20:32.921Z</time></trkpt><trkpt lat="40.0738445" lon="15.5225161"><ele>4.166666666666666</ele><time>2026-05-02T08:20:34.921Z</time></trkpt><trkpt lat="40.0738387" lon="15.5226129"><ele>4.0</ele><time>2026-05-02T08:20:35.941Z</time></trkpt><trkpt lat="40.0738316" lon="15.5227271"><ele>4.0</ele><time>2026-05-02T08:20:36.922Z</time></trkpt><trkpt lat="40.0738358" lon="15.5228292"><ele>3.9999999999999996</ele><time>2026-05-02T08:20:37.918Z</time></trkpt><trkpt lat="40.0738357" lon="15.522922"><ele>4.0</ele><time>2026-05-02T08:20:38.921Z</time></trkpt><trkpt lat="40.0738409" lon="15.5230069"><ele>4.0</ele><time>2026-05-02T08:20:39.921Z</time></trkpt><trkpt lat="40.0738486" lon="15.5230993"><ele>3.9999999999999996</ele><time>2026-05-02T08:20:40.921Z</time></trkpt><trkpt lat="40.0738594" lon="15.5231941"><ele>4.0</ele><time>2026-05-02T08:20:41.914Z</time></trkpt><trkpt lat="40.0738714" lon="15.5232988"><ele>4.0</ele><time>2026-05-02T08:20:42.932Z</time></trkpt><trkpt lat="40.0738874" lon="15.5234097"><ele>4.0</ele><time>2026-05-02T08:20:43.921Z</time></trkpt><trkpt lat="40.0739047" lon="15.5235311"><ele>4.0</ele><time>2026-05-02T08:20:44.924Z</time></trkpt><trkpt lat="40.0739259" lon="15.5236545"><ele>4.0</ele><time>2026-05-02T08:20:45.934Z</time></trkpt><trkpt lat="40.0739414" lon="15.5237856"><ele>4.0</ele><time>2026-05-02T08:20:46.933Z</time></trkpt><trkpt lat="40.0739579" lon="15.5239269"><ele>4.0</ele><time>2026-05-02T08:20:47.927Z</time></trkpt><trkpt lat="40.0739769" lon="15.5240789"><ele>3.75</ele><time>2026-05-02T08:20:48.92Z</time></trkpt><trkpt lat="40.0740008" lon="15.524235"><ele>3.5</ele><time>2026-05-02T08:20:49.918Z</time></trkpt><trkpt lat="40.0740271" lon="15.524403"><ele>3.25</ele><time>2026-05-02T08:20:50.929Z</time></trkpt><trkpt lat="40.0740466" lon="15.5245814"><ele>3.0</ele><time>2026-05-02T08:20:51.911Z</time></trkpt><trkpt lat="40.074074" lon="15.5247725"><ele>3.666666666666667</ele><time>2026-05-02T08:20:52.925Z</time></trkpt><trkpt lat="40.0741086" lon="15.5249721"><ele>4.333333333333334</ele><time>2026-05-02T08:20:53.926Z</time></trkpt><trkpt lat="40.0741379" lon="15.5251728"><ele>5.0</ele><time>2026-05-02T08:20:54.93Z</time></trkpt><trkpt lat="40.0741631" lon="15.5253605"><ele>4.75</ele><time>2026-05-02T08:20:55.922Z</time></trkpt><trkpt lat="40.0741848" lon="15.5255289"><ele>4.5</ele><time>2026-05-02T08:20:56.933Z</time></trkpt><trkpt lat="40.0742045" lon="15.5256853"><ele>4.25</ele><time>2026-05-02T08:20:57.924Z</time></trkpt><trkpt lat="40.0742217" lon="15.5258305"><ele>4.0</ele><time>2026-05-02T08:20:58.923Z</time></trkpt><trkpt lat="40.0742411" lon="15.5259748"><ele>4.0</ele><time>2026-05-02T08:20:59.917Z</time></trkpt><trkpt lat="40.0742639" lon="15.5261257"><ele>4.0</ele><time>2026-05-02T08:21:00.94Z</time></trkpt><trkpt lat="40.0742855" lon="15.5262854"><ele>4.0</ele><time>2026-05-02T08:21:01.921Z</time></trkpt><trkpt lat="40.0743106" lon="15.52645"><ele>4.0</ele><time>2026-05-02T08:21:02.928Z</time></trkpt><trkpt lat="40.0743397" lon="15.526618"><ele>3.75</ele><time>2026-05-02T08:21:03.93Z</time></trkpt><trkpt lat="40.0743654" lon="15.5267881"><ele>3.5</ele><time>2026-05-02T08:21:04.929Z</time></trkpt><trkpt lat="40.0743885" lon="15.5269544"><ele>3.25</ele><time>2026-05-02T08:21:05.937Z</time></trkpt><trkpt lat="40.0744087" lon="15.5271083"><ele>3.0</ele><time>2026-05-02T08:21:06.924Z</time></trkpt><trkpt lat="40.0744276" lon="15.527259"><ele>3.0</ele><time>2026-05-02T08:21:07.931Z</time></trkpt><trkpt lat="40.0744511" lon="15.5274164"><ele>3.0</ele><time>2026-05-02T08:21:08.928Z</time></trkpt><trkpt lat="40.0744767" lon="15.5275781"><ele>3.0</ele><time>2026-05-02T08:21:09.935Z</time></trkpt><trkpt lat="40.0744997" lon="15.5277454"><ele>3.0</ele><time>2026-05-02T08:21:10.932Z</time></trkpt><trkpt lat="40.0745199" lon="15.5279167"><ele>3.0</ele><time>2026-05-02T08:21:11.93Z</time></trkpt><trkpt lat="40.0745458" lon="15.5280795"><ele>3.0</ele><time>2026-05-02T08:21:12.932Z</time></trkpt><trkpt lat="40.074571" lon="15.5282258"><ele>3.0</ele><time>2026-05-02T08:21:13.926Z</time></trkpt><trkpt lat="40.0745927" lon="15.5283685"><ele>3.0</ele><time>2026-05-02T08:21:14.923Z</time></trkpt><trkpt lat="40.0746166" lon="15.5285106"><ele>3.0</ele><time>2026-05-02T08:21:15.928Z</time></trkpt><trkpt lat="40.0746387" lon="15.5286615"><ele>3.0</ele><time>2026-05-02T08:21:16.92Z</time></trkpt><trkpt lat="40.0746633" lon="15.528816"><ele>3.0</ele><time>2026-05-02T08:21:17.924Z</time></trkpt><trkpt lat="40.0746863" lon="15.5289767"><ele>3.0</ele><time>2026-05-02T08:21:18.918Z</time></trkpt><trkpt lat="40.0747075" lon="15.5291416"><ele>3.0</ele><time>2026-05-02T08:21:19.914Z</time></trkpt><trkpt lat="40.0747342" lon="15.5293113"><ele>3.0</ele><time>2026-05-02T08:21:20.921Z</time></trkpt><trkpt lat="40.0747608" lon="15.5294813"><ele>3.0</ele><time>2026-05-02T08:21:21.923Z</time></trkpt><trkpt lat="40.0747849" lon="15.5296473"><ele>3.0</ele><time>2026-05-02T08:21:22.929Z</time></trkpt><trkpt lat="40.0748091" lon="15.5298009"><ele>3.0</ele><time>2026-05-02T08:21:23.923Z</time></trkpt><trkpt lat="40.0748339" lon="15.529949"><ele>3.0</ele><time>2026-05-02T08:21:24.919Z</time></trkpt><trkpt lat="40.0748541" lon="15.5300977"><ele>3.0</ele><time>2026-05-02T08:21:25.91Z</time></trkpt><trkpt lat="40.0748601" lon="15.530253"><ele>3.0</ele><time>2026-05-02T08:21:26.918Z</time></trkpt><trkpt lat="40.0748604" lon="15.5304146"><ele>2.5</ele><time>2026-05-02T08:21:27.919Z</time></trkpt><trkpt lat="40.074858" lon="15.5305799"><ele>2.0</ele><time>2026-05-02T08:21:28.919Z</time></trkpt><trkpt lat="40.0748578" lon="15.5307464"><ele>1.5</ele><time>2026-05-02T08:21:29.907Z</time></trkpt><trkpt lat="40.0748588" lon="15.5309155"><ele>1.0</ele><time>2026-05-02T08:21:30.918Z</time></trkpt><trkpt lat="40.074867" lon="15.5310855"><ele>1.2000000000000002</ele><time>2026-05-02T08:21:31.93Z</time></trkpt><trkpt lat="40.0748709" lon="15.5312458"><ele>1.4000000000000001</ele><time>2026-05-02T08:21:32.922Z</time></trkpt><trkpt lat="40.0748718" lon="15.5313949"><ele>1.6</ele><time>2026-05-02T08:21:33.917Z</time></trkpt><trkpt lat="40.0748701" lon="15.5315279"><ele>1.8</ele><time>2026-05-02T08:21:34.928Z</time></trkpt><trkpt lat="40.0748741" lon="15.531652"><ele>2.0</ele><time>2026-05-02T08:21:35.923Z</time></trkpt><trkpt lat="40.0748758" lon="15.5317733"><ele>1.9999999999999998</ele><time>2026-05-02T08:21:36.914Z</time></trkpt><trkpt lat="40.0748798" lon="15.5318923"><ele>2.0</ele><time>2026-05-02T08:21:37.919Z</time></trkpt><trkpt lat="40.074875" lon="15.5320088"><ele>2.0</ele><time>2026-05-02T08:21:38.93Z</time></trkpt><trkpt lat="40.0748739" lon="15.5321148"><ele>2.0</ele><time>2026-05-02T08:21:39.916Z</time></trkpt><trkpt lat="40.0748762" lon="15.5322076"><ele>1.9999999999999998</ele><time>2026-05-02T08:21:40.928Z</time></trkpt><trkpt lat="40.0748722" lon="15.5322983"><ele>2.0</ele><time>2026-05-02T08:21:41.922Z</time></trkpt><trkpt lat="40.074869" lon="15.5324523"><ele>2.0</ele><time>2026-05-02T08:21:43.92Z</time></trkpt><trkpt lat="40.0748778" lon="15.5325822"><ele>2.0</ele><time>2026-05-02T08:21:45.931Z</time></trkpt><trkpt lat="40.0748778" lon="15.532666"><ele>2.0</ele><time>2026-05-02T08:21:47.919Z</time></trkpt><trkpt lat="40.0748713" lon="15.5327658"><ele>2.0</ele><time>2026-05-02T08:22:10.933Z</time></trkpt><trkpt lat="40.0748908" lon="15.5329355"><ele>2.0</ele><time>2026-05-02T08:22:12.932Z</time></trkpt><trkpt lat="40.0748964" lon="15.5330527"><ele>2.0</ele><time>2026-05-02T08:22:13.936Z</time></trkpt><trkpt lat="40.0749038" lon="15.5331831"><ele>2.0</ele><time>2026-05-02T08:22:14.916Z</time></trkpt><trkpt lat="40.0749126" lon="15.5333382"><ele>2.0</ele><time>2026-05-02T08:22:15.916Z</time></trkpt><trkpt lat="40.0749199" lon="15.5335133"><ele>2.0</ele><time>2026-05-02T08:22:16.939Z</time></trkpt><trkpt lat="40.0749251" lon="15.5337206"><ele>2.0</ele><time>2026-05-02T08:22:17.92Z</time></trkpt><trkpt lat="40.0749229" lon="15.533949"><ele>2.0</ele><time>2026-05-02T08:22:18.924Z</time></trkpt><trkpt lat="40.0749123" lon="15.53417"><ele>2.0</ele><time>2026-05-02T08:22:19.913Z</time></trkpt><trkpt lat="40.0748982" lon="15.534365"><ele>1.75</ele><time>2026-05-02T08:22:20.923Z</time></trkpt><trkpt lat="40.0748931" lon="15.5345549"><ele>1.5</ele><time>2026-05-02T08:22:21.93Z</time></trkpt><trkpt lat="40.074897" lon="15.534752"><ele>1.25</ele><time>2026-05-02T08:22:22.924Z</time></trkpt><trkpt lat="40.0749082" lon="15.5349443"><ele>1.0</ele><time>2026-05-02T08:22:23.928Z</time></trkpt><trkpt lat="40.0749187" lon="15.535109"><ele>1.0</ele><time>2026-05-02T08:22:24.929Z</time></trkpt><trkpt lat="40.0749318" lon="15.5352755"><ele>1.0</ele><time>2026-05-02T08:22:25.929Z</time></trkpt><trkpt lat="40.0749566" lon="15.5354526"><ele>1.0</ele><time>2026-05-02T08:22:26.917Z</time></trkpt><trkpt lat="40.0749979" lon="15.5356269"><ele>1.0</ele><time>2026-05-02T08:22:27.915Z</time></trkpt><trkpt lat="40.0750649" lon="15.5357978"><ele>1.6666666666666665</ele><time>2026-05-02T08:22:28.909Z</time></trkpt><trkpt lat="40.0751493" lon="15.5359753"><ele>2.3333333333333335</ele><time>2026-05-02T08:22:29.923Z</time></trkpt><trkpt lat="40.0752322" lon="15.5361731"><ele>3.0</ele><time>2026-05-02T08:22:30.919Z</time></trkpt><trkpt lat="40.0753107" lon="15.5363995"><ele>3.0</ele><time>2026-05-02T08:22:31.937Z</time></trkpt><trkpt lat="40.0753807" lon="15.5366272"><ele>3.0</ele><time>2026-05-02T08:22:32.925Z</time></trkpt><trkpt lat="40.07545" lon="15.5368282"><ele>3.0</ele><time>2026-05-02T08:22:33.921Z</time></trkpt><trkpt lat="40.0755199" lon="15.5370058"><ele>3.0</ele><time>2026-05-02T08:22:34.92Z</time></trkpt><trkpt lat="40.0755812" lon="15.5371764"><ele>3.0</ele><time>2026-05-02T08:22:35.928Z</time></trkpt><trkpt lat="40.0756318" lon="15.537348"><ele>3.0</ele><time>2026-05-02T08:22:36.921Z</time></trkpt><trkpt lat="40.0756711" lon="15.5375143"><ele>3.0</ele><time>2026-05-02T08:22:37.92Z</time></trkpt><trkpt lat="40.0756871" lon="15.5376951"><ele>2.6666666666666665</ele><time>2026-05-02T08:22:38.919Z</time></trkpt><trkpt lat="40.0756943" lon="15.5378893"><ele>2.333333333333333</ele><time>2026-05-02T08:22:39.915Z</time></trkpt><trkpt lat="40.0757015" lon="15.5380974"><ele>2.0</ele><time>2026-05-02T08:22:40.925Z</time></trkpt><trkpt lat="40.0757093" lon="15.5383063"><ele>2.0</ele><time>2026-05-02T08:22:41.925Z</time></trkpt><trkpt lat="40.0757071" lon="15.5385188"><ele>2.0</ele><time>2026-05-02T08:22:42.925Z</time></trkpt><trkpt lat="40.07571" lon="15.5387339"><ele>2.0</ele><time>2026-05-02T08:22:43.927Z</time></trkpt><trkpt lat="40.0757105" lon="15.5389546"><ele>1.6666666666666665</ele><time>2026-05-02T08:22:44.931Z</time></trkpt><trkpt lat="40.0757086" lon="15.539181"><ele>1.3333333333333333</ele><time>2026-05-02T08:22:45.929Z</time></trkpt><trkpt lat="40.0757069" lon="15.53941"><ele>1.0</ele><time>2026-05-02T08:22:46.924Z</time></trkpt><trkpt lat="40.0757051" lon="15.5396381"><ele>1.0</ele><time>2026-05-02T08:22:47.926Z</time></trkpt><trkpt lat="40.075705" lon="15.5398704"><ele>1.0</ele><time>2026-05-02T08:22:48.927Z</time></trkpt><trkpt lat="40.0757092" lon="15.5400926"><ele>1.0</ele><time>2026-05-02T08:22:49.918Z</time></trkpt><trkpt lat="40.0757102" lon="15.5403015"><ele>1.0</ele><time>2026-05-02T08:22:50.92Z</time></trkpt><trkpt lat="40.0757066" lon="15.5404993"><ele>1.0</ele><time>2026-05-02T08:22:51.913Z</time></trkpt><trkpt lat="40.0757066" lon="15.5406897"><ele>1.0</ele><time>2026-05-02T08:22:52.927Z</time></trkpt><trkpt lat="40.0757053" lon="15.5408835"><ele>1.0</ele><time>2026-05-02T08:22:53.922Z</time></trkpt><trkpt lat="40.0757078" lon="15.5410832"><ele>1.3333333333333333</ele><time>2026-05-02T08:22:54.939Z</time></trkpt><trkpt lat="40.0757105" lon="15.5412914"><ele>1.6666666666666665</ele><time>2026-05-02T08:22:55.924Z</time></trkpt><trkpt lat="40.075717" lon="15.5415073"><ele>2.0</ele><time>2026-05-02T08:22:56.925Z</time></trkpt><trkpt lat="40.0757225" lon="15.5417312"><ele>2.0</ele><time>2026-05-02T08:22:57.918Z</time></trkpt><trkpt lat="40.0757302" lon="15.5419579"><ele>2.0</ele><time>2026-05-02T08:22:58.923Z</time></trkpt><trkpt lat="40.0757442" lon="15.5421833"><ele>2.0</ele><time>2026-05-02T08:22:59.918Z</time></trkpt><trkpt lat="40.0757587" lon="15.542411"><ele>2.333333333333333</ele><time>2026-05-02T08:23:00.927Z</time></trkpt><trkpt lat="40.0757776" lon="15.5426392"><ele>2.6666666666666665</ele><time>2026-05-02T08:23:01.924Z</time></trkpt><trkpt lat="40.075797" lon="15.5428671"><ele>3.0</ele><time>2026-05-02T08:23:02.931Z</time></trkpt><trkpt lat="40.0758158" lon="15.5430933"><ele>3.0</ele><time>2026-05-02T08:23:03.915Z</time></trkpt><trkpt lat="40.0758371" lon="15.5433196"><ele>3.0</ele><time>2026-05-02T08:23:04.93Z</time></trkpt><trkpt lat="40.0758571" lon="15.543546"><ele>3.0</ele><time>2026-05-02T08:23:05.921Z</time></trkpt><trkpt lat="40.0758765" lon="15.5437868"><ele>3.0</ele><time>2026-05-02T08:23:06.917Z</time></trkpt><trkpt lat="40.0759016" lon="15.5440348"><ele>3.0</ele><time>2026-05-02T08:23:07.914Z</time></trkpt><trkpt lat="40.0759225" lon="15.5442939"><ele>3.0</ele><time>2026-05-02T08:23:08.917Z</time></trkpt><trkpt lat="40.0759389" lon="15.544563"><ele>3.0</ele><time>2026-05-02T08:23:09.926Z</time></trkpt><trkpt lat="40.0759532" lon="15.5448319"><ele>3.0</ele><time>2026-05-02T08:23:10.931Z</time></trkpt><trkpt lat="40.0759619" lon="15.5450915"><ele>3.0</ele><time>2026-05-02T08:23:11.914Z</time></trkpt><trkpt lat="40.0759819" lon="15.5453339"><ele>2.6666666666666665</ele><time>2026-05-02T08:23:12.924Z</time></trkpt><trkpt lat="40.0759961" lon="15.5455649"><ele>2.333333333333333</ele><time>2026-05-02T08:23:13.923Z</time></trkpt><trkpt lat="40.0760092" lon="15.5457928"><ele>2.0</ele><time>2026-05-02T08:23:14.934Z</time></trkpt><trkpt lat="40.0760265" lon="15.5460163"><ele>2.0</ele><time>2026-05-02T08:23:15.912Z</time></trkpt><trkpt lat="40.0760434" lon="15.546242"><ele>2.0</ele><time>2026-05-02T08:23:16.934Z</time></trkpt><trkpt lat="40.0760625" lon="15.5464637"><ele>2.0</ele><time>2026-05-02T08:23:17.897Z</time></trkpt><trkpt lat="40.0760803" lon="15.5466829"><ele>2.0</ele><time>2026-05-02T08:23:18.927Z</time></trkpt><trkpt lat="40.0760999" lon="15.5468844"><ele>2.0</ele><time>2026-05-02T08:23:19.916Z</time></trkpt><trkpt lat="40.0761134" lon="15.5470763"><ele>2.0</ele><time>2026-05-02T08:23:20.914Z</time></trkpt><trkpt lat="40.076127" lon="15.5472624"><ele>2.0</ele><time>2026-05-02T08:23:21.922Z</time></trkpt><trkpt lat="40.0761377" lon="15.5474466"><ele>2.25</ele><time>2026-05-02T08:23:22.93Z</time></trkpt><trkpt lat="40.0761505" lon="15.5476283"><ele>2.5</ele><time>2026-05-02T08:23:23.919Z</time></trkpt><trkpt lat="40.0761653" lon="15.547815"><ele>2.75</ele><time>2026-05-02T08:23:24.924Z</time></trkpt><trkpt lat="40.076182" lon="15.5480056"><ele>3.0</ele><time>2026-05-02T08:23:25.922Z</time></trkpt><trkpt lat="40.0761954" lon="15.5481969"><ele>3.0</ele><time>2026-05-02T08:23:26.922Z</time></trkpt><trkpt lat="40.0762093" lon="15.5483904"><ele>3.0</ele><time>2026-05-02T08:23:27.923Z</time></trkpt><trkpt lat="40.0762265" lon="15.5485825"><ele>3.0</ele><time>2026-05-02T08:23:28.929Z</time></trkpt><trkpt lat="40.0762405" lon="15.5487688"><ele>3.0</ele><time>2026-05-02T08:23:29.913Z</time></trkpt><trkpt lat="40.0762519" lon="15.5489446"><ele>3.0</ele><time>2026-05-02T08:23:30.92Z</time></trkpt><trkpt lat="40.0762633" lon="15.5491066"><ele>3.0</ele><time>2026-05-02T08:23:31.911Z</time></trkpt><trkpt lat="40.0762789" lon="15.5492588"><ele>3.0</ele><time>2026-05-02T08:23:32.925Z</time></trkpt><trkpt lat="40.076292" lon="15.5494045"><ele>3.0</ele><time>2026-05-02T08:23:33.907Z</time></trkpt><trkpt lat="40.076305" lon="15.5495438"><ele>3.0</ele><time>2026-05-02T08:23:34.918Z</time></trkpt><trkpt lat="40.0763171" lon="15.5496898"><ele>3.0</ele><time>2026-05-02T08:23:35.928Z</time></trkpt><trkpt lat="40.0763276" lon="15.5498456"><ele>3.0</ele><time>2026-05-02T08:23:36.928Z</time></trkpt><trkpt lat="40.0763335" lon="15.55001"><ele>3.0</ele><time>2026-05-02T08:23:37.931Z</time></trkpt><trkpt lat="40.0763433" lon="15.550178"><ele>3.0</ele><time>2026-05-02T08:23:38.925Z</time></trkpt><trkpt lat="40.0763594" lon="15.5503547"><ele>3.0</ele><time>2026-05-02T08:23:39.919Z</time></trkpt><trkpt lat="40.0763758" lon="15.5505307"><ele>3.0</ele><time>2026-05-02T08:23:40.933Z</time></trkpt><trkpt lat="40.0763879" lon="15.5507114"><ele>3.0</ele><time>2026-05-02T08:23:41.928Z</time></trkpt><trkpt lat="40.0764007" lon="15.5508973"><ele>2.75</ele><time>2026-05-02T08:23:42.925Z</time></trkpt><trkpt lat="40.0764111" lon="15.551084"><ele>2.5</ele><time>2026-05-02T08:23:43.922Z</time></trkpt><trkpt lat="40.0764299" lon="15.551264"><ele>2.25</ele><time>2026-05-02T08:23:44.924Z</time></trkpt><trkpt lat="40.0764463" lon="15.5514548"><ele>2.0</ele><time>2026-05-02T08:23:45.924Z</time></trkpt><trkpt lat="40.0764574" lon="15.5516531"><ele>2.0</ele><time>2026-05-02T08:23:46.927Z</time></trkpt><trkpt lat="40.0764622" lon="15.5518516"><ele>2.0</ele><time>2026-05-02T08:23:47.913Z</time></trkpt><trkpt lat="40.0764661" lon="15.5520452"><ele>2.0</ele><time>2026-05-02T08:23:48.938Z</time></trkpt><trkpt lat="40.0764648" lon="15.5522255"><ele>2.0</ele><time>2026-05-02T08:23:49.919Z</time></trkpt><trkpt lat="40.0764665" lon="15.5523938"><ele>1.75</ele><time>2026-05-02T08:23:50.911Z</time></trkpt><trkpt lat="40.0764683" lon="15.5525596"><ele>1.5</ele><time>2026-05-02T08:23:51.929Z</time></trkpt><trkpt lat="40.0764727" lon="15.5527321"><ele>1.25</ele><time>2026-05-02T08:23:52.923Z</time></trkpt><trkpt lat="40.0764762" lon="15.5529077"><ele>1.0</ele><time>2026-05-02T08:23:53.934Z</time></trkpt><trkpt lat="40.0764821" lon="15.5530861"><ele>1.0</ele><time>2026-05-02T08:23:54.924Z</time></trkpt><trkpt lat="40.0764863" lon="15.5532685"><ele>1.0</ele><time>2026-05-02T08:23:55.926Z</time></trkpt><trkpt lat="40.0764893" lon="15.5534573"><ele>1.0</ele><time>2026-05-02T08:23:56.923Z</time></trkpt><trkpt lat="40.0764907" lon="15.5536521"><ele>1.0</ele><time>2026-05-02T08:23:57.921Z</time></trkpt><trkpt lat="40.0764929" lon="15.5538445"><ele>1.3333333333333333</ele><time>2026-05-02T08:23:58.92Z</time></trkpt><trkpt lat="40.0764916" lon="15.55404"><ele>1.6666666666666665</ele><time>2026-05-02T08:23:59.916Z</time></trkpt><trkpt lat="40.076488" lon="15.5542395"><ele>2.0</ele><time>2026-05-02T08:24:00.91Z</time></trkpt><trkpt lat="40.0764852" lon="15.554444"><ele>2.0</ele><time>2026-05-02T08:24:01.899Z</time></trkpt><trkpt lat="40.0764843" lon="15.5546342"><ele>2.0</ele><time>2026-05-02T08:24:02.922Z</time></trkpt><trkpt lat="40.0764805" lon="15.5548139"><ele>2.0</ele><time>2026-05-02T08:24:03.92Z</time></trkpt><trkpt lat="40.0764734" lon="15.5549959"><ele>2.0</ele><time>2026-05-02T08:24:04.944Z</time></trkpt><trkpt lat="40.0764592" lon="15.5551779"><ele>2.0</ele><time>2026-05-02T08:24:05.922Z</time></trkpt><trkpt lat="40.0764305" lon="15.5553621"><ele>2.0</ele><time>2026-05-02T08:24:06.92Z</time></trkpt><trkpt lat="40.0763912" lon="15.5555339"><ele>2.0</ele><time>2026-05-02T08:24:07.934Z</time></trkpt><trkpt lat="40.0763496" lon="15.5556962"><ele>2.0</ele><time>2026-05-02T08:24:08.933Z</time></trkpt><trkpt lat="40.0763171" lon="15.5558528"><ele>2.0</ele><time>2026-05-02T08:24:09.922Z</time></trkpt><trkpt lat="40.0762782" lon="15.5560132"><ele>2.0</ele><time>2026-05-02T08:24:10.925Z</time></trkpt><trkpt lat="40.0762451" lon="15.5561838"><ele>2.0</ele><time>2026-05-02T08:24:11.93Z</time></trkpt><trkpt lat="40.0762211" lon="15.5563629"><ele>2.0</ele><time>2026-05-02T08:24:12.92Z</time></trkpt><trkpt lat="40.0762061" lon="15.556547"><ele>2.0</ele><time>2026-05-02T08:24:13.912Z</time></trkpt><trkpt lat="40.0762021" lon="15.5567311"><ele>2.0</ele><time>2026-05-02T08:24:14.931Z</time></trkpt><trkpt lat="40.0762013" lon="15.5569131"><ele>2.0</ele><time>2026-05-02T08:24:15.92Z</time></trkpt><trkpt lat="40.0761991" lon="15.5570916"><ele>2.0</ele><time>2026-05-02T08:24:16.931Z</time></trkpt><trkpt lat="40.0761969" lon="15.557265"><ele>2.5</ele><time>2026-05-02T08:24:17.917Z</time></trkpt><trkpt lat="40.0761971" lon="15.5574385"><ele>3.0</ele><time>2026-05-02T08:24:18.935Z</time></trkpt><trkpt lat="40.0761938" lon="15.557611"><ele>3.5</ele><time>2026-05-02T08:24:19.933Z</time></trkpt><trkpt lat="40.0761929" lon="15.5577842"><ele>4.0</ele><time>2026-05-02T08:24:20.931Z</time></trkpt><trkpt lat="40.0761938" lon="15.5579559"><ele>4.0</ele><time>2026-05-02T08:24:21.92Z</time></trkpt><trkpt lat="40.076193" lon="15.5581254"><ele>4.0</ele><time>2026-05-02T08:24:22.925Z</time></trkpt><trkpt lat="40.0761912" lon="15.5582949"><ele>4.0</ele><time>2026-05-02T08:24:23.92Z</time></trkpt><trkpt lat="40.0761876" lon="15.5584644"><ele>4.0</ele><time>2026-05-02T08:24:24.924Z</time></trkpt><trkpt lat="40.0761824" lon="15.5586384"><ele>3.75</ele><time>2026-05-02T08:24:25.915Z</time></trkpt><trkpt lat="40.0761774" lon="15.5588089"><ele>3.5</ele><time>2026-05-02T08:24:26.937Z</time></trkpt><trkpt lat="40.0761724" lon="15.5589753"><ele>3.25</ele><time>2026-05-02T08:24:27.909Z</time></trkpt><trkpt lat="40.0761703" lon="15.559138"><ele>3.0</ele><time>2026-05-02T08:24:28.924Z</time></trkpt><trkpt lat="40.0761666" lon="15.5593062"><ele>3.0</ele><time>2026-05-02T08:24:29.91Z</time></trkpt><trkpt lat="40.0761635" lon="15.5594742"><ele>3.0</ele><time>2026-05-02T08:24:30.924Z</time></trkpt><trkpt lat="40.0761594" lon="15.5596399"><ele>3.0</ele><time>2026-05-02T08:24:31.915Z</time></trkpt><trkpt lat="40.0761571" lon="15.5598106"><ele>3.0</ele><time>2026-05-02T08:24:32.928Z</time></trkpt><trkpt lat="40.0761535" lon="15.559982"><ele>3.25</ele><time>2026-05-02T08:24:33.915Z</time></trkpt><trkpt lat="40.0761533" lon="15.5601542"><ele>3.5</ele><time>2026-05-02T08:24:34.933Z</time></trkpt><trkpt lat="40.0761512" lon="15.5603272"><ele>3.75</ele><time>2026-05-02T08:24:35.914Z</time></trkpt><trkpt lat="40.0761487" lon="15.5604997"><ele>4.0</ele><time>2026-05-02T08:24:36.929Z</time></trkpt><trkpt lat="40.07615" lon="15.5606714"><ele>4.0</ele><time>2026-05-02T08:24:37.919Z</time></trkpt><trkpt lat="40.0761511" lon="15.5608439"><ele>4.0</ele><time>2026-05-02T08:24:38.918Z</time></trkpt><trkpt lat="40.0761482" lon="15.5610148"><ele>4.0</ele><time>2026-05-02T08:24:39.923Z</time></trkpt><trkpt lat="40.0761448" lon="15.5611855"><ele>4.0</ele><time>2026-05-02T08:24:40.928Z</time></trkpt><trkpt lat="40.0761374" lon="15.5613564"><ele>3.75</ele><time>2026-05-02T08:24:41.92Z</time></trkpt><trkpt lat="40.0761277" lon="15.5615278"><ele>3.5</ele><time>2026-05-02T08:24:42.927Z</time></trkpt><trkpt lat="40.0761167" lon="15.5617033"><ele>3.25</ele><time>2026-05-02T08:24:43.913Z</time></trkpt><trkpt lat="40.0761141" lon="15.5618838"><ele>3.0</ele><time>2026-05-02T08:24:44.923Z</time></trkpt><trkpt lat="40.0761156" lon="15.5620654"><ele>3.0</ele><time>2026-05-02T08:24:45.919Z</time></trkpt><trkpt lat="40.0761164" lon="15.5622497"><ele>3.0</ele><time>2026-05-02T08:24:46.919Z</time></trkpt><trkpt lat="40.0761143" lon="15.5624345"><ele>3.0</ele><time>2026-05-02T08:24:47.927Z</time></trkpt><trkpt lat="40.0761128" lon="15.5626212"><ele>3.0</ele><time>2026-05-02T08:24:48.922Z</time></trkpt><trkpt lat="40.0761065" lon="15.562805"><ele>3.25</ele><time>2026-05-02T08:24:49.921Z</time></trkpt><trkpt lat="40.0761005" lon="15.5629939"><ele>3.5</ele><time>2026-05-02T08:24:50.925Z</time></trkpt><trkpt lat="40.0760893" lon="15.5631758"><ele>3.75</ele><time>2026-05-02T08:24:51.92Z</time></trkpt><trkpt lat="40.076084" lon="15.5633554"><ele>4.0</ele><time>2026-05-02T08:24:52.927Z</time></trkpt><trkpt lat="40.0760811" lon="15.5635409"><ele>4.75</ele><time>2026-05-02T08:24:53.912Z</time></trkpt><trkpt lat="40.0760741" lon="15.5637259"><ele>5.5</ele><time>2026-05-02T08:24:54.918Z</time></trkpt><trkpt lat="40.0760647" lon="15.5639119"><ele>6.25</ele><time>2026-05-02T08:24:55.934Z</time></trkpt><trkpt lat="40.0760534" lon="15.5641011"><ele>7.0</ele><time>2026-05-02T08:24:56.922Z</time></trkpt><trkpt lat="40.0760506" lon="15.5642943"><ele>7.0</ele><time>2026-05-02T08:24:57.928Z</time></trkpt><trkpt lat="40.0760556" lon="15.5644942"><ele>7.0</ele><time>2026-05-02T08:24:58.924Z</time></trkpt><trkpt lat="40.0760744" lon="15.564677"><ele>7.0</ele><time>2026-05-02T08:24:59.936Z</time></trkpt><trkpt lat="40.0761009" lon="15.5648398"><ele>7.0</ele><time>2026-05-02T08:25:00.928Z</time></trkpt><trkpt lat="40.0761451" lon="15.5649925"><ele>6.5</ele><time>2026-05-02T08:25:01.927Z</time></trkpt><trkpt lat="40.0762069" lon="15.5651507"><ele>6.0</ele><time>2026-05-02T08:25:02.921Z</time></trkpt><trkpt lat="40.0762892" lon="15.5653025"><ele>5.5</ele><time>2026-05-02T08:25:03.929Z</time></trkpt><trkpt lat="40.0763735" lon="15.5654531"><ele>5.0</ele><time>2026-05-02T08:25:04.928Z</time></trkpt><trkpt lat="40.0764642" lon="15.5655969"><ele>4.0</ele><time>2026-05-02T08:25:05.921Z</time></trkpt><trkpt lat="40.0765515" lon="15.5657287"><ele>3.0</ele><time>2026-05-02T08:25:06.905Z</time></trkpt><trkpt lat="40.0766254" lon="15.5658454"><ele>2.0</ele><time>2026-05-02T08:25:07.925Z</time></trkpt><trkpt lat="40.0766927" lon="15.5659573"><ele>1.0</ele><time>2026-05-02T08:25:08.92Z</time></trkpt><trkpt lat="40.0767623" lon="15.5660607"><ele>2.75</ele><time>2026-05-02T08:25:09.915Z</time></trkpt><trkpt lat="40.0768401" lon="15.5661678"><ele>4.5</ele><time>2026-05-02T08:25:10.928Z</time></trkpt><trkpt lat="40.0769249" lon="15.5662801"><ele>6.25</ele><time>2026-05-02T08:25:11.919Z</time></trkpt><trkpt lat="40.0770101" lon="15.5663951"><ele>8.0</ele><time>2026-05-02T08:25:12.921Z</time></trkpt><trkpt lat="40.0770814" lon="15.5664945"><ele>7.999999999999999</ele><time>2026-05-02T08:25:13.916Z</time></trkpt><trkpt lat="40.0771203" lon="15.566584"><ele>8.0</ele><time>2026-05-02T08:25:14.917Z</time></trkpt><trkpt lat="40.0771422" lon="15.5666645"><ele>8.0</ele><time>2026-05-02T08:25:15.916Z</time></trkpt><trkpt lat="40.0771573" lon="15.5667531"><ele>8.0</ele><time>2026-05-02T08:25:16.92Z</time></trkpt><trkpt lat="40.0771625" lon="15.5668619"><ele>7.999999999999999</ele><time>2026-05-02T08:25:17.919Z</time></trkpt><trkpt lat="40.0771662" lon="15.5669869"><ele>8.0</ele><time>2026-05-02T08:25:18.915Z</time></trkpt><trkpt lat="40.0771743" lon="15.5671295"><ele>7.25</ele><time>2026-05-02T08:25:19.919Z</time></trkpt><trkpt lat="40.0771835" lon="15.567292"><ele>6.5</ele><time>2026-05-02T08:25:20.925Z</time></trkpt><trkpt lat="40.0772069" lon="15.567457"><ele>5.75</ele><time>2026-05-02T08:25:21.907Z</time></trkpt><trkpt lat="40.0772493" lon="15.5676365"><ele>5.0</ele><time>2026-05-02T08:25:22.924Z</time></trkpt><trkpt lat="40.0773106" lon="15.5678176"><ele>3.666666666666667</ele><time>2026-05-02T08:25:23.909Z</time></trkpt><trkpt lat="40.077388" lon="15.5680018"><ele>2.3333333333333335</ele><time>2026-05-02T08:25:24.917Z</time></trkpt><trkpt lat="40.0774689" lon="15.5681885"><ele>1.0</ele><time>2026-05-02T08:25:25.913Z</time></trkpt><trkpt lat="40.0775558" lon="15.5683698"><ele>2.3333333333333335</ele><time>2026-05-02T08:25:26.928Z</time></trkpt><trkpt lat="40.0776579" lon="15.5685544"><ele>3.666666666666667</ele><time>2026-05-02T08:25:27.924Z</time></trkpt><trkpt lat="40.0777491" lon="15.568739"><ele>5.0</ele><time>2026-05-02T08:25:28.935Z</time></trkpt><trkpt lat="40.0778365" lon="15.5689097"><ele>5.0</ele><time>2026-05-02T08:25:29.915Z</time></trkpt><trkpt lat="40.077909" lon="15.5690646"><ele>5.0</ele><time>2026-05-02T08:25:30.925Z</time></trkpt><trkpt lat="40.077967" lon="15.5692204"><ele>5.0</ele><time>2026-05-02T08:25:31.914Z</time></trkpt><trkpt lat="40.0779945" lon="15.5693861"><ele>5.0</ele><time>2026-05-02T08:25:32.913Z</time></trkpt><trkpt lat="40.0780034" lon="15.5695651"><ele>4.25</ele><time>2026-05-02T08:25:33.916Z</time></trkpt><trkpt lat="40.0780073" lon="15.5697511"><ele>3.5</ele><time>2026-05-02T08:25:34.917Z</time></trkpt><trkpt lat="40.0780219" lon="15.5699408"><ele>2.75</ele><time>2026-05-02T08:25:35.922Z</time></trkpt><trkpt lat="40.0780562" lon="15.5701257"><ele>2.0</ele><time>2026-05-02T08:25:36.93Z</time></trkpt><trkpt lat="40.0781108" lon="15.5703117"><ele>1.6666666666666665</ele><time>2026-05-02T08:25:37.919Z</time></trkpt><trkpt lat="40.078194" lon="15.5704853"><ele>1.3333333333333333</ele><time>2026-05-02T08:25:38.928Z</time></trkpt><trkpt lat="40.0782916" lon="15.5706619"><ele>1.0</ele><time>2026-05-02T08:25:39.915Z</time></trkpt><trkpt lat="40.0783891" lon="15.5708401"><ele>2.6666666666666665</ele><time>2026-05-02T08:25:40.92Z</time></trkpt><trkpt lat="40.0784795" lon="15.5710239"><ele>4.333333333333333</ele><time>2026-05-02T08:25:41.915Z</time></trkpt><trkpt lat="40.0785569" lon="15.571223"><ele>6.0</ele><time>2026-05-02T08:25:42.928Z</time></trkpt><trkpt lat="40.0786265" lon="15.5714151"><ele>6.0</ele><time>2026-05-02T08:25:43.919Z</time></trkpt><trkpt lat="40.0786985" lon="15.571599"><ele>6.0</ele><time>2026-05-02T08:25:44.922Z</time></trkpt><trkpt lat="40.078779" lon="15.5717819"><ele>6.0</ele><time>2026-05-02T08:25:45.918Z</time></trkpt><trkpt lat="40.0788695" lon="15.5719649"><ele>5.0</ele><time>2026-05-02T08:25:46.924Z</time></trkpt><trkpt lat="40.0789634" lon="15.5721512"><ele>4.0</ele><time>2026-05-02T08:25:47.914Z</time></trkpt><trkpt lat="40.0790471" lon="15.572337"><ele>3.0</ele><time>2026-05-02T08:25:48.928Z</time></trkpt><trkpt lat="40.0791225" lon="15.5725247"><ele>4.666666666666666</ele><time>2026-05-02T08:25:49.927Z</time></trkpt><trkpt lat="40.079194" lon="15.5726996"><ele>6.333333333333333</ele><time>2026-05-02T08:25:50.931Z</time></trkpt><trkpt lat="40.0792685" lon="15.5728703"><ele>8.0</ele><time>2026-05-02T08:25:51.928Z</time></trkpt><trkpt lat="40.0793438" lon="15.5730382"><ele>8.0</ele><time>2026-05-02T08:25:52.934Z</time></trkpt><trkpt lat="40.0794173" lon="15.5732119"><ele>8.0</ele><time>2026-05-02T08:25:53.92Z</time></trkpt><trkpt lat="40.079483" lon="15.5734033"><ele>8.0</ele><time>2026-05-02T08:25:54.923Z</time></trkpt><trkpt lat="40.0795416" lon="15.5735983"><ele>7.333333333333333</ele><time>2026-05-02T08:25:55.914Z</time></trkpt><trkpt lat="40.0796003" lon="15.5737953"><ele>6.666666666666666</ele><time>2026-05-02T08:25:56.922Z</time></trkpt><trkpt lat="40.0796723" lon="15.5739878"><ele>6.0</ele><time>2026-05-02T08:25:57.911Z</time></trkpt><trkpt lat="40.0797521" lon="15.5741687"><ele>6.0</ele><time>2026-05-02T08:25:58.932Z</time></trkpt><trkpt lat="40.0798298" lon="15.57435"><ele>6.0</ele><time>2026-05-02T08:25:59.92Z</time></trkpt><trkpt lat="40.079902" lon="15.5745304"><ele>6.0</ele><time>2026-05-02T08:26:00.925Z</time></trkpt><trkpt lat="40.0799699" lon="15.5747165"><ele>8.333333333333332</ele><time>2026-05-02T08:26:01.917Z</time></trkpt><trkpt lat="40.0800357" lon="15.5749113"><ele>10.666666666666666</ele><time>2026-05-02T08:26:02.915Z</time></trkpt><trkpt lat="40.0800922" lon="15.5751164"><ele>13.0</ele><time>2026-05-02T08:26:03.918Z</time></trkpt><trkpt lat="40.0801432" lon="15.5753365"><ele>11.333333333333332</ele><time>2026-05-02T08:26:04.918Z</time></trkpt><trkpt lat="40.0801838" lon="15.5755708"><ele>9.666666666666666</ele><time>2026-05-02T08:26:05.925Z</time></trkpt><trkpt lat="40.0802141" lon="15.5758099"><ele>8.0</ele><time>2026-05-02T08:26:06.916Z</time></trkpt><trkpt lat="40.080246" lon="15.5760432"><ele>7.666666666666666</ele><time>2026-05-02T08:26:07.92Z</time></trkpt><trkpt lat="40.0802849" lon="15.5762696"><ele>7.333333333333334</ele><time>2026-05-02T08:26:08.922Z</time></trkpt><trkpt lat="40.0803289" lon="15.576496"><ele>7.0</ele><time>2026-05-02T08:26:09.908Z</time></trkpt><trkpt lat="40.0803832" lon="15.5767236"><ele>7.0</ele><time>2026-05-02T08:26:10.919Z</time></trkpt><trkpt lat="40.0804385" lon="15.5769468"><ele>7.0</ele><time>2026-05-02T08:26:11.927Z</time></trkpt><trkpt lat="40.0805062" lon="15.5771757"><ele>7.0</ele><time>2026-05-02T08:26:12.927Z</time></trkpt><trkpt lat="40.0805737" lon="15.5773966"><ele>6.666666666666667</ele><time>2026-05-02T08:26:13.914Z</time></trkpt><trkpt lat="40.0806261" lon="15.5776113"><ele>6.333333333333334</ele><time>2026-05-02T08:26:14.923Z</time></trkpt><trkpt lat="40.0806509" lon="15.5778385"><ele>6.0</ele><time>2026-05-02T08:26:15.926Z</time></trkpt><trkpt lat="40.0806526" lon="15.5780655"><ele>5.666666666666667</ele><time>2026-05-02T08:26:16.93Z</time></trkpt><trkpt lat="40.0806426" lon="15.5782883"><ele>5.333333333333334</ele><time>2026-05-02T08:26:17.909Z</time></trkpt><trkpt lat="40.0806399" lon="15.5785022"><ele>5.0</ele><time>2026-05-02T08:26:18.922Z</time></trkpt><trkpt lat="40.0806614" lon="15.5787217"><ele>6.0</ele><time>2026-05-02T08:26:19.914Z</time></trkpt><trkpt lat="40.0806914" lon="15.5789427"><ele>7.0</ele><time>2026-05-02T08:26:20.924Z</time></trkpt><trkpt lat="40.0807305" lon="15.5791574"><ele>8.0</ele><time>2026-05-02T08:26:21.931Z</time></trkpt><trkpt lat="40.0807663" lon="15.5793758"><ele>8.666666666666666</ele><time>2026-05-02T08:26:22.929Z</time></trkpt><trkpt lat="40.0808084" lon="15.5795956"><ele>9.333333333333334</ele><time>2026-05-02T08:26:23.921Z</time></trkpt><trkpt lat="40.0808499" lon="15.5798157"><ele>10.0</ele><time>2026-05-02T08:26:24.923Z</time></trkpt><trkpt lat="40.0808807" lon="15.5800268"><ele>10.0</ele><time>2026-05-02T08:26:25.919Z</time></trkpt><trkpt lat="40.0808964" lon="15.580204"><ele>10.0</ele><time>2026-05-02T08:26:26.924Z</time></trkpt><trkpt lat="40.0809107" lon="15.5803629"><ele>10.0</ele><time>2026-05-02T08:26:27.915Z</time></trkpt><trkpt lat="40.0809249" lon="15.5805108"><ele>10.0</ele><time>2026-05-02T08:26:28.92Z</time></trkpt><trkpt lat="40.0809412" lon="15.5806561"><ele>10.0</ele><time>2026-05-02T08:26:29.918Z</time></trkpt><trkpt lat="40.0809517" lon="15.5808194"><ele>10.0</ele><time>2026-05-02T08:26:30.925Z</time></trkpt><trkpt lat="40.0809462" lon="15.5809864"><ele>10.0</ele><time>2026-05-02T08:26:31.928Z</time></trkpt><trkpt lat="40.0809297" lon="15.5811519"><ele>10.0</ele><time>2026-05-02T08:26:32.926Z</time></trkpt><trkpt lat="40.0809021" lon="15.5813232"><ele>10.25</ele><time>2026-05-02T08:26:33.932Z</time></trkpt><trkpt lat="40.0808593" lon="15.5814809"><ele>10.5</ele><time>2026-05-02T08:26:34.916Z</time></trkpt><trkpt lat="40.08082" lon="15.5816259"><ele>10.75</ele><time>2026-05-02T08:26:35.918Z</time></trkpt><trkpt lat="40.0807889" lon="15.5817717"><ele>11.0</ele><time>2026-05-02T08:26:36.925Z</time></trkpt><trkpt lat="40.0807625" lon="15.5819242"><ele>10.25</ele><time>2026-05-02T08:26:37.921Z</time></trkpt><trkpt lat="40.080742" lon="15.5820896"><ele>9.5</ele><time>2026-05-02T08:26:38.931Z</time></trkpt><trkpt lat="40.0807319" lon="15.5822552"><ele>8.75</ele><time>2026-05-02T08:26:39.92Z</time></trkpt><trkpt lat="40.0807251" lon="15.5824162"><ele>8.0</ele><time>2026-05-02T08:26:40.916Z</time></trkpt><trkpt lat="40.0807233" lon="15.582574"><ele>8.0</ele><time>2026-05-02T08:26:41.93Z</time></trkpt><trkpt lat="40.0807234" lon="15.5827374"><ele>8.0</ele><time>2026-05-02T08:26:42.926Z</time></trkpt><trkpt lat="40.0807215" lon="15.5829104"><ele>8.0</ele><time>2026-05-02T08:26:43.928Z</time></trkpt><trkpt lat="40.0807168" lon="15.5830883"><ele>8.0</ele><time>2026-05-02T08:26:44.921Z</time></trkpt><trkpt lat="40.0807148" lon="15.5832734"><ele>7.75</ele><time>2026-05-02T08:26:45.919Z</time></trkpt><trkpt lat="40.0807145" lon="15.5834547"><ele>7.5</ele><time>2026-05-02T08:26:46.93Z</time></trkpt><trkpt lat="40.080715" lon="15.5836182"><ele>7.25</ele><time>2026-05-02T08:26:47.919Z</time></trkpt><trkpt lat="40.0807128" lon="15.5837583"><ele>7.0</ele><time>2026-05-02T08:26:48.923Z</time></trkpt><trkpt lat="40.0807066" lon="15.5838801"><ele>7.0</ele><time>2026-05-02T08:26:49.919Z</time></trkpt><trkpt lat="40.0806992" lon="15.583999"><ele>6.999999999999999</ele><time>2026-05-02T08:26:50.934Z</time></trkpt><trkpt lat="40.0806931" lon="15.5841241"><ele>6.999999999999999</ele><time>2026-05-02T08:26:51.926Z</time></trkpt><trkpt lat="40.0806875" lon="15.5842649"><ele>7.0</ele><time>2026-05-02T08:26:52.926Z</time></trkpt><trkpt lat="40.0806831" lon="15.5844219"><ele>7.0</ele><time>2026-05-02T08:26:53.911Z</time></trkpt><trkpt lat="40.0806758" lon="15.5845885"><ele>7.0</ele><time>2026-05-02T08:26:54.924Z</time></trkpt><trkpt lat="40.08067" lon="15.5847481"><ele>7.0</ele><time>2026-05-02T08:26:55.922Z</time></trkpt><trkpt lat="40.0806642" lon="15.5848947"><ele>7.0</ele><time>2026-05-02T08:26:56.92Z</time></trkpt><trkpt lat="40.0806585" lon="15.585043"><ele>7.0</ele><time>2026-05-02T08:26:57.92Z</time></trkpt><trkpt lat="40.0806514" lon="15.5852025"><ele>6.75</ele><time>2026-05-02T08:26:58.928Z</time></trkpt><trkpt lat="40.080643" lon="15.5853623"><ele>6.5</ele><time>2026-05-02T08:26:59.914Z</time></trkpt><trkpt lat="40.0806348" lon="15.5855211"><ele>6.25</ele><time>2026-05-02T08:27:00.923Z</time></trkpt><trkpt lat="40.080628" lon="15.5856831"><ele>6.0</ele><time>2026-05-02T08:27:01.908Z</time></trkpt><trkpt lat="40.0806224" lon="15.5858473"><ele>6.0</ele><time>2026-05-02T08:27:02.932Z</time></trkpt><trkpt lat="40.0806131" lon="15.586012"><ele>6.0</ele><time>2026-05-02T08:27:03.924Z</time></trkpt><trkpt lat="40.0805973" lon="15.5861763"><ele>6.0</ele><time>2026-05-02T08:27:04.922Z</time></trkpt><trkpt lat="40.0805763" lon="15.5863439"><ele>6.0</ele><time>2026-05-02T08:27:05.912Z</time></trkpt><trkpt lat="40.0805493" lon="15.5865158"><ele>6.4</ele><time>2026-05-02T08:27:06.927Z</time></trkpt><trkpt lat="40.0805083" lon="15.5866668"><ele>6.8</ele><time>2026-05-02T08:27:07.92Z</time></trkpt><trkpt lat="40.0804718" lon="15.5867955"><ele>7.200000000000001</ele><time>2026-05-02T08:27:08.915Z</time></trkpt><trkpt lat="40.080437" lon="15.5869231"><ele>7.6000000000000005</ele><time>2026-05-02T08:27:09.921Z</time></trkpt><trkpt lat="40.0803978" lon="15.5870482"><ele>8.0</ele><time>2026-05-02T08:27:10.922Z</time></trkpt><trkpt lat="40.0803625" lon="15.5871836"><ele>8.0</ele><time>2026-05-02T08:27:11.91Z</time></trkpt><trkpt lat="40.0803195" lon="15.5873275"><ele>8.0</ele><time>2026-05-02T08:27:12.929Z</time></trkpt><trkpt lat="40.0802789" lon="15.5874653"><ele>8.0</ele><time>2026-05-02T08:27:13.92Z</time></trkpt><trkpt lat="40.08024" lon="15.5875916"><ele>8.0</ele><time>2026-05-02T08:27:14.927Z</time></trkpt><trkpt lat="40.0802077" lon="15.587705"><ele>8.0</ele><time>2026-05-02T08:27:15.909Z</time></trkpt><trkpt lat="40.0801759" lon="15.5878055"><ele>7.833333333333333</ele><time>2026-05-02T08:27:16.928Z</time></trkpt><trkpt lat="40.0801472" lon="15.5878961"><ele>7.666666666666666</ele><time>2026-05-02T08:27:17.915Z</time></trkpt><trkpt lat="40.080119" lon="15.5879841"><ele>7.5</ele><time>2026-05-02T08:27:18.93Z</time></trkpt><trkpt lat="40.0800964" lon="15.5880665"><ele>7.333333333333334</ele><time>2026-05-02T08:27:19.913Z</time></trkpt><trkpt lat="40.0800719" lon="15.5881443"><ele>7.166666666666667</ele><time>2026-05-02T08:27:20.919Z</time></trkpt><trkpt lat="40.0800192" lon="15.5882857"><ele>7.0</ele><time>2026-05-02T08:27:22.93Z</time></trkpt><trkpt lat="40.0799726" lon="15.5884369"><ele>7.0</ele><time>2026-05-02T08:27:24.929Z</time></trkpt><trkpt lat="40.0799484" lon="15.5885183"><ele>6.999999999999999</ele><time>2026-05-02T08:27:25.912Z</time></trkpt><trkpt lat="40.0799196" lon="15.588595"><ele>6.999999999999999</ele><time>2026-05-02T08:27:26.921Z</time></trkpt><trkpt lat="40.079869" lon="15.5887352"><ele>7.0</ele><time>2026-05-02T08:27:28.931Z</time></trkpt><trkpt lat="40.0798158" lon="15.5888727"><ele>7.0</ele><time>2026-05-02T08:27:30.926Z</time></trkpt><trkpt lat="40.0797558" lon="15.5890011"><ele>7.000000000000001</ele><time>2026-05-02T08:27:32.928Z</time></trkpt><trkpt lat="40.0797007" lon="15.5891043"><ele>7.0</ele><time>2026-05-02T08:27:34.924Z</time></trkpt><trkpt lat="40.0796463" lon="15.5891938"><ele>7.0</ele><time>2026-05-02T08:27:36.924Z</time></trkpt><trkpt lat="40.0795789" lon="15.5892585"><ele>7.0</ele><time>2026-05-02T08:27:38.932Z</time></trkpt><trkpt lat="40.0795347" lon="15.5893177"><ele>7.000000000000001</ele><time>2026-05-02T08:27:39.921Z</time></trkpt><trkpt lat="40.0794858" lon="15.5894102"><ele>7.0</ele><time>2026-05-02T08:27:40.92Z</time></trkpt><trkpt lat="40.0794428" lon="15.5895094"><ele>7.0</ele><time>2026-05-02T08:27:41.92Z</time></trkpt><trkpt lat="40.0793655" lon="15.5896213"><ele>7.0</ele><time>2026-05-02T08:27:42.927Z</time></trkpt><trkpt lat="40.0792467" lon="15.5897274"><ele>7.0</ele><time>2026-05-02T08:27:43.931Z</time></trkpt><trkpt lat="40.0791323" lon="15.5898376"><ele>7.0</ele><time>2026-05-02T08:27:44.926Z</time></trkpt><trkpt lat="40.079013" lon="15.5899515"><ele>7.0</ele><time>2026-05-02T08:27:45.921Z</time></trkpt><trkpt lat="40.0788918" lon="15.5900633"><ele>7.0</ele><time>2026-05-02T08:27:46.923Z</time></trkpt><trkpt lat="40.0787808" lon="15.5901731"><ele>7.0</ele><time>2026-05-02T08:27:47.915Z</time></trkpt><trkpt lat="40.0786772" lon="15.5902749"><ele>7.0</ele><time>2026-05-02T08:27:48.936Z</time></trkpt><trkpt lat="40.0785832" lon="15.5903616"><ele>7.0</ele><time>2026-05-02T08:27:49.921Z</time></trkpt><trkpt lat="40.0784967" lon="15.5904447"><ele>6.999999999999999</ele><time>2026-05-02T08:27:50.92Z</time></trkpt><trkpt lat="40.078408" lon="15.590528"><ele>6.999999999999999</ele><time>2026-05-02T08:27:51.921Z</time></trkpt><trkpt lat="40.0783141" lon="15.5906132"><ele>7.0</ele><time>2026-05-02T08:27:52.928Z</time></trkpt><trkpt lat="40.0782178" lon="15.5907027"><ele>7.0</ele><time>2026-05-02T08:27:53.927Z</time></trkpt><trkpt lat="40.0781273" lon="15.5907917"><ele>7.0</ele><time>2026-05-02T08:27:54.923Z</time></trkpt><trkpt lat="40.0780389" lon="15.5908846"><ele>7.0</ele><time>2026-05-02T08:27:55.922Z</time></trkpt><trkpt lat="40.077944" lon="15.5909882"><ele>7.0</ele><time>2026-05-02T08:27:56.909Z</time></trkpt><trkpt lat="40.0778421" lon="15.5911068"><ele>7.0</ele><time>2026-05-02T08:27:57.899Z</time></trkpt><trkpt lat="40.0777243" lon="15.5912205"><ele>7.0</ele><time>2026-05-02T08:27:58.912Z</time></trkpt><trkpt lat="40.0775928" lon="15.5913469"><ele>7.0</ele><time>2026-05-02T08:27:59.914Z</time></trkpt><trkpt lat="40.077449" lon="15.5914725"><ele>7.0</ele><time>2026-05-02T08:28:00.916Z</time></trkpt><trkpt lat="40.077299" lon="15.5916096"><ele>6.333333333333334</ele><time>2026-05-02T08:28:01.918Z</time></trkpt><trkpt lat="40.0771471" lon="15.5917468"><ele>5.666666666666667</ele><time>2026-05-02T08:28:02.915Z</time></trkpt><trkpt lat="40.0770007" lon="15.5918819"><ele>5.0</ele><time>2026-05-02T08:28:03.918Z</time></trkpt><trkpt lat="40.076857" lon="15.5920266"><ele>5.333333333333334</ele><time>2026-05-02T08:28:04.921Z</time></trkpt><trkpt lat="40.0767091" lon="15.5921694"><ele>5.666666666666667</ele><time>2026-05-02T08:28:05.916Z</time></trkpt><trkpt lat="40.076559" lon="15.592312"><ele>6.0</ele><time>2026-05-02T08:28:06.927Z</time></trkpt><trkpt lat="40.0764075" lon="15.5924567"><ele>6.0</ele><time>2026-05-02T08:28:07.926Z</time></trkpt><trkpt lat="40.0762563" lon="15.5926002"><ele>6.0</ele><time>2026-05-02T08:28:08.939Z</time></trkpt><trkpt lat="40.0761055" lon="15.5927426"><ele>6.0</ele><time>2026-05-02T08:28:09.912Z</time></trkpt><trkpt lat="40.0759569" lon="15.5928901"><ele>7.0</ele><time>2026-05-02T08:28:10.923Z</time></trkpt><trkpt lat="40.0758121" lon="15.5930321"><ele>8.0</ele><time>2026-05-02T08:28:11.932Z</time></trkpt><trkpt lat="40.0756789" lon="15.5931746"><ele>9.0</ele><time>2026-05-02T08:28:12.922Z</time></trkpt><trkpt lat="40.0755537" lon="15.5933294"><ele>9.0</ele><time>2026-05-02T08:28:13.92Z</time></trkpt><trkpt lat="40.0754314" lon="15.5935011"><ele>9.0</ele><time>2026-05-02T08:28:14.922Z</time></trkpt><trkpt lat="40.0753162" lon="15.5936827"><ele>9.0</ele><time>2026-05-02T08:28:15.918Z</time></trkpt><trkpt lat="40.0752129" lon="15.5938734"><ele>12.0</ele><time>2026-05-02T08:28:16.93Z</time></trkpt><trkpt lat="40.0751199" lon="15.5940584"><ele>15.0</ele><time>2026-05-02T08:28:17.92Z</time></trkpt><trkpt lat="40.0750345" lon="15.5942397"><ele>18.0</ele><time>2026-05-02T08:28:18.921Z</time></trkpt><trkpt lat="40.0749593" lon="15.5944076"><ele>10.0</ele><time>2026-05-02T08:28:19.918Z</time></trkpt><trkpt lat="40.0748877" lon="15.5956083"><ele>10.0</ele><time>2026-05-02T08:28:25.917Z</time></trkpt><trkpt lat="40.0748927" lon="15.5957397"><ele>10.0</ele><time>2026-05-02T08:28:26.919Z</time></trkpt><trkpt lat="40.0748912" lon="15.595888"><ele>10.0</ele><time>2026-05-02T08:28:27.904Z</time></trkpt><trkpt lat="40.0748911" lon="15.5960463"><ele>10.0</ele><time>2026-05-02T08:28:28.919Z</time></trkpt><trkpt lat="40.0748965" lon="15.5962174"><ele>10.25</ele><time>2026-05-02T08:28:29.9Z</time></trkpt><trkpt lat="40.0749104" lon="15.5963974"><ele>10.5</ele><time>2026-05-02T08:28:30.921Z</time></trkpt><trkpt lat="40.0749227" lon="15.5965858"><ele>10.75</ele><time>2026-05-02T08:28:31.916Z</time></trkpt><trkpt lat="40.0749386" lon="15.5967683"><ele>11.0</ele><time>2026-05-02T08:28:32.906Z</time></trkpt><trkpt lat="40.0749497" lon="15.5969499"><ele>11.333333333333332</ele><time>2026-05-02T08:28:33.917Z</time></trkpt><trkpt lat="40.0749618" lon="15.5971407"><ele>11.666666666666666</ele><time>2026-05-02T08:28:34.916Z</time></trkpt><trkpt lat="40.0749727" lon="15.5973394"><ele>12.0</ele><time>2026-05-02T08:28:35.915Z</time></trkpt><trkpt lat="40.074986" lon="15.5975443"><ele>12.0</ele><time>2026-05-02T08:28:36.922Z</time></trkpt><trkpt lat="40.0750001" lon="15.5977577"><ele>12.0</ele><time>2026-05-02T08:28:37.907Z</time></trkpt><trkpt lat="40.0750155" lon="15.5979767"><ele>12.0</ele><time>2026-05-02T08:28:38.925Z</time></trkpt><trkpt lat="40.0750265" lon="15.5981999"><ele>12.0</ele><time>2026-05-02T08:28:39.914Z</time></trkpt><trkpt lat="40.0750424" lon="15.5984271"><ele>12.0</ele><time>2026-05-02T08:28:40.932Z</time></trkpt><trkpt lat="40.0750619" lon="15.5986572"><ele>12.0</ele><time>2026-05-02T08:28:41.915Z</time></trkpt><trkpt lat="40.0750759" lon="15.5988894"><ele>12.0</ele><time>2026-05-02T08:28:42.912Z</time></trkpt><trkpt lat="40.0750889" lon="15.5991018"><ele>12.0</ele><time>2026-05-02T08:28:43.917Z</time></trkpt><trkpt lat="40.0751032" lon="15.5993002"><ele>12.0</ele><time>2026-05-02T08:28:44.922Z</time></trkpt><trkpt lat="40.0751179" lon="15.5994901"><ele>10.0</ele><time>2026-05-02T08:28:45.899Z</time></trkpt><trkpt lat="40.0751296" lon="15.5996864"><ele>8.0</ele><time>2026-05-02T08:28:46.927Z</time></trkpt><trkpt lat="40.0751394" lon="15.5998958"><ele>6.0</ele><time>2026-05-02T08:28:47.913Z</time></trkpt><trkpt lat="40.0751491" lon="15.6001108"><ele>6.0</ele><time>2026-05-02T08:28:48.917Z</time></trkpt><trkpt lat="40.0751535" lon="15.6003289"><ele>6.0</ele><time>2026-05-02T08:28:49.916Z</time></trkpt><trkpt lat="40.0751547" lon="15.600552"><ele>6.0</ele><time>2026-05-02T08:28:50.921Z</time></trkpt><trkpt lat="40.0751516" lon="15.6007751"><ele>5.666666666666667</ele><time>2026-05-02T08:28:51.916Z</time></trkpt><trkpt lat="40.0751438" lon="15.6010019"><ele>5.333333333333334</ele><time>2026-05-02T08:28:52.927Z</time></trkpt><trkpt lat="40.0751361" lon="15.6012343"><ele>5.0</ele><time>2026-05-02T08:28:53.908Z</time></trkpt><trkpt lat="40.0751344" lon="15.601462"><ele>5.0</ele><time>2026-05-02T08:28:54.917Z</time></trkpt><trkpt lat="40.0751323" lon="15.601669"><ele>5.0</ele><time>2026-05-02T08:28:55.918Z</time></trkpt><trkpt lat="40.0751224" lon="15.6018628"><ele>5.0</ele><time>2026-05-02T08:28:56.921Z</time></trkpt><trkpt lat="40.0751105" lon="15.6020438"><ele>5.0</ele><time>2026-05-02T08:28:57.913Z</time></trkpt><trkpt lat="40.075099" lon="15.6022072"><ele>4.8</ele><time>2026-05-02T08:28:58.925Z</time></trkpt><trkpt lat="40.0750829" lon="15.6023502"><ele>4.6</ele><time>2026-05-02T08:28:59.928Z</time></trkpt><trkpt lat="40.0750626" lon="15.6024759"><ele>4.4</ele><time>2026-05-02T08:29:00.925Z</time></trkpt><trkpt lat="40.075035" lon="15.6025854"><ele>4.2</ele><time>2026-05-02T08:29:01.914Z</time></trkpt><trkpt lat="40.0750119" lon="15.6026871"><ele>4.0</ele><time>2026-05-02T08:29:02.924Z</time></trkpt><trkpt lat="40.0749861" lon="15.6027918"><ele>4.4</ele><time>2026-05-02T08:29:03.919Z</time></trkpt><trkpt lat="40.0749531" lon="15.6029082"><ele>4.800000000000001</ele><time>2026-05-02T08:29:04.926Z</time></trkpt><trkpt lat="40.0749193" lon="15.6030374"><ele>5.199999999999999</ele><time>2026-05-02T08:29:05.921Z</time></trkpt><trkpt lat="40.0748822" lon="15.6031804"><ele>5.6</ele><time>2026-05-02T08:29:06.921Z</time></trkpt><trkpt lat="40.0748425" lon="15.6033246"><ele>6.0</ele><time>2026-05-02T08:29:07.925Z</time></trkpt><trkpt lat="40.0748082" lon="15.6034693"><ele>5.3999999999999995</ele><time>2026-05-02T08:29:08.929Z</time></trkpt><trkpt lat="40.074774" lon="15.6035937"><ele>4.8</ele><time>2026-05-02T08:29:09.919Z</time></trkpt><trkpt lat="40.0747443" lon="15.6037141"><ele>4.199999999999999</ele><time>2026-05-02T08:29:10.916Z</time></trkpt><trkpt lat="40.0747074" lon="15.6038419"><ele>3.5999999999999996</ele><time>2026-05-02T08:29:11.919Z</time></trkpt><trkpt lat="40.0746707" lon="15.6039817"><ele>3.0</ele><time>2026-05-02T08:29:12.923Z</time></trkpt><trkpt lat="40.0746359" lon="15.6041266"><ele>3.0</ele><time>2026-05-02T08:29:13.92Z</time></trkpt><trkpt lat="40.0745986" lon="15.6042769"><ele>3.0</ele><time>2026-05-02T08:29:14.931Z</time></trkpt><trkpt lat="40.0745612" lon="15.6044265"><ele>3.0</ele><time>2026-05-02T08:29:15.925Z</time></trkpt><trkpt lat="40.0745251" lon="15.6045632"><ele>3.0</ele><time>2026-05-02T08:29:16.914Z</time></trkpt><trkpt lat="40.0744899" lon="15.6046875"><ele>3.3333333333333335</ele><time>2026-05-02T08:29:17.919Z</time></trkpt><trkpt lat="40.0744621" lon="15.6048077"><ele>3.666666666666667</ele><time>2026-05-02T08:29:18.921Z</time></trkpt><trkpt lat="40.0744309" lon="15.6049284"><ele>4.0</ele><time>2026-05-02T08:29:19.919Z</time></trkpt><trkpt lat="40.0744032" lon="15.605011"><ele>4.333333333333334</ele><time>2026-05-02T08:29:20.92Z</time></trkpt><trkpt lat="40.0743827" lon="15.6051008"><ele>4.666666666666667</ele><time>2026-05-02T08:29:22.927Z</time></trkpt><trkpt lat="40.074356" lon="15.6052163"><ele>5.0</ele><time>2026-05-02T08:29:25.915Z</time></trkpt><trkpt lat="40.0743209" lon="15.6053386"><ele>5.0</ele><time>2026-05-02T08:29:27.919Z</time></trkpt><trkpt lat="40.0742931" lon="15.6054161"><ele>5.0</ele><time>2026-05-02T08:29:28.933Z</time></trkpt><trkpt lat="40.0742682" lon="15.6054993"><ele>5.0</ele><time>2026-05-02T08:29:29.92Z</time></trkpt><trkpt lat="40.0742487" lon="15.6055831"><ele>5.0</ele><time>2026-05-02T08:29:30.932Z</time></trkpt><trkpt lat="40.0742289" lon="15.6056623"><ele>5.0</ele><time>2026-05-02T08:29:31.932Z</time></trkpt><trkpt lat="40.0742077" lon="15.6057499"><ele>5.0</ele><time>2026-05-02T08:29:32.933Z</time></trkpt><trkpt lat="40.0741853" lon="15.6058487"><ele>5.0</ele><time>2026-05-02T08:29:33.931Z</time></trkpt><trkpt lat="40.07416" lon="15.6059557"><ele>5.0</ele><time>2026-05-02T08:29:34.924Z</time></trkpt><trkpt lat="40.0741279" lon="15.6060817"><ele>5.0</ele><time>2026-05-02T08:29:35.932Z</time></trkpt><trkpt lat="40.0740952" lon="15.6062149"><ele>5.0</ele><time>2026-05-02T08:29:36.921Z</time></trkpt><trkpt lat="40.0740622" lon="15.6063555"><ele>5.0</ele><time>2026-05-02T08:29:37.921Z</time></trkpt><trkpt lat="40.0740237" lon="15.6064937"><ele>5.0</ele><time>2026-05-02T08:29:38.921Z</time></trkpt><trkpt lat="40.073986" lon="15.6066195"><ele>4.8</ele><time>2026-05-02T08:29:39.929Z</time></trkpt><trkpt lat="40.073951" lon="15.6067341"><ele>4.6</ele><time>2026-05-02T08:29:40.934Z</time></trkpt><trkpt lat="40.0739206" lon="15.606846"><ele>4.4</ele><time>2026-05-02T08:29:41.925Z</time></trkpt><trkpt lat="40.0738903" lon="15.6069637"><ele>4.2</ele><time>2026-05-02T08:29:42.921Z</time></trkpt><trkpt lat="40.0738612" lon="15.6070892"><ele>4.0</ele><time>2026-05-02T08:29:43.937Z</time></trkpt><trkpt lat="40.0738277" lon="15.6072158"><ele>3.8000000000000003</ele><time>2026-05-02T08:29:44.924Z</time></trkpt><trkpt lat="40.0737952" lon="15.6073454"><ele>3.6000000000000005</ele><time>2026-05-02T08:29:45.924Z</time></trkpt><trkpt lat="40.0737659" lon="15.6074618"><ele>3.4</ele><time>2026-05-02T08:29:46.919Z</time></trkpt><trkpt lat="40.0737396" lon="15.6075656"><ele>3.2</ele><time>2026-05-02T08:29:47.915Z</time></trkpt><trkpt lat="40.0737115" lon="15.6076778"><ele>3.0</ele><time>2026-05-02T08:29:48.923Z</time></trkpt><trkpt lat="40.0736836" lon="15.6077933"><ele>3.5</ele><time>2026-05-02T08:29:49.92Z</time></trkpt><trkpt lat="40.0736536" lon="15.6079126"><ele>4.0</ele><time>2026-05-02T08:29:50.913Z</time></trkpt><trkpt lat="40.0736249" lon="15.6080235"><ele>4.5</ele><time>2026-05-02T08:29:51.907Z</time></trkpt><trkpt lat="40.0736057" lon="15.6081233"><ele>5.0</ele><time>2026-05-02T08:29:52.942Z</time></trkpt><trkpt lat="40.0735809" lon="15.6082205"><ele>5.5</ele><time>2026-05-02T08:29:53.914Z</time></trkpt><trkpt lat="40.0735568" lon="15.6083076"><ele>6.0</ele><time>2026-05-02T08:29:54.928Z</time></trkpt><trkpt lat="40.0735178" lon="15.6084272"><ele>6.0</ele><time>2026-05-02T08:29:56.917Z</time></trkpt><trkpt lat="40.0734761" lon="15.6085368"><ele>6.0</ele><time>2026-05-02T08:29:58.925Z</time></trkpt><trkpt lat="40.073433" lon="15.6086813"><ele>6.0</ele><time>2026-05-02T08:30:00.924Z</time></trkpt><trkpt lat="40.0734014" lon="15.6087679"><ele>6.0</ele><time>2026-05-02T08:30:01.925Z</time></trkpt><trkpt lat="40.0733578" lon="15.6088613"><ele>6.0</ele><time>2026-05-02T08:30:02.935Z</time></trkpt><trkpt lat="40.073301" lon="15.6089704"><ele>5.3999999999999995</ele><time>2026-05-02T08:30:03.918Z</time></trkpt><trkpt lat="40.0732388" lon="15.6090956"><ele>4.8</ele><time>2026-05-02T08:30:04.924Z</time></trkpt><trkpt lat="40.073177" lon="15.6092138"><ele>4.199999999999999</ele><time>2026-05-02T08:30:05.929Z</time></trkpt><trkpt lat="40.0731226" lon="15.6093154"><ele>3.5999999999999996</ele><time>2026-05-02T08:30:06.924Z</time></trkpt><trkpt lat="40.0730702" lon="15.6094072"><ele>3.0</ele><time>2026-05-02T08:30:07.925Z</time></trkpt><trkpt lat="40.0730272" lon="15.6094951"><ele>3.0</ele><time>2026-05-02T08:30:08.932Z</time></trkpt><trkpt lat="40.0729838" lon="15.6095834"><ele>3.0</ele><time>2026-05-02T08:30:09.918Z</time></trkpt><trkpt lat="40.0729362" lon="15.6096847"><ele>3.0</ele><time>2026-05-02T08:30:10.927Z</time></trkpt><trkpt lat="40.0728875" lon="15.6097911"><ele>3.0</ele><time>2026-05-02T08:30:11.92Z</time></trkpt><trkpt lat="40.0728403" lon="15.6098935"><ele>3.0</ele><time>2026-05-02T08:30:12.932Z</time></trkpt><trkpt lat="40.0727976" lon="15.6099821"><ele>3.0</ele><time>2026-05-02T08:30:13.922Z</time></trkpt><trkpt lat="40.072761" lon="15.6100595"><ele>3.0</ele><time>2026-05-02T08:30:14.924Z</time></trkpt><trkpt lat="40.0727274" lon="15.6101335"><ele>3.0</ele><time>2026-05-02T08:30:15.92Z</time></trkpt><trkpt lat="40.0726925" lon="15.610203"><ele>3.0</ele><time>2026-05-02T08:30:16.921Z</time></trkpt><trkpt lat="40.0726279" lon="15.6103306"><ele>3.0</ele><time>2026-05-02T08:30:18.938Z</time></trkpt><trkpt lat="40.0725745" lon="15.6104383"><ele>3.0</ele><time>2026-05-02T08:30:20.93Z</time></trkpt><trkpt lat="40.0725137" lon="15.6105736"><ele>3.0</ele><time>2026-05-02T08:30:22.923Z</time></trkpt><trkpt lat="40.0724782" lon="15.6106511"><ele>3.0</ele><time>2026-05-02T08:30:23.923Z</time></trkpt><trkpt lat="40.0724165" lon="15.6107698"><ele>3.0</ele><time>2026-05-02T08:30:25.922Z</time></trkpt><trkpt lat="40.0723818" lon="15.6108456"><ele>3.0</ele><time>2026-05-02T08:30:27.914Z</time></trkpt><trkpt lat="40.0723785" lon="15.6109392"><ele>3.0</ele><time>2026-05-02T08:30:34.922Z</time></trkpt><trkpt lat="40.0724374" lon="15.610981"><ele>3.0</ele><time>2026-05-02T08:30:36.924Z</time></trkpt><trkpt lat="40.0725192" lon="15.610992"><ele>3.0</ele><time>2026-05-02T08:30:39.917Z</time></trkpt><trkpt lat="40.0723314" lon="15.610766"><ele>3.0</ele><time>2026-05-02T08:31:35.545Z</time></trkpt><trkpt lat="40.0725065" lon="15.6109994"><ele>3.0</ele><time>2026-05-02T08:32:08.169Z</time></trkpt><trkpt lat="40.0723244" lon="15.6107892"><ele>3.0</ele><time>2026-05-02T08:32:28.042Z</time></trkpt><trkpt lat="40.0726444" lon="15.6108531"><ele>3.0</ele><time>2026-05-02T08:45:55.878Z</time></trkpt><trkpt lat="40.0723205" lon="15.6107405"><ele>3.0</ele><time>2026-05-02T08:46:12.852Z</time></trkpt><trkpt lat="40.0723445" lon="15.6109668"><ele>3.0</ele><time>2026-05-02T08:49:39.848Z</time></trkpt><trkpt lat="40.0724553" lon="15.6109682"><ele>3.0</ele><time>2026-05-02T08:49:40.862Z</time></trkpt><trkpt lat="40.0725497" lon="15.610987"><ele>3.0</ele><time>2026-05-02T08:51:21.871Z</time></trkpt><trkpt lat="40.0724814" lon="15.6110093"><ele>3.0</ele><time>2026-05-02T08:51:45.884Z</time></trkpt><trkpt lat="40.0724248" lon="15.6109686"><ele>3.0</ele><time>2026-05-02T08:51:47.879Z</time></trkpt><trkpt lat="40.0723559" lon="15.6109399"><ele>3.0</ele><time>2026-05-02T08:53:22.882Z</time></trkpt><trkpt lat="40.0722896" lon="15.6109826"><ele>3.0</ele><time>2026-05-02T08:53:24.884Z</time></trkpt><trkpt lat="40.0722232" lon="15.6111331"><ele>3.0</ele><time>2026-05-02T08:53:26.891Z</time></trkpt><trkpt lat="40.0721857" lon="15.6112262"><ele>3.0</ele><time>2026-05-02T08:53:27.887Z</time></trkpt><trkpt lat="40.0721489" lon="15.6113128"><ele>3.0</ele><time>2026-05-02T08:53:28.885Z</time></trkpt><trkpt lat="40.0721144" lon="15.6113942"><ele>3.0</ele><time>2026-05-02T08:53:29.878Z</time></trkpt><trkpt lat="40.0720699" lon="15.6114848"><ele>3.0</ele><time>2026-05-02T08:53:30.891Z</time></trkpt><trkpt lat="40.0720204" lon="15.6115907"><ele>3.4</ele><time>2026-05-02T08:53:31.885Z</time></trkpt><trkpt lat="40.0719638" lon="15.6117048"><ele>3.8</ele><time>2026-05-02T08:53:32.893Z</time></trkpt><trkpt lat="40.0719024" lon="15.6118263"><ele>4.2</ele><time>2026-05-02T08:53:33.884Z</time></trkpt><trkpt lat="40.0718437" lon="15.611951"><ele>4.6</ele><time>2026-05-02T08:53:34.885Z</time></trkpt><trkpt lat="40.071788" lon="15.6120665"><ele>5.0</ele><time>2026-05-02T08:53:35.889Z</time></trkpt><trkpt lat="40.071739" lon="15.6121742"><ele>5.25</ele><time>2026-05-02T08:53:36.889Z</time></trkpt><trkpt lat="40.0716872" lon="15.6122797"><ele>5.5</ele><time>2026-05-02T08:53:37.889Z</time></trkpt><trkpt lat="40.0716319" lon="15.6124002"><ele>5.75</ele><time>2026-05-02T08:53:38.894Z</time></trkpt><trkpt lat="40.0715699" lon="15.6125301"><ele>6.0</ele><time>2026-05-02T08:53:39.877Z</time></trkpt><trkpt lat="40.0714995" lon="15.6126747"><ele>5.75</ele><time>2026-05-02T08:53:40.878Z</time></trkpt><trkpt lat="40.0714222" lon="15.6128366"><ele>5.5</ele><time>2026-05-02T08:53:41.856Z</time></trkpt><trkpt lat="40.0713424" lon="15.6130032"><ele>5.25</ele><time>2026-05-02T08:53:42.889Z</time></trkpt><trkpt lat="40.0712672" lon="15.613166"><ele>5.0</ele><time>2026-05-02T08:53:43.878Z</time></trkpt><trkpt lat="40.0711975" lon="15.61332"><ele>5.0</ele><time>2026-05-02T08:53:44.886Z</time></trkpt><trkpt lat="40.0711204" lon="15.613476"><ele>5.0</ele><time>2026-05-02T08:53:45.872Z</time></trkpt><trkpt lat="40.0710378" lon="15.6136297"><ele>5.0</ele><time>2026-05-02T08:53:46.886Z</time></trkpt><trkpt lat="40.0709549" lon="15.6137798"><ele>5.0</ele><time>2026-05-02T08:53:47.872Z</time></trkpt><trkpt lat="40.0708736" lon="15.6139255"><ele>5.0</ele><time>2026-05-02T08:53:48.882Z</time></trkpt><trkpt lat="40.0707891" lon="15.6140593"><ele>5.0</ele><time>2026-05-02T08:53:49.881Z</time></trkpt><trkpt lat="40.0707058" lon="15.6141872"><ele>5.0</ele><time>2026-05-02T08:53:50.883Z</time></trkpt><trkpt lat="40.0706294" lon="15.6143101"><ele>5.0</ele><time>2026-05-02T08:53:51.879Z</time></trkpt><trkpt lat="40.0705498" lon="15.6144322"><ele>5.25</ele><time>2026-05-02T08:53:52.879Z</time></trkpt><trkpt lat="40.0704722" lon="15.6145537"><ele>5.5</ele><time>2026-05-02T08:53:53.871Z</time></trkpt><trkpt lat="40.0703947" lon="15.6146727"><ele>5.75</ele><time>2026-05-02T08:53:54.883Z</time></trkpt><trkpt lat="40.0703211" lon="15.6147919"><ele>6.0</ele><time>2026-05-02T08:53:55.875Z</time></trkpt><trkpt lat="40.0702443" lon="15.6149116"><ele>6.0</ele><time>2026-05-02T08:53:56.886Z</time></trkpt><trkpt lat="40.0701682" lon="15.6150276"><ele>6.0</ele><time>2026-05-02T08:53:57.882Z</time></trkpt><trkpt lat="40.0701021" lon="15.6151302"><ele>6.0</ele><time>2026-05-02T08:53:58.893Z</time></trkpt><trkpt lat="40.0700466" lon="15.6152215"><ele>6.0</ele><time>2026-05-02T08:53:59.88Z</time></trkpt><trkpt lat="40.0699867" lon="15.6153095"><ele>6.0</ele><time>2026-05-02T08:54:00.884Z</time></trkpt><trkpt lat="40.069923" lon="15.6154058"><ele>5.6</ele><time>2026-05-02T08:54:01.879Z</time></trkpt><trkpt lat="40.0698594" lon="15.6154995"><ele>5.199999999999999</ele><time>2026-05-02T08:54:02.879Z</time></trkpt><trkpt lat="40.0698034" lon="15.6155837"><ele>4.800000000000001</ele><time>2026-05-02T08:54:03.882Z</time></trkpt><trkpt lat="40.0697505" lon="15.6156731"><ele>4.4</ele><time>2026-05-02T08:54:04.88Z</time></trkpt><trkpt lat="40.0696873" lon="15.6157792"><ele>4.0</ele><time>2026-05-02T08:54:05.877Z</time></trkpt><trkpt lat="40.0696159" lon="15.6158961"><ele>4.0</ele><time>2026-05-02T08:54:06.881Z</time></trkpt><trkpt lat="40.0695397" lon="15.6160309"><ele>4.0</ele><time>2026-05-02T08:54:07.878Z</time></trkpt><trkpt lat="40.0694691" lon="15.6161844"><ele>4.0</ele><time>2026-05-02T08:54:08.89Z</time></trkpt><trkpt lat="40.069409" lon="15.616336"><ele>4.0</ele><time>2026-05-02T08:54:09.879Z</time></trkpt><trkpt lat="40.0693586" lon="15.6164936"><ele>4.75</ele><time>2026-05-02T08:54:10.88Z</time></trkpt><trkpt lat="40.0693128" lon="15.6166716"><ele>5.5</ele><time>2026-05-02T08:54:11.878Z</time></trkpt><trkpt lat="40.0692754" lon="15.6168617"><ele>6.25</ele><time>2026-05-02T08:54:12.886Z</time></trkpt><trkpt lat="40.0692464" lon="15.6170593"><ele>7.0</ele><time>2026-05-02T08:54:13.885Z</time></trkpt><trkpt lat="40.0692214" lon="15.6172583"><ele>7.5</ele><time>2026-05-02T08:54:14.889Z</time></trkpt><trkpt lat="40.0692031" lon="15.6174443"><ele>8.0</ele><time>2026-05-02T08:54:15.873Z</time></trkpt><trkpt lat="40.0691918" lon="15.6176272"><ele>8.5</ele><time>2026-05-02T08:54:16.878Z</time></trkpt><trkpt lat="40.069199" lon="15.6178093"><ele>9.0</ele><time>2026-05-02T08:54:17.878Z</time></trkpt><trkpt lat="40.0692294" lon="15.6179753"><ele>9.0</ele><time>2026-05-02T08:54:18.881Z</time></trkpt><trkpt lat="40.0692731" lon="15.6181342"><ele>9.0</ele><time>2026-05-02T08:54:19.876Z</time></trkpt><trkpt lat="40.0693285" lon="15.6182771"><ele>9.0</ele><time>2026-05-02T08:54:20.881Z</time></trkpt><trkpt lat="40.0693898" lon="15.6184002"><ele>9.0</ele><time>2026-05-02T08:54:21.882Z</time></trkpt><trkpt lat="40.0694512" lon="15.6184971"><ele>9.0</ele><time>2026-05-02T08:54:22.879Z</time></trkpt><trkpt lat="40.0695146" lon="15.6185684"><ele>9.0</ele><time>2026-05-02T08:54:23.885Z</time></trkpt><trkpt lat="40.0695762" lon="15.6186319"><ele>9.0</ele><time>2026-05-02T08:54:24.884Z</time></trkpt><trkpt lat="40.0696345" lon="15.6186851"><ele>9.0</ele><time>2026-05-02T08:54:25.875Z</time></trkpt><trkpt lat="40.0696959" lon="15.6187252"><ele>9.0</ele><time>2026-05-02T08:54:26.877Z</time></trkpt><trkpt lat="40.0697618" lon="15.6187621"><ele>9.0</ele><time>2026-05-02T08:54:27.871Z</time></trkpt><trkpt lat="40.0698368" lon="15.6188048"><ele>9.166666666666666</ele><time>2026-05-02T08:54:28.888Z</time></trkpt><trkpt lat="40.0699148" lon="15.6188507"><ele>9.333333333333334</ele><time>2026-05-02T08:54:29.876Z</time></trkpt><trkpt lat="40.0699912" lon="15.6188971"><ele>9.5</ele><time>2026-05-02T08:54:30.871Z</time></trkpt><trkpt lat="40.0700651" lon="15.6189417"><ele>9.666666666666668</ele><time>2026-05-02T08:54:31.872Z</time></trkpt><trkpt lat="40.0701297" lon="15.6189825"><ele>9.833333333333334</ele><time>2026-05-02T08:54:32.882Z</time></trkpt><trkpt lat="40.0701887" lon="15.619017"><ele>10.0</ele><time>2026-05-02T08:54:33.873Z</time></trkpt><trkpt lat="40.0702973" lon="15.6190776"><ele>10.0</ele><time>2026-05-02T08:54:35.876Z</time></trkpt><trkpt lat="40.0704103" lon="15.6191545"><ele>10.0</ele><time>2026-05-02T08:54:37.862Z</time></trkpt><trkpt lat="40.0704621" lon="15.6192046"><ele>10.0</ele><time>2026-05-02T08:54:38.881Z</time></trkpt><trkpt lat="40.0705121" lon="15.6192593"><ele>10.0</ele><time>2026-05-02T08:54:39.875Z</time></trkpt><trkpt lat="40.0705587" lon="15.6193195"><ele>10.0</ele><time>2026-05-02T08:54:40.883Z</time></trkpt><trkpt lat="40.0706325" lon="15.6194194"><ele>10.0</ele><time>2026-05-02T08:54:42.872Z</time></trkpt><trkpt lat="40.0706917" lon="15.6194988"><ele>10.166666666666668</ele><time>2026-05-02T08:54:44.885Z</time></trkpt><trkpt lat="40.0707542" lon="15.6196015"><ele>10.333333333333334</ele><time>2026-05-02T08:54:51.889Z</time></trkpt><trkpt lat="40.0707982" lon="15.6196797"><ele>10.5</ele><time>2026-05-02T08:54:53.876Z</time></trkpt><trkpt lat="40.0708437" lon="15.6197972"><ele>10.666666666666666</ele><time>2026-05-02T08:54:55.881Z</time></trkpt><trkpt lat="40.0708734" lon="15.6198832"><ele>10.833333333333332</ele><time>2026-05-02T08:54:56.872Z</time></trkpt><trkpt lat="40.0709" lon="15.6199631"><ele>11.0</ele><time>2026-05-02T08:54:57.875Z</time></trkpt><trkpt lat="40.0709229" lon="15.6200483"><ele>11.0</ele><time>2026-05-02T08:54:58.87Z</time></trkpt><trkpt lat="40.0709459" lon="15.6201594"><ele>11.0</ele><time>2026-05-02T08:54:59.88Z</time></trkpt><trkpt lat="40.0709747" lon="15.6202836"><ele>11.0</ele><time>2026-05-02T08:55:00.887Z</time></trkpt><trkpt lat="40.071008" lon="15.620397"><ele>11.0</ele><time>2026-05-02T08:55:01.875Z</time></trkpt><trkpt lat="40.0710413" lon="15.620507"><ele>11.0</ele><time>2026-05-02T08:55:02.876Z</time></trkpt><trkpt lat="40.0710804" lon="15.6206378"><ele>9.8</ele><time>2026-05-02T08:55:03.876Z</time></trkpt><trkpt lat="40.0711229" lon="15.620769"><ele>8.600000000000001</ele><time>2026-05-02T08:55:04.884Z</time></trkpt><trkpt lat="40.0711672" lon="15.620878"><ele>7.4</ele><time>2026-05-02T08:55:05.877Z</time></trkpt><trkpt lat="40.0712239" lon="15.6209789"><ele>6.2</ele><time>2026-05-02T08:55:06.872Z</time></trkpt><trkpt lat="40.0713092" lon="15.6210662"><ele>5.0</ele><time>2026-05-02T08:55:07.885Z</time></trkpt><trkpt lat="40.0714094" lon="15.6211467"><ele>4.8</ele><time>2026-05-02T08:55:08.877Z</time></trkpt><trkpt lat="40.0715173" lon="15.6212055"><ele>4.6</ele><time>2026-05-02T08:55:09.881Z</time></trkpt><trkpt lat="40.0716135" lon="15.6212605"><ele>4.4</ele><time>2026-05-02T08:55:10.882Z</time></trkpt><trkpt lat="40.0717041" lon="15.6213179"><ele>4.2</ele><time>2026-05-02T08:55:11.872Z</time></trkpt><trkpt lat="40.0717956" lon="15.6213783"><ele>4.0</ele><time>2026-05-02T08:55:12.874Z</time></trkpt><trkpt lat="40.0718884" lon="15.621441"><ele>4.0</ele><time>2026-05-02T08:55:13.883Z</time></trkpt><trkpt lat="40.0719792" lon="15.6214991"><ele>4.0</ele><time>2026-05-02T08:55:14.874Z</time></trkpt><trkpt lat="40.0720647" lon="15.6215559"><ele>4.0</ele><time>2026-05-02T08:55:15.884Z</time></trkpt><trkpt lat="40.0721447" lon="15.6216079"><ele>4.0</ele><time>2026-05-02T08:55:16.876Z</time></trkpt><trkpt lat="40.0722222" lon="15.6216569"><ele>4.0</ele><time>2026-05-02T08:55:17.877Z</time></trkpt><trkpt lat="40.0723092" lon="15.6217043"><ele>4.0</ele><time>2026-05-02T08:55:18.876Z</time></trkpt><trkpt lat="40.072401" lon="15.6217492"><ele>4.0</ele><time>2026-05-02T08:55:19.884Z</time></trkpt><trkpt lat="40.0724967" lon="15.6217905"><ele>4.0</ele><time>2026-05-02T08:55:20.872Z</time></trkpt><trkpt lat="40.0725956" lon="15.6218155"><ele>4.0</ele><time>2026-05-02T08:55:21.883Z</time></trkpt><trkpt lat="40.0726914" lon="15.6218181"><ele>4.0</ele><time>2026-05-02T08:55:22.871Z</time></trkpt><trkpt lat="40.0727882" lon="15.6218033"><ele>4.833333333333333</ele><time>2026-05-02T08:55:23.877Z</time></trkpt><trkpt lat="40.0728843" lon="15.621775"><ele>5.666666666666666</ele><time>2026-05-02T08:55:24.876Z</time></trkpt><trkpt lat="40.0729678" lon="15.6217504"><ele>6.5</ele><time>2026-05-02T08:55:25.876Z</time></trkpt><trkpt lat="40.0730475" lon="15.621735"><ele>7.333333333333333</ele><time>2026-05-02T08:55:26.876Z</time></trkpt><trkpt lat="40.073121" lon="15.621735"><ele>8.166666666666666</ele><time>2026-05-02T08:55:27.872Z</time></trkpt><trkpt lat="40.0731944" lon="15.6217696"><ele>9.0</ele><time>2026-05-02T08:55:28.872Z</time></trkpt><trkpt lat="40.0732591" lon="15.6218109"><ele>9.0</ele><time>2026-05-02T08:55:29.88Z</time></trkpt><trkpt lat="40.0733147" lon="15.6218548"><ele>9.0</ele><time>2026-05-02T08:55:30.88Z</time></trkpt><trkpt lat="40.0733709" lon="15.6218949"><ele>9.0</ele><time>2026-05-02T08:55:31.882Z</time></trkpt><trkpt lat="40.0734668" lon="15.6219799"><ele>9.0</ele><time>2026-05-02T08:55:33.872Z</time></trkpt><trkpt lat="40.0735452" lon="15.6220462"><ele>9.0</ele><time>2026-05-02T08:55:35.872Z</time></trkpt><trkpt lat="40.0736315" lon="15.6221083"><ele>9.0</ele><time>2026-05-02T08:55:37.868Z</time></trkpt><trkpt lat="40.0737112" lon="15.6221773"><ele>8.833333333333334</ele><time>2026-05-02T08:55:39.864Z</time></trkpt><trkpt lat="40.0737886" lon="15.6222414"><ele>8.666666666666666</ele><time>2026-05-02T08:55:41.881Z</time></trkpt><trkpt lat="40.0738557" lon="15.6223187"><ele>8.5</ele><time>2026-05-02T08:55:43.87Z</time></trkpt><trkpt lat="40.0739173" lon="15.622391"><ele>8.333333333333332</ele><time>2026-05-02T08:55:45.877Z</time></trkpt><trkpt lat="40.0739658" lon="15.6224738"><ele>8.166666666666666</ele><time>2026-05-02T08:55:48.877Z</time></trkpt><trkpt lat="40.0740004" lon="15.6225574"><ele>8.0</ele><time>2026-05-02T08:55:50.88Z</time></trkpt><trkpt lat="40.0740289" lon="15.6226665"><ele>7.999999999999999</ele><time>2026-05-02T08:55:52.884Z</time></trkpt><trkpt lat="40.0740598" lon="15.6227752"><ele>8.0</ele><time>2026-05-02T08:55:54.886Z</time></trkpt><trkpt lat="40.0740861" lon="15.6228681"><ele>8.0</ele><time>2026-05-02T08:55:56.877Z</time></trkpt><trkpt lat="40.0741099" lon="15.6229691"><ele>8.0</ele><time>2026-05-02T08:55:59.884Z</time></trkpt><trkpt lat="40.0741246" lon="15.623059"><ele>7.999999999999999</ele><time>2026-05-02T08:56:03.874Z</time></trkpt><trkpt lat="40.074159" lon="15.6231796"><ele>8.0</ele><time>2026-05-02T08:56:09.871Z</time></trkpt><trkpt lat="40.0741929" lon="15.6233045"><ele>7.2</ele><time>2026-05-02T08:56:11.878Z</time></trkpt><trkpt lat="40.0742224" lon="15.6234366"><ele>6.4</ele><time>2026-05-02T08:56:13.878Z</time></trkpt><trkpt lat="40.0742477" lon="15.6235415"><ele>5.6000000000000005</ele><time>2026-05-02T08:56:15.868Z</time></trkpt><trkpt lat="40.0742712" lon="15.6236327"><ele>4.800000000000001</ele><time>2026-05-02T08:56:17.885Z</time></trkpt><trkpt lat="40.0742975" lon="15.62374"><ele>4.0</ele><time>2026-05-02T08:56:19.875Z</time></trkpt><trkpt lat="40.0743234" lon="15.6238665"><ele>3.9999999999999996</ele><time>2026-05-02T08:56:21.87Z</time></trkpt><trkpt lat="40.0743444" lon="15.6239504"><ele>4.0</ele><time>2026-05-02T08:56:24.879Z</time></trkpt><trkpt lat="40.0743661" lon="15.6240415"><ele>4.0</ele><time>2026-05-02T08:56:27.884Z</time></trkpt><trkpt lat="40.0743847" lon="15.6241271"><ele>4.0</ele><time>2026-05-02T08:56:29.888Z</time></trkpt><trkpt lat="40.0744066" lon="15.6242356"><ele>3.9999999999999996</ele><time>2026-05-02T08:56:31.868Z</time></trkpt><trkpt lat="40.0744343" lon="15.6243387"><ele>4.0</ele><time>2026-05-02T08:56:33.878Z</time></trkpt><trkpt lat="40.0744575" lon="15.624448"><ele>4.285714285714286</ele><time>2026-05-02T08:56:35.881Z</time></trkpt><trkpt lat="40.0744726" lon="15.6245291"><ele>4.571428571428571</ele><time>2026-05-02T08:56:37.88Z</time></trkpt><trkpt lat="40.0744901" lon="15.624614"><ele>4.857142857142857</ele><time>2026-05-02T08:56:40.885Z</time></trkpt><trkpt lat="40.0745033" lon="15.6247029"><ele>5.142857142857142</ele><time>2026-05-02T08:56:54.883Z</time></trkpt><trkpt lat="40.0745272" lon="15.6247895"><ele>5.428571428571429</ele><time>2026-05-02T08:56:57.874Z</time></trkpt><trkpt lat="40.0745457" lon="15.6248733"><ele>5.7142857142857135</ele><time>2026-05-02T08:57:03.878Z</time></trkpt><trkpt lat="40.0745734" lon="15.62495"><ele>6.0</ele><time>2026-05-02T08:57:07.877Z</time></trkpt><trkpt lat="40.0745938" lon="15.6250311"><ele>6.0</ele><time>2026-05-02T08:57:09.877Z</time></trkpt><trkpt lat="40.0745977" lon="15.6251156"><ele>6.0</ele><time>2026-05-02T08:57:11.875Z</time></trkpt><trkpt lat="40.0745936" lon="15.6252162"><ele>6.0</ele><time>2026-05-02T08:57:13.875Z</time></trkpt><trkpt lat="40.0745849" lon="15.625328"><ele>6.0</ele><time>2026-05-02T08:57:16.88Z</time></trkpt><trkpt lat="40.0745734" lon="15.6254438"><ele>6.0</ele><time>2026-05-02T08:57:19.885Z</time></trkpt><trkpt lat="40.07456" lon="15.6255398"><ele>6.0</ele><time>2026-05-02T08:57:22.879Z</time></trkpt><trkpt lat="40.0745523" lon="15.6256379"><ele>5.999999999999999</ele><time>2026-05-02T08:57:26.879Z</time></trkpt><trkpt lat="40.0745538" lon="15.6257454"><ele>6.0</ele><time>2026-05-02T08:57:34.881Z</time></trkpt><trkpt lat="40.0745446" lon="15.6258399"><ele>6.0</ele><time>2026-05-02T08:57:37.892Z</time></trkpt><trkpt lat="40.0745233" lon="15.6259202"><ele>6.0</ele><time>2026-05-02T08:57:40.874Z</time></trkpt><trkpt lat="40.0745075" lon="15.6260015"><ele>6.0</ele><time>2026-05-02T08:57:43.879Z</time></trkpt><trkpt lat="40.0744961" lon="15.6260891"><ele>5.999999999999999</ele><time>2026-05-02T08:57:47.868Z</time></trkpt><trkpt lat="40.0744828" lon="15.6261837"><ele>6.0</ele><time>2026-05-02T08:57:51.881Z</time></trkpt><trkpt lat="40.074472" lon="15.6263144"><ele>5.8</ele><time>2026-05-02T08:58:03.87Z</time></trkpt><trkpt lat="40.0744442" lon="15.6264465"><ele>5.6</ele><time>2026-05-02T08:58:05.881Z</time></trkpt><trkpt lat="40.0744172" lon="15.6265604"><ele>5.4</ele><time>2026-05-02T08:58:07.864Z</time></trkpt><trkpt lat="40.0743874" lon="15.6266918"><ele>5.2</ele><time>2026-05-02T08:58:09.87Z</time></trkpt><trkpt lat="40.0743497" lon="15.6268071"><ele>5.0</ele><time>2026-05-02T08:58:11.87Z</time></trkpt><trkpt lat="40.0743075" lon="15.6269379"><ele>5.166666666666667</ele><time>2026-05-02T08:58:13.878Z</time></trkpt><trkpt lat="40.0742761" lon="15.627022"><ele>5.333333333333334</ele><time>2026-05-02T08:58:14.876Z</time></trkpt><trkpt lat="40.0742475" lon="15.627116"><ele>5.5</ele><time>2026-05-02T08:58:15.874Z</time></trkpt><trkpt lat="40.0742076" lon="15.6272129"><ele>5.666666666666667</ele><time>2026-05-02T08:58:16.873Z</time></trkpt><trkpt lat="40.0741626" lon="15.6273273"><ele>5.833333333333333</ele><time>2026-05-02T08:58:17.882Z</time></trkpt><trkpt lat="40.0741161" lon="15.6274489"><ele>6.0</ele><time>2026-05-02T08:58:18.883Z</time></trkpt><trkpt lat="40.0740712" lon="15.6275636"><ele>5.833333333333333</ele><time>2026-05-02T08:58:19.875Z</time></trkpt><trkpt lat="40.0740256" lon="15.6276796"><ele>5.666666666666667</ele><time>2026-05-02T08:58:20.892Z</time></trkpt><trkpt lat="40.0739791" lon="15.6277938"><ele>5.5</ele><time>2026-05-02T08:58:21.868Z</time></trkpt><trkpt lat="40.0739371" lon="15.6279009"><ele>5.333333333333334</ele><time>2026-05-02T08:58:22.875Z</time></trkpt><trkpt lat="40.0738966" lon="15.6279981"><ele>5.166666666666667</ele><time>2026-05-02T08:58:23.874Z</time></trkpt><trkpt lat="40.0738564" lon="15.628078"><ele>5.0</ele><time>2026-05-02T08:58:24.885Z</time></trkpt><trkpt lat="40.0738214" lon="15.628153"><ele>5.0</ele><time>2026-05-02T08:58:25.872Z</time></trkpt><trkpt lat="40.0737576" lon="15.6282849"><ele>5.0</ele><time>2026-05-02T08:58:27.875Z</time></trkpt><trkpt lat="40.0737046" lon="15.6283974"><ele>5.0</ele><time>2026-05-02T08:58:29.877Z</time></trkpt><trkpt lat="40.0736635" lon="15.6284713"><ele>5.0</ele><time>2026-05-02T08:58:32.883Z</time></trkpt><trkpt lat="40.0736165" lon="15.6285705"><ele>5.0</ele><time>2026-05-02T08:58:36.879Z</time></trkpt><trkpt lat="40.0735728" lon="15.6286552"><ele>5.333333333333334</ele><time>2026-05-02T08:58:38.881Z</time></trkpt><trkpt lat="40.0735175" lon="15.6287497"><ele>5.666666666666667</ele><time>2026-05-02T08:58:40.878Z</time></trkpt><trkpt lat="40.0734701" lon="15.6288394"><ele>6.0</ele><time>2026-05-02T08:58:42.878Z</time></trkpt><trkpt lat="40.0734177" lon="15.6289445"><ele>6.333333333333334</ele><time>2026-05-02T08:58:44.874Z</time></trkpt><trkpt lat="40.0733667" lon="15.6290346"><ele>6.666666666666667</ele><time>2026-05-02T08:58:46.879Z</time></trkpt><trkpt lat="40.0733205" lon="15.6291248"><ele>7.0</ele><time>2026-05-02T08:58:49.877Z</time></trkpt><trkpt lat="40.0732673" lon="15.6291926"><ele>6.6</ele><time>2026-05-02T08:58:51.88Z</time></trkpt><trkpt lat="40.0732094" lon="15.629315"><ele>6.199999999999999</ele><time>2026-05-02T08:58:53.872Z</time></trkpt><trkpt lat="40.0731427" lon="15.6294478"><ele>5.8</ele><time>2026-05-02T08:58:55.872Z</time></trkpt><trkpt lat="40.0730672" lon="15.6295685"><ele>5.4</ele><time>2026-05-02T08:58:57.875Z</time></trkpt><trkpt lat="40.0730225" lon="15.6296379"><ele>5.0</ele><time>2026-05-02T08:58:58.878Z</time></trkpt><trkpt lat="40.0729748" lon="15.6297137"><ele>5.0</ele><time>2026-05-02T08:58:59.872Z</time></trkpt><trkpt lat="40.0729266" lon="15.6297906"><ele>5.0</ele><time>2026-05-02T08:59:00.885Z</time></trkpt><trkpt lat="40.0728747" lon="15.629856"><ele>5.0</ele><time>2026-05-02T08:59:01.876Z</time></trkpt><trkpt lat="40.0727928" lon="15.6299753"><ele>5.0</ele><time>2026-05-02T08:59:03.883Z</time></trkpt><trkpt lat="40.0727473" lon="15.6300389"><ele>5.0</ele><time>2026-05-02T08:59:04.878Z</time></trkpt><trkpt lat="40.0727011" lon="15.6301042"><ele>5.0</ele><time>2026-05-02T08:59:05.881Z</time></trkpt><trkpt lat="40.0726588" lon="15.6301668"><ele>5.0</ele><time>2026-05-02T08:59:06.875Z</time></trkpt><trkpt lat="40.0725899" lon="15.6302684"><ele>5.0</ele><time>2026-05-02T08:59:08.883Z</time></trkpt><trkpt lat="40.0725186" lon="15.6303763"><ele>5.0</ele><time>2026-05-02T08:59:10.883Z</time></trkpt><trkpt lat="40.0724568" lon="15.6304771"><ele>5.0</ele><time>2026-05-02T08:59:12.871Z</time></trkpt><trkpt lat="40.0724022" lon="15.6305562"><ele>5.0</ele><time>2026-05-02T08:59:14.885Z</time></trkpt><trkpt lat="40.0723419" lon="15.6306351"><ele>4.4</ele><time>2026-05-02T08:59:16.865Z</time></trkpt><trkpt lat="40.0722979" lon="15.6307116"><ele>3.8</ele><time>2026-05-02T08:59:18.88Z</time></trkpt><trkpt lat="40.0722342" lon="15.6308091"><ele>3.2</ele><time>2026-05-02T08:59:23.878Z</time></trkpt><trkpt lat="40.0721696" lon="15.6309121"><ele>2.6</ele><time>2026-05-02T08:59:25.876Z</time></trkpt><trkpt lat="40.072092" lon="15.6310167"><ele>2.0</ele><time>2026-05-02T08:59:27.869Z</time></trkpt><trkpt lat="40.0720075" lon="15.6311175"><ele>2.1666666666666665</ele><time>2026-05-02T08:59:29.876Z</time></trkpt><trkpt lat="40.0719528" lon="15.6311858"><ele>2.333333333333333</ele><time>2026-05-02T08:59:30.885Z</time></trkpt><trkpt lat="40.0718943" lon="15.631265"><ele>2.5</ele><time>2026-05-02T08:59:31.875Z</time></trkpt><trkpt lat="40.0718343" lon="15.6313356"><ele>2.6666666666666665</ele><time>2026-05-02T08:59:32.881Z</time></trkpt><trkpt lat="40.0717687" lon="15.6314111"><ele>2.8333333333333335</ele><time>2026-05-02T08:59:33.883Z</time></trkpt><trkpt lat="40.0717" lon="15.6314888"><ele>3.0</ele><time>2026-05-02T08:59:34.88Z</time></trkpt><trkpt lat="40.07163" lon="15.6315596"><ele>2.8</ele><time>2026-05-02T08:59:35.875Z</time></trkpt><trkpt lat="40.0715537" lon="15.6316377"><ele>2.5999999999999996</ele><time>2026-05-02T08:59:36.881Z</time></trkpt><trkpt lat="40.071478" lon="15.6317173"><ele>2.4000000000000004</ele><time>2026-05-02T08:59:37.875Z</time></trkpt><trkpt lat="40.0714061" lon="15.6317911"><ele>2.2</ele><time>2026-05-02T08:59:38.88Z</time></trkpt><trkpt lat="40.071334" lon="15.6318622"><ele>2.0</ele><time>2026-05-02T08:59:39.869Z</time></trkpt><trkpt lat="40.071256" lon="15.6319378"><ele>2.2</ele><time>2026-05-02T08:59:40.878Z</time></trkpt><trkpt lat="40.0711697" lon="15.6320121"><ele>2.4000000000000004</ele><time>2026-05-02T08:59:41.881Z</time></trkpt><trkpt lat="40.0710873" lon="15.6320877"><ele>2.5999999999999996</ele><time>2026-05-02T08:59:42.886Z</time></trkpt><trkpt lat="40.0710095" lon="15.632159"><ele>2.8</ele><time>2026-05-02T08:59:43.879Z</time></trkpt><trkpt lat="40.0709314" lon="15.6322317"><ele>3.0</ele><time>2026-05-02T08:59:44.874Z</time></trkpt><trkpt lat="40.0708548" lon="15.6323036"><ele>3.0</ele><time>2026-05-02T08:59:45.87Z</time></trkpt><trkpt lat="40.0707796" lon="15.6323813"><ele>3.0</ele><time>2026-05-02T08:59:46.874Z</time></trkpt><trkpt lat="40.0707024" lon="15.6324541"><ele>3.0</ele><time>2026-05-02T08:59:47.881Z</time></trkpt><trkpt lat="40.0706263" lon="15.6325238"><ele>3.0</ele><time>2026-05-02T08:59:48.882Z</time></trkpt><trkpt lat="40.0705446" lon="15.6325978"><ele>3.0</ele><time>2026-05-02T08:59:49.876Z</time></trkpt><trkpt lat="40.0704647" lon="15.6326808"><ele>3.0</ele><time>2026-05-02T08:59:50.883Z</time></trkpt><trkpt lat="40.0703802" lon="15.6327628"><ele>3.0</ele><time>2026-05-02T08:59:51.874Z</time></trkpt><trkpt lat="40.0702945" lon="15.6328416"><ele>3.0</ele><time>2026-05-02T08:59:52.876Z</time></trkpt><trkpt lat="40.0702068" lon="15.6329249"><ele>3.0</ele><time>2026-05-02T08:59:53.885Z</time></trkpt><trkpt lat="40.0701191" lon="15.6330016"><ele>3.0</ele><time>2026-05-02T08:59:54.885Z</time></trkpt><trkpt lat="40.070037" lon="15.6330707"><ele>3.4</ele><time>2026-05-02T08:59:55.871Z</time></trkpt><trkpt lat="40.0699516" lon="15.6331371"><ele>3.8</ele><time>2026-05-02T08:59:56.874Z</time></trkpt><trkpt lat="40.0698569" lon="15.6332025"><ele>4.2</ele><time>2026-05-02T08:59:57.889Z</time></trkpt><trkpt lat="40.0697584" lon="15.6332578"><ele>4.6</ele><time>2026-05-02T08:59:58.888Z</time></trkpt><trkpt lat="40.0696617" lon="15.6333133"><ele>5.0</ele><time>2026-05-02T08:59:59.875Z</time></trkpt><trkpt lat="40.0695598" lon="15.6333661"><ele>5.0</ele><time>2026-05-02T09:00:00.875Z</time></trkpt><trkpt lat="40.069458" lon="15.6334194"><ele>5.0</ele><time>2026-05-02T09:00:01.876Z</time></trkpt><trkpt lat="40.0693552" lon="15.6334739"><ele>5.0</ele><time>2026-05-02T09:00:02.873Z</time></trkpt><trkpt lat="40.069238" lon="15.6335323"><ele>5.0</ele><time>2026-05-02T09:00:03.88Z</time></trkpt><trkpt lat="40.0691221" lon="15.6336047"><ele>5.25</ele><time>2026-05-02T09:00:04.878Z</time></trkpt><trkpt lat="40.0689984" lon="15.6336761"><ele>5.5</ele><time>2026-05-02T09:00:05.88Z</time></trkpt><trkpt lat="40.0688627" lon="15.6337422"><ele>5.75</ele><time>2026-05-02T09:00:06.881Z</time></trkpt><trkpt lat="40.0687129" lon="15.633792"><ele>6.0</ele><time>2026-05-02T09:00:07.876Z</time></trkpt><trkpt lat="40.0685661" lon="15.6338338"><ele>6.0</ele><time>2026-05-02T09:00:08.859Z</time></trkpt><trkpt lat="40.0684318" lon="15.633856"><ele>6.0</ele><time>2026-05-02T09:00:09.874Z</time></trkpt><trkpt lat="40.0683121" lon="15.6338683"><ele>6.0</ele><time>2026-05-02T09:00:10.883Z</time></trkpt><trkpt lat="40.0681977" lon="15.633875"><ele>6.0</ele><time>2026-05-02T09:00:11.87Z</time></trkpt><trkpt lat="40.0680841" lon="15.6338633"><ele>8.25</ele><time>2026-05-02T09:00:12.877Z</time></trkpt><trkpt lat="40.0679786" lon="15.6338249"><ele>10.5</ele><time>2026-05-02T09:00:13.876Z</time></trkpt><trkpt lat="40.067883" lon="15.6337567"><ele>12.75</ele><time>2026-05-02T09:00:14.873Z</time></trkpt><trkpt lat="40.0677899" lon="15.6336536"><ele>15.0</ele><time>2026-05-02T09:00:15.876Z</time></trkpt><trkpt lat="40.0677036" lon="15.6335311"><ele>15.0</ele><time>2026-05-02T09:00:16.882Z</time></trkpt><trkpt lat="40.0676328" lon="15.6333798"><ele>15.0</ele><time>2026-05-02T09:00:17.879Z</time></trkpt><trkpt lat="40.0675661" lon="15.633212"><ele>15.0</ele><time>2026-05-02T09:00:18.869Z</time></trkpt><trkpt lat="40.0675094" lon="15.6330482"><ele>15.0</ele><time>2026-05-02T09:00:19.872Z</time></trkpt><trkpt lat="40.0674569" lon="15.632884"><ele>18.75</ele><time>2026-05-02T09:00:20.874Z</time></trkpt><trkpt lat="40.067397" lon="15.6327364"><ele>22.5</ele><time>2026-05-02T09:00:21.888Z</time></trkpt><trkpt lat="40.0673322" lon="15.6326061"><ele>26.25</ele><time>2026-05-02T09:00:22.874Z</time></trkpt><trkpt lat="40.0672608" lon="15.6324963"><ele>30.0</ele><time>2026-05-02T09:00:23.865Z</time></trkpt><trkpt lat="40.0671956" lon="15.6324025"><ele>30.0</ele><time>2026-05-02T09:00:24.874Z</time></trkpt><trkpt lat="40.0671336" lon="15.6323102"><ele>30.0</ele><time>2026-05-02T09:00:25.869Z</time></trkpt><trkpt lat="40.0670756" lon="15.6322115"><ele>30.0</ele><time>2026-05-02T09:00:26.874Z</time></trkpt><trkpt lat="40.0670328" lon="15.6320989"><ele>30.0</ele><time>2026-05-02T09:00:27.872Z</time></trkpt><trkpt lat="40.0670129" lon="15.6319731"><ele>30.0</ele><time>2026-05-02T09:00:28.872Z</time></trkpt><trkpt lat="40.0669987" lon="15.6318507"><ele>28.0</ele><time>2026-05-02T09:00:29.873Z</time></trkpt><trkpt lat="40.0669866" lon="15.6317225"><ele>26.0</ele><time>2026-05-02T09:00:30.877Z</time></trkpt><trkpt lat="40.0669559" lon="15.6316"><ele>24.0</ele><time>2026-05-02T09:00:31.873Z</time></trkpt><trkpt lat="40.0669122" lon="15.6314788"><ele>22.0</ele><time>2026-05-02T09:00:32.876Z</time></trkpt><trkpt lat="40.0668652" lon="15.6313634"><ele>20.0</ele><time>2026-05-02T09:00:33.873Z</time></trkpt><trkpt lat="40.0668205" lon="15.6312692"><ele>20.0</ele><time>2026-05-02T09:00:34.881Z</time></trkpt><trkpt lat="40.0667651" lon="15.6311754"><ele>20.0</ele><time>2026-05-02T09:00:35.879Z</time></trkpt><trkpt lat="40.0667036" lon="15.6310776"><ele>20.0</ele><time>2026-05-02T09:00:36.868Z</time></trkpt><trkpt lat="40.0666457" lon="15.6309761"><ele>20.0</ele><time>2026-05-02T09:00:37.873Z</time></trkpt><trkpt lat="40.0665897" lon="15.630885"><ele>20.0</ele><time>2026-05-02T09:00:38.872Z</time></trkpt><trkpt lat="40.0665294" lon="15.6308011"><ele>20.8</ele><time>2026-05-02T09:00:39.871Z</time></trkpt><trkpt lat="40.0664623" lon="15.6307145"><ele>21.6</ele><time>2026-05-02T09:00:40.875Z</time></trkpt><trkpt lat="40.0663884" lon="15.6306337"><ele>22.4</ele><time>2026-05-02T09:00:41.872Z</time></trkpt><trkpt lat="40.0663151" lon="15.6305629"><ele>23.2</ele><time>2026-05-02T09:00:42.895Z</time></trkpt><trkpt lat="40.0662426" lon="15.6304966"><ele>24.0</ele><time>2026-05-02T09:00:43.871Z</time></trkpt><trkpt lat="40.0661652" lon="15.6304276"><ele>24.0</ele><time>2026-05-02T09:00:44.884Z</time></trkpt><trkpt lat="40.0660859" lon="15.6303628"><ele>24.0</ele><time>2026-05-02T09:00:45.866Z</time></trkpt><trkpt lat="40.0660059" lon="15.6303015"><ele>24.0</ele><time>2026-05-02T09:00:46.882Z</time></trkpt><trkpt lat="40.065922" lon="15.6302432"><ele>24.0</ele><time>2026-05-02T09:00:47.871Z</time></trkpt><trkpt lat="40.0658287" lon="15.630187"><ele>24.0</ele><time>2026-05-02T09:00:48.883Z</time></trkpt><trkpt lat="40.0657212" lon="15.6301558"><ele>20.75</ele><time>2026-05-02T09:00:49.883Z</time></trkpt><trkpt lat="40.0656047" lon="15.6301455"><ele>17.5</ele><time>2026-05-02T09:00:50.882Z</time></trkpt><trkpt lat="40.0654885" lon="15.6301431"><ele>14.25</ele><time>2026-05-02T09:00:51.865Z</time></trkpt><trkpt lat="40.0653734" lon="15.6301534"><ele>11.0</ele><time>2026-05-02T09:00:52.875Z</time></trkpt><trkpt lat="40.0652648" lon="15.6301703"><ele>11.0</ele><time>2026-05-02T09:00:53.873Z</time></trkpt><trkpt lat="40.0651637" lon="15.6301815"><ele>11.0</ele><time>2026-05-02T09:00:54.879Z</time></trkpt><trkpt lat="40.0650593" lon="15.6301772"><ele>11.0</ele><time>2026-05-02T09:00:55.871Z</time></trkpt><trkpt lat="40.0649435" lon="15.6301704"><ele>11.0</ele><time>2026-05-02T09:00:56.878Z</time></trkpt><trkpt lat="40.0648245" lon="15.6301528"><ele>11.0</ele><time>2026-05-02T09:00:57.86Z</time></trkpt><trkpt lat="40.0647085" lon="15.6301223"><ele>14.200000000000001</ele><time>2026-05-02T09:00:58.868Z</time></trkpt><trkpt lat="40.0646031" lon="15.6300857"><ele>17.400000000000002</ele><time>2026-05-02T09:00:59.877Z</time></trkpt><trkpt lat="40.0645045" lon="15.6300478"><ele>20.6</ele><time>2026-05-02T09:01:00.903Z</time></trkpt><trkpt lat="40.0643966" lon="15.6299995"><ele>23.8</ele><time>2026-05-02T09:01:01.883Z</time></trkpt><trkpt lat="40.0642863" lon="15.6299539"><ele>27.0</ele><time>2026-05-02T09:01:02.872Z</time></trkpt><trkpt lat="40.0641816" lon="15.629906"><ele>32.0</ele><time>2026-05-02T09:01:03.874Z</time></trkpt><trkpt lat="40.0640828" lon="15.6298481"><ele>37.0</ele><time>2026-05-02T09:01:04.868Z</time></trkpt><trkpt lat="40.0639914" lon="15.6297843"><ele>42.0</ele><time>2026-05-02T09:01:05.859Z</time></trkpt><trkpt lat="40.0639014" lon="15.6297176"><ele>47.0</ele><time>2026-05-02T09:01:06.87Z</time></trkpt><trkpt lat="40.0638141" lon="15.6296524"><ele>52.0</ele><time>2026-05-02T09:01:07.876Z</time></trkpt><trkpt lat="40.0637306" lon="15.6295836"><ele>52.0</ele><time>2026-05-02T09:01:08.877Z</time></trkpt><trkpt lat="40.0636446" lon="15.6295061"><ele>52.0</ele><time>2026-05-02T09:01:09.87Z</time></trkpt><trkpt lat="40.0635545" lon="15.6293976"><ele>52.0</ele><time>2026-05-02T09:01:10.874Z</time></trkpt><trkpt lat="40.0634526" lon="15.6292624"><ele>52.0</ele><time>2026-05-02T09:01:11.864Z</time></trkpt><trkpt lat="40.0633482" lon="15.6291163"><ele>56.0</ele><time>2026-05-02T09:01:12.868Z</time></trkpt><trkpt lat="40.0632559" lon="15.628964"><ele>60.0</ele><time>2026-05-02T09:01:13.871Z</time></trkpt><trkpt lat="40.0631621" lon="15.6287765"><ele>64.0</ele><time>2026-05-02T09:01:14.879Z</time></trkpt><trkpt lat="40.0630527" lon="15.6285866"><ele>56.0</ele><time>2026-05-02T09:01:15.855Z</time></trkpt><trkpt lat="40.0629432" lon="15.6283982"><ele>48.0</ele><time>2026-05-02T09:01:16.862Z</time></trkpt><trkpt lat="40.0628346" lon="15.6282214"><ele>40.0</ele><time>2026-05-02T09:01:17.88Z</time></trkpt><trkpt lat="40.0627315" lon="15.6280541"><ele>40.0</ele><time>2026-05-02T09:01:18.874Z</time></trkpt><trkpt lat="40.0626234" lon="15.6279101"><ele>40.0</ele><time>2026-05-02T09:01:19.867Z</time></trkpt><trkpt lat="40.0625007" lon="15.6277844"><ele>40.0</ele><time>2026-05-02T09:01:20.871Z</time></trkpt><trkpt lat="40.0623584" lon="15.6276839"><ele>35.66666666666667</ele><time>2026-05-02T09:01:21.876Z</time></trkpt><trkpt lat="40.0621995" lon="15.6276089"><ele>31.333333333333336</ele><time>2026-05-02T09:01:22.875Z</time></trkpt><trkpt lat="40.0620114" lon="15.6275545"><ele>27.0</ele><time>2026-05-02T09:01:23.877Z</time></trkpt><trkpt lat="40.0618072" lon="15.6275146"><ele>29.666666666666664</ele><time>2026-05-02T09:01:24.874Z</time></trkpt><trkpt lat="40.0616004" lon="15.6274724"><ele>32.33333333333333</ele><time>2026-05-02T09:01:25.88Z</time></trkpt><trkpt lat="40.0613896" lon="15.6274265"><ele>35.0</ele><time>2026-05-02T09:01:26.883Z</time></trkpt><trkpt lat="40.0611666" lon="15.6273845"><ele>35.0</ele><time>2026-05-02T09:01:27.857Z</time></trkpt><trkpt lat="40.0609345" lon="15.6273478"><ele>35.0</ele><time>2026-05-02T09:01:28.876Z</time></trkpt><trkpt lat="40.0606937" lon="15.6273177"><ele>38.5</ele><time>2026-05-02T09:01:29.866Z</time></trkpt><trkpt lat="40.0604419" lon="15.6273027"><ele>42.0</ele><time>2026-05-02T09:01:30.884Z</time></trkpt><trkpt lat="40.060177" lon="15.6273017"><ele>42.5</ele><time>2026-05-02T09:01:31.868Z</time></trkpt><trkpt lat="40.0599169" lon="15.6273058"><ele>43.0</ele><time>2026-05-02T09:01:32.876Z</time></trkpt><trkpt lat="40.0596706" lon="15.6273183"><ele>43.0</ele><time>2026-05-02T09:01:33.876Z</time></trkpt><trkpt lat="40.0594399" lon="15.6273333"><ele>43.0</ele><time>2026-05-02T09:01:34.871Z</time></trkpt><trkpt lat="40.059231" lon="15.6273411"><ele>43.0</ele><time>2026-05-02T09:01:35.872Z</time></trkpt><trkpt lat="40.0590485" lon="15.627355"><ele>44.66666666666667</ele><time>2026-05-02T09:01:36.867Z</time></trkpt><trkpt lat="40.0588879" lon="15.6273469"><ele>46.333333333333336</ele><time>2026-05-02T09:01:37.871Z</time></trkpt><trkpt lat="40.0587363" lon="15.6273208"><ele>48.0</ele><time>2026-05-02T09:01:38.865Z</time></trkpt><trkpt lat="40.0585989" lon="15.6272583"><ele>48.0</ele><time>2026-05-02T09:01:39.863Z</time></trkpt><trkpt lat="40.0584725" lon="15.6271872"><ele>48.0</ele><time>2026-05-02T09:01:40.873Z</time></trkpt><trkpt lat="40.0583421" lon="15.6271278"><ele>48.0</ele><time>2026-05-02T09:01:41.866Z</time></trkpt><trkpt lat="40.0582031" lon="15.6271181"><ele>48.0</ele><time>2026-05-02T09:01:42.887Z</time></trkpt><trkpt lat="40.058065" lon="15.6271489"><ele>45.0</ele><time>2026-05-02T09:01:43.862Z</time></trkpt><trkpt lat="40.0579223" lon="15.6272096"><ele>42.0</ele><time>2026-05-02T09:01:44.874Z</time></trkpt><trkpt lat="40.0577772" lon="15.6273004"><ele>39.0</ele><time>2026-05-02T09:01:45.871Z</time></trkpt><trkpt lat="40.05763" lon="15.6274174"><ele>39.0</ele><time>2026-05-02T09:01:46.872Z</time></trkpt><trkpt lat="40.0574766" lon="15.6275608"><ele>39.0</ele><time>2026-05-02T09:01:47.877Z</time></trkpt><trkpt lat="40.0573163" lon="15.6277301"><ele>39.0</ele><time>2026-05-02T09:01:48.88Z</time></trkpt><trkpt lat="40.0571575" lon="15.6279088"><ele>39.666666666666664</ele><time>2026-05-02T09:01:49.882Z</time></trkpt><trkpt lat="40.0569987" lon="15.6280947"><ele>40.33333333333333</ele><time>2026-05-02T09:01:50.865Z</time></trkpt><trkpt lat="40.0568304" lon="15.628287"><ele>41.0</ele><time>2026-05-02T09:01:51.863Z</time></trkpt><trkpt lat="40.0566572" lon="15.6284879"><ele>41.5</ele><time>2026-05-02T09:01:52.876Z</time></trkpt><trkpt lat="40.0564742" lon="15.6286954"><ele>42.0</ele><time>2026-05-02T09:01:53.864Z</time></trkpt><trkpt lat="40.0562777" lon="15.6289148"><ele>42.0</ele><time>2026-05-02T09:01:54.88Z</time></trkpt><trkpt lat="40.0560861" lon="15.629124"><ele>42.0</ele><time>2026-05-02T09:01:55.872Z</time></trkpt><trkpt lat="40.0558952" lon="15.6293367"><ele>40.5</ele><time>2026-05-02T09:01:56.882Z</time></trkpt><trkpt lat="40.0556972" lon="15.629556"><ele>39.0</ele><time>2026-05-02T09:01:57.883Z</time></trkpt><trkpt lat="40.0554976" lon="15.6297782"><ele>39.0</ele><time>2026-05-02T09:01:58.877Z</time></trkpt><trkpt lat="40.055309" lon="15.629988"><ele>39.0</ele><time>2026-05-02T09:01:59.879Z</time></trkpt><trkpt lat="40.0551365" lon="15.6301738"><ele>37.0</ele><time>2026-05-02T09:02:00.868Z</time></trkpt><trkpt lat="40.0549767" lon="15.6303491"><ele>35.0</ele><time>2026-05-02T09:02:01.877Z</time></trkpt><trkpt lat="40.054824" lon="15.6305196"><ele>33.0</ele><time>2026-05-02T09:02:02.871Z</time></trkpt><trkpt lat="40.0546751" lon="15.6306936"><ele>33.0</ele><time>2026-05-02T09:02:03.875Z</time></trkpt><trkpt lat="40.0545304" lon="15.6308732"><ele>33.0</ele><time>2026-05-02T09:02:04.873Z</time></trkpt><trkpt lat="40.0543956" lon="15.6310592"><ele>33.0</ele><time>2026-05-02T09:02:05.872Z</time></trkpt><trkpt lat="40.054258" lon="15.6312424"><ele>34.333333333333336</ele><time>2026-05-02T09:02:06.889Z</time></trkpt><trkpt lat="40.0541133" lon="15.6314136"><ele>35.66666666666667</ele><time>2026-05-02T09:02:07.866Z</time></trkpt><trkpt lat="40.0539585" lon="15.6315642"><ele>37.0</ele><time>2026-05-02T09:02:08.885Z</time></trkpt><trkpt lat="40.0538012" lon="15.6317074"><ele>37.0</ele><time>2026-05-02T09:02:09.86Z</time></trkpt><trkpt lat="40.0536444" lon="15.6318481"><ele>37.0</ele><time>2026-05-02T09:02:10.879Z</time></trkpt><trkpt lat="40.0534944" lon="15.6319842"><ele>37.0</ele><time>2026-05-02T09:02:11.866Z</time></trkpt><trkpt lat="40.0533588" lon="15.6321284"><ele>37.0</ele><time>2026-05-02T09:02:12.875Z</time></trkpt><trkpt lat="40.0532307" lon="15.6322793"><ele>37.0</ele><time>2026-05-02T09:02:13.869Z</time></trkpt><trkpt lat="40.0531098" lon="15.6324366"><ele>37.0</ele><time>2026-05-02T09:02:14.867Z</time></trkpt><trkpt lat="40.052999" lon="15.6326041"><ele>37.0</ele><time>2026-05-02T09:02:15.852Z</time></trkpt><trkpt lat="40.0528847" lon="15.6327752"><ele>37.0</ele><time>2026-05-02T09:02:16.866Z</time></trkpt><trkpt lat="40.0527792" lon="15.6329462"><ele>37.0</ele><time>2026-05-02T09:02:17.883Z</time></trkpt><trkpt lat="40.0526818" lon="15.6331071"><ele>36.0</ele><time>2026-05-02T09:02:18.866Z</time></trkpt><trkpt lat="40.0525967" lon="15.6332679"><ele>35.0</ele><time>2026-05-02T09:02:19.867Z</time></trkpt><trkpt lat="40.0525206" lon="15.6334507"><ele>34.0</ele><time>2026-05-02T09:02:20.868Z</time></trkpt><trkpt lat="40.0524486" lon="15.633634"><ele>39.66666666666667</ele><time>2026-05-02T09:02:21.877Z</time></trkpt><trkpt lat="40.0523647" lon="15.6338087"><ele>45.333333333333336</ele><time>2026-05-02T09:02:22.868Z</time></trkpt><trkpt lat="40.0522658" lon="15.633963"><ele>51.0</ele><time>2026-05-02T09:02:23.861Z</time></trkpt><trkpt lat="40.0521598" lon="15.6341011"><ele>51.0</ele><time>2026-05-02T09:02:24.882Z</time></trkpt><trkpt lat="40.0520547" lon="15.6342401"><ele>51.0</ele><time>2026-05-02T09:02:25.86Z</time></trkpt><trkpt lat="40.0519504" lon="15.6343797"><ele>51.0</ele><time>2026-05-02T09:02:26.873Z</time></trkpt><trkpt lat="40.0518514" lon="15.6345224"><ele>51.0</ele><time>2026-05-02T09:02:27.868Z</time></trkpt><trkpt lat="40.0517554" lon="15.6346682"><ele>47.333333333333336</ele><time>2026-05-02T09:02:28.878Z</time></trkpt><trkpt lat="40.0516666" lon="15.6348254"><ele>43.66666666666667</ele><time>2026-05-02T09:02:29.869Z</time></trkpt><trkpt lat="40.0515898" lon="15.6349914"><ele>40.0</ele><time>2026-05-02T09:02:30.883Z</time></trkpt><trkpt lat="40.0515208" lon="15.6351676"><ele>42.75</ele><time>2026-05-02T09:02:31.882Z</time></trkpt><trkpt lat="40.0514625" lon="15.6353443"><ele>45.5</ele><time>2026-05-02T09:02:32.876Z</time></trkpt><trkpt lat="40.0514027" lon="15.6355235"><ele>48.25</ele><time>2026-05-02T09:02:33.855Z</time></trkpt><trkpt lat="40.0513414" lon="15.6356979"><ele>51.0</ele><time>2026-05-02T09:02:34.877Z</time></trkpt><trkpt lat="40.0512824" lon="15.6358607"><ele>51.0</ele><time>2026-05-02T09:02:35.863Z</time></trkpt><trkpt lat="40.0512179" lon="15.6360127"><ele>51.0</ele><time>2026-05-02T09:02:36.874Z</time></trkpt><trkpt lat="40.0511484" lon="15.6361542"><ele>51.0</ele><time>2026-05-02T09:02:37.878Z</time></trkpt><trkpt lat="40.0510801" lon="15.636286"><ele>51.0</ele><time>2026-05-02T09:02:38.88Z</time></trkpt><trkpt lat="40.0510079" lon="15.6364142"><ele>54.75</ele><time>2026-05-02T09:02:39.87Z</time></trkpt><trkpt lat="40.0509315" lon="15.6365503"><ele>58.5</ele><time>2026-05-02T09:02:40.874Z</time></trkpt><trkpt lat="40.0508551" lon="15.6366827"><ele>62.25</ele><time>2026-05-02T09:02:41.872Z</time></trkpt><trkpt lat="40.0507813" lon="15.6368098"><ele>66.0</ele><time>2026-05-02T09:02:42.877Z</time></trkpt><trkpt lat="40.0507125" lon="15.6369335"><ele>60.8</ele><time>2026-05-02T09:02:43.88Z</time></trkpt><trkpt lat="40.0506493" lon="15.6370445"><ele>55.599999999999994</ele><time>2026-05-02T09:02:44.871Z</time></trkpt><trkpt lat="40.0505912" lon="15.6371467"><ele>50.4</ele><time>2026-05-02T09:02:45.88Z</time></trkpt><trkpt lat="40.0505379" lon="15.63725"><ele>45.2</ele><time>2026-05-02T09:02:46.875Z</time></trkpt><trkpt lat="40.0504902" lon="15.6373505"><ele>40.0</ele><time>2026-05-02T09:02:47.871Z</time></trkpt><trkpt lat="40.0504508" lon="15.6374428"><ele>40.0</ele><time>2026-05-02T09:02:48.873Z</time></trkpt><trkpt lat="40.0504135" lon="15.6375226"><ele>40.0</ele><time>2026-05-02T09:02:49.856Z</time></trkpt><trkpt lat="40.0503735" lon="15.6376335"><ele>40.0</ele><time>2026-05-02T09:02:51.865Z</time></trkpt><trkpt lat="40.0503378" lon="15.6377222"><ele>40.0</ele><time>2026-05-02T09:02:54.859Z</time></trkpt><trkpt lat="40.0503052" lon="15.6378446"><ele>40.0</ele><time>2026-05-02T09:03:33.878Z</time></trkpt><trkpt lat="40.0502885" lon="15.6379256"><ele>40.0</ele><time>2026-05-02T09:03:34.867Z</time></trkpt><trkpt lat="40.0502581" lon="15.6380245"><ele>45.0</ele><time>2026-05-02T09:03:35.871Z</time></trkpt><trkpt lat="40.0502222" lon="15.638139"><ele>50.0</ele><time>2026-05-02T09:03:36.877Z</time></trkpt><trkpt lat="40.0501839" lon="15.6382747"><ele>55.0</ele><time>2026-05-02T09:03:37.872Z</time></trkpt><trkpt lat="40.0501418" lon="15.6384315"><ele>60.0</ele><time>2026-05-02T09:03:38.869Z</time></trkpt><trkpt lat="40.0500973" lon="15.6385969"><ele>56.0</ele><time>2026-05-02T09:03:39.879Z</time></trkpt><trkpt lat="40.0500547" lon="15.6387615"><ele>52.0</ele><time>2026-05-02T09:03:40.87Z</time></trkpt><trkpt lat="40.0500066" lon="15.6389369"><ele>48.0</ele><time>2026-05-02T09:03:41.871Z</time></trkpt><trkpt lat="40.0499525" lon="15.6391029"><ele>44.0</ele><time>2026-05-02T09:03:42.866Z</time></trkpt><trkpt lat="40.0498872" lon="15.6392671"><ele>44.0</ele><time>2026-05-02T09:03:43.862Z</time></trkpt><trkpt lat="40.0498122" lon="15.6394221"><ele>44.0</ele><time>2026-05-02T09:03:44.864Z</time></trkpt><trkpt lat="40.0497259" lon="15.639568"><ele>44.0</ele><time>2026-05-02T09:03:45.865Z</time></trkpt><trkpt lat="40.049635" lon="15.6397083"><ele>44.0</ele><time>2026-05-02T09:03:46.865Z</time></trkpt><trkpt lat="40.0495358" lon="15.6398498"><ele>55.666666666666664</ele><time>2026-05-02T09:03:47.871Z</time></trkpt><trkpt lat="40.0494301" lon="15.6399952"><ele>67.33333333333333</ele><time>2026-05-02T09:03:48.863Z</time></trkpt><trkpt lat="40.0493206" lon="15.6401414"><ele>79.0</ele><time>2026-05-02T09:03:49.877Z</time></trkpt><trkpt lat="40.0492071" lon="15.6402718"><ele>82.66666666666666</ele><time>2026-05-02T09:03:50.877Z</time></trkpt><trkpt lat="40.0490768" lon="15.640378"><ele>86.33333333333333</ele><time>2026-05-02T09:03:51.877Z</time></trkpt><trkpt lat="40.0489419" lon="15.6404668"><ele>90.0</ele><time>2026-05-02T09:03:52.881Z</time></trkpt><trkpt lat="40.048803" lon="15.6405491"><ele>90.0</ele><time>2026-05-02T09:03:53.867Z</time></trkpt><trkpt lat="40.0486703" lon="15.6406309"><ele>90.0</ele><time>2026-05-02T09:03:54.874Z</time></trkpt><trkpt lat="40.0485316" lon="15.6407063"><ele>90.0</ele><time>2026-05-02T09:03:55.868Z</time></trkpt><trkpt lat="40.0483889" lon="15.6407728"><ele>90.0</ele><time>2026-05-02T09:03:56.865Z</time></trkpt><trkpt lat="40.0482421" lon="15.6408377"><ele>84.25</ele><time>2026-05-02T09:03:57.88Z</time></trkpt><trkpt lat="40.048097" lon="15.6409009"><ele>78.5</ele><time>2026-05-02T09:03:58.872Z</time></trkpt><trkpt lat="40.0479529" lon="15.6409596"><ele>72.75</ele><time>2026-05-02T09:03:59.866Z</time></trkpt><trkpt lat="40.0478238" lon="15.6410132"><ele>67.0</ele><time>2026-05-02T09:04:00.865Z</time></trkpt><trkpt lat="40.0477055" lon="15.6410799"><ele>61.5</ele><time>2026-05-02T09:04:01.881Z</time></trkpt><trkpt lat="40.0475989" lon="15.6411799"><ele>56.0</ele><time>2026-05-02T09:04:02.869Z</time></trkpt><trkpt lat="40.047509" lon="15.6413124"><ele>50.5</ele><time>2026-05-02T09:04:03.872Z</time></trkpt><trkpt lat="40.0474436" lon="15.641469"><ele>45.0</ele><time>2026-05-02T09:04:04.87Z</time></trkpt><trkpt lat="40.0474145" lon="15.6416518"><ele>45.0</ele><time>2026-05-02T09:04:05.863Z</time></trkpt><trkpt lat="40.0474025" lon="15.6418519"><ele>45.0</ele><time>2026-05-02T09:04:06.855Z</time></trkpt><trkpt lat="40.0473938" lon="15.642054"><ele>45.0</ele><time>2026-05-02T09:04:07.85Z</time></trkpt><trkpt lat="40.0473988" lon="15.6422606"><ele>50.5</ele><time>2026-05-02T09:04:08.855Z</time></trkpt><trkpt lat="40.0474095" lon="15.6424561"><ele>56.0</ele><time>2026-05-02T09:04:09.853Z</time></trkpt><trkpt lat="40.0474206" lon="15.6426395"><ele>61.5</ele><time>2026-05-02T09:04:10.859Z</time></trkpt><trkpt lat="40.047435" lon="15.6428069"><ele>67.0</ele><time>2026-05-02T09:04:11.856Z</time></trkpt><trkpt lat="40.0474643" lon="15.6429516"><ele>72.4</ele><time>2026-05-02T09:04:12.878Z</time></trkpt><trkpt lat="40.0474974" lon="15.643086"><ele>77.80000000000001</ele><time>2026-05-02T09:04:13.847Z</time></trkpt><trkpt lat="40.0475163" lon="15.6432167"><ele>83.2</ele><time>2026-05-02T09:04:14.861Z</time></trkpt><trkpt lat="40.0475137" lon="15.6433339"><ele>88.60000000000001</ele><time>2026-05-02T09:04:15.847Z</time></trkpt><trkpt lat="40.0474689" lon="15.6434328"><ele>94.0</ele><time>2026-05-02T09:04:16.877Z</time></trkpt><trkpt lat="40.0474" lon="15.6435158"><ele>94.0</ele><time>2026-05-02T09:04:17.852Z</time></trkpt><trkpt lat="40.0473026" lon="15.6435691"><ele>94.0</ele><time>2026-05-02T09:04:18.849Z</time></trkpt><trkpt lat="40.0471937" lon="15.6435765"><ele>94.0</ele><time>2026-05-02T09:04:19.857Z</time></trkpt><trkpt lat="40.0470755" lon="15.6435769"><ele>94.0</ele><time>2026-05-02T09:04:20.854Z</time></trkpt><trkpt lat="40.0469517" lon="15.643578"><ele>94.0</ele><time>2026-05-02T09:04:21.85Z</time></trkpt><trkpt lat="40.0468124" lon="15.6436092"><ele>94.0</ele><time>2026-05-02T09:04:22.861Z</time></trkpt><trkpt lat="40.046664" lon="15.6436517"><ele>94.0</ele><time>2026-05-02T09:04:23.865Z</time></trkpt><trkpt lat="40.0465156" lon="15.643701"><ele>94.0</ele><time>2026-05-02T09:04:24.859Z</time></trkpt><trkpt lat="40.0463711" lon="15.6437437"><ele>103.75</ele><time>2026-05-02T09:04:25.864Z</time></trkpt><trkpt lat="40.0462189" lon="15.6437745"><ele>113.5</ele><time>2026-05-02T09:04:26.852Z</time></trkpt><trkpt lat="40.0460713" lon="15.6438052"><ele>123.25</ele><time>2026-05-02T09:04:27.865Z</time></trkpt><trkpt lat="40.0459361" lon="15.6438195"><ele>133.0</ele><time>2026-05-02T09:04:28.87Z</time></trkpt><trkpt lat="40.0458036" lon="15.6438115"><ele>132.25</ele><time>2026-05-02T09:04:29.862Z</time></trkpt><trkpt lat="40.0456672" lon="15.6437635"><ele>131.5</ele><time>2026-05-02T09:04:30.865Z</time></trkpt><trkpt lat="40.0455352" lon="15.6436805"><ele>130.75</ele><time>2026-05-02T09:04:31.867Z</time></trkpt><trkpt lat="40.0454264" lon="15.6435939"><ele>130.0</ele><time>2026-05-02T09:04:32.883Z</time></trkpt><trkpt lat="40.045316" lon="15.6435211"><ele>122.5</ele><time>2026-05-02T09:04:33.859Z</time></trkpt><trkpt lat="40.0452095" lon="15.6434737"><ele>115.0</ele><time>2026-05-02T09:04:34.862Z</time></trkpt><trkpt lat="40.0451044" lon="15.6434645"><ele>107.5</ele><time>2026-05-02T09:04:35.877Z</time></trkpt><trkpt lat="40.0449952" lon="15.6434896"><ele>100.0</ele><time>2026-05-02T09:04:36.868Z</time></trkpt><trkpt lat="40.0448797" lon="15.6435463"><ele>94.6</ele><time>2026-05-02T09:04:37.872Z</time></trkpt><trkpt lat="40.044768" lon="15.643613"><ele>89.2</ele><time>2026-05-02T09:04:38.873Z</time></trkpt><trkpt lat="40.0446618" lon="15.6436736"><ele>83.8</ele><time>2026-05-02T09:04:39.87Z</time></trkpt><trkpt lat="40.0445734" lon="15.6437304"><ele>78.4</ele><time>2026-05-02T09:04:40.878Z</time></trkpt><trkpt lat="40.0444956" lon="15.643804"><ele>73.0</ele><time>2026-05-02T09:04:41.871Z</time></trkpt><trkpt lat="40.044437" lon="15.6439194"><ele>73.0</ele><time>2026-05-02T09:04:42.873Z</time></trkpt><trkpt lat="40.0444217" lon="15.6440635"><ele>73.0</ele><time>2026-05-02T09:04:43.866Z</time></trkpt><trkpt lat="40.0444234" lon="15.6442226"><ele>73.0</ele><time>2026-05-02T09:04:44.875Z</time></trkpt><trkpt lat="40.0444214" lon="15.6443825"><ele>73.0</ele><time>2026-05-02T09:04:45.872Z</time></trkpt><trkpt lat="40.0443845" lon="15.6445399"><ele>78.5</ele><time>2026-05-02T09:04:46.863Z</time></trkpt><trkpt lat="40.0443267" lon="15.6447022"><ele>84.0</ele><time>2026-05-02T09:04:47.864Z</time></trkpt><trkpt lat="40.0442421" lon="15.6448396"><ele>89.5</ele><time>2026-05-02T09:04:48.868Z</time></trkpt><trkpt lat="40.0441517" lon="15.6449561"><ele>95.0</ele><time>2026-05-02T09:04:49.865Z</time></trkpt><trkpt lat="40.0440588" lon="15.6450449"><ele>85.8</ele><time>2026-05-02T09:04:50.88Z</time></trkpt><trkpt lat="40.0439726" lon="15.6451103"><ele>76.6</ele><time>2026-05-02T09:04:51.878Z</time></trkpt><trkpt lat="40.0439059" lon="15.6451922"><ele>67.4</ele><time>2026-05-02T09:04:52.878Z</time></trkpt><trkpt lat="40.0438706" lon="15.6452936"><ele>58.2</ele><time>2026-05-02T09:04:53.854Z</time></trkpt><trkpt lat="40.0438781" lon="15.6454054"><ele>49.0</ele><time>2026-05-02T09:04:54.882Z</time></trkpt><trkpt lat="40.0439117" lon="15.6455175"><ele>49.0</ele><time>2026-05-02T09:04:55.855Z</time></trkpt><trkpt lat="40.0439778" lon="15.6456179"><ele>49.0</ele><time>2026-05-02T09:04:56.868Z</time></trkpt><trkpt lat="40.0440513" lon="15.6457072"><ele>49.0</ele><time>2026-05-02T09:04:57.862Z</time></trkpt><trkpt lat="40.0441275" lon="15.6458272"><ele>49.0</ele><time>2026-05-02T09:04:58.865Z</time></trkpt><trkpt lat="40.0442082" lon="15.6459632"><ele>59.2</ele><time>2026-05-02T09:04:59.847Z</time></trkpt><trkpt lat="40.0442845" lon="15.6460959"><ele>69.4</ele><time>2026-05-02T09:05:00.854Z</time></trkpt><trkpt lat="40.0443461" lon="15.646221"><ele>79.6</ele><time>2026-05-02T09:05:01.853Z</time></trkpt><trkpt lat="40.0443907" lon="15.6463469"><ele>89.8</ele><time>2026-05-02T09:05:02.861Z</time></trkpt><trkpt lat="40.0444038" lon="15.6464747"><ele>100.0</ele><time>2026-05-02T09:05:03.875Z</time></trkpt><trkpt lat="40.0443939" lon="15.6466095"><ele>100.0</ele><time>2026-05-02T09:05:04.882Z</time></trkpt><trkpt lat="40.0443637" lon="15.6467444"><ele>100.0</ele><time>2026-05-02T09:05:05.88Z</time></trkpt><trkpt lat="40.0443215" lon="15.6468758"><ele>100.0</ele><time>2026-05-02T09:05:06.875Z</time></trkpt><trkpt lat="40.0442564" lon="15.6470018"><ele>100.0</ele><time>2026-05-02T09:05:07.858Z</time></trkpt><trkpt lat="40.0441801" lon="15.6471132"><ele>100.0</ele><time>2026-05-02T09:05:08.872Z</time></trkpt><trkpt lat="40.0441047" lon="15.6472135"><ele>106.00000000000001</ele><time>2026-05-02T09:05:09.866Z</time></trkpt><trkpt lat="40.0440329" lon="15.6472944"><ele>112.0</ele><time>2026-05-02T09:05:10.891Z</time></trkpt><trkpt lat="40.0439562" lon="15.6473565"><ele>118.0</ele><time>2026-05-02T09:05:11.863Z</time></trkpt><trkpt lat="40.0438653" lon="15.647382"><ele>124.0</ele><time>2026-05-02T09:05:12.866Z</time></trkpt><trkpt lat="40.0437768" lon="15.6473683"><ele>130.0</ele><time>2026-05-02T09:05:13.874Z</time></trkpt><trkpt lat="40.0437076" lon="15.6473146"><ele>136.0</ele><time>2026-05-02T09:05:14.867Z</time></trkpt><trkpt lat="40.0436605" lon="15.6472297"><ele>136.0</ele><time>2026-05-02T09:05:15.868Z</time></trkpt><trkpt lat="40.0436187" lon="15.6471342"><ele>136.0</ele><time>2026-05-02T09:05:16.855Z</time></trkpt><trkpt lat="40.0435723" lon="15.6470448"><ele>136.0</ele><time>2026-05-02T09:05:17.858Z</time></trkpt><trkpt lat="40.0435063" lon="15.6469638"><ele>136.0</ele><time>2026-05-02T09:05:18.871Z</time></trkpt><trkpt lat="40.0434153" lon="15.6469101"><ele>136.0</ele><time>2026-05-02T09:05:19.876Z</time></trkpt><trkpt lat="40.0433013" lon="15.6468777"><ele>130.5</ele><time>2026-05-02T09:05:20.863Z</time></trkpt><trkpt lat="40.0431782" lon="15.6468358"><ele>125.0</ele><time>2026-05-02T09:05:21.863Z</time></trkpt><trkpt lat="40.0430533" lon="15.646794"><ele>119.5</ele><time>2026-05-02T09:05:22.866Z</time></trkpt><trkpt lat="40.0429414" lon="15.6467527"><ele>114.0</ele><time>2026-05-02T09:05:23.861Z</time></trkpt><trkpt lat="40.042841" lon="15.6467004"><ele>114.0</ele><time>2026-05-02T09:05:24.862Z</time></trkpt><trkpt lat="40.0427531" lon="15.6466189"><ele>114.0</ele><time>2026-05-02T09:05:25.869Z</time></trkpt><trkpt lat="40.0426867" lon="15.6465088"><ele>114.0</ele><time>2026-05-02T09:05:26.872Z</time></trkpt><trkpt lat="40.0426189" lon="15.6464104"><ele>114.0</ele><time>2026-05-02T09:05:27.874Z</time></trkpt><trkpt lat="40.0425292" lon="15.6463505"><ele>114.0</ele><time>2026-05-02T09:05:28.863Z</time></trkpt><trkpt lat="40.0424245" lon="15.6463094"><ele>107.2</ele><time>2026-05-02T09:05:29.865Z</time></trkpt><trkpt lat="40.0423118" lon="15.646284"><ele>100.4</ele><time>2026-05-02T09:05:30.871Z</time></trkpt><trkpt lat="40.0422027" lon="15.6462694"><ele>93.6</ele><time>2026-05-02T09:05:31.872Z</time></trkpt><trkpt lat="40.042118" lon="15.6462624"><ele>86.8</ele><time>2026-05-02T09:05:32.865Z</time></trkpt><trkpt lat="40.0420462" lon="15.6462582"><ele>80.0</ele><time>2026-05-02T09:05:33.862Z</time></trkpt><trkpt lat="40.0419611" lon="15.6462598"><ele>80.0</ele><time>2026-05-02T09:05:35.869Z</time></trkpt><trkpt lat="40.0418832" lon="15.6462724"><ele>80.0</ele><time>2026-05-02T09:05:59.878Z</time></trkpt><trkpt lat="40.0418164" lon="15.6463839"><ele>80.0</ele><time>2026-05-02T09:06:01.883Z</time></trkpt><trkpt lat="40.0417971" lon="15.6464821"><ele>80.0</ele><time>2026-05-02T09:06:02.89Z</time></trkpt><trkpt lat="40.0417986" lon="15.6465855"><ele>80.0</ele><time>2026-05-02T09:06:03.861Z</time></trkpt><trkpt lat="40.0418136" lon="15.6466926"><ele>80.0</ele><time>2026-05-02T09:06:04.882Z</time></trkpt><trkpt lat="40.0418244" lon="15.6468116"><ele>80.0</ele><time>2026-05-02T09:06:05.87Z</time></trkpt><trkpt lat="40.041813" lon="15.6469371"><ele>80.0</ele><time>2026-05-02T09:06:06.879Z</time></trkpt><trkpt lat="40.0417712" lon="15.6470624"><ele>80.0</ele><time>2026-05-02T09:06:07.881Z</time></trkpt><trkpt lat="40.0417198" lon="15.6471738"><ele>80.0</ele><time>2026-05-02T09:06:08.876Z</time></trkpt><trkpt lat="40.0416934" lon="15.6472798"><ele>80.0</ele><time>2026-05-02T09:06:09.869Z</time></trkpt><trkpt lat="40.0416724" lon="15.6473916"><ele>84.66666666666667</ele><time>2026-05-02T09:06:10.873Z</time></trkpt><trkpt lat="40.0417092" lon="15.6475062"><ele>89.33333333333334</ele><time>2026-05-02T09:06:11.869Z</time></trkpt><trkpt lat="40.0417591" lon="15.6476155"><ele>94.0</ele><time>2026-05-02T09:06:12.879Z</time></trkpt><trkpt lat="40.0418067" lon="15.6477187"><ele>98.66666666666667</ele><time>2026-05-02T09:06:13.869Z</time></trkpt><trkpt lat="40.0418257" lon="15.647824"><ele>103.33333333333333</ele><time>2026-05-02T09:06:14.882Z</time></trkpt><trkpt lat="40.0418164" lon="15.6479261"><ele>108.0</ele><time>2026-05-02T09:06:15.873Z</time></trkpt><trkpt lat="40.0417806" lon="15.6480286"><ele>102.80000000000001</ele><time>2026-05-02T09:06:16.874Z</time></trkpt><trkpt lat="40.0417159" lon="15.6481216"><ele>97.60000000000001</ele><time>2026-05-02T09:06:17.877Z</time></trkpt><trkpt lat="40.0416282" lon="15.6481816"><ele>92.4</ele><time>2026-05-02T09:06:18.877Z</time></trkpt><trkpt lat="40.0415281" lon="15.6482035"><ele>87.19999999999999</ele><time>2026-05-02T09:06:19.882Z</time></trkpt><trkpt lat="40.0414283" lon="15.6482199"><ele>82.0</ele><time>2026-05-02T09:06:20.878Z</time></trkpt><trkpt lat="40.041315" lon="15.6482706"><ele>82.0</ele><time>2026-05-02T09:06:21.869Z</time></trkpt><trkpt lat="40.0412068" lon="15.648355"><ele>82.0</ele><time>2026-05-02T09:06:22.876Z</time></trkpt><trkpt lat="40.0411047" lon="15.6484393"><ele>82.0</ele><time>2026-05-02T09:06:23.847Z</time></trkpt><trkpt lat="40.0410061" lon="15.6485395"><ele>82.0</ele><time>2026-05-02T09:06:24.86Z</time></trkpt><trkpt lat="40.0409327" lon="15.648672"><ele>89.0</ele><time>2026-05-02T09:06:25.873Z</time></trkpt><trkpt lat="40.0408757" lon="15.6488197"><ele>96.0</ele><time>2026-05-02T09:06:26.874Z</time></trkpt><trkpt lat="40.0408373" lon="15.6489725"><ele>103.0</ele><time>2026-05-02T09:06:27.869Z</time></trkpt><trkpt lat="40.0408049" lon="15.6491164"><ele>110.0</ele><time>2026-05-02T09:06:28.869Z</time></trkpt><trkpt lat="40.0407928" lon="15.6492543"><ele>110.0</ele><time>2026-05-02T09:06:29.87Z</time></trkpt><trkpt lat="40.0408029" lon="15.6493938"><ele>110.0</ele><time>2026-05-02T09:06:30.874Z</time></trkpt><trkpt lat="40.0408096" lon="15.6495368"><ele>110.0</ele><time>2026-05-02T09:06:31.878Z</time></trkpt><trkpt lat="40.040799" lon="15.6496699"><ele>110.0</ele><time>2026-05-02T09:06:32.883Z</time></trkpt><trkpt lat="40.0407691" lon="15.6497821"><ele>110.0</ele><time>2026-05-02T09:06:33.874Z</time></trkpt><trkpt lat="40.0407284" lon="15.6498771"><ele>95.2</ele><time>2026-05-02T09:06:34.863Z</time></trkpt><trkpt lat="40.0406889" lon="15.6499534"><ele>80.4</ele><time>2026-05-02T09:06:35.866Z</time></trkpt><trkpt lat="40.0406112" lon="15.6500014"><ele>65.6</ele><time>2026-05-02T09:06:37.878Z</time></trkpt><trkpt lat="40.040622" lon="15.6500996"><ele>50.8</ele><time>2026-05-02T09:18:45.884Z</time></trkpt><trkpt lat="40.0406152" lon="15.6502257"><ele>36.0</ele><time>2026-05-02T09:18:48.873Z</time></trkpt><trkpt lat="40.0405949" lon="15.6503876"><ele>35.6</ele><time>2026-05-02T09:18:50.871Z</time></trkpt><trkpt lat="40.0405939" lon="15.6504772"><ele>35.2</ele><time>2026-05-02T09:18:51.874Z</time></trkpt><trkpt lat="40.0405993" lon="15.6506296"><ele>34.8</ele><time>2026-05-02T09:18:53.879Z</time></trkpt><trkpt lat="40.0406273" lon="15.6507477"><ele>34.4</ele><time>2026-05-02T09:18:55.882Z</time></trkpt><trkpt lat="40.0407342" lon="15.650816"><ele>34.0</ele><time>2026-05-02T09:18:57.865Z</time></trkpt><trkpt lat="40.0408049" lon="15.6508267"><ele>48.4</ele><time>2026-05-02T09:18:58.875Z</time></trkpt><trkpt lat="40.0408856" lon="15.6508387"><ele>62.8</ele><time>2026-05-02T09:18:59.866Z</time></trkpt><trkpt lat="40.0409786" lon="15.6508466"><ele>77.19999999999999</ele><time>2026-05-02T09:19:00.865Z</time></trkpt><trkpt lat="40.0410841" lon="15.6508674"><ele>91.6</ele><time>2026-05-02T09:19:01.868Z</time></trkpt><trkpt lat="40.0412076" lon="15.6509196"><ele>106.0</ele><time>2026-05-02T09:19:02.883Z</time></trkpt><trkpt lat="40.0413372" lon="15.6510049"><ele>106.0</ele><time>2026-05-02T09:19:03.851Z</time></trkpt><trkpt lat="40.0414567" lon="15.6511084"><ele>106.0</ele><time>2026-05-02T09:19:04.843Z</time></trkpt><trkpt lat="40.0415611" lon="15.6511985"><ele>106.0</ele><time>2026-05-02T09:19:05.848Z</time></trkpt><trkpt lat="40.0416517" lon="15.6512843"><ele>106.0</ele><time>2026-05-02T09:19:06.866Z</time></trkpt><trkpt lat="40.0417203" lon="15.6513632"><ele>110.33333333333334</ele><time>2026-05-02T09:19:07.863Z</time></trkpt><trkpt lat="40.0417749" lon="15.6514554"><ele>114.66666666666667</ele><time>2026-05-02T09:19:08.869Z</time></trkpt><trkpt lat="40.0418205" lon="15.6515394"><ele>119.0</ele><time>2026-05-02T09:19:09.862Z</time></trkpt><trkpt lat="40.0418581" lon="15.651607"><ele>123.33333333333334</ele><time>2026-05-02T09:19:10.869Z</time></trkpt><trkpt lat="40.0418902" lon="15.6516824"><ele>127.66666666666667</ele><time>2026-05-02T09:19:11.855Z</time></trkpt><trkpt lat="40.041922" lon="15.6517753"><ele>132.0</ele><time>2026-05-02T09:19:12.875Z</time></trkpt><trkpt lat="40.0419534" lon="15.6518965"><ele>126.5</ele><time>2026-05-02T09:19:13.87Z</time></trkpt><trkpt lat="40.0419901" lon="15.6520391"><ele>121.0</ele><time>2026-05-02T09:19:14.859Z</time></trkpt><trkpt lat="40.0420293" lon="15.6521898"><ele>115.5</ele><time>2026-05-02T09:19:15.868Z</time></trkpt><trkpt lat="40.0420637" lon="15.6523513"><ele>110.0</ele><time>2026-05-02T09:19:16.867Z</time></trkpt><trkpt lat="40.042106" lon="15.6525116"><ele>110.0</ele><time>2026-05-02T09:19:17.86Z</time></trkpt><trkpt lat="40.0421378" lon="15.6526871"><ele>110.0</ele><time>2026-05-02T09:19:18.857Z</time></trkpt><trkpt lat="40.0421603" lon="15.6528683"><ele>110.0</ele><time>2026-05-02T09:19:19.865Z</time></trkpt><trkpt lat="40.0421782" lon="15.6530525"><ele>110.0</ele><time>2026-05-02T09:19:20.871Z</time></trkpt><trkpt lat="40.0422046" lon="15.6532235"><ele>103.25</ele><time>2026-05-02T09:19:21.862Z</time></trkpt><trkpt lat="40.0422432" lon="15.6533794"><ele>96.5</ele><time>2026-05-02T09:19:22.878Z</time></trkpt><trkpt lat="40.0422968" lon="15.6535279"><ele>89.75</ele><time>2026-05-02T09:19:23.861Z</time></trkpt><trkpt lat="40.0423535" lon="15.6536657"><ele>83.0</ele><time>2026-05-02T09:19:24.863Z</time></trkpt><trkpt lat="40.042429" lon="15.6537907"><ele>125.25</ele><time>2026-05-02T09:19:25.861Z</time></trkpt><trkpt lat="40.0425202" lon="15.6539121"><ele>167.5</ele><time>2026-05-02T09:19:26.869Z</time></trkpt><trkpt lat="40.0426088" lon="15.654041"><ele>209.75</ele><time>2026-05-02T09:19:27.866Z</time></trkpt><trkpt lat="40.0426904" lon="15.654174"><ele>252.0</ele><time>2026-05-02T09:19:28.864Z</time></trkpt><trkpt lat="40.0427591" lon="15.6543197"><ele>258.75</ele><time>2026-05-02T09:19:29.869Z</time></trkpt><trkpt lat="40.0428183" lon="15.6544736"><ele>265.5</ele><time>2026-05-02T09:19:30.871Z</time></trkpt><trkpt lat="40.0428752" lon="15.654621"><ele>272.25</ele><time>2026-05-02T09:19:31.864Z</time></trkpt><trkpt lat="40.0429301" lon="15.6547778"><ele>279.0</ele><time>2026-05-02T09:19:32.865Z</time></trkpt><trkpt lat="40.0429668" lon="15.6549316"><ele>279.0</ele><time>2026-05-02T09:19:33.859Z</time></trkpt><trkpt lat="40.0429977" lon="15.6550789"><ele>279.0</ele><time>2026-05-02T09:19:34.86Z</time></trkpt><trkpt lat="40.0430197" lon="15.6552261"><ele>279.0</ele><time>2026-05-02T09:19:35.866Z</time></trkpt><trkpt lat="40.0430339" lon="15.6553649"><ele>279.0</ele><time>2026-05-02T09:19:36.86Z</time></trkpt><trkpt lat="40.0430492" lon="15.6554979"><ele>279.0</ele><time>2026-05-02T09:19:37.868Z</time></trkpt><trkpt lat="40.0430635" lon="15.6556406"><ele>282.8</ele><time>2026-05-02T09:19:38.863Z</time></trkpt><trkpt lat="40.0430751" lon="15.6557844"><ele>286.59999999999997</ele><time>2026-05-02T09:19:39.859Z</time></trkpt><trkpt lat="40.0430784" lon="15.6559245"><ele>290.4</ele><time>2026-05-02T09:19:40.873Z</time></trkpt><trkpt lat="40.0430792" lon="15.6560514"><ele>294.2</ele><time>2026-05-02T09:19:41.873Z</time></trkpt><trkpt lat="40.0430828" lon="15.6561581"><ele>298.0</ele><time>2026-05-02T09:19:42.872Z</time></trkpt><trkpt lat="40.0430778" lon="15.6562625"><ele>267.6</ele><time>2026-05-02T09:19:43.862Z</time></trkpt><trkpt lat="40.0430719" lon="15.6563667"><ele>237.20000000000002</ele><time>2026-05-02T09:19:44.864Z</time></trkpt><trkpt lat="40.0430603" lon="15.6564903"><ele>206.8</ele><time>2026-05-02T09:19:45.866Z</time></trkpt><trkpt lat="40.0430438" lon="15.6566183"><ele>176.4</ele><time>2026-05-02T09:19:46.862Z</time></trkpt><trkpt lat="40.0430207" lon="15.6567408"><ele>146.0</ele><time>2026-05-02T09:19:47.861Z</time></trkpt><trkpt lat="40.0429955" lon="15.6568396"><ele>146.0</ele><time>2026-05-02T09:19:48.873Z</time></trkpt><trkpt lat="40.0429648" lon="15.6569252"><ele>146.0</ele><time>2026-05-02T09:19:49.866Z</time></trkpt><trkpt lat="40.0429317" lon="15.6570055"><ele>146.0</ele><time>2026-05-02T09:19:50.864Z</time></trkpt><trkpt lat="40.0428931" lon="15.6571026"><ele>146.0</ele><time>2026-05-02T09:19:51.87Z</time></trkpt><trkpt lat="40.0428491" lon="15.6572117"><ele>146.0</ele><time>2026-05-02T09:19:52.862Z</time></trkpt><trkpt lat="40.0427965" lon="15.6573269"><ele>146.0</ele><time>2026-05-02T09:19:53.868Z</time></trkpt><trkpt lat="40.0427405" lon="15.6574438"><ele>143.2</ele><time>2026-05-02T09:19:54.872Z</time></trkpt><trkpt lat="40.042686" lon="15.6575517"><ele>140.39999999999998</ele><time>2026-05-02T09:19:55.866Z</time></trkpt><trkpt lat="40.0426334" lon="15.6576452"><ele>137.6</ele><time>2026-05-02T09:19:56.872Z</time></trkpt><trkpt lat="40.0425811" lon="15.6577344"><ele>134.79999999999998</ele><time>2026-05-02T09:19:57.884Z</time></trkpt><trkpt lat="40.042524" lon="15.6578252"><ele>132.0</ele><time>2026-05-02T09:19:58.869Z</time></trkpt><trkpt lat="40.0424681" lon="15.6579183"><ele>132.0</ele><time>2026-05-02T09:19:59.858Z</time></trkpt><trkpt lat="40.0424067" lon="15.658016"><ele>132.0</ele><time>2026-05-02T09:20:00.863Z</time></trkpt><trkpt lat="40.04234" lon="15.6581067"><ele>132.0</ele><time>2026-05-02T09:20:01.859Z</time></trkpt><trkpt lat="40.0422733" lon="15.658191"><ele>132.0</ele><time>2026-05-02T09:20:02.87Z</time></trkpt><trkpt lat="40.0422072" lon="15.6582715"><ele>132.0</ele><time>2026-05-02T09:20:03.867Z</time></trkpt><trkpt lat="40.042143" lon="15.6583379"><ele>132.0</ele><time>2026-05-02T09:20:04.871Z</time></trkpt><trkpt lat="40.0420811" lon="15.6583848"><ele>132.0</ele><time>2026-05-02T09:20:05.867Z</time></trkpt><trkpt lat="40.042016" lon="15.6584196"><ele>132.0</ele><time>2026-05-02T09:20:06.868Z</time></trkpt><trkpt lat="40.0419493" lon="15.6584539"><ele>132.0</ele><time>2026-05-02T09:20:07.868Z</time></trkpt><trkpt lat="40.0418752" lon="15.6584927"><ele>132.0</ele><time>2026-05-02T09:20:08.871Z</time></trkpt><trkpt lat="40.0417978" lon="15.6585309"><ele>132.0</ele><time>2026-05-02T09:20:09.873Z</time></trkpt><trkpt lat="40.0417212" lon="15.658566"><ele>132.0</ele><time>2026-05-02T09:20:10.882Z</time></trkpt><trkpt lat="40.0416477" lon="15.6586014"><ele>132.0</ele><time>2026-05-02T09:20:11.87Z</time></trkpt><trkpt lat="40.0415764" lon="15.6586365"><ele>132.0</ele><time>2026-05-02T09:20:12.865Z</time></trkpt><trkpt lat="40.0414962" lon="15.658675"><ele>132.0</ele><time>2026-05-02T09:20:13.877Z</time></trkpt><trkpt lat="40.0414062" lon="15.6587219"><ele>132.0</ele><time>2026-05-02T09:20:14.864Z</time></trkpt><trkpt lat="40.0413081" lon="15.6587728"><ele>132.0</ele><time>2026-05-02T09:20:15.874Z</time></trkpt><trkpt lat="40.0412138" lon="15.658821"><ele>132.0</ele><time>2026-05-02T09:20:16.862Z</time></trkpt><trkpt lat="40.0411352" lon="15.6588639"><ele>132.0</ele><time>2026-05-02T09:20:17.852Z</time></trkpt><trkpt lat="40.0410688" lon="15.6588847"><ele>132.0</ele><time>2026-05-02T09:20:18.868Z</time></trkpt><trkpt lat="40.0409966" lon="15.6588817"><ele>132.0</ele><time>2026-05-02T09:20:19.863Z</time></trkpt><trkpt lat="40.0409251" lon="15.6588729"><ele>132.0</ele><time>2026-05-02T09:20:20.864Z</time></trkpt><trkpt lat="40.0408497" lon="15.6588788"><ele>132.0</ele><time>2026-05-02T09:20:21.872Z</time></trkpt><trkpt lat="40.0407807" lon="15.6589113"><ele>132.0</ele><time>2026-05-02T09:20:22.864Z</time></trkpt><trkpt lat="40.0407311" lon="15.6589677"><ele>132.0</ele><time>2026-05-02T09:20:23.875Z</time></trkpt><trkpt lat="40.0406872" lon="15.6590469"><ele>132.0</ele><time>2026-05-02T09:20:24.864Z</time></trkpt><trkpt lat="40.0406543" lon="15.6591469"><ele>132.0</ele><time>2026-05-02T09:20:25.86Z</time></trkpt><trkpt lat="40.0406518" lon="15.6592697"><ele>132.0</ele><time>2026-05-02T09:20:26.877Z</time></trkpt><trkpt lat="40.0406553" lon="15.6594085"><ele>132.0</ele><time>2026-05-02T09:20:27.853Z</time></trkpt><trkpt lat="40.0406792" lon="15.6596649"><ele>132.0</ele><time>2026-05-02T09:20:29.864Z</time></trkpt><trkpt lat="40.0406897" lon="15.6597738"><ele>132.0</ele><time>2026-05-02T09:20:30.858Z</time></trkpt><trkpt lat="40.0406355" lon="15.6598594"><ele>132.0</ele><time>2026-05-02T09:20:31.848Z</time></trkpt><trkpt lat="40.040725" lon="15.6600166"><ele>132.0</ele><time>2026-05-02T09:20:32.863Z</time></trkpt><trkpt lat="40.040727" lon="15.6601304"><ele>132.0</ele><time>2026-05-02T09:20:33.871Z</time></trkpt><trkpt lat="40.0407098" lon="15.660281"><ele>132.0</ele><time>2026-05-02T09:20:34.869Z</time></trkpt><trkpt lat="40.0407229" lon="15.6603926"><ele>132.0</ele><time>2026-05-02T09:20:35.871Z</time></trkpt><trkpt lat="40.0407376" lon="15.6605124"><ele>132.0</ele><time>2026-05-02T09:20:36.864Z</time></trkpt><trkpt lat="40.0407508" lon="15.6606305"><ele>132.0</ele><time>2026-05-02T09:20:37.877Z</time></trkpt><trkpt lat="40.0407767" lon="15.6607528"><ele>132.0</ele><time>2026-05-02T09:20:38.873Z</time></trkpt><trkpt lat="40.0407957" lon="15.6608448"><ele>132.0</ele><time>2026-05-02T09:20:39.872Z</time></trkpt><trkpt lat="40.0408441" lon="15.6609791"><ele>132.0</ele><time>2026-05-02T09:20:41.868Z</time></trkpt><trkpt lat="40.0408912" lon="15.6611111"><ele>132.0</ele><time>2026-05-02T09:20:43.878Z</time></trkpt><trkpt lat="40.0409258" lon="15.6611936"><ele>132.0</ele><time>2026-05-02T09:20:44.87Z</time></trkpt><trkpt lat="40.0409537" lon="15.66128"><ele>132.0</ele><time>2026-05-02T09:20:45.871Z</time></trkpt><trkpt lat="40.0409748" lon="15.661358"><ele>132.0</ele><time>2026-05-02T09:20:46.876Z</time></trkpt><trkpt lat="40.0410031" lon="15.6614368"><ele>132.0</ele><time>2026-05-02T09:20:47.865Z</time></trkpt><trkpt lat="40.0410443" lon="15.6615211"><ele>132.0</ele><time>2026-05-02T09:20:48.87Z</time></trkpt><trkpt lat="40.0410922" lon="15.6616124"><ele>132.0</ele><time>2026-05-02T09:20:49.86Z</time></trkpt><trkpt lat="40.0411344" lon="15.66171"><ele>132.0</ele><time>2026-05-02T09:20:50.872Z</time></trkpt><trkpt lat="40.0411676" lon="15.661805"><ele>132.0</ele><time>2026-05-02T09:20:51.861Z</time></trkpt><trkpt lat="40.0411884" lon="15.6618929"><ele>132.0</ele><time>2026-05-02T09:20:52.87Z</time></trkpt><trkpt lat="40.0411974" lon="15.6619799"><ele>132.0</ele><time>2026-05-02T09:20:53.867Z</time></trkpt><trkpt lat="40.0411906" lon="15.6620689"><ele>132.0</ele><time>2026-05-02T09:20:54.869Z</time></trkpt><trkpt lat="40.0411824" lon="15.6621717"><ele>132.0</ele><time>2026-05-02T09:20:55.861Z</time></trkpt><trkpt lat="40.0411872" lon="15.6622763"><ele>132.0</ele><time>2026-05-02T09:20:56.868Z</time></trkpt><trkpt lat="40.0412137" lon="15.6623651"><ele>132.0</ele><time>2026-05-02T09:20:57.861Z</time></trkpt><trkpt lat="40.0412534" lon="15.6624363"><ele>132.0</ele><time>2026-05-02T09:20:58.869Z</time></trkpt><trkpt lat="40.0412934" lon="15.6625231"><ele>132.0</ele><time>2026-05-02T09:20:59.866Z</time></trkpt><trkpt lat="40.0413385" lon="15.6626144"><ele>136.5</ele><time>2026-05-02T09:21:00.869Z</time></trkpt><trkpt lat="40.0413949" lon="15.6626948"><ele>141.0</ele><time>2026-05-02T09:21:01.874Z</time></trkpt><trkpt lat="40.0414553" lon="15.6627548"><ele>145.5</ele><time>2026-05-02T09:21:02.87Z</time></trkpt><trkpt lat="40.0415253" lon="15.6627951"><ele>150.0</ele><time>2026-05-02T09:21:03.865Z</time></trkpt><trkpt lat="40.0415955" lon="15.662837"><ele>154.5</ele><time>2026-05-02T09:21:04.873Z</time></trkpt><trkpt lat="40.0416567" lon="15.6628835"><ele>159.0</ele><time>2026-05-02T09:21:05.864Z</time></trkpt><trkpt lat="40.0417537" lon="15.6629667"><ele>159.0</ele><time>2026-05-02T09:21:07.877Z</time></trkpt><trkpt lat="40.0418387" lon="15.6630604"><ele>159.0</ele><time>2026-05-02T09:21:09.867Z</time></trkpt><trkpt lat="40.0418636" lon="15.6631449"><ele>159.0</ele><time>2026-05-02T09:21:10.871Z</time></trkpt><trkpt lat="40.0418708" lon="15.6632515"><ele>159.0</ele><time>2026-05-02T09:21:11.876Z</time></trkpt><trkpt lat="40.041879" lon="15.6633592"><ele>159.0</ele><time>2026-05-02T09:21:12.874Z</time></trkpt><trkpt lat="40.0418861" lon="15.6634516"><ele>159.0</ele><time>2026-05-02T09:21:13.875Z</time></trkpt><trkpt lat="40.0418923" lon="15.6635347"><ele>156.2</ele><time>2026-05-02T09:21:14.875Z</time></trkpt><trkpt lat="40.0418964" lon="15.6636918"><ele>153.4</ele><time>2026-05-02T09:21:16.87Z</time></trkpt><trkpt lat="40.0418944" lon="15.6638722"><ele>150.6</ele><time>2026-05-02T09:21:18.873Z</time></trkpt><trkpt lat="40.0418893" lon="15.6639891"><ele>147.8</ele><time>2026-05-02T09:21:19.867Z</time></trkpt><trkpt lat="40.0418821" lon="15.6641011"><ele>145.0</ele><time>2026-05-02T09:21:20.873Z</time></trkpt><trkpt lat="40.0418748" lon="15.6641943"><ele>145.0</ele><time>2026-05-02T09:21:21.865Z</time></trkpt><trkpt lat="40.0418692" lon="15.6643529"><ele>145.0</ele><time>2026-05-02T09:21:23.866Z</time></trkpt><trkpt lat="40.0418721" lon="15.664444"><ele>145.0</ele><time>2026-05-02T09:21:24.868Z</time></trkpt><trkpt lat="40.0418786" lon="15.6645519"><ele>145.0</ele><time>2026-05-02T09:21:25.871Z</time></trkpt><trkpt lat="40.0418896" lon="15.6646549"><ele>145.0</ele><time>2026-05-02T09:21:26.875Z</time></trkpt><trkpt lat="40.0419012" lon="15.6647502"><ele>145.0</ele><time>2026-05-02T09:21:27.857Z</time></trkpt><trkpt lat="40.0419172" lon="15.664838"><ele>144.33333333333334</ele><time>2026-05-02T09:21:28.877Z</time></trkpt><trkpt lat="40.0419412" lon="15.6649227"><ele>143.66666666666669</ele><time>2026-05-02T09:21:29.873Z</time></trkpt><trkpt lat="40.0419652" lon="15.6650105"><ele>143.0</ele><time>2026-05-02T09:21:30.865Z</time></trkpt><trkpt lat="40.0419912" lon="15.6651082"><ele>142.33333333333334</ele><time>2026-05-02T09:21:31.868Z</time></trkpt><trkpt lat="40.0420216" lon="15.6652102"><ele>141.66666666666666</ele><time>2026-05-02T09:21:32.868Z</time></trkpt><trkpt lat="40.0420467" lon="15.6653082"><ele>141.0</ele><time>2026-05-02T09:21:33.873Z</time></trkpt><trkpt lat="40.0420674" lon="15.6653939"><ele>140.0</ele><time>2026-05-02T09:21:34.869Z</time></trkpt><trkpt lat="40.0420831" lon="15.6654753"><ele>139.0</ele><time>2026-05-02T09:21:35.873Z</time></trkpt><trkpt lat="40.0420993" lon="15.6655572"><ele>138.0</ele><time>2026-05-02T09:21:36.874Z</time></trkpt><trkpt lat="40.0421124" lon="15.665641"><ele>137.0</ele><time>2026-05-02T09:21:37.87Z</time></trkpt><trkpt lat="40.0421213" lon="15.6657345"><ele>136.0</ele><time>2026-05-02T09:21:38.876Z</time></trkpt><trkpt lat="40.0421256" lon="15.6658437"><ele>135.0</ele><time>2026-05-02T09:21:39.866Z</time></trkpt><trkpt lat="40.0421218" lon="15.6659514"><ele>134.0</ele><time>2026-05-02T09:21:40.867Z</time></trkpt><trkpt lat="40.0421125" lon="15.6660495"><ele>134.66666666666666</ele><time>2026-05-02T09:21:41.872Z</time></trkpt><trkpt lat="40.0420974" lon="15.6661452"><ele>135.33333333333331</ele><time>2026-05-02T09:21:42.866Z</time></trkpt><trkpt lat="40.0420816" lon="15.6662367"><ele>136.0</ele><time>2026-05-02T09:21:43.876Z</time></trkpt><trkpt lat="40.0420652" lon="15.6663309"><ele>136.66666666666666</ele><time>2026-05-02T09:21:44.882Z</time></trkpt><trkpt lat="40.0420448" lon="15.6664298"><ele>137.33333333333334</ele><time>2026-05-02T09:21:45.874Z</time></trkpt><trkpt lat="40.0420246" lon="15.6665373"><ele>138.0</ele><time>2026-05-02T09:21:46.869Z</time></trkpt><trkpt lat="40.0419971" lon="15.6666507"><ele>138.0</ele><time>2026-05-02T09:21:47.87Z</time></trkpt><trkpt lat="40.0419632" lon="15.6667747"><ele>138.0</ele><time>2026-05-02T09:21:48.879Z</time></trkpt><trkpt lat="40.0419251" lon="15.6669012"><ele>138.0</ele><time>2026-05-02T09:21:49.864Z</time></trkpt><trkpt lat="40.0418911" lon="15.6670225"><ele>138.0</ele><time>2026-05-02T09:21:50.866Z</time></trkpt><trkpt lat="40.0418638" lon="15.6671366"><ele>138.0</ele><time>2026-05-02T09:21:51.859Z</time></trkpt><trkpt lat="40.0418384" lon="15.6672491"><ele>138.6</ele><time>2026-05-02T09:21:52.868Z</time></trkpt><trkpt lat="40.0418161" lon="15.6673632"><ele>139.20000000000002</ele><time>2026-05-02T09:21:53.869Z</time></trkpt><trkpt lat="40.0417965" lon="15.6674862"><ele>139.8</ele><time>2026-05-02T09:21:54.865Z</time></trkpt><trkpt lat="40.0417864" lon="15.6676164"><ele>140.4</ele><time>2026-05-02T09:21:55.868Z</time></trkpt><trkpt lat="40.0417677" lon="15.6677416"><ele>141.0</ele><time>2026-05-02T09:21:56.878Z</time></trkpt><trkpt lat="40.0417454" lon="15.667864"><ele>141.6</ele><time>2026-05-02T09:21:57.856Z</time></trkpt><trkpt lat="40.0417234" lon="15.6679941"><ele>142.2</ele><time>2026-05-02T09:21:58.863Z</time></trkpt><trkpt lat="40.0416969" lon="15.6681239"><ele>142.8</ele><time>2026-05-02T09:21:59.869Z</time></trkpt><trkpt lat="40.04167" lon="15.6682547"><ele>143.4</ele><time>2026-05-02T09:22:00.873Z</time></trkpt><trkpt lat="40.0416397" lon="15.6683827"><ele>144.0</ele><time>2026-05-02T09:22:01.861Z</time></trkpt><trkpt lat="40.0416071" lon="15.6684999"><ele>140.6</ele><time>2026-05-02T09:22:02.867Z</time></trkpt><trkpt lat="40.0415627" lon="15.6686154"><ele>137.2</ele><time>2026-05-02T09:22:03.858Z</time></trkpt><trkpt lat="40.0415128" lon="15.6687291"><ele>133.79999999999998</ele><time>2026-05-02T09:22:04.868Z</time></trkpt><trkpt lat="40.0414521" lon="15.6688299"><ele>130.4</ele><time>2026-05-02T09:22:05.869Z</time></trkpt><trkpt lat="40.0413879" lon="15.6689306"><ele>127.0</ele><time>2026-05-02T09:22:06.868Z</time></trkpt><trkpt lat="40.0413262" lon="15.6690309"><ele>127.0</ele><time>2026-05-02T09:22:07.882Z</time></trkpt><trkpt lat="40.04125" lon="15.6691469"><ele>127.0</ele><time>2026-05-02T09:22:08.876Z</time></trkpt><trkpt lat="40.0411647" lon="15.6692772"><ele>127.0</ele><time>2026-05-02T09:22:09.872Z</time></trkpt><trkpt lat="40.0410839" lon="15.669405"><ele>127.0</ele><time>2026-05-02T09:22:10.863Z</time></trkpt><trkpt lat="40.0410049" lon="15.6695285"><ele>131.25</ele><time>2026-05-02T09:22:11.864Z</time></trkpt><trkpt lat="40.0409257" lon="15.6696354"><ele>135.5</ele><time>2026-05-02T09:22:12.864Z</time></trkpt><trkpt lat="40.0408426" lon="15.6697406"><ele>139.75</ele><time>2026-05-02T09:22:13.859Z</time></trkpt><trkpt lat="40.0407566" lon="15.6698583"><ele>144.0</ele><time>2026-05-02T09:22:14.871Z</time></trkpt><trkpt lat="40.0406692" lon="15.6699934"><ele>136.66666666666666</ele><time>2026-05-02T09:22:15.866Z</time></trkpt><trkpt lat="40.0405636" lon="15.6701444"><ele>129.33333333333331</ele><time>2026-05-02T09:22:16.875Z</time></trkpt><trkpt lat="40.0404492" lon="15.6703183"><ele>122.0</ele><time>2026-05-02T09:22:17.881Z</time></trkpt><trkpt lat="40.0403309" lon="15.6704962"><ele>122.0</ele><time>2026-05-02T09:22:18.875Z</time></trkpt><trkpt lat="40.0402254" lon="15.6706648"><ele>122.0</ele><time>2026-05-02T09:22:19.871Z</time></trkpt><trkpt lat="40.040122" lon="15.6708242"><ele>122.0</ele><time>2026-05-02T09:22:20.867Z</time></trkpt><trkpt lat="40.0400248" lon="15.6709781"><ele>119.75</ele><time>2026-05-02T09:22:21.869Z</time></trkpt><trkpt lat="40.0399286" lon="15.6711248"><ele>117.5</ele><time>2026-05-02T09:22:22.865Z</time></trkpt><trkpt lat="40.0398325" lon="15.6712485"><ele>115.25</ele><time>2026-05-02T09:22:23.858Z</time></trkpt><trkpt lat="40.039749" lon="15.6713561"><ele>113.0</ele><time>2026-05-02T09:22:24.865Z</time></trkpt><trkpt lat="40.0396798" lon="15.6714512"><ele>113.0</ele><time>2026-05-02T09:22:25.867Z</time></trkpt><trkpt lat="40.0396132" lon="15.6715517"><ele>113.0</ele><time>2026-05-02T09:22:26.87Z</time></trkpt><trkpt lat="40.0395325" lon="15.6716471"><ele>113.0</ele><time>2026-05-02T09:22:27.865Z</time></trkpt><trkpt lat="40.0394325" lon="15.6717376"><ele>113.0</ele><time>2026-05-02T09:22:28.869Z</time></trkpt><trkpt lat="40.0393282" lon="15.6718198"><ele>112.99999999999999</ele><time>2026-05-02T09:22:29.859Z</time></trkpt><trkpt lat="40.0392413" lon="15.6718801"><ele>113.0</ele><time>2026-05-02T09:22:30.883Z</time></trkpt><trkpt lat="40.0391303" lon="15.6719393"><ele>113.0</ele><time>2026-05-02T09:22:32.867Z</time></trkpt><trkpt lat="40.0390677" lon="15.6719564"><ele>113.0</ele><time>2026-05-02T09:22:33.863Z</time></trkpt><trkpt lat="40.0389946" lon="15.6719662"><ele>112.99999999999999</ele><time>2026-05-02T09:22:34.871Z</time></trkpt><trkpt lat="40.038907" lon="15.6719711"><ele>113.0</ele><time>2026-05-02T09:22:35.858Z</time></trkpt><trkpt lat="40.0388206" lon="15.6719654"><ele>110.16666666666666</ele><time>2026-05-02T09:22:36.878Z</time></trkpt><trkpt lat="40.0387466" lon="15.6719322"><ele>107.33333333333333</ele><time>2026-05-02T09:22:37.863Z</time></trkpt><trkpt lat="40.0386844" lon="15.6718672"><ele>104.5</ele><time>2026-05-02T09:22:38.851Z</time></trkpt><trkpt lat="40.0386273" lon="15.6717951"><ele>101.66666666666666</ele><time>2026-05-02T09:22:39.86Z</time></trkpt><trkpt lat="40.0385698" lon="15.6717341"><ele>98.83333333333333</ele><time>2026-05-02T09:22:40.868Z</time></trkpt><trkpt lat="40.0385105" lon="15.6716688"><ele>96.0</ele><time>2026-05-02T09:22:41.872Z</time></trkpt><trkpt lat="40.0384418" lon="15.6716074"><ele>96.0</ele><time>2026-05-02T09:22:42.88Z</time></trkpt><trkpt lat="40.0383727" lon="15.6715857"><ele>96.0</ele><time>2026-05-02T09:22:43.868Z</time></trkpt><trkpt lat="40.038307" lon="15.6715993"><ele>96.0</ele><time>2026-05-02T09:22:44.866Z</time></trkpt><trkpt lat="40.0382512" lon="15.671638"><ele>96.0</ele><time>2026-05-02T09:22:45.874Z</time></trkpt><trkpt lat="40.0382046" lon="15.6717162"><ele>96.0</ele><time>2026-05-02T09:22:46.872Z</time></trkpt><trkpt lat="40.0381787" lon="15.6718261"><ele>96.0</ele><time>2026-05-02T09:22:47.874Z</time></trkpt><trkpt lat="40.0381635" lon="15.6719529"><ele>93.6</ele><time>2026-05-02T09:22:48.885Z</time></trkpt><trkpt lat="40.0381419" lon="15.6720671"><ele>91.19999999999999</ele><time>2026-05-02T09:22:49.864Z</time></trkpt><trkpt lat="40.0381227" lon="15.6721558"><ele>88.80000000000001</ele><time>2026-05-02T09:22:50.881Z</time></trkpt><trkpt lat="40.0380898" lon="15.6722881"><ele>86.4</ele><time>2026-05-02T09:22:52.877Z</time></trkpt><trkpt lat="40.0380634" lon="15.6724177"><ele>84.0</ele><time>2026-05-02T09:22:54.871Z</time></trkpt><trkpt lat="40.0380182" lon="15.6725647"><ele>84.0</ele><time>2026-05-02T09:22:56.858Z</time></trkpt><trkpt lat="40.0379909" lon="15.6726485"><ele>84.0</ele><time>2026-05-02T09:22:57.866Z</time></trkpt><trkpt lat="40.0379593" lon="15.6727364"><ele>84.0</ele><time>2026-05-02T09:22:58.87Z</time></trkpt><trkpt lat="40.0379243" lon="15.6728416"><ele>84.0</ele><time>2026-05-02T09:22:59.866Z</time></trkpt><trkpt lat="40.0378863" lon="15.6729487"><ele>84.0</ele><time>2026-05-02T09:23:00.87Z</time></trkpt><trkpt lat="40.0378538" lon="15.6730442"><ele>84.0</ele><time>2026-05-02T09:23:01.881Z</time></trkpt><trkpt lat="40.0378218" lon="15.6731316"><ele>84.6</ele><time>2026-05-02T09:23:02.871Z</time></trkpt><trkpt lat="40.0377859" lon="15.6732039"><ele>85.2</ele><time>2026-05-02T09:23:03.871Z</time></trkpt><trkpt lat="40.0377092" lon="15.6733235"><ele>85.8</ele><time>2026-05-02T09:23:05.867Z</time></trkpt><trkpt lat="40.0376151" lon="15.6733948"><ele>86.39999999999999</ele><time>2026-05-02T09:23:07.876Z</time></trkpt><trkpt lat="40.0375203" lon="15.6734098"><ele>87.0</ele><time>2026-05-02T09:23:09.865Z</time></trkpt><trkpt lat="40.0374407" lon="15.6733718"><ele>87.0</ele><time>2026-05-02T09:23:11.875Z</time></trkpt><trkpt lat="40.0373816" lon="15.6732948"><ele>87.0</ele><time>2026-05-02T09:23:13.871Z</time></trkpt><trkpt lat="40.0373259" lon="15.6732201"><ele>87.0</ele><time>2026-05-02T09:23:15.873Z</time></trkpt><trkpt lat="40.0372688" lon="15.6731718"><ele>87.0</ele><time>2026-05-02T09:23:17.878Z</time></trkpt><trkpt lat="40.037194" lon="15.673142"><ele>87.0</ele><time>2026-05-02T09:23:20.877Z</time></trkpt><trkpt lat="40.0371305" lon="15.6731388"><ele>87.0</ele><time>2026-05-02T09:23:58.869Z</time></trkpt><trkpt lat="40.0370642" lon="15.6731202"><ele>87.0</ele><time>2026-05-02T09:24:43.868Z</time></trkpt><trkpt lat="40.0369905" lon="15.6730984"><ele>87.0</ele><time>2026-05-02T09:24:46.874Z</time></trkpt><trkpt lat="40.0368962" lon="15.6730482"><ele>87.0</ele><time>2026-05-02T09:24:48.872Z</time></trkpt><trkpt lat="40.0367945" lon="15.6730076"><ele>87.0</ele><time>2026-05-02T09:24:50.87Z</time></trkpt><trkpt lat="40.0367181" lon="15.6731244"><ele>87.0</ele><time>2026-05-02T09:24:52.873Z</time></trkpt><trkpt lat="40.0366809" lon="15.6732122"><ele>87.0</ele><time>2026-05-02T09:24:53.87Z</time></trkpt><trkpt lat="40.0366323" lon="15.6733199"><ele>85.8</ele><time>2026-05-02T09:24:54.86Z</time></trkpt><trkpt lat="40.036584" lon="15.6734327"><ele>84.6</ele><time>2026-05-02T09:24:55.877Z</time></trkpt><trkpt lat="40.0365303" lon="15.6735355"><ele>83.39999999999999</ele><time>2026-05-02T09:24:56.869Z</time></trkpt><trkpt lat="40.0364782" lon="15.6736321"><ele>82.19999999999999</ele><time>2026-05-02T09:24:57.87Z</time></trkpt><trkpt lat="40.0364081" lon="15.6737233"><ele>81.0</ele><time>2026-05-02T09:24:58.876Z</time></trkpt><trkpt lat="40.0363339" lon="15.6738061"><ele>81.0</ele><time>2026-05-02T09:24:59.869Z</time></trkpt><trkpt lat="40.0362546" lon="15.6738889"><ele>81.0</ele><time>2026-05-02T09:25:00.876Z</time></trkpt><trkpt lat="40.0361746" lon="15.6739649"><ele>81.0</ele><time>2026-05-02T09:25:01.884Z</time></trkpt><trkpt lat="40.0361018" lon="15.6740414"><ele>81.0</ele><time>2026-05-02T09:25:02.872Z</time></trkpt><trkpt lat="40.036027" lon="15.6741155"><ele>81.0</ele><time>2026-05-02T09:25:03.862Z</time></trkpt><trkpt lat="40.0359621" lon="15.6741813"><ele>81.0</ele><time>2026-05-02T09:25:04.871Z</time></trkpt><trkpt lat="40.0358958" lon="15.6742485"><ele>81.0</ele><time>2026-05-02T09:25:05.901Z</time></trkpt><trkpt lat="40.0358462" lon="15.6743264"><ele>81.0</ele><time>2026-05-02T09:25:06.881Z</time></trkpt><trkpt lat="40.0357962" lon="15.6743945"><ele>81.0</ele><time>2026-05-02T09:25:07.864Z</time></trkpt><trkpt lat="40.035704" lon="15.6744717"><ele>81.0</ele><time>2026-05-02T09:25:09.867Z</time></trkpt><trkpt lat="40.0356013" lon="15.6744738"><ele>81.0</ele><time>2026-05-02T09:25:11.861Z</time></trkpt><trkpt lat="40.0355384" lon="15.6743686"><ele>78.6</ele><time>2026-05-02T09:25:13.871Z</time></trkpt><trkpt lat="40.0355389" lon="15.6742767"><ele>76.19999999999999</ele><time>2026-05-02T09:25:14.874Z</time></trkpt><trkpt lat="40.0355461" lon="15.6741602"><ele>73.80000000000001</ele><time>2026-05-02T09:25:15.868Z</time></trkpt><trkpt lat="40.035564" lon="15.6740239"><ele>71.4</ele><time>2026-05-02T09:25:16.881Z</time></trkpt><trkpt lat="40.0355786" lon="15.6738734"><ele>69.0</ele><time>2026-05-02T09:25:17.869Z</time></trkpt><trkpt lat="40.0355982" lon="15.6737128"><ele>68.0</ele><time>2026-05-02T09:25:18.88Z</time></trkpt><trkpt lat="40.0356152" lon="15.6735471"><ele>67.0</ele><time>2026-05-02T09:25:19.878Z</time></trkpt><trkpt lat="40.0356368" lon="15.6733732"><ele>66.0</ele><time>2026-05-02T09:25:20.882Z</time></trkpt><trkpt lat="40.035656" lon="15.6731933"><ele>65.0</ele><time>2026-05-02T09:25:21.867Z</time></trkpt><trkpt lat="40.0356748" lon="15.6730218"><ele>65.0</ele><time>2026-05-02T09:25:22.887Z</time></trkpt><trkpt lat="40.0356975" lon="15.6728578"><ele>65.0</ele><time>2026-05-02T09:25:23.867Z</time></trkpt><trkpt lat="40.0357223" lon="15.6727043"><ele>65.0</ele><time>2026-05-02T09:25:24.874Z</time></trkpt><trkpt lat="40.0357586" lon="15.6725478"><ele>65.0</ele><time>2026-05-02T09:25:25.865Z</time></trkpt><trkpt lat="40.0358133" lon="15.6723863"><ele>66.0</ele><time>2026-05-02T09:25:26.884Z</time></trkpt><trkpt lat="40.0358968" lon="15.6722351"><ele>67.0</ele><time>2026-05-02T09:25:27.871Z</time></trkpt><trkpt lat="40.0359857" lon="15.6720849"><ele>68.0</ele><time>2026-05-02T09:25:28.871Z</time></trkpt><trkpt lat="40.0360776" lon="15.6719373"><ele>69.0</ele><time>2026-05-02T09:25:29.873Z</time></trkpt><trkpt lat="40.0361651" lon="15.6717944"><ele>66.75</ele><time>2026-05-02T09:25:30.882Z</time></trkpt><trkpt lat="40.0362495" lon="15.671665"><ele>64.5</ele><time>2026-05-02T09:25:31.872Z</time></trkpt><trkpt lat="40.0363208" lon="15.6715367"><ele>62.25</ele><time>2026-05-02T09:25:32.871Z</time></trkpt><trkpt lat="40.0363829" lon="15.6714008"><ele>60.0</ele><time>2026-05-02T09:25:33.87Z</time></trkpt><trkpt lat="40.036444" lon="15.6712585"><ele>60.0</ele><time>2026-05-02T09:25:34.869Z</time></trkpt><trkpt lat="40.0365002" lon="15.6711153"><ele>60.0</ele><time>2026-05-02T09:25:35.872Z</time></trkpt><trkpt lat="40.0365424" lon="15.670973"><ele>60.0</ele><time>2026-05-02T09:25:36.873Z</time></trkpt><trkpt lat="40.0365678" lon="15.670841"><ele>60.0</ele><time>2026-05-02T09:25:37.875Z</time></trkpt><trkpt lat="40.0365671" lon="15.6707017"><ele>59.5</ele><time>2026-05-02T09:25:38.886Z</time></trkpt><trkpt lat="40.0365463" lon="15.6705587"><ele>59.0</ele><time>2026-05-02T09:25:39.869Z</time></trkpt><trkpt lat="40.0365116" lon="15.6704105"><ele>58.5</ele><time>2026-05-02T09:25:40.878Z</time></trkpt><trkpt lat="40.0364797" lon="15.6702549"><ele>58.0</ele><time>2026-05-02T09:25:41.867Z</time></trkpt><trkpt lat="40.0364514" lon="15.6701104"><ele>57.166666666666664</ele><time>2026-05-02T09:25:42.875Z</time></trkpt><trkpt lat="40.0364261" lon="15.6699921"><ele>56.33333333333333</ele><time>2026-05-02T09:25:43.872Z</time></trkpt><trkpt lat="40.0364062" lon="15.6698899"><ele>55.5</ele><time>2026-05-02T09:25:44.877Z</time></trkpt><trkpt lat="40.0363795" lon="15.6698073"><ele>54.66666666666667</ele><time>2026-05-02T09:25:45.867Z</time></trkpt><trkpt lat="40.0363234" lon="15.6697506"><ele>53.833333333333336</ele><time>2026-05-02T09:25:46.868Z</time></trkpt><trkpt lat="40.036247" lon="15.6697337"><ele>53.0</ele><time>2026-05-02T09:25:47.877Z</time></trkpt><trkpt lat="40.0361564" lon="15.6697215"><ele>53.0</ele><time>2026-05-02T09:25:48.878Z</time></trkpt><trkpt lat="40.0360628" lon="15.6697148"><ele>53.0</ele><time>2026-05-02T09:25:49.876Z</time></trkpt><trkpt lat="40.0359686" lon="15.6697227"><ele>53.0</ele><time>2026-05-02T09:25:50.867Z</time></trkpt><trkpt lat="40.0358797" lon="15.6697736"><ele>53.0</ele><time>2026-05-02T09:25:51.876Z</time></trkpt><trkpt lat="40.0357912" lon="15.6698671"><ele>53.0</ele><time>2026-05-02T09:25:52.872Z</time></trkpt><trkpt lat="40.0357074" lon="15.6699939"><ele>51.5</ele><time>2026-05-02T09:25:53.87Z</time></trkpt><trkpt lat="40.0356093" lon="15.6701226"><ele>50.0</ele><time>2026-05-02T09:25:54.876Z</time></trkpt><trkpt lat="40.035503" lon="15.6702603"><ele>48.5</ele><time>2026-05-02T09:25:55.871Z</time></trkpt><trkpt lat="40.0353944" lon="15.6704078"><ele>47.0</ele><time>2026-05-02T09:25:56.87Z</time></trkpt><trkpt lat="40.0352783" lon="15.670557"><ele>47.0</ele><time>2026-05-02T09:25:57.863Z</time></trkpt><trkpt lat="40.0351663" lon="15.6707044"><ele>47.0</ele><time>2026-05-02T09:25:58.871Z</time></trkpt><trkpt lat="40.0350545" lon="15.6708513"><ele>47.0</ele><time>2026-05-02T09:25:59.863Z</time></trkpt><trkpt lat="40.0349492" lon="15.6710046"><ele>43.0</ele><time>2026-05-02T09:26:00.878Z</time></trkpt><trkpt lat="40.0348506" lon="15.6711466"><ele>39.0</ele><time>2026-05-02T09:26:01.873Z</time></trkpt><trkpt lat="40.0347625" lon="15.671287"><ele>35.0</ele><time>2026-05-02T09:26:02.883Z</time></trkpt><trkpt lat="40.0346803" lon="15.6714375"><ele>31.0</ele><time>2026-05-02T09:26:03.87Z</time></trkpt><trkpt lat="40.0346024" lon="15.6716002"><ele>31.0</ele><time>2026-05-02T09:26:04.877Z</time></trkpt><trkpt lat="40.0345213" lon="15.6717665"><ele>31.0</ele><time>2026-05-02T09:26:05.885Z</time></trkpt><trkpt lat="40.0344427" lon="15.6719172"><ele>31.0</ele><time>2026-05-02T09:26:06.874Z</time></trkpt><trkpt lat="40.0343764" lon="15.6720584"><ele>31.0</ele><time>2026-05-02T09:26:07.87Z</time></trkpt><trkpt lat="40.0343229" lon="15.672186"><ele>33.0</ele><time>2026-05-02T09:26:08.864Z</time></trkpt><trkpt lat="40.0342729" lon="15.6723037"><ele>35.0</ele><time>2026-05-02T09:26:09.866Z</time></trkpt><trkpt lat="40.034218" lon="15.6724181"><ele>37.0</ele><time>2026-05-02T09:26:10.877Z</time></trkpt><trkpt lat="40.0341617" lon="15.6725272"><ele>39.0</ele><time>2026-05-02T09:26:11.876Z</time></trkpt><trkpt lat="40.0340922" lon="15.6726284"><ele>41.0</ele><time>2026-05-02T09:26:12.884Z</time></trkpt><trkpt lat="40.0340063" lon="15.6727351"><ele>43.5</ele><time>2026-05-02T09:26:13.864Z</time></trkpt><trkpt lat="40.0339041" lon="15.6728269"><ele>46.0</ele><time>2026-05-02T09:26:14.871Z</time></trkpt><trkpt lat="40.0337929" lon="15.6728957"><ele>48.5</ele><time>2026-05-02T09:26:15.873Z</time></trkpt><trkpt lat="40.033684" lon="15.6729602"><ele>51.0</ele><time>2026-05-02T09:26:16.877Z</time></trkpt><trkpt lat="40.0335855" lon="15.6730489"><ele>51.0</ele><time>2026-05-02T09:26:17.873Z</time></trkpt><trkpt lat="40.0334949" lon="15.6731672"><ele>51.0</ele><time>2026-05-02T09:26:18.867Z</time></trkpt><trkpt lat="40.0334257" lon="15.6733025"><ele>51.0</ele><time>2026-05-02T09:26:19.875Z</time></trkpt><trkpt lat="40.0333816" lon="15.6734185"><ele>51.0</ele><time>2026-05-02T09:26:20.864Z</time></trkpt><trkpt lat="40.0333359" lon="15.6735145"><ele>51.0</ele><time>2026-05-02T09:26:21.865Z</time></trkpt><trkpt lat="40.0332747" lon="15.6735678"><ele>52.0</ele><time>2026-05-02T09:26:22.881Z</time></trkpt><trkpt lat="40.0331895" lon="15.673586"><ele>53.0</ele><time>2026-05-02T09:26:23.868Z</time></trkpt><trkpt lat="40.033101" lon="15.67357"><ele>53.99999999999999</ele><time>2026-05-02T09:26:24.878Z</time></trkpt><trkpt lat="40.0330252" lon="15.6734904"><ele>55.0</ele><time>2026-05-02T09:26:25.873Z</time></trkpt><trkpt lat="40.0329481" lon="15.6733813"><ele>56.0</ele><time>2026-05-02T09:26:26.873Z</time></trkpt><trkpt lat="40.032898" lon="15.6732589"><ele>56.0</ele><time>2026-05-02T09:26:27.862Z</time></trkpt><trkpt lat="40.032776" lon="15.6731704"><ele>56.0</ele><time>2026-05-02T09:26:28.872Z</time></trkpt><trkpt lat="40.0326295" lon="15.6730798"><ele>56.0</ele><time>2026-05-02T09:26:29.884Z</time></trkpt><trkpt lat="40.0324676" lon="15.6729949"><ele>54.66666666666667</ele><time>2026-05-02T09:26:30.862Z</time></trkpt><trkpt lat="40.0323045" lon="15.6729211"><ele>53.33333333333333</ele><time>2026-05-02T09:26:31.86Z</time></trkpt><trkpt lat="40.0321438" lon="15.6728415"><ele>52.0</ele><time>2026-05-02T09:26:32.869Z</time></trkpt><trkpt lat="40.0320062" lon="15.6727601"><ele>52.0</ele><time>2026-05-02T09:26:33.867Z</time></trkpt><trkpt lat="40.0318907" lon="15.6726942"><ele>52.0</ele><time>2026-05-02T09:26:34.867Z</time></trkpt><trkpt lat="40.0317894" lon="15.6726561"><ele>52.0</ele><time>2026-05-02T09:26:35.859Z</time></trkpt><trkpt lat="40.031705" lon="15.6726694"><ele>52.0</ele><time>2026-05-02T09:26:36.877Z</time></trkpt><trkpt lat="40.0316317" lon="15.6727194"><ele>52.0</ele><time>2026-05-02T09:26:37.864Z</time></trkpt><trkpt lat="40.031563" lon="15.672808"><ele>51.75</ele><time>2026-05-02T09:26:38.872Z</time></trkpt><trkpt lat="40.0315103" lon="15.6729356"><ele>51.5</ele><time>2026-05-02T09:26:39.86Z</time></trkpt><trkpt lat="40.031464" lon="15.6730927"><ele>51.25</ele><time>2026-05-02T09:26:40.876Z</time></trkpt><trkpt lat="40.0314229" lon="15.6732519"><ele>51.0</ele><time>2026-05-02T09:26:41.87Z</time></trkpt><trkpt lat="40.0313877" lon="15.6734217"><ele>51.0</ele><time>2026-05-02T09:26:42.876Z</time></trkpt><trkpt lat="40.0313609" lon="15.673605"><ele>51.0</ele><time>2026-05-02T09:26:43.869Z</time></trkpt><trkpt lat="40.0313315" lon="15.6737923"><ele>51.0</ele><time>2026-05-02T09:26:44.876Z</time></trkpt><trkpt lat="40.0313015" lon="15.6739839"><ele>51.0</ele><time>2026-05-02T09:26:45.868Z</time></trkpt><trkpt lat="40.0312815" lon="15.674163"><ele>50.599999999999994</ele><time>2026-05-02T09:26:46.873Z</time></trkpt><trkpt lat="40.0312601" lon="15.6743189"><ele>50.2</ele><time>2026-05-02T09:26:47.867Z</time></trkpt><trkpt lat="40.0312485" lon="15.6744586"><ele>49.8</ele><time>2026-05-02T09:26:48.875Z</time></trkpt><trkpt lat="40.0312532" lon="15.6746024"><ele>49.400000000000006</ele><time>2026-05-02T09:26:49.873Z</time></trkpt><trkpt lat="40.0312637" lon="15.6747427"><ele>49.0</ele><time>2026-05-02T09:26:50.864Z</time></trkpt><trkpt lat="40.0312949" lon="15.6748887"><ele>47.5</ele><time>2026-05-02T09:26:51.867Z</time></trkpt><trkpt lat="40.0313528" lon="15.6750448"><ele>46.0</ele><time>2026-05-02T09:26:52.875Z</time></trkpt><trkpt lat="40.031416" lon="15.6752166"><ele>44.5</ele><time>2026-05-02T09:26:53.864Z</time></trkpt><trkpt lat="40.0314704" lon="15.6754031"><ele>43.0</ele><time>2026-05-02T09:26:54.873Z</time></trkpt><trkpt lat="40.0315306" lon="15.675601"><ele>40.0</ele><time>2026-05-02T09:26:55.884Z</time></trkpt><trkpt lat="40.0315852" lon="15.6757868"><ele>37.0</ele><time>2026-05-02T09:26:56.864Z</time></trkpt><trkpt lat="40.0316488" lon="15.6759499"><ele>34.0</ele><time>2026-05-02T09:26:57.865Z</time></trkpt><trkpt lat="40.031737" lon="15.6760967"><ele>31.0</ele><time>2026-05-02T09:26:58.866Z</time></trkpt><trkpt lat="40.0318384" lon="15.6762386"><ele>37.75</ele><time>2026-05-02T09:26:59.874Z</time></trkpt><trkpt lat="40.0319447" lon="15.6763795"><ele>44.5</ele><time>2026-05-02T09:27:00.868Z</time></trkpt><trkpt lat="40.0320415" lon="15.6765217"><ele>51.25</ele><time>2026-05-02T09:27:01.863Z</time></trkpt><trkpt lat="40.0321271" lon="15.6766468"><ele>58.0</ele><time>2026-05-02T09:27:02.875Z</time></trkpt><trkpt lat="40.0321907" lon="15.6767526"><ele>57.99999999999999</ele><time>2026-05-02T09:27:03.861Z</time></trkpt><trkpt lat="40.0322425" lon="15.6768422"><ele>58.0</ele><time>2026-05-02T09:27:04.874Z</time></trkpt><trkpt lat="40.0322852" lon="15.6769399"><ele>58.0</ele><time>2026-05-02T09:27:05.869Z</time></trkpt><trkpt lat="40.0323011" lon="15.6770446"><ele>58.0</ele><time>2026-05-02T09:27:06.868Z</time></trkpt><trkpt lat="40.0322967" lon="15.6771481"><ele>57.99999999999999</ele><time>2026-05-02T09:27:07.859Z</time></trkpt><trkpt lat="40.03227" lon="15.6772406"><ele>58.0</ele><time>2026-05-02T09:27:08.864Z</time></trkpt><trkpt lat="40.0322179" lon="15.6773214"><ele>59.83333333333333</ele><time>2026-05-02T09:27:09.876Z</time></trkpt><trkpt lat="40.0321502" lon="15.6773607"><ele>61.666666666666664</ele><time>2026-05-02T09:27:10.873Z</time></trkpt><trkpt lat="40.0320235" lon="15.6773477"><ele>63.5</ele><time>2026-05-02T09:27:12.873Z</time></trkpt><trkpt lat="40.0319572" lon="15.6773259"><ele>65.33333333333333</ele><time>2026-05-02T09:27:13.869Z</time></trkpt><trkpt lat="40.0318912" lon="15.6773159"><ele>67.16666666666667</ele><time>2026-05-02T09:27:14.873Z</time></trkpt><trkpt lat="40.0318246" lon="15.6773267"><ele>69.0</ele><time>2026-05-02T09:27:15.876Z</time></trkpt><trkpt lat="40.0317525" lon="15.6773715"><ele>69.0</ele><time>2026-05-02T09:27:16.881Z</time></trkpt><trkpt lat="40.0316737" lon="15.6774418"><ele>69.0</ele><time>2026-05-02T09:27:17.864Z</time></trkpt><trkpt lat="40.0315776" lon="15.6775199"><ele>69.0</ele><time>2026-05-02T09:27:18.886Z</time></trkpt><trkpt lat="40.0314734" lon="15.6776118"><ele>69.0</ele><time>2026-05-02T09:27:19.863Z</time></trkpt><trkpt lat="40.031362" lon="15.6777164"><ele>70.25</ele><time>2026-05-02T09:27:20.876Z</time></trkpt><trkpt lat="40.0312467" lon="15.6778293"><ele>71.5</ele><time>2026-05-02T09:27:21.869Z</time></trkpt><trkpt lat="40.0311335" lon="15.6779423"><ele>72.75</ele><time>2026-05-02T09:27:22.881Z</time></trkpt><trkpt lat="40.0310394" lon="15.6780469"><ele>74.0</ele><time>2026-05-02T09:27:23.871Z</time></trkpt><trkpt lat="40.0309693" lon="15.6781593"><ele>74.0</ele><time>2026-05-02T09:27:24.859Z</time></trkpt><trkpt lat="40.0309056" lon="15.6782889"><ele>74.0</ele><time>2026-05-02T09:27:25.872Z</time></trkpt><trkpt lat="40.0308465" lon="15.6784169"><ele>74.0</ele><time>2026-05-02T09:27:26.871Z</time></trkpt><trkpt lat="40.0307911" lon="15.6785232"><ele>74.0</ele><time>2026-05-02T09:27:27.86Z</time></trkpt><trkpt lat="40.0307348" lon="15.6786176"><ele>74.0</ele><time>2026-05-02T09:27:28.874Z</time></trkpt><trkpt lat="40.0306807" lon="15.6787268"><ele>73.8</ele><time>2026-05-02T09:27:29.869Z</time></trkpt><trkpt lat="40.0306364" lon="15.6788453"><ele>73.60000000000001</ele><time>2026-05-02T09:27:30.874Z</time></trkpt><trkpt lat="40.0306116" lon="15.6789588"><ele>73.4</ele><time>2026-05-02T09:27:31.873Z</time></trkpt><trkpt lat="40.0306048" lon="15.6790554"><ele>73.2</ele><time>2026-05-02T09:27:32.863Z</time></trkpt><trkpt lat="40.0305944" lon="15.6792135"><ele>73.0</ele><time>2026-05-02T09:27:34.87Z</time></trkpt><trkpt lat="40.0305696" lon="15.6792959"><ele>73.0</ele><time>2026-05-02T09:27:35.864Z</time></trkpt><trkpt lat="40.0304695" lon="15.6793861"><ele>73.0</ele><time>2026-05-02T09:27:37.865Z</time></trkpt><trkpt lat="40.0303513" lon="15.6794096"><ele>73.0</ele><time>2026-05-02T09:27:39.856Z</time></trkpt><trkpt lat="40.0302689" lon="15.6793928"><ele>73.0</ele><time>2026-05-02T09:27:40.869Z</time></trkpt><trkpt lat="40.0301816" lon="15.679359"><ele>73.0</ele><time>2026-05-02T09:27:41.868Z</time></trkpt><trkpt lat="40.0300969" lon="15.6793241"><ele>73.0</ele><time>2026-05-02T09:27:42.867Z</time></trkpt><trkpt lat="40.0300247" lon="15.6793016"><ele>73.0</ele><time>2026-05-02T09:27:43.874Z</time></trkpt><trkpt lat="40.0299266" lon="15.6792674"><ele>73.0</ele><time>2026-05-02T09:27:45.869Z</time></trkpt><trkpt lat="40.0298566" lon="15.6792445"><ele>73.0</ele><time>2026-05-02T09:27:47.867Z</time></trkpt><trkpt lat="40.0297651" lon="15.6792249"><ele>73.0</ele><time>2026-05-02T09:27:49.888Z</time></trkpt><trkpt lat="40.0296939" lon="15.6792441"><ele>73.0</ele><time>2026-05-02T09:27:50.869Z</time></trkpt><trkpt lat="40.0295933" lon="15.6792654"><ele>74.33333333333333</ele><time>2026-05-02T09:27:51.867Z</time></trkpt><trkpt lat="40.029484" lon="15.6793278"><ele>75.66666666666667</ele><time>2026-05-02T09:27:52.87Z</time></trkpt><trkpt lat="40.0293262" lon="15.6793384"><ele>77.0</ele><time>2026-05-02T09:27:53.867Z</time></trkpt><trkpt lat="40.0291538" lon="15.6793348"><ele>76.0</ele><time>2026-05-02T09:27:54.874Z</time></trkpt><trkpt lat="40.028966" lon="15.6793288"><ele>75.0</ele><time>2026-05-02T09:27:55.864Z</time></trkpt><trkpt lat="40.0287757" lon="15.6793321"><ele>74.0</ele><time>2026-05-02T09:27:56.872Z</time></trkpt><trkpt lat="40.0285896" lon="15.6793427"><ele>74.0</ele><time>2026-05-02T09:27:57.869Z</time></trkpt><trkpt lat="40.0284198" lon="15.6793516"><ele>74.0</ele><time>2026-05-02T09:27:58.864Z</time></trkpt><trkpt lat="40.0282649" lon="15.6793502"><ele>74.0</ele><time>2026-05-02T09:27:59.868Z</time></trkpt><trkpt lat="40.0281103" lon="15.6793614"><ele>71.4</ele><time>2026-05-02T09:28:00.864Z</time></trkpt><trkpt lat="40.0279733" lon="15.6793714"><ele>68.80000000000001</ele><time>2026-05-02T09:28:01.86Z</time></trkpt><trkpt lat="40.0278625" lon="15.6793708"><ele>66.19999999999999</ele><time>2026-05-02T09:28:02.861Z</time></trkpt><trkpt lat="40.0277771" lon="15.679381"><ele>63.599999999999994</ele><time>2026-05-02T09:28:03.869Z</time></trkpt><trkpt lat="40.0277095" lon="15.6794266"><ele>61.0</ele><time>2026-05-02T09:28:04.876Z</time></trkpt><trkpt lat="40.0276576" lon="15.6795171"><ele>65.66666666666666</ele><time>2026-05-02T09:28:05.865Z</time></trkpt><trkpt lat="40.027627" lon="15.6796347"><ele>70.33333333333333</ele><time>2026-05-02T09:28:06.871Z</time></trkpt><trkpt lat="40.0275931" lon="15.6797275"><ele>75.0</ele><time>2026-05-02T09:28:07.864Z</time></trkpt><trkpt lat="40.0275361" lon="15.6797823"><ele>79.66666666666667</ele><time>2026-05-02T09:28:08.864Z</time></trkpt><trkpt lat="40.0274506" lon="15.6798067"><ele>84.33333333333334</ele><time>2026-05-02T09:28:09.873Z</time></trkpt><trkpt lat="40.0273628" lon="15.6798012"><ele>89.0</ele><time>2026-05-02T09:28:10.867Z</time></trkpt><trkpt lat="40.0272918" lon="15.6797675"><ele>90.6</ele><time>2026-05-02T09:28:11.863Z</time></trkpt><trkpt lat="40.027235" lon="15.6797093"><ele>92.2</ele><time>2026-05-02T09:28:12.861Z</time></trkpt><trkpt lat="40.0271891" lon="15.6796016"><ele>93.8</ele><time>2026-05-02T09:28:13.865Z</time></trkpt><trkpt lat="40.0271409" lon="15.6794554"><ele>95.39999999999999</ele><time>2026-05-02T09:28:14.865Z</time></trkpt><trkpt lat="40.0270772" lon="15.679281"><ele>97.0</ele><time>2026-05-02T09:28:15.86Z</time></trkpt><trkpt lat="40.0270111" lon="15.6791014"><ele>97.0</ele><time>2026-05-02T09:28:16.874Z</time></trkpt><trkpt lat="40.0269617" lon="15.6789347"><ele>97.0</ele><time>2026-05-02T09:28:17.862Z</time></trkpt><trkpt lat="40.0269234" lon="15.6787898"><ele>97.0</ele><time>2026-05-02T09:28:18.868Z</time></trkpt><trkpt lat="40.0268744" lon="15.6786702"><ele>97.0</ele><time>2026-05-02T09:28:19.862Z</time></trkpt><trkpt lat="40.0268083" lon="15.678578"><ele>94.0</ele><time>2026-05-02T09:28:20.874Z</time></trkpt><trkpt lat="40.0267236" lon="15.6785179"><ele>91.0</ele><time>2026-05-02T09:28:21.874Z</time></trkpt><trkpt lat="40.0266026" lon="15.6784897"><ele>88.0</ele><time>2026-05-02T09:28:22.881Z</time></trkpt><trkpt lat="40.0264646" lon="15.6784583"><ele>85.0</ele><time>2026-05-02T09:28:23.865Z</time></trkpt><trkpt lat="40.0263244" lon="15.6784044"><ele>85.0</ele><time>2026-05-02T09:28:24.874Z</time></trkpt><trkpt lat="40.0261831" lon="15.678342"><ele>85.0</ele><time>2026-05-02T09:28:25.865Z</time></trkpt><trkpt lat="40.0260396" lon="15.6782862"><ele>85.0</ele><time>2026-05-02T09:28:26.874Z</time></trkpt><trkpt lat="40.0258995" lon="15.6782213"><ele>85.0</ele><time>2026-05-02T09:28:27.863Z</time></trkpt><trkpt lat="40.0257669" lon="15.6781539"><ele>87.2</ele><time>2026-05-02T09:28:28.871Z</time></trkpt><trkpt lat="40.0256518" lon="15.6780736"><ele>89.4</ele><time>2026-05-02T09:28:29.867Z</time></trkpt><trkpt lat="40.025562" lon="15.6779916"><ele>91.6</ele><time>2026-05-02T09:28:30.874Z</time></trkpt><trkpt lat="40.0254896" lon="15.6779103"><ele>93.8</ele><time>2026-05-02T09:28:31.861Z</time></trkpt><trkpt lat="40.0254106" lon="15.6778434"><ele>96.0</ele><time>2026-05-02T09:28:32.87Z</time></trkpt><trkpt lat="40.025301" lon="15.6778235"><ele>96.0</ele><time>2026-05-02T09:28:33.869Z</time></trkpt><trkpt lat="40.0251631" lon="15.6778263"><ele>96.0</ele><time>2026-05-02T09:28:34.867Z</time></trkpt><trkpt lat="40.0250167" lon="15.6778282"><ele>96.0</ele><time>2026-05-02T09:28:35.872Z</time></trkpt><trkpt lat="40.0248562" lon="15.6778528"><ele>96.0</ele><time>2026-05-02T09:28:36.868Z</time></trkpt><trkpt lat="40.0246924" lon="15.6778792"><ele>95.0</ele><time>2026-05-02T09:28:37.861Z</time></trkpt><trkpt lat="40.024529" lon="15.6778936"><ele>94.0</ele><time>2026-05-02T09:28:38.877Z</time></trkpt><trkpt lat="40.0243612" lon="15.6778851"><ele>93.0</ele><time>2026-05-02T09:28:39.87Z</time></trkpt><trkpt lat="40.0241942" lon="15.6778657"><ele>92.0</ele><time>2026-05-02T09:28:40.866Z</time></trkpt><trkpt lat="40.0240199" lon="15.6778656"><ele>91.0</ele><time>2026-05-02T09:28:41.866Z</time></trkpt><trkpt lat="40.0238433" lon="15.6778919"><ele>90.0</ele><time>2026-05-02T09:28:42.867Z</time></trkpt><trkpt lat="40.0236569" lon="15.6779372"><ele>90.0</ele><time>2026-05-02T09:28:43.876Z</time></trkpt><trkpt lat="40.0234724" lon="15.6779665"><ele>90.0</ele><time>2026-05-02T09:28:44.875Z</time></trkpt><trkpt lat="40.0232876" lon="15.6779714"><ele>90.0</ele><time>2026-05-02T09:28:45.862Z</time></trkpt><trkpt lat="40.0231164" lon="15.6779363"><ele>90.0</ele><time>2026-05-02T09:28:46.872Z</time></trkpt><trkpt lat="40.0229489" lon="15.6778818"><ele>90.0</ele><time>2026-05-02T09:28:47.861Z</time></trkpt><trkpt lat="40.0227951" lon="15.6778229"><ele>90.0</ele><time>2026-05-02T09:28:48.88Z</time></trkpt><trkpt lat="40.0226603" lon="15.6777806"><ele>89.75</ele><time>2026-05-02T09:28:49.866Z</time></trkpt><trkpt lat="40.0225284" lon="15.6777622"><ele>89.5</ele><time>2026-05-02T09:28:50.869Z</time></trkpt><trkpt lat="40.0223848" lon="15.6777799"><ele>89.25</ele><time>2026-05-02T09:28:51.862Z</time></trkpt><trkpt lat="40.0222312" lon="15.6778181"><ele>89.0</ele><time>2026-05-02T09:28:52.874Z</time></trkpt><trkpt lat="40.0220794" lon="15.6778391"><ele>89.0</ele><time>2026-05-02T09:28:53.871Z</time></trkpt><trkpt lat="40.0219391" lon="15.6778515"><ele>89.0</ele><time>2026-05-02T09:28:54.871Z</time></trkpt><trkpt lat="40.0218186" lon="15.6778478"><ele>89.0</ele><time>2026-05-02T09:28:55.863Z</time></trkpt><trkpt lat="40.0217073" lon="15.6778259"><ele>89.0</ele><time>2026-05-02T09:28:56.864Z</time></trkpt><trkpt lat="40.0216065" lon="15.6777829"><ele>89.2</ele><time>2026-05-02T09:28:57.869Z</time></trkpt><trkpt lat="40.0215321" lon="15.6777268"><ele>89.4</ele><time>2026-05-02T09:28:58.864Z</time></trkpt><trkpt lat="40.021474" lon="15.6776639"><ele>89.6</ele><time>2026-05-02T09:28:59.863Z</time></trkpt><trkpt lat="40.0214208" lon="15.6775634"><ele>89.8</ele><time>2026-05-02T09:29:00.872Z</time></trkpt><trkpt lat="40.0213527" lon="15.6774443"><ele>90.0</ele><time>2026-05-02T09:29:01.865Z</time></trkpt><trkpt lat="40.0212473" lon="15.6773471"><ele>90.0</ele><time>2026-05-02T09:29:02.881Z</time></trkpt><trkpt lat="40.0211196" lon="15.6772598"><ele>90.0</ele><time>2026-05-02T09:29:03.873Z</time></trkpt><trkpt lat="40.0209856" lon="15.67716"><ele>90.0</ele><time>2026-05-02T09:29:04.865Z</time></trkpt><trkpt lat="40.0208517" lon="15.6770522"><ele>89.2</ele><time>2026-05-02T09:29:05.863Z</time></trkpt><trkpt lat="40.0207367" lon="15.6769571"><ele>88.4</ele><time>2026-05-02T09:29:06.866Z</time></trkpt><trkpt lat="40.0206443" lon="15.6768748"><ele>87.6</ele><time>2026-05-02T09:29:07.868Z</time></trkpt><trkpt lat="40.0205648" lon="15.6768187"><ele>86.8</ele><time>2026-05-02T09:29:08.864Z</time></trkpt><trkpt lat="40.020491" lon="15.676781"><ele>86.0</ele><time>2026-05-02T09:29:09.874Z</time></trkpt><trkpt lat="40.0204197" lon="15.6767665"><ele>86.0</ele><time>2026-05-02T09:29:10.872Z</time></trkpt><trkpt lat="40.0203431" lon="15.676791"><ele>86.0</ele><time>2026-05-02T09:29:11.866Z</time></trkpt><trkpt lat="40.0202547" lon="15.6768748"><ele>86.0</ele><time>2026-05-02T09:29:12.888Z</time></trkpt><trkpt lat="40.0201538" lon="15.6769813"><ele>86.0</ele><time>2026-05-02T09:29:13.866Z</time></trkpt><trkpt lat="40.0200434" lon="15.6770986"><ele>73.66666666666667</ele><time>2026-05-02T09:29:14.886Z</time></trkpt><trkpt lat="40.0199182" lon="15.677222"><ele>61.33333333333333</ele><time>2026-05-02T09:29:15.853Z</time></trkpt><trkpt lat="40.0197883" lon="15.6773526"><ele>49.0</ele><time>2026-05-02T09:29:16.872Z</time></trkpt><trkpt lat="40.0196518" lon="15.6774832"><ele>49.0</ele><time>2026-05-02T09:29:17.864Z</time></trkpt><trkpt lat="40.0195179" lon="15.6776096"><ele>49.0</ele><time>2026-05-02T09:29:18.877Z</time></trkpt><trkpt lat="40.0193914" lon="15.6777255"><ele>49.0</ele><time>2026-05-02T09:29:19.876Z</time></trkpt><trkpt lat="40.0192706" lon="15.6778365"><ele>53.25</ele><time>2026-05-02T09:29:20.867Z</time></trkpt><trkpt lat="40.0191442" lon="15.6779401"><ele>57.5</ele><time>2026-05-02T09:29:21.864Z</time></trkpt><trkpt lat="40.0190121" lon="15.6780271"><ele>61.75</ele><time>2026-05-02T09:29:22.871Z</time></trkpt><trkpt lat="40.018885" lon="15.6780962"><ele>66.0</ele><time>2026-05-02T09:29:23.875Z</time></trkpt><trkpt lat="40.0187621" lon="15.6781389"><ele>66.0</ele><time>2026-05-02T09:29:24.874Z</time></trkpt><trkpt lat="40.0186325" lon="15.678148"><ele>66.0</ele><time>2026-05-02T09:29:25.873Z</time></trkpt><trkpt lat="40.0185116" lon="15.6781227"><ele>66.0</ele><time>2026-05-02T09:29:26.877Z</time></trkpt><trkpt lat="40.0184098" lon="15.6780885"><ele>66.0</ele><time>2026-05-02T09:29:27.874Z</time></trkpt><trkpt lat="40.0183245" lon="15.678081"><ele>66.0</ele><time>2026-05-02T09:29:28.865Z</time></trkpt><trkpt lat="40.0182327" lon="15.6781168"><ele>64.75</ele><time>2026-05-02T09:29:29.865Z</time></trkpt><trkpt lat="40.0181225" lon="15.678202"><ele>63.5</ele><time>2026-05-02T09:29:30.865Z</time></trkpt><trkpt lat="40.0180142" lon="15.6782931"><ele>62.25</ele><time>2026-05-02T09:29:31.873Z</time></trkpt><trkpt lat="40.0178865" lon="15.6783604"><ele>61.0</ele><time>2026-05-02T09:29:32.873Z</time></trkpt><trkpt lat="40.0177512" lon="15.6783998"><ele>61.0</ele><time>2026-05-02T09:29:33.863Z</time></trkpt><trkpt lat="40.0176043" lon="15.6784105"><ele>61.0</ele><time>2026-05-02T09:29:34.862Z</time></trkpt><trkpt lat="40.017454" lon="15.6783967"><ele>61.0</ele><time>2026-05-02T09:29:35.875Z</time></trkpt><trkpt lat="40.0173109" lon="15.6783692"><ele>61.0</ele><time>2026-05-02T09:29:36.871Z</time></trkpt><trkpt lat="40.017176" lon="15.6783452"><ele>61.0</ele><time>2026-05-02T09:29:37.882Z</time></trkpt><trkpt lat="40.017051" lon="15.6783101"><ele>61.0</ele><time>2026-05-02T09:29:38.872Z</time></trkpt><trkpt lat="40.0169228" lon="15.6782589"><ele>61.0</ele><time>2026-05-02T09:29:39.864Z</time></trkpt><trkpt lat="40.0167854" lon="15.6782032"><ele>61.0</ele><time>2026-05-02T09:29:40.867Z</time></trkpt><trkpt lat="40.0166408" lon="15.6781548"><ele>59.25</ele><time>2026-05-02T09:29:41.88Z</time></trkpt><trkpt lat="40.0165075" lon="15.6781087"><ele>57.5</ele><time>2026-05-02T09:29:42.872Z</time></trkpt><trkpt lat="40.0163893" lon="15.6780667"><ele>55.75</ele><time>2026-05-02T09:29:43.869Z</time></trkpt><trkpt lat="40.0162818" lon="15.6780304"><ele>54.0</ele><time>2026-05-02T09:29:44.868Z</time></trkpt><trkpt lat="40.016184" lon="15.6780192"><ele>54.0</ele><time>2026-05-02T09:29:45.875Z</time></trkpt><trkpt lat="40.0160954" lon="15.6780385"><ele>54.0</ele><time>2026-05-02T09:29:46.864Z</time></trkpt><trkpt lat="40.0160003" lon="15.6780991"><ele>54.0</ele><time>2026-05-02T09:29:47.869Z</time></trkpt><trkpt lat="40.0159007" lon="15.678198"><ele>54.0</ele><time>2026-05-02T09:29:48.873Z</time></trkpt><trkpt lat="40.0157969" lon="15.6783129"><ele>55.66666666666667</ele><time>2026-05-02T09:29:49.878Z</time></trkpt><trkpt lat="40.0156849" lon="15.6784413"><ele>57.333333333333336</ele><time>2026-05-02T09:29:50.87Z</time></trkpt><trkpt lat="40.0155693" lon="15.6785816"><ele>59.0</ele><time>2026-05-02T09:29:51.867Z</time></trkpt><trkpt lat="40.0154471" lon="15.6787176"><ele>59.0</ele><time>2026-05-02T09:29:52.877Z</time></trkpt><trkpt lat="40.0153259" lon="15.6788425"><ele>59.0</ele><time>2026-05-02T09:29:53.869Z</time></trkpt><trkpt lat="40.0152181" lon="15.6789634"><ele>59.0</ele><time>2026-05-02T09:29:54.86Z</time></trkpt><trkpt lat="40.0151235" lon="15.6790694"><ele>59.0</ele><time>2026-05-02T09:29:55.872Z</time></trkpt><trkpt lat="40.0150259" lon="15.6791548"><ele>59.5</ele><time>2026-05-02T09:29:56.878Z</time></trkpt><trkpt lat="40.0149133" lon="15.6792067"><ele>60.0</ele><time>2026-05-02T09:29:57.865Z</time></trkpt><trkpt lat="40.0147909" lon="15.6792396"><ele>60.5</ele><time>2026-05-02T09:29:58.87Z</time></trkpt><trkpt lat="40.0146714" lon="15.6792418"><ele>61.0</ele><time>2026-05-02T09:29:59.865Z</time></trkpt><trkpt lat="40.0145556" lon="15.6792165"><ele>61.0</ele><time>2026-05-02T09:30:00.872Z</time></trkpt><trkpt lat="40.0144377" lon="15.6791624"><ele>61.0</ele><time>2026-05-02T09:30:01.875Z</time></trkpt><trkpt lat="40.0143182" lon="15.679107"><ele>61.0</ele><time>2026-05-02T09:30:02.878Z</time></trkpt><trkpt lat="40.0141894" lon="15.6790751"><ele>61.0</ele><time>2026-05-02T09:30:03.86Z</time></trkpt><trkpt lat="40.0140482" lon="15.6790758"><ele>61.0</ele><time>2026-05-02T09:30:04.867Z</time></trkpt><trkpt lat="40.0138985" lon="15.6791001"><ele>61.0</ele><time>2026-05-02T09:30:05.863Z</time></trkpt><trkpt lat="40.013741" lon="15.6791262"><ele>61.0</ele><time>2026-05-02T09:30:06.872Z</time></trkpt><trkpt lat="40.0135786" lon="15.6791524"><ele>61.0</ele><time>2026-05-02T09:30:07.862Z</time></trkpt><trkpt lat="40.0134191" lon="15.6791685"><ele>61.0</ele><time>2026-05-02T09:30:08.879Z</time></trkpt><trkpt lat="40.013272" lon="15.6791845"><ele>61.0</ele><time>2026-05-02T09:30:09.872Z</time></trkpt><trkpt lat="40.0131357" lon="15.6792051"><ele>61.0</ele><time>2026-05-02T09:30:10.871Z</time></trkpt><trkpt lat="40.0130087" lon="15.6792354"><ele>59.25</ele><time>2026-05-02T09:30:11.866Z</time></trkpt><trkpt lat="40.0128734" lon="15.679272"><ele>57.5</ele><time>2026-05-02T09:30:12.886Z</time></trkpt><trkpt lat="40.0127361" lon="15.6793244"><ele>55.75</ele><time>2026-05-02T09:30:13.87Z</time></trkpt><trkpt lat="40.0126106" lon="15.6793987"><ele>54.0</ele><time>2026-05-02T09:30:14.87Z</time></trkpt><trkpt lat="40.0125091" lon="15.6794984"><ele>56.2</ele><time>2026-05-02T09:30:15.859Z</time></trkpt><trkpt lat="40.0124302" lon="15.6795905"><ele>58.400000000000006</ele><time>2026-05-02T09:30:16.867Z</time></trkpt><trkpt lat="40.0123575" lon="15.6796651"><ele>60.6</ele><time>2026-05-02T09:30:17.865Z</time></trkpt><trkpt lat="40.012282" lon="15.6797291"><ele>62.8</ele><time>2026-05-02T09:30:18.875Z</time></trkpt><trkpt lat="40.0121974" lon="15.679777"><ele>65.0</ele><time>2026-05-02T09:30:19.867Z</time></trkpt><trkpt lat="40.012101" lon="15.6798165"><ele>65.0</ele><time>2026-05-02T09:30:20.873Z</time></trkpt><trkpt lat="40.0119943" lon="15.679848"><ele>65.0</ele><time>2026-05-02T09:30:21.863Z</time></trkpt><trkpt lat="40.0118787" lon="15.6798669"><ele>65.0</ele><time>2026-05-02T09:30:22.879Z</time></trkpt><trkpt lat="40.0117589" lon="15.679863"><ele>65.0</ele><time>2026-05-02T09:30:23.87Z</time></trkpt><trkpt lat="40.0116469" lon="15.6798716"><ele>64.4</ele><time>2026-05-02T09:30:24.872Z</time></trkpt><trkpt lat="40.0115456" lon="15.6798835"><ele>63.8</ele><time>2026-05-02T09:30:25.862Z</time></trkpt><trkpt lat="40.0114451" lon="15.6798973"><ele>63.2</ele><time>2026-05-02T09:30:26.878Z</time></trkpt><trkpt lat="40.0113339" lon="15.679912"><ele>62.6</ele><time>2026-05-02T09:30:27.862Z</time></trkpt><trkpt lat="40.0112151" lon="15.6799191"><ele>62.0</ele><time>2026-05-02T09:30:28.874Z</time></trkpt><trkpt lat="40.0110915" lon="15.6799263"><ele>62.0</ele><time>2026-05-02T09:30:29.868Z</time></trkpt><trkpt lat="40.0109663" lon="15.679934"><ele>62.0</ele><time>2026-05-02T09:30:30.856Z</time></trkpt><trkpt lat="40.0108451" lon="15.6799492"><ele>62.0</ele><time>2026-05-02T09:30:31.874Z</time></trkpt><trkpt lat="40.0107423" lon="15.6799867"><ele>62.0</ele><time>2026-05-02T09:30:32.881Z</time></trkpt><trkpt lat="40.0106508" lon="15.6800405"><ele>63.8</ele><time>2026-05-02T09:30:33.875Z</time></trkpt><trkpt lat="40.0105742" lon="15.680105"><ele>65.6</ele><time>2026-05-02T09:30:34.871Z</time></trkpt><trkpt lat="40.0105117" lon="15.6801838"><ele>67.39999999999999</ele><time>2026-05-02T09:30:35.872Z</time></trkpt><trkpt lat="40.0104592" lon="15.6802854"><ele>69.2</ele><time>2026-05-02T09:30:36.878Z</time></trkpt><trkpt lat="40.0104151" lon="15.6803993"><ele>71.0</ele><time>2026-05-02T09:30:37.865Z</time></trkpt><trkpt lat="40.0103791" lon="15.6804979"><ele>71.0</ele><time>2026-05-02T09:30:38.875Z</time></trkpt><trkpt lat="40.0103406" lon="15.6805804"><ele>71.0</ele><time>2026-05-02T09:30:39.865Z</time></trkpt><trkpt lat="40.0102838" lon="15.6806593"><ele>71.0</ele><time>2026-05-02T09:30:40.865Z</time></trkpt><trkpt lat="40.0102091" lon="15.6807091"><ele>71.0</ele><time>2026-05-02T09:30:41.871Z</time></trkpt><trkpt lat="40.010123" lon="15.6807572"><ele>71.0</ele><time>2026-05-02T09:30:42.868Z</time></trkpt><trkpt lat="40.0100342" lon="15.6807813"><ele>71.0</ele><time>2026-05-02T09:30:43.872Z</time></trkpt><trkpt lat="40.0099356" lon="15.680781"><ele>68.2</ele><time>2026-05-02T09:30:44.864Z</time></trkpt><trkpt lat="40.009837" lon="15.6807694"><ele>65.39999999999999</ele><time>2026-05-02T09:30:45.869Z</time></trkpt><trkpt lat="40.0097459" lon="15.6807743"><ele>62.6</ele><time>2026-05-02T09:30:46.868Z</time></trkpt><trkpt lat="40.0096566" lon="15.6808001"><ele>59.8</ele><time>2026-05-02T09:30:47.872Z</time></trkpt><trkpt lat="40.0095648" lon="15.6808344"><ele>57.0</ele><time>2026-05-02T09:30:48.859Z</time></trkpt><trkpt lat="40.0094766" lon="15.6808838"><ele>57.0</ele><time>2026-05-02T09:30:49.866Z</time></trkpt><trkpt lat="40.0094011" lon="15.6809381"><ele>57.0</ele><time>2026-05-02T09:30:50.883Z</time></trkpt><trkpt lat="40.009343" lon="15.6809823"><ele>57.0</ele><time>2026-05-02T09:30:51.861Z</time></trkpt><trkpt lat="40.0092468" lon="15.6810652"><ele>57.0</ele><time>2026-05-02T09:30:53.869Z</time></trkpt><trkpt lat="40.0091799" lon="15.6811341"><ele>57.0</ele><time>2026-05-02T09:30:55.877Z</time></trkpt><trkpt lat="40.0091233" lon="15.6811816"><ele>57.0</ele><time>2026-05-02T09:30:57.87Z</time></trkpt><trkpt lat="40.0090588" lon="15.6812355"><ele>63.0</ele><time>2026-05-02T09:30:59.861Z</time></trkpt><trkpt lat="40.0089847" lon="15.6812826"><ele>69.0</ele><time>2026-05-02T09:31:01.867Z</time></trkpt><trkpt lat="40.0088769" lon="15.6813432"><ele>75.0</ele><time>2026-05-02T09:31:03.867Z</time></trkpt><trkpt lat="40.008772" lon="15.6814013"><ele>81.0</ele><time>2026-05-02T09:31:05.871Z</time></trkpt><trkpt lat="40.0086767" lon="15.6814598"><ele>87.0</ele><time>2026-05-02T09:31:07.86Z</time></trkpt><trkpt lat="40.0086024" lon="15.6815115"><ele>87.0</ele><time>2026-05-02T09:31:09.875Z</time></trkpt><trkpt lat="40.0085428" lon="15.6815472"><ele>87.0</ele><time>2026-05-02T09:31:12.86Z</time></trkpt><trkpt lat="40.0085118" lon="15.6816332"><ele>87.0</ele><time>2026-05-02T09:32:22.86Z</time></trkpt><trkpt lat="40.0084094" lon="15.6817485"><ele>87.0</ele><time>2026-05-02T09:32:24.87Z</time></trkpt><trkpt lat="40.0083369" lon="15.6818255"><ele>87.0</ele><time>2026-05-02T09:32:25.871Z</time></trkpt><trkpt lat="40.0082724" lon="15.6819254"><ele>93.33333333333334</ele><time>2026-05-02T09:32:26.859Z</time></trkpt><trkpt lat="40.0081248" lon="15.6821391"><ele>99.66666666666667</ele><time>2026-05-02T09:32:28.854Z</time></trkpt><trkpt lat="40.0080441" lon="15.6822568"><ele>106.0</ele><time>2026-05-02T09:32:29.852Z</time></trkpt><trkpt lat="40.0079673" lon="15.6823948"><ele>106.0</ele><time>2026-05-02T09:32:30.848Z</time></trkpt><trkpt lat="40.0078812" lon="15.682533"><ele>106.0</ele><time>2026-05-02T09:32:31.837Z</time></trkpt><trkpt lat="40.0077898" lon="15.682677"><ele>106.0</ele><time>2026-05-02T09:32:32.842Z</time></trkpt><trkpt lat="40.0077005" lon="15.6828095"><ele>106.0</ele><time>2026-05-02T09:32:33.855Z</time></trkpt><trkpt lat="40.0076156" lon="15.6829396"><ele>103.0</ele><time>2026-05-02T09:32:34.844Z</time></trkpt><trkpt lat="40.0075486" lon="15.6830655"><ele>100.0</ele><time>2026-05-02T09:32:35.852Z</time></trkpt><trkpt lat="40.007491" lon="15.6831648"><ele>97.0</ele><time>2026-05-02T09:32:36.845Z</time></trkpt><trkpt lat="40.0074493" lon="15.6832366"><ele>94.0</ele><time>2026-05-02T09:32:37.844Z</time></trkpt><trkpt lat="40.0064953" lon="15.6839387"><ele>96.25</ele><time>2026-05-02T09:32:44.863Z</time></trkpt><trkpt lat="40.0064079" lon="15.6840657"><ele>98.5</ele><time>2026-05-02T09:32:45.871Z</time></trkpt><trkpt lat="40.0063133" lon="15.6841876"><ele>100.75</ele><time>2026-05-02T09:32:46.866Z</time></trkpt><trkpt lat="40.0062126" lon="15.6843188"><ele>103.0</ele><time>2026-05-02T09:32:47.875Z</time></trkpt><trkpt lat="40.0061074" lon="15.6844625"><ele>103.0</ele><time>2026-05-02T09:32:48.873Z</time></trkpt><trkpt lat="40.0060111" lon="15.6846033"><ele>103.0</ele><time>2026-05-02T09:32:49.871Z</time></trkpt><trkpt lat="40.0059179" lon="15.6847428"><ele>103.0</ele><time>2026-05-02T09:32:50.863Z</time></trkpt><trkpt lat="40.005817" lon="15.6848713"><ele>103.0</ele><time>2026-05-02T09:32:51.864Z</time></trkpt><trkpt lat="40.005723" lon="15.6849868"><ele>102.75</ele><time>2026-05-02T09:32:52.849Z</time></trkpt><trkpt lat="40.0056369" lon="15.685108"><ele>102.5</ele><time>2026-05-02T09:32:53.856Z</time></trkpt><trkpt lat="40.0055586" lon="15.6852289"><ele>102.25</ele><time>2026-05-02T09:32:54.871Z</time></trkpt><trkpt lat="40.0054785" lon="15.6853409"><ele>102.0</ele><time>2026-05-02T09:32:55.86Z</time></trkpt><trkpt lat="40.0053981" lon="15.6854499"><ele>102.0</ele><time>2026-05-02T09:32:56.881Z</time></trkpt><trkpt lat="40.0053168" lon="15.6855514"><ele>102.0</ele><time>2026-05-02T09:32:57.862Z</time></trkpt><trkpt lat="40.0052325" lon="15.6856383"><ele>102.0</ele><time>2026-05-02T09:32:58.865Z</time></trkpt><trkpt lat="40.0051523" lon="15.6857133"><ele>102.0</ele><time>2026-05-02T09:32:59.863Z</time></trkpt><trkpt lat="40.0050776" lon="15.6857827"><ele>102.0</ele><time>2026-05-02T09:33:00.875Z</time></trkpt><trkpt lat="40.0049975" lon="15.6858539"><ele>101.66666666666667</ele><time>2026-05-02T09:33:01.862Z</time></trkpt><trkpt lat="40.0049214" lon="15.6859233"><ele>101.33333333333334</ele><time>2026-05-02T09:33:02.863Z</time></trkpt><trkpt lat="40.0048518" lon="15.6859907"><ele>101.0</ele><time>2026-05-02T09:33:03.863Z</time></trkpt><trkpt lat="40.0047925" lon="15.6860516"><ele>100.66666666666667</ele><time>2026-05-02T09:33:04.871Z</time></trkpt><trkpt lat="40.0047313" lon="15.6861101"><ele>100.33333333333334</ele><time>2026-05-02T09:33:05.867Z</time></trkpt><trkpt lat="40.0046676" lon="15.6861739"><ele>100.0</ele><time>2026-05-02T09:33:06.867Z</time></trkpt><trkpt lat="40.0046006" lon="15.6862322"><ele>100.00000000000001</ele><time>2026-05-02T09:33:07.864Z</time></trkpt><trkpt lat="40.0045417" lon="15.6862865"><ele>100.0</ele><time>2026-05-02T09:33:08.872Z</time></trkpt><trkpt lat="40.0044896" lon="15.6863399"><ele>100.0</ele><time>2026-05-02T09:33:09.867Z</time></trkpt><trkpt lat="40.0044389" lon="15.6863924"><ele>100.0</ele><time>2026-05-02T09:33:10.88Z</time></trkpt><trkpt lat="40.0043404" lon="15.6864875"><ele>100.00000000000001</ele><time>2026-05-02T09:33:12.872Z</time></trkpt><trkpt lat="40.0042824" lon="15.6865598"><ele>100.0</ele><time>2026-05-02T09:33:13.864Z</time></trkpt><trkpt lat="40.0042175" lon="15.6866491"><ele>94.8</ele><time>2026-05-02T09:33:14.871Z</time></trkpt><trkpt lat="40.0041488" lon="15.6867408"><ele>89.6</ele><time>2026-05-02T09:33:15.868Z</time></trkpt><trkpt lat="40.0040816" lon="15.68685"><ele>84.4</ele><time>2026-05-02T09:33:16.873Z</time></trkpt><trkpt lat="40.0040213" lon="15.6869704"><ele>79.2</ele><time>2026-05-02T09:33:17.852Z</time></trkpt><trkpt lat="40.0039538" lon="15.6870935"><ele>74.0</ele><time>2026-05-02T09:33:18.859Z</time></trkpt><trkpt lat="40.0038922" lon="15.6872127"><ele>74.0</ele><time>2026-05-02T09:33:19.877Z</time></trkpt><trkpt lat="40.0038422" lon="15.6873422"><ele>74.0</ele><time>2026-05-02T09:33:20.869Z</time></trkpt><trkpt lat="40.0037994" lon="15.6874876"><ele>74.0</ele><time>2026-05-02T09:33:21.876Z</time></trkpt><trkpt lat="40.0037647" lon="15.6876567"><ele>74.0</ele><time>2026-05-02T09:33:22.873Z</time></trkpt><trkpt lat="40.0037256" lon="15.6878466"><ele>78.0</ele><time>2026-05-02T09:33:23.871Z</time></trkpt><trkpt lat="40.0036757" lon="15.6880355"><ele>82.0</ele><time>2026-05-02T09:33:24.88Z</time></trkpt><trkpt lat="40.0036191" lon="15.6882281"><ele>86.0</ele><time>2026-05-02T09:33:25.869Z</time></trkpt><trkpt lat="40.0035662" lon="15.6884272"><ele>91.0</ele><time>2026-05-02T09:33:26.876Z</time></trkpt><trkpt lat="40.0035079" lon="15.6886191"><ele>96.0</ele><time>2026-05-02T09:33:27.859Z</time></trkpt><trkpt lat="40.0034537" lon="15.6888194"><ele>101.0</ele><time>2026-05-02T09:33:28.866Z</time></trkpt><trkpt lat="40.0033959" lon="15.6890083"><ele>101.0</ele><time>2026-05-02T09:33:29.866Z</time></trkpt><trkpt lat="40.0033461" lon="15.6891941"><ele>101.0</ele><time>2026-05-02T09:33:30.866Z</time></trkpt><trkpt lat="40.0032929" lon="15.6893816"><ele>101.0</ele><time>2026-05-02T09:33:31.871Z</time></trkpt><trkpt lat="40.0032441" lon="15.6895548"><ele>101.0</ele><time>2026-05-02T09:33:32.868Z</time></trkpt><trkpt lat="40.0031923" lon="15.6897224"><ele>101.25</ele><time>2026-05-02T09:33:33.864Z</time></trkpt><trkpt lat="40.0031324" lon="15.6898786"><ele>101.5</ele><time>2026-05-02T09:33:34.869Z</time></trkpt><trkpt lat="40.0030574" lon="15.6900183"><ele>101.75</ele><time>2026-05-02T09:33:35.866Z</time></trkpt><trkpt lat="40.0029623" lon="15.6901465"><ele>102.0</ele><time>2026-05-02T09:33:36.877Z</time></trkpt><trkpt lat="40.0028623" lon="15.690269"><ele>102.0</ele><time>2026-05-02T09:33:37.87Z</time></trkpt><trkpt lat="40.0027581" lon="15.6903895"><ele>102.0</ele><time>2026-05-02T09:33:38.868Z</time></trkpt><trkpt lat="40.0026556" lon="15.6905227"><ele>102.0</ele><time>2026-05-02T09:33:39.875Z</time></trkpt><trkpt lat="40.0025538" lon="15.6906637"><ele>102.0</ele><time>2026-05-02T09:33:40.863Z</time></trkpt><trkpt lat="40.0024476" lon="15.6908056"><ele>99.33333333333333</ele><time>2026-05-02T09:33:41.862Z</time></trkpt><trkpt lat="40.0023425" lon="15.6909451"><ele>96.66666666666666</ele><time>2026-05-02T09:33:42.874Z</time></trkpt><trkpt lat="40.0022434" lon="15.6910972"><ele>94.0</ele><time>2026-05-02T09:33:43.871Z</time></trkpt><trkpt lat="40.002149" lon="15.6912602"><ele>94.0</ele><time>2026-05-02T09:33:44.871Z</time></trkpt><trkpt lat="40.0020557" lon="15.6914315"><ele>94.0</ele><time>2026-05-02T09:33:45.866Z</time></trkpt><trkpt lat="40.0019726" lon="15.6916075"><ele>94.0</ele><time>2026-05-02T09:33:46.872Z</time></trkpt><trkpt lat="40.0018925" lon="15.691792"><ele>96.66666666666666</ele><time>2026-05-02T09:33:47.871Z</time></trkpt><trkpt lat="40.0018187" lon="15.6919884"><ele>99.33333333333333</ele><time>2026-05-02T09:33:48.874Z</time></trkpt><trkpt lat="40.001748" lon="15.6921903"><ele>102.0</ele><time>2026-05-02T09:33:49.883Z</time></trkpt><trkpt lat="40.001682" lon="15.6923949"><ele>94.33333333333333</ele><time>2026-05-02T09:33:50.876Z</time></trkpt><trkpt lat="40.0016251" lon="15.6926036"><ele>86.66666666666666</ele><time>2026-05-02T09:33:51.877Z</time></trkpt><trkpt lat="40.0015756" lon="15.6928089"><ele>79.0</ele><time>2026-05-02T09:33:52.865Z</time></trkpt><trkpt lat="40.0015339" lon="15.6930063"><ele>79.0</ele><time>2026-05-02T09:33:53.873Z</time></trkpt><trkpt lat="40.0015061" lon="15.6931984"><ele>79.0</ele><time>2026-05-02T09:33:54.873Z</time></trkpt><trkpt lat="40.0014877" lon="15.6933835"><ele>79.0</ele><time>2026-05-02T09:33:55.872Z</time></trkpt><trkpt lat="40.0014732" lon="15.6935614"><ele>79.0</ele><time>2026-05-02T09:33:56.869Z</time></trkpt><trkpt lat="40.0014638" lon="15.693737"><ele>79.0</ele><time>2026-05-02T09:33:57.88Z</time></trkpt><trkpt lat="40.0014526" lon="15.6939209"><ele>79.0</ele><time>2026-05-02T09:33:58.875Z</time></trkpt><trkpt lat="40.0014377" lon="15.6941038"><ele>79.0</ele><time>2026-05-02T09:33:59.873Z</time></trkpt><trkpt lat="40.001419" lon="15.69429"><ele>79.0</ele><time>2026-05-02T09:34:00.879Z</time></trkpt><trkpt lat="40.0013852" lon="15.6944663"><ele>80.75</ele><time>2026-05-02T09:34:01.861Z</time></trkpt><trkpt lat="40.0013334" lon="15.6946258"><ele>82.5</ele><time>2026-05-02T09:34:02.866Z</time></trkpt><trkpt lat="40.0012614" lon="15.6947941"><ele>84.25</ele><time>2026-05-02T09:34:03.862Z</time></trkpt><trkpt lat="40.0011859" lon="15.6949647"><ele>86.0</ele><time>2026-05-02T09:34:04.879Z</time></trkpt><trkpt lat="40.0011045" lon="15.6951457"><ele>91.33333333333334</ele><time>2026-05-02T09:34:05.859Z</time></trkpt><trkpt lat="40.001028" lon="15.6953348"><ele>96.66666666666667</ele><time>2026-05-02T09:34:06.874Z</time></trkpt><trkpt lat="40.0009555" lon="15.6955312"><ele>102.0</ele><time>2026-05-02T09:34:07.857Z</time></trkpt><trkpt lat="40.0008878" lon="15.6957352"><ele>91.33333333333333</ele><time>2026-05-02T09:34:08.88Z</time></trkpt><trkpt lat="40.0008229" lon="15.6959452"><ele>80.66666666666666</ele><time>2026-05-02T09:34:09.879Z</time></trkpt><trkpt lat="40.000759" lon="15.6961589"><ele>70.0</ele><time>2026-05-02T09:34:10.879Z</time></trkpt><trkpt lat="40.0007" lon="15.6963708"><ele>70.0</ele><time>2026-05-02T09:34:11.867Z</time></trkpt><trkpt lat="40.0006405" lon="15.6965779"><ele>70.0</ele><time>2026-05-02T09:34:12.875Z</time></trkpt><trkpt lat="40.0005848" lon="15.6967895"><ele>70.0</ele><time>2026-05-02T09:34:13.851Z</time></trkpt><trkpt lat="40.0005362" lon="15.6969988"><ele>73.33333333333333</ele><time>2026-05-02T09:34:14.871Z</time></trkpt><trkpt lat="40.0004857" lon="15.6972121"><ele>76.66666666666667</ele><time>2026-05-02T09:34:15.873Z</time></trkpt><trkpt lat="40.000444" lon="15.6974211"><ele>80.0</ele><time>2026-05-02T09:34:16.874Z</time></trkpt><trkpt lat="40.0004038" lon="15.6976351"><ele>84.0</ele><time>2026-05-02T09:34:17.872Z</time></trkpt><trkpt lat="40.0003733" lon="15.6978438"><ele>88.0</ele><time>2026-05-02T09:34:18.874Z</time></trkpt><trkpt lat="40.0003411" lon="15.6980379"><ele>92.0</ele><time>2026-05-02T09:34:19.862Z</time></trkpt><trkpt lat="40.000304" lon="15.6982258"><ele>92.0</ele><time>2026-05-02T09:34:20.874Z</time></trkpt><trkpt lat="40.000259" lon="15.6984196"><ele>92.0</ele><time>2026-05-02T09:34:21.87Z</time></trkpt><trkpt lat="40.0002108" lon="15.6986207"><ele>92.0</ele><time>2026-05-02T09:34:22.871Z</time></trkpt><trkpt lat="40.0001558" lon="15.6988205"><ele>95.66666666666667</ele><time>2026-05-02T09:34:23.864Z</time></trkpt><trkpt lat="40.0001032" lon="15.6990263"><ele>99.33333333333334</ele><time>2026-05-02T09:34:24.873Z</time></trkpt><trkpt lat="40.0000504" lon="15.6992312"><ele>103.0</ele><time>2026-05-02T09:34:25.877Z</time></trkpt><trkpt lat="39.999999" lon="15.6994371"><ele>106.33333333333334</ele><time>2026-05-02T09:34:26.875Z</time></trkpt><trkpt lat="39.9999477" lon="15.6996525"><ele>109.66666666666666</ele><time>2026-05-02T09:34:27.871Z</time></trkpt><trkpt lat="39.9998982" lon="15.6998744"><ele>113.0</ele><time>2026-05-02T09:34:28.869Z</time></trkpt><trkpt lat="39.9998537" lon="15.7000999"><ele>113.66666666666666</ele><time>2026-05-02T09:34:29.879Z</time></trkpt><trkpt lat="39.9998186" lon="15.7003214"><ele>114.33333333333334</ele><time>2026-05-02T09:34:30.872Z</time></trkpt><trkpt lat="39.9997884" lon="15.7005407"><ele>115.0</ele><time>2026-05-02T09:34:31.868Z</time></trkpt><trkpt lat="39.9997639" lon="15.7007608"><ele>115.0</ele><time>2026-05-02T09:34:32.875Z</time></trkpt><trkpt lat="39.9997443" lon="15.7009767"><ele>115.0</ele><time>2026-05-02T09:34:33.864Z</time></trkpt><trkpt lat="39.999726" lon="15.7011709"><ele>115.0</ele><time>2026-05-02T09:34:34.883Z</time></trkpt><trkpt lat="39.9997057" lon="15.7013486"><ele>115.75</ele><time>2026-05-02T09:34:35.867Z</time></trkpt><trkpt lat="39.9996817" lon="15.7015149"><ele>116.5</ele><time>2026-05-02T09:34:36.866Z</time></trkpt><trkpt lat="39.9996536" lon="15.7016808"><ele>117.25</ele><time>2026-05-02T09:34:37.862Z</time></trkpt><trkpt lat="39.9996129" lon="15.7018339"><ele>118.0</ele><time>2026-05-02T09:34:38.865Z</time></trkpt><trkpt lat="39.9995665" lon="15.7019958"><ele>120.0</ele><time>2026-05-02T09:34:39.859Z</time></trkpt><trkpt lat="39.9995073" lon="15.7021679"><ele>122.0</ele><time>2026-05-02T09:34:40.866Z</time></trkpt><trkpt lat="39.9994493" lon="15.702334"><ele>124.0</ele><time>2026-05-02T09:34:41.865Z</time></trkpt><trkpt lat="39.9994012" lon="15.7024818"><ele>126.0</ele><time>2026-05-02T09:34:42.868Z</time></trkpt><trkpt lat="39.9993839" lon="15.7026298"><ele>127.5</ele><time>2026-05-02T09:34:43.867Z</time></trkpt><trkpt lat="39.9993893" lon="15.7027918"><ele>129.0</ele><time>2026-05-02T09:34:44.864Z</time></trkpt><trkpt lat="39.999414" lon="15.7029709"><ele>130.5</ele><time>2026-05-02T09:34:45.866Z</time></trkpt><trkpt lat="39.9994332" lon="15.7031543"><ele>132.0</ele><time>2026-05-02T09:34:46.866Z</time></trkpt><trkpt lat="39.9994465" lon="15.7033346"><ele>132.0</ele><time>2026-05-02T09:34:47.853Z</time></trkpt><trkpt lat="39.9994418" lon="15.7034996"><ele>132.0</ele><time>2026-05-02T09:34:48.869Z</time></trkpt><trkpt lat="39.999428" lon="15.7036504"><ele>132.0</ele><time>2026-05-02T09:34:49.864Z</time></trkpt><trkpt lat="39.9993955" lon="15.7037973"><ele>132.0</ele><time>2026-05-02T09:34:50.86Z</time></trkpt><trkpt lat="39.9993484" lon="15.7039417"><ele>131.2</ele><time>2026-05-02T09:34:51.865Z</time></trkpt><trkpt lat="39.9992805" lon="15.7040737"><ele>130.39999999999998</ele><time>2026-05-02T09:34:52.878Z</time></trkpt><trkpt lat="39.9992175" lon="15.7041801"><ele>129.60000000000002</ele><time>2026-05-02T09:34:53.894Z</time></trkpt><trkpt lat="39.9991572" lon="15.7042651"><ele>128.8</ele><time>2026-05-02T09:34:54.865Z</time></trkpt><trkpt lat="39.9991041" lon="15.7043304"><ele>128.0</ele><time>2026-05-02T09:34:55.86Z</time></trkpt><trkpt lat="39.9989994" lon="15.7043743"><ele>122.16666666666666</ele><time>2026-05-02T09:34:57.873Z</time></trkpt><trkpt lat="39.9989218" lon="15.7043528"><ele>116.33333333333333</ele><time>2026-05-02T09:34:58.87Z</time></trkpt><trkpt lat="39.9988285" lon="15.7043299"><ele>110.5</ele><time>2026-05-02T09:34:59.863Z</time></trkpt><trkpt lat="39.9987377" lon="15.7043381"><ele>104.66666666666666</ele><time>2026-05-02T09:35:00.876Z</time></trkpt><trkpt lat="39.9986458" lon="15.7043756"><ele>98.83333333333333</ele><time>2026-05-02T09:35:01.87Z</time></trkpt><trkpt lat="39.9985713" lon="15.7044161"><ele>93.0</ele><time>2026-05-02T09:35:02.879Z</time></trkpt><trkpt lat="39.9985056" lon="15.7044396"><ele>93.0</ele><time>2026-05-02T09:35:03.872Z</time></trkpt><trkpt lat="39.9984411" lon="15.7044367"><ele>93.0</ele><time>2026-05-02T09:35:04.88Z</time></trkpt><trkpt lat="39.9983835" lon="15.7043932"><ele>93.0</ele><time>2026-05-02T09:35:05.872Z</time></trkpt><trkpt lat="39.9983251" lon="15.7043334"><ele>93.0</ele><time>2026-05-02T09:35:06.864Z</time></trkpt><trkpt lat="39.9982541" lon="15.7042794"><ele>93.0</ele><time>2026-05-02T09:35:07.874Z</time></trkpt><trkpt lat="39.9981702" lon="15.7042443"><ele>93.0</ele><time>2026-05-02T09:35:08.872Z</time></trkpt><trkpt lat="39.9980823" lon="15.7042314"><ele>89.80000000000001</ele><time>2026-05-02T09:35:09.865Z</time></trkpt><trkpt lat="39.9979933" lon="15.7042324"><ele>86.60000000000001</ele><time>2026-05-02T09:35:10.882Z</time></trkpt><trkpt lat="39.9979001" lon="15.7042335"><ele>83.4</ele><time>2026-05-02T09:35:11.881Z</time></trkpt><trkpt lat="39.9978078" lon="15.7042215"><ele>80.2</ele><time>2026-05-02T09:35:12.887Z</time></trkpt><trkpt lat="39.9977195" lon="15.7041904"><ele>77.0</ele><time>2026-05-02T09:35:13.877Z</time></trkpt><trkpt lat="39.9976356" lon="15.7041384"><ele>77.0</ele><time>2026-05-02T09:35:14.873Z</time></trkpt><trkpt lat="39.9975551" lon="15.704067"><ele>77.0</ele><time>2026-05-02T09:35:15.867Z</time></trkpt><trkpt lat="39.9974796" lon="15.7039817"><ele>77.0</ele><time>2026-05-02T09:35:16.877Z</time></trkpt><trkpt lat="39.9974089" lon="15.7039004"><ele>77.0</ele><time>2026-05-02T09:35:17.868Z</time></trkpt><trkpt lat="39.9973519" lon="15.7038422"><ele>77.0</ele><time>2026-05-02T09:35:18.877Z</time></trkpt><trkpt lat="39.9972412" lon="15.7037983"><ele>77.0</ele><time>2026-05-02T09:35:20.88Z</time></trkpt><trkpt lat="39.9971349" lon="15.7038758"><ele>77.0</ele><time>2026-05-02T09:35:22.87Z</time></trkpt><trkpt lat="39.9971069" lon="15.7039705"><ele>77.0</ele><time>2026-05-02T09:35:23.88Z</time></trkpt><trkpt lat="39.9970878" lon="15.7040749"><ele>77.0</ele><time>2026-05-02T09:35:24.868Z</time></trkpt><trkpt lat="39.9970953" lon="15.7041944"><ele>77.0</ele><time>2026-05-02T09:35:25.869Z</time></trkpt><trkpt lat="39.997119" lon="15.7043198"><ele>78.5</ele><time>2026-05-02T09:35:26.859Z</time></trkpt><trkpt lat="39.9971388" lon="15.7044524"><ele>80.0</ele><time>2026-05-02T09:35:27.874Z</time></trkpt><trkpt lat="39.9971586" lon="15.7046019"><ele>81.5</ele><time>2026-05-02T09:35:28.871Z</time></trkpt><trkpt lat="39.9971784" lon="15.7047589"><ele>83.0</ele><time>2026-05-02T09:35:29.881Z</time></trkpt><trkpt lat="39.997194" lon="15.7049174"><ele>83.0</ele><time>2026-05-02T09:35:30.865Z</time></trkpt><trkpt lat="39.9972087" lon="15.7050675"><ele>83.0</ele><time>2026-05-02T09:35:31.868Z</time></trkpt><trkpt lat="39.9972217" lon="15.7051993"><ele>83.0</ele><time>2026-05-02T09:35:32.878Z</time></trkpt><trkpt lat="39.9972333" lon="15.705314"><ele>83.0</ele><time>2026-05-02T09:35:33.876Z</time></trkpt><trkpt lat="39.997242" lon="15.705406"><ele>83.0</ele><time>2026-05-02T09:35:34.878Z</time></trkpt><trkpt lat="39.997241" lon="15.70549"><ele>83.0</ele><time>2026-05-02T09:35:35.872Z</time></trkpt><trkpt lat="39.9972279" lon="15.7055741"><ele>83.0</ele><time>2026-05-02T09:35:36.872Z</time></trkpt><trkpt lat="39.9971653" lon="15.705699"><ele>83.0</ele><time>2026-05-02T09:35:38.87Z</time></trkpt><trkpt lat="39.997084" lon="15.7058208"><ele>83.0</ele><time>2026-05-02T09:35:40.869Z</time></trkpt><trkpt lat="39.9970362" lon="15.7058765"><ele>83.0</ele><time>2026-05-02T09:35:41.862Z</time></trkpt><trkpt lat="39.9969802" lon="15.705924"><ele>83.0</ele><time>2026-05-02T09:35:42.87Z</time></trkpt><trkpt lat="39.9969236" lon="15.7059675"><ele>83.0</ele><time>2026-05-02T09:35:43.86Z</time></trkpt><trkpt lat="39.9968625" lon="15.7060064"><ele>83.0</ele><time>2026-05-02T09:35:44.873Z</time></trkpt><trkpt lat="39.9968027" lon="15.7060418"><ele>83.0</ele><time>2026-05-02T09:35:45.877Z</time></trkpt><trkpt lat="39.9967433" lon="15.706075"><ele>83.0</ele><time>2026-05-02T09:35:46.873Z</time></trkpt><trkpt lat="39.9966427" lon="15.7061344"><ele>83.0</ele><time>2026-05-02T09:35:48.87Z</time></trkpt><trkpt lat="39.9965348" lon="15.7061865"><ele>83.0</ele><time>2026-05-02T09:35:50.882Z</time></trkpt><trkpt lat="39.9964135" lon="15.7062485"><ele>83.16666666666667</ele><time>2026-05-02T09:35:52.878Z</time></trkpt><trkpt lat="39.996341" lon="15.7062783"><ele>83.33333333333334</ele><time>2026-05-02T09:35:53.876Z</time></trkpt><trkpt lat="39.9962708" lon="15.7063256"><ele>83.5</ele><time>2026-05-02T09:35:54.874Z</time></trkpt><trkpt lat="39.996195" lon="15.7063667"><ele>83.66666666666667</ele><time>2026-05-02T09:35:55.886Z</time></trkpt><trkpt lat="39.9961148" lon="15.7064084"><ele>83.83333333333333</ele><time>2026-05-02T09:35:56.882Z</time></trkpt><trkpt lat="39.9960281" lon="15.7064522"><ele>84.0</ele><time>2026-05-02T09:35:57.874Z</time></trkpt><trkpt lat="39.99594" lon="15.7064993"><ele>84.0</ele><time>2026-05-02T09:35:58.873Z</time></trkpt><trkpt lat="39.9958504" lon="15.7065398"><ele>84.0</ele><time>2026-05-02T09:35:59.878Z</time></trkpt><trkpt lat="39.9957658" lon="15.7065839"><ele>84.0</ele><time>2026-05-02T09:36:00.888Z</time></trkpt><trkpt lat="39.995688" lon="15.7066253"><ele>84.0</ele><time>2026-05-02T09:36:01.882Z</time></trkpt><trkpt lat="39.9956111" lon="15.7066661"><ele>84.0</ele><time>2026-05-02T09:36:02.856Z</time></trkpt><trkpt lat="39.9955335" lon="15.7066976"><ele>84.0</ele><time>2026-05-02T09:36:03.875Z</time></trkpt><trkpt lat="39.9954503" lon="15.7067161"><ele>84.0</ele><time>2026-05-02T09:36:04.885Z</time></trkpt><trkpt lat="39.9953616" lon="15.706737"><ele>84.0</ele><time>2026-05-02T09:36:05.877Z</time></trkpt><trkpt lat="39.9952696" lon="15.7067527"><ele>84.0</ele><time>2026-05-02T09:36:06.866Z</time></trkpt><trkpt lat="39.9951726" lon="15.7067519"><ele>84.0</ele><time>2026-05-02T09:36:07.883Z</time></trkpt><trkpt lat="39.9950733" lon="15.7067409"><ele>84.0</ele><time>2026-05-02T09:36:08.874Z</time></trkpt><trkpt lat="39.9949676" lon="15.7067232"><ele>84.25</ele><time>2026-05-02T09:36:09.87Z</time></trkpt><trkpt lat="39.9948585" lon="15.7067059"><ele>84.5</ele><time>2026-05-02T09:36:10.879Z</time></trkpt><trkpt lat="39.9947455" lon="15.7067014"><ele>84.75</ele><time>2026-05-02T09:36:11.861Z</time></trkpt><trkpt lat="39.9946315" lon="15.7067024"><ele>85.0</ele><time>2026-05-02T09:36:12.885Z</time></trkpt><trkpt lat="39.9945168" lon="15.7067102"><ele>85.0</ele><time>2026-05-02T09:36:13.865Z</time></trkpt><trkpt lat="39.9943983" lon="15.7067188"><ele>85.0</ele><time>2026-05-02T09:36:14.865Z</time></trkpt><trkpt lat="39.9942829" lon="15.7067214"><ele>85.0</ele><time>2026-05-02T09:36:15.874Z</time></trkpt><trkpt lat="39.9941687" lon="15.7067277"><ele>85.0</ele><time>2026-05-02T09:36:16.863Z</time></trkpt><trkpt lat="39.9940535" lon="15.7067267"><ele>85.5</ele><time>2026-05-02T09:36:17.876Z</time></trkpt><trkpt lat="39.9939473" lon="15.7067287"><ele>86.0</ele><time>2026-05-02T09:36:18.879Z</time></trkpt><trkpt lat="39.9938527" lon="15.7067336"><ele>86.5</ele><time>2026-05-02T09:36:19.875Z</time></trkpt><trkpt lat="39.993765" lon="15.7067384"><ele>87.0</ele><time>2026-05-02T09:36:20.871Z</time></trkpt><trkpt lat="39.9936867" lon="15.7067407"><ele>87.5</ele><time>2026-05-02T09:36:21.875Z</time></trkpt><trkpt lat="39.9936127" lon="15.7067448"><ele>88.0</ele><time>2026-05-02T09:36:22.873Z</time></trkpt><trkpt lat="39.9935425" lon="15.706741"><ele>88.0</ele><time>2026-05-02T09:36:23.865Z</time></trkpt><trkpt lat="39.9934664" lon="15.7067327"><ele>88.0</ele><time>2026-05-02T09:36:25.876Z</time></trkpt><trkpt lat="39.9933602" lon="15.7067125"><ele>88.0</ele><time>2026-05-02T09:36:36.879Z</time></trkpt><trkpt lat="39.9932949" lon="15.706695"><ele>88.0</ele><time>2026-05-02T09:36:37.878Z</time></trkpt><trkpt lat="39.9932297" lon="15.706679"><ele>88.0</ele><time>2026-05-02T09:36:38.863Z</time></trkpt><trkpt lat="39.9931146" lon="15.7066341"><ele>88.0</ele><time>2026-05-02T09:36:40.879Z</time></trkpt><trkpt lat="39.9929916" lon="15.7065819"><ele>88.83333333333333</ele><time>2026-05-02T09:36:42.864Z</time></trkpt><trkpt lat="39.9928771" lon="15.706628"><ele>89.66666666666666</ele><time>2026-05-02T09:36:44.865Z</time></trkpt><trkpt lat="39.9928334" lon="15.7066939"><ele>90.5</ele><time>2026-05-02T09:36:45.867Z</time></trkpt><trkpt lat="39.99281" lon="15.7068157"><ele>91.33333333333333</ele><time>2026-05-02T09:36:47.872Z</time></trkpt><trkpt lat="39.9928365" lon="15.7069437"><ele>92.16666666666667</ele><time>2026-05-02T09:36:49.874Z</time></trkpt><trkpt lat="39.9928801" lon="15.7070032"><ele>93.0</ele><time>2026-05-02T09:36:50.872Z</time></trkpt><trkpt lat="39.9929504" lon="15.7070463"><ele>93.4</ele><time>2026-05-02T09:36:51.863Z</time></trkpt><trkpt lat="39.9930382" lon="15.7070685"><ele>93.80000000000001</ele><time>2026-05-02T09:36:52.873Z</time></trkpt><trkpt lat="39.9931305" lon="15.7070946"><ele>94.2</ele><time>2026-05-02T09:36:53.873Z</time></trkpt><trkpt lat="39.9932304" lon="15.7071265"><ele>94.6</ele><time>2026-05-02T09:36:54.884Z</time></trkpt><trkpt lat="39.9933372" lon="15.7071572"><ele>95.0</ele><time>2026-05-02T09:36:55.871Z</time></trkpt><trkpt lat="39.9934397" lon="15.7071884"><ele>96.2</ele><time>2026-05-02T09:36:56.876Z</time></trkpt><trkpt lat="39.9935435" lon="15.7072219"><ele>97.4</ele><time>2026-05-02T09:36:57.883Z</time></trkpt><trkpt lat="39.993644" lon="15.707268"><ele>98.6</ele><time>2026-05-02T09:36:58.866Z</time></trkpt><trkpt lat="39.9937392" lon="15.7073235"><ele>99.8</ele><time>2026-05-02T09:36:59.869Z</time></trkpt><trkpt lat="39.9938219" lon="15.7073977"><ele>101.0</ele><time>2026-05-02T09:37:00.865Z</time></trkpt><trkpt lat="39.9938949" lon="15.7074871"><ele>100.99999999999999</ele><time>2026-05-02T09:37:01.879Z</time></trkpt><trkpt lat="39.9939631" lon="15.7075803"><ele>101.0</ele><time>2026-05-02T09:37:02.865Z</time></trkpt><trkpt lat="39.9940256" lon="15.7076754"><ele>101.0</ele><time>2026-05-02T09:37:03.873Z</time></trkpt><trkpt lat="39.9940858" lon="15.7077518"><ele>101.0</ele><time>2026-05-02T09:37:04.873Z</time></trkpt><trkpt lat="39.99413" lon="15.7078204"><ele>100.99999999999999</ele><time>2026-05-02T09:37:05.872Z</time></trkpt><trkpt lat="39.9941808" lon="15.707886"><ele>101.0</ele><time>2026-05-02T09:37:06.872Z</time></trkpt><trkpt lat="39.9942379" lon="15.7079596"><ele>101.6</ele><time>2026-05-02T09:37:07.87Z</time></trkpt><trkpt lat="39.9943024" lon="15.7080475"><ele>102.19999999999999</ele><time>2026-05-02T09:37:08.868Z</time></trkpt><trkpt lat="39.9943707" lon="15.7081377"><ele>102.80000000000001</ele><time>2026-05-02T09:37:09.869Z</time></trkpt><trkpt lat="39.994444" lon="15.7082154"><ele>103.4</ele><time>2026-05-02T09:37:10.866Z</time></trkpt><trkpt lat="39.9945234" lon="15.7082787"><ele>104.0</ele><time>2026-05-02T09:37:11.868Z</time></trkpt><trkpt lat="39.9946046" lon="15.7083372"><ele>103.99999999999999</ele><time>2026-05-02T09:37:12.879Z</time></trkpt><trkpt lat="39.9946832" lon="15.7083905"><ele>104.0</ele><time>2026-05-02T09:37:13.87Z</time></trkpt><trkpt lat="39.9947565" lon="15.7084388"><ele>104.0</ele><time>2026-05-02T09:37:14.875Z</time></trkpt><trkpt lat="39.9948206" lon="15.7084868"><ele>104.0</ele><time>2026-05-02T09:37:15.865Z</time></trkpt><trkpt lat="39.994886" lon="15.7085154"><ele>103.99999999999999</ele><time>2026-05-02T09:37:16.868Z</time></trkpt><trkpt lat="39.9949875" lon="15.7085612"><ele>104.0</ele><time>2026-05-02T09:37:18.864Z</time></trkpt><trkpt lat="39.9950566" lon="15.7086122"><ele>104.49999999999999</ele><time>2026-05-02T09:37:20.878Z</time></trkpt><trkpt lat="39.9951154" lon="15.708657"><ele>105.0</ele><time>2026-05-02T09:37:22.87Z</time></trkpt><trkpt lat="39.9951864" lon="15.7087088"><ele>105.5</ele><time>2026-05-02T09:37:30.879Z</time></trkpt><trkpt lat="39.9952803" lon="15.708772"><ele>106.0</ele><time>2026-05-02T09:37:32.87Z</time></trkpt><trkpt lat="39.9953442" lon="15.7088561"><ele>106.49999999999999</ele><time>2026-05-02T09:37:34.869Z</time></trkpt><trkpt lat="39.9954207" lon="15.7089416"><ele>107.0</ele><time>2026-05-02T09:37:36.869Z</time></trkpt><trkpt lat="39.9954982" lon="15.7090259"><ele>107.0</ele><time>2026-05-02T09:37:38.867Z</time></trkpt><trkpt lat="39.9955541" lon="15.7090741"><ele>106.99999999999999</ele><time>2026-05-02T09:37:39.866Z</time></trkpt><trkpt lat="39.9956407" lon="15.709113"><ele>106.99999999999999</ele><time>2026-05-02T09:37:40.872Z</time></trkpt><trkpt lat="39.995743" lon="15.7091564"><ele>107.0</ele><time>2026-05-02T09:37:41.888Z</time></trkpt><trkpt lat="39.995856" lon="15.7091971"><ele>107.0</ele><time>2026-05-02T09:37:42.869Z</time></trkpt><trkpt lat="39.9959684" lon="15.7092395"><ele>107.8</ele><time>2026-05-02T09:37:43.874Z</time></trkpt><trkpt lat="39.99607" lon="15.7092853"><ele>108.6</ele><time>2026-05-02T09:37:44.867Z</time></trkpt><trkpt lat="39.9961514" lon="15.7093402"><ele>109.39999999999999</ele><time>2026-05-02T09:37:45.867Z</time></trkpt><trkpt lat="39.9962258" lon="15.7093879"><ele>110.19999999999999</ele><time>2026-05-02T09:37:46.867Z</time></trkpt><trkpt lat="39.9962987" lon="15.7094397"><ele>111.0</ele><time>2026-05-02T09:37:47.872Z</time></trkpt><trkpt lat="39.9963742" lon="15.7094913"><ele>111.0</ele><time>2026-05-02T09:37:48.878Z</time></trkpt><trkpt lat="39.9964493" lon="15.7095442"><ele>111.0</ele><time>2026-05-02T09:37:49.866Z</time></trkpt><trkpt lat="39.9965056" lon="15.709588"><ele>111.0</ele><time>2026-05-02T09:37:50.871Z</time></trkpt><trkpt lat="39.9965673" lon="15.709634"><ele>111.0</ele><time>2026-05-02T09:37:51.872Z</time></trkpt><trkpt lat="39.9966278" lon="15.7096905"><ele>111.0</ele><time>2026-05-02T09:37:52.865Z</time></trkpt><trkpt lat="39.9966953" lon="15.7097527"><ele>111.0</ele><time>2026-05-02T09:37:53.867Z</time></trkpt><trkpt lat="39.996759" lon="15.7098196"><ele>112.0</ele><time>2026-05-02T09:37:54.867Z</time></trkpt><trkpt lat="39.996821" lon="15.709885"><ele>113.0</ele><time>2026-05-02T09:37:55.874Z</time></trkpt><trkpt lat="39.9968818" lon="15.7099535"><ele>114.0</ele><time>2026-05-02T09:37:56.88Z</time></trkpt><trkpt lat="39.9969447" lon="15.7100218"><ele>115.0</ele><time>2026-05-02T09:37:57.874Z</time></trkpt><trkpt lat="39.9970066" lon="15.7100896"><ele>116.0</ele><time>2026-05-02T09:37:58.875Z</time></trkpt><trkpt lat="39.9970713" lon="15.7101597"><ele>117.0</ele><time>2026-05-02T09:37:59.874Z</time></trkpt><trkpt lat="39.9971398" lon="15.7102308"><ele>117.6</ele><time>2026-05-02T09:38:00.868Z</time></trkpt><trkpt lat="39.9972124" lon="15.7102999"><ele>118.19999999999999</ele><time>2026-05-02T09:38:01.86Z</time></trkpt><trkpt lat="39.9972895" lon="15.7103703"><ele>118.8</ele><time>2026-05-02T09:38:02.867Z</time></trkpt><trkpt lat="39.9973663" lon="15.7104504"><ele>119.4</ele><time>2026-05-02T09:38:03.853Z</time></trkpt><trkpt lat="39.9974361" lon="15.710539"><ele>120.0</ele><time>2026-05-02T09:38:04.859Z</time></trkpt><trkpt lat="39.9975079" lon="15.7106368"><ele>121.2</ele><time>2026-05-02T09:38:05.867Z</time></trkpt><trkpt lat="39.9975744" lon="15.710741"><ele>122.4</ele><time>2026-05-02T09:38:06.869Z</time></trkpt><trkpt lat="39.9976376" lon="15.7108506"><ele>123.6</ele><time>2026-05-02T09:38:07.867Z</time></trkpt><trkpt lat="39.9977004" lon="15.7109632"><ele>124.8</ele><time>2026-05-02T09:38:08.868Z</time></trkpt><trkpt lat="39.9977645" lon="15.711078"><ele>126.0</ele><time>2026-05-02T09:38:09.866Z</time></trkpt><trkpt lat="39.9978234" lon="15.7111922"><ele>127.5</ele><time>2026-05-02T09:38:10.863Z</time></trkpt><trkpt lat="39.9978669" lon="15.7113059"><ele>129.0</ele><time>2026-05-02T09:38:11.872Z</time></trkpt><trkpt lat="39.9978972" lon="15.7114104"><ele>130.5</ele><time>2026-05-02T09:38:12.874Z</time></trkpt><trkpt lat="39.9979197" lon="15.711512"><ele>132.0</ele><time>2026-05-02T09:38:13.876Z</time></trkpt><trkpt lat="39.9979352" lon="15.7116157"><ele>133.5</ele><time>2026-05-02T09:38:14.871Z</time></trkpt><trkpt lat="39.9979318" lon="15.7117253"><ele>135.0</ele><time>2026-05-02T09:38:15.861Z</time></trkpt><trkpt lat="39.9979084" lon="15.7118358"><ele>137.33333333333334</ele><time>2026-05-02T09:38:16.871Z</time></trkpt><trkpt lat="39.9978729" lon="15.7119338"><ele>139.66666666666666</ele><time>2026-05-02T09:38:17.871Z</time></trkpt><trkpt lat="39.9978377" lon="15.7120125"><ele>142.0</ele><time>2026-05-02T09:38:18.872Z</time></trkpt><trkpt lat="39.9977941" lon="15.71209"><ele>144.33333333333331</ele><time>2026-05-02T09:38:19.856Z</time></trkpt><trkpt lat="39.9977483" lon="15.712183"><ele>146.66666666666666</ele><time>2026-05-02T09:38:20.872Z</time></trkpt><trkpt lat="39.9976976" lon="15.7122838"><ele>149.0</ele><time>2026-05-02T09:38:21.884Z</time></trkpt><trkpt lat="39.9976516" lon="15.7123729"><ele>149.0</ele><time>2026-05-02T09:38:22.855Z</time></trkpt><trkpt lat="39.9975984" lon="15.7124473"><ele>149.0</ele><time>2026-05-02T09:38:23.868Z</time></trkpt><trkpt lat="39.9975349" lon="15.7125194"><ele>149.0</ele><time>2026-05-02T09:38:24.873Z</time></trkpt><trkpt lat="39.9974724" lon="15.7125977"><ele>149.0</ele><time>2026-05-02T09:38:25.864Z</time></trkpt><trkpt lat="39.9974101" lon="15.7126567"><ele>149.0</ele><time>2026-05-02T09:38:26.887Z</time></trkpt><trkpt lat="39.9973211" lon="15.7127244"><ele>149.0</ele><time>2026-05-02T09:38:28.869Z</time></trkpt><trkpt lat="39.9972326" lon="15.7128152"><ele>150.0</ele><time>2026-05-02T09:38:30.878Z</time></trkpt><trkpt lat="39.9971815" lon="15.7128651"><ele>151.0</ele><time>2026-05-02T09:38:31.867Z</time></trkpt><trkpt lat="39.9971228" lon="15.712924"><ele>152.0</ele><time>2026-05-02T09:38:32.875Z</time></trkpt><trkpt lat="39.9970508" lon="15.7129773"><ele>153.0</ele><time>2026-05-02T09:38:33.874Z</time></trkpt><trkpt lat="39.9969715" lon="15.7130299"><ele>154.0</ele><time>2026-05-02T09:38:34.867Z</time></trkpt><trkpt lat="39.9968884" lon="15.7130609"><ele>155.0</ele><time>2026-05-02T09:38:35.866Z</time></trkpt><trkpt lat="39.9967964" lon="15.7130856"><ele>155.0</ele><time>2026-05-02T09:38:36.868Z</time></trkpt><trkpt lat="39.9967057" lon="15.7131048"><ele>155.0</ele><time>2026-05-02T09:38:37.868Z</time></trkpt><trkpt lat="39.996628" lon="15.7131163"><ele>155.0</ele><time>2026-05-02T09:38:38.86Z</time></trkpt><trkpt lat="39.9965648" lon="15.71313"><ele>155.0</ele><time>2026-05-02T09:38:39.862Z</time></trkpt><trkpt lat="39.9964322" lon="15.713181"><ele>155.0</ele><time>2026-05-02T09:38:41.858Z</time></trkpt><trkpt lat="39.996353" lon="15.7132246"><ele>153.5</ele><time>2026-05-02T09:38:42.856Z</time></trkpt><trkpt lat="39.9962654" lon="15.713266"><ele>152.0</ele><time>2026-05-02T09:38:43.872Z</time></trkpt><trkpt lat="39.9961789" lon="15.7133126"><ele>150.5</ele><time>2026-05-02T09:38:44.876Z</time></trkpt><trkpt lat="39.9960989" lon="15.7133499"><ele>149.0</ele><time>2026-05-02T09:38:45.858Z</time></trkpt><trkpt lat="39.996023" lon="15.7133855"><ele>147.5</ele><time>2026-05-02T09:38:46.872Z</time></trkpt><trkpt lat="39.9959381" lon="15.7134066"><ele>146.0</ele><time>2026-05-02T09:38:47.869Z</time></trkpt><trkpt lat="39.9958479" lon="15.7133968"><ele>145.6</ele><time>2026-05-02T09:38:48.878Z</time></trkpt><trkpt lat="39.9957649" lon="15.7133483"><ele>145.2</ele><time>2026-05-02T09:38:49.868Z</time></trkpt><trkpt lat="39.9956983" lon="15.7132958"><ele>144.8</ele><time>2026-05-02T09:38:50.876Z</time></trkpt><trkpt lat="39.9956087" lon="15.7132318"><ele>144.4</ele><time>2026-05-02T09:38:52.873Z</time></trkpt><trkpt lat="39.9955222" lon="15.713209"><ele>144.0</ele><time>2026-05-02T09:38:54.879Z</time></trkpt><trkpt lat="39.9954226" lon="15.713269"><ele>144.00000000000003</ele><time>2026-05-02T09:38:56.87Z</time></trkpt><trkpt lat="39.995376" lon="15.7133291"><ele>144.0</ele><time>2026-05-02T09:38:57.871Z</time></trkpt><trkpt lat="39.9953425" lon="15.713408"><ele>144.0</ele><time>2026-05-02T09:38:58.88Z</time></trkpt><trkpt lat="39.9953061" lon="15.713491"><ele>144.0</ele><time>2026-05-02T09:38:59.864Z</time></trkpt><trkpt lat="39.9952687" lon="15.7135743"><ele>144.0</ele><time>2026-05-02T09:39:00.873Z</time></trkpt><trkpt lat="39.9952276" lon="15.7136597"><ele>144.00000000000003</ele><time>2026-05-02T09:39:01.866Z</time></trkpt><trkpt lat="39.9951722" lon="15.713731"><ele>144.0</ele><time>2026-05-02T09:39:02.864Z</time></trkpt><trkpt lat="39.9950999" lon="15.7137916"><ele>145.66666666666666</ele><time>2026-05-02T09:39:03.859Z</time></trkpt><trkpt lat="39.9950196" lon="15.713844"><ele>147.33333333333334</ele><time>2026-05-02T09:39:04.865Z</time></trkpt><trkpt lat="39.9949513" lon="15.7138802"><ele>149.0</ele><time>2026-05-02T09:39:05.869Z</time></trkpt><trkpt lat="39.9948844" lon="15.7138932"><ele>150.66666666666669</ele><time>2026-05-02T09:39:06.869Z</time></trkpt><trkpt lat="39.994815" lon="15.7138872"><ele>152.33333333333334</ele><time>2026-05-02T09:39:07.862Z</time></trkpt><trkpt lat="39.9947402" lon="15.7138733"><ele>154.0</ele><time>2026-05-02T09:39:08.864Z</time></trkpt><trkpt lat="39.9946676" lon="15.7138475"><ele>155.0</ele><time>2026-05-02T09:39:09.87Z</time></trkpt><trkpt lat="39.994604" lon="15.7138228"><ele>156.0</ele><time>2026-05-02T09:39:10.866Z</time></trkpt><trkpt lat="39.9945326" lon="15.7137617"><ele>157.0</ele><time>2026-05-02T09:39:12.869Z</time></trkpt><trkpt lat="39.9944822" lon="15.7136905"><ele>158.0</ele><time>2026-05-02T09:39:16.869Z</time></trkpt><trkpt lat="39.9943907" lon="15.7136431"><ele>159.0</ele><time>2026-05-02T09:39:19.881Z</time></trkpt><trkpt lat="39.9942949" lon="15.7136586"><ele>160.0</ele><time>2026-05-02T09:39:21.865Z</time></trkpt><trkpt lat="39.9941969" lon="15.7137628"><ele>159.66666666666669</ele><time>2026-05-02T09:39:23.87Z</time></trkpt><trkpt lat="39.9941523" lon="15.7138306"><ele>159.33333333333334</ele><time>2026-05-02T09:39:24.872Z</time></trkpt><trkpt lat="39.9941115" lon="15.7139015"><ele>159.0</ele><time>2026-05-02T09:39:25.871Z</time></trkpt><trkpt lat="39.9940667" lon="15.713984"><ele>158.66666666666666</ele><time>2026-05-02T09:39:26.865Z</time></trkpt><trkpt lat="39.9940294" lon="15.7140727"><ele>158.33333333333331</ele><time>2026-05-02T09:39:27.858Z</time></trkpt><trkpt lat="39.9940021" lon="15.7141598"><ele>158.0</ele><time>2026-05-02T09:39:28.867Z</time></trkpt><trkpt lat="39.9939898" lon="15.7142778"><ele>158.0</ele><time>2026-05-02T09:39:30.875Z</time></trkpt><trkpt lat="39.9939894" lon="15.7143782"><ele>158.0</ele><time>2026-05-02T09:39:39.859Z</time></trkpt><trkpt lat="39.9939907" lon="15.7144764"><ele>158.0</ele><time>2026-05-02T09:39:41.873Z</time></trkpt><trkpt lat="39.9939932" lon="15.7145854"><ele>158.0</ele><time>2026-05-02T09:39:43.859Z</time></trkpt><trkpt lat="39.9939957" lon="15.7146947"><ele>158.0</ele><time>2026-05-02T09:39:45.862Z</time></trkpt><trkpt lat="39.9939887" lon="15.7148012"><ele>158.0</ele><time>2026-05-02T09:39:47.879Z</time></trkpt><trkpt lat="39.9939836" lon="15.7149132"><ele>159.0</ele><time>2026-05-02T09:39:50.873Z</time></trkpt><trkpt lat="39.9939748" lon="15.715048"><ele>160.0</ele><time>2026-05-02T09:39:52.868Z</time></trkpt><trkpt lat="39.9939676" lon="15.7151409"><ele>161.0</ele><time>2026-05-02T09:39:53.882Z</time></trkpt><trkpt lat="39.9939621" lon="15.7152376"><ele>162.0</ele><time>2026-05-02T09:39:54.873Z</time></trkpt><trkpt lat="39.9939626" lon="15.715339"><ele>163.0</ele><time>2026-05-02T09:39:55.868Z</time></trkpt><trkpt lat="39.9939577" lon="15.7154544"><ele>164.0</ele><time>2026-05-02T09:39:56.869Z</time></trkpt><trkpt lat="39.9939532" lon="15.7155788"><ele>164.2</ele><time>2026-05-02T09:39:57.879Z</time></trkpt><trkpt lat="39.9939479" lon="15.7157075"><ele>164.39999999999998</ele><time>2026-05-02T09:39:58.886Z</time></trkpt><trkpt lat="39.9939611" lon="15.7158343"><ele>164.6</ele><time>2026-05-02T09:39:59.864Z</time></trkpt><trkpt lat="39.9939916" lon="15.7159619"><ele>164.8</ele><time>2026-05-02T09:40:00.881Z</time></trkpt><trkpt lat="39.9940396" lon="15.7160909"><ele>165.0</ele><time>2026-05-02T09:40:01.869Z</time></trkpt><trkpt lat="39.9940962" lon="15.7162171"><ele>166.4</ele><time>2026-05-02T09:40:02.878Z</time></trkpt><trkpt lat="39.9941614" lon="15.7163352"><ele>167.8</ele><time>2026-05-02T09:40:03.875Z</time></trkpt><trkpt lat="39.9942393" lon="15.7164326"><ele>169.2</ele><time>2026-05-02T09:40:04.875Z</time></trkpt><trkpt lat="39.9943307" lon="15.7165016"><ele>170.6</ele><time>2026-05-02T09:40:05.865Z</time></trkpt><trkpt lat="39.9944419" lon="15.7165457"><ele>172.0</ele><time>2026-05-02T09:40:06.868Z</time></trkpt><trkpt lat="39.9945639" lon="15.7165782"><ele>172.0</ele><time>2026-05-02T09:40:07.866Z</time></trkpt><trkpt lat="39.9946843" lon="15.7166066"><ele>172.0</ele><time>2026-05-02T09:40:08.868Z</time></trkpt><trkpt lat="39.9948036" lon="15.7166442"><ele>172.0</ele><time>2026-05-02T09:40:09.853Z</time></trkpt><trkpt lat="39.9949183" lon="15.7166798"><ele>172.0</ele><time>2026-05-02T09:40:10.863Z</time></trkpt><trkpt lat="39.9950186" lon="15.7167136"><ele>173.0</ele><time>2026-05-02T09:40:11.866Z</time></trkpt><trkpt lat="39.9951181" lon="15.7167414"><ele>174.0</ele><time>2026-05-02T09:40:12.88Z</time></trkpt><trkpt lat="39.9952146" lon="15.7167724"><ele>175.0</ele><time>2026-05-02T09:40:13.858Z</time></trkpt><trkpt lat="39.9953146" lon="15.7167927"><ele>176.0</ele><time>2026-05-02T09:40:14.861Z</time></trkpt><trkpt lat="39.9954167" lon="15.7168192"><ele>177.0</ele><time>2026-05-02T09:40:15.857Z</time></trkpt><trkpt lat="39.9955129" lon="15.7168579"><ele>177.0</ele><time>2026-05-02T09:40:16.876Z</time></trkpt><trkpt lat="39.9956138" lon="15.7168864"><ele>177.0</ele><time>2026-05-02T09:40:17.86Z</time></trkpt><trkpt lat="39.9957179" lon="15.716886"><ele>177.0</ele><time>2026-05-02T09:40:18.871Z</time></trkpt><trkpt lat="39.9958231" lon="15.7168524"><ele>177.0</ele><time>2026-05-02T09:40:19.857Z</time></trkpt><trkpt lat="39.9959231" lon="15.7167901"><ele>177.0</ele><time>2026-05-02T09:40:20.871Z</time></trkpt><trkpt lat="39.9960081" lon="15.7167086"><ele>178.0</ele><time>2026-05-02T09:40:21.864Z</time></trkpt><trkpt lat="39.996081" lon="15.7166394"><ele>179.0</ele><time>2026-05-02T09:40:22.874Z</time></trkpt><trkpt lat="39.9961986" lon="15.7165782"><ele>180.0</ele><time>2026-05-02T09:40:24.87Z</time></trkpt><trkpt lat="39.9962727" lon="15.7165875"><ele>181.0</ele><time>2026-05-02T09:40:25.871Z</time></trkpt><trkpt lat="39.9963585" lon="15.7166066"><ele>182.0</ele><time>2026-05-02T09:40:26.879Z</time></trkpt><trkpt lat="39.99645" lon="15.7166255"><ele>182.0</ele><time>2026-05-02T09:40:27.861Z</time></trkpt><trkpt lat="39.996541" lon="15.716637"><ele>182.0</ele><time>2026-05-02T09:40:28.868Z</time></trkpt><trkpt lat="39.9966159" lon="15.7166305"><ele>182.0</ele><time>2026-05-02T09:40:29.89Z</time></trkpt><trkpt lat="39.9967199" lon="15.7166029"><ele>182.0</ele><time>2026-05-02T09:40:31.858Z</time></trkpt><trkpt lat="39.9968239" lon="15.7165675"><ele>182.0</ele><time>2026-05-02T09:40:33.873Z</time></trkpt><trkpt lat="39.9969254" lon="15.716556"><ele>183.6</ele><time>2026-05-02T09:40:35.869Z</time></trkpt><trkpt lat="39.9970024" lon="15.7165605"><ele>185.2</ele><time>2026-05-02T09:40:37.866Z</time></trkpt><trkpt lat="39.9971104" lon="15.7165532"><ele>186.8</ele><time>2026-05-02T09:40:39.878Z</time></trkpt><trkpt lat="39.9971784" lon="15.7165468"><ele>188.4</ele><time>2026-05-02T09:40:41.872Z</time></trkpt><trkpt lat="39.9972752" lon="15.7165331"><ele>190.0</ele><time>2026-05-02T09:40:45.868Z</time></trkpt><trkpt lat="39.997419" lon="15.7165204"><ele>190.4</ele><time>2026-05-02T09:40:47.861Z</time></trkpt><trkpt lat="39.9975113" lon="15.7165009"><ele>190.8</ele><time>2026-05-02T09:40:48.871Z</time></trkpt><trkpt lat="39.9976073" lon="15.7164821"><ele>191.2</ele><time>2026-05-02T09:40:49.863Z</time></trkpt><trkpt lat="39.9977019" lon="15.7164617"><ele>191.6</ele><time>2026-05-02T09:40:50.866Z</time></trkpt><trkpt lat="39.9977989" lon="15.7164636"><ele>192.0</ele><time>2026-05-02T09:40:51.865Z</time></trkpt><trkpt lat="39.9979011" lon="15.7164792"><ele>192.0</ele><time>2026-05-02T09:40:52.874Z</time></trkpt><trkpt lat="39.998007" lon="15.7165106"><ele>192.0</ele><time>2026-05-02T09:40:53.874Z</time></trkpt><trkpt lat="39.9981156" lon="15.716533"><ele>192.0</ele><time>2026-05-02T09:40:54.869Z</time></trkpt><trkpt lat="39.998225" lon="15.7165473"><ele>192.0</ele><time>2026-05-02T09:40:55.865Z</time></trkpt><trkpt lat="39.9983279" lon="15.7165576"><ele>192.0</ele><time>2026-05-02T09:40:56.876Z</time></trkpt><trkpt lat="39.9984196" lon="15.7165622"><ele>192.5</ele><time>2026-05-02T09:40:57.861Z</time></trkpt><trkpt lat="39.9985114" lon="15.7165498"><ele>193.0</ele><time>2026-05-02T09:40:58.868Z</time></trkpt><trkpt lat="39.9985997" lon="15.7165144"><ele>193.5</ele><time>2026-05-02T09:40:59.874Z</time></trkpt><trkpt lat="39.9986817" lon="15.7164865"><ele>194.0</ele><time>2026-05-02T09:41:00.869Z</time></trkpt><trkpt lat="39.9987542" lon="15.7164719"><ele>194.5</ele><time>2026-05-02T09:41:01.877Z</time></trkpt><trkpt lat="39.998827" lon="15.7164825"><ele>195.0</ele><time>2026-05-02T09:41:02.871Z</time></trkpt><trkpt lat="39.9989056" lon="15.7165185"><ele>195.0</ele><time>2026-05-02T09:41:03.865Z</time></trkpt><trkpt lat="39.9989839" lon="15.7165845"><ele>195.0</ele><time>2026-05-02T09:41:04.878Z</time></trkpt><trkpt lat="39.9990575" lon="15.7166588"><ele>195.0</ele><time>2026-05-02T09:41:05.87Z</time></trkpt><trkpt lat="39.9991276" lon="15.716736"><ele>195.0</ele><time>2026-05-02T09:41:06.873Z</time></trkpt><trkpt lat="39.9991909" lon="15.7168025"><ele>195.0</ele><time>2026-05-02T09:41:07.862Z</time></trkpt><trkpt lat="39.9992456" lon="15.7168696"><ele>195.0</ele><time>2026-05-02T09:41:08.866Z</time></trkpt><trkpt lat="39.9993002" lon="15.7169329"><ele>196.16666666666666</ele><time>2026-05-02T09:41:09.865Z</time></trkpt><trkpt lat="39.999365" lon="15.7169987"><ele>197.33333333333331</ele><time>2026-05-02T09:41:10.867Z</time></trkpt><trkpt lat="39.9994416" lon="15.7170651"><ele>198.5</ele><time>2026-05-02T09:41:11.847Z</time></trkpt><trkpt lat="39.9995259" lon="15.7171243"><ele>199.66666666666666</ele><time>2026-05-02T09:41:12.852Z</time></trkpt><trkpt lat="39.9996123" lon="15.7171775"><ele>200.83333333333331</ele><time>2026-05-02T09:41:13.868Z</time></trkpt><trkpt lat="39.9996889" lon="15.7172205"><ele>202.0</ele><time>2026-05-02T09:41:14.874Z</time></trkpt><trkpt lat="39.9997566" lon="15.7172591"><ele>202.0</ele><time>2026-05-02T09:41:15.861Z</time></trkpt><trkpt lat="39.9998176" lon="15.7172903"><ele>202.0</ele><time>2026-05-02T09:41:16.866Z</time></trkpt><trkpt lat="39.9999239" lon="15.717353"><ele>202.0</ele><time>2026-05-02T09:41:18.861Z</time></trkpt><trkpt lat="39.9999965" lon="15.7174228"><ele>202.0</ele><time>2026-05-02T09:41:20.867Z</time></trkpt><trkpt lat="40.0000251" lon="15.7175355"><ele>202.0</ele><time>2026-05-02T09:41:22.87Z</time></trkpt><trkpt lat="39.9999721" lon="15.7176643"><ele>202.0</ele><time>2026-05-02T09:41:24.866Z</time></trkpt><trkpt lat="39.9998366" lon="15.7176603"><ele>202.0</ele><time>2026-05-02T09:41:26.867Z</time></trkpt><trkpt lat="39.9997508" lon="15.7176242"><ele>202.0</ele><time>2026-05-02T09:41:27.859Z</time></trkpt><trkpt lat="39.999665" lon="15.7175898"><ele>202.0</ele><time>2026-05-02T09:41:28.866Z</time></trkpt><trkpt lat="39.999589" lon="15.7175685"><ele>202.0</ele><time>2026-05-02T09:41:29.868Z</time></trkpt><trkpt lat="39.9995151" lon="15.71754"><ele>201.99999999999997</ele><time>2026-05-02T09:41:30.875Z</time></trkpt><trkpt lat="39.9994402" lon="15.717515"><ele>202.0</ele><time>2026-05-02T09:41:31.87Z</time></trkpt><trkpt lat="39.9993633" lon="15.7175013"><ele>202.0</ele><time>2026-05-02T09:41:32.876Z</time></trkpt><trkpt lat="39.9992831" lon="15.7174987"><ele>202.0</ele><time>2026-05-02T09:41:33.863Z</time></trkpt><trkpt lat="39.9991975" lon="15.717513"><ele>201.99999999999997</ele><time>2026-05-02T09:41:34.856Z</time></trkpt><trkpt lat="39.9991105" lon="15.7175396"><ele>202.0</ele><time>2026-05-02T09:41:35.869Z</time></trkpt><trkpt lat="39.9990257" lon="15.7175749"><ele>202.66666666666666</ele><time>2026-05-02T09:41:36.884Z</time></trkpt><trkpt lat="39.9989461" lon="15.7176184"><ele>203.33333333333331</ele><time>2026-05-02T09:41:37.868Z</time></trkpt><trkpt lat="39.9988767" lon="15.7176756"><ele>204.0</ele><time>2026-05-02T09:41:38.876Z</time></trkpt><trkpt lat="39.9988098" lon="15.7177394"><ele>204.66666666666669</ele><time>2026-05-02T09:41:39.869Z</time></trkpt><trkpt lat="39.9987478" lon="15.717808"><ele>205.33333333333334</ele><time>2026-05-02T09:41:40.878Z</time></trkpt><trkpt lat="39.9986978" lon="15.7178866"><ele>206.0</ele><time>2026-05-02T09:41:41.868Z</time></trkpt><trkpt lat="39.9986581" lon="15.7179689"><ele>207.8</ele><time>2026-05-02T09:41:42.862Z</time></trkpt><trkpt lat="39.9986249" lon="15.7180445"><ele>209.60000000000002</ele><time>2026-05-02T09:41:43.864Z</time></trkpt><trkpt lat="39.9985813" lon="15.7181666"><ele>211.4</ele><time>2026-05-02T09:41:45.863Z</time></trkpt><trkpt lat="39.9985371" lon="15.7183199"><ele>213.2</ele><time>2026-05-02T09:41:47.866Z</time></trkpt><trkpt lat="39.9985239" lon="15.718421"><ele>215.0</ele><time>2026-05-02T09:41:48.864Z</time></trkpt><trkpt lat="39.9985117" lon="15.7185361"><ele>216.25</ele><time>2026-05-02T09:41:49.869Z</time></trkpt><trkpt lat="39.9985066" lon="15.7186727"><ele>217.5</ele><time>2026-05-02T09:41:50.872Z</time></trkpt><trkpt lat="39.9985138" lon="15.7188222"><ele>218.75</ele><time>2026-05-02T09:41:51.863Z</time></trkpt><trkpt lat="39.9985263" lon="15.7189829"><ele>220.0</ele><time>2026-05-02T09:41:52.865Z</time></trkpt><trkpt lat="39.9985303" lon="15.719149"><ele>220.0</ele><time>2026-05-02T09:41:53.87Z</time></trkpt><trkpt lat="39.9985228" lon="15.7193101"><ele>220.0</ele><time>2026-05-02T09:41:54.871Z</time></trkpt><trkpt lat="39.9984999" lon="15.7194472"><ele>220.0</ele><time>2026-05-02T09:41:55.866Z</time></trkpt><trkpt lat="39.9984536" lon="15.7195629"><ele>220.0</ele><time>2026-05-02T09:41:56.863Z</time></trkpt><trkpt lat="39.998388" lon="15.7196524"><ele>220.0</ele><time>2026-05-02T09:41:57.871Z</time></trkpt><trkpt lat="39.9983033" lon="15.7197159"><ele>221.0</ele><time>2026-05-02T09:41:58.874Z</time></trkpt><trkpt lat="39.9982063" lon="15.7197655"><ele>222.0</ele><time>2026-05-02T09:41:59.859Z</time></trkpt><trkpt lat="39.998101" lon="15.7198024"><ele>223.0</ele><time>2026-05-02T09:42:00.881Z</time></trkpt><trkpt lat="39.9979909" lon="15.7198273"><ele>224.0</ele><time>2026-05-02T09:42:01.861Z</time></trkpt><trkpt lat="39.9978728" lon="15.7198415"><ele>225.0</ele><time>2026-05-02T09:42:02.874Z</time></trkpt><trkpt lat="39.9977482" lon="15.7198597"><ele>225.0</ele><time>2026-05-02T09:42:03.86Z</time></trkpt><trkpt lat="39.9976199" lon="15.719882"><ele>225.0</ele><time>2026-05-02T09:42:04.87Z</time></trkpt><trkpt lat="39.9974892" lon="15.719909"><ele>225.0</ele><time>2026-05-02T09:42:05.868Z</time></trkpt><trkpt lat="39.9973659" lon="15.7199269"><ele>225.0</ele><time>2026-05-02T09:42:06.865Z</time></trkpt><trkpt lat="39.997264" lon="15.7199425"><ele>225.0</ele><time>2026-05-02T09:42:07.865Z</time></trkpt><trkpt lat="39.9971748" lon="15.7199499"><ele>225.0</ele><time>2026-05-02T09:42:08.883Z</time></trkpt><trkpt lat="39.9970901" lon="15.7199296"><ele>225.0</ele><time>2026-05-02T09:42:09.861Z</time></trkpt><trkpt lat="39.9970059" lon="15.7198848"><ele>225.0</ele><time>2026-05-02T09:42:10.862Z</time></trkpt><trkpt lat="39.9969282" lon="15.7198147"><ele>225.0</ele><time>2026-05-02T09:42:11.864Z</time></trkpt><trkpt lat="39.9968642" lon="15.7197186"><ele>225.0</ele><time>2026-05-02T09:42:12.861Z</time></trkpt><trkpt lat="39.9968007" lon="15.7196235"><ele>225.0</ele><time>2026-05-02T09:42:13.877Z</time></trkpt><trkpt lat="39.9967335" lon="15.7195384"><ele>225.0</ele><time>2026-05-02T09:42:14.859Z</time></trkpt><trkpt lat="39.9966707" lon="15.7194698"><ele>225.0</ele><time>2026-05-02T09:42:15.863Z</time></trkpt><trkpt lat="39.9966095" lon="15.719422"><ele>225.0</ele><time>2026-05-02T09:42:16.869Z</time></trkpt><trkpt lat="39.9964995" lon="15.7193942"><ele>224.16666666666666</ele><time>2026-05-02T09:42:18.87Z</time></trkpt><trkpt lat="39.9964282" lon="15.7193924"><ele>223.33333333333331</ele><time>2026-05-02T09:42:24.879Z</time></trkpt><trkpt lat="39.9963408" lon="15.7194057"><ele>222.5</ele><time>2026-05-02T09:42:26.873Z</time></trkpt><trkpt lat="39.996264" lon="15.7194255"><ele>221.66666666666666</ele><time>2026-05-02T09:42:28.875Z</time></trkpt><trkpt lat="39.9961994" lon="15.719435"><ele>220.83333333333331</ele><time>2026-05-02T09:42:30.865Z</time></trkpt><trkpt lat="39.9961223" lon="15.719444"><ele>220.0</ele><time>2026-05-02T09:42:32.868Z</time></trkpt><trkpt lat="39.9960411" lon="15.7194557"><ele>222.8</ele><time>2026-05-02T09:42:34.87Z</time></trkpt><trkpt lat="39.9959561" lon="15.7194698"><ele>225.6</ele><time>2026-05-02T09:42:38.879Z</time></trkpt><trkpt lat="39.9959176" lon="15.7195714"><ele>228.39999999999998</ele><time>2026-05-02T09:42:41.871Z</time></trkpt><trkpt lat="39.9959773" lon="15.7196781"><ele>231.2</ele><time>2026-05-02T09:42:43.862Z</time></trkpt><trkpt lat="39.9960804" lon="15.7197892"><ele>234.0</ele><time>2026-05-02T09:42:45.878Z</time></trkpt><trkpt lat="39.9961236" lon="15.7198697"><ele>234.0</ele><time>2026-05-02T09:42:46.876Z</time></trkpt><trkpt lat="39.9961646" lon="15.7199563"><ele>234.0</ele><time>2026-05-02T09:42:47.853Z</time></trkpt><trkpt lat="39.9962108" lon="15.7200434"><ele>234.0</ele><time>2026-05-02T09:42:48.868Z</time></trkpt><trkpt lat="39.996251" lon="15.7201358"><ele>234.0</ele><time>2026-05-02T09:42:49.858Z</time></trkpt><trkpt lat="39.9962906" lon="15.7202277"><ele>234.0</ele><time>2026-05-02T09:42:50.869Z</time></trkpt><trkpt lat="39.996329" lon="15.7203162"><ele>234.0</ele><time>2026-05-02T09:42:51.874Z</time></trkpt><trkpt lat="39.9963631" lon="15.7204043"><ele>236.0</ele><time>2026-05-02T09:42:52.867Z</time></trkpt><trkpt lat="39.9963874" lon="15.720497"><ele>238.0</ele><time>2026-05-02T09:42:53.869Z</time></trkpt><trkpt lat="39.9963997" lon="15.720606"><ele>240.0</ele><time>2026-05-02T09:42:54.867Z</time></trkpt><trkpt lat="39.9963988" lon="15.7207172"><ele>242.0</ele><time>2026-05-02T09:42:55.875Z</time></trkpt><trkpt lat="39.9963891" lon="15.7208255"><ele>244.0</ele><time>2026-05-02T09:42:56.865Z</time></trkpt><trkpt lat="39.9963878" lon="15.7209346"><ele>246.0</ele><time>2026-05-02T09:42:57.868Z</time></trkpt><trkpt lat="39.9963849" lon="15.7210487"><ele>247.8</ele><time>2026-05-02T09:42:58.874Z</time></trkpt><trkpt lat="39.9963735" lon="15.7211584"><ele>249.60000000000002</ele><time>2026-05-02T09:42:59.883Z</time></trkpt><trkpt lat="39.9963424" lon="15.7212646"><ele>251.4</ele><time>2026-05-02T09:43:00.868Z</time></trkpt><trkpt lat="39.9962978" lon="15.7213599"><ele>253.2</ele><time>2026-05-02T09:43:01.877Z</time></trkpt><trkpt lat="39.9962345" lon="15.7214502"><ele>255.0</ele><time>2026-05-02T09:43:02.868Z</time></trkpt><trkpt lat="39.9961545" lon="15.7215345"><ele>255.0</ele><time>2026-05-02T09:43:03.865Z</time></trkpt><trkpt lat="39.9960644" lon="15.7216023"><ele>255.0</ele><time>2026-05-02T09:43:04.87Z</time></trkpt><trkpt lat="39.9959795" lon="15.7216755"><ele>255.0</ele><time>2026-05-02T09:43:05.855Z</time></trkpt><trkpt lat="39.9958961" lon="15.7217654"><ele>255.0</ele><time>2026-05-02T09:43:06.868Z</time></trkpt><trkpt lat="39.9958293" lon="15.7218543"><ele>255.0</ele><time>2026-05-02T09:43:07.878Z</time></trkpt><trkpt lat="39.9957834" lon="15.7219176"><ele>256.5</ele><time>2026-05-02T09:43:08.856Z</time></trkpt><trkpt lat="39.9957088" lon="15.7220288"><ele>258.0</ele><time>2026-05-02T09:43:10.869Z</time></trkpt><trkpt lat="39.9956605" lon="15.7221435"><ele>259.5</ele><time>2026-05-02T09:43:12.886Z</time></trkpt><trkpt lat="39.9956402" lon="15.722258"><ele>261.0</ele><time>2026-05-02T09:43:14.871Z</time></trkpt><trkpt lat="39.9956141" lon="15.7223373"><ele>262.5</ele><time>2026-05-02T09:43:15.873Z</time></trkpt><trkpt lat="39.9955613" lon="15.7224033"><ele>264.0</ele><time>2026-05-02T09:43:16.873Z</time></trkpt><trkpt lat="39.9955029" lon="15.7224723"><ele>264.0</ele><time>2026-05-02T09:43:17.868Z</time></trkpt><trkpt lat="39.9954493" lon="15.7225581"><ele>264.0</ele><time>2026-05-02T09:43:18.87Z</time></trkpt><trkpt lat="39.9953982" lon="15.7226591"><ele>264.0</ele><time>2026-05-02T09:43:19.854Z</time></trkpt><trkpt lat="39.9953703" lon="15.7227792"><ele>264.0</ele><time>2026-05-02T09:43:20.858Z</time></trkpt><trkpt lat="39.9953847" lon="15.7229137"><ele>264.0</ele><time>2026-05-02T09:43:21.873Z</time></trkpt><trkpt lat="39.9954221" lon="15.7230401"><ele>265.5</ele><time>2026-05-02T09:43:22.865Z</time></trkpt><trkpt lat="39.9954908" lon="15.7231501"><ele>267.0</ele><time>2026-05-02T09:43:23.863Z</time></trkpt><trkpt lat="39.9955841" lon="15.7232422"><ele>268.5</ele><time>2026-05-02T09:43:24.863Z</time></trkpt><trkpt lat="39.9956908" lon="15.7233454"><ele>270.0</ele><time>2026-05-02T09:43:25.866Z</time></trkpt><trkpt lat="39.9957966" lon="15.723458"><ele>271.0</ele><time>2026-05-02T09:43:26.866Z</time></trkpt><trkpt lat="39.995908" lon="15.7235792"><ele>272.0</ele><time>2026-05-02T09:43:27.862Z</time></trkpt><trkpt lat="39.9960175" lon="15.7237075"><ele>273.0</ele><time>2026-05-02T09:43:28.865Z</time></trkpt><trkpt lat="39.9961125" lon="15.7238462"><ele>274.0</ele><time>2026-05-02T09:43:29.872Z</time></trkpt><trkpt lat="39.9961959" lon="15.7240085"><ele>274.0</ele><time>2026-05-02T09:43:30.872Z</time></trkpt><trkpt lat="39.9962678" lon="15.7241828"><ele>274.0</ele><time>2026-05-02T09:43:31.867Z</time></trkpt><trkpt lat="39.996324" lon="15.7243541"><ele>274.0</ele><time>2026-05-02T09:43:32.86Z</time></trkpt><trkpt lat="39.9963652" lon="15.7245205"><ele>274.0</ele><time>2026-05-02T09:43:33.859Z</time></trkpt><trkpt lat="39.9963934" lon="15.7246712"><ele>276.0</ele><time>2026-05-02T09:43:34.862Z</time></trkpt><trkpt lat="39.9964095" lon="15.7247938"><ele>278.0</ele><time>2026-05-02T09:43:35.867Z</time></trkpt><trkpt lat="39.9964132" lon="15.7248894"><ele>280.0</ele><time>2026-05-02T09:43:36.855Z</time></trkpt><trkpt lat="39.9963935" lon="15.7249782"><ele>282.0</ele><time>2026-05-02T09:43:37.869Z</time></trkpt><trkpt lat="39.9963553" lon="15.7250559"><ele>284.0</ele><time>2026-05-02T09:43:38.884Z</time></trkpt><trkpt lat="39.9962938" lon="15.7251411"><ele>286.0</ele><time>2026-05-02T09:43:39.869Z</time></trkpt><trkpt lat="39.9962097" lon="15.7252144"><ele>287.5</ele><time>2026-05-02T09:43:40.875Z</time></trkpt><trkpt lat="39.9961127" lon="15.7252709"><ele>289.0</ele><time>2026-05-02T09:43:41.867Z</time></trkpt><trkpt lat="39.9960279" lon="15.7253203"><ele>290.5</ele><time>2026-05-02T09:43:42.881Z</time></trkpt><trkpt lat="39.9959587" lon="15.7253368"><ele>292.0</ele><time>2026-05-02T09:43:43.871Z</time></trkpt><trkpt lat="39.9958956" lon="15.725303"><ele>293.5</ele><time>2026-05-02T09:43:44.868Z</time></trkpt><trkpt lat="39.9958153" lon="15.7252501"><ele>295.0</ele><time>2026-05-02T09:43:45.864Z</time></trkpt><trkpt lat="39.9957206" lon="15.7251775"><ele>295.0</ele><time>2026-05-02T09:43:46.86Z</time></trkpt><trkpt lat="39.9956219" lon="15.7251143"><ele>295.0</ele><time>2026-05-02T09:43:47.86Z</time></trkpt><trkpt lat="39.9955172" lon="15.7250672"><ele>295.0</ele><time>2026-05-02T09:43:48.867Z</time></trkpt><trkpt lat="39.9953978" lon="15.725057"><ele>295.0</ele><time>2026-05-02T09:43:49.856Z</time></trkpt><trkpt lat="39.995276" lon="15.7250767"><ele>295.0</ele><time>2026-05-02T09:43:50.863Z</time></trkpt><trkpt lat="39.9951644" lon="15.7251125"><ele>295.0</ele><time>2026-05-02T09:43:51.861Z</time></trkpt><trkpt lat="39.9950586" lon="15.7251564"><ele>295.0</ele><time>2026-05-02T09:43:52.884Z</time></trkpt><trkpt lat="39.9949686" lon="15.7252126"><ele>295.0</ele><time>2026-05-02T09:43:53.862Z</time></trkpt><trkpt lat="39.9948993" lon="15.7252687"><ele>295.0</ele><time>2026-05-02T09:43:54.865Z</time></trkpt><trkpt lat="39.9948249" lon="15.7253502"><ele>297.0</ele><time>2026-05-02T09:43:56.868Z</time></trkpt><trkpt lat="39.9948216" lon="15.7254342"><ele>299.0</ele><time>2026-05-02T09:43:58.873Z</time></trkpt><trkpt lat="39.994872" lon="15.7255436"><ele>301.0</ele><time>2026-05-02T09:44:00.866Z</time></trkpt><trkpt lat="39.9949304" lon="15.7255902"><ele>303.0</ele><time>2026-05-02T09:44:01.864Z</time></trkpt><trkpt lat="39.9950194" lon="15.7256286"><ele>305.0</ele><time>2026-05-02T09:44:02.864Z</time></trkpt><trkpt lat="39.9951273" lon="15.725651"><ele>307.0</ele><time>2026-05-02T09:44:03.865Z</time></trkpt><trkpt lat="39.9952386" lon="15.7256669"><ele>307.0</ele><time>2026-05-02T09:44:04.861Z</time></trkpt><trkpt lat="39.9953408" lon="15.7256832"><ele>307.0</ele><time>2026-05-02T09:44:05.862Z</time></trkpt><trkpt lat="39.9954396" lon="15.7256987"><ele>307.0</ele><time>2026-05-02T09:44:06.871Z</time></trkpt><trkpt lat="39.9955443" lon="15.7257228"><ele>307.0</ele><time>2026-05-02T09:44:07.867Z</time></trkpt><trkpt lat="39.9956485" lon="15.7257644"><ele>307.0</ele><time>2026-05-02T09:44:08.873Z</time></trkpt><trkpt lat="39.9957506" lon="15.7258168"><ele>308.75</ele><time>2026-05-02T09:44:09.866Z</time></trkpt><trkpt lat="39.9958505" lon="15.7258888"><ele>310.5</ele><time>2026-05-02T09:44:10.874Z</time></trkpt><trkpt lat="39.9959415" lon="15.7259847"><ele>312.25</ele><time>2026-05-02T09:44:11.866Z</time></trkpt><trkpt lat="39.9960293" lon="15.7261074"><ele>314.0</ele><time>2026-05-02T09:44:12.864Z</time></trkpt><trkpt lat="39.9961223" lon="15.7262364"><ele>314.0</ele><time>2026-05-02T09:44:13.872Z</time></trkpt><trkpt lat="39.9962163" lon="15.7263688"><ele>314.0</ele><time>2026-05-02T09:44:14.857Z</time></trkpt><trkpt lat="39.9963183" lon="15.7264933"><ele>314.0</ele><time>2026-05-02T09:44:15.861Z</time></trkpt><trkpt lat="39.9964328" lon="15.7266032"><ele>314.0</ele><time>2026-05-02T09:44:16.871Z</time></trkpt><trkpt lat="39.9965606" lon="15.7266931"><ele>314.5</ele><time>2026-05-02T09:44:17.856Z</time></trkpt><trkpt lat="39.9966875" lon="15.7267628"><ele>315.0</ele><time>2026-05-02T09:44:18.861Z</time></trkpt><trkpt lat="39.9967987" lon="15.7268049"><ele>315.5</ele><time>2026-05-02T09:44:19.86Z</time></trkpt><trkpt lat="39.9968994" lon="15.7268161"><ele>316.0</ele><time>2026-05-02T09:44:20.864Z</time></trkpt><trkpt lat="39.9970102" lon="15.726793"><ele>316.0</ele><time>2026-05-02T09:44:21.851Z</time></trkpt><trkpt lat="39.9971356" lon="15.7267288"><ele>316.0</ele><time>2026-05-02T09:44:22.854Z</time></trkpt><trkpt lat="39.9972712" lon="15.7266645"><ele>316.0</ele><time>2026-05-02T09:44:23.857Z</time></trkpt><trkpt lat="39.9974108" lon="15.726595"><ele>316.0</ele><time>2026-05-02T09:44:24.868Z</time></trkpt><trkpt lat="39.997547" lon="15.7265211"><ele>315.8</ele><time>2026-05-02T09:44:25.856Z</time></trkpt><trkpt lat="39.9976647" lon="15.7264639"><ele>315.6</ele><time>2026-05-02T09:44:26.865Z</time></trkpt><trkpt lat="39.9977709" lon="15.7264355"><ele>315.4</ele><time>2026-05-02T09:44:27.863Z</time></trkpt><trkpt lat="39.9978672" lon="15.7264527"><ele>315.2</ele><time>2026-05-02T09:44:28.869Z</time></trkpt><trkpt lat="39.997973" lon="15.7265198"><ele>315.0</ele><time>2026-05-02T09:44:29.86Z</time></trkpt><trkpt lat="39.9980914" lon="15.726595"><ele>315.0</ele><time>2026-05-02T09:44:30.867Z</time></trkpt><trkpt lat="39.9982211" lon="15.726685"><ele>315.0</ele><time>2026-05-02T09:44:31.868Z</time></trkpt><trkpt lat="39.9983644" lon="15.7267306"><ele>315.0</ele><time>2026-05-02T09:44:32.868Z</time></trkpt><trkpt lat="39.9985196" lon="15.7267467"><ele>317.6666666666667</ele><time>2026-05-02T09:44:33.86Z</time></trkpt><trkpt lat="39.9986837" lon="15.7267535"><ele>320.33333333333337</ele><time>2026-05-02T09:44:34.87Z</time></trkpt><trkpt lat="39.9988428" lon="15.7267612"><ele>323.0</ele><time>2026-05-02T09:44:35.864Z</time></trkpt><trkpt lat="39.9989733" lon="15.7267711"><ele>323.0</ele><time>2026-05-02T09:44:36.867Z</time></trkpt><trkpt lat="39.9990869" lon="15.7267628"><ele>323.0</ele><time>2026-05-02T09:44:37.861Z</time></trkpt><trkpt lat="39.9991943" lon="15.7267106"><ele>323.0</ele><time>2026-05-02T09:44:38.866Z</time></trkpt><trkpt lat="39.9993089" lon="15.7266094"><ele>323.0</ele><time>2026-05-02T09:44:39.865Z</time></trkpt><trkpt lat="39.9994219" lon="15.7264786"><ele>325.25</ele><time>2026-05-02T09:44:40.866Z</time></trkpt><trkpt lat="39.9995308" lon="15.7263426"><ele>327.5</ele><time>2026-05-02T09:44:41.871Z</time></trkpt><trkpt lat="39.99964" lon="15.7262107"><ele>329.75</ele><time>2026-05-02T09:44:42.858Z</time></trkpt><trkpt lat="39.9997198" lon="15.7260864"><ele>332.0</ele><time>2026-05-02T09:44:43.863Z</time></trkpt><trkpt lat="39.9997708" lon="15.7259565"><ele>332.0</ele><time>2026-05-02T09:44:44.869Z</time></trkpt><trkpt lat="39.9997944" lon="15.7258303"><ele>332.0</ele><time>2026-05-02T09:44:45.873Z</time></trkpt><trkpt lat="39.9998115" lon="15.7256999"><ele>332.0</ele><time>2026-05-02T09:44:46.861Z</time></trkpt><trkpt lat="39.9998297" lon="15.7255897"><ele>332.0</ele><time>2026-05-02T09:44:47.864Z</time></trkpt><trkpt lat="39.9998845" lon="15.7254559"><ele>332.0</ele><time>2026-05-02T09:44:49.868Z</time></trkpt><trkpt lat="39.9999763" lon="15.7253274"><ele>332.0</ele><time>2026-05-02T09:44:51.864Z</time></trkpt><trkpt lat="40.0000379" lon="15.7252665"><ele>332.0</ele><time>2026-05-02T09:44:52.872Z</time></trkpt><trkpt lat="40.0001001" lon="15.7252071"><ele>332.0</ele><time>2026-05-02T09:44:53.871Z</time></trkpt><trkpt lat="40.0001621" lon="15.7251831"><ele>332.0</ele><time>2026-05-02T09:44:54.874Z</time></trkpt><trkpt lat="40.0002854" lon="15.7251884"><ele>332.0</ele><time>2026-05-02T09:44:56.866Z</time></trkpt><trkpt lat="40.0003516" lon="15.7252107"><ele>332.0</ele><time>2026-05-02T09:44:57.872Z</time></trkpt><trkpt lat="40.0004238" lon="15.725247"><ele>332.0</ele><time>2026-05-02T09:44:58.866Z</time></trkpt><trkpt lat="40.0004936" lon="15.7253004"><ele>332.0</ele><time>2026-05-02T09:44:59.877Z</time></trkpt><trkpt lat="40.0005699" lon="15.7253667"><ele>332.0</ele><time>2026-05-02T09:45:00.867Z</time></trkpt><trkpt lat="40.0006434" lon="15.7254551"><ele>332.0</ele><time>2026-05-02T09:45:01.859Z</time></trkpt><trkpt lat="40.0007141" lon="15.7255587"><ele>332.0</ele><time>2026-05-02T09:45:02.866Z</time></trkpt><trkpt lat="40.0007812" lon="15.7256885"><ele>331.25</ele><time>2026-05-02T09:45:03.865Z</time></trkpt><trkpt lat="40.0008459" lon="15.7258395"><ele>330.5</ele><time>2026-05-02T09:45:04.868Z</time></trkpt><trkpt lat="40.0009095" lon="15.7259955"><ele>329.75</ele><time>2026-05-02T09:45:05.923Z</time></trkpt><trkpt lat="40.0009919" lon="15.7261525"><ele>329.0</ele><time>2026-05-02T09:45:06.877Z</time></trkpt><trkpt lat="40.0010852" lon="15.7263077"><ele>333.75</ele><time>2026-05-02T09:45:07.868Z</time></trkpt><trkpt lat="40.0011759" lon="15.7264719"><ele>338.5</ele><time>2026-05-02T09:45:08.862Z</time></trkpt><trkpt lat="40.001258" lon="15.7266315"><ele>343.25</ele><time>2026-05-02T09:45:09.872Z</time></trkpt><trkpt lat="40.0013389" lon="15.7267622"><ele>348.0</ele><time>2026-05-02T09:45:10.866Z</time></trkpt><trkpt lat="40.0014291" lon="15.7268546"><ele>348.25</ele><time>2026-05-02T09:45:11.865Z</time></trkpt><trkpt lat="40.0015465" lon="15.7269128"><ele>348.5</ele><time>2026-05-02T09:45:12.868Z</time></trkpt><trkpt lat="40.001689" lon="15.7269466"><ele>348.75</ele><time>2026-05-02T09:45:13.86Z</time></trkpt><trkpt lat="40.0018425" lon="15.7269706"><ele>349.0</ele><time>2026-05-02T09:45:14.871Z</time></trkpt><trkpt lat="40.0020029" lon="15.7269907"><ele>350.0</ele><time>2026-05-02T09:45:15.863Z</time></trkpt><trkpt lat="40.0021666" lon="15.7270169"><ele>351.0</ele><time>2026-05-02T09:45:16.87Z</time></trkpt><trkpt lat="40.0023308" lon="15.7270463"><ele>352.0</ele><time>2026-05-02T09:45:17.863Z</time></trkpt><trkpt lat="40.0024941" lon="15.7270818"><ele>353.66666666666663</ele><time>2026-05-02T09:45:18.853Z</time></trkpt><trkpt lat="40.0026622" lon="15.7270995"><ele>355.3333333333333</ele><time>2026-05-02T09:45:19.849Z</time></trkpt><trkpt lat="40.0028354" lon="15.7271046"><ele>357.0</ele><time>2026-05-02T09:45:20.872Z</time></trkpt><trkpt lat="40.0030104" lon="15.7270996"><ele>357.0</ele><time>2026-05-02T09:45:21.854Z</time></trkpt><trkpt lat="40.0031884" lon="15.7270745"><ele>357.0</ele><time>2026-05-02T09:45:22.877Z</time></trkpt><trkpt lat="40.0033682" lon="15.7270301"><ele>357.0</ele><time>2026-05-02T09:45:23.877Z</time></trkpt><trkpt lat="40.0035564" lon="15.726966"><ele>347.0</ele><time>2026-05-02T09:45:24.862Z</time></trkpt><trkpt lat="40.0037457" lon="15.7268903"><ele>337.0</ele><time>2026-05-02T09:45:25.864Z</time></trkpt><trkpt lat="40.0039343" lon="15.7268026"><ele>327.0</ele><time>2026-05-02T09:45:26.865Z</time></trkpt><trkpt lat="40.0041246" lon="15.7267138"><ele>331.6666666666667</ele><time>2026-05-02T09:45:27.862Z</time></trkpt><trkpt lat="40.0043076" lon="15.7266329"><ele>336.33333333333337</ele><time>2026-05-02T09:45:28.862Z</time></trkpt><trkpt lat="40.0044736" lon="15.7265682"><ele>341.0</ele><time>2026-05-02T09:45:29.859Z</time></trkpt><trkpt lat="40.004609" lon="15.7265037"><ele>341.0</ele><time>2026-05-02T09:45:30.868Z</time></trkpt><trkpt lat="40.0047294" lon="15.726456"><ele>341.0</ele><time>2026-05-02T09:45:31.862Z</time></trkpt><trkpt lat="40.0048553" lon="15.7264112"><ele>341.0</ele><time>2026-05-02T09:45:32.875Z</time></trkpt><trkpt lat="40.0050006" lon="15.7263871"><ele>341.0</ele><time>2026-05-02T09:45:33.852Z</time></trkpt><trkpt lat="40.0051532" lon="15.726372"><ele>344.0</ele><time>2026-05-02T09:45:34.857Z</time></trkpt><trkpt lat="40.0053056" lon="15.7263546"><ele>347.0</ele><time>2026-05-02T09:45:35.868Z</time></trkpt><trkpt lat="40.0054578" lon="15.7263461"><ele>350.0</ele><time>2026-05-02T09:45:36.868Z</time></trkpt><trkpt lat="40.0056055" lon="15.7263607"><ele>350.0</ele><time>2026-05-02T09:45:37.865Z</time></trkpt><trkpt lat="40.0057521" lon="15.7263972"><ele>350.0</ele><time>2026-05-02T09:45:38.849Z</time></trkpt><trkpt lat="40.0058937" lon="15.7264446"><ele>350.0</ele><time>2026-05-02T09:45:39.853Z</time></trkpt><trkpt lat="40.0060336" lon="15.7265029"><ele>350.0</ele><time>2026-05-02T09:45:40.857Z</time></trkpt><trkpt lat="40.0061706" lon="15.7265785"><ele>348.6666666666667</ele><time>2026-05-02T09:45:41.865Z</time></trkpt><trkpt lat="40.0063026" lon="15.7266728"><ele>347.3333333333333</ele><time>2026-05-02T09:45:42.864Z</time></trkpt><trkpt lat="40.006436" lon="15.7267719"><ele>346.0</ele><time>2026-05-02T09:45:43.857Z</time></trkpt><trkpt lat="40.0065721" lon="15.7268559"><ele>355.3333333333333</ele><time>2026-05-02T09:45:44.868Z</time></trkpt><trkpt lat="40.0067147" lon="15.7269107"><ele>364.6666666666667</ele><time>2026-05-02T09:45:45.856Z</time></trkpt><trkpt lat="40.0068668" lon="15.7269415"><ele>374.0</ele><time>2026-05-02T09:45:46.865Z</time></trkpt><trkpt lat="40.0070256" lon="15.726966"><ele>374.0</ele><time>2026-05-02T09:45:47.867Z</time></trkpt><trkpt lat="40.0071756" lon="15.7269756"><ele>374.0</ele><time>2026-05-02T09:45:48.869Z</time></trkpt><trkpt lat="40.0073067" lon="15.7269597"><ele>374.0</ele><time>2026-05-02T09:45:49.865Z</time></trkpt><trkpt lat="40.0074363" lon="15.7269136"><ele>374.0</ele><time>2026-05-02T09:45:50.861Z</time></trkpt><trkpt lat="40.0075666" lon="15.7268268"><ele>362.6666666666667</ele><time>2026-05-02T09:45:51.863Z</time></trkpt><trkpt lat="40.0076956" lon="15.7267211"><ele>351.3333333333333</ele><time>2026-05-02T09:45:52.878Z</time></trkpt><trkpt lat="40.007829" lon="15.7266358"><ele>340.0</ele><time>2026-05-02T09:45:53.867Z</time></trkpt><trkpt lat="40.0079772" lon="15.7265744"><ele>340.0</ele><time>2026-05-02T09:45:54.872Z</time></trkpt><trkpt lat="40.0081218" lon="15.7265416"><ele>340.0</ele><time>2026-05-02T09:45:55.871Z</time></trkpt><trkpt lat="40.0082601" lon="15.7265094"><ele>340.0</ele><time>2026-05-02T09:45:56.874Z</time></trkpt><trkpt lat="40.0084062" lon="15.7264996"><ele>340.0</ele><time>2026-05-02T09:45:57.859Z</time></trkpt><trkpt lat="40.008553" lon="15.7265027"><ele>343.0</ele><time>2026-05-02T09:45:58.869Z</time></trkpt><trkpt lat="40.0086859" lon="15.7264872"><ele>346.0</ele><time>2026-05-02T09:45:59.871Z</time></trkpt><trkpt lat="40.0088116" lon="15.7264459"><ele>349.0</ele><time>2026-05-02T09:46:00.875Z</time></trkpt><trkpt lat="40.0089396" lon="15.7263526"><ele>352.0</ele><time>2026-05-02T09:46:01.867Z</time></trkpt><trkpt lat="40.0090525" lon="15.7262339"><ele>354.25</ele><time>2026-05-02T09:46:02.859Z</time></trkpt><trkpt lat="40.0091637" lon="15.7261399"><ele>356.5</ele><time>2026-05-02T09:46:03.861Z</time></trkpt><trkpt lat="40.0092895" lon="15.7260754"><ele>358.75</ele><time>2026-05-02T09:46:04.857Z</time></trkpt><trkpt lat="40.0094397" lon="15.7260228"><ele>361.0</ele><time>2026-05-02T09:46:05.861Z</time></trkpt><trkpt lat="40.009591" lon="15.7259602"><ele>358.3333333333333</ele><time>2026-05-02T09:46:06.875Z</time></trkpt><trkpt lat="40.0097372" lon="15.7258695"><ele>355.6666666666667</ele><time>2026-05-02T09:46:07.863Z</time></trkpt><trkpt lat="40.0098789" lon="15.725766"><ele>353.0</ele><time>2026-05-02T09:46:08.863Z</time></trkpt><trkpt lat="40.0100049" lon="15.7256705"><ele>353.0</ele><time>2026-05-02T09:46:09.868Z</time></trkpt><trkpt lat="40.0101209" lon="15.7255915"><ele>353.0</ele><time>2026-05-02T09:46:10.861Z</time></trkpt><trkpt lat="40.010234" lon="15.7255447"><ele>353.0</ele><time>2026-05-02T09:46:11.86Z</time></trkpt><trkpt lat="40.0103512" lon="15.7255191"><ele>353.0</ele><time>2026-05-02T09:46:12.865Z</time></trkpt><trkpt lat="40.0104846" lon="15.7255109"><ele>353.0</ele><time>2026-05-02T09:46:13.842Z</time></trkpt><trkpt lat="40.0106301" lon="15.7255296"><ele>353.0</ele><time>2026-05-02T09:46:14.869Z</time></trkpt><trkpt lat="40.0107781" lon="15.7255471"><ele>353.0</ele><time>2026-05-02T09:46:15.855Z</time></trkpt><trkpt lat="40.0109303" lon="15.725545"><ele>353.0</ele><time>2026-05-02T09:46:16.867Z</time></trkpt><trkpt lat="40.0110599" lon="15.7255367"><ele>353.59999999999997</ele><time>2026-05-02T09:46:17.855Z</time></trkpt><trkpt lat="40.0111678" lon="15.7255373"><ele>354.2</ele><time>2026-05-02T09:46:18.869Z</time></trkpt><trkpt lat="40.0112633" lon="15.7255435"><ele>354.8</ele><time>2026-05-02T09:46:19.861Z</time></trkpt><trkpt lat="40.0113432" lon="15.7255759"><ele>355.4</ele><time>2026-05-02T09:46:20.866Z</time></trkpt><trkpt lat="40.0114157" lon="15.7256557"><ele>356.0</ele><time>2026-05-02T09:46:21.874Z</time></trkpt><trkpt lat="40.0114737" lon="15.7257507"><ele>356.0</ele><time>2026-05-02T09:46:22.87Z</time></trkpt><trkpt lat="40.0115184" lon="15.7258634"><ele>356.0</ele><time>2026-05-02T09:46:23.865Z</time></trkpt><trkpt lat="40.0115249" lon="15.725999"><ele>356.0</ele><time>2026-05-02T09:46:24.862Z</time></trkpt><trkpt lat="40.0115087" lon="15.7261538"><ele>356.0</ele><time>2026-05-02T09:46:25.865Z</time></trkpt><trkpt lat="40.0114772" lon="15.7263329"><ele>357.6666666666667</ele><time>2026-05-02T09:46:26.863Z</time></trkpt><trkpt lat="40.0114396" lon="15.7265245"><ele>359.3333333333333</ele><time>2026-05-02T09:46:27.868Z</time></trkpt><trkpt lat="40.011404" lon="15.7267317"><ele>361.0</ele><time>2026-05-02T09:46:28.872Z</time></trkpt><trkpt lat="40.0113676" lon="15.7269503"><ele>361.3333333333333</ele><time>2026-05-02T09:46:29.865Z</time></trkpt><trkpt lat="40.0113329" lon="15.727172"><ele>361.6666666666667</ele><time>2026-05-02T09:46:30.877Z</time></trkpt><trkpt lat="40.0113055" lon="15.7273909"><ele>362.0</ele><time>2026-05-02T09:46:31.856Z</time></trkpt><trkpt lat="40.011281" lon="15.7275953"><ele>364.75</ele><time>2026-05-02T09:46:32.865Z</time></trkpt><trkpt lat="40.0112511" lon="15.7277666"><ele>367.5</ele><time>2026-05-02T09:46:33.859Z</time></trkpt><trkpt lat="40.0112227" lon="15.7279428"><ele>370.25</ele><time>2026-05-02T09:46:34.865Z</time></trkpt><trkpt lat="40.0111945" lon="15.7281149"><ele>373.0</ele><time>2026-05-02T09:46:35.866Z</time></trkpt><trkpt lat="40.0111638" lon="15.7282776"><ele>373.0</ele><time>2026-05-02T09:46:36.865Z</time></trkpt><trkpt lat="40.0111212" lon="15.7284143"><ele>373.0</ele><time>2026-05-02T09:46:37.863Z</time></trkpt><trkpt lat="40.0110678" lon="15.7285337"><ele>373.0</ele><time>2026-05-02T09:46:38.863Z</time></trkpt><trkpt lat="40.0109822" lon="15.7286436"><ele>373.0</ele><time>2026-05-02T09:46:39.859Z</time></trkpt><trkpt lat="40.0108759" lon="15.7287088"><ele>379.0</ele><time>2026-05-02T09:46:40.872Z</time></trkpt><trkpt lat="40.0107559" lon="15.7287405"><ele>385.0</ele><time>2026-05-02T09:46:41.855Z</time></trkpt><trkpt lat="40.010633" lon="15.728737"><ele>391.0</ele><time>2026-05-02T09:46:42.87Z</time></trkpt><trkpt lat="40.0105133" lon="15.7287068"><ele>397.0</ele><time>2026-05-02T09:46:43.853Z</time></trkpt><trkpt lat="40.0104312" lon="15.7286421"><ele>394.0</ele><time>2026-05-02T09:46:44.857Z</time></trkpt><trkpt lat="40.0103627" lon="15.7285511"><ele>391.0</ele><time>2026-05-02T09:46:45.87Z</time></trkpt><trkpt lat="40.0102935" lon="15.7284333"><ele>388.0</ele><time>2026-05-02T09:46:46.864Z</time></trkpt><trkpt lat="40.010228" lon="15.7282974"><ele>385.0</ele><time>2026-05-02T09:46:47.859Z</time></trkpt><trkpt lat="40.0101568" lon="15.7281643"><ele>385.0</ele><time>2026-05-02T09:46:48.866Z</time></trkpt><trkpt lat="40.0100782" lon="15.7280164"><ele>385.0</ele><time>2026-05-02T09:46:49.861Z</time></trkpt><trkpt lat="40.0099989" lon="15.7278656"><ele>385.0</ele><time>2026-05-02T09:46:50.867Z</time></trkpt><trkpt lat="40.0099128" lon="15.7277157"><ele>385.0</ele><time>2026-05-02T09:46:51.871Z</time></trkpt><trkpt lat="40.0098194" lon="15.7275739"><ele>384.5</ele><time>2026-05-02T09:46:52.869Z</time></trkpt><trkpt lat="40.009713" lon="15.7274318"><ele>384.0</ele><time>2026-05-02T09:46:53.868Z</time></trkpt><trkpt lat="40.0096014" lon="15.7272958"><ele>383.5</ele><time>2026-05-02T09:46:54.861Z</time></trkpt><trkpt lat="40.0094997" lon="15.7271775"><ele>383.0</ele><time>2026-05-02T09:46:55.871Z</time></trkpt><trkpt lat="40.0094146" lon="15.7270853"><ele>383.0</ele><time>2026-05-02T09:46:56.87Z</time></trkpt><trkpt lat="40.0093278" lon="15.7270166"><ele>383.0</ele><time>2026-05-02T09:46:57.863Z</time></trkpt><trkpt lat="40.0092193" lon="15.7269903"><ele>383.0</ele><time>2026-05-02T09:46:58.874Z</time></trkpt><trkpt lat="40.0091116" lon="15.7270069"><ele>383.0</ele><time>2026-05-02T09:46:59.852Z</time></trkpt><trkpt lat="40.0089987" lon="15.7270604"><ele>383.0</ele><time>2026-05-02T09:47:00.87Z</time></trkpt><trkpt lat="40.0088841" lon="15.727131"><ele>381.25</ele><time>2026-05-02T09:47:01.871Z</time></trkpt><trkpt lat="40.0087808" lon="15.7272446"><ele>379.5</ele><time>2026-05-02T09:47:02.865Z</time></trkpt><trkpt lat="40.0086806" lon="15.7273905"><ele>377.75</ele><time>2026-05-02T09:47:03.863Z</time></trkpt><trkpt lat="40.0085844" lon="15.7275408"><ele>376.0</ele><time>2026-05-02T09:47:04.869Z</time></trkpt><trkpt lat="40.0084819" lon="15.7276802"><ele>380.5</ele><time>2026-05-02T09:47:05.866Z</time></trkpt><trkpt lat="40.008376" lon="15.7278002"><ele>385.0</ele><time>2026-05-02T09:47:06.858Z</time></trkpt><trkpt lat="40.0082554" lon="15.7278863"><ele>389.5</ele><time>2026-05-02T09:47:07.869Z</time></trkpt><trkpt lat="40.0081163" lon="15.7279516"><ele>394.0</ele><time>2026-05-02T09:47:08.877Z</time></trkpt><trkpt lat="40.0079657" lon="15.7280134"><ele>394.33333333333337</ele><time>2026-05-02T09:47:09.856Z</time></trkpt><trkpt lat="40.0078063" lon="15.7280837"><ele>394.66666666666663</ele><time>2026-05-02T09:47:10.868Z</time></trkpt><trkpt lat="40.007649" lon="15.7281495"><ele>395.0</ele><time>2026-05-02T09:47:11.862Z</time></trkpt><trkpt lat="40.0074951" lon="15.7282108"><ele>397.0</ele><time>2026-05-02T09:47:12.87Z</time></trkpt><trkpt lat="40.007352" lon="15.728271"><ele>399.0</ele><time>2026-05-02T09:47:13.868Z</time></trkpt><trkpt lat="40.007233" lon="15.7283225"><ele>401.0</ele><time>2026-05-02T09:47:14.869Z</time></trkpt><trkpt lat="40.0071356" lon="15.7283685"><ele>403.0</ele><time>2026-05-02T09:47:15.852Z</time></trkpt><trkpt lat="40.0070613" lon="15.7284245"><ele>403.0</ele><time>2026-05-02T09:47:16.872Z</time></trkpt><trkpt lat="40.0070079" lon="15.7284893"><ele>403.0</ele><time>2026-05-02T09:47:17.86Z</time></trkpt><trkpt lat="40.0069823" lon="15.7285946"><ele>403.0</ele><time>2026-05-02T09:47:18.864Z</time></trkpt><trkpt lat="40.0070165" lon="15.728735"><ele>403.0</ele><time>2026-05-02T09:47:19.86Z</time></trkpt><trkpt lat="40.007068" lon="15.7288655"><ele>403.0</ele><time>2026-05-02T09:47:20.857Z</time></trkpt><trkpt lat="40.0071284" lon="15.729016"><ele>407.0</ele><time>2026-05-02T09:47:21.868Z</time></trkpt><trkpt lat="40.0072036" lon="15.7291844"><ele>411.0</ele><time>2026-05-02T09:47:22.863Z</time></trkpt><trkpt lat="40.0072752" lon="15.7293621"><ele>415.0</ele><time>2026-05-02T09:47:23.865Z</time></trkpt><trkpt lat="40.0073483" lon="15.7295363"><ele>417.0</ele><time>2026-05-02T09:47:24.874Z</time></trkpt><trkpt lat="40.0074348" lon="15.7296942"><ele>419.0</ele><time>2026-05-02T09:47:25.856Z</time></trkpt><trkpt lat="40.0075497" lon="15.7298257"><ele>421.0</ele><time>2026-05-02T09:47:26.858Z</time></trkpt><trkpt lat="40.0076876" lon="15.729929"><ele>421.0</ele><time>2026-05-02T09:47:27.859Z</time></trkpt><trkpt lat="40.0078437" lon="15.7299985"><ele>421.0</ele><time>2026-05-02T09:47:28.861Z</time></trkpt><trkpt lat="40.0080198" lon="15.7300393"><ele>421.0</ele><time>2026-05-02T09:47:29.852Z</time></trkpt><trkpt lat="40.0082091" lon="15.7300711"><ele>420.0</ele><time>2026-05-02T09:47:30.87Z</time></trkpt><trkpt lat="40.0084105" lon="15.7300961"><ele>419.0</ele><time>2026-05-02T09:47:31.846Z</time></trkpt><trkpt lat="40.0086235" lon="15.7301046"><ele>418.0</ele><time>2026-05-02T09:47:32.862Z</time></trkpt><trkpt lat="40.0088396" lon="15.7300918"><ele>418.0</ele><time>2026-05-02T09:47:33.864Z</time></trkpt><trkpt lat="40.0090554" lon="15.7300671"><ele>418.0</ele><time>2026-05-02T09:47:34.868Z</time></trkpt><trkpt lat="40.0092605" lon="15.7300379"><ele>418.0</ele><time>2026-05-02T09:47:35.86Z</time></trkpt><trkpt lat="40.0094507" lon="15.7300035"><ele>418.0</ele><time>2026-05-02T09:47:36.87Z</time></trkpt><trkpt lat="40.0096449" lon="15.7299709"><ele>418.0</ele><time>2026-05-02T09:47:37.861Z</time></trkpt><trkpt lat="40.0098363" lon="15.7299117"><ele>418.0</ele><time>2026-05-02T09:47:38.856Z</time></trkpt><trkpt lat="40.0100355" lon="15.7298449"><ele>422.0</ele><time>2026-05-02T09:47:39.852Z</time></trkpt><trkpt lat="40.0102342" lon="15.7297868"><ele>426.0</ele><time>2026-05-02T09:47:40.869Z</time></trkpt><trkpt lat="40.0104271" lon="15.7297413"><ele>430.0</ele><time>2026-05-02T09:47:41.852Z</time></trkpt><trkpt lat="40.0105962" lon="15.7297029"><ele>430.0</ele><time>2026-05-02T09:47:42.857Z</time></trkpt><trkpt lat="40.0107509" lon="15.7296786"><ele>430.0</ele><time>2026-05-02T09:47:43.856Z</time></trkpt><trkpt lat="40.0108952" lon="15.7296702"><ele>430.0</ele><time>2026-05-02T09:47:44.861Z</time></trkpt><trkpt lat="40.0110364" lon="15.7296491"><ele>430.0</ele><time>2026-05-02T09:47:45.859Z</time></trkpt><trkpt lat="40.0111768" lon="15.7295787"><ele>436.33333333333337</ele><time>2026-05-02T09:47:46.866Z</time></trkpt><trkpt lat="40.011317" lon="15.7294663"><ele>442.66666666666663</ele><time>2026-05-02T09:47:47.864Z</time></trkpt><trkpt lat="40.0114588" lon="15.7293344"><ele>449.0</ele><time>2026-05-02T09:47:48.864Z</time></trkpt><trkpt lat="40.0115967" lon="15.7292246"><ele>442.75</ele><time>2026-05-02T09:47:49.863Z</time></trkpt><trkpt lat="40.0117287" lon="15.7291371"><ele>436.5</ele><time>2026-05-02T09:47:50.874Z</time></trkpt><trkpt lat="40.011856" lon="15.72907"><ele>430.25</ele><time>2026-05-02T09:47:51.871Z</time></trkpt><trkpt lat="40.0119663" lon="15.7290258"><ele>424.0</ele><time>2026-05-02T09:47:52.862Z</time></trkpt><trkpt lat="40.0120704" lon="15.7289992"><ele>424.0</ele><time>2026-05-02T09:47:53.859Z</time></trkpt><trkpt lat="40.0121906" lon="15.7290087"><ele>424.0</ele><time>2026-05-02T09:47:54.876Z</time></trkpt><trkpt lat="40.0123223" lon="15.7290466"><ele>424.0</ele><time>2026-05-02T09:47:55.863Z</time></trkpt><trkpt lat="40.0124744" lon="15.7291032"><ele>424.0</ele><time>2026-05-02T09:47:56.855Z</time></trkpt><trkpt lat="40.012641" lon="15.7291647"><ele>430.0</ele><time>2026-05-02T09:47:57.859Z</time></trkpt><trkpt lat="40.0128063" lon="15.7292104"><ele>436.0</ele><time>2026-05-02T09:47:58.862Z</time></trkpt><trkpt lat="40.0129569" lon="15.7292519"><ele>442.0</ele><time>2026-05-02T09:47:59.862Z</time></trkpt><trkpt lat="40.0130894" lon="15.7292798"><ele>442.0</ele><time>2026-05-02T09:48:00.87Z</time></trkpt><trkpt lat="40.0132367" lon="15.7292388"><ele>442.0</ele><time>2026-05-02T09:48:01.867Z</time></trkpt><trkpt lat="40.0133831" lon="15.7291727"><ele>442.0</ele><time>2026-05-02T09:48:02.86Z</time></trkpt><trkpt lat="40.013522" lon="15.7290517"><ele>442.33333333333337</ele><time>2026-05-02T09:48:03.855Z</time></trkpt><trkpt lat="40.0136574" lon="15.7289104"><ele>442.66666666666663</ele><time>2026-05-02T09:48:04.877Z</time></trkpt><trkpt lat="40.0137789" lon="15.7287571"><ele>443.0</ele><time>2026-05-02T09:48:05.863Z</time></trkpt><trkpt lat="40.0138992" lon="15.7285865"><ele>442.3333333333333</ele><time>2026-05-02T09:48:06.855Z</time></trkpt><trkpt lat="40.0140222" lon="15.7284051"><ele>441.66666666666663</ele><time>2026-05-02T09:48:07.855Z</time></trkpt><trkpt lat="40.0141547" lon="15.7282287"><ele>441.0</ele><time>2026-05-02T09:48:08.872Z</time></trkpt><trkpt lat="40.0142919" lon="15.7280454"><ele>441.0</ele><time>2026-05-02T09:48:09.863Z</time></trkpt><trkpt lat="40.0144254" lon="15.7278629"><ele>441.0</ele><time>2026-05-02T09:48:10.874Z</time></trkpt><trkpt lat="40.0145515" lon="15.7276831"><ele>441.0</ele><time>2026-05-02T09:48:11.863Z</time></trkpt><trkpt lat="40.014668" lon="15.7275177"><ele>443.66666666666663</ele><time>2026-05-02T09:48:12.876Z</time></trkpt><trkpt lat="40.0147781" lon="15.7273572"><ele>446.3333333333333</ele><time>2026-05-02T09:48:13.874Z</time></trkpt><trkpt lat="40.0148949" lon="15.7271948"><ele>449.0</ele><time>2026-05-02T09:48:14.86Z</time></trkpt><trkpt lat="40.0149997" lon="15.7270426"><ele>449.0</ele><time>2026-05-02T09:48:15.869Z</time></trkpt><trkpt lat="40.0150898" lon="15.7269087"><ele>449.0</ele><time>2026-05-02T09:48:16.865Z</time></trkpt><trkpt lat="40.0151661" lon="15.7267773"><ele>449.0</ele><time>2026-05-02T09:48:17.857Z</time></trkpt><trkpt lat="40.015223" lon="15.7266226"><ele>449.0</ele><time>2026-05-02T09:48:18.862Z</time></trkpt><trkpt lat="40.015264" lon="15.7264499"><ele>447.5</ele><time>2026-05-02T09:48:19.867Z</time></trkpt><trkpt lat="40.0153001" lon="15.7262665"><ele>446.0</ele><time>2026-05-02T09:48:20.871Z</time></trkpt><trkpt lat="40.0153404" lon="15.7261082"><ele>444.5</ele><time>2026-05-02T09:48:21.868Z</time></trkpt><trkpt lat="40.0153957" lon="15.7259736"><ele>443.0</ele><time>2026-05-02T09:48:22.873Z</time></trkpt><trkpt lat="40.0154642" lon="15.7258506"><ele>443.79999999999995</ele><time>2026-05-02T09:48:23.861Z</time></trkpt><trkpt lat="40.0155389" lon="15.7257656"><ele>444.59999999999997</ele><time>2026-05-02T09:48:24.87Z</time></trkpt><trkpt lat="40.0156327" lon="15.7257203"><ele>445.40000000000003</ele><time>2026-05-02T09:48:25.86Z</time></trkpt><trkpt lat="40.0157345" lon="15.7257183"><ele>446.20000000000005</ele><time>2026-05-02T09:48:26.857Z</time></trkpt><trkpt lat="40.0158491" lon="15.7257555"><ele>447.0</ele><time>2026-05-02T09:48:27.864Z</time></trkpt><trkpt lat="40.0159603" lon="15.7258153"><ele>447.0</ele><time>2026-05-02T09:48:28.86Z</time></trkpt><trkpt lat="40.0160737" lon="15.7259"><ele>447.0</ele><time>2026-05-02T09:48:29.868Z</time></trkpt><trkpt lat="40.0161774" lon="15.7260181"><ele>447.0</ele><time>2026-05-02T09:48:30.879Z</time></trkpt><trkpt lat="40.0162742" lon="15.726163"><ele>447.0</ele><time>2026-05-02T09:48:31.858Z</time></trkpt><trkpt lat="40.0163769" lon="15.7263224"><ele>451.25</ele><time>2026-05-02T09:48:32.863Z</time></trkpt><trkpt lat="40.0164863" lon="15.7264587"><ele>455.5</ele><time>2026-05-02T09:48:33.867Z</time></trkpt><trkpt lat="40.0165753" lon="15.7265829"><ele>459.75</ele><time>2026-05-02T09:48:34.869Z</time></trkpt><trkpt lat="40.0166452" lon="15.7267042"><ele>464.0</ele><time>2026-05-02T09:48:35.849Z</time></trkpt><trkpt lat="40.016691" lon="15.726834"><ele>466.0</ele><time>2026-05-02T09:48:36.873Z</time></trkpt><trkpt lat="40.0167111" lon="15.7269733"><ele>468.0</ele><time>2026-05-02T09:48:37.87Z</time></trkpt><trkpt lat="40.0167088" lon="15.7271321"><ele>470.0</ele><time>2026-05-02T09:48:38.862Z</time></trkpt><trkpt lat="40.0167156" lon="15.7273024"><ele>472.0</ele><time>2026-05-02T09:48:39.854Z</time></trkpt><trkpt lat="40.0167433" lon="15.7274598"><ele>472.0</ele><time>2026-05-02T09:48:40.864Z</time></trkpt><trkpt lat="40.0167913" lon="15.7276008"><ele>472.00000000000006</ele><time>2026-05-02T09:48:41.857Z</time></trkpt><trkpt lat="40.0168356" lon="15.7277247"><ele>472.00000000000006</ele><time>2026-05-02T09:48:42.861Z</time></trkpt><trkpt lat="40.0168654" lon="15.7278313"><ele>472.0</ele><time>2026-05-02T09:48:43.852Z</time></trkpt><trkpt lat="40.0168555" lon="15.7279269"><ele>472.0</ele><time>2026-05-02T09:48:44.863Z</time></trkpt><trkpt lat="40.0168082" lon="15.7280267"><ele>472.25</ele><time>2026-05-02T09:48:45.857Z</time></trkpt><trkpt lat="40.0167353" lon="15.728116"><ele>472.5</ele><time>2026-05-02T09:48:46.876Z</time></trkpt><trkpt lat="40.0166351" lon="15.7281967"><ele>472.75</ele><time>2026-05-02T09:48:47.864Z</time></trkpt><trkpt lat="40.0165193" lon="15.7282875"><ele>473.0</ele><time>2026-05-02T09:48:48.875Z</time></trkpt><trkpt lat="40.0163896" lon="15.7283914"><ele>473.3333333333333</ele><time>2026-05-02T09:48:49.864Z</time></trkpt><trkpt lat="40.0162478" lon="15.7285088"><ele>473.66666666666663</ele><time>2026-05-02T09:48:50.864Z</time></trkpt><trkpt lat="40.0160969" lon="15.7286268"><ele>474.0</ele><time>2026-05-02T09:48:51.867Z</time></trkpt><trkpt lat="40.0159564" lon="15.7287399"><ele>474.0</ele><time>2026-05-02T09:48:52.88Z</time></trkpt><trkpt lat="40.0158341" lon="15.7288461"><ele>474.0</ele><time>2026-05-02T09:48:53.861Z</time></trkpt><trkpt lat="40.0157382" lon="15.7289318"><ele>474.0</ele><time>2026-05-02T09:48:54.87Z</time></trkpt><trkpt lat="40.0156505" lon="15.7289995"><ele>474.0</ele><time>2026-05-02T09:48:55.873Z</time></trkpt><trkpt lat="40.0155776" lon="15.7290674"><ele>473.0</ele><time>2026-05-02T09:48:56.867Z</time></trkpt><trkpt lat="40.0155305" lon="15.7291533"><ele>472.0</ele><time>2026-05-02T09:48:57.87Z</time></trkpt><trkpt lat="40.0155075" lon="15.7292578"><ele>471.0</ele><time>2026-05-02T09:48:58.873Z</time></trkpt><trkpt lat="40.0155274" lon="15.7293747"><ele>470.0</ele><time>2026-05-02T09:48:59.866Z</time></trkpt><trkpt lat="40.0155851" lon="15.7294735"><ele>469.0</ele><time>2026-05-02T09:49:00.866Z</time></trkpt><trkpt lat="40.0156758" lon="15.7295223"><ele>468.0</ele><time>2026-05-02T09:49:01.864Z</time></trkpt><trkpt lat="40.0157776" lon="15.7295054"><ele>469.5</ele><time>2026-05-02T09:49:02.862Z</time></trkpt><trkpt lat="40.015884" lon="15.7294395"><ele>471.0</ele><time>2026-05-02T09:49:03.87Z</time></trkpt><trkpt lat="40.0159769" lon="15.7293397"><ele>472.5</ele><time>2026-05-02T09:49:04.872Z</time></trkpt><trkpt lat="40.0160855" lon="15.7292349"><ele>474.0</ele><time>2026-05-02T09:49:05.873Z</time></trkpt><trkpt lat="40.0161991" lon="15.7291203"><ele>474.0</ele><time>2026-05-02T09:49:06.864Z</time></trkpt><trkpt lat="40.0163157" lon="15.7290093"><ele>474.0</ele><time>2026-05-02T09:49:07.866Z</time></trkpt><trkpt lat="40.0164109" lon="15.7289318"><ele>474.0</ele><time>2026-05-02T09:49:08.865Z</time></trkpt><trkpt lat="40.0164929" lon="15.7288925"><ele>474.0</ele><time>2026-05-02T09:49:09.864Z</time></trkpt><trkpt lat="40.0165766" lon="15.728889"><ele>474.0</ele><time>2026-05-02T09:49:10.869Z</time></trkpt><trkpt lat="40.0166628" lon="15.728909"><ele>475.8333333333333</ele><time>2026-05-02T09:49:11.866Z</time></trkpt><trkpt lat="40.0167527" lon="15.7289581"><ele>477.66666666666663</ele><time>2026-05-02T09:49:12.865Z</time></trkpt><trkpt lat="40.0168267" lon="15.7290195"><ele>479.5</ele><time>2026-05-02T09:49:13.869Z</time></trkpt><trkpt lat="40.0168919" lon="15.7290705"><ele>481.3333333333333</ele><time>2026-05-02T09:49:14.852Z</time></trkpt><trkpt lat="40.0169648" lon="15.7291232"><ele>483.16666666666663</ele><time>2026-05-02T09:49:15.855Z</time></trkpt><trkpt lat="40.0170416" lon="15.7291697"><ele>485.0</ele><time>2026-05-02T09:49:16.864Z</time></trkpt><trkpt lat="40.0171218" lon="15.7292078"><ele>484.99999999999994</ele><time>2026-05-02T09:49:17.854Z</time></trkpt><trkpt lat="40.017196" lon="15.7292306"><ele>485.0</ele><time>2026-05-02T09:49:18.863Z</time></trkpt><trkpt lat="40.0172682" lon="15.7292403"><ele>485.0</ele><time>2026-05-02T09:49:19.849Z</time></trkpt><trkpt lat="40.0173474" lon="15.7292361"><ele>485.0</ele><time>2026-05-02T09:49:20.874Z</time></trkpt><trkpt lat="40.0174297" lon="15.7292229"><ele>484.99999999999994</ele><time>2026-05-02T09:49:21.857Z</time></trkpt><trkpt lat="40.0175081" lon="15.7291927"><ele>485.0</ele><time>2026-05-02T09:49:22.868Z</time></trkpt><trkpt lat="40.0175775" lon="15.7291562"><ele>486.2</ele><time>2026-05-02T09:49:23.876Z</time></trkpt><trkpt lat="40.0176445" lon="15.7291083"><ele>487.4</ele><time>2026-05-02T09:49:24.858Z</time></trkpt><trkpt lat="40.017713" lon="15.7290337"><ele>488.6</ele><time>2026-05-02T09:49:25.861Z</time></trkpt><trkpt lat="40.0177812" lon="15.7289238"><ele>489.8</ele><time>2026-05-02T09:49:26.862Z</time></trkpt><trkpt lat="40.0178662" lon="15.7288003"><ele>491.0</ele><time>2026-05-02T09:49:27.866Z</time></trkpt><trkpt lat="40.0179638" lon="15.7286635"><ele>485.0</ele><time>2026-05-02T09:49:28.872Z</time></trkpt><trkpt lat="40.0180718" lon="15.7285185"><ele>479.0</ele><time>2026-05-02T09:49:29.862Z</time></trkpt><trkpt lat="40.0181782" lon="15.7283599"><ele>473.0</ele><time>2026-05-02T09:49:30.866Z</time></trkpt><trkpt lat="40.0182785" lon="15.7281831"><ele>481.3333333333333</ele><time>2026-05-02T09:49:31.861Z</time></trkpt><trkpt lat="40.0183799" lon="15.7280296"><ele>489.66666666666663</ele><time>2026-05-02T09:49:32.871Z</time></trkpt><trkpt lat="40.0184969" lon="15.7279018"><ele>498.0</ele><time>2026-05-02T09:49:33.869Z</time></trkpt><trkpt lat="40.0186275" lon="15.7277652"><ele>492.66666666666663</ele><time>2026-05-02T09:49:34.87Z</time></trkpt><trkpt lat="40.0187598" lon="15.72762"><ele>487.3333333333333</ele><time>2026-05-02T09:49:35.867Z</time></trkpt><trkpt lat="40.0188954" lon="15.7274657"><ele>482.0</ele><time>2026-05-02T09:49:36.86Z</time></trkpt><trkpt lat="40.019029" lon="15.7273062"><ele>483.3333333333333</ele><time>2026-05-02T09:49:37.867Z</time></trkpt><trkpt lat="40.0191585" lon="15.7271442"><ele>484.66666666666663</ele><time>2026-05-02T09:49:38.847Z</time></trkpt><trkpt lat="40.0192835" lon="15.7269769"><ele>486.0</ele><time>2026-05-02T09:49:39.876Z</time></trkpt><trkpt lat="40.0194036" lon="15.7268092"><ele>486.0</ele><time>2026-05-02T09:49:40.876Z</time></trkpt><trkpt lat="40.0195088" lon="15.726656"><ele>486.0</ele><time>2026-05-02T09:49:41.863Z</time></trkpt><trkpt lat="40.0196004" lon="15.7265262"><ele>486.0</ele><time>2026-05-02T09:49:42.873Z</time></trkpt><trkpt lat="40.0196815" lon="15.7264066"><ele>486.0</ele><time>2026-05-02T09:49:43.858Z</time></trkpt><trkpt lat="40.0197559" lon="15.7263001"><ele>486.0</ele><time>2026-05-02T09:49:44.878Z</time></trkpt><trkpt lat="40.0198278" lon="15.7262071"><ele>486.0</ele><time>2026-05-02T09:49:45.872Z</time></trkpt><trkpt lat="40.0199005" lon="15.7261347"><ele>486.0</ele><time>2026-05-02T09:49:46.863Z</time></trkpt><trkpt lat="40.0199906" lon="15.7260862"><ele>486.0</ele><time>2026-05-02T09:49:47.877Z</time></trkpt><trkpt lat="40.0200959" lon="15.7260743"><ele>486.0</ele><time>2026-05-02T09:49:48.869Z</time></trkpt><trkpt lat="40.0202042" lon="15.726111"><ele>490.5</ele><time>2026-05-02T09:49:49.87Z</time></trkpt><trkpt lat="40.0203004" lon="15.7261826"><ele>495.0</ele><time>2026-05-02T09:49:50.871Z</time></trkpt><trkpt lat="40.0203741" lon="15.7262991"><ele>499.5</ele><time>2026-05-02T09:49:51.865Z</time></trkpt><trkpt lat="40.0204258" lon="15.7264514"><ele>504.0</ele><time>2026-05-02T09:49:52.865Z</time></trkpt><trkpt lat="40.0204534" lon="15.726625"><ele>504.0</ele><time>2026-05-02T09:49:53.873Z</time></trkpt><trkpt lat="40.0204766" lon="15.7268222"><ele>504.0</ele><time>2026-05-02T09:49:54.861Z</time></trkpt><trkpt lat="40.0204976" lon="15.7270326"><ele>504.0</ele><time>2026-05-02T09:49:55.863Z</time></trkpt><trkpt lat="40.0205281" lon="15.7272483"><ele>505.75</ele><time>2026-05-02T09:49:56.89Z</time></trkpt><trkpt lat="40.0205582" lon="15.7274465"><ele>507.5</ele><time>2026-05-02T09:49:57.864Z</time></trkpt><trkpt lat="40.0205832" lon="15.7276065"><ele>509.25</ele><time>2026-05-02T09:49:58.882Z</time></trkpt><trkpt lat="40.0206266" lon="15.7277501"><ele>511.0</ele><time>2026-05-02T09:49:59.873Z</time></trkpt><trkpt lat="40.0206938" lon="15.7278837"><ele>512.8</ele><time>2026-05-02T09:50:00.863Z</time></trkpt><trkpt lat="40.0207823" lon="15.7279965"><ele>514.6</ele><time>2026-05-02T09:50:01.855Z</time></trkpt><trkpt lat="40.0208638" lon="15.72808"><ele>516.4</ele><time>2026-05-02T09:50:02.86Z</time></trkpt><trkpt lat="40.0209176" lon="15.7281547"><ele>518.2</ele><time>2026-05-02T09:50:03.867Z</time></trkpt><trkpt lat="40.0209432" lon="15.7282567"><ele>520.0</ele><time>2026-05-02T09:50:04.868Z</time></trkpt><trkpt lat="40.0209318" lon="15.7283679"><ele>520.0</ele><time>2026-05-02T09:50:05.862Z</time></trkpt><trkpt lat="40.0208839" lon="15.7284625"><ele>520.0</ele><time>2026-05-02T09:50:06.873Z</time></trkpt><trkpt lat="40.0207901" lon="15.7284947"><ele>520.0</ele><time>2026-05-02T09:50:07.865Z</time></trkpt><trkpt lat="40.0206825" lon="15.7284789"><ele>520.0</ele><time>2026-05-02T09:50:08.858Z</time></trkpt><trkpt lat="40.0205582" lon="15.7284308"><ele>520.0</ele><time>2026-05-02T09:50:09.852Z</time></trkpt><trkpt lat="40.020426" lon="15.7283611"><ele>520.3333333333334</ele><time>2026-05-02T09:50:10.867Z</time></trkpt><trkpt lat="40.0202755" lon="15.7282724"><ele>520.6666666666666</ele><time>2026-05-02T09:50:11.873Z</time></trkpt><trkpt lat="40.0201159" lon="15.7281888"><ele>521.0</ele><time>2026-05-02T09:50:12.867Z</time></trkpt><trkpt lat="40.019968" lon="15.7281064"><ele>521.0</ele><time>2026-05-02T09:50:13.858Z</time></trkpt><trkpt lat="40.0198415" lon="15.7280428"><ele>521.0</ele><time>2026-05-02T09:50:14.856Z</time></trkpt><trkpt lat="40.019717" lon="15.7280017"><ele>521.0</ele><time>2026-05-02T09:50:15.858Z</time></trkpt><trkpt lat="40.0195963" lon="15.7279899"><ele>521.0</ele><time>2026-05-02T09:50:16.875Z</time></trkpt><trkpt lat="40.0194634" lon="15.7280272"><ele>521.0</ele><time>2026-05-02T09:50:17.866Z</time></trkpt><trkpt lat="40.0193246" lon="15.7280927"><ele>521.0</ele><time>2026-05-02T09:50:18.876Z</time></trkpt><trkpt lat="40.0192042" lon="15.7281656"><ele>521.0</ele><time>2026-05-02T09:50:19.862Z</time></trkpt><trkpt lat="40.0191142" lon="15.7282323"><ele>521.0</ele><time>2026-05-02T09:50:20.87Z</time></trkpt><trkpt lat="40.0190506" lon="15.7282939"><ele>520.1666666666666</ele><time>2026-05-02T09:50:21.871Z</time></trkpt><trkpt lat="40.0189646" lon="15.7284074"><ele>519.3333333333333</ele><time>2026-05-02T09:50:23.876Z</time></trkpt><trkpt lat="40.0189138" lon="15.7284787"><ele>518.5</ele><time>2026-05-02T09:50:24.873Z</time></trkpt><trkpt lat="40.018865" lon="15.7285431"><ele>517.6666666666666</ele><time>2026-05-02T09:50:25.863Z</time></trkpt><trkpt lat="40.0187999" lon="15.7286238"><ele>516.8333333333334</ele><time>2026-05-02T09:50:27.862Z</time></trkpt><trkpt lat="40.018742" lon="15.7286711"><ele>516.0</ele><time>2026-05-02T09:50:48.875Z</time></trkpt><trkpt lat="40.0186995" lon="15.7287944"><ele>516.0</ele><time>2026-05-02T09:50:51.861Z</time></trkpt><trkpt lat="40.0186448" lon="15.7288824"><ele>516.0</ele><time>2026-05-02T09:50:52.877Z</time></trkpt><trkpt lat="40.0185834" lon="15.7289909"><ele>516.0</ele><time>2026-05-02T09:50:53.856Z</time></trkpt><trkpt lat="40.018517" lon="15.7291058"><ele>516.0</ele><time>2026-05-02T09:50:54.874Z</time></trkpt><trkpt lat="40.0184321" lon="15.7292219"><ele>516.0</ele><time>2026-05-02T09:50:55.86Z</time></trkpt><trkpt lat="40.0183312" lon="15.7293282"><ele>516.0</ele><time>2026-05-02T09:50:56.869Z</time></trkpt><trkpt lat="40.0182265" lon="15.7294359"><ele>516.0</ele><time>2026-05-02T09:50:57.865Z</time></trkpt><trkpt lat="40.0181206" lon="15.7295404"><ele>516.0</ele><time>2026-05-02T09:50:58.876Z</time></trkpt><trkpt lat="40.0180214" lon="15.72966"><ele>516.0</ele><time>2026-05-02T09:50:59.873Z</time></trkpt><trkpt lat="40.0179395" lon="15.7298161"><ele>516.0</ele><time>2026-05-02T09:51:00.862Z</time></trkpt><trkpt lat="40.0178602" lon="15.7299842"><ele>516.0</ele><time>2026-05-02T09:51:01.865Z</time></trkpt><trkpt lat="40.0177907" lon="15.73014"><ele>516.0</ele><time>2026-05-02T09:51:02.864Z</time></trkpt><trkpt lat="40.0177337" lon="15.7302663"><ele>516.0</ele><time>2026-05-02T09:51:03.874Z</time></trkpt><trkpt lat="40.0176844" lon="15.7303741"><ele>518.4</ele><time>2026-05-02T09:51:04.868Z</time></trkpt><trkpt lat="40.0176509" lon="15.7304863"><ele>520.8</ele><time>2026-05-02T09:51:05.862Z</time></trkpt><trkpt lat="40.017647" lon="15.7305936"><ele>523.1999999999999</ele><time>2026-05-02T09:51:06.861Z</time></trkpt><trkpt lat="40.0176779" lon="15.7307113"><ele>525.6</ele><time>2026-05-02T09:51:07.856Z</time></trkpt><trkpt lat="40.0177333" lon="15.7308113"><ele>528.0</ele><time>2026-05-02T09:51:08.868Z</time></trkpt><trkpt lat="40.0178085" lon="15.7308794"><ele>528.0</ele><time>2026-05-02T09:51:09.861Z</time></trkpt><trkpt lat="40.0179022" lon="15.7309295"><ele>528.0</ele><time>2026-05-02T09:51:10.877Z</time></trkpt><trkpt lat="40.0180016" lon="15.7309655"><ele>528.0</ele><time>2026-05-02T09:51:11.86Z</time></trkpt><trkpt lat="40.0181035" lon="15.7310047"><ele>528.0</ele><time>2026-05-02T09:51:12.864Z</time></trkpt><trkpt lat="40.0182169" lon="15.7310493"><ele>528.0</ele><time>2026-05-02T09:51:13.872Z</time></trkpt><trkpt lat="40.0183453" lon="15.731091"><ele>532.75</ele><time>2026-05-02T09:51:14.869Z</time></trkpt><trkpt lat="40.0184839" lon="15.7311321"><ele>537.5</ele><time>2026-05-02T09:51:15.858Z</time></trkpt><trkpt lat="40.0186324" lon="15.7311791"><ele>542.25</ele><time>2026-05-02T09:51:16.871Z</time></trkpt><trkpt lat="40.0187822" lon="15.7312254"><ele>547.0</ele><time>2026-05-02T09:51:17.872Z</time></trkpt><trkpt lat="40.01893" lon="15.7312684"><ele>547.0</ele><time>2026-05-02T09:51:18.871Z</time></trkpt><trkpt lat="40.0190733" lon="15.731303"><ele>547.0</ele><time>2026-05-02T09:51:19.858Z</time></trkpt><trkpt lat="40.0192196" lon="15.731337"><ele>547.0</ele><time>2026-05-02T09:51:20.867Z</time></trkpt><trkpt lat="40.0193675" lon="15.7313746"><ele>547.0</ele><time>2026-05-02T09:51:21.865Z</time></trkpt><trkpt lat="40.0195148" lon="15.7314151"><ele>546.3333333333334</ele><time>2026-05-02T09:51:22.869Z</time></trkpt><trkpt lat="40.0196645" lon="15.7314455"><ele>545.6666666666666</ele><time>2026-05-02T09:51:23.871Z</time></trkpt><trkpt lat="40.0198203" lon="15.7314501"><ele>545.0</ele><time>2026-05-02T09:51:24.877Z</time></trkpt><trkpt lat="40.0199837" lon="15.7314243"><ele>547.0</ele><time>2026-05-02T09:51:25.873Z</time></trkpt><trkpt lat="40.0201519" lon="15.7313858"><ele>549.0</ele><time>2026-05-02T09:51:26.868Z</time></trkpt><trkpt lat="40.0203261" lon="15.7313464"><ele>551.0</ele><time>2026-05-02T09:51:27.878Z</time></trkpt><trkpt lat="40.0205047" lon="15.7313118"><ele>551.0</ele><time>2026-05-02T09:51:28.874Z</time></trkpt><trkpt lat="40.0206816" lon="15.7312849"><ele>551.0</ele><time>2026-05-02T09:51:29.866Z</time></trkpt><trkpt lat="40.020838" lon="15.7312598"><ele>551.0</ele><time>2026-05-02T09:51:30.872Z</time></trkpt><trkpt lat="40.0209775" lon="15.7312354"><ele>550.0</ele><time>2026-05-02T09:51:31.868Z</time></trkpt><trkpt lat="40.0211084" lon="15.7312063"><ele>549.0</ele><time>2026-05-02T09:51:32.861Z</time></trkpt><trkpt lat="40.0212303" lon="15.7311534"><ele>548.0</ele><time>2026-05-02T09:51:33.858Z</time></trkpt><trkpt lat="40.0213447" lon="15.7310811"><ele>547.0</ele><time>2026-05-02T09:51:34.861Z</time></trkpt><trkpt lat="40.021444" lon="15.7309749"><ele>547.0</ele><time>2026-05-02T09:51:35.866Z</time></trkpt><trkpt lat="40.0215218" lon="15.7308388"><ele>547.0</ele><time>2026-05-02T09:51:36.875Z</time></trkpt><trkpt lat="40.0215711" lon="15.7306695"><ele>547.0</ele><time>2026-05-02T09:51:37.863Z</time></trkpt><trkpt lat="40.0215878" lon="15.7304844"><ele>547.0</ele><time>2026-05-02T09:51:38.859Z</time></trkpt><trkpt lat="40.0215716" lon="15.7302942"><ele>546.0</ele><time>2026-05-02T09:51:39.852Z</time></trkpt><trkpt lat="40.0215477" lon="15.7301291"><ele>545.0</ele><time>2026-05-02T09:51:40.864Z</time></trkpt><trkpt lat="40.0215368" lon="15.7299879"><ele>544.0</ele><time>2026-05-02T09:51:41.876Z</time></trkpt><trkpt lat="40.0215342" lon="15.7298703"><ele>543.0</ele><time>2026-05-02T09:51:42.869Z</time></trkpt><trkpt lat="40.0215498" lon="15.7297691"><ele>542.0</ele><time>2026-05-02T09:51:43.852Z</time></trkpt><trkpt lat="40.0215933" lon="15.7296902"><ele>545.6</ele><time>2026-05-02T09:51:44.876Z</time></trkpt><trkpt lat="40.0216639" lon="15.729621"><ele>549.2</ele><time>2026-05-02T09:51:45.86Z</time></trkpt><trkpt lat="40.0217553" lon="15.7295715"><ele>552.8</ele><time>2026-05-02T09:51:46.863Z</time></trkpt><trkpt lat="40.02186" lon="15.7295545"><ele>556.4</ele><time>2026-05-02T09:51:47.859Z</time></trkpt><trkpt lat="40.0219781" lon="15.7295868"><ele>560.0</ele><time>2026-05-02T09:51:48.863Z</time></trkpt><trkpt lat="40.0221035" lon="15.7296309"><ele>560.0</ele><time>2026-05-02T09:51:49.867Z</time></trkpt><trkpt lat="40.0222427" lon="15.7296675"><ele>560.0</ele><time>2026-05-02T09:51:50.871Z</time></trkpt><trkpt lat="40.0223874" lon="15.7296982"><ele>560.0</ele><time>2026-05-02T09:51:51.863Z</time></trkpt><trkpt lat="40.0225321" lon="15.729739"><ele>560.0</ele><time>2026-05-02T09:51:52.875Z</time></trkpt><trkpt lat="40.0226832" lon="15.7297918"><ele>562.6666666666666</ele><time>2026-05-02T09:51:53.871Z</time></trkpt><trkpt lat="40.0228353" lon="15.7298425"><ele>565.3333333333334</ele><time>2026-05-02T09:51:54.869Z</time></trkpt><trkpt lat="40.0229841" lon="15.7299003"><ele>568.0</ele><time>2026-05-02T09:51:55.865Z</time></trkpt><trkpt lat="40.023131" lon="15.729978"><ele>568.0</ele><time>2026-05-02T09:51:56.868Z</time></trkpt><trkpt lat="40.0232695" lon="15.7300728"><ele>568.0</ele><time>2026-05-02T09:51:57.869Z</time></trkpt><trkpt lat="40.0234084" lon="15.7301939"><ele>568.0</ele><time>2026-05-02T09:51:58.869Z</time></trkpt><trkpt lat="40.0235441" lon="15.7303246"><ele>570.3333333333334</ele><time>2026-05-02T09:51:59.868Z</time></trkpt><trkpt lat="40.0236823" lon="15.7304542"><ele>572.6666666666666</ele><time>2026-05-02T09:52:00.866Z</time></trkpt><trkpt lat="40.023825" lon="15.7305786"><ele>575.0</ele><time>2026-05-02T09:52:01.87Z</time></trkpt><trkpt lat="40.0239663" lon="15.7307103"><ele>575.0</ele><time>2026-05-02T09:52:02.874Z</time></trkpt><trkpt lat="40.0241085" lon="15.7308425"><ele>575.0</ele><time>2026-05-02T09:52:03.874Z</time></trkpt><trkpt lat="40.0242568" lon="15.7309633"><ele>575.0</ele><time>2026-05-02T09:52:04.883Z</time></trkpt><trkpt lat="40.0244106" lon="15.7310787"><ele>576.3333333333333</ele><time>2026-05-02T09:52:05.857Z</time></trkpt><trkpt lat="40.0245659" lon="15.7311931"><ele>577.6666666666666</ele><time>2026-05-02T09:52:06.869Z</time></trkpt><trkpt lat="40.0247062" lon="15.7312963"><ele>579.0</ele><time>2026-05-02T09:52:07.864Z</time></trkpt><trkpt lat="40.0248217" lon="15.7313774"><ele>579.0</ele><time>2026-05-02T09:52:08.864Z</time></trkpt><trkpt lat="40.0249218" lon="15.7314605"><ele>579.0</ele><time>2026-05-02T09:52:09.853Z</time></trkpt><trkpt lat="40.0250289" lon="15.7315078"><ele>579.0</ele><time>2026-05-02T09:52:10.871Z</time></trkpt><trkpt lat="40.025148" lon="15.7315047"><ele>579.0</ele><time>2026-05-02T09:52:11.868Z</time></trkpt><trkpt lat="40.0252776" lon="15.7314509"><ele>580.75</ele><time>2026-05-02T09:52:12.862Z</time></trkpt><trkpt lat="40.0254044" lon="15.7313844"><ele>582.5</ele><time>2026-05-02T09:52:13.863Z</time></trkpt><trkpt lat="40.025535" lon="15.7313024"><ele>584.25</ele><time>2026-05-02T09:52:14.868Z</time></trkpt><trkpt lat="40.02567" lon="15.731209"><ele>586.0</ele><time>2026-05-02T09:52:15.863Z</time></trkpt><trkpt lat="40.0258132" lon="15.7311472"><ele>585.3333333333334</ele><time>2026-05-02T09:52:16.875Z</time></trkpt><trkpt lat="40.0259698" lon="15.7310939"><ele>584.6666666666666</ele><time>2026-05-02T09:52:17.881Z</time></trkpt><trkpt lat="40.0261277" lon="15.7310428"><ele>584.0</ele><time>2026-05-02T09:52:18.866Z</time></trkpt><trkpt lat="40.0262783" lon="15.7310032"><ele>584.0</ele><time>2026-05-02T09:52:19.866Z</time></trkpt><trkpt lat="40.0264146" lon="15.7309694"><ele>584.0</ele><time>2026-05-02T09:52:20.86Z</time></trkpt><trkpt lat="40.0265353" lon="15.7309405"><ele>584.0</ele><time>2026-05-02T09:52:21.865Z</time></trkpt><trkpt lat="40.026656" lon="15.7309295"><ele>584.0</ele><time>2026-05-02T09:52:22.87Z</time></trkpt><trkpt lat="40.0267684" lon="15.7309503"><ele>587.5</ele><time>2026-05-02T09:52:23.858Z</time></trkpt><trkpt lat="40.0268754" lon="15.7310008"><ele>591.0</ele><time>2026-05-02T09:52:24.873Z</time></trkpt><trkpt lat="40.0269729" lon="15.7310855"><ele>594.5</ele><time>2026-05-02T09:52:25.884Z</time></trkpt><trkpt lat="40.0270702" lon="15.731195"><ele>598.0</ele><time>2026-05-02T09:52:26.866Z</time></trkpt><trkpt lat="40.0271583" lon="15.7313133"><ele>601.25</ele><time>2026-05-02T09:52:27.861Z</time></trkpt><trkpt lat="40.0272329" lon="15.7314575"><ele>604.5</ele><time>2026-05-02T09:52:28.862Z</time></trkpt><trkpt lat="40.0272916" lon="15.7316087"><ele>607.75</ele><time>2026-05-02T09:52:29.863Z</time></trkpt><trkpt lat="40.0273282" lon="15.7317797"><ele>611.0</ele><time>2026-05-02T09:52:30.878Z</time></trkpt><trkpt lat="40.0273405" lon="15.731957"><ele>611.75</ele><time>2026-05-02T09:52:31.855Z</time></trkpt><trkpt lat="40.0273412" lon="15.7321368"><ele>612.5</ele><time>2026-05-02T09:52:32.86Z</time></trkpt><trkpt lat="40.0273551" lon="15.7323159"><ele>613.25</ele><time>2026-05-02T09:52:33.862Z</time></trkpt><trkpt lat="40.0273979" lon="15.7324935"><ele>614.0</ele><time>2026-05-02T09:52:34.863Z</time></trkpt><trkpt lat="40.0274763" lon="15.7326665"><ele>611.0</ele><time>2026-05-02T09:52:35.85Z</time></trkpt><trkpt lat="40.0275884" lon="15.7328268"><ele>608.0</ele><time>2026-05-02T09:52:36.863Z</time></trkpt><trkpt lat="40.0277144" lon="15.7329718"><ele>605.0</ele><time>2026-05-02T09:52:37.871Z</time></trkpt><trkpt lat="40.0278487" lon="15.7331135"><ele>605.0</ele><time>2026-05-02T09:52:38.864Z</time></trkpt><trkpt lat="40.0279841" lon="15.7332592"><ele>605.0</ele><time>2026-05-02T09:52:39.865Z</time></trkpt><trkpt lat="40.028112" lon="15.7333993"><ele>605.0</ele><time>2026-05-02T09:52:40.867Z</time></trkpt><trkpt lat="40.0282299" lon="15.733526"><ele>602.25</ele><time>2026-05-02T09:52:41.869Z</time></trkpt><trkpt lat="40.0283319" lon="15.7336393"><ele>599.5</ele><time>2026-05-02T09:52:42.86Z</time></trkpt><trkpt lat="40.0284177" lon="15.7337487"><ele>596.75</ele><time>2026-05-02T09:52:43.86Z</time></trkpt><trkpt lat="40.0284821" lon="15.7338732"><ele>594.0</ele><time>2026-05-02T09:52:44.866Z</time></trkpt><trkpt lat="40.0285114" lon="15.7340086"><ele>594.0</ele><time>2026-05-02T09:52:45.857Z</time></trkpt><trkpt lat="40.0285131" lon="15.7341638"><ele>594.0</ele><time>2026-05-02T09:52:46.876Z</time></trkpt><trkpt lat="40.0284922" lon="15.7343441"><ele>594.0</ele><time>2026-05-02T09:52:47.858Z</time></trkpt><trkpt lat="40.028458" lon="15.7345413"><ele>594.0</ele><time>2026-05-02T09:52:48.868Z</time></trkpt><trkpt lat="40.0284337" lon="15.734757"><ele>593.0</ele><time>2026-05-02T09:52:49.869Z</time></trkpt><trkpt lat="40.0284075" lon="15.7349903"><ele>592.0</ele><time>2026-05-02T09:52:50.864Z</time></trkpt><trkpt lat="40.0283791" lon="15.7352408"><ele>591.0</ele><time>2026-05-02T09:52:51.873Z</time></trkpt><trkpt lat="40.028347" lon="15.7354869"><ele>590.0</ele><time>2026-05-02T09:52:52.867Z</time></trkpt><trkpt lat="40.0283157" lon="15.7357186"><ele>589.0</ele><time>2026-05-02T09:52:53.86Z</time></trkpt><trkpt lat="40.0282858" lon="15.7359383"><ele>588.0</ele><time>2026-05-02T09:52:54.859Z</time></trkpt><trkpt lat="40.0282535" lon="15.7361628"><ele>593.3333333333334</ele><time>2026-05-02T09:52:55.872Z</time></trkpt><trkpt lat="40.0282236" lon="15.7363851"><ele>598.6666666666667</ele><time>2026-05-02T09:52:56.871Z</time></trkpt><trkpt lat="40.0282051" lon="15.7365936"><ele>604.0</ele><time>2026-05-02T09:52:57.865Z</time></trkpt><trkpt lat="40.0281982" lon="15.7367945"><ele>604.0</ele><time>2026-05-02T09:52:58.867Z</time></trkpt><trkpt lat="40.0282093" lon="15.7369925"><ele>604.0</ele><time>2026-05-02T09:52:59.875Z</time></trkpt><trkpt lat="40.0282325" lon="15.7371888"><ele>604.0</ele><time>2026-05-02T09:53:00.875Z</time></trkpt><trkpt lat="40.0282566" lon="15.7373576"><ele>604.0</ele><time>2026-05-02T09:53:01.871Z</time></trkpt><trkpt lat="40.0282836" lon="15.7375169"><ele>604.0</ele><time>2026-05-02T09:53:02.867Z</time></trkpt><trkpt lat="40.0282785" lon="15.737684"><ele>604.0</ele><time>2026-05-02T09:53:03.873Z</time></trkpt><trkpt lat="40.0282395" lon="15.7378486"><ele>604.0</ele><time>2026-05-02T09:53:04.867Z</time></trkpt><trkpt lat="40.0281798" lon="15.7380031"><ele>604.0</ele><time>2026-05-02T09:53:05.878Z</time></trkpt><trkpt lat="40.0281106" lon="15.7381575"><ele>602.0</ele><time>2026-05-02T09:53:06.859Z</time></trkpt><trkpt lat="40.0280271" lon="15.7383159"><ele>600.0</ele><time>2026-05-02T09:53:07.872Z</time></trkpt><trkpt lat="40.0279446" lon="15.7384858"><ele>598.0</ele><time>2026-05-02T09:53:08.87Z</time></trkpt><trkpt lat="40.0278632" lon="15.7386575"><ele>596.0</ele><time>2026-05-02T09:53:09.875Z</time></trkpt><trkpt lat="40.0277812" lon="15.7388256"><ele>594.0</ele><time>2026-05-02T09:53:10.859Z</time></trkpt><trkpt lat="40.0277137" lon="15.7389876"><ele>592.0</ele><time>2026-05-02T09:53:11.859Z</time></trkpt><trkpt lat="40.0276393" lon="15.7391303"><ele>590.0</ele><time>2026-05-02T09:53:12.878Z</time></trkpt><trkpt lat="40.0275702" lon="15.739284"><ele>590.0</ele><time>2026-05-02T09:53:13.87Z</time></trkpt><trkpt lat="40.0275201" lon="15.7394474"><ele>590.0</ele><time>2026-05-02T09:53:14.862Z</time></trkpt><trkpt lat="40.0275061" lon="15.7396213"><ele>590.0</ele><time>2026-05-02T09:53:15.861Z</time></trkpt><trkpt lat="40.0275268" lon="15.7398024"><ele>590.0</ele><time>2026-05-02T09:53:16.878Z</time></trkpt><trkpt lat="40.0275721" lon="15.7399888"><ele>590.0</ele><time>2026-05-02T09:53:17.868Z</time></trkpt><trkpt lat="40.0276239" lon="15.7401781"><ele>590.0</ele><time>2026-05-02T09:53:18.859Z</time></trkpt><trkpt lat="40.0276738" lon="15.7403719"><ele>590.0</ele><time>2026-05-02T09:53:19.859Z</time></trkpt><trkpt lat="40.027718" lon="15.740557"><ele>590.6666666666666</ele><time>2026-05-02T09:53:20.86Z</time></trkpt><trkpt lat="40.0277668" lon="15.7407372"><ele>591.3333333333334</ele><time>2026-05-02T09:53:21.868Z</time></trkpt><trkpt lat="40.027789" lon="15.7409282"><ele>592.0</ele><time>2026-05-02T09:53:22.871Z</time></trkpt><trkpt lat="40.0277897" lon="15.7411328"><ele>592.0</ele><time>2026-05-02T09:53:23.869Z</time></trkpt><trkpt lat="40.0277833" lon="15.7413409"><ele>592.0</ele><time>2026-05-02T09:53:24.864Z</time></trkpt><trkpt lat="40.0277938" lon="15.7415393"><ele>592.0</ele><time>2026-05-02T09:53:25.866Z</time></trkpt><trkpt lat="40.0278236" lon="15.7417265"><ele>592.0</ele><time>2026-05-02T09:53:26.868Z</time></trkpt><trkpt lat="40.0278658" lon="15.7418783"><ele>592.0</ele><time>2026-05-02T09:53:27.869Z</time></trkpt><trkpt lat="40.0279193" lon="15.7420171"><ele>592.0</ele><time>2026-05-02T09:53:28.867Z</time></trkpt><trkpt lat="40.027962" lon="15.7421425"><ele>592.0</ele><time>2026-05-02T09:53:29.864Z</time></trkpt><trkpt lat="40.0279767" lon="15.742267"><ele>592.0</ele><time>2026-05-02T09:53:30.871Z</time></trkpt><trkpt lat="40.02797" lon="15.7423781"><ele>590.75</ele><time>2026-05-02T09:53:31.862Z</time></trkpt><trkpt lat="40.0279327" lon="15.7424961"><ele>589.5</ele><time>2026-05-02T09:53:32.868Z</time></trkpt><trkpt lat="40.0278679" lon="15.7426197"><ele>588.25</ele><time>2026-05-02T09:53:33.866Z</time></trkpt><trkpt lat="40.0277904" lon="15.74275"><ele>587.0</ele><time>2026-05-02T09:53:34.867Z</time></trkpt><trkpt lat="40.0277299" lon="15.7428874"><ele>586.6</ele><time>2026-05-02T09:53:35.874Z</time></trkpt><trkpt lat="40.0276884" lon="15.7430169"><ele>586.2</ele><time>2026-05-02T09:53:36.866Z</time></trkpt><trkpt lat="40.0276581" lon="15.743146"><ele>585.8</ele><time>2026-05-02T09:53:37.87Z</time></trkpt><trkpt lat="40.0276436" lon="15.7432919"><ele>585.4</ele><time>2026-05-02T09:53:38.867Z</time></trkpt><trkpt lat="40.0276374" lon="15.7434359"><ele>585.0</ele><time>2026-05-02T09:53:39.882Z</time></trkpt><trkpt lat="40.0276425" lon="15.743572"><ele>585.0</ele><time>2026-05-02T09:53:40.871Z</time></trkpt><trkpt lat="40.0276662" lon="15.7437151"><ele>585.0</ele><time>2026-05-02T09:53:41.87Z</time></trkpt><trkpt lat="40.0277086" lon="15.7438687"><ele>585.0</ele><time>2026-05-02T09:53:42.867Z</time></trkpt><trkpt lat="40.0277682" lon="15.7440146"><ele>585.0</ele><time>2026-05-02T09:53:43.867Z</time></trkpt><trkpt lat="40.0278392" lon="15.7441192"><ele>585.0</ele><time>2026-05-02T09:53:44.875Z</time></trkpt><trkpt lat="40.027909" lon="15.7442069"><ele>585.0</ele><time>2026-05-02T09:53:45.857Z</time></trkpt><trkpt lat="40.0279841" lon="15.7442999"><ele>585.0</ele><time>2026-05-02T09:53:46.876Z</time></trkpt><trkpt lat="40.0280658" lon="15.7443932"><ele>585.0</ele><time>2026-05-02T09:53:47.868Z</time></trkpt><trkpt lat="40.0281477" lon="15.7444924"><ele>585.0</ele><time>2026-05-02T09:53:48.875Z</time></trkpt><trkpt lat="40.0282188" lon="15.7446009"><ele>586.4</ele><time>2026-05-02T09:53:49.875Z</time></trkpt><trkpt lat="40.0282724" lon="15.7447096"><ele>587.8</ele><time>2026-05-02T09:53:50.868Z</time></trkpt><trkpt lat="40.0283055" lon="15.7448337"><ele>589.2</ele><time>2026-05-02T09:53:51.867Z</time></trkpt><trkpt lat="40.0283225" lon="15.7449691"><ele>590.6</ele><time>2026-05-02T09:53:52.869Z</time></trkpt><trkpt lat="40.0283144" lon="15.745121"><ele>592.0</ele><time>2026-05-02T09:53:53.865Z</time></trkpt><trkpt lat="40.0282819" lon="15.7452842"><ele>593.0</ele><time>2026-05-02T09:53:54.876Z</time></trkpt><trkpt lat="40.0282417" lon="15.7454475"><ele>594.0</ele><time>2026-05-02T09:53:55.869Z</time></trkpt><trkpt lat="40.0282009" lon="15.7456145"><ele>595.0</ele><time>2026-05-02T09:53:56.88Z</time></trkpt><trkpt lat="40.0281653" lon="15.7457799"><ele>596.0</ele><time>2026-05-02T09:53:57.87Z</time></trkpt><trkpt lat="40.0281263" lon="15.7459323"><ele>593.6666666666666</ele><time>2026-05-02T09:53:58.876Z</time></trkpt><trkpt lat="40.0281066" lon="15.7461041"><ele>591.3333333333334</ele><time>2026-05-02T09:53:59.873Z</time></trkpt><trkpt lat="40.0280995" lon="15.7463043"><ele>589.0</ele><time>2026-05-02T09:54:00.87Z</time></trkpt><trkpt lat="40.0281043" lon="15.7465212"><ele>589.0</ele><time>2026-05-02T09:54:01.855Z</time></trkpt><trkpt lat="40.0281146" lon="15.7467432"><ele>589.0</ele><time>2026-05-02T09:54:02.873Z</time></trkpt><trkpt lat="40.0281229" lon="15.7469502"><ele>589.0</ele><time>2026-05-02T09:54:03.857Z</time></trkpt><trkpt lat="40.0281298" lon="15.7471317"><ele>585.75</ele><time>2026-05-02T09:54:04.863Z</time></trkpt><trkpt lat="40.0281257" lon="15.7472922"><ele>582.5</ele><time>2026-05-02T09:54:05.873Z</time></trkpt><trkpt lat="40.0280921" lon="15.7474361"><ele>579.25</ele><time>2026-05-02T09:54:06.874Z</time></trkpt><trkpt lat="40.0280344" lon="15.7475603"><ele>576.0</ele><time>2026-05-02T09:54:07.852Z</time></trkpt><trkpt lat="40.0279398" lon="15.7476708"><ele>573.5</ele><time>2026-05-02T09:54:08.87Z</time></trkpt><trkpt lat="40.0278312" lon="15.7477775"><ele>571.0</ele><time>2026-05-02T09:54:09.872Z</time></trkpt><trkpt lat="40.0277264" lon="15.7479064"><ele>568.5</ele><time>2026-05-02T09:54:10.879Z</time></trkpt><trkpt lat="40.0276488" lon="15.7480752"><ele>566.0</ele><time>2026-05-02T09:54:11.87Z</time></trkpt><trkpt lat="40.0275843" lon="15.7482679"><ele>566.0</ele><time>2026-05-02T09:54:12.879Z</time></trkpt><trkpt lat="40.0275237" lon="15.7484804"><ele>566.0</ele><time>2026-05-02T09:54:13.866Z</time></trkpt><trkpt lat="40.0274625" lon="15.7486977"><ele>566.0</ele><time>2026-05-02T09:54:14.862Z</time></trkpt><trkpt lat="40.0274021" lon="15.7488994"><ele>567.3333333333333</ele><time>2026-05-02T09:54:15.876Z</time></trkpt><trkpt lat="40.027347" lon="15.7490932"><ele>568.6666666666666</ele><time>2026-05-02T09:54:16.873Z</time></trkpt><trkpt lat="40.0272857" lon="15.7492839"><ele>570.0</ele><time>2026-05-02T09:54:17.857Z</time></trkpt><trkpt lat="40.0272224" lon="15.7494796"><ele>570.0</ele><time>2026-05-02T09:54:18.87Z</time></trkpt><trkpt lat="40.0271458" lon="15.749672"><ele>570.0</ele><time>2026-05-02T09:54:19.879Z</time></trkpt><trkpt lat="40.0270545" lon="15.7498598"><ele>570.0</ele><time>2026-05-02T09:54:20.863Z</time></trkpt><trkpt lat="40.0269487" lon="15.7500382"><ele>573.0</ele><time>2026-05-02T09:54:21.878Z</time></trkpt><trkpt lat="40.0268291" lon="15.7502111"><ele>576.0</ele><time>2026-05-02T09:54:22.877Z</time></trkpt><trkpt lat="40.026697" lon="15.7503843"><ele>579.0</ele><time>2026-05-02T09:54:23.881Z</time></trkpt><trkpt lat="40.0265657" lon="15.7505544"><ele>579.0</ele><time>2026-05-02T09:54:24.869Z</time></trkpt><trkpt lat="40.0264447" lon="15.7507198"><ele>579.0</ele><time>2026-05-02T09:54:25.863Z</time></trkpt><trkpt lat="40.0263303" lon="15.7508819"><ele>579.0</ele><time>2026-05-02T09:54:26.876Z</time></trkpt><trkpt lat="40.0262229" lon="15.7510489"><ele>574.6666666666666</ele><time>2026-05-02T09:54:27.861Z</time></trkpt><trkpt lat="40.0261208" lon="15.7512335"><ele>570.3333333333333</ele><time>2026-05-02T09:54:28.869Z</time></trkpt><trkpt lat="40.0260345" lon="15.7514379"><ele>566.0</ele><time>2026-05-02T09:54:29.869Z</time></trkpt><trkpt lat="40.0259556" lon="15.7516649"><ele>564.0</ele><time>2026-05-02T09:54:30.867Z</time></trkpt><trkpt lat="40.0259035" lon="15.7519157"><ele>562.0</ele><time>2026-05-02T09:54:31.867Z</time></trkpt><trkpt lat="40.0258678" lon="15.7521795"><ele>560.0</ele><time>2026-05-02T09:54:32.862Z</time></trkpt><trkpt lat="40.0258248" lon="15.7524476"><ele>563.0</ele><time>2026-05-02T09:54:33.858Z</time></trkpt><trkpt lat="40.025777" lon="15.7527147"><ele>566.0</ele><time>2026-05-02T09:54:34.866Z</time></trkpt><trkpt lat="40.0257388" lon="15.7529908"><ele>569.0</ele><time>2026-05-02T09:54:35.861Z</time></trkpt><trkpt lat="40.0256824" lon="15.7532735"><ele>569.0</ele><time>2026-05-02T09:54:36.871Z</time></trkpt><trkpt lat="40.0256412" lon="15.75353"><ele>569.0</ele><time>2026-05-02T09:54:37.873Z</time></trkpt><trkpt lat="40.0256082" lon="15.753779"><ele>569.0</ele><time>2026-05-02T09:54:38.87Z</time></trkpt><trkpt lat="40.025573" lon="15.7540325"><ele>567.3333333333333</ele><time>2026-05-02T09:54:39.88Z</time></trkpt><trkpt lat="40.0255297" lon="15.7542882"><ele>565.6666666666666</ele><time>2026-05-02T09:54:40.871Z</time></trkpt><trkpt lat="40.0254851" lon="15.7545382"><ele>564.0</ele><time>2026-05-02T09:54:41.878Z</time></trkpt><trkpt lat="40.0254389" lon="15.7547788"><ele>563.0</ele><time>2026-05-02T09:54:42.864Z</time></trkpt><trkpt lat="40.0254026" lon="15.7550068"><ele>562.0</ele><time>2026-05-02T09:54:43.865Z</time></trkpt><trkpt lat="40.0253679" lon="15.7552229"><ele>561.0</ele><time>2026-05-02T09:54:44.875Z</time></trkpt><trkpt lat="40.0253362" lon="15.7554342"><ele>560.0</ele><time>2026-05-02T09:54:45.876Z</time></trkpt><trkpt lat="40.0253038" lon="15.7556351"><ele>559.0</ele><time>2026-05-02T09:54:46.881Z</time></trkpt><trkpt lat="40.0252652" lon="15.7558246"><ele>558.0</ele><time>2026-05-02T09:54:47.871Z</time></trkpt><trkpt lat="40.0252215" lon="15.7559982"><ele>557.0</ele><time>2026-05-02T09:54:48.877Z</time></trkpt><trkpt lat="40.0251536" lon="15.7561598"><ele>558.25</ele><time>2026-05-02T09:54:49.876Z</time></trkpt><trkpt lat="40.0250686" lon="15.7563204"><ele>559.5</ele><time>2026-05-02T09:54:50.873Z</time></trkpt><trkpt lat="40.0249868" lon="15.7564764"><ele>560.75</ele><time>2026-05-02T09:54:51.87Z</time></trkpt><trkpt lat="40.0249197" lon="15.7566391"><ele>562.0</ele><time>2026-05-02T09:54:52.866Z</time></trkpt><trkpt lat="40.02487" lon="15.7568231"><ele>561.0</ele><time>2026-05-02T09:54:53.858Z</time></trkpt><trkpt lat="40.0248436" lon="15.7570316"><ele>560.0</ele><time>2026-05-02T09:54:54.875Z</time></trkpt><trkpt lat="40.0248487" lon="15.7572643"><ele>559.0</ele><time>2026-05-02T09:54:55.858Z</time></trkpt><trkpt lat="40.0248705" lon="15.7575108"><ele>557.0</ele><time>2026-05-02T09:54:56.872Z</time></trkpt><trkpt lat="40.0248871" lon="15.7577589"><ele>555.0</ele><time>2026-05-02T09:54:57.879Z</time></trkpt><trkpt lat="40.0249086" lon="15.7579831"><ele>553.0</ele><time>2026-05-02T09:54:58.871Z</time></trkpt><trkpt lat="40.0249236" lon="15.7581699"><ele>553.0</ele><time>2026-05-02T09:54:59.867Z</time></trkpt><trkpt lat="40.0249302" lon="15.7583406"><ele>553.0</ele><time>2026-05-02T09:55:00.876Z</time></trkpt><trkpt lat="40.0249334" lon="15.7584965"><ele>553.0</ele><time>2026-05-02T09:55:01.868Z</time></trkpt><trkpt lat="40.0249147" lon="15.7586551"><ele>553.0</ele><time>2026-05-02T09:55:02.875Z</time></trkpt><trkpt lat="40.0248663" lon="15.7588118"><ele>550.0</ele><time>2026-05-02T09:55:03.872Z</time></trkpt><trkpt lat="40.0248013" lon="15.7589481"><ele>547.0</ele><time>2026-05-02T09:55:04.864Z</time></trkpt><trkpt lat="40.0247159" lon="15.7590407"><ele>544.0</ele><time>2026-05-02T09:55:05.872Z</time></trkpt><trkpt lat="40.0246094" lon="15.759104"><ele>541.0</ele><time>2026-05-02T09:55:06.865Z</time></trkpt><trkpt lat="40.0244873" lon="15.7591336"><ele>541.0</ele><time>2026-05-02T09:55:07.871Z</time></trkpt><trkpt lat="40.0243499" lon="15.7591534"><ele>541.0</ele><time>2026-05-02T09:55:08.87Z</time></trkpt><trkpt lat="40.0242232" lon="15.7591989"><ele>541.0</ele><time>2026-05-02T09:55:09.871Z</time></trkpt><trkpt lat="40.0241284" lon="15.7592823"><ele>541.0</ele><time>2026-05-02T09:55:10.887Z</time></trkpt><trkpt lat="40.0240522" lon="15.7594086"><ele>550.6666666666667</ele><time>2026-05-02T09:55:11.864Z</time></trkpt><trkpt lat="40.024003" lon="15.7595875"><ele>560.3333333333334</ele><time>2026-05-02T09:55:12.881Z</time></trkpt><trkpt lat="40.0239856" lon="15.7597848"><ele>570.0</ele><time>2026-05-02T09:55:13.865Z</time></trkpt><trkpt lat="40.0239743" lon="15.7600021"><ele>568.0</ele><time>2026-05-02T09:55:14.864Z</time></trkpt><trkpt lat="40.0239593" lon="15.7602344"><ele>566.0</ele><time>2026-05-02T09:55:15.872Z</time></trkpt><trkpt lat="40.0239414" lon="15.7604896"><ele>564.0</ele><time>2026-05-02T09:55:16.871Z</time></trkpt><trkpt lat="40.02392" lon="15.7607536"><ele>564.0</ele><time>2026-05-02T09:55:17.86Z</time></trkpt><trkpt lat="40.0238934" lon="15.7610177"><ele>564.0</ele><time>2026-05-02T09:55:18.871Z</time></trkpt><trkpt lat="40.0238668" lon="15.7612738"><ele>564.0</ele><time>2026-05-02T09:55:19.862Z</time></trkpt><trkpt lat="40.0238419" lon="15.761511"><ele>560.0</ele><time>2026-05-02T09:55:20.877Z</time></trkpt><trkpt lat="40.0238212" lon="15.7617495"><ele>556.0</ele><time>2026-05-02T09:55:21.867Z</time></trkpt><trkpt lat="40.0238155" lon="15.7619942"><ele>552.0</ele><time>2026-05-02T09:55:22.87Z</time></trkpt><trkpt lat="40.0238264" lon="15.7622335"><ele>549.0</ele><time>2026-05-02T09:55:23.863Z</time></trkpt><trkpt lat="40.0238502" lon="15.76245"><ele>546.0</ele><time>2026-05-02T09:55:24.87Z</time></trkpt><trkpt lat="40.0238734" lon="15.7626489"><ele>543.0</ele><time>2026-05-02T09:55:25.858Z</time></trkpt><trkpt lat="40.0239012" lon="15.7628309"><ele>541.75</ele><time>2026-05-02T09:55:26.871Z</time></trkpt><trkpt lat="40.0239098" lon="15.7630089"><ele>540.5</ele><time>2026-05-02T09:55:27.87Z</time></trkpt><trkpt lat="40.023899" lon="15.7632031"><ele>539.25</ele><time>2026-05-02T09:55:28.882Z</time></trkpt><trkpt lat="40.0238782" lon="15.7634141"><ele>538.0</ele><time>2026-05-02T09:55:29.865Z</time></trkpt><trkpt lat="40.023845" lon="15.763632"><ele>536.6666666666667</ele><time>2026-05-02T09:55:30.872Z</time></trkpt><trkpt lat="40.0237969" lon="15.7638477"><ele>535.3333333333334</ele><time>2026-05-02T09:55:31.864Z</time></trkpt><trkpt lat="40.0237423" lon="15.7640658"><ele>534.0</ele><time>2026-05-02T09:55:32.872Z</time></trkpt><trkpt lat="40.0236921" lon="15.7642841"><ele>533.25</ele><time>2026-05-02T09:55:33.862Z</time></trkpt><trkpt lat="40.0236512" lon="15.7644833"><ele>532.5</ele><time>2026-05-02T09:55:34.875Z</time></trkpt><trkpt lat="40.0236076" lon="15.7646608"><ele>531.75</ele><time>2026-05-02T09:55:35.865Z</time></trkpt><trkpt lat="40.0235789" lon="15.7648312"><ele>531.0</ele><time>2026-05-02T09:55:36.87Z</time></trkpt><trkpt lat="40.0235608" lon="15.7650059"><ele>531.0</ele><time>2026-05-02T09:55:37.866Z</time></trkpt><trkpt lat="40.0235544" lon="15.7651881"><ele>531.0</ele><time>2026-05-02T09:55:38.861Z</time></trkpt><trkpt lat="40.0235513" lon="15.7653649"><ele>531.0</ele><time>2026-05-02T09:55:39.849Z</time></trkpt><trkpt lat="40.0235655" lon="15.7655441"><ele>531.0</ele><time>2026-05-02T09:55:40.882Z</time></trkpt><trkpt lat="40.0235979" lon="15.7657222"><ele>530.5</ele><time>2026-05-02T09:55:41.856Z</time></trkpt><trkpt lat="40.0236586" lon="15.7658859"><ele>530.0</ele><time>2026-05-02T09:55:42.878Z</time></trkpt><trkpt lat="40.0237408" lon="15.7660389"><ele>529.5</ele><time>2026-05-02T09:55:43.865Z</time></trkpt><trkpt lat="40.0238367" lon="15.7661842"><ele>529.0</ele><time>2026-05-02T09:55:44.871Z</time></trkpt><trkpt lat="40.0239331" lon="15.7663099"><ele>527.5</ele><time>2026-05-02T09:55:45.866Z</time></trkpt><trkpt lat="40.024027" lon="15.76643"><ele>526.0</ele><time>2026-05-02T09:55:46.869Z</time></trkpt><trkpt lat="40.0241028" lon="15.7665536"><ele>524.5</ele><time>2026-05-02T09:55:47.854Z</time></trkpt><trkpt lat="40.0241526" lon="15.7666847"><ele>523.0</ele><time>2026-05-02T09:55:48.868Z</time></trkpt><trkpt lat="40.0241799" lon="15.7668308"><ele>526.25</ele><time>2026-05-02T09:55:49.866Z</time></trkpt><trkpt lat="40.024196" lon="15.7669932"><ele>529.5</ele><time>2026-05-02T09:55:50.87Z</time></trkpt><trkpt lat="40.0242298" lon="15.7671577"><ele>532.75</ele><time>2026-05-02T09:55:51.863Z</time></trkpt><trkpt lat="40.0242936" lon="15.7673071"><ele>536.0</ele><time>2026-05-02T09:55:52.87Z</time></trkpt><trkpt lat="40.0243849" lon="15.7674258"><ele>536.0</ele><time>2026-05-02T09:55:53.859Z</time></trkpt><trkpt lat="40.024482" lon="15.7675193"><ele>536.0</ele><time>2026-05-02T09:55:54.861Z</time></trkpt><trkpt lat="40.0245651" lon="15.7676269"><ele>536.0</ele><time>2026-05-02T09:55:55.861Z</time></trkpt><trkpt lat="40.0246401" lon="15.7677778"><ele>536.0</ele><time>2026-05-02T09:55:56.877Z</time></trkpt><trkpt lat="40.0246983" lon="15.7679513"><ele>541.3333333333333</ele><time>2026-05-02T09:55:57.877Z</time></trkpt><trkpt lat="40.0247464" lon="15.7681297"><ele>546.6666666666666</ele><time>2026-05-02T09:55:58.873Z</time></trkpt><trkpt lat="40.0247853" lon="15.7683186"><ele>552.0</ele><time>2026-05-02T09:55:59.859Z</time></trkpt><trkpt lat="40.0248229" lon="15.7685159"><ele>552.0</ele><time>2026-05-02T09:56:00.862Z</time></trkpt><trkpt lat="40.0248565" lon="15.7687174"><ele>552.0</ele><time>2026-05-02T09:56:01.86Z</time></trkpt><trkpt lat="40.0248734" lon="15.7689229"><ele>552.0</ele><time>2026-05-02T09:56:02.875Z</time></trkpt><trkpt lat="40.0248758" lon="15.7691333"><ele>552.0</ele><time>2026-05-02T09:56:03.864Z</time></trkpt><trkpt lat="40.0248642" lon="15.7693416"><ele>552.0</ele><time>2026-05-02T09:56:04.874Z</time></trkpt><trkpt lat="40.0248516" lon="15.7695496"><ele>552.0</ele><time>2026-05-02T09:56:05.86Z</time></trkpt><trkpt lat="40.0248306" lon="15.76976"><ele>550.3333333333334</ele><time>2026-05-02T09:56:06.868Z</time></trkpt><trkpt lat="40.0248013" lon="15.7699674"><ele>548.6666666666667</ele><time>2026-05-02T09:56:07.883Z</time></trkpt><trkpt lat="40.0247677" lon="15.7701795"><ele>547.0</ele><time>2026-05-02T09:56:08.871Z</time></trkpt><trkpt lat="40.0247333" lon="15.7703941"><ele>544.6666666666667</ele><time>2026-05-02T09:56:09.874Z</time></trkpt><trkpt lat="40.0247051" lon="15.7706116"><ele>542.3333333333334</ele><time>2026-05-02T09:56:10.868Z</time></trkpt><trkpt lat="40.0246755" lon="15.7708233"><ele>540.0</ele><time>2026-05-02T09:56:11.874Z</time></trkpt><trkpt lat="40.0246485" lon="15.771021"><ele>536.25</ele><time>2026-05-02T09:56:12.875Z</time></trkpt><trkpt lat="40.0246231" lon="15.7712033"><ele>532.5</ele><time>2026-05-02T09:56:13.878Z</time></trkpt><trkpt lat="40.0245977" lon="15.7713755"><ele>528.75</ele><time>2026-05-02T09:56:14.873Z</time></trkpt><trkpt lat="40.0245687" lon="15.7715363"><ele>525.0</ele><time>2026-05-02T09:56:15.866Z</time></trkpt><trkpt lat="40.024529" lon="15.7716909"><ele>525.0</ele><time>2026-05-02T09:56:16.864Z</time></trkpt><trkpt lat="40.0244669" lon="15.7718409"><ele>525.0</ele><time>2026-05-02T09:56:17.867Z</time></trkpt><trkpt lat="40.0243789" lon="15.7719783"><ele>525.0</ele><time>2026-05-02T09:56:18.877Z</time></trkpt><trkpt lat="40.0242947" lon="15.7721007"><ele>525.0</ele><time>2026-05-02T09:56:19.865Z</time></trkpt><trkpt lat="40.0242263" lon="15.7722112"><ele>523.4</ele><time>2026-05-02T09:56:20.865Z</time></trkpt><trkpt lat="40.0241775" lon="15.7723331"><ele>521.8</ele><time>2026-05-02T09:56:21.865Z</time></trkpt><trkpt lat="40.0241482" lon="15.7724616"><ele>520.2</ele><time>2026-05-02T09:56:22.858Z</time></trkpt><trkpt lat="40.0241379" lon="15.7725898"><ele>518.6</ele><time>2026-05-02T09:56:23.857Z</time></trkpt><trkpt lat="40.0241455" lon="15.7727089"><ele>517.0</ele><time>2026-05-02T09:56:24.856Z</time></trkpt><trkpt lat="40.024161" lon="15.7728151"><ele>517.0</ele><time>2026-05-02T09:56:25.865Z</time></trkpt><trkpt lat="40.0241805" lon="15.7729133"><ele>517.0</ele><time>2026-05-02T09:56:26.874Z</time></trkpt><trkpt lat="40.0242132" lon="15.7730095"><ele>517.0</ele><time>2026-05-02T09:56:27.864Z</time></trkpt><trkpt lat="40.0242471" lon="15.7731039"><ele>517.0</ele><time>2026-05-02T09:56:28.865Z</time></trkpt><trkpt lat="40.0242835" lon="15.7731987"><ele>517.0</ele><time>2026-05-02T09:56:29.862Z</time></trkpt><trkpt lat="40.0243193" lon="15.7732921"><ele>517.0</ele><time>2026-05-02T09:56:30.864Z</time></trkpt><trkpt lat="40.0243564" lon="15.7733845"><ele>517.0</ele><time>2026-05-02T09:56:31.87Z</time></trkpt><trkpt lat="40.0243985" lon="15.7734843"><ele>517.0</ele><time>2026-05-02T09:56:32.859Z</time></trkpt><trkpt lat="40.0244424" lon="15.7735837"><ele>517.0</ele><time>2026-05-02T09:56:33.869Z</time></trkpt><trkpt lat="40.0244868" lon="15.7736916"><ele>517.0</ele><time>2026-05-02T09:56:34.88Z</time></trkpt><trkpt lat="40.024533" lon="15.7738009"><ele>517.0</ele><time>2026-05-02T09:56:35.86Z</time></trkpt><trkpt lat="40.0245827" lon="15.7739089"><ele>516.8333333333334</ele><time>2026-05-02T09:56:36.873Z</time></trkpt><trkpt lat="40.0246238" lon="15.7740199"><ele>516.6666666666667</ele><time>2026-05-02T09:56:37.874Z</time></trkpt><trkpt lat="40.0246684" lon="15.7741326"><ele>516.5</ele><time>2026-05-02T09:56:38.87Z</time></trkpt><trkpt lat="40.0247148" lon="15.7742378"><ele>516.3333333333334</ele><time>2026-05-02T09:56:39.859Z</time></trkpt><trkpt lat="40.0247533" lon="15.7743335"><ele>516.1666666666666</ele><time>2026-05-02T09:56:40.871Z</time></trkpt><trkpt lat="40.0247886" lon="15.7744158"><ele>516.0</ele><time>2026-05-02T09:56:41.867Z</time></trkpt><trkpt lat="40.0248249" lon="15.7744904"><ele>516.0</ele><time>2026-05-02T09:56:42.882Z</time></trkpt><trkpt lat="40.0248587" lon="15.7745611"><ele>516.0</ele><time>2026-05-02T09:56:43.869Z</time></trkpt><trkpt lat="40.0248877" lon="15.7746341"><ele>516.0</ele><time>2026-05-02T09:56:44.873Z</time></trkpt><trkpt lat="40.0249367" lon="15.7747575"><ele>516.0</ele><time>2026-05-02T09:56:46.874Z</time></trkpt><trkpt lat="40.0249995" lon="15.774886"><ele>516.0</ele><time>2026-05-02T09:56:48.874Z</time></trkpt><trkpt lat="40.0250451" lon="15.7749742"><ele>516.0</ele><time>2026-05-02T09:56:49.868Z</time></trkpt><trkpt lat="40.0250911" lon="15.7750867"><ele>514.0</ele><time>2026-05-02T09:56:50.881Z</time></trkpt><trkpt lat="40.0251368" lon="15.7752084"><ele>512.0</ele><time>2026-05-02T09:56:51.87Z</time></trkpt><trkpt lat="40.025184" lon="15.7753242"><ele>510.0</ele><time>2026-05-02T09:56:52.869Z</time></trkpt><trkpt lat="40.0252315" lon="15.7754371"><ele>508.0</ele><time>2026-05-02T09:56:53.877Z</time></trkpt><trkpt lat="40.0252805" lon="15.7755448"><ele>506.0</ele><time>2026-05-02T09:56:54.874Z</time></trkpt><trkpt lat="40.0253276" lon="15.7756474"><ele>505.99999999999994</ele><time>2026-05-02T09:56:55.874Z</time></trkpt><trkpt lat="40.0253707" lon="15.7757435"><ele>506.0</ele><time>2026-05-02T09:56:56.875Z</time></trkpt><trkpt lat="40.0254093" lon="15.7758289"><ele>506.0</ele><time>2026-05-02T09:56:57.867Z</time></trkpt><trkpt lat="40.0254373" lon="15.775912"><ele>506.0</ele><time>2026-05-02T09:56:58.865Z</time></trkpt><trkpt lat="40.0254717" lon="15.7760146"><ele>505.99999999999994</ele><time>2026-05-02T09:57:00.878Z</time></trkpt><trkpt lat="40.0255213" lon="15.7761141"><ele>506.0</ele><time>2026-05-02T09:57:03.861Z</time></trkpt><trkpt lat="40.0255827" lon="15.7762058"><ele>506.0</ele><time>2026-05-02T09:57:06.864Z</time></trkpt><trkpt lat="40.0256504" lon="15.7763363"><ele>506.0</ele><time>2026-05-02T09:57:08.873Z</time></trkpt><trkpt lat="40.0256852" lon="15.77643"><ele>506.0</ele><time>2026-05-02T09:57:09.863Z</time></trkpt><trkpt lat="40.0257166" lon="15.7765388"><ele>506.0</ele><time>2026-05-02T09:57:10.871Z</time></trkpt><trkpt lat="40.025757" lon="15.7766509"><ele>506.0</ele><time>2026-05-02T09:57:11.855Z</time></trkpt><trkpt lat="40.0258016" lon="15.7767593"><ele>505.49999999999994</ele><time>2026-05-02T09:57:12.877Z</time></trkpt><trkpt lat="40.0258486" lon="15.7768622"><ele>505.0</ele><time>2026-05-02T09:57:13.873Z</time></trkpt><trkpt lat="40.0258863" lon="15.7769558"><ele>504.5</ele><time>2026-05-02T09:57:14.879Z</time></trkpt><trkpt lat="40.0259193" lon="15.7770384"><ele>504.0</ele><time>2026-05-02T09:57:15.872Z</time></trkpt><trkpt lat="40.0259508" lon="15.777114"><ele>503.49999999999994</ele><time>2026-05-02T09:57:16.867Z</time></trkpt><trkpt lat="40.0259844" lon="15.7771927"><ele>503.0</ele><time>2026-05-02T09:57:17.878Z</time></trkpt><trkpt lat="40.0260171" lon="15.7772749"><ele>503.0</ele><time>2026-05-02T09:57:18.876Z</time></trkpt><trkpt lat="40.026051" lon="15.7773647"><ele>503.00000000000006</ele><time>2026-05-02T09:57:19.875Z</time></trkpt><trkpt lat="40.0260826" lon="15.7774542"><ele>503.0</ele><time>2026-05-02T09:57:20.872Z</time></trkpt><trkpt lat="40.0261107" lon="15.7775356"><ele>503.0</ele><time>2026-05-02T09:57:21.873Z</time></trkpt><trkpt lat="40.0261367" lon="15.7776184"><ele>503.00000000000006</ele><time>2026-05-02T09:57:22.869Z</time></trkpt><trkpt lat="40.0261704" lon="15.7776967"><ele>503.0</ele><time>2026-05-02T09:57:23.868Z</time></trkpt><trkpt lat="40.0262144" lon="15.7777759"><ele>503.0</ele><time>2026-05-02T09:57:24.872Z</time></trkpt><trkpt lat="40.0262694" lon="15.7778494"><ele>502.99999999999994</ele><time>2026-05-02T09:57:25.872Z</time></trkpt><trkpt lat="40.0263329" lon="15.7779214"><ele>503.0</ele><time>2026-05-02T09:57:26.873Z</time></trkpt><trkpt lat="40.0264065" lon="15.7779877"><ele>503.0</ele><time>2026-05-02T09:57:27.872Z</time></trkpt><trkpt lat="40.0264854" lon="15.7780444"><ele>503.0</ele><time>2026-05-02T09:57:28.875Z</time></trkpt><trkpt lat="40.0265667" lon="15.778082"><ele>502.99999999999994</ele><time>2026-05-02T09:57:29.872Z</time></trkpt><trkpt lat="40.0266414" lon="15.7781069"><ele>503.0</ele><time>2026-05-02T09:57:30.874Z</time></trkpt><trkpt lat="40.0267161" lon="15.7781295"><ele>502.2</ele><time>2026-05-02T09:57:31.878Z</time></trkpt><trkpt lat="40.0267923" lon="15.7781553"><ele>501.4</ele><time>2026-05-02T09:57:32.867Z</time></trkpt><trkpt lat="40.0268763" lon="15.7781986"><ele>500.59999999999997</ele><time>2026-05-02T09:57:33.877Z</time></trkpt><trkpt lat="40.0269671" lon="15.7782369"><ele>499.79999999999995</ele><time>2026-05-02T09:57:34.872Z</time></trkpt><trkpt lat="40.0270741" lon="15.7782716"><ele>499.0</ele><time>2026-05-02T09:57:35.869Z</time></trkpt><trkpt lat="40.0271832" lon="15.778312"><ele>499.0</ele><time>2026-05-02T09:57:36.864Z</time></trkpt><trkpt lat="40.027295" lon="15.778353"><ele>499.0</ele><time>2026-05-02T09:57:37.874Z</time></trkpt><trkpt lat="40.0274057" lon="15.7783874"><ele>499.0</ele><time>2026-05-02T09:57:38.87Z</time></trkpt><trkpt lat="40.0275108" lon="15.778412"><ele>499.0</ele><time>2026-05-02T09:57:39.87Z</time></trkpt><trkpt lat="40.0276098" lon="15.7784182"><ele>499.0</ele><time>2026-05-02T09:57:40.875Z</time></trkpt><trkpt lat="40.0277145" lon="15.7783933"><ele>497.5</ele><time>2026-05-02T09:57:41.875Z</time></trkpt><trkpt lat="40.0278195" lon="15.7783298"><ele>496.0</ele><time>2026-05-02T09:57:42.876Z</time></trkpt><trkpt lat="40.0279143" lon="15.7782206"><ele>494.5</ele><time>2026-05-02T09:57:43.868Z</time></trkpt><trkpt lat="40.0279995" lon="15.7780978"><ele>493.0</ele><time>2026-05-02T09:57:44.877Z</time></trkpt><trkpt lat="40.0280697" lon="15.777939"><ele>493.0</ele><time>2026-05-02T09:57:45.868Z</time></trkpt><trkpt lat="40.0281229" lon="15.7777601"><ele>493.0</ele><time>2026-05-02T09:57:46.874Z</time></trkpt><trkpt lat="40.0281596" lon="15.7775594"><ele>493.0</ele><time>2026-05-02T09:57:47.866Z</time></trkpt><trkpt lat="40.0281964" lon="15.7773547"><ele>492.5</ele><time>2026-05-02T09:57:48.881Z</time></trkpt><trkpt lat="40.028234" lon="15.7771734"><ele>492.0</ele><time>2026-05-02T09:57:49.874Z</time></trkpt><trkpt lat="40.0282619" lon="15.7770214"><ele>491.5</ele><time>2026-05-02T09:57:50.873Z</time></trkpt><trkpt lat="40.0282845" lon="15.7768866"><ele>491.0</ele><time>2026-05-02T09:57:51.871Z</time></trkpt><trkpt lat="40.0283196" lon="15.7767688"><ele>490.99999999999994</ele><time>2026-05-02T09:57:52.872Z</time></trkpt><trkpt lat="40.0283672" lon="15.7766683"><ele>491.0</ele><time>2026-05-02T09:57:53.875Z</time></trkpt><trkpt lat="40.0284341" lon="15.7766109"><ele>491.0</ele><time>2026-05-02T09:57:54.876Z</time></trkpt><trkpt lat="40.0285048" lon="15.7765885"><ele>491.0</ele><time>2026-05-02T09:57:55.868Z</time></trkpt><trkpt lat="40.0285769" lon="15.7766075"><ele>490.99999999999994</ele><time>2026-05-02T09:57:56.877Z</time></trkpt><trkpt lat="40.0286426" lon="15.7766673"><ele>491.0</ele><time>2026-05-02T09:57:57.87Z</time></trkpt><trkpt lat="40.0286928" lon="15.7767563"><ele>490.0</ele><time>2026-05-02T09:57:58.874Z</time></trkpt><trkpt lat="40.028714" lon="15.7768828"><ele>489.0</ele><time>2026-05-02T09:57:59.878Z</time></trkpt><trkpt lat="40.0287018" lon="15.7769976"><ele>488.0</ele><time>2026-05-02T09:58:00.87Z</time></trkpt><trkpt lat="40.0286852" lon="15.7771174"><ele>487.0</ele><time>2026-05-02T09:58:01.866Z</time></trkpt><trkpt lat="40.0286841" lon="15.7772444"><ele>486.0</ele><time>2026-05-02T09:58:02.876Z</time></trkpt><trkpt lat="40.0286996" lon="15.7773713"><ele>486.0</ele><time>2026-05-02T09:58:03.87Z</time></trkpt><trkpt lat="40.02874" lon="15.777488"><ele>486.0</ele><time>2026-05-02T09:58:04.872Z</time></trkpt><trkpt lat="40.0288009" lon="15.7776049"><ele>486.0</ele><time>2026-05-02T09:58:05.879Z</time></trkpt><trkpt lat="40.0288723" lon="15.7777323"><ele>486.0</ele><time>2026-05-02T09:58:06.869Z</time></trkpt><trkpt lat="40.0289343" lon="15.7778504"><ele>486.0</ele><time>2026-05-02T09:58:07.869Z</time></trkpt><trkpt lat="40.0289718" lon="15.7779485"><ele>484.8</ele><time>2026-05-02T09:58:08.867Z</time></trkpt><trkpt lat="40.028985" lon="15.7780553"><ele>483.6</ele><time>2026-05-02T09:58:09.873Z</time></trkpt><trkpt lat="40.0289649" lon="15.7781732"><ele>482.4</ele><time>2026-05-02T09:58:10.882Z</time></trkpt><trkpt lat="40.0289389" lon="15.7783065"><ele>481.2</ele><time>2026-05-02T09:58:11.859Z</time></trkpt><trkpt lat="40.0289142" lon="15.7784584"><ele>480.0</ele><time>2026-05-02T09:58:12.871Z</time></trkpt><trkpt lat="40.0289085" lon="15.7786197"><ele>478.8</ele><time>2026-05-02T09:58:13.877Z</time></trkpt><trkpt lat="40.0289068" lon="15.778759"><ele>477.6</ele><time>2026-05-02T09:58:14.873Z</time></trkpt><trkpt lat="40.0289221" lon="15.7788833"><ele>476.4</ele><time>2026-05-02T09:58:15.872Z</time></trkpt><trkpt lat="40.0289443" lon="15.7790051"><ele>475.2</ele><time>2026-05-02T09:58:16.873Z</time></trkpt><trkpt lat="40.0289852" lon="15.7791293"><ele>474.0</ele><time>2026-05-02T09:58:17.87Z</time></trkpt><trkpt lat="40.0290416" lon="15.7792594"><ele>473.5</ele><time>2026-05-02T09:58:18.867Z</time></trkpt><trkpt lat="40.0291094" lon="15.7793909"><ele>473.0</ele><time>2026-05-02T09:58:19.875Z</time></trkpt><trkpt lat="40.02919" lon="15.77953"><ele>472.5</ele><time>2026-05-02T09:58:20.886Z</time></trkpt><trkpt lat="40.029279" lon="15.779657"><ele>472.0</ele><time>2026-05-02T09:58:21.876Z</time></trkpt><trkpt lat="40.0293599" lon="15.7797764"><ele>472.0</ele><time>2026-05-02T09:58:22.885Z</time></trkpt><trkpt lat="40.0294148" lon="15.7799018"><ele>472.00000000000006</ele><time>2026-05-02T09:58:23.871Z</time></trkpt><trkpt lat="40.0294416" lon="15.7800377"><ele>472.00000000000006</ele><time>2026-05-02T09:58:24.871Z</time></trkpt><trkpt lat="40.0294516" lon="15.7801841"><ele>472.0</ele><time>2026-05-02T09:58:25.876Z</time></trkpt><trkpt lat="40.0294706" lon="15.780312"><ele>472.0</ele><time>2026-05-02T09:58:26.865Z</time></trkpt><trkpt lat="40.0295074" lon="15.7804088"><ele>472.0</ele><time>2026-05-02T09:58:27.861Z</time></trkpt><trkpt lat="40.0295623" lon="15.7804933"><ele>472.00000000000006</ele><time>2026-05-02T09:58:28.872Z</time></trkpt><trkpt lat="40.0296458" lon="15.7805624"><ele>472.00000000000006</ele><time>2026-05-02T09:58:29.864Z</time></trkpt><trkpt lat="40.029751" lon="15.7806189"><ele>472.0</ele><time>2026-05-02T09:58:30.881Z</time></trkpt><trkpt lat="40.0298515" lon="15.7806649"><ele>472.0</ele><time>2026-05-02T09:58:31.864Z</time></trkpt><trkpt lat="40.0299331" lon="15.780725"><ele>472.33333333333337</ele><time>2026-05-02T09:58:32.862Z</time></trkpt><trkpt lat="40.0299851" lon="15.7808212"><ele>472.6666666666667</ele><time>2026-05-02T09:58:33.862Z</time></trkpt><trkpt lat="40.030001" lon="15.7809285"><ele>473.0</ele><time>2026-05-02T09:58:34.87Z</time></trkpt><trkpt lat="40.0299806" lon="15.7810317"><ele>473.33333333333337</ele><time>2026-05-02T09:58:35.861Z</time></trkpt><trkpt lat="40.0299275" lon="15.7811054"><ele>473.6666666666667</ele><time>2026-05-02T09:58:36.863Z</time></trkpt><trkpt lat="40.0298426" lon="15.7811522"><ele>474.0</ele><time>2026-05-02T09:58:37.867Z</time></trkpt><trkpt lat="40.0297404" lon="15.781172"><ele>472.75</ele><time>2026-05-02T09:58:38.873Z</time></trkpt><trkpt lat="40.0296268" lon="15.7811839"><ele>471.5</ele><time>2026-05-02T09:58:39.861Z</time></trkpt><trkpt lat="40.029524" lon="15.7812586"><ele>470.25</ele><time>2026-05-02T09:58:40.865Z</time></trkpt><trkpt lat="40.0294344" lon="15.7813564"><ele>469.0</ele><time>2026-05-02T09:58:41.868Z</time></trkpt><trkpt lat="40.0293682" lon="15.7814858"><ele>469.0</ele><time>2026-05-02T09:58:42.864Z</time></trkpt><trkpt lat="40.0293401" lon="15.7816653"><ele>469.0</ele><time>2026-05-02T09:58:43.859Z</time></trkpt><trkpt lat="40.0293294" lon="15.7818718"><ele>469.0</ele><time>2026-05-02T09:58:44.866Z</time></trkpt><trkpt lat="40.029316" lon="15.7820771"><ele>468.0</ele><time>2026-05-02T09:58:45.86Z</time></trkpt><trkpt lat="40.0293065" lon="15.7822818"><ele>467.0</ele><time>2026-05-02T09:58:46.866Z</time></trkpt><trkpt lat="40.0292972" lon="15.7824809"><ele>466.0</ele><time>2026-05-02T09:58:47.865Z</time></trkpt><trkpt lat="40.0292963" lon="15.7826739"><ele>464.75</ele><time>2026-05-02T09:58:48.871Z</time></trkpt><trkpt lat="40.0292898" lon="15.7828705"><ele>463.5</ele><time>2026-05-02T09:58:49.863Z</time></trkpt><trkpt lat="40.0292766" lon="15.7830663"><ele>462.25</ele><time>2026-05-02T09:58:50.873Z</time></trkpt><trkpt lat="40.0292502" lon="15.7832429"><ele>461.0</ele><time>2026-05-02T09:58:51.852Z</time></trkpt><trkpt lat="40.0292192" lon="15.783402"><ele>460.0</ele><time>2026-05-02T09:58:52.876Z</time></trkpt><trkpt lat="40.029191" lon="15.7835537"><ele>459.0</ele><time>2026-05-02T09:58:53.857Z</time></trkpt><trkpt lat="40.0291756" lon="15.783705"><ele>458.0</ele><time>2026-05-02T09:58:54.861Z</time></trkpt><trkpt lat="40.029193" lon="15.7838557"><ele>457.0</ele><time>2026-05-02T09:58:55.873Z</time></trkpt><trkpt lat="40.0292487" lon="15.7840098"><ele>457.0</ele><time>2026-05-02T09:58:56.88Z</time></trkpt><trkpt lat="40.0293192" lon="15.7841605"><ele>457.00000000000006</ele><time>2026-05-02T09:58:57.875Z</time></trkpt><trkpt lat="40.0293664" lon="15.784292"><ele>457.00000000000006</ele><time>2026-05-02T09:58:58.87Z</time></trkpt><trkpt lat="40.0293876" lon="15.7844215"><ele>457.0</ele><time>2026-05-02T09:58:59.875Z</time></trkpt><trkpt lat="40.0293807" lon="15.7845464"><ele>457.0</ele><time>2026-05-02T09:59:00.861Z</time></trkpt><trkpt lat="40.0293387" lon="15.7846778"><ele>454.8</ele><time>2026-05-02T09:59:01.877Z</time></trkpt><trkpt lat="40.0292863" lon="15.7847971"><ele>452.6</ele><time>2026-05-02T09:59:02.863Z</time></trkpt><trkpt lat="40.0292534" lon="15.7849211"><ele>450.40000000000003</ele><time>2026-05-02T09:59:03.865Z</time></trkpt><trkpt lat="40.0292652" lon="15.7850426"><ele>448.20000000000005</ele><time>2026-05-02T09:59:04.864Z</time></trkpt><trkpt lat="40.0292992" lon="15.7851553"><ele>446.0</ele><time>2026-05-02T09:59:05.859Z</time></trkpt><trkpt lat="40.0293487" lon="15.7852514"><ele>442.20000000000005</ele><time>2026-05-02T09:59:06.876Z</time></trkpt><trkpt lat="40.0294163" lon="15.7853293"><ele>438.40000000000003</ele><time>2026-05-02T09:59:07.856Z</time></trkpt><trkpt lat="40.0295144" lon="15.7853786"><ele>434.6</ele><time>2026-05-02T09:59:08.86Z</time></trkpt><trkpt lat="40.0296195" lon="15.7854035"><ele>430.8</ele><time>2026-05-02T09:59:09.855Z</time></trkpt><trkpt lat="40.0297186" lon="15.7854259"><ele>427.0</ele><time>2026-05-02T09:59:10.876Z</time></trkpt><trkpt lat="40.0298001" lon="15.7854609"><ele>427.00000000000006</ele><time>2026-05-02T09:59:11.863Z</time></trkpt><trkpt lat="40.0298763" lon="15.7855085"><ele>427.0</ele><time>2026-05-02T09:59:12.863Z</time></trkpt><trkpt lat="40.02994" lon="15.7855615"><ele>427.0</ele><time>2026-05-02T09:59:13.869Z</time></trkpt><trkpt lat="40.0299962" lon="15.7856221"><ele>427.0</ele><time>2026-05-02T09:59:14.878Z</time></trkpt><trkpt lat="40.0300455" lon="15.7856855"><ele>427.00000000000006</ele><time>2026-05-02T09:59:15.867Z</time></trkpt><trkpt lat="40.0300918" lon="15.7857636"><ele>427.0</ele><time>2026-05-02T09:59:16.868Z</time></trkpt><trkpt lat="40.0301378" lon="15.7858619"><ele>428.0</ele><time>2026-05-02T09:59:17.865Z</time></trkpt><trkpt lat="40.0301828" lon="15.7859869"><ele>429.0</ele><time>2026-05-02T09:59:18.873Z</time></trkpt><trkpt lat="40.0302329" lon="15.786137"><ele>430.0</ele><time>2026-05-02T09:59:19.864Z</time></trkpt><trkpt lat="40.0302903" lon="15.7863"><ele>431.0</ele><time>2026-05-02T09:59:20.866Z</time></trkpt><trkpt lat="40.0303472" lon="15.7864689"><ele>431.0</ele><time>2026-05-02T09:59:21.868Z</time></trkpt><trkpt lat="40.0304211" lon="15.7866318"><ele>431.0</ele><time>2026-05-02T09:59:22.873Z</time></trkpt><trkpt lat="40.0305133" lon="15.7867918"><ele>431.0</ele><time>2026-05-02T09:59:23.87Z</time></trkpt><trkpt lat="40.0306138" lon="15.7869451"><ele>431.75</ele><time>2026-05-02T09:59:24.866Z</time></trkpt><trkpt lat="40.0307071" lon="15.7870819"><ele>432.5</ele><time>2026-05-02T09:59:25.874Z</time></trkpt><trkpt lat="40.0307931" lon="15.7872095"><ele>433.25</ele><time>2026-05-02T09:59:26.855Z</time></trkpt><trkpt lat="40.030876" lon="15.7873376"><ele>434.0</ele><time>2026-05-02T09:59:27.864Z</time></trkpt><trkpt lat="40.0309595" lon="15.78744"><ele>433.99999999999994</ele><time>2026-05-02T09:59:28.862Z</time></trkpt><trkpt lat="40.0310399" lon="15.7875227"><ele>434.0</ele><time>2026-05-02T09:59:29.851Z</time></trkpt><trkpt lat="40.0311144" lon="15.7875776"><ele>434.0</ele><time>2026-05-02T09:59:30.866Z</time></trkpt><trkpt lat="40.0311868" lon="15.7876141"><ele>434.0</ele><time>2026-05-02T09:59:31.87Z</time></trkpt><trkpt lat="40.0312601" lon="15.7876204"><ele>433.99999999999994</ele><time>2026-05-02T09:59:32.878Z</time></trkpt><trkpt lat="40.0313307" lon="15.7875945"><ele>434.0</ele><time>2026-05-02T09:59:33.864Z</time></trkpt><trkpt lat="40.0313858" lon="15.7875429"><ele>434.0</ele><time>2026-05-02T09:59:34.871Z</time></trkpt><trkpt lat="40.0314316" lon="15.7874833"><ele>434.0</ele><time>2026-05-02T09:59:35.862Z</time></trkpt><trkpt lat="40.0314764" lon="15.7873896"><ele>434.0</ele><time>2026-05-02T09:59:36.872Z</time></trkpt><trkpt lat="40.031522" lon="15.7872765"><ele>434.0</ele><time>2026-05-02T09:59:37.866Z</time></trkpt><trkpt lat="40.0315729" lon="15.787145"><ele>434.0</ele><time>2026-05-02T09:59:38.871Z</time></trkpt><trkpt lat="40.0316379" lon="15.786993"><ele>435.0</ele><time>2026-05-02T09:59:39.875Z</time></trkpt><trkpt lat="40.0316973" lon="15.7868311"><ele>436.0</ele><time>2026-05-02T09:59:40.88Z</time></trkpt><trkpt lat="40.0317511" lon="15.7866522"><ele>437.0</ele><time>2026-05-02T09:59:41.873Z</time></trkpt><trkpt lat="40.0317972" lon="15.7864583"><ele>438.0</ele><time>2026-05-02T09:59:42.867Z</time></trkpt><trkpt lat="40.0318289" lon="15.7862476"><ele>438.0</ele><time>2026-05-02T09:59:43.857Z</time></trkpt><trkpt lat="40.0318448" lon="15.7860478"><ele>438.0</ele><time>2026-05-02T09:59:44.869Z</time></trkpt><trkpt lat="40.0318579" lon="15.7858614"><ele>438.0</ele><time>2026-05-02T09:59:45.857Z</time></trkpt><trkpt lat="40.0318659" lon="15.7856777"><ele>438.0</ele><time>2026-05-02T09:59:46.868Z</time></trkpt><trkpt lat="40.0318842" lon="15.7854965"><ele>441.0</ele><time>2026-05-02T09:59:47.873Z</time></trkpt><trkpt lat="40.0319208" lon="15.7853076"><ele>444.0</ele><time>2026-05-02T09:59:48.872Z</time></trkpt><trkpt lat="40.0319761" lon="15.7851199"><ele>447.0</ele><time>2026-05-02T09:59:49.863Z</time></trkpt><trkpt lat="40.0320478" lon="15.7849305"><ele>447.66666666666663</ele><time>2026-05-02T09:59:50.873Z</time></trkpt><trkpt lat="40.032128" lon="15.7847426"><ele>448.3333333333333</ele><time>2026-05-02T09:59:51.863Z</time></trkpt><trkpt lat="40.0322026" lon="15.7845628"><ele>449.0</ele><time>2026-05-02T09:59:52.868Z</time></trkpt><trkpt lat="40.0322741" lon="15.7843743"><ele>448.75</ele><time>2026-05-02T09:59:53.859Z</time></trkpt><trkpt lat="40.0323425" lon="15.7842011"><ele>448.5</ele><time>2026-05-02T09:59:54.865Z</time></trkpt><trkpt lat="40.0324027" lon="15.7840476"><ele>448.25</ele><time>2026-05-02T09:59:55.864Z</time></trkpt><trkpt lat="40.0324615" lon="15.7839108"><ele>448.0</ele><time>2026-05-02T09:59:56.87Z</time></trkpt><trkpt lat="40.0325413" lon="15.7837903"><ele>446.25</ele><time>2026-05-02T09:59:57.856Z</time></trkpt><trkpt lat="40.0326462" lon="15.7836739"><ele>444.5</ele><time>2026-05-02T09:59:58.87Z</time></trkpt><trkpt lat="40.032772" lon="15.7835683"><ele>442.75</ele><time>2026-05-02T09:59:59.859Z</time></trkpt><trkpt lat="40.0328994" lon="15.7834431"><ele>441.0</ele><time>2026-05-02T10:00:00.867Z</time></trkpt><trkpt lat="40.0330195" lon="15.7833107"><ele>441.0</ele><time>2026-05-02T10:00:01.863Z</time></trkpt><trkpt lat="40.0331316" lon="15.7831777"><ele>441.0</ele><time>2026-05-02T10:00:02.883Z</time></trkpt><trkpt lat="40.0332303" lon="15.7830433"><ele>441.0</ele><time>2026-05-02T10:00:03.869Z</time></trkpt><trkpt lat="40.0333152" lon="15.7828988"><ele>441.0</ele><time>2026-05-02T10:00:04.872Z</time></trkpt><trkpt lat="40.0334056" lon="15.7827628"><ele>433.33333333333337</ele><time>2026-05-02T10:00:05.868Z</time></trkpt><trkpt lat="40.0334979" lon="15.7826146"><ele>425.6666666666667</ele><time>2026-05-02T10:00:06.864Z</time></trkpt><trkpt lat="40.033604" lon="15.7824602"><ele>418.0</ele><time>2026-05-02T10:00:07.861Z</time></trkpt><trkpt lat="40.0337097" lon="15.7823109"><ele>418.0</ele><time>2026-05-02T10:00:08.865Z</time></trkpt><trkpt lat="40.0338068" lon="15.7821738"><ele>418.0</ele><time>2026-05-02T10:00:09.87Z</time></trkpt><trkpt lat="40.0338974" lon="15.7820468"><ele>418.0</ele><time>2026-05-02T10:00:10.858Z</time></trkpt><trkpt lat="40.0339864" lon="15.7819297"><ele>418.0</ele><time>2026-05-02T10:00:11.866Z</time></trkpt><trkpt lat="40.0340711" lon="15.7818218"><ele>415.4</ele><time>2026-05-02T10:00:12.868Z</time></trkpt><trkpt lat="40.0341579" lon="15.7817236"><ele>412.79999999999995</ele><time>2026-05-02T10:00:13.865Z</time></trkpt><trkpt lat="40.0342437" lon="15.7816352"><ele>410.2</ele><time>2026-05-02T10:00:14.861Z</time></trkpt><trkpt lat="40.0343218" lon="15.7815504"><ele>407.6</ele><time>2026-05-02T10:00:15.863Z</time></trkpt><trkpt lat="40.0343974" lon="15.7814765"><ele>405.0</ele><time>2026-05-02T10:00:16.865Z</time></trkpt><trkpt lat="40.0344662" lon="15.7814128"><ele>405.0</ele><time>2026-05-02T10:00:17.864Z</time></trkpt><trkpt lat="40.0345372" lon="15.7813807"><ele>405.0</ele><time>2026-05-02T10:00:18.846Z</time></trkpt><trkpt lat="40.0346148" lon="15.7813582"><ele>405.0</ele><time>2026-05-02T10:00:19.873Z</time></trkpt><trkpt lat="40.0346896" lon="15.7813812"><ele>405.0</ele><time>2026-05-02T10:00:20.866Z</time></trkpt><trkpt lat="40.0347432" lon="15.7814371"><ele>405.0</ele><time>2026-05-02T10:00:21.872Z</time></trkpt><trkpt lat="40.0348038" lon="15.7815491"><ele>405.0</ele><time>2026-05-02T10:00:23.868Z</time></trkpt><trkpt lat="40.0348701" lon="15.7816461"><ele>403.8</ele><time>2026-05-02T10:00:25.887Z</time></trkpt><trkpt lat="40.0349739" lon="15.7816944"><ele>402.6</ele><time>2026-05-02T10:00:27.87Z</time></trkpt><trkpt lat="40.0350447" lon="15.7817077"><ele>401.4</ele><time>2026-05-02T10:00:28.873Z</time></trkpt><trkpt lat="40.0351313" lon="15.7817236"><ele>400.2</ele><time>2026-05-02T10:00:29.865Z</time></trkpt><trkpt lat="40.0352234" lon="15.7817391"><ele>399.0</ele><time>2026-05-02T10:00:30.901Z</time></trkpt><trkpt lat="40.0353275" lon="15.7817564"><ele>399.0</ele><time>2026-05-02T10:00:31.879Z</time></trkpt><trkpt lat="40.035433" lon="15.7817801"><ele>399.0</ele><time>2026-05-02T10:00:32.89Z</time></trkpt><trkpt lat="40.0355376" lon="15.781796"><ele>399.0</ele><time>2026-05-02T10:00:33.876Z</time></trkpt><trkpt lat="40.035653" lon="15.7817787"><ele>399.0</ele><time>2026-05-02T10:00:34.87Z</time></trkpt><trkpt lat="40.0357799" lon="15.7817355"><ele>397.5</ele><time>2026-05-02T10:00:35.877Z</time></trkpt><trkpt lat="40.0359123" lon="15.781683"><ele>396.0</ele><time>2026-05-02T10:00:36.878Z</time></trkpt><trkpt lat="40.0360498" lon="15.7816518"><ele>394.5</ele><time>2026-05-02T10:00:37.878Z</time></trkpt><trkpt lat="40.0361815" lon="15.781655"><ele>393.0</ele><time>2026-05-02T10:00:38.874Z</time></trkpt><trkpt lat="40.0363001" lon="15.7816624"><ele>393.0</ele><time>2026-05-02T10:00:39.874Z</time></trkpt><trkpt lat="40.0364154" lon="15.7816485"><ele>393.0</ele><time>2026-05-02T10:00:40.876Z</time></trkpt><trkpt lat="40.0365357" lon="15.7816053"><ele>393.0</ele><time>2026-05-02T10:00:41.869Z</time></trkpt><trkpt lat="40.0366427" lon="15.7815425"><ele>393.0</ele><time>2026-05-02T10:00:42.877Z</time></trkpt><trkpt lat="40.0367267" lon="15.7814979"><ele>393.0</ele><time>2026-05-02T10:00:43.868Z</time></trkpt><trkpt lat="40.0368036" lon="15.7814583"><ele>392.5</ele><time>2026-05-02T10:00:44.872Z</time></trkpt><trkpt lat="40.0368782" lon="15.7814398"><ele>392.0</ele><time>2026-05-02T10:00:45.881Z</time></trkpt><trkpt lat="40.0369505" lon="15.7814221"><ele>391.5</ele><time>2026-05-02T10:00:46.891Z</time></trkpt><trkpt lat="40.0370261" lon="15.7814191"><ele>391.0</ele><time>2026-05-02T10:00:47.866Z</time></trkpt><trkpt lat="40.0371035" lon="15.781419"><ele>390.5</ele><time>2026-05-02T10:00:48.872Z</time></trkpt><trkpt lat="40.0371929" lon="15.7814227"><ele>390.0</ele><time>2026-05-02T10:00:49.864Z</time></trkpt><trkpt lat="40.0372954" lon="15.7814382"><ele>390.0</ele><time>2026-05-02T10:00:50.877Z</time></trkpt><trkpt lat="40.0374042" lon="15.7814544"><ele>390.0</ele><time>2026-05-02T10:00:51.876Z</time></trkpt><trkpt lat="40.0375155" lon="15.7814723"><ele>390.0</ele><time>2026-05-02T10:00:52.876Z</time></trkpt><trkpt lat="40.0376278" lon="15.7814969"><ele>390.0</ele><time>2026-05-02T10:00:53.877Z</time></trkpt><trkpt lat="40.0377298" lon="15.781548"><ele>390.0</ele><time>2026-05-02T10:00:54.868Z</time></trkpt><trkpt lat="40.0378344" lon="15.7816219"><ele>387.5</ele><time>2026-05-02T10:00:55.87Z</time></trkpt><trkpt lat="40.037945" lon="15.7816907"><ele>385.0</ele><time>2026-05-02T10:00:56.877Z</time></trkpt><trkpt lat="40.0380646" lon="15.7817323"><ele>382.5</ele><time>2026-05-02T10:00:57.879Z</time></trkpt><trkpt lat="40.0381886" lon="15.7817485"><ele>380.0</ele><time>2026-05-02T10:00:58.874Z</time></trkpt><trkpt lat="40.0383201" lon="15.7817426"><ele>378.5</ele><time>2026-05-02T10:00:59.865Z</time></trkpt><trkpt lat="40.0384497" lon="15.7817018"><ele>377.0</ele><time>2026-05-02T10:01:00.872Z</time></trkpt><trkpt lat="40.0385767" lon="15.7816534"><ele>375.5</ele><time>2026-05-02T10:01:01.875Z</time></trkpt><trkpt lat="40.0387009" lon="15.7816252"><ele>374.0</ele><time>2026-05-02T10:01:02.868Z</time></trkpt><trkpt lat="40.0388228" lon="15.7816215"><ele>374.0</ele><time>2026-05-02T10:01:03.866Z</time></trkpt><trkpt lat="40.0389428" lon="15.7816026"><ele>374.0</ele><time>2026-05-02T10:01:04.875Z</time></trkpt><trkpt lat="40.0390687" lon="15.7815564"><ele>374.0</ele><time>2026-05-02T10:01:05.869Z</time></trkpt><trkpt lat="40.0391906" lon="15.7815045"><ele>374.0</ele><time>2026-05-02T10:01:06.889Z</time></trkpt><trkpt lat="40.0393091" lon="15.7814838"><ele>372.5</ele><time>2026-05-02T10:01:07.863Z</time></trkpt><trkpt lat="40.0394263" lon="15.781484"><ele>371.0</ele><time>2026-05-02T10:01:08.874Z</time></trkpt><trkpt lat="40.0395428" lon="15.7815007"><ele>369.5</ele><time>2026-05-02T10:01:09.87Z</time></trkpt><trkpt lat="40.0396544" lon="15.7815187"><ele>368.0</ele><time>2026-05-02T10:01:10.878Z</time></trkpt><trkpt lat="40.0397598" lon="15.7815206"><ele>368.0</ele><time>2026-05-02T10:01:11.865Z</time></trkpt><trkpt lat="40.0398635" lon="15.7814951"><ele>368.0</ele><time>2026-05-02T10:01:12.874Z</time></trkpt><trkpt lat="40.0399744" lon="15.7814474"><ele>368.0</ele><time>2026-05-02T10:01:13.881Z</time></trkpt><trkpt lat="40.0400856" lon="15.7813979"><ele>368.0</ele><time>2026-05-02T10:01:14.876Z</time></trkpt><trkpt lat="40.0401855" lon="15.7813762"><ele>368.0</ele><time>2026-05-02T10:01:15.867Z</time></trkpt><trkpt lat="40.0402876" lon="15.7813745"><ele>366.59999999999997</ele><time>2026-05-02T10:01:16.867Z</time></trkpt><trkpt lat="40.0403986" lon="15.7813957"><ele>365.2</ele><time>2026-05-02T10:01:17.873Z</time></trkpt><trkpt lat="40.0405066" lon="15.7814233"><ele>363.8</ele><time>2026-05-02T10:01:18.868Z</time></trkpt><trkpt lat="40.0406128" lon="15.7814304"><ele>362.4</ele><time>2026-05-02T10:01:19.866Z</time></trkpt><trkpt lat="40.0407274" lon="15.7814269"><ele>361.0</ele><time>2026-05-02T10:01:20.875Z</time></trkpt><trkpt lat="40.0408537" lon="15.7814175"><ele>359.75</ele><time>2026-05-02T10:01:21.868Z</time></trkpt><trkpt lat="40.0409772" lon="15.7813951"><ele>358.5</ele><time>2026-05-02T10:01:22.872Z</time></trkpt><trkpt lat="40.0411073" lon="15.7813601"><ele>357.25</ele><time>2026-05-02T10:01:23.864Z</time></trkpt><trkpt lat="40.0412455" lon="15.7813181"><ele>356.0</ele><time>2026-05-02T10:01:24.876Z</time></trkpt><trkpt lat="40.0413764" lon="15.7812774"><ele>356.0</ele><time>2026-05-02T10:01:25.861Z</time></trkpt><trkpt lat="40.0414977" lon="15.7812375"><ele>356.0</ele><time>2026-05-02T10:01:26.868Z</time></trkpt><trkpt lat="40.0415953" lon="15.7812015"><ele>356.0</ele><time>2026-05-02T10:01:27.85Z</time></trkpt><trkpt lat="40.0416843" lon="15.7811688"><ele>356.0</ele><time>2026-05-02T10:01:28.864Z</time></trkpt><trkpt lat="40.0417686" lon="15.7811317"><ele>356.0</ele><time>2026-05-02T10:01:29.873Z</time></trkpt><trkpt lat="40.0418497" lon="15.7811121"><ele>354.5</ele><time>2026-05-02T10:01:30.866Z</time></trkpt><trkpt lat="40.0419208" lon="15.7810996"><ele>353.0</ele><time>2026-05-02T10:01:31.854Z</time></trkpt><trkpt lat="40.0419877" lon="15.7811022"><ele>351.5</ele><time>2026-05-02T10:01:32.87Z</time></trkpt><trkpt lat="40.0420535" lon="15.7811156"><ele>350.0</ele><time>2026-05-02T10:01:33.881Z</time></trkpt><trkpt lat="40.0421373" lon="15.7811487"><ele>348.5</ele><time>2026-05-02T10:01:34.889Z</time></trkpt><trkpt lat="40.0422427" lon="15.7811981"><ele>347.0</ele><time>2026-05-02T10:01:35.884Z</time></trkpt><trkpt lat="40.0423629" lon="15.7812553"><ele>345.0</ele><time>2026-05-02T10:01:36.87Z</time></trkpt><trkpt lat="40.0424857" lon="15.7813128"><ele>343.0</ele><time>2026-05-02T10:01:37.866Z</time></trkpt><trkpt lat="40.0426127" lon="15.7813708"><ele>341.0</ele><time>2026-05-02T10:01:38.875Z</time></trkpt><trkpt lat="40.0427376" lon="15.7814355"><ele>339.0</ele><time>2026-05-02T10:01:39.865Z</time></trkpt><trkpt lat="40.0428578" lon="15.7814964"><ele>339.0</ele><time>2026-05-02T10:01:40.868Z</time></trkpt><trkpt lat="40.042975" lon="15.7815467"><ele>339.0</ele><time>2026-05-02T10:01:41.867Z</time></trkpt><trkpt lat="40.0430904" lon="15.7815762"><ele>339.0</ele><time>2026-05-02T10:01:42.859Z</time></trkpt><trkpt lat="40.0432184" lon="15.781587"><ele>339.0</ele><time>2026-05-02T10:01:43.887Z</time></trkpt><trkpt lat="40.0433633" lon="15.781577"><ele>337.75</ele><time>2026-05-02T10:01:44.87Z</time></trkpt><trkpt lat="40.0435171" lon="15.7815522"><ele>336.5</ele><time>2026-05-02T10:01:45.86Z</time></trkpt><trkpt lat="40.0436577" lon="15.7815268"><ele>335.25</ele><time>2026-05-02T10:01:46.871Z</time></trkpt><trkpt lat="40.0437796" lon="15.7815097"><ele>334.0</ele><time>2026-05-02T10:01:47.871Z</time></trkpt><trkpt lat="40.0438855" lon="15.781488"><ele>334.0</ele><time>2026-05-02T10:01:48.874Z</time></trkpt><trkpt lat="40.043978" lon="15.7814522"><ele>334.0</ele><time>2026-05-02T10:01:49.858Z</time></trkpt><trkpt lat="40.0440652" lon="15.7813934"><ele>334.0</ele><time>2026-05-02T10:01:50.869Z</time></trkpt><trkpt lat="40.0441448" lon="15.7813001"><ele>334.0</ele><time>2026-05-02T10:01:51.886Z</time></trkpt><trkpt lat="40.0442131" lon="15.781173"><ele>334.0</ele><time>2026-05-02T10:01:52.87Z</time></trkpt><trkpt lat="40.0442591" lon="15.7810283"><ele>331.25</ele><time>2026-05-02T10:01:53.86Z</time></trkpt><trkpt lat="40.0442767" lon="15.7808793"><ele>328.5</ele><time>2026-05-02T10:01:54.868Z</time></trkpt><trkpt lat="40.0442673" lon="15.7807201"><ele>325.75</ele><time>2026-05-02T10:01:55.857Z</time></trkpt><trkpt lat="40.0442406" lon="15.7805519"><ele>323.0</ele><time>2026-05-02T10:01:56.871Z</time></trkpt><trkpt lat="40.0442136" lon="15.7803812"><ele>323.0</ele><time>2026-05-02T10:01:57.876Z</time></trkpt><trkpt lat="40.0441925" lon="15.7802205"><ele>323.0</ele><time>2026-05-02T10:01:58.877Z</time></trkpt><trkpt lat="40.0441758" lon="15.7800846"><ele>323.0</ele><time>2026-05-02T10:01:59.881Z</time></trkpt><trkpt lat="40.044161" lon="15.779968"><ele>323.0</ele><time>2026-05-02T10:02:00.869Z</time></trkpt><trkpt lat="40.0441485" lon="15.7798581"><ele>323.0</ele><time>2026-05-02T10:02:01.882Z</time></trkpt><trkpt lat="40.0441388" lon="15.779747"><ele>321.75</ele><time>2026-05-02T10:02:02.864Z</time></trkpt><trkpt lat="40.0441384" lon="15.7796215"><ele>320.5</ele><time>2026-05-02T10:02:03.869Z</time></trkpt><trkpt lat="40.0441483" lon="15.7794771"><ele>319.25</ele><time>2026-05-02T10:02:04.884Z</time></trkpt><trkpt lat="40.0441742" lon="15.7793211"><ele>318.0</ele><time>2026-05-02T10:02:05.869Z</time></trkpt><trkpt lat="40.0442095" lon="15.779162"><ele>318.0</ele><time>2026-05-02T10:02:06.879Z</time></trkpt><trkpt lat="40.0442503" lon="15.7790119"><ele>318.0</ele><time>2026-05-02T10:02:07.884Z</time></trkpt><trkpt lat="40.0443014" lon="15.7788687"><ele>318.0</ele><time>2026-05-02T10:02:08.877Z</time></trkpt><trkpt lat="40.0443457" lon="15.7787409"><ele>318.0</ele><time>2026-05-02T10:02:09.861Z</time></trkpt><trkpt lat="40.0443753" lon="15.7786302"><ele>318.0</ele><time>2026-05-02T10:02:10.871Z</time></trkpt><trkpt lat="40.0444092" lon="15.7785369"><ele>318.3333333333333</ele><time>2026-05-02T10:02:11.867Z</time></trkpt><trkpt lat="40.0444565" lon="15.7784647"><ele>318.6666666666667</ele><time>2026-05-02T10:02:12.874Z</time></trkpt><trkpt lat="40.0445138" lon="15.7784123"><ele>319.0</ele><time>2026-05-02T10:02:13.866Z</time></trkpt><trkpt lat="40.0445775" lon="15.7783797"><ele>319.33333333333337</ele><time>2026-05-02T10:02:14.875Z</time></trkpt><trkpt lat="40.0446419" lon="15.7783643"><ele>319.6666666666667</ele><time>2026-05-02T10:02:15.87Z</time></trkpt><trkpt lat="40.0447627" lon="15.7783964"><ele>320.0</ele><time>2026-05-02T10:02:17.863Z</time></trkpt><trkpt lat="40.0448178" lon="15.7784407"><ele>319.6</ele><time>2026-05-02T10:02:18.85Z</time></trkpt><trkpt lat="40.0448645" lon="15.7785192"><ele>319.2</ele><time>2026-05-02T10:02:19.862Z</time></trkpt><trkpt lat="40.0448994" lon="15.7786229"><ele>318.8</ele><time>2026-05-02T10:02:20.869Z</time></trkpt><trkpt lat="40.0449192" lon="15.7787492"><ele>318.4</ele><time>2026-05-02T10:02:21.865Z</time></trkpt><trkpt lat="40.0449415" lon="15.7788971"><ele>318.0</ele><time>2026-05-02T10:02:22.873Z</time></trkpt><trkpt lat="40.044968" lon="15.7790626"><ele>314.5</ele><time>2026-05-02T10:02:23.865Z</time></trkpt><trkpt lat="40.0449989" lon="15.7792213"><ele>311.0</ele><time>2026-05-02T10:02:24.88Z</time></trkpt><trkpt lat="40.0450312" lon="15.7793745"><ele>307.5</ele><time>2026-05-02T10:02:25.866Z</time></trkpt><trkpt lat="40.0450746" lon="15.7795281"><ele>304.0</ele><time>2026-05-02T10:02:26.875Z</time></trkpt><trkpt lat="40.045145" lon="15.779685"><ele>304.0</ele><time>2026-05-02T10:02:27.87Z</time></trkpt><trkpt lat="40.0452433" lon="15.7798288"><ele>304.0</ele><time>2026-05-02T10:02:28.874Z</time></trkpt><trkpt lat="40.0453489" lon="15.7799397"><ele>304.0</ele><time>2026-05-02T10:02:29.876Z</time></trkpt><trkpt lat="40.045446" lon="15.7800353"><ele>304.0</ele><time>2026-05-02T10:02:30.863Z</time></trkpt><trkpt lat="40.0455358" lon="15.7801416"><ele>305.59999999999997</ele><time>2026-05-02T10:02:31.858Z</time></trkpt><trkpt lat="40.0456128" lon="15.7802681"><ele>307.2</ele><time>2026-05-02T10:02:32.869Z</time></trkpt><trkpt lat="40.0456687" lon="15.7803897"><ele>308.79999999999995</ele><time>2026-05-02T10:02:33.867Z</time></trkpt><trkpt lat="40.0457095" lon="15.7804834"><ele>310.4</ele><time>2026-05-02T10:02:34.872Z</time></trkpt><trkpt lat="40.045759" lon="15.7806174"><ele>312.0</ele><time>2026-05-02T10:02:36.872Z</time></trkpt><trkpt lat="40.0457847" lon="15.7807482"><ele>308.5</ele><time>2026-05-02T10:02:38.873Z</time></trkpt><trkpt lat="40.0457963" lon="15.7808689"><ele>305.0</ele><time>2026-05-02T10:02:40.872Z</time></trkpt><trkpt lat="40.0458423" lon="15.7809313"><ele>301.5</ele><time>2026-05-02T10:02:42.88Z</time></trkpt><trkpt lat="40.0459191" lon="15.7809159"><ele>298.0</ele><time>2026-05-02T10:02:45.864Z</time></trkpt><trkpt lat="40.0460127" lon="15.7808218"><ele>294.5</ele><time>2026-05-02T10:03:04.871Z</time></trkpt><trkpt lat="40.0460785" lon="15.780744"><ele>291.0</ele><time>2026-05-02T10:03:05.876Z</time></trkpt><trkpt lat="40.0461628" lon="15.7806456"><ele>291.0</ele><time>2026-05-02T10:03:06.882Z</time></trkpt><trkpt lat="40.0462516" lon="15.780511"><ele>291.0</ele><time>2026-05-02T10:03:07.881Z</time></trkpt><trkpt lat="40.0463432" lon="15.7803527"><ele>291.0</ele><time>2026-05-02T10:03:08.878Z</time></trkpt><trkpt lat="40.046454" lon="15.7801735"><ele>290.0</ele><time>2026-05-02T10:03:09.864Z</time></trkpt><trkpt lat="40.046573" lon="15.7799775"><ele>289.0</ele><time>2026-05-02T10:03:10.877Z</time></trkpt><trkpt lat="40.0467018" lon="15.779767"><ele>288.0</ele><time>2026-05-02T10:03:11.88Z</time></trkpt><trkpt lat="40.0468439" lon="15.7795428"><ele>277.5</ele><time>2026-05-02T10:03:12.869Z</time></trkpt><trkpt lat="40.0469921" lon="15.7792967"><ele>267.0</ele><time>2026-05-02T10:03:13.86Z</time></trkpt><trkpt lat="40.0471525" lon="15.7790429"><ele>267.0</ele><time>2026-05-02T10:03:14.876Z</time></trkpt><trkpt lat="40.0473171" lon="15.7787783"><ele>267.0</ele><time>2026-05-02T10:03:15.865Z</time></trkpt><trkpt lat="40.0474774" lon="15.778502"><ele>262.0</ele><time>2026-05-02T10:03:16.875Z</time></trkpt><trkpt lat="40.0476419" lon="15.7782289"><ele>257.0</ele><time>2026-05-02T10:03:17.87Z</time></trkpt><trkpt lat="40.0478094" lon="15.7779597"><ele>257.0</ele><time>2026-05-02T10:03:18.873Z</time></trkpt><trkpt lat="40.0479817" lon="15.7776953"><ele>257.0</ele><time>2026-05-02T10:03:19.871Z</time></trkpt><trkpt lat="40.0481426" lon="15.7774407"><ele>257.0</ele><time>2026-05-02T10:03:20.871Z</time></trkpt><trkpt lat="40.0482915" lon="15.7772027"><ele>257.0</ele><time>2026-05-02T10:03:21.866Z</time></trkpt><trkpt lat="40.0484233" lon="15.7769847"><ele>257.0</ele><time>2026-05-02T10:03:22.872Z</time></trkpt><trkpt lat="40.0485418" lon="15.7767899"><ele>257.0</ele><time>2026-05-02T10:03:23.869Z</time></trkpt><trkpt lat="40.0486525" lon="15.7766139"><ele>257.0</ele><time>2026-05-02T10:03:24.876Z</time></trkpt><trkpt lat="40.0487624" lon="15.7764524"><ele>257.0</ele><time>2026-05-02T10:03:25.876Z</time></trkpt><trkpt lat="40.0488744" lon="15.7762999"><ele>257.0</ele><time>2026-05-02T10:03:26.87Z</time></trkpt><trkpt lat="40.0489913" lon="15.7761625"><ele>257.0</ele><time>2026-05-02T10:03:27.869Z</time></trkpt><trkpt lat="40.0491045" lon="15.7760277"><ele>257.0</ele><time>2026-05-02T10:03:28.871Z</time></trkpt><trkpt lat="40.0492058" lon="15.775911"><ele>257.0</ele><time>2026-05-02T10:03:29.875Z</time></trkpt><trkpt lat="40.0492898" lon="15.775826"><ele>260.2857142857143</ele><time>2026-05-02T10:03:30.871Z</time></trkpt><trkpt lat="40.0493543" lon="15.7757639"><ele>263.57142857142856</ele><time>2026-05-02T10:03:31.865Z</time></trkpt><trkpt lat="40.0494153" lon="15.7757219"><ele>266.8571428571429</ele><time>2026-05-02T10:03:32.877Z</time></trkpt><trkpt lat="40.0494775" lon="15.7757034"><ele>270.1428571428571</ele><time>2026-05-02T10:03:33.862Z</time></trkpt><trkpt lat="40.0495417" lon="15.7756982"><ele>273.42857142857144</ele><time>2026-05-02T10:03:34.876Z</time></trkpt><trkpt lat="40.0496199" lon="15.7757122"><ele>276.7142857142857</ele><time>2026-05-02T10:03:35.867Z</time></trkpt><trkpt lat="40.0497098" lon="15.7757372"><ele>280.0</ele><time>2026-05-02T10:03:36.87Z</time></trkpt><trkpt lat="40.0497984" lon="15.7757688"><ele>280.0</ele><time>2026-05-02T10:03:37.871Z</time></trkpt><trkpt lat="40.0498796" lon="15.7757926"><ele>280.0</ele><time>2026-05-02T10:03:38.877Z</time></trkpt><trkpt lat="40.0499705" lon="15.7758183"><ele>280.0</ele><time>2026-05-02T10:03:39.87Z</time></trkpt><trkpt lat="40.0500842" lon="15.7758622"><ele>280.0</ele><time>2026-05-02T10:03:40.874Z</time></trkpt><trkpt lat="40.050202" lon="15.775931"><ele>280.0</ele><time>2026-05-02T10:03:41.865Z</time></trkpt><trkpt lat="40.0503302" lon="15.7760283"><ele>277.66666666666663</ele><time>2026-05-02T10:03:42.877Z</time></trkpt><trkpt lat="40.0504641" lon="15.7761419"><ele>275.3333333333333</ele><time>2026-05-02T10:03:43.861Z</time></trkpt><trkpt lat="40.0505987" lon="15.7762466"><ele>273.0</ele><time>2026-05-02T10:03:44.871Z</time></trkpt><trkpt lat="40.0507179" lon="15.7763396"><ele>273.0</ele><time>2026-05-02T10:03:45.861Z</time></trkpt><trkpt lat="40.0508206" lon="15.7764301"><ele>273.0</ele><time>2026-05-02T10:03:46.88Z</time></trkpt><trkpt lat="40.0509267" lon="15.7765021"><ele>273.0</ele><time>2026-05-02T10:03:47.868Z</time></trkpt><trkpt lat="40.0510443" lon="15.7765365"><ele>273.0</ele><time>2026-05-02T10:03:48.862Z</time></trkpt><trkpt lat="40.0511649" lon="15.7765331"><ele>273.0</ele><time>2026-05-02T10:03:49.879Z</time></trkpt><trkpt lat="40.0512798" lon="15.7764803"><ele>273.0</ele><time>2026-05-02T10:03:50.863Z</time></trkpt><trkpt lat="40.0513823" lon="15.7763852"><ele>273.0</ele><time>2026-05-02T10:03:51.864Z</time></trkpt><trkpt lat="40.0514678" lon="15.7762587"><ele>273.0</ele><time>2026-05-02T10:03:52.866Z</time></trkpt><trkpt lat="40.0515349" lon="15.7761026"><ele>273.0</ele><time>2026-05-02T10:03:53.87Z</time></trkpt><trkpt lat="40.0516019" lon="15.7759584"><ele>273.0</ele><time>2026-05-02T10:03:54.873Z</time></trkpt><trkpt lat="40.0516828" lon="15.7758518"><ele>273.0</ele><time>2026-05-02T10:03:55.869Z</time></trkpt><trkpt lat="40.0517706" lon="15.775777"><ele>273.0</ele><time>2026-05-02T10:03:56.886Z</time></trkpt><trkpt lat="40.0518767" lon="15.7757245"><ele>273.0</ele><time>2026-05-02T10:03:57.861Z</time></trkpt><trkpt lat="40.0519951" lon="15.775697"><ele>273.0</ele><time>2026-05-02T10:03:58.87Z</time></trkpt><trkpt lat="40.0521248" lon="15.7756772"><ele>273.0</ele><time>2026-05-02T10:03:59.87Z</time></trkpt><trkpt lat="40.052253" lon="15.7756299"><ele>273.0</ele><time>2026-05-02T10:04:00.882Z</time></trkpt><trkpt lat="40.052371" lon="15.7755295"><ele>274.25</ele><time>2026-05-02T10:04:01.855Z</time></trkpt><trkpt lat="40.052479" lon="15.7753992"><ele>275.5</ele><time>2026-05-02T10:04:02.869Z</time></trkpt><trkpt lat="40.0525809" lon="15.775279"><ele>276.75</ele><time>2026-05-02T10:04:03.857Z</time></trkpt><trkpt lat="40.0526897" lon="15.7751817"><ele>278.0</ele><time>2026-05-02T10:04:04.88Z</time></trkpt><trkpt lat="40.0528019" lon="15.775108"><ele>278.0</ele><time>2026-05-02T10:04:05.865Z</time></trkpt><trkpt lat="40.0529223" lon="15.7750469"><ele>278.0</ele><time>2026-05-02T10:04:06.867Z</time></trkpt><trkpt lat="40.0530437" lon="15.7749873"><ele>278.0</ele><time>2026-05-02T10:04:07.871Z</time></trkpt><trkpt lat="40.0531492" lon="15.7749616"><ele>278.0</ele><time>2026-05-02T10:04:08.864Z</time></trkpt><trkpt lat="40.0532486" lon="15.7749597"><ele>275.8</ele><time>2026-05-02T10:04:09.863Z</time></trkpt><trkpt lat="40.053339" lon="15.7749717"><ele>273.6</ele><time>2026-05-02T10:04:10.868Z</time></trkpt><trkpt lat="40.0534129" lon="15.7750055"><ele>271.4</ele><time>2026-05-02T10:04:11.867Z</time></trkpt><trkpt lat="40.0534697" lon="15.7750421"><ele>269.2</ele><time>2026-05-02T10:04:12.866Z</time></trkpt><trkpt lat="40.0535317" lon="15.775169"><ele>267.0</ele><time>2026-05-02T10:04:14.867Z</time></trkpt><trkpt lat="40.0535284" lon="15.7753272"><ele>264.4</ele><time>2026-05-02T10:04:16.87Z</time></trkpt><trkpt lat="40.0535078" lon="15.7754181"><ele>261.79999999999995</ele><time>2026-05-02T10:04:17.871Z</time></trkpt><trkpt lat="40.0534672" lon="15.7755241"><ele>259.2</ele><time>2026-05-02T10:04:18.872Z</time></trkpt><trkpt lat="40.0534044" lon="15.7756342"><ele>256.59999999999997</ele><time>2026-05-02T10:04:19.857Z</time></trkpt><trkpt lat="40.0533183" lon="15.7757461"><ele>254.0</ele><time>2026-05-02T10:04:20.868Z</time></trkpt><trkpt lat="40.0532199" lon="15.7758244"><ele>254.0</ele><time>2026-05-02T10:04:21.881Z</time></trkpt><trkpt lat="40.0531114" lon="15.7758793"><ele>253.99999999999997</ele><time>2026-05-02T10:04:22.865Z</time></trkpt><trkpt lat="40.0530187" lon="15.7759518"><ele>253.99999999999997</ele><time>2026-05-02T10:04:23.875Z</time></trkpt><trkpt lat="40.0529443" lon="15.776055"><ele>254.0</ele><time>2026-05-02T10:04:24.86Z</time></trkpt><trkpt lat="40.0528881" lon="15.7761876"><ele>254.0</ele><time>2026-05-02T10:04:25.854Z</time></trkpt><trkpt lat="40.0528604" lon="15.7763422"><ele>250.33333333333334</ele><time>2026-05-02T10:04:26.872Z</time></trkpt><trkpt lat="40.0528656" lon="15.776529"><ele>246.66666666666669</ele><time>2026-05-02T10:04:27.874Z</time></trkpt><trkpt lat="40.0528715" lon="15.7767275"><ele>243.0</ele><time>2026-05-02T10:04:28.874Z</time></trkpt><trkpt lat="40.0528636" lon="15.7769382"><ele>240.33333333333331</ele><time>2026-05-02T10:04:29.866Z</time></trkpt><trkpt lat="40.0528556" lon="15.7771559"><ele>237.66666666666666</ele><time>2026-05-02T10:04:30.872Z</time></trkpt><trkpt lat="40.0528567" lon="15.7773583"><ele>235.0</ele><time>2026-05-02T10:04:31.869Z</time></trkpt><trkpt lat="40.0528682" lon="15.7775267"><ele>235.0</ele><time>2026-05-02T10:04:32.877Z</time></trkpt><trkpt lat="40.0528859" lon="15.7776792"><ele>235.0</ele><time>2026-05-02T10:04:33.879Z</time></trkpt><trkpt lat="40.0529349" lon="15.7778243"><ele>235.0</ele><time>2026-05-02T10:04:34.865Z</time></trkpt><trkpt lat="40.0530093" lon="15.7779556"><ele>235.0</ele><time>2026-05-02T10:04:35.867Z</time></trkpt><trkpt lat="40.0531097" lon="15.778068"><ele>235.0</ele><time>2026-05-02T10:04:36.855Z</time></trkpt><trkpt lat="40.0532262" lon="15.7781698"><ele>235.0</ele><time>2026-05-02T10:04:37.876Z</time></trkpt><trkpt lat="40.0533473" lon="15.7782581"><ele>235.0</ele><time>2026-05-02T10:04:38.869Z</time></trkpt><trkpt lat="40.0534726" lon="15.7783498"><ele>235.0</ele><time>2026-05-02T10:04:39.864Z</time></trkpt><trkpt lat="40.0536024" lon="15.7784367"><ele>233.25</ele><time>2026-05-02T10:04:40.87Z</time></trkpt><trkpt lat="40.0537323" lon="15.7785201"><ele>231.5</ele><time>2026-05-02T10:04:41.871Z</time></trkpt><trkpt lat="40.0538537" lon="15.7786018"><ele>229.75</ele><time>2026-05-02T10:04:42.88Z</time></trkpt><trkpt lat="40.0539605" lon="15.7786877"><ele>228.0</ele><time>2026-05-02T10:04:43.867Z</time></trkpt><trkpt lat="40.0540576" lon="15.7788036"><ele>228.5</ele><time>2026-05-02T10:04:44.862Z</time></trkpt><trkpt lat="40.0541317" lon="15.778953"><ele>229.0</ele><time>2026-05-02T10:04:45.873Z</time></trkpt><trkpt lat="40.0541966" lon="15.7791227"><ele>229.5</ele><time>2026-05-02T10:04:46.868Z</time></trkpt><trkpt lat="40.0542506" lon="15.7793039"><ele>230.0</ele><time>2026-05-02T10:04:47.881Z</time></trkpt><trkpt lat="40.0542997" lon="15.7794934"><ele>230.0</ele><time>2026-05-02T10:04:48.858Z</time></trkpt><trkpt lat="40.0543535" lon="15.7796856"><ele>230.0</ele><time>2026-05-02T10:04:49.873Z</time></trkpt><trkpt lat="40.0544109" lon="15.7798852"><ele>230.0</ele><time>2026-05-02T10:04:50.881Z</time></trkpt><trkpt lat="40.0544584" lon="15.7800793"><ele>229.25</ele><time>2026-05-02T10:04:51.867Z</time></trkpt><trkpt lat="40.0544906" lon="15.7802708"><ele>228.5</ele><time>2026-05-02T10:04:52.876Z</time></trkpt><trkpt lat="40.054506" lon="15.7804518"><ele>227.75</ele><time>2026-05-02T10:04:53.864Z</time></trkpt><trkpt lat="40.0545325" lon="15.7806208"><ele>227.0</ele><time>2026-05-02T10:04:54.879Z</time></trkpt><trkpt lat="40.0545791" lon="15.7807969"><ele>227.0</ele><time>2026-05-02T10:04:55.868Z</time></trkpt><trkpt lat="40.0546435" lon="15.7809699"><ele>227.0</ele><time>2026-05-02T10:04:56.879Z</time></trkpt><trkpt lat="40.0547266" lon="15.7811429"><ele>227.0</ele><time>2026-05-02T10:04:57.872Z</time></trkpt><trkpt lat="40.0548298" lon="15.7813144"><ele>224.33333333333334</ele><time>2026-05-02T10:04:58.873Z</time></trkpt><trkpt lat="40.0549421" lon="15.7814942"><ele>221.66666666666669</ele><time>2026-05-02T10:04:59.88Z</time></trkpt><trkpt lat="40.0550627" lon="15.7816884"><ele>219.0</ele><time>2026-05-02T10:05:00.868Z</time></trkpt><trkpt lat="40.0551835" lon="15.7818838"><ele>216.66666666666669</ele><time>2026-05-02T10:05:01.879Z</time></trkpt><trkpt lat="40.0553082" lon="15.7820795"><ele>214.33333333333334</ele><time>2026-05-02T10:05:02.867Z</time></trkpt><trkpt lat="40.0554332" lon="15.782281"><ele>212.0</ele><time>2026-05-02T10:05:03.868Z</time></trkpt><trkpt lat="40.0555594" lon="15.7824889"><ele>212.66666666666669</ele><time>2026-05-02T10:05:04.862Z</time></trkpt><trkpt lat="40.0556807" lon="15.7827015"><ele>213.33333333333331</ele><time>2026-05-02T10:05:05.859Z</time></trkpt><trkpt lat="40.0558093" lon="15.7829065"><ele>214.0</ele><time>2026-05-02T10:05:06.876Z</time></trkpt><trkpt lat="40.0559368" lon="15.783113"><ele>216.66666666666666</ele><time>2026-05-02T10:05:07.867Z</time></trkpt><trkpt lat="40.056057" lon="15.783311"><ele>219.33333333333331</ele><time>2026-05-02T10:05:08.879Z</time></trkpt><trkpt lat="40.0561712" lon="15.7835004"><ele>222.0</ele><time>2026-05-02T10:05:09.875Z</time></trkpt><trkpt lat="40.0562862" lon="15.7836874"><ele>225.0</ele><time>2026-05-02T10:05:10.873Z</time></trkpt><trkpt lat="40.0564012" lon="15.7838728"><ele>228.0</ele><time>2026-05-02T10:05:11.874Z</time></trkpt><trkpt lat="40.0565104" lon="15.7840533"><ele>231.0</ele><time>2026-05-02T10:05:12.881Z</time></trkpt><trkpt lat="40.0566062" lon="15.7842238"><ele>235.75</ele><time>2026-05-02T10:05:13.875Z</time></trkpt><trkpt lat="40.0566752" lon="15.7843801"><ele>240.5</ele><time>2026-05-02T10:05:14.877Z</time></trkpt><trkpt lat="40.0567213" lon="15.7845424"><ele>245.25</ele><time>2026-05-02T10:05:15.86Z</time></trkpt><trkpt lat="40.0567404" lon="15.7847134"><ele>250.0</ele><time>2026-05-02T10:05:16.875Z</time></trkpt><trkpt lat="40.0567342" lon="15.7848877"><ele>250.0</ele><time>2026-05-02T10:05:17.87Z</time></trkpt><trkpt lat="40.0567022" lon="15.7850656"><ele>250.0</ele><time>2026-05-02T10:05:18.857Z</time></trkpt><trkpt lat="40.0566486" lon="15.7852485"><ele>250.0</ele><time>2026-05-02T10:05:19.869Z</time></trkpt><trkpt lat="40.0565855" lon="15.7854393"><ele>250.0</ele><time>2026-05-02T10:05:20.86Z</time></trkpt><trkpt lat="40.0565165" lon="15.7856362"><ele>251.33333333333331</ele><time>2026-05-02T10:05:21.88Z</time></trkpt><trkpt lat="40.0564416" lon="15.7858402"><ele>252.66666666666669</ele><time>2026-05-02T10:05:22.869Z</time></trkpt><trkpt lat="40.0563702" lon="15.7860501"><ele>254.0</ele><time>2026-05-02T10:05:23.863Z</time></trkpt><trkpt lat="40.0562959" lon="15.7862552"><ele>254.66666666666669</ele><time>2026-05-02T10:05:24.876Z</time></trkpt><trkpt lat="40.0562264" lon="15.7864545"><ele>255.33333333333331</ele><time>2026-05-02T10:05:25.869Z</time></trkpt><trkpt lat="40.0561606" lon="15.7866422"><ele>256.0</ele><time>2026-05-02T10:05:26.87Z</time></trkpt><trkpt lat="40.0561085" lon="15.7868349"><ele>258.3333333333333</ele><time>2026-05-02T10:05:27.868Z</time></trkpt><trkpt lat="40.0560602" lon="15.7870332"><ele>260.6666666666667</ele><time>2026-05-02T10:05:28.865Z</time></trkpt><trkpt lat="40.0560087" lon="15.7872304"><ele>263.0</ele><time>2026-05-02T10:05:29.886Z</time></trkpt><trkpt lat="40.0559583" lon="15.7874275"><ele>263.0</ele><time>2026-05-02T10:05:30.88Z</time></trkpt><trkpt lat="40.0559081" lon="15.7876252"><ele>263.0</ele><time>2026-05-02T10:05:31.858Z</time></trkpt><trkpt lat="40.0558558" lon="15.7878232"><ele>263.0</ele><time>2026-05-02T10:05:32.875Z</time></trkpt><trkpt lat="40.0558094" lon="15.7880189"><ele>262.25</ele><time>2026-05-02T10:05:33.868Z</time></trkpt><trkpt lat="40.0557682" lon="15.7882011"><ele>261.5</ele><time>2026-05-02T10:05:34.878Z</time></trkpt><trkpt lat="40.0557333" lon="15.7883679"><ele>260.75</ele><time>2026-05-02T10:05:35.871Z</time></trkpt><trkpt lat="40.0557096" lon="15.7885298"><ele>260.0</ele><time>2026-05-02T10:05:36.867Z</time></trkpt><trkpt lat="40.0557136" lon="15.7886873"><ele>261.6</ele><time>2026-05-02T10:05:37.87Z</time></trkpt><trkpt lat="40.0557398" lon="15.7888065"><ele>263.2</ele><time>2026-05-02T10:05:38.869Z</time></trkpt><trkpt lat="40.0558008" lon="15.7889305"><ele>264.8</ele><time>2026-05-02T10:05:40.867Z</time></trkpt><trkpt lat="40.0558718" lon="15.789025"><ele>266.4</ele><time>2026-05-02T10:05:42.867Z</time></trkpt><trkpt lat="40.0559618" lon="15.7891029"><ele>268.0</ele><time>2026-05-02T10:05:44.874Z</time></trkpt><trkpt lat="40.0560376" lon="15.7891445"><ele>271.0</ele><time>2026-05-02T10:05:45.865Z</time></trkpt><trkpt lat="40.0561319" lon="15.7891684"><ele>274.0</ele><time>2026-05-02T10:05:46.871Z</time></trkpt><trkpt lat="40.0562487" lon="15.7891669"><ele>277.0</ele><time>2026-05-02T10:05:47.865Z</time></trkpt><trkpt lat="40.0563801" lon="15.78914"><ele>280.0</ele><time>2026-05-02T10:05:48.874Z</time></trkpt><trkpt lat="40.0565139" lon="15.7890971"><ele>284.5</ele><time>2026-05-02T10:05:49.862Z</time></trkpt><trkpt lat="40.0566465" lon="15.7890398"><ele>289.0</ele><time>2026-05-02T10:05:50.877Z</time></trkpt><trkpt lat="40.0567646" lon="15.7889488"><ele>293.5</ele><time>2026-05-02T10:05:51.861Z</time></trkpt><trkpt lat="40.0568695" lon="15.7888203"><ele>298.0</ele><time>2026-05-02T10:05:52.874Z</time></trkpt><trkpt lat="40.0569615" lon="15.7886575"><ele>294.66666666666663</ele><time>2026-05-02T10:05:53.869Z</time></trkpt><trkpt lat="40.0570498" lon="15.7884786"><ele>291.3333333333333</ele><time>2026-05-02T10:05:54.873Z</time></trkpt><trkpt lat="40.0571365" lon="15.7883047"><ele>288.0</ele><time>2026-05-02T10:05:55.857Z</time></trkpt><trkpt lat="40.0572187" lon="15.7881573"><ele>288.0</ele><time>2026-05-02T10:05:56.871Z</time></trkpt><trkpt lat="40.0573054" lon="15.7880474"><ele>288.0</ele><time>2026-05-02T10:05:57.863Z</time></trkpt><trkpt lat="40.0573947" lon="15.7879561"><ele>288.0</ele><time>2026-05-02T10:05:58.87Z</time></trkpt><trkpt lat="40.0574995" lon="15.7878908"><ele>288.0</ele><time>2026-05-02T10:05:59.861Z</time></trkpt><trkpt lat="40.0576224" lon="15.7878621"><ele>291.5</ele><time>2026-05-02T10:06:00.873Z</time></trkpt><trkpt lat="40.0577448" lon="15.787865"><ele>295.0</ele><time>2026-05-02T10:06:01.874Z</time></trkpt><trkpt lat="40.0578604" lon="15.7879006"><ele>298.5</ele><time>2026-05-02T10:06:02.866Z</time></trkpt><trkpt lat="40.0579777" lon="15.7879707"><ele>302.0</ele><time>2026-05-02T10:06:03.87Z</time></trkpt><trkpt lat="40.0580977" lon="15.7880778"><ele>302.0</ele><time>2026-05-02T10:06:04.871Z</time></trkpt><trkpt lat="40.0582143" lon="15.788202"><ele>302.0</ele><time>2026-05-02T10:06:05.869Z</time></trkpt><trkpt lat="40.0583373" lon="15.7883277"><ele>302.0</ele><time>2026-05-02T10:06:06.864Z</time></trkpt><trkpt lat="40.0584836" lon="15.7884442"><ele>308.6666666666667</ele><time>2026-05-02T10:06:07.864Z</time></trkpt><trkpt lat="40.0586439" lon="15.7885396"><ele>315.3333333333333</ele><time>2026-05-02T10:06:08.862Z</time></trkpt><trkpt lat="40.0588115" lon="15.7886166"><ele>322.0</ele><time>2026-05-02T10:06:09.872Z</time></trkpt><trkpt lat="40.0589764" lon="15.7886803"><ele>318.75</ele><time>2026-05-02T10:06:10.873Z</time></trkpt><trkpt lat="40.059123" lon="15.7887338"><ele>315.5</ele><time>2026-05-02T10:06:11.862Z</time></trkpt><trkpt lat="40.0592515" lon="15.7887759"><ele>312.25</ele><time>2026-05-02T10:06:12.88Z</time></trkpt><trkpt lat="40.059378" lon="15.7887818"><ele>309.0</ele><time>2026-05-02T10:06:13.864Z</time></trkpt><trkpt lat="40.0595112" lon="15.7887433"><ele>309.0</ele><time>2026-05-02T10:06:14.87Z</time></trkpt><trkpt lat="40.0596348" lon="15.7886703"><ele>309.0</ele><time>2026-05-02T10:06:15.871Z</time></trkpt><trkpt lat="40.0597344" lon="15.7885548"><ele>309.0</ele><time>2026-05-02T10:06:16.863Z</time></trkpt><trkpt lat="40.0598055" lon="15.7884141"><ele>309.0</ele><time>2026-05-02T10:06:17.865Z</time></trkpt><trkpt lat="40.0598596" lon="15.7882428"><ele>308.25</ele><time>2026-05-02T10:06:18.867Z</time></trkpt><trkpt lat="40.0599128" lon="15.7880685"><ele>307.5</ele><time>2026-05-02T10:06:19.859Z</time></trkpt><trkpt lat="40.0599833" lon="15.7879181"><ele>306.75</ele><time>2026-05-02T10:06:20.872Z</time></trkpt><trkpt lat="40.060071" lon="15.7878056"><ele>306.0</ele><time>2026-05-02T10:06:21.871Z</time></trkpt><trkpt lat="40.0601572" lon="15.7877202"><ele>306.0</ele><time>2026-05-02T10:06:22.876Z</time></trkpt><trkpt lat="40.0602468" lon="15.787674"><ele>306.0</ele><time>2026-05-02T10:06:23.873Z</time></trkpt><trkpt lat="40.0603509" lon="15.7876699"><ele>306.0</ele><time>2026-05-02T10:06:24.874Z</time></trkpt><trkpt lat="40.0604602" lon="15.7877004"><ele>306.0</ele><time>2026-05-02T10:06:25.865Z</time></trkpt><trkpt lat="40.0605702" lon="15.7877587"><ele>306.0</ele><time>2026-05-02T10:06:26.868Z</time></trkpt><trkpt lat="40.0606686" lon="15.7878366"><ele>306.0</ele><time>2026-05-02T10:06:27.885Z</time></trkpt><trkpt lat="40.0607576" lon="15.7879502"><ele>306.0</ele><time>2026-05-02T10:06:28.876Z</time></trkpt><trkpt lat="40.0608374" lon="15.7880918"><ele>306.0</ele><time>2026-05-02T10:06:29.871Z</time></trkpt><trkpt lat="40.0609187" lon="15.7882515"><ele>306.0</ele><time>2026-05-02T10:06:30.877Z</time></trkpt><trkpt lat="40.0610133" lon="15.7884118"><ele>311.3333333333333</ele><time>2026-05-02T10:06:31.864Z</time></trkpt><trkpt lat="40.0611125" lon="15.7885859"><ele>316.66666666666663</ele><time>2026-05-02T10:06:32.874Z</time></trkpt><trkpt lat="40.0612119" lon="15.7887668"><ele>322.0</ele><time>2026-05-02T10:06:33.867Z</time></trkpt><trkpt lat="40.0613125" lon="15.7889502"><ele>322.0</ele><time>2026-05-02T10:06:34.863Z</time></trkpt><trkpt lat="40.0614233" lon="15.7891303"><ele>322.0</ele><time>2026-05-02T10:06:35.866Z</time></trkpt><trkpt lat="40.0615361" lon="15.7893088"><ele>322.0</ele><time>2026-05-02T10:06:36.869Z</time></trkpt><trkpt lat="40.0616505" lon="15.7894824"><ele>325.0</ele><time>2026-05-02T10:06:37.873Z</time></trkpt><trkpt lat="40.0617704" lon="15.7896473"><ele>328.0</ele><time>2026-05-02T10:06:38.867Z</time></trkpt><trkpt lat="40.0618934" lon="15.7898118"><ele>331.0</ele><time>2026-05-02T10:06:39.869Z</time></trkpt><trkpt lat="40.0620114" lon="15.7899613"><ele>331.0</ele><time>2026-05-02T10:06:40.886Z</time></trkpt><trkpt lat="40.062111" lon="15.7900942"><ele>331.0</ele><time>2026-05-02T10:06:41.876Z</time></trkpt><trkpt lat="40.0621959" lon="15.7902238"><ele>331.0</ele><time>2026-05-02T10:06:42.865Z</time></trkpt><trkpt lat="40.0622712" lon="15.7903718"><ele>331.0</ele><time>2026-05-02T10:06:43.862Z</time></trkpt><trkpt lat="40.0623288" lon="15.7905488"><ele>333.0</ele><time>2026-05-02T10:06:44.874Z</time></trkpt><trkpt lat="40.062374" lon="15.7907409"><ele>335.0</ele><time>2026-05-02T10:06:45.872Z</time></trkpt><trkpt lat="40.0624092" lon="15.7909411"><ele>337.0</ele><time>2026-05-02T10:06:46.875Z</time></trkpt><trkpt lat="40.06245" lon="15.7911457"><ele>339.25</ele><time>2026-05-02T10:06:47.885Z</time></trkpt><trkpt lat="40.0624911" lon="15.7913419"><ele>341.5</ele><time>2026-05-02T10:06:48.865Z</time></trkpt><trkpt lat="40.0625171" lon="15.7915046"><ele>343.75</ele><time>2026-05-02T10:06:49.861Z</time></trkpt><trkpt lat="40.0625492" lon="15.7916425"><ele>346.0</ele><time>2026-05-02T10:06:50.873Z</time></trkpt><trkpt lat="40.0626126" lon="15.7917585"><ele>349.25</ele><time>2026-05-02T10:06:51.871Z</time></trkpt><trkpt lat="40.0626961" lon="15.7918585"><ele>352.5</ele><time>2026-05-02T10:06:52.875Z</time></trkpt><trkpt lat="40.062794" lon="15.7919333"><ele>355.75</ele><time>2026-05-02T10:06:53.871Z</time></trkpt><trkpt lat="40.0629079" lon="15.7919826"><ele>359.0</ele><time>2026-05-02T10:06:54.869Z</time></trkpt><trkpt lat="40.0630291" lon="15.7919867"><ele>359.0</ele><time>2026-05-02T10:06:55.879Z</time></trkpt><trkpt lat="40.0631546" lon="15.7919525"><ele>359.0</ele><time>2026-05-02T10:06:56.867Z</time></trkpt><trkpt lat="40.0632863" lon="15.7919021"><ele>359.0</ele><time>2026-05-02T10:06:57.868Z</time></trkpt><trkpt lat="40.0634185" lon="15.7918412"><ele>359.0</ele><time>2026-05-02T10:06:58.879Z</time></trkpt><trkpt lat="40.0635479" lon="15.7918021"><ele>358.0</ele><time>2026-05-02T10:06:59.877Z</time></trkpt><trkpt lat="40.0636655" lon="15.7917932"><ele>357.0</ele><time>2026-05-02T10:07:00.886Z</time></trkpt><trkpt lat="40.0637736" lon="15.7918182"><ele>356.0</ele><time>2026-05-02T10:07:01.876Z</time></trkpt><trkpt lat="40.0638783" lon="15.7918728"><ele>355.0</ele><time>2026-05-02T10:07:02.872Z</time></trkpt><trkpt lat="40.0639701" lon="15.7919521"><ele>355.0</ele><time>2026-05-02T10:07:03.871Z</time></trkpt><trkpt lat="40.0640518" lon="15.792065"><ele>355.0</ele><time>2026-05-02T10:07:04.878Z</time></trkpt><trkpt lat="40.0641016" lon="15.7921832"><ele>355.0</ele><time>2026-05-02T10:07:05.883Z</time></trkpt><trkpt lat="40.064124" lon="15.7923087"><ele>355.0</ele><time>2026-05-02T10:07:06.879Z</time></trkpt><trkpt lat="40.0641253" lon="15.7924402"><ele>355.0</ele><time>2026-05-02T10:07:07.867Z</time></trkpt><trkpt lat="40.0641113" lon="15.7925825"><ele>357.5</ele><time>2026-05-02T10:07:08.882Z</time></trkpt><trkpt lat="40.0640745" lon="15.7927318"><ele>360.0</ele><time>2026-05-02T10:07:09.867Z</time></trkpt><trkpt lat="40.06403" lon="15.7928823"><ele>362.5</ele><time>2026-05-02T10:07:10.879Z</time></trkpt><trkpt lat="40.0639829" lon="15.7930514"><ele>365.0</ele><time>2026-05-02T10:07:11.86Z</time></trkpt><trkpt lat="40.063935" lon="15.7932374"><ele>365.0</ele><time>2026-05-02T10:07:12.864Z</time></trkpt><trkpt lat="40.0638792" lon="15.7934308"><ele>365.0</ele><time>2026-05-02T10:07:13.866Z</time></trkpt><trkpt lat="40.0638182" lon="15.7936214"><ele>365.0</ele><time>2026-05-02T10:07:14.874Z</time></trkpt><trkpt lat="40.0637573" lon="15.7938081"><ele>367.25</ele><time>2026-05-02T10:07:15.863Z</time></trkpt><trkpt lat="40.0636856" lon="15.7939888"><ele>369.5</ele><time>2026-05-02T10:07:16.885Z</time></trkpt><trkpt lat="40.0636055" lon="15.7941493"><ele>371.75</ele><time>2026-05-02T10:07:17.863Z</time></trkpt><trkpt lat="40.0635304" lon="15.7942924"><ele>374.0</ele><time>2026-05-02T10:07:18.872Z</time></trkpt><trkpt lat="40.0634766" lon="15.7944239"><ele>375.6</ele><time>2026-05-02T10:07:19.862Z</time></trkpt><trkpt lat="40.0634355" lon="15.7945488"><ele>377.2</ele><time>2026-05-02T10:07:20.867Z</time></trkpt><trkpt lat="40.063404" lon="15.7946735"><ele>378.8</ele><time>2026-05-02T10:07:21.877Z</time></trkpt><trkpt lat="40.0633886" lon="15.7948008"><ele>380.40000000000003</ele><time>2026-05-02T10:07:22.87Z</time></trkpt><trkpt lat="40.0634051" lon="15.7949266"><ele>382.0</ele><time>2026-05-02T10:07:23.872Z</time></trkpt><trkpt lat="40.0634404" lon="15.7950478"><ele>382.6</ele><time>2026-05-02T10:07:24.869Z</time></trkpt><trkpt lat="40.0634847" lon="15.7951728"><ele>383.20000000000005</ele><time>2026-05-02T10:07:25.886Z</time></trkpt><trkpt lat="40.063519" lon="15.795298"><ele>383.8</ele><time>2026-05-02T10:07:26.866Z</time></trkpt><trkpt lat="40.0635445" lon="15.7953987"><ele>384.4</ele><time>2026-05-02T10:07:27.872Z</time></trkpt><trkpt lat="40.063554" lon="15.7955266"><ele>385.0</ele><time>2026-05-02T10:07:29.878Z</time></trkpt><trkpt lat="40.0635239" lon="15.7956455"><ele>385.0</ele><time>2026-05-02T10:07:31.865Z</time></trkpt><trkpt lat="40.0635255" lon="15.7957425"><ele>385.0</ele><time>2026-05-02T10:07:33.852Z</time></trkpt><trkpt lat="40.0635244" lon="15.7958654"><ele>385.0</ele><time>2026-05-02T10:07:35.867Z</time></trkpt><trkpt lat="40.0634529" lon="15.7960245"><ele>385.0</ele><time>2026-05-02T10:07:37.865Z</time></trkpt><trkpt lat="40.0633859" lon="15.7961177"><ele>385.0</ele><time>2026-05-02T10:07:38.857Z</time></trkpt><trkpt lat="40.0633335" lon="15.7962344"><ele>384.75</ele><time>2026-05-02T10:07:39.865Z</time></trkpt><trkpt lat="40.0633055" lon="15.7963657"><ele>384.5</ele><time>2026-05-02T10:07:40.868Z</time></trkpt><trkpt lat="40.0632995" lon="15.7965047"><ele>384.25</ele><time>2026-05-02T10:07:41.875Z</time></trkpt><trkpt lat="40.0633053" lon="15.7966697"><ele>384.0</ele><time>2026-05-02T10:07:42.874Z</time></trkpt><trkpt lat="40.0633179" lon="15.796835"><ele>384.25</ele><time>2026-05-02T10:07:43.876Z</time></trkpt><trkpt lat="40.0633366" lon="15.7970023"><ele>384.5</ele><time>2026-05-02T10:07:44.871Z</time></trkpt><trkpt lat="40.0633755" lon="15.7971776"><ele>384.75</ele><time>2026-05-02T10:07:45.868Z</time></trkpt><trkpt lat="40.0634485" lon="15.7973463"><ele>385.0</ele><time>2026-05-02T10:07:46.864Z</time></trkpt><trkpt lat="40.0635413" lon="15.797524"><ele>384.25</ele><time>2026-05-02T10:07:47.868Z</time></trkpt><trkpt lat="40.063627" lon="15.7977016"><ele>383.5</ele><time>2026-05-02T10:07:48.872Z</time></trkpt><trkpt lat="40.0636782" lon="15.7978769"><ele>382.75</ele><time>2026-05-02T10:07:49.876Z</time></trkpt><trkpt lat="40.0637078" lon="15.7980625"><ele>382.0</ele><time>2026-05-02T10:07:50.87Z</time></trkpt><trkpt lat="40.0637457" lon="15.798258"><ele>382.0</ele><time>2026-05-02T10:07:51.877Z</time></trkpt><trkpt lat="40.0637939" lon="15.7984559"><ele>382.0</ele><time>2026-05-02T10:07:52.878Z</time></trkpt><trkpt lat="40.0638473" lon="15.7986601"><ele>382.0</ele><time>2026-05-02T10:07:53.862Z</time></trkpt><trkpt lat="40.0639013" lon="15.7988734"><ele>382.0</ele><time>2026-05-02T10:07:54.881Z</time></trkpt><trkpt lat="40.0639545" lon="15.7990919"><ele>382.0</ele><time>2026-05-02T10:07:55.884Z</time></trkpt><trkpt lat="40.0640064" lon="15.7993055"><ele>382.0</ele><time>2026-05-02T10:07:56.879Z</time></trkpt><trkpt lat="40.0640561" lon="15.7995167"><ele>382.0</ele><time>2026-05-02T10:07:57.867Z</time></trkpt><trkpt lat="40.0640838" lon="15.7997268"><ele>382.0</ele><time>2026-05-02T10:07:58.883Z</time></trkpt><trkpt lat="40.0640843" lon="15.7999353"><ele>382.0</ele><time>2026-05-02T10:07:59.871Z</time></trkpt><trkpt lat="40.0640834" lon="15.800144"><ele>383.3333333333333</ele><time>2026-05-02T10:08:00.882Z</time></trkpt><trkpt lat="40.0641001" lon="15.8003543"><ele>384.66666666666663</ele><time>2026-05-02T10:08:01.864Z</time></trkpt><trkpt lat="40.0641387" lon="15.8005661"><ele>386.0</ele><time>2026-05-02T10:08:02.871Z</time></trkpt><trkpt lat="40.0641837" lon="15.8007763"><ele>391.0</ele><time>2026-05-02T10:08:03.87Z</time></trkpt><trkpt lat="40.0642265" lon="15.8009809"><ele>396.0</ele><time>2026-05-02T10:08:04.869Z</time></trkpt><trkpt lat="40.0642579" lon="15.8011912"><ele>401.0</ele><time>2026-05-02T10:08:05.87Z</time></trkpt><trkpt lat="40.0642771" lon="15.8014161"><ele>400.66666666666663</ele><time>2026-05-02T10:08:06.853Z</time></trkpt><trkpt lat="40.0642986" lon="15.8016473"><ele>400.33333333333337</ele><time>2026-05-02T10:08:07.865Z</time></trkpt><trkpt lat="40.0643278" lon="15.8018756"><ele>400.0</ele><time>2026-05-02T10:08:08.871Z</time></trkpt><trkpt lat="40.0643742" lon="15.8020915"><ele>400.0</ele><time>2026-05-02T10:08:09.858Z</time></trkpt><trkpt lat="40.0644342" lon="15.8022839"><ele>400.0</ele><time>2026-05-02T10:08:10.872Z</time></trkpt><trkpt lat="40.0645044" lon="15.8024442"><ele>400.0</ele><time>2026-05-02T10:08:11.871Z</time></trkpt><trkpt lat="40.0645845" lon="15.8025839"><ele>400.0</ele><time>2026-05-02T10:08:12.875Z</time></trkpt><trkpt lat="40.0646756" lon="15.8026905"><ele>400.0</ele><time>2026-05-02T10:08:13.875Z</time></trkpt><trkpt lat="40.0647838" lon="15.8027782"><ele>400.0</ele><time>2026-05-02T10:08:14.88Z</time></trkpt><trkpt lat="40.0649131" lon="15.8028544"><ele>400.0</ele><time>2026-05-02T10:08:15.868Z</time></trkpt><trkpt lat="40.0650566" lon="15.8029059"><ele>400.0</ele><time>2026-05-02T10:08:16.87Z</time></trkpt><trkpt lat="40.0652118" lon="15.8029375"><ele>400.0</ele><time>2026-05-02T10:08:17.868Z</time></trkpt><trkpt lat="40.0653739" lon="15.8029631"><ele>400.0</ele><time>2026-05-02T10:08:18.877Z</time></trkpt><trkpt lat="40.065524" lon="15.8029895"><ele>400.0</ele><time>2026-05-02T10:08:19.873Z</time></trkpt><trkpt lat="40.0656547" lon="15.8030406"><ele>400.0</ele><time>2026-05-02T10:08:20.874Z</time></trkpt><trkpt lat="40.0657705" lon="15.8031397"><ele>400.0</ele><time>2026-05-02T10:08:21.87Z</time></trkpt><trkpt lat="40.0658847" lon="15.8032552"><ele>400.0</ele><time>2026-05-02T10:08:22.863Z</time></trkpt><trkpt lat="40.0660113" lon="15.8033691"><ele>400.0</ele><time>2026-05-02T10:08:23.865Z</time></trkpt><trkpt lat="40.0661284" lon="15.8034736"><ele>400.75</ele><time>2026-05-02T10:08:24.871Z</time></trkpt><trkpt lat="40.066227" lon="15.8035624"><ele>401.5</ele><time>2026-05-02T10:08:25.874Z</time></trkpt><trkpt lat="40.0663281" lon="15.8036121"><ele>402.25</ele><time>2026-05-02T10:08:26.874Z</time></trkpt><trkpt lat="40.0664482" lon="15.8036432"><ele>403.0</ele><time>2026-05-02T10:08:27.881Z</time></trkpt><trkpt lat="40.0665825" lon="15.8036523"><ele>405.25</ele><time>2026-05-02T10:08:28.86Z</time></trkpt><trkpt lat="40.0667275" lon="15.8036437"><ele>407.5</ele><time>2026-05-02T10:08:29.873Z</time></trkpt><trkpt lat="40.0668742" lon="15.8036106"><ele>409.75</ele><time>2026-05-02T10:08:30.877Z</time></trkpt><trkpt lat="40.0670201" lon="15.8035847"><ele>412.0</ele><time>2026-05-02T10:08:31.857Z</time></trkpt><trkpt lat="40.0671479" lon="15.8035838"><ele>412.0</ele><time>2026-05-02T10:08:32.873Z</time></trkpt><trkpt lat="40.0672482" lon="15.8036065"><ele>412.0</ele><time>2026-05-02T10:08:33.878Z</time></trkpt><trkpt lat="40.0673301" lon="15.8036409"><ele>412.0</ele><time>2026-05-02T10:08:34.87Z</time></trkpt><trkpt lat="40.0674066" lon="15.8036805"><ele>412.0</ele><time>2026-05-02T10:08:35.864Z</time></trkpt><trkpt lat="40.06749" lon="15.8037363"><ele>412.0</ele><time>2026-05-02T10:08:36.862Z</time></trkpt><trkpt lat="40.0675796" lon="15.8038105"><ele>413.0</ele><time>2026-05-02T10:08:37.864Z</time></trkpt><trkpt lat="40.0676667" lon="15.8039127"><ele>414.0</ele><time>2026-05-02T10:08:38.868Z</time></trkpt><trkpt lat="40.067754" lon="15.8040428"><ele>415.0</ele><time>2026-05-02T10:08:39.858Z</time></trkpt><trkpt lat="40.0678511" lon="15.8041869"><ele>416.0</ele><time>2026-05-02T10:08:40.872Z</time></trkpt><trkpt lat="40.0679537" lon="15.8043347"><ele>416.0</ele><time>2026-05-02T10:08:41.866Z</time></trkpt><trkpt lat="40.0680457" lon="15.8044854"><ele>416.0</ele><time>2026-05-02T10:08:42.864Z</time></trkpt><trkpt lat="40.0681381" lon="15.8046291"><ele>416.0</ele><time>2026-05-02T10:08:43.876Z</time></trkpt><trkpt lat="40.0682329" lon="15.8047587"><ele>416.0</ele><time>2026-05-02T10:08:44.874Z</time></trkpt><trkpt lat="40.0683225" lon="15.8048542"><ele>418.0</ele><time>2026-05-02T10:08:45.869Z</time></trkpt><trkpt lat="40.0684273" lon="15.8049132"><ele>420.0</ele><time>2026-05-02T10:08:46.873Z</time></trkpt><trkpt lat="40.0685388" lon="15.8049464"><ele>422.0</ele><time>2026-05-02T10:08:47.874Z</time></trkpt><trkpt lat="40.0686558" lon="15.8049622"><ele>424.0</ele><time>2026-05-02T10:08:48.868Z</time></trkpt><trkpt lat="40.0687875" lon="15.8049683"><ele>424.0</ele><time>2026-05-02T10:08:49.883Z</time></trkpt><trkpt lat="40.0689321" lon="15.8049754"><ele>424.0</ele><time>2026-05-02T10:08:50.877Z</time></trkpt><trkpt lat="40.0690831" lon="15.80498"><ele>424.0</ele><time>2026-05-02T10:08:51.877Z</time></trkpt><trkpt lat="40.0692308" lon="15.8049639"><ele>424.0</ele><time>2026-05-02T10:08:52.872Z</time></trkpt><trkpt lat="40.069377" lon="15.8049181"><ele>426.5</ele><time>2026-05-02T10:08:53.87Z</time></trkpt><trkpt lat="40.0695183" lon="15.8048447"><ele>429.0</ele><time>2026-05-02T10:08:54.875Z</time></trkpt><trkpt lat="40.0696475" lon="15.8047437"><ele>431.5</ele><time>2026-05-02T10:08:55.872Z</time></trkpt><trkpt lat="40.0697711" lon="15.8046584"><ele>434.0</ele><time>2026-05-02T10:08:56.871Z</time></trkpt><trkpt lat="40.0698936" lon="15.8046101"><ele>436.6</ele><time>2026-05-02T10:08:57.878Z</time></trkpt><trkpt lat="40.0700051" lon="15.8046032"><ele>439.2</ele><time>2026-05-02T10:08:58.863Z</time></trkpt><trkpt lat="40.0701115" lon="15.8046445"><ele>441.80000000000007</ele><time>2026-05-02T10:08:59.868Z</time></trkpt><trkpt lat="40.0702089" lon="15.8047179"><ele>444.40000000000003</ele><time>2026-05-02T10:09:00.869Z</time></trkpt><trkpt lat="40.0702847" lon="15.8048296"><ele>447.0</ele><time>2026-05-02T10:09:01.869Z</time></trkpt><trkpt lat="40.0703431" lon="15.8049761"><ele>447.0</ele><time>2026-05-02T10:09:02.873Z</time></trkpt><trkpt lat="40.0703983" lon="15.8051553"><ele>447.0</ele><time>2026-05-02T10:09:03.875Z</time></trkpt><trkpt lat="40.070458" lon="15.8053438"><ele>447.0</ele><time>2026-05-02T10:09:04.87Z</time></trkpt><trkpt lat="40.0705387" lon="15.8055358"><ele>446.66666666666663</ele><time>2026-05-02T10:09:05.873Z</time></trkpt><trkpt lat="40.0706222" lon="15.8057406"><ele>446.3333333333333</ele><time>2026-05-02T10:09:06.87Z</time></trkpt><trkpt lat="40.0706812" lon="15.8059577"><ele>446.0</ele><time>2026-05-02T10:09:07.873Z</time></trkpt><trkpt lat="40.0707149" lon="15.8061691"><ele>446.75</ele><time>2026-05-02T10:09:08.878Z</time></trkpt><trkpt lat="40.0707474" lon="15.8063434"><ele>447.5</ele><time>2026-05-02T10:09:09.872Z</time></trkpt><trkpt lat="40.0707853" lon="15.806494"><ele>448.25</ele><time>2026-05-02T10:09:10.868Z</time></trkpt><trkpt lat="40.0708336" lon="15.8066375"><ele>449.0</ele><time>2026-05-02T10:09:11.87Z</time></trkpt><trkpt lat="40.0709055" lon="15.8067581"><ele>450.0</ele><time>2026-05-02T10:09:12.884Z</time></trkpt><trkpt lat="40.0709979" lon="15.8068444"><ele>451.0</ele><time>2026-05-02T10:09:13.867Z</time></trkpt><trkpt lat="40.0711122" lon="15.8069045"><ele>452.0</ele><time>2026-05-02T10:09:14.875Z</time></trkpt><trkpt lat="40.0712308" lon="15.8069344"><ele>453.0</ele><time>2026-05-02T10:09:15.874Z</time></trkpt><trkpt lat="40.0713465" lon="15.806943"><ele>453.0</ele><time>2026-05-02T10:09:16.877Z</time></trkpt><trkpt lat="40.0714508" lon="15.8069196"><ele>453.0</ele><time>2026-05-02T10:09:17.869Z</time></trkpt><trkpt lat="40.0715505" lon="15.8068572"><ele>453.0</ele><time>2026-05-02T10:09:18.867Z</time></trkpt><trkpt lat="40.0716506" lon="15.8067704"><ele>453.0</ele><time>2026-05-02T10:09:19.857Z</time></trkpt><trkpt lat="40.0717479" lon="15.8066647"><ele>456.59999999999997</ele><time>2026-05-02T10:09:20.877Z</time></trkpt><trkpt lat="40.071848" lon="15.806553"><ele>460.19999999999993</ele><time>2026-05-02T10:09:21.869Z</time></trkpt><trkpt lat="40.0719355" lon="15.8064582"><ele>463.8</ele><time>2026-05-02T10:09:22.864Z</time></trkpt><trkpt lat="40.0720009" lon="15.8063979"><ele>467.4</ele><time>2026-05-02T10:09:23.862Z</time></trkpt><trkpt lat="40.0720995" lon="15.8063764"><ele>471.0</ele><time>2026-05-02T10:09:25.883Z</time></trkpt><trkpt lat="40.0722005" lon="15.8063943"><ele>471.0</ele><time>2026-05-02T10:09:27.871Z</time></trkpt><trkpt lat="40.0722831" lon="15.806421"><ele>471.0</ele><time>2026-05-02T10:09:28.876Z</time></trkpt><trkpt lat="40.0723854" lon="15.8064503"><ele>471.0</ele><time>2026-05-02T10:09:29.88Z</time></trkpt><trkpt lat="40.0725068" lon="15.806473"><ele>471.0</ele><time>2026-05-02T10:09:30.867Z</time></trkpt><trkpt lat="40.0726462" lon="15.8064856"><ele>473.25</ele><time>2026-05-02T10:09:31.87Z</time></trkpt><trkpt lat="40.0727804" lon="15.8064942"><ele>475.5</ele><time>2026-05-02T10:09:32.867Z</time></trkpt><trkpt lat="40.0729112" lon="15.8065095"><ele>477.75</ele><time>2026-05-02T10:09:33.879Z</time></trkpt><trkpt lat="40.0730347" lon="15.8065327"><ele>480.0</ele><time>2026-05-02T10:09:34.874Z</time></trkpt><trkpt lat="40.0731464" lon="15.8065676"><ele>480.0</ele><time>2026-05-02T10:09:35.867Z</time></trkpt><trkpt lat="40.0732571" lon="15.8066232"><ele>480.0</ele><time>2026-05-02T10:09:36.881Z</time></trkpt><trkpt lat="40.0733806" lon="15.8066939"><ele>480.0</ele><time>2026-05-02T10:09:37.868Z</time></trkpt><trkpt lat="40.0735194" lon="15.8067678"><ele>480.0</ele><time>2026-05-02T10:09:38.871Z</time></trkpt><trkpt lat="40.0736542" lon="15.8068439"><ele>484.75</ele><time>2026-05-02T10:09:39.875Z</time></trkpt><trkpt lat="40.0737698" lon="15.8069112"><ele>489.5</ele><time>2026-05-02T10:09:40.868Z</time></trkpt><trkpt lat="40.0738792" lon="15.8069595"><ele>494.25</ele><time>2026-05-02T10:09:41.864Z</time></trkpt><trkpt lat="40.0739939" lon="15.8069863"><ele>499.0</ele><time>2026-05-02T10:09:42.866Z</time></trkpt><trkpt lat="40.0741198" lon="15.8069901"><ele>501.0</ele><time>2026-05-02T10:09:43.873Z</time></trkpt><trkpt lat="40.0742555" lon="15.8069708"><ele>503.0</ele><time>2026-05-02T10:09:44.865Z</time></trkpt><trkpt lat="40.0743863" lon="15.8069497"><ele>505.0</ele><time>2026-05-02T10:09:45.863Z</time></trkpt><trkpt lat="40.0745002" lon="15.8069352"><ele>507.0</ele><time>2026-05-02T10:09:46.881Z</time></trkpt><trkpt lat="40.0746083" lon="15.8069334"><ele>507.0</ele><time>2026-05-02T10:09:47.861Z</time></trkpt><trkpt lat="40.0747206" lon="15.8069566"><ele>507.00000000000006</ele><time>2026-05-02T10:09:48.873Z</time></trkpt><trkpt lat="40.0748277" lon="15.8069879"><ele>507.00000000000006</ele><time>2026-05-02T10:09:49.862Z</time></trkpt><trkpt lat="40.0749054" lon="15.8070268"><ele>507.0</ele><time>2026-05-02T10:09:50.887Z</time></trkpt><trkpt lat="40.0749674" lon="15.8070744"><ele>507.0</ele><time>2026-05-02T10:09:51.857Z</time></trkpt><trkpt lat="40.0750311" lon="15.8071558"><ele>507.25</ele><time>2026-05-02T10:09:52.875Z</time></trkpt><trkpt lat="40.0750919" lon="15.8072772"><ele>507.5</ele><time>2026-05-02T10:09:53.872Z</time></trkpt><trkpt lat="40.0751613" lon="15.8074135"><ele>507.75</ele><time>2026-05-02T10:09:54.872Z</time></trkpt><trkpt lat="40.0752367" lon="15.8075493"><ele>508.0</ele><time>2026-05-02T10:09:55.864Z</time></trkpt><trkpt lat="40.075315" lon="15.8076923"><ele>510.0</ele><time>2026-05-02T10:09:56.867Z</time></trkpt><trkpt lat="40.0753878" lon="15.8078515"><ele>512.0</ele><time>2026-05-02T10:09:57.869Z</time></trkpt><trkpt lat="40.0754628" lon="15.8080167"><ele>514.0</ele><time>2026-05-02T10:09:58.857Z</time></trkpt><trkpt lat="40.0755474" lon="15.808181"><ele>516.0</ele><time>2026-05-02T10:09:59.867Z</time></trkpt><trkpt lat="40.0756299" lon="15.8083526"><ele>518.0</ele><time>2026-05-02T10:10:00.871Z</time></trkpt><trkpt lat="40.0757121" lon="15.8085211"><ele>520.0</ele><time>2026-05-02T10:10:01.867Z</time></trkpt><trkpt lat="40.0757842" lon="15.808665"><ele>522.0</ele><time>2026-05-02T10:10:02.871Z</time></trkpt><trkpt lat="40.075845" lon="15.8087788"><ele>524.0</ele><time>2026-05-02T10:10:03.87Z</time></trkpt><trkpt lat="40.0758867" lon="15.8088622"><ele>524.0</ele><time>2026-05-02T10:10:04.871Z</time></trkpt><trkpt lat="40.0759311" lon="15.8089893"><ele>524.0</ele><time>2026-05-02T10:10:06.878Z</time></trkpt><trkpt lat="40.0758603" lon="15.8091024"><ele>524.0</ele><time>2026-05-02T10:10:08.872Z</time></trkpt><trkpt lat="40.0757844" lon="15.8091125"><ele>524.0</ele><time>2026-05-02T10:10:09.872Z</time></trkpt><trkpt lat="40.0757033" lon="15.8091047"><ele>524.0</ele><time>2026-05-02T10:10:10.864Z</time></trkpt><trkpt lat="40.0756247" lon="15.8091088"><ele>524.0</ele><time>2026-05-02T10:10:11.877Z</time></trkpt><trkpt lat="40.0755466" lon="15.809155"><ele>524.0</ele><time>2026-05-02T10:10:12.873Z</time></trkpt><trkpt lat="40.0754518" lon="15.8092237"><ele>524.0</ele><time>2026-05-02T10:10:13.872Z</time></trkpt><trkpt lat="40.0753596" lon="15.809303"><ele>524.0</ele><time>2026-05-02T10:10:14.863Z</time></trkpt><trkpt lat="40.0752849" lon="15.8093711"><ele>524.0</ele><time>2026-05-02T10:10:15.859Z</time></trkpt><trkpt lat="40.0752327" lon="15.8094326"><ele>524.4</ele><time>2026-05-02T10:10:16.865Z</time></trkpt><trkpt lat="40.0752005" lon="15.8095604"><ele>524.8</ele><time>2026-05-02T10:10:18.879Z</time></trkpt><trkpt lat="40.0752356" lon="15.8096405"><ele>525.2</ele><time>2026-05-02T10:10:19.862Z</time></trkpt><trkpt lat="40.0753004" lon="15.809706"><ele>525.6</ele><time>2026-05-02T10:10:20.874Z</time></trkpt><trkpt lat="40.0753819" lon="15.8097574"><ele>526.0</ele><time>2026-05-02T10:10:21.867Z</time></trkpt><trkpt lat="40.0754847" lon="15.8098039"><ele>526.0</ele><time>2026-05-02T10:10:22.875Z</time></trkpt><trkpt lat="40.0755944" lon="15.8098473"><ele>526.0</ele><time>2026-05-02T10:10:23.867Z</time></trkpt><trkpt lat="40.0757036" lon="15.8098966"><ele>526.0</ele><time>2026-05-02T10:10:24.87Z</time></trkpt><trkpt lat="40.0758158" lon="15.8099384"><ele>526.0</ele><time>2026-05-02T10:10:25.872Z</time></trkpt><trkpt lat="40.0759384" lon="15.8099676"><ele>529.75</ele><time>2026-05-02T10:10:26.87Z</time></trkpt><trkpt lat="40.0760703" lon="15.8099933"><ele>533.5</ele><time>2026-05-02T10:10:27.868Z</time></trkpt><trkpt lat="40.0762069" lon="15.8099983"><ele>537.25</ele><time>2026-05-02T10:10:28.873Z</time></trkpt><trkpt lat="40.0763438" lon="15.8099944"><ele>541.0</ele><time>2026-05-02T10:10:29.868Z</time></trkpt><trkpt lat="40.0764815" lon="15.8099933"><ele>542.75</ele><time>2026-05-02T10:10:30.874Z</time></trkpt><trkpt lat="40.0766187" lon="15.8100081"><ele>544.5</ele><time>2026-05-02T10:10:31.865Z</time></trkpt><trkpt lat="40.0767431" lon="15.8100257"><ele>546.25</ele><time>2026-05-02T10:10:32.871Z</time></trkpt><trkpt lat="40.0768494" lon="15.8100435"><ele>548.0</ele><time>2026-05-02T10:10:33.867Z</time></trkpt><trkpt lat="40.076948" lon="15.8100859"><ele>548.0</ele><time>2026-05-02T10:10:34.879Z</time></trkpt><trkpt lat="40.0770269" lon="15.8101475"><ele>548.0</ele><time>2026-05-02T10:10:35.878Z</time></trkpt><trkpt lat="40.0770957" lon="15.8102448"><ele>548.0</ele><time>2026-05-02T10:10:36.868Z</time></trkpt><trkpt lat="40.0771525" lon="15.8103733"><ele>548.0</ele><time>2026-05-02T10:10:37.876Z</time></trkpt><trkpt lat="40.0772072" lon="15.8105115"><ele>548.0</ele><time>2026-05-02T10:10:38.865Z</time></trkpt><trkpt lat="40.0772489" lon="15.810627"><ele>548.8333333333333</ele><time>2026-05-02T10:10:39.87Z</time></trkpt><trkpt lat="40.0772686" lon="15.8107299"><ele>549.6666666666666</ele><time>2026-05-02T10:10:40.857Z</time></trkpt><trkpt lat="40.0772597" lon="15.8108373"><ele>550.5</ele><time>2026-05-02T10:10:41.866Z</time></trkpt><trkpt lat="40.077234" lon="15.8109611"><ele>551.3333333333334</ele><time>2026-05-02T10:10:42.878Z</time></trkpt><trkpt lat="40.0772039" lon="15.8110657"><ele>552.1666666666667</ele><time>2026-05-02T10:10:43.868Z</time></trkpt><trkpt lat="40.0772096" lon="15.8111489"><ele>553.0</ele><time>2026-05-02T10:10:44.871Z</time></trkpt><trkpt lat="40.0772927" lon="15.8112383"><ele>554.1999999999999</ele><time>2026-05-02T10:10:46.873Z</time></trkpt><trkpt lat="40.0773591" lon="15.8112234"><ele>555.4</ele><time>2026-05-02T10:10:47.867Z</time></trkpt><trkpt lat="40.0774228" lon="15.811159"><ele>556.5999999999999</ele><time>2026-05-02T10:10:48.869Z</time></trkpt><trkpt lat="40.0774873" lon="15.8110585"><ele>557.8</ele><time>2026-05-02T10:10:49.866Z</time></trkpt><trkpt lat="40.0775655" lon="15.8109343"><ele>559.0</ele><time>2026-05-02T10:10:50.866Z</time></trkpt><trkpt lat="40.0776557" lon="15.8108115"><ele>559.6666666666667</ele><time>2026-05-02T10:10:51.862Z</time></trkpt><trkpt lat="40.0777212" lon="15.8106857"><ele>560.3333333333334</ele><time>2026-05-02T10:10:52.878Z</time></trkpt><trkpt lat="40.0777769" lon="15.8106101"><ele>561.0</ele><time>2026-05-02T10:10:53.856Z</time></trkpt><trkpt lat="40.0778647" lon="15.8105895"><ele>561.6666666666666</ele><time>2026-05-02T10:10:55.878Z</time></trkpt><trkpt lat="40.0779116" lon="15.810668"><ele>562.3333333333333</ele><time>2026-05-02T10:10:57.86Z</time></trkpt><trkpt lat="40.0778526" lon="15.8105979"><ele>563.0</ele><time>2026-05-02T10:11:32.873Z</time></trkpt><trkpt lat="40.0777702" lon="15.8106467"><ele>563.0</ele><time>2026-05-02T10:11:35.886Z</time></trkpt><trkpt lat="40.0777104" lon="15.8107198"><ele>563.0</ele><time>2026-05-02T10:11:38.869Z</time></trkpt><trkpt lat="40.0776535" lon="15.8107689"><ele>563.0</ele><time>2026-05-02T10:11:51.857Z</time></trkpt><trkpt lat="40.0777158" lon="15.8107109"><ele>563.0</ele><time>2026-05-02T10:12:12.876Z</time></trkpt><trkpt lat="40.0777691" lon="15.8106253"><ele>563.0</ele><time>2026-05-02T10:12:14.864Z</time></trkpt><trkpt lat="40.0778223" lon="15.810568"><ele>563.0</ele><time>2026-05-02T10:12:16.865Z</time></trkpt><trkpt lat="40.0778988" lon="15.8105428"><ele>563.0</ele><time>2026-05-02T10:12:19.87Z</time></trkpt><trkpt lat="40.0779573" lon="15.8105775"><ele>563.0</ele><time>2026-05-02T10:12:24.876Z</time></trkpt><trkpt lat="40.0779474" lon="15.8106952"><ele>563.0</ele><time>2026-05-02T10:18:10.857Z</time></trkpt><trkpt lat="40.0778393" lon="15.8107788"><ele>563.0</ele><time>2026-05-02T10:18:12.877Z</time></trkpt><trkpt lat="40.0777796" lon="15.8108548"><ele>563.0</ele><time>2026-05-02T10:18:13.868Z</time></trkpt><trkpt lat="40.0777327" lon="15.8109377"><ele>563.0</ele><time>2026-05-02T10:18:14.888Z</time></trkpt><trkpt lat="40.0776941" lon="15.8110328"><ele>565.8</ele><time>2026-05-02T10:18:15.839Z</time></trkpt><trkpt lat="40.0776622" lon="15.8111507"><ele>568.5999999999999</ele><time>2026-05-02T10:18:16.851Z</time></trkpt><trkpt lat="40.0776258" lon="15.811274"><ele>571.4000000000001</ele><time>2026-05-02T10:18:17.87Z</time></trkpt><trkpt lat="40.0775877" lon="15.8114008"><ele>574.2</ele><time>2026-05-02T10:18:18.859Z</time></trkpt><trkpt lat="40.0775441" lon="15.8115302"><ele>577.0</ele><time>2026-05-02T10:18:19.859Z</time></trkpt><trkpt lat="40.0774972" lon="15.8116646"><ele>577.0</ele><time>2026-05-02T10:18:20.867Z</time></trkpt><trkpt lat="40.0774565" lon="15.8118044"><ele>577.0</ele><time>2026-05-02T10:18:21.863Z</time></trkpt><trkpt lat="40.0774387" lon="15.8119554"><ele>577.0</ele><time>2026-05-02T10:18:22.869Z</time></trkpt><trkpt lat="40.0774324" lon="15.8121193"><ele>577.0</ele><time>2026-05-02T10:18:23.875Z</time></trkpt><trkpt lat="40.0774281" lon="15.8122594"><ele>576.8000000000001</ele><time>2026-05-02T10:18:24.868Z</time></trkpt><trkpt lat="40.0774215" lon="15.8123563"><ele>576.6</ele><time>2026-05-02T10:18:25.857Z</time></trkpt><trkpt lat="40.077452" lon="15.8124862"><ele>576.4000000000001</ele><time>2026-05-02T10:18:27.852Z</time></trkpt><trkpt lat="40.077547" lon="15.812488"><ele>576.2</ele><time>2026-05-02T10:18:29.869Z</time></trkpt><trkpt lat="40.0776281" lon="15.8123375"><ele>576.0</ele><time>2026-05-02T10:18:31.857Z</time></trkpt><trkpt lat="40.0776621" lon="15.8122196"><ele>576.25</ele><time>2026-05-02T10:18:32.868Z</time></trkpt><trkpt lat="40.0776968" lon="15.8120759"><ele>576.5</ele><time>2026-05-02T10:18:33.876Z</time></trkpt><trkpt lat="40.0777329" lon="15.8119173"><ele>576.75</ele><time>2026-05-02T10:18:34.857Z</time></trkpt><trkpt lat="40.0777752" lon="15.8117612"><ele>577.0</ele><time>2026-05-02T10:18:35.869Z</time></trkpt><trkpt lat="40.0778183" lon="15.8116278"><ele>577.0</ele><time>2026-05-02T10:18:36.87Z</time></trkpt><trkpt lat="40.0778675" lon="15.8115277"><ele>577.0</ele><time>2026-05-02T10:18:37.859Z</time></trkpt><trkpt lat="40.0779212" lon="15.8114516"><ele>577.0</ele><time>2026-05-02T10:18:38.867Z</time></trkpt><trkpt lat="40.077981" lon="15.8114052"><ele>577.0</ele><time>2026-05-02T10:18:39.871Z</time></trkpt><trkpt lat="40.0780668" lon="15.811404"><ele>577.0</ele><time>2026-05-02T10:18:40.861Z</time></trkpt><trkpt lat="40.0781619" lon="15.8114182"><ele>577.0</ele><time>2026-05-02T10:18:41.861Z</time></trkpt><trkpt lat="40.0782603" lon="15.811432"><ele>580.6666666666667</ele><time>2026-05-02T10:18:42.873Z</time></trkpt><trkpt lat="40.0783394" lon="15.8114481"><ele>584.3333333333334</ele><time>2026-05-02T10:18:43.872Z</time></trkpt><trkpt lat="40.0784117" lon="15.8114745"><ele>588.0</ele><time>2026-05-02T10:18:44.87Z</time></trkpt><trkpt lat="40.0784773" lon="15.8115201"><ele>591.6666666666666</ele><time>2026-05-02T10:18:45.872Z</time></trkpt><trkpt lat="40.078542" lon="15.8115936"><ele>595.3333333333333</ele><time>2026-05-02T10:18:46.872Z</time></trkpt><trkpt lat="40.0786049" lon="15.8116922"><ele>599.0</ele><time>2026-05-02T10:18:47.863Z</time></trkpt><trkpt lat="40.0786797" lon="15.8117879"><ele>601.1666666666666</ele><time>2026-05-02T10:18:48.87Z</time></trkpt><trkpt lat="40.0787488" lon="15.8118629"><ele>603.3333333333333</ele><time>2026-05-02T10:18:49.871Z</time></trkpt><trkpt lat="40.078815" lon="15.8119132"><ele>605.5</ele><time>2026-05-02T10:18:50.862Z</time></trkpt><trkpt lat="40.0788788" lon="15.8119497"><ele>607.6666666666666</ele><time>2026-05-02T10:18:51.871Z</time></trkpt><trkpt lat="40.0789591" lon="15.8120318"><ele>609.8333333333334</ele><time>2026-05-02T10:18:53.877Z</time></trkpt><trkpt lat="40.0789369" lon="15.8121339"><ele>612.0</ele><time>2026-05-02T10:18:55.859Z</time></trkpt><trkpt lat="40.0788252" lon="15.8121584"><ele>612.0</ele><time>2026-05-02T10:18:57.868Z</time></trkpt><trkpt lat="40.0787424" lon="15.812136"><ele>612.0</ele><time>2026-05-02T10:18:58.871Z</time></trkpt><trkpt lat="40.0786568" lon="15.8121233"><ele>612.0</ele><time>2026-05-02T10:18:59.875Z</time></trkpt><trkpt lat="40.0785762" lon="15.8121103"><ele>612.0</ele><time>2026-05-02T10:19:00.869Z</time></trkpt><trkpt lat="40.0784971" lon="15.8121101"><ele>612.0</ele><time>2026-05-02T10:19:01.873Z</time></trkpt><trkpt lat="40.0784106" lon="15.8121341"><ele>612.0</ele><time>2026-05-02T10:19:02.867Z</time></trkpt><trkpt lat="40.0783344" lon="15.8121958"><ele>612.0</ele><time>2026-05-02T10:19:03.866Z</time></trkpt><trkpt lat="40.0782712" lon="15.8122589"><ele>612.0</ele><time>2026-05-02T10:19:04.866Z</time></trkpt><trkpt lat="40.0782203" lon="15.8123459"><ele>612.0</ele><time>2026-05-02T10:19:06.873Z</time></trkpt><trkpt lat="40.0781766" lon="15.8124328"><ele>612.0</ele><time>2026-05-02T10:19:09.869Z</time></trkpt><trkpt lat="40.078126" lon="15.8125687"><ele>612.0</ele><time>2026-05-02T10:19:11.871Z</time></trkpt><trkpt lat="40.0780815" lon="15.812675"><ele>610.6</ele><time>2026-05-02T10:19:12.873Z</time></trkpt><trkpt lat="40.0780234" lon="15.8127887"><ele>609.2</ele><time>2026-05-02T10:19:13.863Z</time></trkpt><trkpt lat="40.077961" lon="15.8128866"><ele>607.8</ele><time>2026-05-02T10:19:14.875Z</time></trkpt><trkpt lat="40.0779093" lon="15.8129679"><ele>606.4</ele><time>2026-05-02T10:19:15.87Z</time></trkpt><trkpt lat="40.0778764" lon="15.8130427"><ele>605.0</ele><time>2026-05-02T10:19:16.859Z</time></trkpt><trkpt lat="40.0778999" lon="15.8132122"><ele>605.0</ele><time>2026-05-02T10:19:18.867Z</time></trkpt><trkpt lat="40.0779516" lon="15.8133148"><ele>605.0</ele><time>2026-05-02T10:19:19.861Z</time></trkpt><trkpt lat="40.0780275" lon="15.8134197"><ele>605.0</ele><time>2026-05-02T10:19:20.862Z</time></trkpt><trkpt lat="40.078137" lon="15.8135166"><ele>605.0</ele><time>2026-05-02T10:19:21.865Z</time></trkpt><trkpt lat="40.0782528" lon="15.8136096"><ele>608.8</ele><time>2026-05-02T10:19:22.874Z</time></trkpt><trkpt lat="40.0783431" lon="15.8137007"><ele>612.6</ele><time>2026-05-02T10:19:23.86Z</time></trkpt><trkpt lat="40.0783929" lon="15.8137852"><ele>616.4</ele><time>2026-05-02T10:19:24.863Z</time></trkpt><trkpt lat="40.0784113" lon="15.8138799"><ele>620.2</ele><time>2026-05-02T10:19:25.867Z</time></trkpt><trkpt lat="40.0784057" lon="15.8139912"><ele>624.0</ele><time>2026-05-02T10:19:26.859Z</time></trkpt><trkpt lat="40.0783863" lon="15.8141132"><ele>624.0</ele><time>2026-05-02T10:19:27.874Z</time></trkpt><trkpt lat="40.0783645" lon="15.8142539"><ele>624.0</ele><time>2026-05-02T10:19:28.869Z</time></trkpt><trkpt lat="40.0783551" lon="15.814409"><ele>624.0</ele><time>2026-05-02T10:19:29.875Z</time></trkpt><trkpt lat="40.078342" lon="15.8145809"><ele>624.0</ele><time>2026-05-02T10:19:30.87Z</time></trkpt><trkpt lat="40.0783153" lon="15.8147536"><ele>626.0</ele><time>2026-05-02T10:19:31.868Z</time></trkpt><trkpt lat="40.0782525" lon="15.8149295"><ele>628.0</ele><time>2026-05-02T10:19:32.883Z</time></trkpt><trkpt lat="40.0781755" lon="15.8151074"><ele>630.0</ele><time>2026-05-02T10:19:33.878Z</time></trkpt><trkpt lat="40.0780942" lon="15.8152706"><ele>632.2</ele><time>2026-05-02T10:19:34.879Z</time></trkpt><trkpt lat="40.0780266" lon="15.8154036"><ele>634.4</ele><time>2026-05-02T10:19:35.856Z</time></trkpt><trkpt lat="40.0779846" lon="15.8155039"><ele>636.5999999999999</ele><time>2026-05-02T10:19:36.876Z</time></trkpt><trkpt lat="40.0779546" lon="15.815595"><ele>638.8</ele><time>2026-05-02T10:19:37.864Z</time></trkpt><trkpt lat="40.0779952" lon="15.8157408"><ele>641.0</ele><time>2026-05-02T10:19:39.862Z</time></trkpt><trkpt lat="40.0780619" lon="15.8157662"><ele>641.0</ele><time>2026-05-02T10:19:40.855Z</time></trkpt><trkpt lat="40.0781403" lon="15.8157434"><ele>641.0</ele><time>2026-05-02T10:19:41.865Z</time></trkpt><trkpt lat="40.0782168" lon="15.8156978"><ele>641.0</ele><time>2026-05-02T10:19:42.871Z</time></trkpt><trkpt lat="40.0783113" lon="15.8156283"><ele>641.0</ele><time>2026-05-02T10:19:43.875Z</time></trkpt><trkpt lat="40.0784254" lon="15.8155487"><ele>641.0</ele><time>2026-05-02T10:19:44.884Z</time></trkpt><trkpt lat="40.0785518" lon="15.8154605"><ele>640.6666666666666</ele><time>2026-05-02T10:19:45.876Z</time></trkpt><trkpt lat="40.0786956" lon="15.8153831"><ele>640.3333333333334</ele><time>2026-05-02T10:19:46.866Z</time></trkpt><trkpt lat="40.0788524" lon="15.8153111"><ele>640.0</ele><time>2026-05-02T10:19:47.859Z</time></trkpt><trkpt lat="40.079022" lon="15.8152333"><ele>639.6666666666667</ele><time>2026-05-02T10:19:48.875Z</time></trkpt><trkpt lat="40.0791901" lon="15.8151593"><ele>639.3333333333334</ele><time>2026-05-02T10:19:49.857Z</time></trkpt><trkpt lat="40.0793422" lon="15.8150948"><ele>639.0</ele><time>2026-05-02T10:19:50.86Z</time></trkpt><trkpt lat="40.0794713" lon="15.815034"><ele>639.0</ele><time>2026-05-02T10:19:51.864Z</time></trkpt><trkpt lat="40.0795892" lon="15.8149678"><ele>639.0</ele><time>2026-05-02T10:19:52.87Z</time></trkpt><trkpt lat="40.0796886" lon="15.8148776"><ele>639.0</ele><time>2026-05-02T10:19:53.871Z</time></trkpt><trkpt lat="40.0797679" lon="15.8147589"><ele>639.0</ele><time>2026-05-02T10:19:54.876Z</time></trkpt><trkpt lat="40.0798156" lon="15.8146271"><ele>639.0</ele><time>2026-05-02T10:19:55.876Z</time></trkpt><trkpt lat="40.0798472" lon="15.8145199"><ele>639.0</ele><time>2026-05-02T10:19:56.877Z</time></trkpt><trkpt lat="40.0798955" lon="15.8144413"><ele>639.0</ele><time>2026-05-02T10:19:57.876Z</time></trkpt><trkpt lat="40.0799703" lon="15.8143631"><ele>639.0</ele><time>2026-05-02T10:19:58.876Z</time></trkpt><trkpt lat="40.0800638" lon="15.8143025"><ele>639.0</ele><time>2026-05-02T10:19:59.862Z</time></trkpt><trkpt lat="40.080173" lon="15.8142681"><ele>641.75</ele><time>2026-05-02T10:20:00.874Z</time></trkpt><trkpt lat="40.0802896" lon="15.814265"><ele>644.5</ele><time>2026-05-02T10:20:01.872Z</time></trkpt><trkpt lat="40.0804112" lon="15.8142767"><ele>647.25</ele><time>2026-05-02T10:20:02.86Z</time></trkpt><trkpt lat="40.0805336" lon="15.8142839"><ele>650.0</ele><time>2026-05-02T10:20:03.865Z</time></trkpt><trkpt lat="40.0806554" lon="15.8142896"><ele>650.0</ele><time>2026-05-02T10:20:04.873Z</time></trkpt><trkpt lat="40.0807511" lon="15.8143089"><ele>650.0</ele><time>2026-05-02T10:20:05.873Z</time></trkpt><trkpt lat="40.0808258" lon="15.814356"><ele>650.0</ele><time>2026-05-02T10:20:06.877Z</time></trkpt><trkpt lat="40.0808801" lon="15.8144461"><ele>650.0</ele><time>2026-05-02T10:20:07.863Z</time></trkpt><trkpt lat="40.0809126" lon="15.8145781"><ele>650.0</ele><time>2026-05-02T10:20:08.869Z</time></trkpt><trkpt lat="40.0809237" lon="15.8147328"><ele>654.5</ele><time>2026-05-02T10:20:09.875Z</time></trkpt><trkpt lat="40.0809084" lon="15.8148985"><ele>659.0</ele><time>2026-05-02T10:20:10.869Z</time></trkpt><trkpt lat="40.0808951" lon="15.8150622"><ele>663.5</ele><time>2026-05-02T10:20:11.864Z</time></trkpt><trkpt lat="40.0808831" lon="15.815204"><ele>668.0</ele><time>2026-05-02T10:20:12.873Z</time></trkpt><trkpt lat="40.0808809" lon="15.8153212"><ele>668.5</ele><time>2026-05-02T10:20:13.878Z</time></trkpt><trkpt lat="40.0808977" lon="15.8154311"><ele>669.0</ele><time>2026-05-02T10:20:14.876Z</time></trkpt><trkpt lat="40.0809393" lon="15.8155377"><ele>669.5</ele><time>2026-05-02T10:20:15.863Z</time></trkpt><trkpt lat="40.0810116" lon="15.8156169"><ele>670.0</ele><time>2026-05-02T10:20:16.868Z</time></trkpt><trkpt lat="40.0810878" lon="15.8156571"><ele>670.5</ele><time>2026-05-02T10:20:17.873Z</time></trkpt><trkpt lat="40.081172" lon="15.8156733"><ele>671.0</ele><time>2026-05-02T10:20:18.881Z</time></trkpt><trkpt lat="40.0812656" lon="15.8156931"><ele>671.0</ele><time>2026-05-02T10:20:19.864Z</time></trkpt><trkpt lat="40.0813713" lon="15.815731"><ele>671.0</ele><time>2026-05-02T10:20:20.877Z</time></trkpt><trkpt lat="40.0814773" lon="15.8157745"><ele>671.0</ele><time>2026-05-02T10:20:21.865Z</time></trkpt><trkpt lat="40.0815749" lon="15.8158213"><ele>671.0</ele><time>2026-05-02T10:20:22.889Z</time></trkpt><trkpt lat="40.0816715" lon="15.8158679"><ele>671.0</ele><time>2026-05-02T10:20:23.875Z</time></trkpt><trkpt lat="40.0817648" lon="15.8159034"><ele>673.0</ele><time>2026-05-02T10:20:24.857Z</time></trkpt><trkpt lat="40.0818581" lon="15.8159234"><ele>675.0</ele><time>2026-05-02T10:20:25.865Z</time></trkpt><trkpt lat="40.0819541" lon="15.8159202"><ele>677.0</ele><time>2026-05-02T10:20:26.869Z</time></trkpt><trkpt lat="40.0820559" lon="15.8159231"><ele>679.0</ele><time>2026-05-02T10:20:27.874Z</time></trkpt><trkpt lat="40.0821534" lon="15.815953"><ele>681.0</ele><time>2026-05-02T10:20:28.868Z</time></trkpt><trkpt lat="40.0822478" lon="15.8160032"><ele>681.0</ele><time>2026-05-02T10:20:29.862Z</time></trkpt><trkpt lat="40.0823343" lon="15.8160826"><ele>681.0</ele><time>2026-05-02T10:20:30.87Z</time></trkpt><trkpt lat="40.0824174" lon="15.8161823"><ele>681.0</ele><time>2026-05-02T10:20:31.864Z</time></trkpt><trkpt lat="40.0825004" lon="15.8162905"><ele>681.0</ele><time>2026-05-02T10:20:32.86Z</time></trkpt><trkpt lat="40.0825841" lon="15.8163976"><ele>683.8333333333334</ele><time>2026-05-02T10:20:33.872Z</time></trkpt><trkpt lat="40.0826622" lon="15.8164955"><ele>686.6666666666666</ele><time>2026-05-02T10:20:34.868Z</time></trkpt><trkpt lat="40.082729" lon="15.816584"><ele>689.5</ele><time>2026-05-02T10:20:35.87Z</time></trkpt><trkpt lat="40.0827859" lon="15.8166558"><ele>692.3333333333333</ele><time>2026-05-02T10:20:36.857Z</time></trkpt><trkpt lat="40.0828477" lon="15.816695"><ele>695.1666666666666</ele><time>2026-05-02T10:20:37.87Z</time></trkpt><trkpt lat="40.0829167" lon="15.8167118"><ele>698.0</ele><time>2026-05-02T10:20:38.862Z</time></trkpt><trkpt lat="40.0829982" lon="15.816691"><ele>698.0</ele><time>2026-05-02T10:20:39.866Z</time></trkpt><trkpt lat="40.0830834" lon="15.8166465"><ele>698.0</ele><time>2026-05-02T10:20:40.875Z</time></trkpt><trkpt lat="40.0831647" lon="15.8166054"><ele>698.0</ele><time>2026-05-02T10:20:41.883Z</time></trkpt><trkpt lat="40.0832293" lon="15.8165911"><ele>698.0</ele><time>2026-05-02T10:20:42.857Z</time></trkpt><trkpt lat="40.0832933" lon="15.8166178"><ele>698.0</ele><time>2026-05-02T10:20:43.87Z</time></trkpt><trkpt lat="40.0833506" lon="15.8166889"><ele>698.0</ele><time>2026-05-02T10:20:44.881Z</time></trkpt><trkpt lat="40.0833781" lon="15.8167981"><ele>701.2</ele><time>2026-05-02T10:20:45.875Z</time></trkpt><trkpt lat="40.0833951" lon="15.8169328"><ele>704.4</ele><time>2026-05-02T10:20:46.874Z</time></trkpt><trkpt lat="40.0833988" lon="15.817074"><ele>707.6</ele><time>2026-05-02T10:20:47.864Z</time></trkpt><trkpt lat="40.0834136" lon="15.8171881"><ele>710.8000000000001</ele><time>2026-05-02T10:20:48.856Z</time></trkpt><trkpt lat="40.0834409" lon="15.8172688"><ele>714.0</ele><time>2026-05-02T10:20:49.869Z</time></trkpt><trkpt lat="40.0835562" lon="15.8173295"><ele>714.0</ele><time>2026-05-02T10:20:51.864Z</time></trkpt><trkpt lat="40.083641" lon="15.8173019"><ele>714.0</ele><time>2026-05-02T10:20:52.879Z</time></trkpt><trkpt lat="40.0837234" lon="15.817259"><ele>714.0</ele><time>2026-05-02T10:20:53.868Z</time></trkpt><trkpt lat="40.0838091" lon="15.8172441"><ele>714.0</ele><time>2026-05-02T10:20:54.87Z</time></trkpt><trkpt lat="40.083897" lon="15.8172578"><ele>714.0</ele><time>2026-05-02T10:20:55.878Z</time></trkpt><trkpt lat="40.0839978" lon="15.8173038"><ele>714.0</ele><time>2026-05-02T10:20:56.87Z</time></trkpt><trkpt lat="40.0840915" lon="15.8173502"><ele>714.0</ele><time>2026-05-02T10:20:57.88Z</time></trkpt><trkpt lat="40.0841746" lon="15.8174014"><ele>714.0</ele><time>2026-05-02T10:20:58.87Z</time></trkpt><trkpt lat="40.0842611" lon="15.817471"><ele>714.0</ele><time>2026-05-02T10:20:59.871Z</time></trkpt><trkpt lat="40.0843527" lon="15.8175427"><ele>714.0</ele><time>2026-05-02T10:21:00.873Z</time></trkpt><trkpt lat="40.0844372" lon="15.8176257"><ele>717.25</ele><time>2026-05-02T10:21:01.869Z</time></trkpt><trkpt lat="40.0845179" lon="15.8177215"><ele>720.5</ele><time>2026-05-02T10:21:02.88Z</time></trkpt><trkpt lat="40.084586" lon="15.8178415"><ele>723.75</ele><time>2026-05-02T10:21:03.869Z</time></trkpt><trkpt lat="40.0846435" lon="15.8179763"><ele>727.0</ele><time>2026-05-02T10:21:04.86Z</time></trkpt><trkpt lat="40.0847103" lon="15.8180889"><ele>727.0</ele><time>2026-05-02T10:21:05.872Z</time></trkpt><trkpt lat="40.084791" lon="15.8181617"><ele>727.0</ele><time>2026-05-02T10:21:06.869Z</time></trkpt><trkpt lat="40.0848948" lon="15.8182144"><ele>727.0</ele><time>2026-05-02T10:21:07.889Z</time></trkpt><trkpt lat="40.0850109" lon="15.8182551"><ele>727.0</ele><time>2026-05-02T10:21:08.868Z</time></trkpt><trkpt lat="40.0851352" lon="15.818291"><ele>729.25</ele><time>2026-05-02T10:21:09.873Z</time></trkpt><trkpt lat="40.0852596" lon="15.8183303"><ele>731.5</ele><time>2026-05-02T10:21:10.881Z</time></trkpt><trkpt lat="40.085371" lon="15.818372"><ele>733.75</ele><time>2026-05-02T10:21:11.872Z</time></trkpt><trkpt lat="40.0854728" lon="15.8184023"><ele>736.0</ele><time>2026-05-02T10:21:12.872Z</time></trkpt><trkpt lat="40.0855772" lon="15.8184419"><ele>738.0</ele><time>2026-05-02T10:21:13.876Z</time></trkpt><trkpt lat="40.0856822" lon="15.8184995"><ele>740.0</ele><time>2026-05-02T10:21:14.867Z</time></trkpt><trkpt lat="40.0857736" lon="15.8185832"><ele>742.0</ele><time>2026-05-02T10:21:15.864Z</time></trkpt><trkpt lat="40.0858598" lon="15.8186884"><ele>744.0</ele><time>2026-05-02T10:21:16.872Z</time></trkpt><trkpt lat="40.0859512" lon="15.8188178"><ele>745.75</ele><time>2026-05-02T10:21:17.86Z</time></trkpt><trkpt lat="40.0860361" lon="15.8189459"><ele>747.5</ele><time>2026-05-02T10:21:18.871Z</time></trkpt><trkpt lat="40.0861238" lon="15.8190711"><ele>749.25</ele><time>2026-05-02T10:21:19.88Z</time></trkpt><trkpt lat="40.0862211" lon="15.8191698"><ele>751.0</ele><time>2026-05-02T10:21:20.864Z</time></trkpt><trkpt lat="40.0863322" lon="15.8192609"><ele>751.25</ele><time>2026-05-02T10:21:21.863Z</time></trkpt><trkpt lat="40.0864427" lon="15.8193552"><ele>751.5</ele><time>2026-05-02T10:21:22.868Z</time></trkpt><trkpt lat="40.0865393" lon="15.8194559"><ele>751.75</ele><time>2026-05-02T10:21:23.868Z</time></trkpt><trkpt lat="40.0866207" lon="15.8195721"><ele>752.0</ele><time>2026-05-02T10:21:24.865Z</time></trkpt><trkpt lat="40.0866927" lon="15.8197067"><ele>752.0</ele><time>2026-05-02T10:21:25.875Z</time></trkpt><trkpt lat="40.0867699" lon="15.8198366"><ele>752.0</ele><time>2026-05-02T10:21:26.877Z</time></trkpt><trkpt lat="40.0868531" lon="15.8199566"><ele>752.0</ele><time>2026-05-02T10:21:27.866Z</time></trkpt><trkpt lat="40.0869439" lon="15.8200605"><ele>752.0</ele><time>2026-05-02T10:21:28.866Z</time></trkpt><trkpt lat="40.0870368" lon="15.8201385"><ele>752.0</ele><time>2026-05-02T10:21:29.863Z</time></trkpt><trkpt lat="40.087121" lon="15.8201767"><ele>752.0</ele><time>2026-05-02T10:21:30.866Z</time></trkpt><trkpt lat="40.0872163" lon="15.8201758"><ele>752.0</ele><time>2026-05-02T10:21:31.868Z</time></trkpt><trkpt lat="40.0873101" lon="15.8201361"><ele>752.0</ele><time>2026-05-02T10:21:32.866Z</time></trkpt><trkpt lat="40.0874069" lon="15.8200584"><ele>752.0</ele><time>2026-05-02T10:21:33.864Z</time></trkpt><trkpt lat="40.0875" lon="15.8199649"><ele>753.0</ele><time>2026-05-02T10:21:34.861Z</time></trkpt><trkpt lat="40.0876031" lon="15.8198797"><ele>754.0</ele><time>2026-05-02T10:21:35.877Z</time></trkpt><trkpt lat="40.0877087" lon="15.8198054"><ele>755.0</ele><time>2026-05-02T10:21:36.87Z</time></trkpt><trkpt lat="40.0877975" lon="15.8197348"><ele>756.0</ele><time>2026-05-02T10:21:37.873Z</time></trkpt><trkpt lat="40.0878707" lon="15.8196759"><ele>757.0</ele><time>2026-05-02T10:21:38.878Z</time></trkpt><trkpt lat="40.0879522" lon="15.8196528"><ele>757.0</ele><time>2026-05-02T10:21:39.876Z</time></trkpt><trkpt lat="40.0880446" lon="15.8196347"><ele>757.0</ele><time>2026-05-02T10:21:40.882Z</time></trkpt><trkpt lat="40.0881415" lon="15.8196323"><ele>757.0</ele><time>2026-05-02T10:21:41.873Z</time></trkpt><trkpt lat="40.0882407" lon="15.8196551"><ele>757.0</ele><time>2026-05-02T10:21:42.874Z</time></trkpt><trkpt lat="40.0883508" lon="15.819695"><ele>757.0</ele><time>2026-05-02T10:21:43.869Z</time></trkpt><trkpt lat="40.0884626" lon="15.8197559"><ele>759.25</ele><time>2026-05-02T10:21:44.864Z</time></trkpt><trkpt lat="40.0885764" lon="15.8198236"><ele>761.5</ele><time>2026-05-02T10:21:45.874Z</time></trkpt><trkpt lat="40.0886883" lon="15.819894"><ele>763.75</ele><time>2026-05-02T10:21:46.891Z</time></trkpt><trkpt lat="40.0887976" lon="15.8199681"><ele>766.0</ele><time>2026-05-02T10:21:47.88Z</time></trkpt><trkpt lat="40.0888953" lon="15.8200504"><ele>766.0</ele><time>2026-05-02T10:21:48.871Z</time></trkpt><trkpt lat="40.0889877" lon="15.8201438"><ele>766.0</ele><time>2026-05-02T10:21:49.868Z</time></trkpt><trkpt lat="40.0890801" lon="15.820245"><ele>766.0</ele><time>2026-05-02T10:21:50.868Z</time></trkpt><trkpt lat="40.0891774" lon="15.820352"><ele>766.0</ele><time>2026-05-02T10:21:51.87Z</time></trkpt><trkpt lat="40.0892825" lon="15.8204523"><ele>769.25</ele><time>2026-05-02T10:21:52.865Z</time></trkpt><trkpt lat="40.0893993" lon="15.8205407"><ele>772.5</ele><time>2026-05-02T10:21:53.866Z</time></trkpt><trkpt lat="40.0895206" lon="15.8206163"><ele>775.75</ele><time>2026-05-02T10:21:54.867Z</time></trkpt><trkpt lat="40.0896333" lon="15.8206935"><ele>779.0</ele><time>2026-05-02T10:21:55.866Z</time></trkpt><trkpt lat="40.0897357" lon="15.8207601"><ele>779.0</ele><time>2026-05-02T10:21:56.871Z</time></trkpt><trkpt lat="40.0898427" lon="15.8207969"><ele>779.0</ele><time>2026-05-02T10:21:57.867Z</time></trkpt><trkpt lat="40.0899602" lon="15.8208173"><ele>779.0</ele><time>2026-05-02T10:21:58.871Z</time></trkpt><trkpt lat="40.0900868" lon="15.820822"><ele>779.0</ele><time>2026-05-02T10:21:59.862Z</time></trkpt><trkpt lat="40.0902044" lon="15.8208315"><ele>781.6666666666667</ele><time>2026-05-02T10:22:00.87Z</time></trkpt><trkpt lat="40.0902963" lon="15.8208587"><ele>784.3333333333334</ele><time>2026-05-02T10:22:01.86Z</time></trkpt><trkpt lat="40.0903676" lon="15.8208819"><ele>787.0</ele><time>2026-05-02T10:22:02.864Z</time></trkpt><trkpt lat="40.0904593" lon="15.820929"><ele>789.6666666666667</ele><time>2026-05-02T10:22:04.865Z</time></trkpt><trkpt lat="40.09052" lon="15.8209649"><ele>792.3333333333334</ele><time>2026-05-02T10:22:07.871Z</time></trkpt><trkpt lat="40.0905911" lon="15.820963"><ele>795.0</ele><time>2026-05-02T10:22:18.88Z</time></trkpt><trkpt lat="40.090684" lon="15.8208634"><ele>795.0</ele><time>2026-05-02T10:22:20.86Z</time></trkpt><trkpt lat="40.0907448" lon="15.8207605"><ele>795.0</ele><time>2026-05-02T10:22:21.862Z</time></trkpt><trkpt lat="40.0908135" lon="15.8206415"><ele>795.0</ele><time>2026-05-02T10:22:22.858Z</time></trkpt><trkpt lat="40.090898" lon="15.8205196"><ele>795.0</ele><time>2026-05-02T10:22:23.853Z</time></trkpt><trkpt lat="40.0909776" lon="15.8204049"><ele>795.0</ele><time>2026-05-02T10:22:24.867Z</time></trkpt><trkpt lat="40.0910439" lon="15.8203032"><ele>795.0</ele><time>2026-05-02T10:22:25.865Z</time></trkpt><trkpt lat="40.0910977" lon="15.820189"><ele>795.0</ele><time>2026-05-02T10:22:26.865Z</time></trkpt><trkpt lat="40.0911368" lon="15.8200406"><ele>795.0</ele><time>2026-05-02T10:22:27.856Z</time></trkpt><trkpt lat="40.0911587" lon="15.8198621"><ele>795.0</ele><time>2026-05-02T10:22:28.868Z</time></trkpt><trkpt lat="40.0911682" lon="15.8196661"><ele>795.0</ele><time>2026-05-02T10:22:29.861Z</time></trkpt><trkpt lat="40.0911784" lon="15.8194657"><ele>795.0</ele><time>2026-05-02T10:22:30.859Z</time></trkpt><trkpt lat="40.0911989" lon="15.8192656"><ele>794.3333333333333</ele><time>2026-05-02T10:22:31.866Z</time></trkpt><trkpt lat="40.091234" lon="15.8190565"><ele>793.6666666666666</ele><time>2026-05-02T10:22:32.87Z</time></trkpt><trkpt lat="40.0912769" lon="15.8188478"><ele>793.0</ele><time>2026-05-02T10:22:33.861Z</time></trkpt><trkpt lat="40.0913201" lon="15.8186362"><ele>791.6666666666666</ele><time>2026-05-02T10:22:34.87Z</time></trkpt><trkpt lat="40.0913605" lon="15.8184275"><ele>790.3333333333333</ele><time>2026-05-02T10:22:35.87Z</time></trkpt><trkpt lat="40.0913956" lon="15.8182293"><ele>789.0</ele><time>2026-05-02T10:22:36.861Z</time></trkpt><trkpt lat="40.0914361" lon="15.8180454"><ele>789.0</ele><time>2026-05-02T10:22:37.858Z</time></trkpt><trkpt lat="40.0914749" lon="15.8178699"><ele>789.0</ele><time>2026-05-02T10:22:38.861Z</time></trkpt><trkpt lat="40.0915116" lon="15.8177057"><ele>789.0</ele><time>2026-05-02T10:22:39.876Z</time></trkpt><trkpt lat="40.0915443" lon="15.8175509"><ele>789.0</ele><time>2026-05-02T10:22:40.869Z</time></trkpt><trkpt lat="40.0915752" lon="15.8173962"><ele>791.5</ele><time>2026-05-02T10:22:41.864Z</time></trkpt><trkpt lat="40.0916085" lon="15.8172506"><ele>794.0</ele><time>2026-05-02T10:22:42.872Z</time></trkpt><trkpt lat="40.0916439" lon="15.8171044"><ele>796.5</ele><time>2026-05-02T10:22:43.86Z</time></trkpt><trkpt lat="40.0916775" lon="15.8169548"><ele>799.0</ele><time>2026-05-02T10:22:44.866Z</time></trkpt><trkpt lat="40.0917072" lon="15.8167996"><ele>799.0</ele><time>2026-05-02T10:22:45.869Z</time></trkpt><trkpt lat="40.0917416" lon="15.8166473"><ele>799.0</ele><time>2026-05-02T10:22:46.866Z</time></trkpt><trkpt lat="40.0917815" lon="15.8164842"><ele>799.0</ele><time>2026-05-02T10:22:47.866Z</time></trkpt><trkpt lat="40.0918165" lon="15.8163145"><ele>799.0</ele><time>2026-05-02T10:22:48.858Z</time></trkpt><trkpt lat="40.0918502" lon="15.8161412"><ele>798.25</ele><time>2026-05-02T10:22:49.874Z</time></trkpt><trkpt lat="40.0918834" lon="15.8159656"><ele>797.5</ele><time>2026-05-02T10:22:50.873Z</time></trkpt><trkpt lat="40.0919192" lon="15.8158017"><ele>796.75</ele><time>2026-05-02T10:22:51.869Z</time></trkpt><trkpt lat="40.0919397" lon="15.815652"><ele>796.0</ele><time>2026-05-02T10:22:52.873Z</time></trkpt><trkpt lat="40.0919411" lon="15.8155061"><ele>796.0</ele><time>2026-05-02T10:22:53.852Z</time></trkpt><trkpt lat="40.0919033" lon="15.8153646"><ele>796.0</ele><time>2026-05-02T10:22:54.873Z</time></trkpt><trkpt lat="40.0918379" lon="15.8152331"><ele>796.0</ele><time>2026-05-02T10:22:55.846Z</time></trkpt><trkpt lat="40.0917476" lon="15.8151165"><ele>796.0</ele><time>2026-05-02T10:22:56.863Z</time></trkpt><trkpt lat="40.0916702" lon="15.8149895"><ele>797.5</ele><time>2026-05-02T10:22:57.864Z</time></trkpt><trkpt lat="40.0915961" lon="15.81485"><ele>799.0</ele><time>2026-05-02T10:22:58.874Z</time></trkpt><trkpt lat="40.0915479" lon="15.8146896"><ele>800.5</ele><time>2026-05-02T10:22:59.869Z</time></trkpt><trkpt lat="40.0915286" lon="15.8145183"><ele>802.0</ele><time>2026-05-02T10:23:00.87Z</time></trkpt><trkpt lat="40.0915315" lon="15.8143358"><ele>795.75</ele><time>2026-05-02T10:23:01.871Z</time></trkpt><trkpt lat="40.091555" lon="15.8141711"><ele>789.5</ele><time>2026-05-02T10:23:02.872Z</time></trkpt><trkpt lat="40.0915691" lon="15.8140059"><ele>783.25</ele><time>2026-05-02T10:23:03.865Z</time></trkpt><trkpt lat="40.0915654" lon="15.8138294"><ele>777.0</ele><time>2026-05-02T10:23:04.867Z</time></trkpt><trkpt lat="40.0915312" lon="15.8136389"><ele>776.75</ele><time>2026-05-02T10:23:05.872Z</time></trkpt><trkpt lat="40.0914745" lon="15.8134639"><ele>776.5</ele><time>2026-05-02T10:23:06.861Z</time></trkpt><trkpt lat="40.0914163" lon="15.8132981"><ele>776.25</ele><time>2026-05-02T10:23:07.868Z</time></trkpt><trkpt lat="40.0913546" lon="15.8131394"><ele>776.0</ele><time>2026-05-02T10:23:08.865Z</time></trkpt><trkpt lat="40.0912998" lon="15.812986"><ele>776.0</ele><time>2026-05-02T10:23:09.869Z</time></trkpt><trkpt lat="40.0912498" lon="15.8128344"><ele>776.0</ele><time>2026-05-02T10:23:10.858Z</time></trkpt><trkpt lat="40.0912006" lon="15.8126859"><ele>776.0</ele><time>2026-05-02T10:23:11.866Z</time></trkpt><trkpt lat="40.0911463" lon="15.8125384"><ele>776.0</ele><time>2026-05-02T10:23:12.874Z</time></trkpt><trkpt lat="40.0910903" lon="15.8123837"><ele>777.75</ele><time>2026-05-02T10:23:13.869Z</time></trkpt><trkpt lat="40.0910357" lon="15.8122211"><ele>779.5</ele><time>2026-05-02T10:23:14.874Z</time></trkpt><trkpt lat="40.0909831" lon="15.8120655"><ele>781.25</ele><time>2026-05-02T10:23:15.863Z</time></trkpt><trkpt lat="40.0909405" lon="15.8119136"><ele>783.0</ele><time>2026-05-02T10:23:16.863Z</time></trkpt><trkpt lat="40.0909105" lon="15.8117637"><ele>783.4</ele><time>2026-05-02T10:23:17.875Z</time></trkpt><trkpt lat="40.0908946" lon="15.8116183"><ele>783.8</ele><time>2026-05-02T10:23:18.874Z</time></trkpt><trkpt lat="40.0908926" lon="15.8114771"><ele>784.2</ele><time>2026-05-02T10:23:19.862Z</time></trkpt><trkpt lat="40.0908952" lon="15.8113403"><ele>784.6</ele><time>2026-05-02T10:23:20.871Z</time></trkpt><trkpt lat="40.0909148" lon="15.811217"><ele>785.0</ele><time>2026-05-02T10:23:21.864Z</time></trkpt><trkpt lat="40.0909512" lon="15.8111067"><ele>785.0</ele><time>2026-05-02T10:23:22.885Z</time></trkpt><trkpt lat="40.0910173" lon="15.8110134"><ele>785.0</ele><time>2026-05-02T10:23:23.864Z</time></trkpt><trkpt lat="40.0911019" lon="15.8109314"><ele>785.0</ele><time>2026-05-02T10:23:24.868Z</time></trkpt><trkpt lat="40.0912032" lon="15.8108513"><ele>785.0</ele><time>2026-05-02T10:23:25.875Z</time></trkpt><trkpt lat="40.0912951" lon="15.810772"><ele>785.0</ele><time>2026-05-02T10:23:26.871Z</time></trkpt><trkpt lat="40.091376" lon="15.8107056"><ele>786.1666666666667</ele><time>2026-05-02T10:23:27.878Z</time></trkpt><trkpt lat="40.0914413" lon="15.8106363"><ele>787.3333333333334</ele><time>2026-05-02T10:23:28.866Z</time></trkpt><trkpt lat="40.0914955" lon="15.8105596"><ele>788.5</ele><time>2026-05-02T10:23:29.868Z</time></trkpt><trkpt lat="40.0915297" lon="15.810476"><ele>789.6666666666667</ele><time>2026-05-02T10:23:30.873Z</time></trkpt><trkpt lat="40.0915489" lon="15.8103965"><ele>790.8333333333334</ele><time>2026-05-02T10:23:31.867Z</time></trkpt><trkpt lat="40.091578" lon="15.8102734"><ele>792.0</ele><time>2026-05-02T10:23:33.869Z</time></trkpt><trkpt lat="40.0915946" lon="15.8101908"><ele>792.0</ele><time>2026-05-02T10:23:36.88Z</time></trkpt><trkpt lat="40.0916515" lon="15.8101331"><ele>792.0</ele><time>2026-05-02T10:23:46.866Z</time></trkpt><trkpt lat="40.0917318" lon="15.8101471"><ele>792.0</ele><time>2026-05-02T10:23:49.862Z</time></trkpt><trkpt lat="40.0918022" lon="15.8101695"><ele>792.0</ele><time>2026-05-02T10:23:52.858Z</time></trkpt><trkpt lat="40.0918673" lon="15.8101838"><ele>792.0</ele><time>2026-05-02T10:23:56.869Z</time></trkpt><trkpt lat="40.0916701" lon="15.8100573"><ele>788.0</ele><time>2026-05-02T10:25:04.509Z</time></trkpt><trkpt lat="40.0935543" lon="15.8084866"><ele>792.0</ele><time>2026-05-02T10:25:52.307Z</time></trkpt><trkpt lat="40.092049" lon="15.8102252"><ele>788.5</ele><time>2026-05-02T10:25:59.19Z</time></trkpt><trkpt lat="40.0916985" lon="15.8101048"><ele>785.0</ele><time>2026-05-02T10:26:06Z</time></trkpt><trkpt lat="40.0935535" lon="15.8085266"><ele>785.0</ele><time>2026-05-02T10:27:14.055Z</time></trkpt><trkpt lat="40.0916574" lon="15.8100719"><ele>788.0</ele><time>2026-05-02T10:27:34.299Z</time></trkpt><trkpt lat="40.0934508" lon="15.8081404"><ele>785.0</ele><time>2026-05-02T10:30:37.071Z</time></trkpt><trkpt lat="40.0917299" lon="15.8101136"><ele>788.0</ele><time>2026-05-02T10:30:43.936Z</time></trkpt><trkpt lat="40.0934508" lon="15.8081404"><ele>785.0</ele><time>2026-05-02T10:35:58.619Z</time></trkpt><trkpt lat="40.09166" lon="15.8100196"><ele>785.0</ele><time>2026-05-02T10:36:42.099Z</time></trkpt><trkpt lat="40.0935501" lon="15.8085395"><ele>785.0</ele><time>2026-05-02T10:38:56.684Z</time></trkpt><trkpt lat="40.0917243" lon="15.8101092"><ele>785.0</ele><time>2026-05-02T10:39:49.714Z</time></trkpt><trkpt lat="40.091685" lon="15.8099796"><ele>785.0</ele><time>2026-05-02T10:41:58.555Z</time></trkpt><trkpt lat="40.0935726" lon="15.8082863"><ele>785.0</ele><time>2026-05-02T10:42:30.218Z</time></trkpt><trkpt lat="40.0917208" lon="15.8101204"><ele>785.0</ele><time>2026-05-02T10:42:36.948Z</time></trkpt><trkpt lat="40.0916188" lon="15.8100445"><ele>785.0</ele><time>2026-05-02T10:43:17.67Z</time></trkpt><trkpt lat="40.0917167" lon="15.8101049"><ele>785.0</ele><time>2026-05-02T10:46:33.685Z</time></trkpt><trkpt lat="40.0921935" lon="15.8102712"><ele>785.0</ele><time>2026-05-02T10:46:40.51Z</time></trkpt><trkpt lat="40.0917" lon="15.8100891"><ele>788.0</ele><time>2026-05-02T10:47:31.426Z</time></trkpt><trkpt lat="40.0935745" lon="15.8082844"><ele>785.0</ele><time>2026-05-02T10:50:29.303Z</time></trkpt><trkpt lat="40.0917879" lon="15.810086"><ele>785.0</ele><time>2026-05-02T10:50:39.203Z</time></trkpt><trkpt lat="40.091697" lon="15.8100832"><ele>785.0</ele><time>2026-05-02T10:50:53.38Z</time></trkpt><trkpt lat="40.0935695" lon="15.8082878"><ele>785.0</ele><time>2026-05-02T10:55:17.263Z</time></trkpt><trkpt lat="40.0916775" lon="15.8100858"><ele>785.0</ele><time>2026-05-02T10:55:29.06Z</time></trkpt><trkpt lat="40.0935505" lon="15.8085368"><ele>785.0</ele><time>2026-05-02T11:00:40.838Z</time></trkpt><trkpt lat="40.0917135" lon="15.8100805"><ele>785.0</ele><time>2026-05-02T11:00:47.507Z</time></trkpt><trkpt lat="40.0916147" lon="15.8100045"><ele>785.0</ele><time>2026-05-02T11:00:54.264Z</time></trkpt><trkpt lat="40.0914715" lon="15.809728"><ele>785.0</ele><time>2026-05-02T11:02:24.148Z</time></trkpt><trkpt lat="40.0934659" lon="15.8079787"><ele>786.5</ele><time>2026-05-02T11:02:30.951Z</time></trkpt><trkpt lat="40.0935745" lon="15.8082844"><ele>788.0</ele><time>2026-05-02T11:03:00.088Z</time></trkpt><trkpt lat="40.0917617" lon="15.810163"><ele>786.5</ele><time>2026-05-02T11:03:16.267Z</time></trkpt><trkpt lat="40.0917029" lon="15.8101041"><ele>785.0</ele><time>2026-05-02T11:04:24.715Z</time></trkpt><trkpt lat="40.0919319" lon="15.808066"><ele>788.0</ele><time>2026-05-02T11:04:54.174Z</time></trkpt><trkpt lat="40.0935695" lon="15.8082878"><ele>785.0</ele><time>2026-05-02T11:05:21.404Z</time></trkpt><trkpt lat="40.0917912" lon="15.8100306"><ele>785.0000000000001</ele><time>2026-05-02T11:05:58.679Z</time></trkpt><trkpt lat="40.0918454" lon="15.8101172"><ele>785.0</ele><time>2026-05-02T11:06:00.709Z</time></trkpt><trkpt lat="40.0919109" lon="15.8101799"><ele>785.0</ele><time>2026-05-02T11:06:03.684Z</time></trkpt><trkpt lat="40.0919699" lon="15.810223"><ele>785.0</ele><time>2026-05-02T11:09:24.7Z</time></trkpt><trkpt lat="40.092034" lon="15.810264"><ele>785.0000000000001</ele><time>2026-05-02T11:09:26.72Z</time></trkpt><trkpt lat="40.092149" lon="15.8102796"><ele>785.0</ele><time>2026-05-02T11:09:28.715Z</time></trkpt><trkpt lat="40.0922759" lon="15.8102353"><ele>784.5000000000001</ele><time>2026-05-02T11:09:30.71Z</time></trkpt><trkpt lat="40.0923483" lon="15.810205"><ele>784.0</ele><time>2026-05-02T11:09:31.712Z</time></trkpt><trkpt lat="40.0924266" lon="15.810171"><ele>783.5</ele><time>2026-05-02T11:09:32.716Z</time></trkpt><trkpt lat="40.0924973" lon="15.81014"><ele>783.0</ele><time>2026-05-02T11:09:33.714Z</time></trkpt><trkpt lat="40.0925616" lon="15.810123"><ele>782.5000000000001</ele><time>2026-05-02T11:09:34.72Z</time></trkpt><trkpt lat="40.0926504" lon="15.8100918"><ele>782.0</ele><time>2026-05-02T11:09:36.73Z</time></trkpt><trkpt lat="40.0927543" lon="15.8100762"><ele>781.9999999999999</ele><time>2026-05-02T11:09:38.716Z</time></trkpt><trkpt lat="40.0928188" lon="15.8100655"><ele>782.0</ele><time>2026-05-02T11:09:39.717Z</time></trkpt><trkpt lat="40.0928847" lon="15.810048"><ele>782.0</ele><time>2026-05-02T11:09:40.72Z</time></trkpt><trkpt lat="40.0929511" lon="15.8100395"><ele>782.0</ele><time>2026-05-02T11:09:41.715Z</time></trkpt><trkpt lat="40.0930174" lon="15.8100209"><ele>782.0</ele><time>2026-05-02T11:09:42.736Z</time></trkpt><trkpt lat="40.0930852" lon="15.8099774"><ele>781.9999999999999</ele><time>2026-05-02T11:09:43.725Z</time></trkpt><trkpt lat="40.0931454" lon="15.8099163"><ele>782.0</ele><time>2026-05-02T11:09:44.714Z</time></trkpt><trkpt lat="40.0932018" lon="15.8098448"><ele>782.0000000000001</ele><time>2026-05-02T11:09:45.731Z</time></trkpt><trkpt lat="40.0932522" lon="15.8097578"><ele>782.0</ele><time>2026-05-02T11:09:46.722Z</time></trkpt><trkpt lat="40.0932912" lon="15.8096616"><ele>782.0</ele><time>2026-05-02T11:09:47.714Z</time></trkpt><trkpt lat="40.0933408" lon="15.8095743"><ele>782.0</ele><time>2026-05-02T11:09:48.715Z</time></trkpt><trkpt lat="40.0933919" lon="15.8094889"><ele>782.0000000000001</ele><time>2026-05-02T11:09:49.734Z</time></trkpt><trkpt lat="40.0934433" lon="15.8094135"><ele>782.0</ele><time>2026-05-02T11:09:50.715Z</time></trkpt><trkpt lat="40.0934935" lon="15.809337"><ele>782.5000000000001</ele><time>2026-05-02T11:09:51.719Z</time></trkpt><trkpt lat="40.0935371" lon="15.8092571"><ele>783.0</ele><time>2026-05-02T11:09:52.715Z</time></trkpt><trkpt lat="40.0935792" lon="15.8091715"><ele>783.5</ele><time>2026-05-02T11:09:53.716Z</time></trkpt><trkpt lat="40.093607" lon="15.8090795"><ele>784.0</ele><time>2026-05-02T11:09:54.715Z</time></trkpt><trkpt lat="40.0936232" lon="15.8089827"><ele>784.5000000000001</ele><time>2026-05-02T11:09:55.719Z</time></trkpt><trkpt lat="40.0936239" lon="15.8088852"><ele>785.0</ele><time>2026-05-02T11:09:56.72Z</time></trkpt><trkpt lat="40.0936189" lon="15.8087932"><ele>785.0000000000001</ele><time>2026-05-02T11:09:57.726Z</time></trkpt><trkpt lat="40.0936199" lon="15.8086986"><ele>785.0</ele><time>2026-05-02T11:09:58.723Z</time></trkpt><trkpt lat="40.0936197" lon="15.8086073"><ele>785.0</ele><time>2026-05-02T11:09:59.719Z</time></trkpt><trkpt lat="40.0936142" lon="15.8084499"><ele>785.0</ele><time>2026-05-02T11:10:01.717Z</time></trkpt><trkpt lat="40.0935969" lon="15.8083607"><ele>785.0000000000001</ele><time>2026-05-02T11:10:02.725Z</time></trkpt><trkpt lat="40.0935664" lon="15.8082793"><ele>785.0</ele><time>2026-05-02T11:10:03.714Z</time></trkpt><trkpt lat="40.0935236" lon="15.8082127"><ele>784.7142857142858</ele><time>2026-05-02T11:10:04.722Z</time></trkpt><trkpt lat="40.0934756" lon="15.8081544"><ele>784.4285714285713</ele><time>2026-05-02T11:10:05.718Z</time></trkpt><trkpt lat="40.0934175" lon="15.8080945"><ele>784.1428571428571</ele><time>2026-05-02T11:10:06.716Z</time></trkpt><trkpt lat="40.0933557" lon="15.8080398"><ele>783.8571428571429</ele><time>2026-05-02T11:10:07.729Z</time></trkpt><trkpt lat="40.0932951" lon="15.8079828"><ele>783.5714285714287</ele><time>2026-05-02T11:10:08.71Z</time></trkpt><trkpt lat="40.0932447" lon="15.8079183"><ele>783.2857142857142</ele><time>2026-05-02T11:10:09.724Z</time></trkpt><trkpt lat="40.0932083" lon="15.8078492"><ele>783.0</ele><time>2026-05-02T11:10:10.725Z</time></trkpt><trkpt lat="40.093189" lon="15.8077704"><ele>783.6666666666666</ele><time>2026-05-02T11:10:11.717Z</time></trkpt><trkpt lat="40.0931878" lon="15.8075966"><ele>784.3333333333333</ele><time>2026-05-02T11:10:13.722Z</time></trkpt><trkpt lat="40.0931967" lon="15.8074983"><ele>785.0</ele><time>2026-05-02T11:10:14.724Z</time></trkpt><trkpt lat="40.093192" lon="15.8074003"><ele>785.6666666666666</ele><time>2026-05-02T11:10:15.72Z</time></trkpt><trkpt lat="40.0931652" lon="15.8073045"><ele>786.3333333333333</ele><time>2026-05-02T11:10:16.734Z</time></trkpt><trkpt lat="40.0931227" lon="15.8072103"><ele>787.0</ele><time>2026-05-02T11:10:17.723Z</time></trkpt><trkpt lat="40.0930698" lon="15.8071321"><ele>787.0</ele><time>2026-05-02T11:10:18.728Z</time></trkpt><trkpt lat="40.0930219" lon="15.8070512"><ele>787.0</ele><time>2026-05-02T11:10:19.759Z</time></trkpt><trkpt lat="40.0929843" lon="15.8069693"><ele>787.0</ele><time>2026-05-02T11:10:20.728Z</time></trkpt><trkpt lat="40.0929519" lon="15.806888"><ele>787.0</ele><time>2026-05-02T11:10:21.728Z</time></trkpt><trkpt lat="40.0929279" lon="15.8067985"><ele>787.0</ele><time>2026-05-02T11:10:22.724Z</time></trkpt><trkpt lat="40.0929151" lon="15.8067084"><ele>787.0</ele><time>2026-05-02T11:10:23.737Z</time></trkpt><trkpt lat="40.0929144" lon="15.8066109"><ele>787.0</ele><time>2026-05-02T11:10:24.725Z</time></trkpt><trkpt lat="40.0929081" lon="15.806519"><ele>787.1428571428571</ele><time>2026-05-02T11:10:25.717Z</time></trkpt><trkpt lat="40.0928901" lon="15.8064367"><ele>787.2857142857142</ele><time>2026-05-02T11:10:26.73Z</time></trkpt><trkpt lat="40.0928502" lon="15.8063725"><ele>787.4285714285714</ele><time>2026-05-02T11:10:27.73Z</time></trkpt><trkpt lat="40.0927876" lon="15.806328"><ele>787.5714285714286</ele><time>2026-05-02T11:10:28.726Z</time></trkpt><trkpt lat="40.0927172" lon="15.8062968"><ele>787.7142857142858</ele><time>2026-05-02T11:10:29.727Z</time></trkpt><trkpt lat="40.0926567" lon="15.8062615"><ele>787.8571428571429</ele><time>2026-05-02T11:10:30.722Z</time></trkpt><trkpt lat="40.0925912" lon="15.8062349"><ele>788.0</ele><time>2026-05-02T11:10:32.721Z</time></trkpt><trkpt lat="40.0925044" lon="15.8062545"><ele>788.0000000000001</ele><time>2026-05-02T11:10:34.723Z</time></trkpt><trkpt lat="40.0924415" lon="15.8062779"><ele>788.0</ele><time>2026-05-02T11:10:35.722Z</time></trkpt><trkpt lat="40.0923781" lon="15.806323"><ele>788.0</ele><time>2026-05-02T11:10:36.731Z</time></trkpt><trkpt lat="40.0923223" lon="15.8063822"><ele>788.0</ele><time>2026-05-02T11:10:37.721Z</time></trkpt><trkpt lat="40.0922792" lon="15.8064513"><ele>788.0000000000001</ele><time>2026-05-02T11:10:38.717Z</time></trkpt><trkpt lat="40.0922347" lon="15.8065993"><ele>788.0</ele><time>2026-05-02T11:10:40.716Z</time></trkpt><trkpt lat="40.0922223" lon="15.8066867"><ele>788.5999999999999</ele><time>2026-05-02T11:10:41.726Z</time></trkpt><trkpt lat="40.0922101" lon="15.8067685"><ele>789.1999999999999</ele><time>2026-05-02T11:10:42.718Z</time></trkpt><trkpt lat="40.0921992" lon="15.806923"><ele>789.8</ele><time>2026-05-02T11:10:44.723Z</time></trkpt><trkpt lat="40.0922063" lon="15.8070087"><ele>790.4</ele><time>2026-05-02T11:10:45.73Z</time></trkpt><trkpt lat="40.0922221" lon="15.8071659"><ele>791.0</ele><time>2026-05-02T11:10:47.727Z</time></trkpt><trkpt lat="40.0922054" lon="15.8073149"><ele>791.0000000000001</ele><time>2026-05-02T11:10:49.732Z</time></trkpt><trkpt lat="40.0921958" lon="15.807398"><ele>791.0</ele><time>2026-05-02T11:10:50.715Z</time></trkpt><trkpt lat="40.0921433" lon="15.8075416"><ele>791.0</ele><time>2026-05-02T11:10:52.722Z</time></trkpt><trkpt lat="40.0920949" lon="15.8076011"><ele>791.0</ele><time>2026-05-02T11:10:53.731Z</time></trkpt><trkpt lat="40.0920413" lon="15.8076604"><ele>791.0000000000001</ele><time>2026-05-02T11:10:54.715Z</time></trkpt><trkpt lat="40.0919398" lon="15.8077487"><ele>791.0</ele><time>2026-05-02T11:10:56.722Z</time></trkpt><trkpt lat="40.0918714" lon="15.807781"><ele>791.1666666666667</ele><time>2026-05-02T11:10:57.726Z</time></trkpt><trkpt lat="40.0917898" lon="15.8078139"><ele>791.3333333333334</ele><time>2026-05-02T11:10:58.718Z</time></trkpt><trkpt lat="40.0917147" lon="15.8078538"><ele>791.5</ele><time>2026-05-02T11:10:59.728Z</time></trkpt><trkpt lat="40.091641" lon="15.8079088"><ele>791.6666666666667</ele><time>2026-05-02T11:11:00.719Z</time></trkpt><trkpt lat="40.0915752" lon="15.8079682"><ele>791.8333333333334</ele><time>2026-05-02T11:11:01.716Z</time></trkpt><trkpt lat="40.0915091" lon="15.8080339"><ele>792.0</ele><time>2026-05-02T11:11:02.72Z</time></trkpt><trkpt lat="40.0914503" lon="15.8081084"><ele>792.8</ele><time>2026-05-02T11:11:03.732Z</time></trkpt><trkpt lat="40.0913986" lon="15.8081953"><ele>793.6</ele><time>2026-05-02T11:11:04.72Z</time></trkpt><trkpt lat="40.0913512" lon="15.8082989"><ele>794.4</ele><time>2026-05-02T11:11:05.711Z</time></trkpt><trkpt lat="40.0913037" lon="15.8084134"><ele>795.1999999999999</ele><time>2026-05-02T11:11:06.719Z</time></trkpt><trkpt lat="40.0912646" lon="15.808539"><ele>796.0</ele><time>2026-05-02T11:11:07.719Z</time></trkpt><trkpt lat="40.0912273" lon="15.8086677"><ele>796.0</ele><time>2026-05-02T11:11:08.73Z</time></trkpt><trkpt lat="40.0912014" lon="15.8088003"><ele>796.0</ele><time>2026-05-02T11:11:09.719Z</time></trkpt><trkpt lat="40.0911927" lon="15.8089362"><ele>796.0</ele><time>2026-05-02T11:11:10.74Z</time></trkpt><trkpt lat="40.0911975" lon="15.8090703"><ele>796.0</ele><time>2026-05-02T11:11:11.727Z</time></trkpt><trkpt lat="40.0912031" lon="15.8091853"><ele>796.0</ele><time>2026-05-02T11:11:12.739Z</time></trkpt><trkpt lat="40.0912045" lon="15.8092791"><ele>793.4999999999999</ele><time>2026-05-02T11:11:13.726Z</time></trkpt><trkpt lat="40.0912202" lon="15.8093648"><ele>791.0</ele><time>2026-05-02T11:11:14.723Z</time></trkpt><trkpt lat="40.0912508" lon="15.8094525"><ele>788.5</ele><time>2026-05-02T11:11:15.715Z</time></trkpt><trkpt lat="40.0912827" lon="15.8095432"><ele>786.0</ele><time>2026-05-02T11:11:16.72Z</time></trkpt><trkpt lat="40.0913156" lon="15.8096465"><ele>783.4999999999999</ele><time>2026-05-02T11:11:17.719Z</time></trkpt><trkpt lat="40.0913574" lon="15.8097513"><ele>781.0</ele><time>2026-05-02T11:11:18.721Z</time></trkpt><trkpt lat="40.0914043" lon="15.8098634"><ele>781.0</ele><time>2026-05-02T11:11:19.721Z</time></trkpt><trkpt lat="40.0914463" lon="15.8099739"><ele>781.0</ele><time>2026-05-02T11:11:20.727Z</time></trkpt><trkpt lat="40.0914833" lon="15.8100895"><ele>781.0</ele><time>2026-05-02T11:11:21.715Z</time></trkpt><trkpt lat="40.0915173" lon="15.8102012"><ele>781.0</ele><time>2026-05-02T11:11:22.728Z</time></trkpt><trkpt lat="40.0915303" lon="15.810311"><ele>781.0</ele><time>2026-05-02T11:11:23.728Z</time></trkpt><trkpt lat="40.0915187" lon="15.8104208"><ele>780.1999999999999</ele><time>2026-05-02T11:11:24.72Z</time></trkpt><trkpt lat="40.0914717" lon="15.8105286"><ele>779.4</ele><time>2026-05-02T11:11:25.723Z</time></trkpt><trkpt lat="40.0914087" lon="15.8106244"><ele>778.6</ele><time>2026-05-02T11:11:26.715Z</time></trkpt><trkpt lat="40.0913311" lon="15.8107025"><ele>777.8</ele><time>2026-05-02T11:11:27.72Z</time></trkpt><trkpt lat="40.0912457" lon="15.8107704"><ele>777.0</ele><time>2026-05-02T11:11:28.713Z</time></trkpt><trkpt lat="40.0911581" lon="15.8108371"><ele>777.0</ele><time>2026-05-02T11:11:29.713Z</time></trkpt><trkpt lat="40.0910742" lon="15.8109127"><ele>777.0</ele><time>2026-05-02T11:11:30.735Z</time></trkpt><trkpt lat="40.0909927" lon="15.8109929"><ele>777.0</ele><time>2026-05-02T11:11:31.723Z</time></trkpt><trkpt lat="40.0909255" lon="15.811082"><ele>777.0</ele><time>2026-05-02T11:11:32.72Z</time></trkpt><trkpt lat="40.0908828" lon="15.8111896"><ele>777.0</ele><time>2026-05-02T11:11:33.727Z</time></trkpt><trkpt lat="40.090855" lon="15.8113158"><ele>778.5</ele><time>2026-05-02T11:11:34.719Z</time></trkpt><trkpt lat="40.0908598" lon="15.8114682"><ele>780.0</ele><time>2026-05-02T11:11:35.717Z</time></trkpt><trkpt lat="40.0908702" lon="15.8116251"><ele>781.5</ele><time>2026-05-02T11:11:36.713Z</time></trkpt><trkpt lat="40.090886" lon="15.8117889"><ele>783.0</ele><time>2026-05-02T11:11:37.716Z</time></trkpt><trkpt lat="40.0909239" lon="15.8119532"><ele>783.0</ele><time>2026-05-02T11:11:38.725Z</time></trkpt><trkpt lat="40.0909727" lon="15.8121082"><ele>783.0</ele><time>2026-05-02T11:11:39.715Z</time></trkpt><trkpt lat="40.0910281" lon="15.812268"><ele>783.0</ele><time>2026-05-02T11:11:40.729Z</time></trkpt><trkpt lat="40.0910818" lon="15.8124322"><ele>783.0</ele><time>2026-05-02T11:11:41.727Z</time></trkpt><trkpt lat="40.0911387" lon="15.8125987"><ele>781.25</ele><time>2026-05-02T11:11:42.723Z</time></trkpt><trkpt lat="40.0911965" lon="15.8127613"><ele>779.5</ele><time>2026-05-02T11:11:43.73Z</time></trkpt><trkpt lat="40.0912561" lon="15.8129248"><ele>777.75</ele><time>2026-05-02T11:11:44.722Z</time></trkpt><trkpt lat="40.0913182" lon="15.8130893"><ele>776.0</ele><time>2026-05-02T11:11:45.738Z</time></trkpt><trkpt lat="40.0913754" lon="15.8132603"><ele>776.0</ele><time>2026-05-02T11:11:46.724Z</time></trkpt><trkpt lat="40.0914316" lon="15.8134301"><ele>776.0</ele><time>2026-05-02T11:11:47.724Z</time></trkpt><trkpt lat="40.0914838" lon="15.8135933"><ele>776.0</ele><time>2026-05-02T11:11:48.739Z</time></trkpt><trkpt lat="40.0915163" lon="15.8137449"><ele>776.0</ele><time>2026-05-02T11:11:49.727Z</time></trkpt><trkpt lat="40.0915352" lon="15.8139065"><ele>776.25</ele><time>2026-05-02T11:11:50.727Z</time></trkpt><trkpt lat="40.0915394" lon="15.8140712"><ele>776.5</ele><time>2026-05-02T11:11:51.724Z</time></trkpt><trkpt lat="40.0915203" lon="15.8142469"><ele>776.75</ele><time>2026-05-02T11:11:52.737Z</time></trkpt><trkpt lat="40.091498" lon="15.8144146"><ele>777.0</ele><time>2026-05-02T11:11:53.722Z</time></trkpt><trkpt lat="40.0914985" lon="15.8145762"><ele>778.0</ele><time>2026-05-02T11:11:54.731Z</time></trkpt><trkpt lat="40.0915294" lon="15.8147301"><ele>779.0</ele><time>2026-05-02T11:11:55.725Z</time></trkpt><trkpt lat="40.0915876" lon="15.8148852"><ele>780.0</ele><time>2026-05-02T11:11:56.716Z</time></trkpt><trkpt lat="40.0916668" lon="15.8150348"><ele>781.0</ele><time>2026-05-02T11:11:57.728Z</time></trkpt><trkpt lat="40.0917504" lon="15.8151596"><ele>784.0</ele><time>2026-05-02T11:11:58.723Z</time></trkpt><trkpt lat="40.0918268" lon="15.8152759"><ele>787.0</ele><time>2026-05-02T11:11:59.726Z</time></trkpt><trkpt lat="40.0918823" lon="15.815382"><ele>790.0</ele><time>2026-05-02T11:12:00.722Z</time></trkpt><trkpt lat="40.0919098" lon="15.815492"><ele>793.0</ele><time>2026-05-02T11:12:01.711Z</time></trkpt><trkpt lat="40.0919142" lon="15.815606"><ele>796.0</ele><time>2026-05-02T11:12:02.697Z</time></trkpt><trkpt lat="40.0919009" lon="15.8157258"><ele>796.0</ele><time>2026-05-02T11:12:03.718Z</time></trkpt><trkpt lat="40.0918696" lon="15.815859"><ele>796.0</ele><time>2026-05-02T11:12:04.715Z</time></trkpt><trkpt lat="40.0918369" lon="15.8160008"><ele>796.0</ele><time>2026-05-02T11:12:05.723Z</time></trkpt><trkpt lat="40.0918059" lon="15.8161552"><ele>796.0</ele><time>2026-05-02T11:12:06.706Z</time></trkpt><trkpt lat="40.0917759" lon="15.8163115"><ele>796.75</ele><time>2026-05-02T11:12:07.729Z</time></trkpt><trkpt lat="40.0917413" lon="15.8164805"><ele>797.5</ele><time>2026-05-02T11:12:08.731Z</time></trkpt><trkpt lat="40.0917151" lon="15.8166561"><ele>798.25</ele><time>2026-05-02T11:12:09.718Z</time></trkpt><trkpt lat="40.0916769" lon="15.8168369"><ele>799.0</ele><time>2026-05-02T11:12:10.707Z</time></trkpt><trkpt lat="40.0916389" lon="15.8170291"><ele>800.5</ele><time>2026-05-02T11:12:11.722Z</time></trkpt><trkpt lat="40.091598" lon="15.8172135"><ele>802.0</ele><time>2026-05-02T11:12:12.721Z</time></trkpt><trkpt lat="40.0915554" lon="15.817401"><ele>803.5</ele><time>2026-05-02T11:12:13.72Z</time></trkpt><trkpt lat="40.0915127" lon="15.8175912"><ele>805.0</ele><time>2026-05-02T11:12:14.733Z</time></trkpt><trkpt lat="40.0914718" lon="15.817777"><ele>801.0</ele><time>2026-05-02T11:12:15.736Z</time></trkpt><trkpt lat="40.0914337" lon="15.8179527"><ele>797.0</ele><time>2026-05-02T11:12:16.715Z</time></trkpt><trkpt lat="40.0913949" lon="15.8181268"><ele>793.0</ele><time>2026-05-02T11:12:17.719Z</time></trkpt><trkpt lat="40.091358" lon="15.8182982"><ele>789.0</ele><time>2026-05-02T11:12:18.707Z</time></trkpt><trkpt lat="40.0913214" lon="15.8184714"><ele>790.0</ele><time>2026-05-02T11:12:19.703Z</time></trkpt><trkpt lat="40.091291" lon="15.8186303"><ele>791.0</ele><time>2026-05-02T11:12:20.698Z</time></trkpt><trkpt lat="40.0912607" lon="15.8187713"><ele>792.0</ele><time>2026-05-02T11:12:21.718Z</time></trkpt><trkpt lat="40.0912366" lon="15.8189058"><ele>793.0</ele><time>2026-05-02T11:12:22.722Z</time></trkpt><trkpt lat="40.0912095" lon="15.8190455"><ele>793.0</ele><time>2026-05-02T11:12:23.72Z</time></trkpt><trkpt lat="40.0911824" lon="15.8191871"><ele>793.0</ele><time>2026-05-02T11:12:24.73Z</time></trkpt><trkpt lat="40.0911606" lon="15.8193264"><ele>793.0</ele><time>2026-05-02T11:12:25.718Z</time></trkpt><trkpt lat="40.0911496" lon="15.8194684"><ele>793.0</ele><time>2026-05-02T11:12:26.712Z</time></trkpt><trkpt lat="40.0911469" lon="15.8196186"><ele>793.0</ele><time>2026-05-02T11:12:27.712Z</time></trkpt><trkpt lat="40.0911452" lon="15.81976"><ele>793.4</ele><time>2026-05-02T11:12:28.715Z</time></trkpt><trkpt lat="40.0911405" lon="15.8198822"><ele>793.8</ele><time>2026-05-02T11:12:29.72Z</time></trkpt><trkpt lat="40.0911209" lon="15.8200044"><ele>794.2</ele><time>2026-05-02T11:12:30.727Z</time></trkpt><trkpt lat="40.0910875" lon="15.8201295"><ele>794.6</ele><time>2026-05-02T11:12:31.717Z</time></trkpt><trkpt lat="40.0910287" lon="15.8202475"><ele>795.0</ele><time>2026-05-02T11:12:32.712Z</time></trkpt><trkpt lat="40.0909535" lon="15.8203632"><ele>795.0</ele><time>2026-05-02T11:12:33.73Z</time></trkpt><trkpt lat="40.0908715" lon="15.8204926"><ele>795.0</ele><time>2026-05-02T11:12:34.721Z</time></trkpt><trkpt lat="40.0907942" lon="15.8206186"><ele>795.0</ele><time>2026-05-02T11:12:35.712Z</time></trkpt><trkpt lat="40.0907281" lon="15.820723"><ele>795.0</ele><time>2026-05-02T11:12:36.716Z</time></trkpt><trkpt lat="40.0906763" lon="15.8208046"><ele>795.0</ele><time>2026-05-02T11:12:37.713Z</time></trkpt><trkpt lat="40.0906256" lon="15.8208762"><ele>795.0</ele><time>2026-05-02T11:12:38.709Z</time></trkpt><trkpt lat="40.0905817" lon="15.8209473"><ele>795.0</ele><time>2026-05-02T11:12:39.72Z</time></trkpt><trkpt lat="40.0905276" lon="15.8210299"><ele>795.0</ele><time>2026-05-02T11:12:40.71Z</time></trkpt><trkpt lat="40.0904556" lon="15.821125"><ele>795.0</ele><time>2026-05-02T11:12:41.729Z</time></trkpt><trkpt lat="40.0903618" lon="15.8212052"><ele>795.0</ele><time>2026-05-02T11:12:42.72Z</time></trkpt><trkpt lat="40.090249" lon="15.8212553"><ele>797.0</ele><time>2026-05-02T11:12:43.715Z</time></trkpt><trkpt lat="40.0901284" lon="15.8212933"><ele>799.0</ele><time>2026-05-02T11:12:44.724Z</time></trkpt><trkpt lat="40.0900105" lon="15.8213237"><ele>801.0</ele><time>2026-05-02T11:12:45.713Z</time></trkpt><trkpt lat="40.089904" lon="15.8213694"><ele>803.0</ele><time>2026-05-02T11:12:46.719Z</time></trkpt><trkpt lat="40.0898106" lon="15.8214402"><ele>798.25</ele><time>2026-05-02T11:12:47.722Z</time></trkpt><trkpt lat="40.0897285" lon="15.8215562"><ele>793.5</ele><time>2026-05-02T11:12:48.716Z</time></trkpt><trkpt lat="40.0896691" lon="15.8217155"><ele>788.75</ele><time>2026-05-02T11:12:49.728Z</time></trkpt><trkpt lat="40.0896304" lon="15.8218877"><ele>784.0</ele><time>2026-05-02T11:12:50.715Z</time></trkpt><trkpt lat="40.0895934" lon="15.8220761"><ele>784.0</ele><time>2026-05-02T11:12:51.718Z</time></trkpt><trkpt lat="40.0895501" lon="15.8222785"><ele>784.0</ele><time>2026-05-02T11:12:52.706Z</time></trkpt><trkpt lat="40.0894861" lon="15.8224712"><ele>784.0</ele><time>2026-05-02T11:12:53.722Z</time></trkpt><trkpt lat="40.0894182" lon="15.8226559"><ele>785.25</ele><time>2026-05-02T11:12:54.729Z</time></trkpt><trkpt lat="40.0893592" lon="15.8228376"><ele>786.5</ele><time>2026-05-02T11:12:55.728Z</time></trkpt><trkpt lat="40.0893056" lon="15.8230214"><ele>787.75</ele><time>2026-05-02T11:12:56.72Z</time></trkpt><trkpt lat="40.0892622" lon="15.8232061"><ele>789.0</ele><time>2026-05-02T11:12:57.726Z</time></trkpt><trkpt lat="40.0892293" lon="15.8233903"><ele>788.75</ele><time>2026-05-02T11:12:58.723Z</time></trkpt><trkpt lat="40.0892061" lon="15.8235636"><ele>788.5</ele><time>2026-05-02T11:12:59.731Z</time></trkpt><trkpt lat="40.089196" lon="15.8237144"><ele>788.25</ele><time>2026-05-02T11:13:00.732Z</time></trkpt><trkpt lat="40.0892147" lon="15.8238655"><ele>788.0</ele><time>2026-05-02T11:13:01.712Z</time></trkpt><trkpt lat="40.0892657" lon="15.8240069"><ele>788.0</ele><time>2026-05-02T11:13:02.719Z</time></trkpt><trkpt lat="40.0893263" lon="15.8241245"><ele>788.0</ele><time>2026-05-02T11:13:03.723Z</time></trkpt><trkpt lat="40.0893884" lon="15.8242231"><ele>788.0</ele><time>2026-05-02T11:13:04.717Z</time></trkpt><trkpt lat="40.0894242" lon="15.8243252"><ele>788.0</ele><time>2026-05-02T11:13:05.729Z</time></trkpt><trkpt lat="40.0894221" lon="15.8244372"><ele>788.0</ele><time>2026-05-02T11:13:06.716Z</time></trkpt><trkpt lat="40.0894035" lon="15.8245522"><ele>790.0</ele><time>2026-05-02T11:13:07.705Z</time></trkpt><trkpt lat="40.0893478" lon="15.8246578"><ele>792.0</ele><time>2026-05-02T11:13:08.718Z</time></trkpt><trkpt lat="40.0892562" lon="15.824749"><ele>794.0</ele><time>2026-05-02T11:13:09.725Z</time></trkpt><trkpt lat="40.0891511" lon="15.8248262"><ele>796.0</ele><time>2026-05-02T11:13:10.726Z</time></trkpt><trkpt lat="40.0890382" lon="15.8249008"><ele>797.0</ele><time>2026-05-02T11:13:11.73Z</time></trkpt><trkpt lat="40.0889329" lon="15.8249686"><ele>798.0</ele><time>2026-05-02T11:13:12.715Z</time></trkpt><trkpt lat="40.0888378" lon="15.8250064"><ele>799.0</ele><time>2026-05-02T11:13:13.719Z</time></trkpt><trkpt lat="40.0887521" lon="15.8249902"><ele>800.0</ele><time>2026-05-02T11:13:14.709Z</time></trkpt><trkpt lat="40.0886678" lon="15.8249277"><ele>801.0</ele><time>2026-05-02T11:13:15.704Z</time></trkpt><trkpt lat="40.0886062" lon="15.8248331"><ele>801.0</ele><time>2026-05-02T11:13:16.71Z</time></trkpt><trkpt lat="40.0885807" lon="15.8247021"><ele>801.0</ele><time>2026-05-02T11:13:17.722Z</time></trkpt><trkpt lat="40.0885608" lon="15.824547"><ele>801.0</ele><time>2026-05-02T11:13:18.704Z</time></trkpt><trkpt lat="40.088521" lon="15.8243835"><ele>801.0</ele><time>2026-05-02T11:13:19.718Z</time></trkpt><trkpt lat="40.0884676" lon="15.8242191"><ele>798.4</ele><time>2026-05-02T11:13:20.713Z</time></trkpt><trkpt lat="40.0884012" lon="15.8240717"><ele>795.8</ele><time>2026-05-02T11:13:21.718Z</time></trkpt><trkpt lat="40.088329" lon="15.8239524"><ele>793.1999999999999</ele><time>2026-05-02T11:13:22.719Z</time></trkpt><trkpt lat="40.0882518" lon="15.8238911"><ele>790.5999999999999</ele><time>2026-05-02T11:13:23.725Z</time></trkpt><trkpt lat="40.0881621" lon="15.8238696"><ele>788.0</ele><time>2026-05-02T11:13:24.703Z</time></trkpt><trkpt lat="40.088069" lon="15.8238947"><ele>786.5</ele><time>2026-05-02T11:13:25.725Z</time></trkpt><trkpt lat="40.0879693" lon="15.8239611"><ele>785.0</ele><time>2026-05-02T11:13:26.71Z</time></trkpt><trkpt lat="40.0878766" lon="15.8240592"><ele>783.5</ele><time>2026-05-02T11:13:27.716Z</time></trkpt><trkpt lat="40.0877927" lon="15.8241777"><ele>782.0</ele><time>2026-05-02T11:13:28.708Z</time></trkpt><trkpt lat="40.0877193" lon="15.8243064"><ele>782.5</ele><time>2026-05-02T11:13:29.722Z</time></trkpt><trkpt lat="40.0876315" lon="15.8244198"><ele>783.0</ele><time>2026-05-02T11:13:30.727Z</time></trkpt><trkpt lat="40.0875279" lon="15.8245218"><ele>783.5</ele><time>2026-05-02T11:13:31.716Z</time></trkpt><trkpt lat="40.0874095" lon="15.8245997"><ele>784.0</ele><time>2026-05-02T11:13:32.728Z</time></trkpt><trkpt lat="40.087298" lon="15.8246571"><ele>784.0</ele><time>2026-05-02T11:13:33.724Z</time></trkpt><trkpt lat="40.0871865" lon="15.824704"><ele>784.0</ele><time>2026-05-02T11:13:34.71Z</time></trkpt><trkpt lat="40.087082" lon="15.824782"><ele>784.0</ele><time>2026-05-02T11:13:35.717Z</time></trkpt><trkpt lat="40.0870069" lon="15.8249079"><ele>784.0</ele><time>2026-05-02T11:13:36.721Z</time></trkpt><trkpt lat="40.086953" lon="15.8250707"><ele>787.3333333333333</ele><time>2026-05-02T11:13:37.719Z</time></trkpt><trkpt lat="40.0869044" lon="15.8252515"><ele>790.6666666666667</ele><time>2026-05-02T11:13:38.719Z</time></trkpt><trkpt lat="40.086869" lon="15.825442"><ele>794.0</ele><time>2026-05-02T11:13:39.716Z</time></trkpt><trkpt lat="40.0868331" lon="15.8256416"><ele>794.0</ele><time>2026-05-02T11:13:40.717Z</time></trkpt><trkpt lat="40.0868076" lon="15.8258487"><ele>794.0</ele><time>2026-05-02T11:13:41.726Z</time></trkpt><trkpt lat="40.0867762" lon="15.8260598"><ele>794.0</ele><time>2026-05-02T11:13:42.725Z</time></trkpt><trkpt lat="40.0867453" lon="15.8262725"><ele>793.6666666666667</ele><time>2026-05-02T11:13:43.718Z</time></trkpt><trkpt lat="40.0867154" lon="15.8264787"><ele>793.3333333333333</ele><time>2026-05-02T11:13:44.725Z</time></trkpt><trkpt lat="40.0867021" lon="15.826687"><ele>793.0</ele><time>2026-05-02T11:13:45.723Z</time></trkpt><trkpt lat="40.0867077" lon="15.8268931"><ele>792.75</ele><time>2026-05-02T11:13:46.725Z</time></trkpt><trkpt lat="40.0867248" lon="15.8270942"><ele>792.5</ele><time>2026-05-02T11:13:47.745Z</time></trkpt><trkpt lat="40.0867421" lon="15.8272767"><ele>792.25</ele><time>2026-05-02T11:13:48.73Z</time></trkpt><trkpt lat="40.0867583" lon="15.8274411"><ele>792.0</ele><time>2026-05-02T11:13:49.729Z</time></trkpt><trkpt lat="40.0867691" lon="15.8275835"><ele>793.0</ele><time>2026-05-02T11:13:50.731Z</time></trkpt><trkpt lat="40.0867694" lon="15.827719"><ele>794.0</ele><time>2026-05-02T11:13:51.733Z</time></trkpt><trkpt lat="40.0867355" lon="15.827848"><ele>795.0</ele><time>2026-05-02T11:13:52.722Z</time></trkpt><trkpt lat="40.0866699" lon="15.8279609"><ele>796.0</ele><time>2026-05-02T11:13:53.713Z</time></trkpt><trkpt lat="40.0865866" lon="15.8280573"><ele>797.0</ele><time>2026-05-02T11:13:54.714Z</time></trkpt><trkpt lat="40.08651" lon="15.8281802"><ele>797.0</ele><time>2026-05-02T11:13:55.719Z</time></trkpt><trkpt lat="40.0864452" lon="15.8283205"><ele>797.0</ele><time>2026-05-02T11:13:56.722Z</time></trkpt><trkpt lat="40.086401" lon="15.8284709"><ele>797.0</ele><time>2026-05-02T11:13:57.729Z</time></trkpt><trkpt lat="40.0863799" lon="15.8286428"><ele>797.0</ele><time>2026-05-02T11:13:58.717Z</time></trkpt><trkpt lat="40.0863904" lon="15.8288101"><ele>797.0</ele><time>2026-05-02T11:13:59.725Z</time></trkpt><trkpt lat="40.086431" lon="15.8289814"><ele>797.0</ele><time>2026-05-02T11:14:00.717Z</time></trkpt><trkpt lat="40.0864986" lon="15.8291465"><ele>797.0</ele><time>2026-05-02T11:14:01.724Z</time></trkpt><trkpt lat="40.0865788" lon="15.8293096"><ele>797.0</ele><time>2026-05-02T11:14:02.728Z</time></trkpt><trkpt lat="40.0866452" lon="15.8294543"><ele>798.3333333333334</ele><time>2026-05-02T11:14:03.721Z</time></trkpt><trkpt lat="40.0866935" lon="15.8295687"><ele>799.6666666666667</ele><time>2026-05-02T11:14:04.727Z</time></trkpt><trkpt lat="40.086732" lon="15.8296805"><ele>801.0</ele><time>2026-05-02T11:14:05.704Z</time></trkpt><trkpt lat="40.0867329" lon="15.8297874"><ele>802.3333333333333</ele><time>2026-05-02T11:14:06.727Z</time></trkpt><trkpt lat="40.0867137" lon="15.8298855"><ele>803.6666666666666</ele><time>2026-05-02T11:14:07.704Z</time></trkpt><trkpt lat="40.0866622" lon="15.829955"><ele>805.0</ele><time>2026-05-02T11:14:08.715Z</time></trkpt><trkpt lat="40.0865958" lon="15.829999"><ele>807.0</ele><time>2026-05-02T11:14:09.72Z</time></trkpt><trkpt lat="40.0865087" lon="15.8300088"><ele>809.0</ele><time>2026-05-02T11:14:10.717Z</time></trkpt><trkpt lat="40.0864147" lon="15.8299642"><ele>811.0</ele><time>2026-05-02T11:14:11.722Z</time></trkpt><trkpt lat="40.0863341" lon="15.8298847"><ele>813.0</ele><time>2026-05-02T11:14:12.717Z</time></trkpt><trkpt lat="40.0862524" lon="15.8297774"><ele>815.0</ele><time>2026-05-02T11:14:13.73Z</time></trkpt><trkpt lat="40.0861609" lon="15.8296598"><ele>815.0</ele><time>2026-05-02T11:14:14.706Z</time></trkpt><trkpt lat="40.0860652" lon="15.829543"><ele>815.0</ele><time>2026-05-02T11:14:15.725Z</time></trkpt><trkpt lat="40.0859623" lon="15.8294147"><ele>815.0</ele><time>2026-05-02T11:14:16.706Z</time></trkpt><trkpt lat="40.085869" lon="15.8292842"><ele>815.0</ele><time>2026-05-02T11:14:17.721Z</time></trkpt><trkpt lat="40.0857783" lon="15.8291528"><ele>811.75</ele><time>2026-05-02T11:14:18.722Z</time></trkpt><trkpt lat="40.0857074" lon="15.8290053"><ele>808.5</ele><time>2026-05-02T11:14:19.707Z</time></trkpt><trkpt lat="40.0856512" lon="15.8288439"><ele>805.25</ele><time>2026-05-02T11:14:20.709Z</time></trkpt><trkpt lat="40.0856028" lon="15.8286951"><ele>802.0</ele><time>2026-05-02T11:14:21.717Z</time></trkpt><trkpt lat="40.0855429" lon="15.8285715"><ele>802.0</ele><time>2026-05-02T11:14:22.718Z</time></trkpt><trkpt lat="40.0854713" lon="15.8284849"><ele>802.0</ele><time>2026-05-02T11:14:23.714Z</time></trkpt><trkpt lat="40.0853943" lon="15.8284402"><ele>802.0</ele><time>2026-05-02T11:14:24.718Z</time></trkpt><trkpt lat="40.0853129" lon="15.8284333"><ele>802.0</ele><time>2026-05-02T11:14:25.731Z</time></trkpt><trkpt lat="40.0852188" lon="15.8284852"><ele>802.0</ele><time>2026-05-02T11:14:26.715Z</time></trkpt><trkpt lat="40.0851341" lon="15.8285709"><ele>802.0</ele><time>2026-05-02T11:14:27.714Z</time></trkpt><trkpt lat="40.0850489" lon="15.8286765"><ele>802.0</ele><time>2026-05-02T11:14:28.715Z</time></trkpt><trkpt lat="40.0849643" lon="15.8287962"><ele>802.0</ele><time>2026-05-02T11:14:29.721Z</time></trkpt><trkpt lat="40.0848658" lon="15.8289133"><ele>802.0</ele><time>2026-05-02T11:14:30.722Z</time></trkpt><trkpt lat="40.08475" lon="15.8290197"><ele>798.25</ele><time>2026-05-02T11:14:31.722Z</time></trkpt><trkpt lat="40.0846137" lon="15.8291065"><ele>794.5</ele><time>2026-05-02T11:14:32.717Z</time></trkpt><trkpt lat="40.0844776" lon="15.8291784"><ele>790.75</ele><time>2026-05-02T11:14:33.727Z</time></trkpt><trkpt lat="40.0843471" lon="15.8292174"><ele>787.0</ele><time>2026-05-02T11:14:34.711Z</time></trkpt><trkpt lat="40.0842248" lon="15.8292308"><ele>787.0</ele><time>2026-05-02T11:14:35.708Z</time></trkpt><trkpt lat="40.0841129" lon="15.8292307"><ele>787.0</ele><time>2026-05-02T11:14:36.708Z</time></trkpt><trkpt lat="40.084019" lon="15.8292305"><ele>787.0</ele><time>2026-05-02T11:14:37.725Z</time></trkpt><trkpt lat="40.0839351" lon="15.8292523"><ele>787.0</ele><time>2026-05-02T11:14:38.718Z</time></trkpt><trkpt lat="40.0838658" lon="15.8293202"><ele>787.0</ele><time>2026-05-02T11:14:39.729Z</time></trkpt><trkpt lat="40.0838045" lon="15.8294328"><ele>785.0</ele><time>2026-05-02T11:14:40.717Z</time></trkpt><trkpt lat="40.0837731" lon="15.8295836"><ele>783.0</ele><time>2026-05-02T11:14:41.739Z</time></trkpt><trkpt lat="40.0837624" lon="15.8297605"><ele>781.0</ele><time>2026-05-02T11:14:42.72Z</time></trkpt><trkpt lat="40.0837591" lon="15.8299524"><ele>779.0</ele><time>2026-05-02T11:14:43.726Z</time></trkpt><trkpt lat="40.0837577" lon="15.8301599"><ele>779.0</ele><time>2026-05-02T11:14:44.716Z</time></trkpt><trkpt lat="40.0837702" lon="15.8303881"><ele>779.0</ele><time>2026-05-02T11:14:45.724Z</time></trkpt><trkpt lat="40.0837809" lon="15.8306198"><ele>779.0</ele><time>2026-05-02T11:14:46.72Z</time></trkpt><trkpt lat="40.0837885" lon="15.830841"><ele>781.5</ele><time>2026-05-02T11:14:47.727Z</time></trkpt><trkpt lat="40.0837959" lon="15.831035"><ele>784.0</ele><time>2026-05-02T11:14:48.723Z</time></trkpt><trkpt lat="40.0838037" lon="15.8312115"><ele>786.5</ele><time>2026-05-02T11:14:49.729Z</time></trkpt><trkpt lat="40.0838001" lon="15.8313707"><ele>789.0</ele><time>2026-05-02T11:14:50.726Z</time></trkpt><trkpt lat="40.083769" lon="15.8315138"><ele>789.0</ele><time>2026-05-02T11:14:51.727Z</time></trkpt><trkpt lat="40.0837254" lon="15.8316464"><ele>789.0</ele><time>2026-05-02T11:14:52.722Z</time></trkpt><trkpt lat="40.0836594" lon="15.8317595"><ele>789.0</ele><time>2026-05-02T11:14:53.72Z</time></trkpt><trkpt lat="40.0835707" lon="15.831841"><ele>789.0</ele><time>2026-05-02T11:14:54.739Z</time></trkpt><trkpt lat="40.0834716" lon="15.8318898"><ele>789.0</ele><time>2026-05-02T11:14:55.72Z</time></trkpt><trkpt lat="40.0833646" lon="15.8319083"><ele>789.25</ele><time>2026-05-02T11:14:56.72Z</time></trkpt><trkpt lat="40.0832422" lon="15.8319167"><ele>789.5</ele><time>2026-05-02T11:14:57.726Z</time></trkpt><trkpt lat="40.0831116" lon="15.8319305"><ele>789.75</ele><time>2026-05-02T11:14:58.72Z</time></trkpt><trkpt lat="40.0829892" lon="15.8319664"><ele>790.0</ele><time>2026-05-02T11:14:59.72Z</time></trkpt><trkpt lat="40.0828898" lon="15.8320379"><ele>790.0</ele><time>2026-05-02T11:15:00.721Z</time></trkpt><trkpt lat="40.0828057" lon="15.8321422"><ele>790.0</ele><time>2026-05-02T11:15:01.737Z</time></trkpt><trkpt lat="40.082728" lon="15.8322732"><ele>790.0</ele><time>2026-05-02T11:15:02.732Z</time></trkpt><trkpt lat="40.0826433" lon="15.8324189"><ele>790.0</ele><time>2026-05-02T11:15:03.725Z</time></trkpt><trkpt lat="40.0825579" lon="15.8325818"><ele>791.5</ele><time>2026-05-02T11:15:04.717Z</time></trkpt><trkpt lat="40.0824778" lon="15.8327449"><ele>793.0</ele><time>2026-05-02T11:15:05.727Z</time></trkpt><trkpt lat="40.0823995" lon="15.8328931"><ele>794.5</ele><time>2026-05-02T11:15:06.723Z</time></trkpt><trkpt lat="40.082324" lon="15.8330259"><ele>796.0</ele><time>2026-05-02T11:15:07.717Z</time></trkpt><trkpt lat="40.0822563" lon="15.8331537"><ele>789.25</ele><time>2026-05-02T11:15:08.727Z</time></trkpt><trkpt lat="40.0822039" lon="15.8332837"><ele>782.5</ele><time>2026-05-02T11:15:09.723Z</time></trkpt><trkpt lat="40.0821684" lon="15.8334409"><ele>775.75</ele><time>2026-05-02T11:15:10.732Z</time></trkpt><trkpt lat="40.0821479" lon="15.8336184"><ele>769.0</ele><time>2026-05-02T11:15:11.747Z</time></trkpt><trkpt lat="40.0821514" lon="15.8338096"><ele>768.5</ele><time>2026-05-02T11:15:12.729Z</time></trkpt><trkpt lat="40.0821652" lon="15.8340031"><ele>768.0</ele><time>2026-05-02T11:15:13.739Z</time></trkpt><trkpt lat="40.0821949" lon="15.8341935"><ele>767.5</ele><time>2026-05-02T11:15:14.728Z</time></trkpt><trkpt lat="40.0822391" lon="15.8343809"><ele>767.0</ele><time>2026-05-02T11:15:15.723Z</time></trkpt><trkpt lat="40.0822874" lon="15.8345707"><ele>766.5</ele><time>2026-05-02T11:15:16.723Z</time></trkpt><trkpt lat="40.0823299" lon="15.8347667"><ele>766.0</ele><time>2026-05-02T11:15:17.721Z</time></trkpt><trkpt lat="40.0823678" lon="15.8349545"><ele>765.5</ele><time>2026-05-02T11:15:18.725Z</time></trkpt><trkpt lat="40.0823922" lon="15.8351273"><ele>765.0</ele><time>2026-05-02T11:15:19.724Z</time></trkpt><trkpt lat="40.0823908" lon="15.835293"><ele>767.25</ele><time>2026-05-02T11:15:20.719Z</time></trkpt><trkpt lat="40.0823732" lon="15.8354735"><ele>769.5</ele><time>2026-05-02T11:15:21.725Z</time></trkpt><trkpt lat="40.082339" lon="15.8356661"><ele>771.75</ele><time>2026-05-02T11:15:22.725Z</time></trkpt><trkpt lat="40.0822835" lon="15.835858"><ele>774.0</ele><time>2026-05-02T11:15:23.718Z</time></trkpt><trkpt lat="40.0822211" lon="15.8360384"><ele>776.0</ele><time>2026-05-02T11:15:24.717Z</time></trkpt><trkpt lat="40.0821593" lon="15.8362137"><ele>778.0</ele><time>2026-05-02T11:15:25.724Z</time></trkpt><trkpt lat="40.0821004" lon="15.8363891"><ele>780.0</ele><time>2026-05-02T11:15:26.726Z</time></trkpt><trkpt lat="40.0820497" lon="15.8365684"><ele>782.0</ele><time>2026-05-02T11:15:27.717Z</time></trkpt><trkpt lat="40.082006" lon="15.8367534"><ele>783.0</ele><time>2026-05-02T11:15:28.722Z</time></trkpt><trkpt lat="40.0819638" lon="15.8369417"><ele>784.0</ele><time>2026-05-02T11:15:29.723Z</time></trkpt><trkpt lat="40.0819231" lon="15.8371149"><ele>785.0</ele><time>2026-05-02T11:15:30.722Z</time></trkpt><trkpt lat="40.081892" lon="15.8372791"><ele>786.0</ele><time>2026-05-02T11:15:31.731Z</time></trkpt><trkpt lat="40.081856" lon="15.8374332"><ele>786.0</ele><time>2026-05-02T11:15:32.738Z</time></trkpt><trkpt lat="40.0818024" lon="15.8375837"><ele>786.0</ele><time>2026-05-02T11:15:33.711Z</time></trkpt><trkpt lat="40.0817343" lon="15.8377101"><ele>786.0</ele><time>2026-05-02T11:15:34.73Z</time></trkpt><trkpt lat="40.0816458" lon="15.8378221"><ele>786.0</ele><time>2026-05-02T11:15:35.722Z</time></trkpt><trkpt lat="40.0815542" lon="15.8379296"><ele>784.25</ele><time>2026-05-02T11:15:36.72Z</time></trkpt><trkpt lat="40.081471" lon="15.8380354"><ele>782.5</ele><time>2026-05-02T11:15:37.726Z</time></trkpt><trkpt lat="40.0814006" lon="15.8381522"><ele>780.75</ele><time>2026-05-02T11:15:38.717Z</time></trkpt><trkpt lat="40.081347" lon="15.8382895"><ele>779.0</ele><time>2026-05-02T11:15:39.725Z</time></trkpt><trkpt lat="40.0813154" lon="15.8384493"><ele>779.75</ele><time>2026-05-02T11:15:40.718Z</time></trkpt><trkpt lat="40.0813064" lon="15.8386315"><ele>780.5</ele><time>2026-05-02T11:15:41.726Z</time></trkpt><trkpt lat="40.0813178" lon="15.8388253"><ele>781.25</ele><time>2026-05-02T11:15:42.721Z</time></trkpt><trkpt lat="40.0813324" lon="15.8390179"><ele>782.0</ele><time>2026-05-02T11:15:43.722Z</time></trkpt><trkpt lat="40.0813306" lon="15.8391819"><ele>783.25</ele><time>2026-05-02T11:15:44.724Z</time></trkpt><trkpt lat="40.0813064" lon="15.8393115"><ele>784.5</ele><time>2026-05-02T11:15:45.728Z</time></trkpt><trkpt lat="40.0812747" lon="15.839442"><ele>785.75</ele><time>2026-05-02T11:15:46.725Z</time></trkpt><trkpt lat="40.0812097" lon="15.8395632"><ele>787.0</ele><time>2026-05-02T11:15:47.712Z</time></trkpt><trkpt lat="40.0811262" lon="15.8396964"><ele>787.0</ele><time>2026-05-02T11:15:48.716Z</time></trkpt><trkpt lat="40.0810238" lon="15.8398364"><ele>787.0</ele><time>2026-05-02T11:15:49.732Z</time></trkpt><trkpt lat="40.0809134" lon="15.8399803"><ele>787.0</ele><time>2026-05-02T11:15:50.724Z</time></trkpt><trkpt lat="40.0808157" lon="15.8401147"><ele>787.0</ele><time>2026-05-02T11:15:51.737Z</time></trkpt><trkpt lat="40.0807419" lon="15.8402323"><ele>791.8</ele><time>2026-05-02T11:15:52.712Z</time></trkpt><trkpt lat="40.080685" lon="15.8403239"><ele>796.6</ele><time>2026-05-02T11:15:53.716Z</time></trkpt><trkpt lat="40.0806345" lon="15.8403885"><ele>801.4</ele><time>2026-05-02T11:15:54.721Z</time></trkpt><trkpt lat="40.0805122" lon="15.8404379"><ele>806.1999999999999</ele><time>2026-05-02T11:15:56.711Z</time></trkpt><trkpt lat="40.08043" lon="15.8404087"><ele>811.0</ele><time>2026-05-02T11:15:57.716Z</time></trkpt><trkpt lat="40.0803302" lon="15.8403333"><ele>811.0</ele><time>2026-05-02T11:15:58.71Z</time></trkpt><trkpt lat="40.0802145" lon="15.8402548"><ele>811.0</ele><time>2026-05-02T11:15:59.726Z</time></trkpt><trkpt lat="40.080092" lon="15.8401784"><ele>811.0</ele><time>2026-05-02T11:16:00.708Z</time></trkpt><trkpt lat="40.0799598" lon="15.8401014"><ele>811.0</ele><time>2026-05-02T11:16:01.724Z</time></trkpt><trkpt lat="40.0798284" lon="15.8400221"><ele>806.0</ele><time>2026-05-02T11:16:02.715Z</time></trkpt><trkpt lat="40.0797092" lon="15.8399471"><ele>801.0</ele><time>2026-05-02T11:16:03.719Z</time></trkpt><trkpt lat="40.0795991" lon="15.8398956"><ele>796.0</ele><time>2026-05-02T11:16:04.718Z</time></trkpt><trkpt lat="40.0794915" lon="15.8398729"><ele>791.0</ele><time>2026-05-02T11:16:05.709Z</time></trkpt><trkpt lat="40.0793731" lon="15.8398838"><ele>791.0</ele><time>2026-05-02T11:16:06.719Z</time></trkpt><trkpt lat="40.0792415" lon="15.8399254"><ele>791.0</ele><time>2026-05-02T11:16:07.71Z</time></trkpt><trkpt lat="40.0791031" lon="15.8399987"><ele>791.0</ele><time>2026-05-02T11:16:08.719Z</time></trkpt><trkpt lat="40.0789613" lon="15.8400869"><ele>791.0</ele><time>2026-05-02T11:16:09.712Z</time></trkpt><trkpt lat="40.0788076" lon="15.8401707"><ele>795.5</ele><time>2026-05-02T11:16:10.725Z</time></trkpt><trkpt lat="40.0786549" lon="15.8402479"><ele>800.0</ele><time>2026-05-02T11:16:11.715Z</time></trkpt><trkpt lat="40.0785216" lon="15.8403082"><ele>804.5</ele><time>2026-05-02T11:16:12.7Z</time></trkpt><trkpt lat="40.0784135" lon="15.8403439"><ele>809.0</ele><time>2026-05-02T11:16:13.726Z</time></trkpt><trkpt lat="40.0783122" lon="15.8403494"><ele>807.5</ele><time>2026-05-02T11:16:14.707Z</time></trkpt><trkpt lat="40.0782077" lon="15.8403207"><ele>806.0</ele><time>2026-05-02T11:16:15.714Z</time></trkpt><trkpt lat="40.0780962" lon="15.8402541"><ele>804.5</ele><time>2026-05-02T11:16:16.706Z</time></trkpt><trkpt lat="40.077979" lon="15.8401551"><ele>803.0</ele><time>2026-05-02T11:16:17.726Z</time></trkpt><trkpt lat="40.0778541" lon="15.8400536"><ele>803.0</ele><time>2026-05-02T11:16:18.72Z</time></trkpt><trkpt lat="40.0777258" lon="15.8399578"><ele>803.0</ele><time>2026-05-02T11:16:19.725Z</time></trkpt><trkpt lat="40.0775946" lon="15.8398554"><ele>803.0</ele><time>2026-05-02T11:16:20.706Z</time></trkpt><trkpt lat="40.0774637" lon="15.839767"><ele>803.0</ele><time>2026-05-02T11:16:21.716Z</time></trkpt><trkpt lat="40.0773311" lon="15.8396744"><ele>807.3333333333334</ele><time>2026-05-02T11:16:22.714Z</time></trkpt><trkpt lat="40.0771902" lon="15.8395728"><ele>811.6666666666667</ele><time>2026-05-02T11:16:23.726Z</time></trkpt><trkpt lat="40.0770524" lon="15.8394769"><ele>816.0</ele><time>2026-05-02T11:16:24.711Z</time></trkpt><trkpt lat="40.0769286" lon="15.8393885"><ele>816.0</ele><time>2026-05-02T11:16:25.72Z</time></trkpt><trkpt lat="40.0768137" lon="15.8393223"><ele>816.0</ele><time>2026-05-02T11:16:26.709Z</time></trkpt><trkpt lat="40.0767098" lon="15.8392802"><ele>816.0</ele><time>2026-05-02T11:16:27.719Z</time></trkpt><trkpt lat="40.0766049" lon="15.8392621"><ele>816.0</ele><time>2026-05-02T11:16:28.718Z</time></trkpt><trkpt lat="40.0764914" lon="15.8392643"><ele>815.25</ele><time>2026-05-02T11:16:29.721Z</time></trkpt><trkpt lat="40.0763611" lon="15.8392848"><ele>814.5</ele><time>2026-05-02T11:16:30.725Z</time></trkpt><trkpt lat="40.0762207" lon="15.8393315"><ele>813.75</ele><time>2026-05-02T11:16:31.711Z</time></trkpt><trkpt lat="40.0760868" lon="15.8393815"><ele>813.0</ele><time>2026-05-02T11:16:32.71Z</time></trkpt><trkpt lat="40.0759584" lon="15.8394165"><ele>813.0</ele><time>2026-05-02T11:16:33.715Z</time></trkpt><trkpt lat="40.0758397" lon="15.839449"><ele>813.0</ele><time>2026-05-02T11:16:34.706Z</time></trkpt><trkpt lat="40.0757297" lon="15.8394828"><ele>813.0</ele><time>2026-05-02T11:16:35.719Z</time></trkpt><trkpt lat="40.0756253" lon="15.8395142"><ele>813.0</ele><time>2026-05-02T11:16:36.72Z</time></trkpt><trkpt lat="40.075538" lon="15.8395376"><ele>813.0</ele><time>2026-05-02T11:16:37.718Z</time></trkpt><trkpt lat="40.075445" lon="15.8395649"><ele>808.0</ele><time>2026-05-02T11:16:38.712Z</time></trkpt><trkpt lat="40.0753476" lon="15.8396102"><ele>803.0</ele><time>2026-05-02T11:16:39.713Z</time></trkpt><trkpt lat="40.0752485" lon="15.8396558"><ele>798.0</ele><time>2026-05-02T11:16:40.726Z</time></trkpt><trkpt lat="40.0751521" lon="15.8397335"><ele>793.0</ele><time>2026-05-02T11:16:41.72Z</time></trkpt><trkpt lat="40.0750588" lon="15.8398531"><ele>793.0</ele><time>2026-05-02T11:16:42.717Z</time></trkpt><trkpt lat="40.0749701" lon="15.8399909"><ele>793.0</ele><time>2026-05-02T11:16:43.723Z</time></trkpt><trkpt lat="40.0748822" lon="15.8401248"><ele>793.0</ele><time>2026-05-02T11:16:44.715Z</time></trkpt><trkpt lat="40.0748035" lon="15.8402529"><ele>793.0</ele><time>2026-05-02T11:16:45.724Z</time></trkpt><trkpt lat="40.0747413" lon="15.8403913"><ele>789.25</ele><time>2026-05-02T11:16:46.723Z</time></trkpt><trkpt lat="40.0746863" lon="15.8405505"><ele>785.5</ele><time>2026-05-02T11:16:47.745Z</time></trkpt><trkpt lat="40.0746407" lon="15.8407226"><ele>781.75</ele><time>2026-05-02T11:16:48.725Z</time></trkpt><trkpt lat="40.0746081" lon="15.8408816"><ele>778.0</ele><time>2026-05-02T11:16:49.733Z</time></trkpt><trkpt lat="40.0745919" lon="15.8410208"><ele>775.8</ele><time>2026-05-02T11:16:50.726Z</time></trkpt><trkpt lat="40.0745965" lon="15.8411539"><ele>773.5999999999999</ele><time>2026-05-02T11:16:51.726Z</time></trkpt><trkpt lat="40.0746145" lon="15.841278"><ele>771.4000000000001</ele><time>2026-05-02T11:16:52.72Z</time></trkpt><trkpt lat="40.0746592" lon="15.8414066"><ele>769.2</ele><time>2026-05-02T11:16:53.723Z</time></trkpt><trkpt lat="40.0747325" lon="15.8415506"><ele>767.0</ele><time>2026-05-02T11:16:54.718Z</time></trkpt><trkpt lat="40.0748275" lon="15.8416912"><ele>768.0</ele><time>2026-05-02T11:16:55.724Z</time></trkpt><trkpt lat="40.0749371" lon="15.8418314"><ele>769.0</ele><time>2026-05-02T11:16:56.721Z</time></trkpt><trkpt lat="40.0750479" lon="15.8419601"><ele>770.0</ele><time>2026-05-02T11:16:57.725Z</time></trkpt><trkpt lat="40.0751464" lon="15.8420808"><ele>771.0</ele><time>2026-05-02T11:16:58.723Z</time></trkpt><trkpt lat="40.0752424" lon="15.842192"><ele>771.0</ele><time>2026-05-02T11:16:59.704Z</time></trkpt><trkpt lat="40.0753309" lon="15.8422894"><ele>771.0</ele><time>2026-05-02T11:17:00.716Z</time></trkpt><trkpt lat="40.0754197" lon="15.842366"><ele>771.0</ele><time>2026-05-02T11:17:01.727Z</time></trkpt><trkpt lat="40.0755068" lon="15.8424389"><ele>771.0</ele><time>2026-05-02T11:17:02.714Z</time></trkpt><trkpt lat="40.075577" lon="15.8425151"><ele>771.0</ele><time>2026-05-02T11:17:03.736Z</time></trkpt><trkpt lat="40.0756315" lon="15.8426048"><ele>769.1999999999999</ele><time>2026-05-02T11:17:04.721Z</time></trkpt><trkpt lat="40.0756688" lon="15.8427177"><ele>767.4</ele><time>2026-05-02T11:17:05.728Z</time></trkpt><trkpt lat="40.075688" lon="15.8428546"><ele>765.6</ele><time>2026-05-02T11:17:06.725Z</time></trkpt><trkpt lat="40.0756967" lon="15.842995"><ele>763.8</ele><time>2026-05-02T11:17:07.721Z</time></trkpt><trkpt lat="40.0757104" lon="15.8431343"><ele>762.0</ele><time>2026-05-02T11:17:08.715Z</time></trkpt><trkpt lat="40.0757574" lon="15.8432694"><ele>762.5</ele><time>2026-05-02T11:17:09.714Z</time></trkpt><trkpt lat="40.0758372" lon="15.8433813"><ele>763.0</ele><time>2026-05-02T11:17:10.725Z</time></trkpt><trkpt lat="40.0759447" lon="15.8434675"><ele>763.5</ele><time>2026-05-02T11:17:11.719Z</time></trkpt><trkpt lat="40.0760585" lon="15.8435171"><ele>764.0</ele><time>2026-05-02T11:17:12.729Z</time></trkpt><trkpt lat="40.076178" lon="15.843522"><ele>764.0</ele><time>2026-05-02T11:17:13.713Z</time></trkpt><trkpt lat="40.0762902" lon="15.8435077"><ele>764.0</ele><time>2026-05-02T11:17:14.733Z</time></trkpt><trkpt lat="40.076391" lon="15.8435096"><ele>764.0</ele><time>2026-05-02T11:17:15.723Z</time></trkpt><trkpt lat="40.0764652" lon="15.843553"><ele>764.0</ele><time>2026-05-02T11:17:16.715Z</time></trkpt><trkpt lat="40.0765218" lon="15.8436338"><ele>764.0</ele><time>2026-05-02T11:17:17.733Z</time></trkpt><trkpt lat="40.0765616" lon="15.8437304"><ele>764.0</ele><time>2026-05-02T11:17:18.708Z</time></trkpt><trkpt lat="40.076578" lon="15.8438383"><ele>764.0</ele><time>2026-05-02T11:17:19.721Z</time></trkpt><trkpt lat="40.0765691" lon="15.843955"><ele>764.0</ele><time>2026-05-02T11:17:20.734Z</time></trkpt><trkpt lat="40.0765392" lon="15.8440704"><ele>764.0</ele><time>2026-05-02T11:17:21.732Z</time></trkpt><trkpt lat="40.0764792" lon="15.8441894"><ele>764.0</ele><time>2026-05-02T11:17:22.719Z</time></trkpt><trkpt lat="40.0764107" lon="15.8443177"><ele>762.5</ele><time>2026-05-02T11:17:23.723Z</time></trkpt><trkpt lat="40.0763543" lon="15.8444546"><ele>761.0</ele><time>2026-05-02T11:17:24.716Z</time></trkpt><trkpt lat="40.0763129" lon="15.844608"><ele>759.5</ele><time>2026-05-02T11:17:25.724Z</time></trkpt><trkpt lat="40.0763023" lon="15.8447711"><ele>758.0</ele><time>2026-05-02T11:17:26.721Z</time></trkpt><trkpt lat="40.0763256" lon="15.844915"><ele>758.0</ele><time>2026-05-02T11:17:27.722Z</time></trkpt><trkpt lat="40.0763684" lon="15.8450333"><ele>758.0</ele><time>2026-05-02T11:17:28.707Z</time></trkpt><trkpt lat="40.076439" lon="15.8451208"><ele>758.0</ele><time>2026-05-02T11:17:29.706Z</time></trkpt><trkpt lat="40.0765364" lon="15.845192"><ele>758.0</ele><time>2026-05-02T11:17:30.732Z</time></trkpt><trkpt lat="40.0766394" lon="15.8452605"><ele>758.0</ele><time>2026-05-02T11:17:31.727Z</time></trkpt><trkpt lat="40.0767334" lon="15.8453444"><ele>761.25</ele><time>2026-05-02T11:17:32.724Z</time></trkpt><trkpt lat="40.0768158" lon="15.8454678"><ele>764.5</ele><time>2026-05-02T11:17:33.734Z</time></trkpt><trkpt lat="40.0768764" lon="15.8456247"><ele>767.75</ele><time>2026-05-02T11:17:34.73Z</time></trkpt><trkpt lat="40.0769361" lon="15.8457947"><ele>771.0</ele><time>2026-05-02T11:17:35.722Z</time></trkpt><trkpt lat="40.0769997" lon="15.8459608"><ele>770.0</ele><time>2026-05-02T11:17:36.717Z</time></trkpt><trkpt lat="40.0770654" lon="15.8461065"><ele>769.0</ele><time>2026-05-02T11:17:37.729Z</time></trkpt><trkpt lat="40.0771317" lon="15.8462361"><ele>768.0</ele><time>2026-05-02T11:17:38.721Z</time></trkpt><trkpt lat="40.0771912" lon="15.846374"><ele>767.0</ele><time>2026-05-02T11:17:39.717Z</time></trkpt><trkpt lat="40.0772262" lon="15.8465029"><ele>767.0</ele><time>2026-05-02T11:17:40.729Z</time></trkpt><trkpt lat="40.077227" lon="15.8466314"><ele>767.0</ele><time>2026-05-02T11:17:41.717Z</time></trkpt><trkpt lat="40.0771865" lon="15.8467575"><ele>767.0</ele><time>2026-05-02T11:17:42.714Z</time></trkpt><trkpt lat="40.0771197" lon="15.8468815"><ele>767.0</ele><time>2026-05-02T11:17:43.721Z</time></trkpt><trkpt lat="40.0770408" lon="15.8470134"><ele>767.0</ele><time>2026-05-02T11:17:44.713Z</time></trkpt><trkpt lat="40.0769544" lon="15.8471514"><ele>769.3333333333333</ele><time>2026-05-02T11:17:45.729Z</time></trkpt><trkpt lat="40.0768624" lon="15.8473087"><ele>771.6666666666666</ele><time>2026-05-02T11:17:46.713Z</time></trkpt><trkpt lat="40.0767543" lon="15.8474616"><ele>774.0</ele><time>2026-05-02T11:17:47.722Z</time></trkpt><trkpt lat="40.0766401" lon="15.8476149"><ele>775.0</ele><time>2026-05-02T11:17:48.739Z</time></trkpt><trkpt lat="40.0765249" lon="15.8477839"><ele>776.0</ele><time>2026-05-02T11:17:49.728Z</time></trkpt><trkpt lat="40.0764136" lon="15.8479602"><ele>777.0</ele><time>2026-05-02T11:17:50.721Z</time></trkpt><trkpt lat="40.0763034" lon="15.8481393"><ele>777.0</ele><time>2026-05-02T11:17:51.714Z</time></trkpt><trkpt lat="40.0762036" lon="15.8483173"><ele>777.0</ele><time>2026-05-02T11:17:52.715Z</time></trkpt><trkpt lat="40.0761163" lon="15.8484871"><ele>777.0</ele><time>2026-05-02T11:17:53.725Z</time></trkpt><trkpt lat="40.0760351" lon="15.8486376"><ele>780.0</ele><time>2026-05-02T11:17:54.716Z</time></trkpt><trkpt lat="40.0759737" lon="15.8487794"><ele>783.0</ele><time>2026-05-02T11:17:55.72Z</time></trkpt><trkpt lat="40.0759046" lon="15.8489024"><ele>786.0</ele><time>2026-05-02T11:17:56.721Z</time></trkpt><trkpt lat="40.0758268" lon="15.8490074"><ele>789.0</ele><time>2026-05-02T11:17:57.73Z</time></trkpt><trkpt lat="40.075737" lon="15.8490882"><ele>790.25</ele><time>2026-05-02T11:17:58.727Z</time></trkpt><trkpt lat="40.0756359" lon="15.8491395"><ele>791.5</ele><time>2026-05-02T11:17:59.73Z</time></trkpt><trkpt lat="40.0755209" lon="15.8491699"><ele>792.75</ele><time>2026-05-02T11:18:00.719Z</time></trkpt><trkpt lat="40.0753965" lon="15.8491746"><ele>794.0</ele><time>2026-05-02T11:18:01.723Z</time></trkpt><trkpt lat="40.0752723" lon="15.8491635"><ele>794.0</ele><time>2026-05-02T11:18:02.725Z</time></trkpt><trkpt lat="40.0751651" lon="15.849134"><ele>794.0</ele><time>2026-05-02T11:18:03.729Z</time></trkpt><trkpt lat="40.075076" lon="15.8490857"><ele>794.0</ele><time>2026-05-02T11:18:04.723Z</time></trkpt><trkpt lat="40.0749973" lon="15.8490072"><ele>794.0</ele><time>2026-05-02T11:18:05.709Z</time></trkpt><trkpt lat="40.0749417" lon="15.8488917"><ele>794.0</ele><time>2026-05-02T11:18:06.725Z</time></trkpt><trkpt lat="40.0749003" lon="15.8487566"><ele>792.1666666666667</ele><time>2026-05-02T11:18:07.727Z</time></trkpt><trkpt lat="40.0748537" lon="15.8486403"><ele>790.3333333333334</ele><time>2026-05-02T11:18:08.722Z</time></trkpt><trkpt lat="40.0747945" lon="15.8485635"><ele>788.5</ele><time>2026-05-02T11:18:09.723Z</time></trkpt><trkpt lat="40.0747174" lon="15.848533"><ele>786.6666666666667</ele><time>2026-05-02T11:18:10.724Z</time></trkpt><trkpt lat="40.0746313" lon="15.8485507"><ele>784.8333333333334</ele><time>2026-05-02T11:18:11.71Z</time></trkpt><trkpt lat="40.0745562" lon="15.8486168"><ele>783.0</ele><time>2026-05-02T11:18:12.71Z</time></trkpt><trkpt lat="40.0745021" lon="15.8487104"><ele>783.0</ele><time>2026-05-02T11:18:13.731Z</time></trkpt><trkpt lat="40.074475" lon="15.8488314"><ele>783.0</ele><time>2026-05-02T11:18:14.716Z</time></trkpt><trkpt lat="40.0744839" lon="15.8489642"><ele>783.0</ele><time>2026-05-02T11:18:15.719Z</time></trkpt><trkpt lat="40.0745264" lon="15.8490914"><ele>783.0</ele><time>2026-05-02T11:18:16.715Z</time></trkpt><trkpt lat="40.0745792" lon="15.8492126"><ele>783.0</ele><time>2026-05-02T11:18:17.719Z</time></trkpt><trkpt lat="40.0746241" lon="15.8493177"><ele>783.8</ele><time>2026-05-02T11:18:18.726Z</time></trkpt><trkpt lat="40.0746566" lon="15.8493893"><ele>784.5999999999999</ele><time>2026-05-02T11:18:19.726Z</time></trkpt><trkpt lat="40.074696" lon="15.8495146"><ele>785.4000000000001</ele><time>2026-05-02T11:18:21.72Z</time></trkpt><trkpt lat="40.0747338" lon="15.849658"><ele>786.2</ele><time>2026-05-02T11:18:23.721Z</time></trkpt><trkpt lat="40.074747" lon="15.8497865"><ele>787.0</ele><time>2026-05-02T11:18:25.72Z</time></trkpt><trkpt lat="40.074741" lon="15.8498878"><ele>786.9999999999999</ele><time>2026-05-02T11:18:27.731Z</time></trkpt><trkpt lat="40.0747242" lon="15.8499825"><ele>787.0</ele><time>2026-05-02T11:18:36.72Z</time></trkpt><trkpt lat="40.0746976" lon="15.8500993"><ele>787.0</ele><time>2026-05-02T11:18:39.724Z</time></trkpt><trkpt lat="40.0746796" lon="15.8502103"><ele>787.0</ele><time>2026-05-02T11:18:41.731Z</time></trkpt><trkpt lat="40.0746675" lon="15.8502962"><ele>786.9999999999999</ele><time>2026-05-02T11:18:42.711Z</time></trkpt><trkpt lat="40.0746486" lon="15.8503981"><ele>787.0</ele><time>2026-05-02T11:18:43.715Z</time></trkpt><trkpt lat="40.0746289" lon="15.8505125"><ele>787.0</ele><time>2026-05-02T11:18:44.73Z</time></trkpt><trkpt lat="40.0746127" lon="15.8506397"><ele>787.0</ele><time>2026-05-02T11:18:45.724Z</time></trkpt><trkpt lat="40.0745951" lon="15.85078"><ele>787.0</ele><time>2026-05-02T11:18:46.717Z</time></trkpt><trkpt lat="40.0745681" lon="15.8509188"><ele>787.0</ele><time>2026-05-02T11:18:47.726Z</time></trkpt><trkpt lat="40.0745335" lon="15.8510544"><ele>787.0</ele><time>2026-05-02T11:18:48.725Z</time></trkpt><trkpt lat="40.0744852" lon="15.851182"><ele>787.5</ele><time>2026-05-02T11:18:49.715Z</time></trkpt><trkpt lat="40.0744261" lon="15.8513097"><ele>788.0</ele><time>2026-05-02T11:18:50.72Z</time></trkpt><trkpt lat="40.0743661" lon="15.8514445"><ele>788.5</ele><time>2026-05-02T11:18:51.717Z</time></trkpt><trkpt lat="40.0743189" lon="15.8515942"><ele>789.0</ele><time>2026-05-02T11:18:52.731Z</time></trkpt><trkpt lat="40.0742845" lon="15.8517466"><ele>789.5</ele><time>2026-05-02T11:18:53.719Z</time></trkpt><trkpt lat="40.0742559" lon="15.8519093"><ele>790.0</ele><time>2026-05-02T11:18:54.726Z</time></trkpt><trkpt lat="40.0742214" lon="15.8520744"><ele>790.5</ele><time>2026-05-02T11:18:55.736Z</time></trkpt><trkpt lat="40.0741782" lon="15.8522273"><ele>791.0</ele><time>2026-05-02T11:18:56.721Z</time></trkpt><trkpt lat="40.0741184" lon="15.8523734"><ele>790.25</ele><time>2026-05-02T11:18:57.722Z</time></trkpt><trkpt lat="40.0740289" lon="15.8525148"><ele>789.5</ele><time>2026-05-02T11:18:58.721Z</time></trkpt><trkpt lat="40.0739312" lon="15.8526488"><ele>788.75</ele><time>2026-05-02T11:18:59.722Z</time></trkpt><trkpt lat="40.0738219" lon="15.8527765"><ele>788.0</ele><time>2026-05-02T11:19:00.725Z</time></trkpt><trkpt lat="40.0737102" lon="15.8529091"><ele>788.0</ele><time>2026-05-02T11:19:01.731Z</time></trkpt><trkpt lat="40.0735963" lon="15.8530448"><ele>788.0</ele><time>2026-05-02T11:19:02.712Z</time></trkpt><trkpt lat="40.0734954" lon="15.8531812"><ele>788.0</ele><time>2026-05-02T11:19:03.722Z</time></trkpt><trkpt lat="40.0734059" lon="15.8533047"><ele>788.0</ele><time>2026-05-02T11:19:04.723Z</time></trkpt><trkpt lat="40.073318" lon="15.85343"><ele>786.75</ele><time>2026-05-02T11:19:05.725Z</time></trkpt><trkpt lat="40.0732332" lon="15.8535602"><ele>785.5</ele><time>2026-05-02T11:19:06.708Z</time></trkpt><trkpt lat="40.0731526" lon="15.8536814"><ele>784.25</ele><time>2026-05-02T11:19:07.723Z</time></trkpt><trkpt lat="40.07307" lon="15.8537928"><ele>783.0</ele><time>2026-05-02T11:19:08.712Z</time></trkpt><trkpt lat="40.0729842" lon="15.8539164"><ele>783.0</ele><time>2026-05-02T11:19:09.725Z</time></trkpt><trkpt lat="40.0728972" lon="15.8540258"><ele>783.0</ele><time>2026-05-02T11:19:10.725Z</time></trkpt><trkpt lat="40.0728173" lon="15.8541219"><ele>783.0</ele><time>2026-05-02T11:19:11.714Z</time></trkpt><trkpt lat="40.0727483" lon="15.8542116"><ele>783.0</ele><time>2026-05-02T11:19:12.718Z</time></trkpt><trkpt lat="40.0726921" lon="15.8542958"><ele>783.0</ele><time>2026-05-02T11:19:13.731Z</time></trkpt><trkpt lat="40.0726433" lon="15.8543735"><ele>783.1666666666666</ele><time>2026-05-02T11:19:14.71Z</time></trkpt><trkpt lat="40.0725944" lon="15.8544421"><ele>783.3333333333333</ele><time>2026-05-02T11:19:15.714Z</time></trkpt><trkpt lat="40.072539" lon="15.8545004"><ele>783.5</ele><time>2026-05-02T11:19:16.722Z</time></trkpt><trkpt lat="40.0724701" lon="15.8545398"><ele>783.6666666666666</ele><time>2026-05-02T11:19:17.721Z</time></trkpt><trkpt lat="40.0723883" lon="15.8545905"><ele>783.8333333333333</ele><time>2026-05-02T11:19:18.728Z</time></trkpt><trkpt lat="40.0723062" lon="15.8546622"><ele>784.0</ele><time>2026-05-02T11:19:19.723Z</time></trkpt><trkpt lat="40.0722143" lon="15.8547589"><ele>783.0</ele><time>2026-05-02T11:19:20.721Z</time></trkpt><trkpt lat="40.0721052" lon="15.8548767"><ele>782.0</ele><time>2026-05-02T11:19:21.719Z</time></trkpt><trkpt lat="40.0719968" lon="15.8550099"><ele>781.0</ele><time>2026-05-02T11:19:22.73Z</time></trkpt><trkpt lat="40.07189" lon="15.8551297"><ele>780.0</ele><time>2026-05-02T11:19:23.717Z</time></trkpt><trkpt lat="40.0718015" lon="15.855236"><ele>779.0</ele><time>2026-05-02T11:19:24.714Z</time></trkpt><trkpt lat="40.0717192" lon="15.8553384"><ele>778.0</ele><time>2026-05-02T11:19:25.732Z</time></trkpt><trkpt lat="40.0716432" lon="15.8554235"><ele>777.0</ele><time>2026-05-02T11:19:26.716Z</time></trkpt><trkpt lat="40.0715648" lon="15.8554986"><ele>776.0</ele><time>2026-05-02T11:19:27.726Z</time></trkpt><trkpt lat="40.0714739" lon="15.8555595"><ele>775.0</ele><time>2026-05-02T11:19:28.725Z</time></trkpt><trkpt lat="40.0713646" lon="15.8556004"><ele>773.2</ele><time>2026-05-02T11:19:29.717Z</time></trkpt><trkpt lat="40.0712564" lon="15.8556232"><ele>771.4</ele><time>2026-05-02T11:19:30.715Z</time></trkpt><trkpt lat="40.0711606" lon="15.8556173"><ele>769.5999999999999</ele><time>2026-05-02T11:19:31.705Z</time></trkpt><trkpt lat="40.0710752" lon="15.8556168"><ele>767.8</ele><time>2026-05-02T11:19:32.711Z</time></trkpt><trkpt lat="40.0709868" lon="15.8556447"><ele>766.0</ele><time>2026-05-02T11:19:33.728Z</time></trkpt><trkpt lat="40.0708959" lon="15.8557003"><ele>766.0</ele><time>2026-05-02T11:19:34.723Z</time></trkpt><trkpt lat="40.0708327" lon="15.8557944"><ele>766.0</ele><time>2026-05-02T11:19:35.728Z</time></trkpt><trkpt lat="40.0707993" lon="15.8559157"><ele>766.0</ele><time>2026-05-02T11:19:36.719Z</time></trkpt><trkpt lat="40.0707866" lon="15.8560382"><ele>766.0</ele><time>2026-05-02T11:19:37.716Z</time></trkpt><trkpt lat="40.0707728" lon="15.85613"><ele>766.0</ele><time>2026-05-02T11:19:38.716Z</time></trkpt><trkpt lat="40.0707015" lon="15.8562192"><ele>759.75</ele><time>2026-05-02T11:19:40.722Z</time></trkpt><trkpt lat="40.0706173" lon="15.8561752"><ele>753.5</ele><time>2026-05-02T11:19:42.718Z</time></trkpt><trkpt lat="40.0706182" lon="15.855985"><ele>747.25</ele><time>2026-05-02T11:19:44.707Z</time></trkpt><trkpt lat="40.0706349" lon="15.8558402"><ele>741.0</ele><time>2026-05-02T11:19:45.73Z</time></trkpt><trkpt lat="40.07066" lon="15.8556704"><ele>740.75</ele><time>2026-05-02T11:19:46.723Z</time></trkpt><trkpt lat="40.0706845" lon="15.8554912"><ele>740.5</ele><time>2026-05-02T11:19:47.717Z</time></trkpt><trkpt lat="40.0707097" lon="15.8553009"><ele>740.25</ele><time>2026-05-02T11:19:48.703Z</time></trkpt><trkpt lat="40.070729" lon="15.8550911"><ele>740.0</ele><time>2026-05-02T11:19:49.723Z</time></trkpt><trkpt lat="40.0707359" lon="15.8548809"><ele>740.25</ele><time>2026-05-02T11:19:50.72Z</time></trkpt><trkpt lat="40.0707487" lon="15.8546905"><ele>740.5</ele><time>2026-05-02T11:19:51.725Z</time></trkpt><trkpt lat="40.0707581" lon="15.8545327"><ele>740.75</ele><time>2026-05-02T11:19:52.714Z</time></trkpt><trkpt lat="40.0707476" lon="15.8543921"><ele>741.0</ele><time>2026-05-02T11:19:53.728Z</time></trkpt><trkpt lat="40.0707159" lon="15.8542574"><ele>741.0</ele><time>2026-05-02T11:19:54.725Z</time></trkpt><trkpt lat="40.0706757" lon="15.8541312"><ele>741.0</ele><time>2026-05-02T11:19:55.725Z</time></trkpt><trkpt lat="40.0706411" lon="15.8540124"><ele>741.0</ele><time>2026-05-02T11:19:56.719Z</time></trkpt><trkpt lat="40.0706148" lon="15.8538931"><ele>741.0</ele><time>2026-05-02T11:19:57.729Z</time></trkpt><trkpt lat="40.0705983" lon="15.8537702"><ele>741.0</ele><time>2026-05-02T11:19:58.709Z</time></trkpt><trkpt lat="40.0705972" lon="15.8536414"><ele>741.0</ele><time>2026-05-02T11:19:59.721Z</time></trkpt><trkpt lat="40.070606" lon="15.853518"><ele>741.0</ele><time>2026-05-02T11:20:00.723Z</time></trkpt><trkpt lat="40.0706026" lon="15.8534113"><ele>741.0</ele><time>2026-05-02T11:20:01.714Z</time></trkpt><trkpt lat="40.0705567" lon="15.8533112"><ele>741.0</ele><time>2026-05-02T11:20:02.727Z</time></trkpt><trkpt lat="40.0704836" lon="15.8532045"><ele>741.0</ele><time>2026-05-02T11:20:03.711Z</time></trkpt><trkpt lat="40.0703865" lon="15.8530996"><ele>741.4</ele><time>2026-05-02T11:20:04.713Z</time></trkpt><trkpt lat="40.070286" lon="15.8529813"><ele>741.8</ele><time>2026-05-02T11:20:05.731Z</time></trkpt><trkpt lat="40.0701957" lon="15.8528676"><ele>742.1999999999999</ele><time>2026-05-02T11:20:06.718Z</time></trkpt><trkpt lat="40.0701232" lon="15.8527786"><ele>742.5999999999999</ele><time>2026-05-02T11:20:07.738Z</time></trkpt><trkpt lat="40.0700648" lon="15.852722"><ele>743.0</ele><time>2026-05-02T11:20:08.718Z</time></trkpt><trkpt lat="40.070005" lon="15.8526904"><ele>743.0</ele><time>2026-05-02T11:20:09.729Z</time></trkpt><trkpt lat="40.0699415" lon="15.8526947"><ele>743.0</ele><time>2026-05-02T11:20:10.706Z</time></trkpt><trkpt lat="40.06989" lon="15.8527474"><ele>743.0</ele><time>2026-05-02T11:20:11.728Z</time></trkpt><trkpt lat="40.069871" lon="15.8528354"><ele>743.0</ele><time>2026-05-02T11:20:12.717Z</time></trkpt><trkpt lat="40.0698882" lon="15.8529324"><ele>743.0</ele><time>2026-05-02T11:20:13.707Z</time></trkpt><trkpt lat="40.069943" lon="15.8530241"><ele>743.0</ele><time>2026-05-02T11:20:14.718Z</time></trkpt><trkpt lat="40.0700184" lon="15.8531197"><ele>743.0</ele><time>2026-05-02T11:20:15.722Z</time></trkpt><trkpt lat="40.0701078" lon="15.8532226"><ele>743.0</ele><time>2026-05-02T11:20:16.712Z</time></trkpt><trkpt lat="40.0701794" lon="15.8533468"><ele>743.0</ele><time>2026-05-02T11:20:17.714Z</time></trkpt><trkpt lat="40.0702111" lon="15.8534951"><ele>743.0</ele><time>2026-05-02T11:20:18.725Z</time></trkpt><trkpt lat="40.0702054" lon="15.8536583"><ele>742.5</ele><time>2026-05-02T11:20:19.726Z</time></trkpt><trkpt lat="40.0701927" lon="15.8538376"><ele>742.0</ele><time>2026-05-02T11:20:20.72Z</time></trkpt><trkpt lat="40.0701779" lon="15.8540303"><ele>741.5</ele><time>2026-05-02T11:20:21.728Z</time></trkpt><trkpt lat="40.0701588" lon="15.8542377"><ele>741.0</ele><time>2026-05-02T11:20:22.721Z</time></trkpt><trkpt lat="40.0701358" lon="15.8544501"><ele>740.0</ele><time>2026-05-02T11:20:23.716Z</time></trkpt><trkpt lat="40.070105" lon="15.8546639"><ele>739.0</ele><time>2026-05-02T11:20:24.716Z</time></trkpt><trkpt lat="40.0700821" lon="15.8548775"><ele>738.0</ele><time>2026-05-02T11:20:25.714Z</time></trkpt><trkpt lat="40.070064" lon="15.8550844"><ele>738.5</ele><time>2026-05-02T11:20:26.722Z</time></trkpt><trkpt lat="40.0700447" lon="15.855274"><ele>739.0</ele><time>2026-05-02T11:20:27.722Z</time></trkpt><trkpt lat="40.0700246" lon="15.8554577"><ele>739.5</ele><time>2026-05-02T11:20:28.708Z</time></trkpt><trkpt lat="40.0700087" lon="15.8556402"><ele>740.0</ele><time>2026-05-02T11:20:29.727Z</time></trkpt><trkpt lat="40.0699935" lon="15.8558181"><ele>740.25</ele><time>2026-05-02T11:20:30.728Z</time></trkpt><trkpt lat="40.0699677" lon="15.8559886"><ele>740.5</ele><time>2026-05-02T11:20:31.721Z</time></trkpt><trkpt lat="40.0699307" lon="15.8561643"><ele>740.75</ele><time>2026-05-02T11:20:32.724Z</time></trkpt><trkpt lat="40.0698954" lon="15.8563493"><ele>741.0</ele><time>2026-05-02T11:20:33.711Z</time></trkpt><trkpt lat="40.0698652" lon="15.8565413"><ele>737.0</ele><time>2026-05-02T11:20:34.719Z</time></trkpt><trkpt lat="40.0698281" lon="15.8567397"><ele>733.0</ele><time>2026-05-02T11:20:35.728Z</time></trkpt><trkpt lat="40.0697909" lon="15.8569488"><ele>729.0</ele><time>2026-05-02T11:20:36.712Z</time></trkpt><trkpt lat="40.0697652" lon="15.8571634"><ele>729.0</ele><time>2026-05-02T11:20:37.723Z</time></trkpt><trkpt lat="40.0697549" lon="15.8573686"><ele>729.0</ele><time>2026-05-02T11:20:38.72Z</time></trkpt><trkpt lat="40.0697477" lon="15.857572"><ele>729.0</ele><time>2026-05-02T11:20:39.716Z</time></trkpt><trkpt lat="40.0697442" lon="15.857757"><ele>731.3333333333334</ele><time>2026-05-02T11:20:40.72Z</time></trkpt><trkpt lat="40.0697449" lon="15.8579056"><ele>733.6666666666666</ele><time>2026-05-02T11:20:41.722Z</time></trkpt><trkpt lat="40.0697358" lon="15.8580079"><ele>736.0</ele><time>2026-05-02T11:20:42.721Z</time></trkpt><trkpt lat="40.0697177" lon="15.8580895"><ele>738.3333333333333</ele><time>2026-05-02T11:20:43.727Z</time></trkpt><trkpt lat="40.0696719" lon="15.8581512"><ele>740.6666666666666</ele><time>2026-05-02T11:20:44.71Z</time></trkpt><trkpt lat="40.0696142" lon="15.8582052"><ele>743.0</ele><time>2026-05-02T11:20:45.715Z</time></trkpt><trkpt lat="40.0695435" lon="15.8582353"><ele>743.0</ele><time>2026-05-02T11:20:46.718Z</time></trkpt><trkpt lat="40.0694797" lon="15.8582176"><ele>743.0</ele><time>2026-05-02T11:20:47.723Z</time></trkpt><trkpt lat="40.0694137" lon="15.8581565"><ele>743.0</ele><time>2026-05-02T11:20:48.71Z</time></trkpt><trkpt lat="40.0693652" lon="15.8580472"><ele>743.0</ele><time>2026-05-02T11:20:49.715Z</time></trkpt><trkpt lat="40.0693174" lon="15.8579244"><ele>743.0</ele><time>2026-05-02T11:20:50.708Z</time></trkpt><trkpt lat="40.0692267" lon="15.8578205"><ele>745.0</ele><time>2026-05-02T11:20:51.735Z</time></trkpt><trkpt lat="40.0690987" lon="15.8577511"><ele>747.0</ele><time>2026-05-02T11:20:52.724Z</time></trkpt><trkpt lat="40.0689463" lon="15.8576856"><ele>749.0</ele><time>2026-05-02T11:20:53.723Z</time></trkpt><trkpt lat="40.068792" lon="15.857616"><ele>743.3333333333333</ele><time>2026-05-02T11:20:54.718Z</time></trkpt><trkpt lat="40.0686332" lon="15.8575443"><ele>737.6666666666666</ele><time>2026-05-02T11:20:55.709Z</time></trkpt><trkpt lat="40.0684944" lon="15.857472"><ele>732.0</ele><time>2026-05-02T11:20:56.715Z</time></trkpt><trkpt lat="40.0683595" lon="15.8574095"><ele>733.0</ele><time>2026-05-02T11:20:57.72Z</time></trkpt><trkpt lat="40.0682135" lon="15.8573811"><ele>734.0</ele><time>2026-05-02T11:20:58.718Z</time></trkpt><trkpt lat="40.0680632" lon="15.8573862"><ele>735.0</ele><time>2026-05-02T11:20:59.709Z</time></trkpt><trkpt lat="40.0679229" lon="15.8573977"><ele>736.0</ele><time>2026-05-02T11:21:00.712Z</time></trkpt><trkpt lat="40.0677892" lon="15.8573776"><ele>736.0</ele><time>2026-05-02T11:21:01.721Z</time></trkpt><trkpt lat="40.0676521" lon="15.857314"><ele>736.0</ele><time>2026-05-02T11:21:02.723Z</time></trkpt><trkpt lat="40.0675093" lon="15.8572411"><ele>736.0</ele><time>2026-05-02T11:21:03.715Z</time></trkpt><trkpt lat="40.067357" lon="15.8571837"><ele>737.6666666666667</ele><time>2026-05-02T11:21:04.72Z</time></trkpt><trkpt lat="40.0672055" lon="15.857136"><ele>739.3333333333334</ele><time>2026-05-02T11:21:05.715Z</time></trkpt><trkpt lat="40.067057" lon="15.8570742"><ele>741.0</ele><time>2026-05-02T11:21:06.707Z</time></trkpt><trkpt lat="40.0669194" lon="15.8570242"><ele>741.0</ele><time>2026-05-02T11:21:07.714Z</time></trkpt><trkpt lat="40.0667767" lon="15.8569734"><ele>741.0</ele><time>2026-05-02T11:21:08.712Z</time></trkpt><trkpt lat="40.066653" lon="15.8569004"><ele>741.0</ele><time>2026-05-02T11:21:09.706Z</time></trkpt><trkpt lat="40.0665508" lon="15.8568022"><ele>741.0</ele><time>2026-05-02T11:21:10.716Z</time></trkpt><trkpt lat="40.0664404" lon="15.856687"><ele>736.6666666666666</ele><time>2026-05-02T11:21:11.721Z</time></trkpt><trkpt lat="40.0663219" lon="15.8565558"><ele>732.3333333333333</ele><time>2026-05-02T11:21:12.712Z</time></trkpt><trkpt lat="40.0661916" lon="15.8564114"><ele>728.0</ele><time>2026-05-02T11:21:13.729Z</time></trkpt><trkpt lat="40.0660539" lon="15.8562542"><ele>728.0</ele><time>2026-05-02T11:21:14.711Z</time></trkpt><trkpt lat="40.0659075" lon="15.8560905"><ele>728.0</ele><time>2026-05-02T11:21:15.713Z</time></trkpt><trkpt lat="40.0657783" lon="15.8559379"><ele>728.0</ele><time>2026-05-02T11:21:16.713Z</time></trkpt><trkpt lat="40.0656531" lon="15.8557964"><ele>726.25</ele><time>2026-05-02T11:21:17.718Z</time></trkpt><trkpt lat="40.0655394" lon="15.8556734"><ele>724.5</ele><time>2026-05-02T11:21:18.71Z</time></trkpt><trkpt lat="40.0654392" lon="15.8555665"><ele>722.75</ele><time>2026-05-02T11:21:19.712Z</time></trkpt><trkpt lat="40.0653402" lon="15.8554728"><ele>721.0</ele><time>2026-05-02T11:21:20.713Z</time></trkpt><trkpt lat="40.0652534" lon="15.8553839"><ele>721.0</ele><time>2026-05-02T11:21:21.717Z</time></trkpt><trkpt lat="40.0651745" lon="15.855299"><ele>721.0</ele><time>2026-05-02T11:21:22.709Z</time></trkpt><trkpt lat="40.0651007" lon="15.855209"><ele>721.0</ele><time>2026-05-02T11:21:23.717Z</time></trkpt><trkpt lat="40.065022" lon="15.8551346"><ele>721.0</ele><time>2026-05-02T11:21:24.724Z</time></trkpt><trkpt lat="40.0649395" lon="15.8550645"><ele>721.0</ele><time>2026-05-02T11:21:25.714Z</time></trkpt><trkpt lat="40.064843" lon="15.8550002"><ele>716.5</ele><time>2026-05-02T11:21:26.725Z</time></trkpt><trkpt lat="40.0647279" lon="15.8549564"><ele>712.0</ele><time>2026-05-02T11:21:27.72Z</time></trkpt><trkpt lat="40.0645974" lon="15.854941"><ele>707.5</ele><time>2026-05-02T11:21:28.71Z</time></trkpt><trkpt lat="40.0644522" lon="15.8549604"><ele>703.0</ele><time>2026-05-02T11:21:29.714Z</time></trkpt><trkpt lat="40.0643029" lon="15.8549783"><ele>703.0</ele><time>2026-05-02T11:21:30.722Z</time></trkpt><trkpt lat="40.0641604" lon="15.8549945"><ele>703.0</ele><time>2026-05-02T11:21:31.721Z</time></trkpt><trkpt lat="40.0640239" lon="15.8550075"><ele>703.0</ele><time>2026-05-02T11:21:32.72Z</time></trkpt><trkpt lat="40.0638931" lon="15.8550169"><ele>703.0</ele><time>2026-05-02T11:21:33.726Z</time></trkpt><trkpt lat="40.0637596" lon="15.8550292"><ele>701.25</ele><time>2026-05-02T11:21:34.723Z</time></trkpt><trkpt lat="40.0636296" lon="15.8550385"><ele>699.5</ele><time>2026-05-02T11:21:35.733Z</time></trkpt><trkpt lat="40.0635113" lon="15.8550444"><ele>697.75</ele><time>2026-05-02T11:21:36.714Z</time></trkpt><trkpt lat="40.0634047" lon="15.8550459"><ele>696.0</ele><time>2026-05-02T11:21:37.734Z</time></trkpt><trkpt lat="40.0633045" lon="15.8550503"><ele>700.0</ele><time>2026-05-02T11:21:38.718Z</time></trkpt><trkpt lat="40.0632074" lon="15.8550556"><ele>704.0</ele><time>2026-05-02T11:21:39.716Z</time></trkpt><trkpt lat="40.0631172" lon="15.8550593"><ele>708.0</ele><time>2026-05-02T11:21:40.722Z</time></trkpt><trkpt lat="40.063033" lon="15.8550381"><ele>712.0</ele><time>2026-05-02T11:21:41.726Z</time></trkpt><trkpt lat="40.0629612" lon="15.8549894"><ele>716.0</ele><time>2026-05-02T11:21:42.719Z</time></trkpt><trkpt lat="40.0629141" lon="15.8549018"><ele>720.0</ele><time>2026-05-02T11:21:43.725Z</time></trkpt><trkpt lat="40.0629029" lon="15.8547827"><ele>720.0</ele><time>2026-05-02T11:21:44.721Z</time></trkpt><trkpt lat="40.062911" lon="15.8546392"><ele>720.0</ele><time>2026-05-02T11:21:45.73Z</time></trkpt><trkpt lat="40.0629219" lon="15.8544709"><ele>720.0</ele><time>2026-05-02T11:21:46.713Z</time></trkpt><trkpt lat="40.0629214" lon="15.8542999"><ele>720.0</ele><time>2026-05-02T11:21:47.719Z</time></trkpt><trkpt lat="40.062901" lon="15.8541357"><ele>718.5</ele><time>2026-05-02T11:21:48.715Z</time></trkpt><trkpt lat="40.0628531" lon="15.8539831"><ele>717.0</ele><time>2026-05-02T11:21:49.745Z</time></trkpt><trkpt lat="40.0627936" lon="15.8538285"><ele>715.5</ele><time>2026-05-02T11:21:50.714Z</time></trkpt><trkpt lat="40.0627172" lon="15.8536811"><ele>714.0</ele><time>2026-05-02T11:21:51.721Z</time></trkpt><trkpt lat="40.0626268" lon="15.8535446"><ele>717.75</ele><time>2026-05-02T11:21:52.717Z</time></trkpt><trkpt lat="40.0625175" lon="15.8534135"><ele>721.5</ele><time>2026-05-02T11:21:53.724Z</time></trkpt><trkpt lat="40.0624034" lon="15.8532878"><ele>725.25</ele><time>2026-05-02T11:21:54.708Z</time></trkpt><trkpt lat="40.0623001" lon="15.8531613"><ele>729.0</ele><time>2026-05-02T11:21:55.709Z</time></trkpt><trkpt lat="40.0621895" lon="15.8530538"><ele>729.0</ele><time>2026-05-02T11:21:56.713Z</time></trkpt><trkpt lat="40.0620857" lon="15.8529678"><ele>729.0</ele><time>2026-05-02T11:21:57.716Z</time></trkpt><trkpt lat="40.061997" lon="15.8528665"><ele>729.0</ele><time>2026-05-02T11:21:58.71Z</time></trkpt><trkpt lat="40.0619051" lon="15.8527546"><ele>729.0</ele><time>2026-05-02T11:21:59.717Z</time></trkpt><trkpt lat="40.0618279" lon="15.8526343"><ele>721.5</ele><time>2026-05-02T11:22:00.704Z</time></trkpt><trkpt lat="40.0617662" lon="15.8525044"><ele>714.0</ele><time>2026-05-02T11:22:01.711Z</time></trkpt><trkpt lat="40.0617246" lon="15.8523696"><ele>706.5</ele><time>2026-05-02T11:22:02.698Z</time></trkpt><trkpt lat="40.0616821" lon="15.8522326"><ele>699.0</ele><time>2026-05-02T11:22:03.71Z</time></trkpt><trkpt lat="40.0616222" lon="15.8520901"><ele>703.0</ele><time>2026-05-02T11:22:04.699Z</time></trkpt><trkpt lat="40.0615545" lon="15.851944"><ele>707.0</ele><time>2026-05-02T11:22:05.711Z</time></trkpt><trkpt lat="40.0614916" lon="15.8517997"><ele>711.0</ele><time>2026-05-02T11:22:06.706Z</time></trkpt><trkpt lat="40.0614532" lon="15.8516462"><ele>715.0</ele><time>2026-05-02T11:22:07.708Z</time></trkpt><trkpt lat="40.0614156" lon="15.8514911"><ele>715.0</ele><time>2026-05-02T11:22:08.698Z</time></trkpt><trkpt lat="40.0613658" lon="15.8513256"><ele>715.0</ele><time>2026-05-02T11:22:09.706Z</time></trkpt><trkpt lat="40.0612921" lon="15.8511536"><ele>715.0</ele><time>2026-05-02T11:22:10.715Z</time></trkpt><trkpt lat="40.0612089" lon="15.8509774"><ele>715.0</ele><time>2026-05-02T11:22:11.71Z</time></trkpt><trkpt lat="40.0611319" lon="15.8508022"><ele>710.0</ele><time>2026-05-02T11:22:12.708Z</time></trkpt><trkpt lat="40.0610672" lon="15.8506518"><ele>705.0</ele><time>2026-05-02T11:22:13.704Z</time></trkpt><trkpt lat="40.0610114" lon="15.8505288"><ele>700.0</ele><time>2026-05-02T11:22:14.713Z</time></trkpt><trkpt lat="40.0609506" lon="15.8504434"><ele>695.0</ele><time>2026-05-02T11:22:15.715Z</time></trkpt><trkpt lat="40.0608719" lon="15.8503887"><ele>690.0</ele><time>2026-05-02T11:22:16.726Z</time></trkpt><trkpt lat="40.0607646" lon="15.8503626"><ele>688.25</ele><time>2026-05-02T11:22:17.709Z</time></trkpt><trkpt lat="40.0606401" lon="15.850334"><ele>686.5</ele><time>2026-05-02T11:22:18.717Z</time></trkpt><trkpt lat="40.0604941" lon="15.8503164"><ele>684.75</ele><time>2026-05-02T11:22:19.71Z</time></trkpt><trkpt lat="40.0603448" lon="15.8503156"><ele>683.0</ele><time>2026-05-02T11:22:20.722Z</time></trkpt><trkpt lat="40.0601967" lon="15.8503273"><ele>683.0</ele><time>2026-05-02T11:22:21.71Z</time></trkpt><trkpt lat="40.0600531" lon="15.8503584"><ele>683.0</ele><time>2026-05-02T11:22:22.71Z</time></trkpt><trkpt lat="40.059918" lon="15.8503961"><ele>683.0</ele><time>2026-05-02T11:22:23.736Z</time></trkpt><trkpt lat="40.0597862" lon="15.8504311"><ele>683.0</ele><time>2026-05-02T11:22:24.708Z</time></trkpt><trkpt lat="40.0596599" lon="15.8504692"><ele>679.0</ele><time>2026-05-02T11:22:25.72Z</time></trkpt><trkpt lat="40.0595431" lon="15.8504982"><ele>675.0</ele><time>2026-05-02T11:22:26.712Z</time></trkpt><trkpt lat="40.0594319" lon="15.850531"><ele>671.0</ele><time>2026-05-02T11:22:27.707Z</time></trkpt><trkpt lat="40.0593134" lon="15.8505611"><ele>667.0</ele><time>2026-05-02T11:22:28.714Z</time></trkpt><trkpt lat="40.0591827" lon="15.8505897"><ele>666.5</ele><time>2026-05-02T11:22:29.72Z</time></trkpt><trkpt lat="40.0590407" lon="15.8506006"><ele>666.0</ele><time>2026-05-02T11:22:30.719Z</time></trkpt><trkpt lat="40.0588904" lon="15.8505876"><ele>665.5</ele><time>2026-05-02T11:22:31.721Z</time></trkpt><trkpt lat="40.058739" lon="15.850566"><ele>665.0</ele><time>2026-05-02T11:22:32.715Z</time></trkpt><trkpt lat="40.0585936" lon="15.8505408"><ele>665.0</ele><time>2026-05-02T11:22:33.724Z</time></trkpt><trkpt lat="40.0584623" lon="15.8505067"><ele>665.0</ele><time>2026-05-02T11:22:34.714Z</time></trkpt><trkpt lat="40.0583453" lon="15.8504643"><ele>665.0</ele><time>2026-05-02T11:22:35.715Z</time></trkpt><trkpt lat="40.0582396" lon="15.8503878"><ele>665.0</ele><time>2026-05-02T11:22:36.707Z</time></trkpt><trkpt lat="40.0581306" lon="15.8502826"><ele>662.5</ele><time>2026-05-02T11:22:37.725Z</time></trkpt><trkpt lat="40.0580283" lon="15.8501518"><ele>660.0</ele><time>2026-05-02T11:22:38.713Z</time></trkpt><trkpt lat="40.057938" lon="15.8500072"><ele>657.5</ele><time>2026-05-02T11:22:39.723Z</time></trkpt><trkpt lat="40.0578641" lon="15.8498757"><ele>655.0</ele><time>2026-05-02T11:22:40.71Z</time></trkpt><trkpt lat="40.0578006" lon="15.8497663"><ele>655.0</ele><time>2026-05-02T11:22:41.724Z</time></trkpt><trkpt lat="40.0577309" lon="15.8496786"><ele>655.0</ele><time>2026-05-02T11:22:42.721Z</time></trkpt><trkpt lat="40.0576589" lon="15.8496281"><ele>655.0</ele><time>2026-05-02T11:22:43.722Z</time></trkpt><trkpt lat="40.0575731" lon="15.8496228"><ele>655.0</ele><time>2026-05-02T11:22:44.704Z</time></trkpt><trkpt lat="40.0574934" lon="15.8496631"><ele>655.0</ele><time>2026-05-02T11:22:45.733Z</time></trkpt><trkpt lat="40.0574281" lon="15.8497545"><ele>655.0</ele><time>2026-05-02T11:22:46.713Z</time></trkpt><trkpt lat="40.0573657" lon="15.8498904"><ele>650.6</ele><time>2026-05-02T11:22:47.722Z</time></trkpt><trkpt lat="40.0573147" lon="15.8500266"><ele>646.2</ele><time>2026-05-02T11:22:48.719Z</time></trkpt><trkpt lat="40.0572388" lon="15.8501273"><ele>641.8</ele><time>2026-05-02T11:22:49.719Z</time></trkpt><trkpt lat="40.0571536" lon="15.8502211"><ele>637.4</ele><time>2026-05-02T11:22:50.718Z</time></trkpt><trkpt lat="40.0570771" lon="15.8503075"><ele>633.0</ele><time>2026-05-02T11:22:51.722Z</time></trkpt><trkpt lat="40.0570181" lon="15.8503935"><ele>633.0</ele><time>2026-05-02T11:22:52.728Z</time></trkpt><trkpt lat="40.056993" lon="15.8504874"><ele>633.0</ele><time>2026-05-02T11:22:53.729Z</time></trkpt><trkpt lat="40.057007" lon="15.8505939"><ele>633.0</ele><time>2026-05-02T11:22:54.716Z</time></trkpt><trkpt lat="40.0570474" lon="15.8506972"><ele>633.0</ele><time>2026-05-02T11:22:55.725Z</time></trkpt><trkpt lat="40.057118" lon="15.8507674"><ele>633.0</ele><time>2026-05-02T11:22:56.721Z</time></trkpt><trkpt lat="40.0572114" lon="15.8508032"><ele>633.0</ele><time>2026-05-02T11:22:57.718Z</time></trkpt><trkpt lat="40.0573133" lon="15.8508045"><ele>633.0</ele><time>2026-05-02T11:22:58.724Z</time></trkpt><trkpt lat="40.0573981" lon="15.8508189"><ele>633.0</ele><time>2026-05-02T11:22:59.719Z</time></trkpt><trkpt lat="40.0574606" lon="15.8508636"><ele>633.0</ele><time>2026-05-02T11:23:00.731Z</time></trkpt><trkpt lat="40.0574942" lon="15.8510139"><ele>633.0</ele><time>2026-05-02T11:23:02.73Z</time></trkpt><trkpt lat="40.0574629" lon="15.8510996"><ele>633.0</ele><time>2026-05-02T11:23:03.717Z</time></trkpt><trkpt lat="40.0574113" lon="15.8511945"><ele>633.0</ele><time>2026-05-02T11:23:04.724Z</time></trkpt><trkpt lat="40.0573458" lon="15.8513089"><ele>636.0</ele><time>2026-05-02T11:23:05.724Z</time></trkpt><trkpt lat="40.0572662" lon="15.8514314"><ele>639.0</ele><time>2026-05-02T11:23:06.727Z</time></trkpt><trkpt lat="40.0571755" lon="15.8515515"><ele>642.0</ele><time>2026-05-02T11:23:07.721Z</time></trkpt><trkpt lat="40.0570614" lon="15.8516463"><ele>645.0</ele><time>2026-05-02T11:23:08.723Z</time></trkpt><trkpt lat="40.0569196" lon="15.8517023"><ele>645.0</ele><time>2026-05-02T11:23:09.716Z</time></trkpt><trkpt lat="40.0567773" lon="15.8517387"><ele>645.0</ele><time>2026-05-02T11:23:10.709Z</time></trkpt><trkpt lat="40.0566449" lon="15.8517723"><ele>645.0</ele><time>2026-05-02T11:23:11.723Z</time></trkpt><trkpt lat="40.0565385" lon="15.851801"><ele>645.0</ele><time>2026-05-02T11:23:12.701Z</time></trkpt><trkpt lat="40.0564416" lon="15.8518178"><ele>645.5</ele><time>2026-05-02T11:23:13.71Z</time></trkpt><trkpt lat="40.0563417" lon="15.8517979"><ele>646.0</ele><time>2026-05-02T11:23:14.713Z</time></trkpt><trkpt lat="40.0562455" lon="15.8517325"><ele>646.5</ele><time>2026-05-02T11:23:15.735Z</time></trkpt><trkpt lat="40.0561528" lon="15.8516321"><ele>647.0</ele><time>2026-05-02T11:23:16.715Z</time></trkpt><trkpt lat="40.0560654" lon="15.8515007"><ele>647.0</ele><time>2026-05-02T11:23:17.72Z</time></trkpt><trkpt lat="40.0559796" lon="15.8513647"><ele>647.0</ele><time>2026-05-02T11:23:18.728Z</time></trkpt><trkpt lat="40.055899" lon="15.8512509"><ele>647.0</ele><time>2026-05-02T11:23:19.713Z</time></trkpt><trkpt lat="40.0558215" lon="15.8511764"><ele>647.0</ele><time>2026-05-02T11:23:20.711Z</time></trkpt><trkpt lat="40.055736" lon="15.8511333"><ele>647.0</ele><time>2026-05-02T11:23:21.729Z</time></trkpt><trkpt lat="40.0556264" lon="15.8511183"><ele>646.0</ele><time>2026-05-02T11:23:22.712Z</time></trkpt><trkpt lat="40.0554925" lon="15.8511561"><ele>645.0</ele><time>2026-05-02T11:23:23.713Z</time></trkpt><trkpt lat="40.0553489" lon="15.8512085"><ele>644.0</ele><time>2026-05-02T11:23:24.714Z</time></trkpt><trkpt lat="40.0551995" lon="15.8512626"><ele>643.0</ele><time>2026-05-02T11:23:25.724Z</time></trkpt><trkpt lat="40.0550581" lon="15.8513245"><ele>641.0</ele><time>2026-05-02T11:23:26.719Z</time></trkpt><trkpt lat="40.0549274" lon="15.8513958"><ele>639.0</ele><time>2026-05-02T11:23:27.708Z</time></trkpt><trkpt lat="40.0548107" lon="15.851461"><ele>637.0</ele><time>2026-05-02T11:23:28.723Z</time></trkpt><trkpt lat="40.0547133" lon="15.8515197"><ele>635.0</ele><time>2026-05-02T11:23:29.714Z</time></trkpt><trkpt lat="40.0546262" lon="15.8515662"><ele>635.0</ele><time>2026-05-02T11:23:30.71Z</time></trkpt><trkpt lat="40.0545446" lon="15.8515866"><ele>635.0</ele><time>2026-05-02T11:23:31.715Z</time></trkpt><trkpt lat="40.0544668" lon="15.8515845"><ele>635.0</ele><time>2026-05-02T11:23:32.707Z</time></trkpt><trkpt lat="40.0544013" lon="15.851534"><ele>635.0</ele><time>2026-05-02T11:23:33.711Z</time></trkpt><trkpt lat="40.0543662" lon="15.8514522"><ele>635.0</ele><time>2026-05-02T11:23:34.719Z</time></trkpt><trkpt lat="40.0543998" lon="15.8513066"><ele>635.0</ele><time>2026-05-02T11:23:36.713Z</time></trkpt><trkpt lat="40.0544688" lon="15.8512481"><ele>635.0</ele><time>2026-05-02T11:23:37.713Z</time></trkpt><trkpt lat="40.0545535" lon="15.8511985"><ele>635.0</ele><time>2026-05-02T11:23:38.716Z</time></trkpt><trkpt lat="40.0546411" lon="15.851097"><ele>635.0</ele><time>2026-05-02T11:23:39.721Z</time></trkpt><trkpt lat="40.0547247" lon="15.8509567"><ele>635.0</ele><time>2026-05-02T11:23:40.712Z</time></trkpt><trkpt lat="40.054792" lon="15.8508256"><ele>634.0</ele><time>2026-05-02T11:23:41.704Z</time></trkpt><trkpt lat="40.054845" lon="15.8507049"><ele>633.0</ele><time>2026-05-02T11:23:42.718Z</time></trkpt><trkpt lat="40.054884" lon="15.8506039"><ele>632.0</ele><time>2026-05-02T11:23:43.715Z</time></trkpt><trkpt lat="40.0548926" lon="15.8505169"><ele>631.0</ele><time>2026-05-02T11:23:44.707Z</time></trkpt><trkpt lat="40.0548476" lon="15.850427"><ele>630.0</ele><time>2026-05-02T11:23:45.727Z</time></trkpt><trkpt lat="40.0547707" lon="15.8503634"><ele>629.0</ele><time>2026-05-02T11:23:46.726Z</time></trkpt><trkpt lat="40.0546708" lon="15.850319"><ele>629.0</ele><time>2026-05-02T11:23:47.712Z</time></trkpt><trkpt lat="40.0545478" lon="15.8503017"><ele>629.0</ele><time>2026-05-02T11:23:48.716Z</time></trkpt><trkpt lat="40.0544184" lon="15.8502854"><ele>629.0</ele><time>2026-05-02T11:23:49.722Z</time></trkpt><trkpt lat="40.0542865" lon="15.850275"><ele>629.0</ele><time>2026-05-02T11:23:50.719Z</time></trkpt><trkpt lat="40.0541525" lon="15.8502448"><ele>630.75</ele><time>2026-05-02T11:23:51.713Z</time></trkpt><trkpt lat="40.0540314" lon="15.8501886"><ele>632.5</ele><time>2026-05-02T11:23:52.71Z</time></trkpt><trkpt lat="40.05392" lon="15.8501127"><ele>634.25</ele><time>2026-05-02T11:23:53.717Z</time></trkpt><trkpt lat="40.0538162" lon="15.8499975"><ele>636.0</ele><time>2026-05-02T11:23:54.701Z</time></trkpt><trkpt lat="40.053722" lon="15.8498572"><ele>636.0</ele><time>2026-05-02T11:23:55.718Z</time></trkpt><trkpt lat="40.0536419" lon="15.8496953"><ele>636.0</ele><time>2026-05-02T11:23:56.713Z</time></trkpt><trkpt lat="40.0535792" lon="15.8495134"><ele>636.0</ele><time>2026-05-02T11:23:57.719Z</time></trkpt><trkpt lat="40.0535221" lon="15.8493252"><ele>631.75</ele><time>2026-05-02T11:23:58.711Z</time></trkpt><trkpt lat="40.053466" lon="15.849141"><ele>627.5</ele><time>2026-05-02T11:23:59.715Z</time></trkpt><trkpt lat="40.0534104" lon="15.848972"><ele>623.25</ele><time>2026-05-02T11:24:00.719Z</time></trkpt><trkpt lat="40.0533587" lon="15.8488065"><ele>619.0</ele><time>2026-05-02T11:24:01.714Z</time></trkpt><trkpt lat="40.053321" lon="15.8486484"><ele>619.0</ele><time>2026-05-02T11:24:02.719Z</time></trkpt><trkpt lat="40.0532926" lon="15.8484961"><ele>619.0</ele><time>2026-05-02T11:24:03.712Z</time></trkpt><trkpt lat="40.0532623" lon="15.8483567"><ele>619.0</ele><time>2026-05-02T11:24:04.707Z</time></trkpt><trkpt lat="40.0532295" lon="15.8482128"><ele>619.0</ele><time>2026-05-02T11:24:05.714Z</time></trkpt><trkpt lat="40.053195" lon="15.8480728"><ele>619.2</ele><time>2026-05-02T11:24:06.713Z</time></trkpt><trkpt lat="40.0531561" lon="15.8479452"><ele>619.4</ele><time>2026-05-02T11:24:07.719Z</time></trkpt><trkpt lat="40.0531165" lon="15.8478268"><ele>619.6</ele><time>2026-05-02T11:24:08.71Z</time></trkpt><trkpt lat="40.0530759" lon="15.8477181"><ele>619.8</ele><time>2026-05-02T11:24:09.706Z</time></trkpt><trkpt lat="40.0530238" lon="15.847628"><ele>620.0</ele><time>2026-05-02T11:24:10.716Z</time></trkpt><trkpt lat="40.0529729" lon="15.8475399"><ele>616.0</ele><time>2026-05-02T11:24:11.707Z</time></trkpt><trkpt lat="40.0529096" lon="15.8474556"><ele>612.0</ele><time>2026-05-02T11:24:12.704Z</time></trkpt><trkpt lat="40.0528243" lon="15.8473849"><ele>608.0</ele><time>2026-05-02T11:24:13.707Z</time></trkpt><trkpt lat="40.0527291" lon="15.8473251"><ele>604.0</ele><time>2026-05-02T11:24:14.71Z</time></trkpt><trkpt lat="40.0526506" lon="15.8472599"><ele>600.0</ele><time>2026-05-02T11:24:15.71Z</time></trkpt><trkpt lat="40.0525854" lon="15.8471741"><ele>600.0</ele><time>2026-05-02T11:24:16.718Z</time></trkpt><trkpt lat="40.0525362" lon="15.8470711"><ele>600.0</ele><time>2026-05-02T11:24:17.718Z</time></trkpt><trkpt lat="40.0525029" lon="15.8469322"><ele>600.0</ele><time>2026-05-02T11:24:18.712Z</time></trkpt><trkpt lat="40.0524752" lon="15.8467788"><ele>600.0</ele><time>2026-05-02T11:24:19.712Z</time></trkpt><trkpt lat="40.0524508" lon="15.8466117"><ele>605.25</ele><time>2026-05-02T11:24:20.714Z</time></trkpt><trkpt lat="40.0524102" lon="15.84645"><ele>610.5</ele><time>2026-05-02T11:24:21.713Z</time></trkpt><trkpt lat="40.0523535" lon="15.8462966"><ele>615.75</ele><time>2026-05-02T11:24:22.717Z</time></trkpt><trkpt lat="40.0522778" lon="15.8461585"><ele>621.0</ele><time>2026-05-02T11:24:23.721Z</time></trkpt><trkpt lat="40.0521861" lon="15.8460329"><ele>615.75</ele><time>2026-05-02T11:24:24.716Z</time></trkpt><trkpt lat="40.0520868" lon="15.8458936"><ele>610.5</ele><time>2026-05-02T11:24:25.726Z</time></trkpt><trkpt lat="40.0520003" lon="15.8457455"><ele>605.25</ele><time>2026-05-02T11:24:26.709Z</time></trkpt><trkpt lat="40.0519215" lon="15.8455982"><ele>600.0</ele><time>2026-05-02T11:24:27.71Z</time></trkpt><trkpt lat="40.0518501" lon="15.8454578"><ele>600.0</ele><time>2026-05-02T11:24:28.708Z</time></trkpt><trkpt lat="40.0517801" lon="15.8453139"><ele>600.0</ele><time>2026-05-02T11:24:29.718Z</time></trkpt><trkpt lat="40.0517037" lon="15.8451665"><ele>600.0</ele><time>2026-05-02T11:24:30.716Z</time></trkpt><trkpt lat="40.0516243" lon="15.8450003"><ele>600.0</ele><time>2026-05-02T11:24:31.709Z</time></trkpt><trkpt lat="40.0515475" lon="15.8448229"><ele>597.6666666666666</ele><time>2026-05-02T11:24:32.72Z</time></trkpt><trkpt lat="40.0514653" lon="15.8446388"><ele>595.3333333333333</ele><time>2026-05-02T11:24:33.709Z</time></trkpt><trkpt lat="40.0513777" lon="15.8444656"><ele>593.0</ele><time>2026-05-02T11:24:34.717Z</time></trkpt><trkpt lat="40.051293" lon="15.8442955"><ele>593.0</ele><time>2026-05-02T11:24:35.733Z</time></trkpt><trkpt lat="40.051211" lon="15.844136"><ele>593.0</ele><time>2026-05-02T11:24:36.71Z</time></trkpt><trkpt lat="40.0511428" lon="15.8439913"><ele>593.0</ele><time>2026-05-02T11:24:37.707Z</time></trkpt><trkpt lat="40.0510792" lon="15.8438599"><ele>593.0</ele><time>2026-05-02T11:24:38.71Z</time></trkpt><trkpt lat="40.0510127" lon="15.8437527"><ele>593.0</ele><time>2026-05-02T11:24:39.71Z</time></trkpt><trkpt lat="40.050922" lon="15.8436688"><ele>593.0</ele><time>2026-05-02T11:24:40.702Z</time></trkpt><trkpt lat="40.0507999" lon="15.8435798"><ele>593.0</ele><time>2026-05-02T11:24:41.715Z</time></trkpt><trkpt lat="40.0506581" lon="15.8435132"><ele>593.0</ele><time>2026-05-02T11:24:42.708Z</time></trkpt><trkpt lat="40.0505306" lon="15.8433804"><ele>591.0</ele><time>2026-05-02T11:24:43.703Z</time></trkpt><trkpt lat="40.0504082" lon="15.8432199"><ele>589.0</ele><time>2026-05-02T11:24:44.713Z</time></trkpt><trkpt lat="40.0502885" lon="15.843077"><ele>587.0</ele><time>2026-05-02T11:24:45.708Z</time></trkpt><trkpt lat="40.0501839" lon="15.8429477"><ele>587.0</ele><time>2026-05-02T11:24:46.707Z</time></trkpt><trkpt lat="40.0500959" lon="15.8428203"><ele>587.0</ele><time>2026-05-02T11:24:47.715Z</time></trkpt><trkpt lat="40.0500168" lon="15.8427179"><ele>587.0</ele><time>2026-05-02T11:24:48.706Z</time></trkpt><trkpt lat="40.0499509" lon="15.8426205"><ele>587.0</ele><time>2026-05-02T11:24:49.71Z</time></trkpt><trkpt lat="40.0498774" lon="15.8425697"><ele>587.0</ele><time>2026-05-02T11:24:50.709Z</time></trkpt><trkpt lat="40.0497786" lon="15.8425465"><ele>583.8000000000001</ele><time>2026-05-02T11:24:51.712Z</time></trkpt><trkpt lat="40.04969" lon="15.8425426"><ele>580.6</ele><time>2026-05-02T11:24:52.709Z</time></trkpt><trkpt lat="40.0496011" lon="15.8425665"><ele>577.4000000000001</ele><time>2026-05-02T11:24:53.712Z</time></trkpt><trkpt lat="40.0495104" lon="15.8426295"><ele>574.2</ele><time>2026-05-02T11:24:54.71Z</time></trkpt><trkpt lat="40.0494192" lon="15.8427115"><ele>571.0</ele><time>2026-05-02T11:24:55.698Z</time></trkpt><trkpt lat="40.0493222" lon="15.8428018"><ele>571.0</ele><time>2026-05-02T11:24:56.701Z</time></trkpt><trkpt lat="40.0492347" lon="15.8428889"><ele>571.0</ele><time>2026-05-02T11:24:57.704Z</time></trkpt><trkpt lat="40.0491527" lon="15.8429669"><ele>571.0</ele><time>2026-05-02T11:24:58.707Z</time></trkpt><trkpt lat="40.0490859" lon="15.8430273"><ele>571.0</ele><time>2026-05-02T11:24:59.703Z</time></trkpt><trkpt lat="40.0490237" lon="15.8430639"><ele>571.0</ele><time>2026-05-02T11:25:00.722Z</time></trkpt><trkpt lat="40.0489173" lon="15.8430332"><ele>570.4</ele><time>2026-05-02T11:25:02.708Z</time></trkpt><trkpt lat="40.0488687" lon="15.8429736"><ele>569.8</ele><time>2026-05-02T11:25:03.696Z</time></trkpt><trkpt lat="40.0488187" lon="15.8429099"><ele>569.1999999999999</ele><time>2026-05-02T11:25:04.707Z</time></trkpt><trkpt lat="40.0487616" lon="15.8428291"><ele>568.6</ele><time>2026-05-02T11:25:05.712Z</time></trkpt><trkpt lat="40.0486881" lon="15.8427217"><ele>568.0</ele><time>2026-05-02T11:25:06.71Z</time></trkpt><trkpt lat="40.0486013" lon="15.8426122"><ele>568.0</ele><time>2026-05-02T11:25:07.694Z</time></trkpt><trkpt lat="40.0485056" lon="15.842474"><ele>568.0</ele><time>2026-05-02T11:25:08.701Z</time></trkpt><trkpt lat="40.0484033" lon="15.8423267"><ele>568.0</ele><time>2026-05-02T11:25:09.708Z</time></trkpt><trkpt lat="40.0482943" lon="15.8421693"><ele>582.3333333333334</ele><time>2026-05-02T11:25:10.706Z</time></trkpt><trkpt lat="40.048185" lon="15.8420109"><ele>596.6666666666666</ele><time>2026-05-02T11:25:11.702Z</time></trkpt><trkpt lat="40.0480852" lon="15.8418527"><ele>611.0</ele><time>2026-05-02T11:25:12.707Z</time></trkpt><trkpt lat="40.0479893" lon="15.8417034"><ele>611.0</ele><time>2026-05-02T11:25:13.701Z</time></trkpt><trkpt lat="40.0478997" lon="15.8415577"><ele>611.0</ele><time>2026-05-02T11:25:14.699Z</time></trkpt><trkpt lat="40.0478106" lon="15.8414141"><ele>611.0</ele><time>2026-05-02T11:25:15.702Z</time></trkpt><trkpt lat="40.0477165" lon="15.8412694"><ele>611.0</ele><time>2026-05-02T11:25:16.705Z</time></trkpt><trkpt lat="40.0476194" lon="15.8411174"><ele>611.0</ele><time>2026-05-02T11:25:17.709Z</time></trkpt><trkpt lat="40.047524" lon="15.8409689"><ele>611.0</ele><time>2026-05-02T11:25:18.706Z</time></trkpt><trkpt lat="40.0474329" lon="15.8408318"><ele>611.0</ele><time>2026-05-02T11:25:19.705Z</time></trkpt><trkpt lat="40.0473469" lon="15.8407053"><ele>611.0</ele><time>2026-05-02T11:25:20.711Z</time></trkpt><trkpt lat="40.047266" lon="15.8405862"><ele>606.2</ele><time>2026-05-02T11:25:21.7Z</time></trkpt><trkpt lat="40.0471933" lon="15.8404725"><ele>601.4000000000001</ele><time>2026-05-02T11:25:22.715Z</time></trkpt><trkpt lat="40.0471245" lon="15.8403656"><ele>596.6</ele><time>2026-05-02T11:25:23.711Z</time></trkpt><trkpt lat="40.0470556" lon="15.8402613"><ele>591.8000000000001</ele><time>2026-05-02T11:25:24.704Z</time></trkpt><trkpt lat="40.0469816" lon="15.8401559"><ele>587.0</ele><time>2026-05-02T11:25:25.707Z</time></trkpt><trkpt lat="40.0469051" lon="15.8400596"><ele>579.6</ele><time>2026-05-02T11:25:26.713Z</time></trkpt><trkpt lat="40.0468283" lon="15.839971"><ele>572.2</ele><time>2026-05-02T11:25:27.709Z</time></trkpt><trkpt lat="40.0467541" lon="15.8398873"><ele>564.8</ele><time>2026-05-02T11:25:28.699Z</time></trkpt><trkpt lat="40.0466816" lon="15.8398042"><ele>557.4</ele><time>2026-05-02T11:25:29.716Z</time></trkpt><trkpt lat="40.0466114" lon="15.8397169"><ele>550.0</ele><time>2026-05-02T11:25:30.713Z</time></trkpt><trkpt lat="40.046547" lon="15.8396231"><ele>548.5</ele><time>2026-05-02T11:25:31.715Z</time></trkpt><trkpt lat="40.0464836" lon="15.8395316"><ele>547.0</ele><time>2026-05-02T11:25:32.712Z</time></trkpt><trkpt lat="40.0464278" lon="15.8394431"><ele>545.5</ele><time>2026-05-02T11:25:33.717Z</time></trkpt><trkpt lat="40.046373" lon="15.839361"><ele>544.0</ele><time>2026-05-02T11:25:34.718Z</time></trkpt><trkpt lat="40.0463182" lon="15.8392912"><ele>542.5</ele><time>2026-05-02T11:25:35.702Z</time></trkpt><trkpt lat="40.0462413" lon="15.8392464"><ele>541.0</ele><time>2026-05-02T11:25:36.709Z</time></trkpt><trkpt lat="40.0461444" lon="15.8392367"><ele>541.0</ele><time>2026-05-02T11:25:37.718Z</time></trkpt><trkpt lat="40.0460524" lon="15.839272"><ele>541.0</ele><time>2026-05-02T11:25:38.716Z</time></trkpt><trkpt lat="40.0459726" lon="15.8393553"><ele>541.0</ele><time>2026-05-02T11:25:39.717Z</time></trkpt><trkpt lat="40.0459136" lon="15.8394756"><ele>541.0</ele><time>2026-05-02T11:25:40.706Z</time></trkpt><trkpt lat="40.0458633" lon="15.8396108"><ele>541.0</ele><time>2026-05-02T11:25:41.703Z</time></trkpt><trkpt lat="40.0458239" lon="15.8397651"><ele>542.5</ele><time>2026-05-02T11:25:42.714Z</time></trkpt><trkpt lat="40.0457797" lon="15.8399271"><ele>544.0</ele><time>2026-05-02T11:25:43.721Z</time></trkpt><trkpt lat="40.0457307" lon="15.8400957"><ele>545.5</ele><time>2026-05-02T11:25:44.716Z</time></trkpt><trkpt lat="40.0456787" lon="15.8402686"><ele>547.0</ele><time>2026-05-02T11:25:45.724Z</time></trkpt><trkpt lat="40.0456267" lon="15.84045"><ele>547.0</ele><time>2026-05-02T11:25:46.71Z</time></trkpt><trkpt lat="40.0455571" lon="15.8406307"><ele>547.0</ele><time>2026-05-02T11:25:47.711Z</time></trkpt><trkpt lat="40.0454761" lon="15.8408102"><ele>547.0</ele><time>2026-05-02T11:25:48.701Z</time></trkpt><trkpt lat="40.0453858" lon="15.8409782"><ele>546.25</ele><time>2026-05-02T11:25:49.718Z</time></trkpt><trkpt lat="40.0452943" lon="15.8411212"><ele>545.5</ele><time>2026-05-02T11:25:50.714Z</time></trkpt><trkpt lat="40.0452129" lon="15.8412455"><ele>544.75</ele><time>2026-05-02T11:25:51.71Z</time></trkpt><trkpt lat="40.0451311" lon="15.8413443"><ele>544.0</ele><time>2026-05-02T11:25:52.718Z</time></trkpt><trkpt lat="40.0450255" lon="15.8414143"><ele>548.25</ele><time>2026-05-02T11:25:53.722Z</time></trkpt><trkpt lat="40.0449136" lon="15.8414919"><ele>552.5</ele><time>2026-05-02T11:25:54.711Z</time></trkpt><trkpt lat="40.0447984" lon="15.8415691"><ele>556.75</ele><time>2026-05-02T11:25:55.708Z</time></trkpt><trkpt lat="40.0446851" lon="15.8416713"><ele>561.0</ele><time>2026-05-02T11:25:56.713Z</time></trkpt><trkpt lat="40.0445845" lon="15.8418051"><ele>561.0</ele><time>2026-05-02T11:25:57.707Z</time></trkpt><trkpt lat="40.0445007" lon="15.8419598"><ele>561.0</ele><time>2026-05-02T11:25:58.714Z</time></trkpt><trkpt lat="40.0444248" lon="15.8421258"><ele>561.0</ele><time>2026-05-02T11:25:59.703Z</time></trkpt><trkpt lat="40.044347" lon="15.8422995"><ele>561.0</ele><time>2026-05-02T11:26:00.711Z</time></trkpt><trkpt lat="40.0442614" lon="15.842476"><ele>558.3333333333334</ele><time>2026-05-02T11:26:01.725Z</time></trkpt><trkpt lat="40.0441677" lon="15.8426551"><ele>555.6666666666667</ele><time>2026-05-02T11:26:02.71Z</time></trkpt><trkpt lat="40.0440773" lon="15.8428333"><ele>553.0</ele><time>2026-05-02T11:26:03.714Z</time></trkpt><trkpt lat="40.0439887" lon="15.8430181"><ele>553.6666666666667</ele><time>2026-05-02T11:26:04.706Z</time></trkpt><trkpt lat="40.043893" lon="15.8432066"><ele>554.3333333333334</ele><time>2026-05-02T11:26:05.708Z</time></trkpt><trkpt lat="40.0437952" lon="15.8433977"><ele>555.0</ele><time>2026-05-02T11:26:06.716Z</time></trkpt><trkpt lat="40.043698" lon="15.8435922"><ele>555.0</ele><time>2026-05-02T11:26:07.708Z</time></trkpt><trkpt lat="40.0436016" lon="15.8437867"><ele>555.0</ele><time>2026-05-02T11:26:08.71Z</time></trkpt><trkpt lat="40.0435151" lon="15.8439669"><ele>555.0</ele><time>2026-05-02T11:26:09.71Z</time></trkpt><trkpt lat="40.0434373" lon="15.8441331"><ele>555.0</ele><time>2026-05-02T11:26:10.708Z</time></trkpt><trkpt lat="40.0433642" lon="15.8442806"><ele>555.0</ele><time>2026-05-02T11:26:11.708Z</time></trkpt><trkpt lat="40.0433011" lon="15.8444147"><ele>555.0</ele><time>2026-05-02T11:26:12.714Z</time></trkpt><trkpt lat="40.0432496" lon="15.8445383"><ele>555.0</ele><time>2026-05-02T11:26:13.711Z</time></trkpt><trkpt lat="40.0432239" lon="15.8446504"><ele>557.0</ele><time>2026-05-02T11:26:14.72Z</time></trkpt><trkpt lat="40.0432205" lon="15.844754"><ele>559.0</ele><time>2026-05-02T11:26:15.71Z</time></trkpt><trkpt lat="40.0432445" lon="15.8448401"><ele>561.0</ele><time>2026-05-02T11:26:16.702Z</time></trkpt><trkpt lat="40.0432769" lon="15.844912"><ele>563.0</ele><time>2026-05-02T11:26:17.715Z</time></trkpt><trkpt lat="40.0433402" lon="15.8450403"><ele>565.0</ele><time>2026-05-02T11:26:19.709Z</time></trkpt><trkpt lat="40.0433897" lon="15.8451403"><ele>567.0</ele><time>2026-05-02T11:26:21.711Z</time></trkpt><trkpt lat="40.0434438" lon="15.8452539"><ele>567.6666666666666</ele><time>2026-05-02T11:26:23.714Z</time></trkpt><trkpt lat="40.0434671" lon="15.8454088"><ele>568.3333333333334</ele><time>2026-05-02T11:26:25.703Z</time></trkpt><trkpt lat="40.0434557" lon="15.845497"><ele>569.0</ele><time>2026-05-02T11:26:26.718Z</time></trkpt><trkpt lat="40.0434226" lon="15.8455868"><ele>569.6666666666667</ele><time>2026-05-02T11:26:27.719Z</time></trkpt><trkpt lat="40.0433696" lon="15.8456637"><ele>570.3333333333334</ele><time>2026-05-02T11:26:28.706Z</time></trkpt><trkpt lat="40.0433151" lon="15.8457296"><ele>571.0</ele><time>2026-05-02T11:26:29.709Z</time></trkpt><trkpt lat="40.0432664" lon="15.8457838"><ele>578.6</ele><time>2026-05-02T11:26:30.712Z</time></trkpt><trkpt lat="40.0431946" lon="15.8458874"><ele>586.2</ele><time>2026-05-02T11:26:32.711Z</time></trkpt><trkpt lat="40.0431431" lon="15.846005"><ele>593.8</ele><time>2026-05-02T11:26:34.704Z</time></trkpt><trkpt lat="40.0431148" lon="15.8461376"><ele>601.4</ele><time>2026-05-02T11:26:36.712Z</time></trkpt><trkpt lat="40.0430993" lon="15.8462945"><ele>609.0</ele><time>2026-05-02T11:26:38.712Z</time></trkpt><trkpt lat="40.0430817" lon="15.8463933"><ele>609.2</ele><time>2026-05-02T11:26:39.705Z</time></trkpt><trkpt lat="40.0430608" lon="15.8465133"><ele>609.4</ele><time>2026-05-02T11:26:40.721Z</time></trkpt><trkpt lat="40.0430302" lon="15.8466435"><ele>609.6</ele><time>2026-05-02T11:26:41.708Z</time></trkpt><trkpt lat="40.0429971" lon="15.84679"><ele>609.8</ele><time>2026-05-02T11:26:42.718Z</time></trkpt><trkpt lat="40.0429606" lon="15.8469492"><ele>610.0</ele><time>2026-05-02T11:26:43.718Z</time></trkpt><trkpt lat="40.0429176" lon="15.8471167"><ele>607.6666666666667</ele><time>2026-05-02T11:26:44.722Z</time></trkpt><trkpt lat="40.0428656" lon="15.8472936"><ele>605.3333333333334</ele><time>2026-05-02T11:26:45.718Z</time></trkpt><trkpt lat="40.0427972" lon="15.8474688"><ele>603.0</ele><time>2026-05-02T11:26:46.713Z</time></trkpt><trkpt lat="40.0427221" lon="15.8476481"><ele>602.0</ele><time>2026-05-02T11:26:47.71Z</time></trkpt><trkpt lat="40.0426575" lon="15.8478419"><ele>601.0</ele><time>2026-05-02T11:26:48.705Z</time></trkpt><trkpt lat="40.0426072" lon="15.848048"><ele>600.0</ele><time>2026-05-02T11:26:49.709Z</time></trkpt><trkpt lat="40.0425613" lon="15.848242"><ele>600.0</ele><time>2026-05-02T11:26:50.715Z</time></trkpt><trkpt lat="40.0425266" lon="15.8484173"><ele>600.0</ele><time>2026-05-02T11:26:51.722Z</time></trkpt><trkpt lat="40.0425149" lon="15.848593"><ele>600.0</ele><time>2026-05-02T11:26:52.711Z</time></trkpt><trkpt lat="40.0425251" lon="15.8487819"><ele>600.0</ele><time>2026-05-02T11:26:53.704Z</time></trkpt><trkpt lat="40.0425561" lon="15.8489779"><ele>602.3333333333334</ele><time>2026-05-02T11:26:54.712Z</time></trkpt><trkpt lat="40.042609" lon="15.8491755"><ele>604.6666666666667</ele><time>2026-05-02T11:26:55.709Z</time></trkpt><trkpt lat="40.0426644" lon="15.8493783"><ele>607.0</ele><time>2026-05-02T11:26:56.702Z</time></trkpt><trkpt lat="40.0427104" lon="15.8495864"><ele>609.6666666666667</ele><time>2026-05-02T11:26:57.718Z</time></trkpt><trkpt lat="40.0427584" lon="15.8497876"><ele>612.3333333333334</ele><time>2026-05-02T11:26:58.714Z</time></trkpt><trkpt lat="40.0428131" lon="15.8499759"><ele>615.0</ele><time>2026-05-02T11:26:59.715Z</time></trkpt><trkpt lat="40.0428703" lon="15.8501558"><ele>621.3333333333334</ele><time>2026-05-02T11:27:00.713Z</time></trkpt><trkpt lat="40.0429267" lon="15.8503462"><ele>627.6666666666667</ele><time>2026-05-02T11:27:01.712Z</time></trkpt><trkpt lat="40.0429687" lon="15.8505508"><ele>634.0</ele><time>2026-05-02T11:27:02.71Z</time></trkpt><trkpt lat="40.042997" lon="15.8507617"><ele>631.0</ele><time>2026-05-02T11:27:03.717Z</time></trkpt><trkpt lat="40.0430154" lon="15.8509668"><ele>628.0</ele><time>2026-05-02T11:27:04.713Z</time></trkpt><trkpt lat="40.0430188" lon="15.8511633"><ele>625.0</ele><time>2026-05-02T11:27:05.728Z</time></trkpt><trkpt lat="40.0429951" lon="15.8513513"><ele>625.0</ele><time>2026-05-02T11:27:06.714Z</time></trkpt><trkpt lat="40.0429487" lon="15.8515381"><ele>625.0</ele><time>2026-05-02T11:27:07.719Z</time></trkpt><trkpt lat="40.0428811" lon="15.8517223"><ele>625.0</ele><time>2026-05-02T11:27:08.706Z</time></trkpt><trkpt lat="40.0427987" lon="15.8518952"><ele>625.8</ele><time>2026-05-02T11:27:09.725Z</time></trkpt><trkpt lat="40.042716" lon="15.8520409"><ele>626.6</ele><time>2026-05-02T11:27:10.707Z</time></trkpt><trkpt lat="40.0426413" lon="15.8521393"><ele>627.4</ele><time>2026-05-02T11:27:11.715Z</time></trkpt><trkpt lat="40.0425653" lon="15.8522028"><ele>628.2</ele><time>2026-05-02T11:27:12.716Z</time></trkpt><trkpt lat="40.0424727" lon="15.852243"><ele>629.0</ele><time>2026-05-02T11:27:13.708Z</time></trkpt><trkpt lat="40.0423758" lon="15.8522806"><ele>629.0</ele><time>2026-05-02T11:27:14.719Z</time></trkpt><trkpt lat="40.0422891" lon="15.8523176"><ele>629.0</ele><time>2026-05-02T11:27:15.723Z</time></trkpt><trkpt lat="40.0422269" lon="15.8524322"><ele>629.0</ele><time>2026-05-02T11:27:16.724Z</time></trkpt><trkpt lat="40.0422021" lon="15.8526228"><ele>629.0</ele><time>2026-05-02T11:27:17.714Z</time></trkpt><trkpt lat="40.0421955" lon="15.852808"><ele>631.0</ele><time>2026-05-02T11:27:18.719Z</time></trkpt><trkpt lat="40.0422022" lon="15.853005"><ele>633.0</ele><time>2026-05-02T11:27:19.724Z</time></trkpt><trkpt lat="40.0422071" lon="15.8532148"><ele>635.0</ele><time>2026-05-02T11:27:20.713Z</time></trkpt><trkpt lat="40.0422104" lon="15.8534333"><ele>636.3333333333333</ele><time>2026-05-02T11:27:21.715Z</time></trkpt><trkpt lat="40.0422185" lon="15.8536607"><ele>637.6666666666666</ele><time>2026-05-02T11:27:22.706Z</time></trkpt><trkpt lat="40.0422366" lon="15.8538988"><ele>639.0</ele><time>2026-05-02T11:27:23.724Z</time></trkpt><trkpt lat="40.0422554" lon="15.8541269"><ele>634.75</ele><time>2026-05-02T11:27:24.712Z</time></trkpt><trkpt lat="40.0422656" lon="15.8543126"><ele>630.5</ele><time>2026-05-02T11:27:25.704Z</time></trkpt><trkpt lat="40.0422747" lon="15.85447"><ele>626.25</ele><time>2026-05-02T11:27:26.709Z</time></trkpt><trkpt lat="40.042268" lon="15.8546101"><ele>622.0</ele><time>2026-05-02T11:27:27.716Z</time></trkpt><trkpt lat="40.0422572" lon="15.8547479"><ele>622.0</ele><time>2026-05-02T11:27:28.715Z</time></trkpt><trkpt lat="40.0422203" lon="15.8548783"><ele>622.0</ele><time>2026-05-02T11:27:29.712Z</time></trkpt><trkpt lat="40.0421284" lon="15.8549908"><ele>622.0</ele><time>2026-05-02T11:27:30.712Z</time></trkpt><trkpt lat="40.0420033" lon="15.8550679"><ele>622.0</ele><time>2026-05-02T11:27:31.706Z</time></trkpt><trkpt lat="40.0418796" lon="15.8551161"><ele>621.5</ele><time>2026-05-02T11:27:32.702Z</time></trkpt><trkpt lat="40.0417367" lon="15.855133"><ele>621.0</ele><time>2026-05-02T11:27:33.712Z</time></trkpt><trkpt lat="40.0415888" lon="15.8551173"><ele>620.5</ele><time>2026-05-02T11:27:34.722Z</time></trkpt><trkpt lat="40.041442" lon="15.8550797"><ele>620.0</ele><time>2026-05-02T11:27:35.72Z</time></trkpt><trkpt lat="40.041307" lon="15.8550401"><ele>620.0</ele><time>2026-05-02T11:27:36.718Z</time></trkpt><trkpt lat="40.041188" lon="15.8550052"><ele>620.0</ele><time>2026-05-02T11:27:37.714Z</time></trkpt><trkpt lat="40.0411039" lon="15.85495"><ele>620.0</ele><time>2026-05-02T11:27:38.724Z</time></trkpt><trkpt lat="40.0410419" lon="15.8548478"><ele>620.0</ele><time>2026-05-02T11:27:39.726Z</time></trkpt><trkpt lat="40.0409798" lon="15.8547106"><ele>620.0</ele><time>2026-05-02T11:27:40.714Z</time></trkpt><trkpt lat="40.0409217" lon="15.8545558"><ele>620.0</ele><time>2026-05-02T11:27:41.728Z</time></trkpt><trkpt lat="40.0408684" lon="15.8544215"><ele>620.0</ele><time>2026-05-02T11:27:42.719Z</time></trkpt><trkpt lat="40.0408001" lon="15.8543474"><ele>620.0</ele><time>2026-05-02T11:27:43.719Z</time></trkpt><trkpt lat="40.0407258" lon="15.8543145"><ele>620.0</ele><time>2026-05-02T11:27:44.714Z</time></trkpt><trkpt lat="40.040646" lon="15.8543148"><ele>620.0</ele><time>2026-05-02T11:27:45.725Z</time></trkpt><trkpt lat="40.0405539" lon="15.8543446"><ele>620.75</ele><time>2026-05-02T11:27:46.721Z</time></trkpt><trkpt lat="40.0404544" lon="15.8543999"><ele>621.5</ele><time>2026-05-02T11:27:47.725Z</time></trkpt><trkpt lat="40.0403548" lon="15.854461"><ele>622.25</ele><time>2026-05-02T11:27:48.723Z</time></trkpt><trkpt lat="40.0402437" lon="15.8545157"><ele>623.0</ele><time>2026-05-02T11:27:49.723Z</time></trkpt><trkpt lat="40.0401269" lon="15.854554"><ele>623.0</ele><time>2026-05-02T11:27:50.719Z</time></trkpt><trkpt lat="40.0400007" lon="15.8545705"><ele>623.0</ele><time>2026-05-02T11:27:51.718Z</time></trkpt><trkpt lat="40.0398672" lon="15.8545626"><ele>623.0</ele><time>2026-05-02T11:27:52.707Z</time></trkpt><trkpt lat="40.0397262" lon="15.8545444"><ele>623.0</ele><time>2026-05-02T11:27:53.721Z</time></trkpt><trkpt lat="40.0395836" lon="15.8545081"><ele>624.25</ele><time>2026-05-02T11:27:54.72Z</time></trkpt><trkpt lat="40.0394408" lon="15.8544731"><ele>625.5</ele><time>2026-05-02T11:27:55.722Z</time></trkpt><trkpt lat="40.0393116" lon="15.8544602"><ele>626.75</ele><time>2026-05-02T11:27:56.715Z</time></trkpt><trkpt lat="40.0391932" lon="15.8544734"><ele>628.0</ele><time>2026-05-02T11:27:57.714Z</time></trkpt><trkpt lat="40.039084" lon="15.8545126"><ele>631.25</ele><time>2026-05-02T11:27:58.728Z</time></trkpt><trkpt lat="40.038983" lon="15.85459"><ele>634.5</ele><time>2026-05-02T11:27:59.721Z</time></trkpt><trkpt lat="40.0388945" lon="15.8546947"><ele>637.75</ele><time>2026-05-02T11:28:00.713Z</time></trkpt><trkpt lat="40.0388183" lon="15.854819"><ele>641.0</ele><time>2026-05-02T11:28:01.718Z</time></trkpt><trkpt lat="40.0387529" lon="15.85496"><ele>640.5</ele><time>2026-05-02T11:28:02.715Z</time></trkpt><trkpt lat="40.0386973" lon="15.8551225"><ele>640.0</ele><time>2026-05-02T11:28:03.719Z</time></trkpt><trkpt lat="40.038663" lon="15.855295"><ele>639.5</ele><time>2026-05-02T11:28:04.717Z</time></trkpt><trkpt lat="40.0386276" lon="15.8554705"><ele>639.0</ele><time>2026-05-02T11:28:05.734Z</time></trkpt><trkpt lat="40.0385809" lon="15.855637"><ele>639.0</ele><time>2026-05-02T11:28:06.723Z</time></trkpt><trkpt lat="40.0385291" lon="15.8557914"><ele>639.0</ele><time>2026-05-02T11:28:07.721Z</time></trkpt><trkpt lat="40.0384697" lon="15.8559249"><ele>639.0</ele><time>2026-05-02T11:28:08.715Z</time></trkpt><trkpt lat="40.0384066" lon="15.8560218"><ele>639.0</ele><time>2026-05-02T11:28:09.724Z</time></trkpt><trkpt lat="40.038326" lon="15.856092"><ele>639.0</ele><time>2026-05-02T11:28:10.715Z</time></trkpt><trkpt lat="40.0382187" lon="15.856132"><ele>637.25</ele><time>2026-05-02T11:28:11.721Z</time></trkpt><trkpt lat="40.0380917" lon="15.8561578"><ele>635.5</ele><time>2026-05-02T11:28:12.725Z</time></trkpt><trkpt lat="40.0379608" lon="15.8561595"><ele>633.75</ele><time>2026-05-02T11:28:13.722Z</time></trkpt><trkpt lat="40.0378159" lon="15.8561357"><ele>632.0</ele><time>2026-05-02T11:28:14.72Z</time></trkpt><trkpt lat="40.037658" lon="15.8561009"><ele>632.0</ele><time>2026-05-02T11:28:15.718Z</time></trkpt><trkpt lat="40.0374973" lon="15.8560631"><ele>632.0</ele><time>2026-05-02T11:28:16.727Z</time></trkpt><trkpt lat="40.0373324" lon="15.8560263"><ele>632.0</ele><time>2026-05-02T11:28:17.74Z</time></trkpt><trkpt lat="40.0371608" lon="15.855992"><ele>636.6666666666666</ele><time>2026-05-02T11:28:18.712Z</time></trkpt><trkpt lat="40.0369813" lon="15.8559514"><ele>641.3333333333334</ele><time>2026-05-02T11:28:19.75Z</time></trkpt><trkpt lat="40.0368039" lon="15.855903"><ele>646.0</ele><time>2026-05-02T11:28:20.73Z</time></trkpt><trkpt lat="40.0366273" lon="15.8558477"><ele>646.0</ele><time>2026-05-02T11:28:21.723Z</time></trkpt><trkpt lat="40.0364543" lon="15.8558"><ele>646.0</ele><time>2026-05-02T11:28:22.719Z</time></trkpt><trkpt lat="40.0362931" lon="15.8557688"><ele>646.0</ele><time>2026-05-02T11:28:23.742Z</time></trkpt><trkpt lat="40.0361491" lon="15.8557474"><ele>646.0</ele><time>2026-05-02T11:28:24.728Z</time></trkpt><trkpt lat="40.0360222" lon="15.8557358"><ele>646.0</ele><time>2026-05-02T11:28:25.722Z</time></trkpt><trkpt lat="40.0359054" lon="15.8557534"><ele>646.0</ele><time>2026-05-02T11:28:26.725Z</time></trkpt><trkpt lat="40.0357941" lon="15.8557891"><ele>646.0</ele><time>2026-05-02T11:28:27.716Z</time></trkpt><trkpt lat="40.0356777" lon="15.8558557"><ele>647.5</ele><time>2026-05-02T11:28:28.726Z</time></trkpt><trkpt lat="40.0355664" lon="15.8559615"><ele>649.0</ele><time>2026-05-02T11:28:29.723Z</time></trkpt><trkpt lat="40.0354669" lon="15.8560811"><ele>650.5</ele><time>2026-05-02T11:28:30.725Z</time></trkpt><trkpt lat="40.0353803" lon="15.856221"><ele>652.0</ele><time>2026-05-02T11:28:31.717Z</time></trkpt><trkpt lat="40.0353116" lon="15.8563594"><ele>652.0</ele><time>2026-05-02T11:28:32.72Z</time></trkpt><trkpt lat="40.0352784" lon="15.856503"><ele>652.0</ele><time>2026-05-02T11:28:33.732Z</time></trkpt><trkpt lat="40.0352751" lon="15.8566593"><ele>652.0</ele><time>2026-05-02T11:28:34.717Z</time></trkpt><trkpt lat="40.0352768" lon="15.8568285"><ele>652.0</ele><time>2026-05-02T11:28:35.737Z</time></trkpt><trkpt lat="40.0352426" lon="15.8570066"><ele>653.6666666666667</ele><time>2026-05-02T11:28:36.723Z</time></trkpt><trkpt lat="40.0351854" lon="15.8571955"><ele>655.3333333333334</ele><time>2026-05-02T11:28:37.714Z</time></trkpt><trkpt lat="40.0351227" lon="15.857391"><ele>657.0</ele><time>2026-05-02T11:28:38.709Z</time></trkpt><trkpt lat="40.0350624" lon="15.857593"><ele>655.3333333333334</ele><time>2026-05-02T11:28:39.715Z</time></trkpt><trkpt lat="40.0350077" lon="15.857797"><ele>653.6666666666667</ele><time>2026-05-02T11:28:40.726Z</time></trkpt><trkpt lat="40.0349522" lon="15.8580049"><ele>652.0</ele><time>2026-05-02T11:28:41.711Z</time></trkpt><trkpt lat="40.0348919" lon="15.8582202"><ele>653.0</ele><time>2026-05-02T11:28:42.721Z</time></trkpt><trkpt lat="40.034827" lon="15.8584458"><ele>654.0</ele><time>2026-05-02T11:28:43.729Z</time></trkpt><trkpt lat="40.0347627" lon="15.8586747"><ele>655.0</ele><time>2026-05-02T11:28:44.721Z</time></trkpt><trkpt lat="40.0346943" lon="15.8589009"><ele>655.0</ele><time>2026-05-02T11:28:45.738Z</time></trkpt><trkpt lat="40.0346191" lon="15.8591112"><ele>655.0</ele><time>2026-05-02T11:28:46.725Z</time></trkpt><trkpt lat="40.0345333" lon="15.8593021"><ele>655.0</ele><time>2026-05-02T11:28:47.732Z</time></trkpt><trkpt lat="40.0344328" lon="15.8594844"><ele>656.6666666666667</ele><time>2026-05-02T11:28:48.716Z</time></trkpt><trkpt lat="40.0343169" lon="15.8596613"><ele>658.3333333333334</ele><time>2026-05-02T11:28:49.727Z</time></trkpt><trkpt lat="40.0341887" lon="15.8598209"><ele>660.0</ele><time>2026-05-02T11:28:50.709Z</time></trkpt><trkpt lat="40.0340471" lon="15.8599685"><ele>660.0</ele><time>2026-05-02T11:28:51.726Z</time></trkpt><trkpt lat="40.0338969" lon="15.8601037"><ele>660.0</ele><time>2026-05-02T11:28:52.719Z</time></trkpt><trkpt lat="40.0337414" lon="15.860239"><ele>660.0</ele><time>2026-05-02T11:28:53.723Z</time></trkpt><trkpt lat="40.0335865" lon="15.8603708"><ele>661.6666666666666</ele><time>2026-05-02T11:28:54.721Z</time></trkpt><trkpt lat="40.0334332" lon="15.8605003"><ele>663.3333333333333</ele><time>2026-05-02T11:28:55.731Z</time></trkpt><trkpt lat="40.0332816" lon="15.860619"><ele>665.0</ele><time>2026-05-02T11:28:56.712Z</time></trkpt><trkpt lat="40.0331444" lon="15.8607319"><ele>665.0</ele><time>2026-05-02T11:28:57.719Z</time></trkpt><trkpt lat="40.0330092" lon="15.8608619"><ele>665.0</ele><time>2026-05-02T11:28:58.72Z</time></trkpt><trkpt lat="40.0328761" lon="15.8610206"><ele>665.0</ele><time>2026-05-02T11:28:59.72Z</time></trkpt><trkpt lat="40.0327475" lon="15.8611951"><ele>667.6666666666666</ele><time>2026-05-02T11:29:00.715Z</time></trkpt><trkpt lat="40.0326202" lon="15.8613772"><ele>670.3333333333334</ele><time>2026-05-02T11:29:01.741Z</time></trkpt><trkpt lat="40.032496" lon="15.8615546"><ele>673.0</ele><time>2026-05-02T11:29:02.719Z</time></trkpt><trkpt lat="40.0323831" lon="15.8617171"><ele>676.75</ele><time>2026-05-02T11:29:03.717Z</time></trkpt><trkpt lat="40.0322866" lon="15.8618709"><ele>680.5</ele><time>2026-05-02T11:29:04.719Z</time></trkpt><trkpt lat="40.0321877" lon="15.8620148"><ele>684.25</ele><time>2026-05-02T11:29:05.706Z</time></trkpt><trkpt lat="40.0320825" lon="15.8621472"><ele>688.0</ele><time>2026-05-02T11:29:06.715Z</time></trkpt><trkpt lat="40.0319615" lon="15.8622645"><ele>688.0</ele><time>2026-05-02T11:29:07.717Z</time></trkpt><trkpt lat="40.0318302" lon="15.8623685"><ele>688.0</ele><time>2026-05-02T11:29:08.72Z</time></trkpt><trkpt lat="40.0316931" lon="15.8624621"><ele>688.0</ele><time>2026-05-02T11:29:09.725Z</time></trkpt><trkpt lat="40.0315694" lon="15.8625435"><ele>688.0</ele><time>2026-05-02T11:29:10.715Z</time></trkpt><trkpt lat="40.0314605" lon="15.8626093"><ele>688.5999999999999</ele><time>2026-05-02T11:29:11.722Z</time></trkpt><trkpt lat="40.0313658" lon="15.8626551"><ele>689.1999999999999</ele><time>2026-05-02T11:29:12.717Z</time></trkpt><trkpt lat="40.0312737" lon="15.8626653"><ele>689.8</ele><time>2026-05-02T11:29:13.706Z</time></trkpt><trkpt lat="40.0311799" lon="15.8626249"><ele>690.4</ele><time>2026-05-02T11:29:14.711Z</time></trkpt><trkpt lat="40.0310863" lon="15.8625527"><ele>691.0</ele><time>2026-05-02T11:29:15.725Z</time></trkpt><trkpt lat="40.0309969" lon="15.8624481"><ele>691.0</ele><time>2026-05-02T11:29:16.72Z</time></trkpt><trkpt lat="40.0309069" lon="15.8623242"><ele>691.0</ele><time>2026-05-02T11:29:17.714Z</time></trkpt><trkpt lat="40.030809" lon="15.8622013"><ele>691.0</ele><time>2026-05-02T11:29:18.72Z</time></trkpt><trkpt lat="40.0307099" lon="15.862089"><ele>691.0</ele><time>2026-05-02T11:29:19.722Z</time></trkpt><trkpt lat="40.0306189" lon="15.8620006"><ele>691.5</ele><time>2026-05-02T11:29:20.721Z</time></trkpt><trkpt lat="40.0305363" lon="15.8619327"><ele>692.0</ele><time>2026-05-02T11:29:21.713Z</time></trkpt><trkpt lat="40.030458" lon="15.8618918"><ele>692.5</ele><time>2026-05-02T11:29:22.731Z</time></trkpt><trkpt lat="40.0303868" lon="15.8618799"><ele>693.0</ele><time>2026-05-02T11:29:23.723Z</time></trkpt><trkpt lat="40.0303084" lon="15.8619147"><ele>693.5</ele><time>2026-05-02T11:29:24.724Z</time></trkpt><trkpt lat="40.0302368" lon="15.8619853"><ele>694.0</ele><time>2026-05-02T11:29:25.749Z</time></trkpt><trkpt lat="40.0301861" lon="15.8620934"><ele>694.0</ele><time>2026-05-02T11:29:26.723Z</time></trkpt><trkpt lat="40.0301682" lon="15.8622242"><ele>694.0</ele><time>2026-05-02T11:29:27.718Z</time></trkpt><trkpt lat="40.0301914" lon="15.8623622"><ele>694.0</ele><time>2026-05-02T11:29:28.72Z</time></trkpt><trkpt lat="40.0302411" lon="15.862487"><ele>694.0</ele><time>2026-05-02T11:29:29.717Z</time></trkpt><trkpt lat="40.0303134" lon="15.8625789"><ele>694.0</ele><time>2026-05-02T11:29:30.714Z</time></trkpt><trkpt lat="40.0304075" lon="15.8626658"><ele>695.25</ele><time>2026-05-02T11:29:31.712Z</time></trkpt><trkpt lat="40.0305047" lon="15.862765"><ele>696.5</ele><time>2026-05-02T11:29:32.715Z</time></trkpt><trkpt lat="40.0306033" lon="15.862873"><ele>697.75</ele><time>2026-05-02T11:29:33.708Z</time></trkpt><trkpt lat="40.030714" lon="15.8629746"><ele>699.0</ele><time>2026-05-02T11:29:34.716Z</time></trkpt><trkpt lat="40.0308172" lon="15.8630719"><ele>699.0</ele><time>2026-05-02T11:29:35.721Z</time></trkpt><trkpt lat="40.0308866" lon="15.8631657"><ele>699.0</ele><time>2026-05-02T11:29:36.714Z</time></trkpt><trkpt lat="40.0309239" lon="15.8632536"><ele>699.0</ele><time>2026-05-02T11:29:37.731Z</time></trkpt><trkpt lat="40.0309306" lon="15.8633433"><ele>699.0</ele><time>2026-05-02T11:29:38.722Z</time></trkpt><trkpt lat="40.0308959" lon="15.8634293"><ele>699.0</ele><time>2026-05-02T11:29:39.717Z</time></trkpt><trkpt lat="40.0308309" lon="15.8635149"><ele>699.0</ele><time>2026-05-02T11:29:40.712Z</time></trkpt><trkpt lat="40.0307351" lon="15.8635803"><ele>699.0</ele><time>2026-05-02T11:29:41.701Z</time></trkpt><trkpt lat="40.0306128" lon="15.8636241"><ele>699.0</ele><time>2026-05-02T11:29:42.726Z</time></trkpt><trkpt lat="40.0304753" lon="15.863664"><ele>699.0</ele><time>2026-05-02T11:29:43.721Z</time></trkpt><trkpt lat="40.0303261" lon="15.8637384"><ele>699.0</ele><time>2026-05-02T11:29:44.723Z</time></trkpt><trkpt lat="40.0301704" lon="15.8638362"><ele>699.0</ele><time>2026-05-02T11:29:45.731Z</time></trkpt><trkpt lat="40.0300122" lon="15.8639455"><ele>699.0</ele><time>2026-05-02T11:29:46.719Z</time></trkpt><trkpt lat="40.029857" lon="15.8640564"><ele>699.0</ele><time>2026-05-02T11:29:47.736Z</time></trkpt><trkpt lat="40.0297149" lon="15.8641559"><ele>699.3333333333334</ele><time>2026-05-02T11:29:48.715Z</time></trkpt><trkpt lat="40.0295778" lon="15.8642383"><ele>699.6666666666667</ele><time>2026-05-02T11:29:49.723Z</time></trkpt><trkpt lat="40.0294247" lon="15.8643028"><ele>700.0</ele><time>2026-05-02T11:29:50.717Z</time></trkpt><trkpt lat="40.0292591" lon="15.8643634"><ele>703.3333333333334</ele><time>2026-05-02T11:29:51.729Z</time></trkpt><trkpt lat="40.0290879" lon="15.8644278"><ele>706.6666666666666</ele><time>2026-05-02T11:29:52.711Z</time></trkpt><trkpt lat="40.028914" lon="15.8644925"><ele>710.0</ele><time>2026-05-02T11:29:53.721Z</time></trkpt><trkpt lat="40.0287518" lon="15.8645498"><ele>710.0</ele><time>2026-05-02T11:29:54.729Z</time></trkpt><trkpt lat="40.0286108" lon="15.8646008"><ele>710.0</ele><time>2026-05-02T11:29:55.734Z</time></trkpt><trkpt lat="40.028488" lon="15.8646647"><ele>710.0</ele><time>2026-05-02T11:29:56.715Z</time></trkpt><trkpt lat="40.028381" lon="15.8647591"><ele>710.0</ele><time>2026-05-02T11:29:57.733Z</time></trkpt><trkpt lat="40.0282896" lon="15.8648726"><ele>713.0</ele><time>2026-05-02T11:29:58.719Z</time></trkpt><trkpt lat="40.0282166" lon="15.8650197"><ele>716.0</ele><time>2026-05-02T11:29:59.727Z</time></trkpt><trkpt lat="40.028158" lon="15.8651895"><ele>719.0</ele><time>2026-05-02T11:30:00.727Z</time></trkpt><trkpt lat="40.0281088" lon="15.8653773"><ele>722.0</ele><time>2026-05-02T11:30:01.725Z</time></trkpt><trkpt lat="40.0280579" lon="15.8655702"><ele>722.0</ele><time>2026-05-02T11:30:02.729Z</time></trkpt><trkpt lat="40.0280016" lon="15.8657579"><ele>722.0</ele><time>2026-05-02T11:30:03.71Z</time></trkpt><trkpt lat="40.0279408" lon="15.8659484"><ele>722.0</ele><time>2026-05-02T11:30:04.719Z</time></trkpt><trkpt lat="40.0278833" lon="15.8661187"><ele>722.4000000000001</ele><time>2026-05-02T11:30:05.719Z</time></trkpt><trkpt lat="40.0278258" lon="15.866258"><ele>722.8000000000001</ele><time>2026-05-02T11:30:06.725Z</time></trkpt><trkpt lat="40.0277573" lon="15.8663649"><ele>723.2</ele><time>2026-05-02T11:30:07.707Z</time></trkpt><trkpt lat="40.027678" lon="15.8664528"><ele>723.6</ele><time>2026-05-02T11:30:08.727Z</time></trkpt><trkpt lat="40.0275764" lon="15.8665159"><ele>724.0</ele><time>2026-05-02T11:30:09.714Z</time></trkpt><trkpt lat="40.0274633" lon="15.8665475"><ele>724.0</ele><time>2026-05-02T11:30:10.727Z</time></trkpt><trkpt lat="40.02733" lon="15.8665494"><ele>724.0</ele><time>2026-05-02T11:30:11.725Z</time></trkpt><trkpt lat="40.0271899" lon="15.8665455"><ele>724.0</ele><time>2026-05-02T11:30:12.712Z</time></trkpt><trkpt lat="40.0270518" lon="15.8665753"><ele>724.0</ele><time>2026-05-02T11:30:13.724Z</time></trkpt><trkpt lat="40.0269156" lon="15.8666562"><ele>724.0</ele><time>2026-05-02T11:30:14.716Z</time></trkpt><trkpt lat="40.0267804" lon="15.8667667"><ele>724.0</ele><time>2026-05-02T11:30:15.724Z</time></trkpt><trkpt lat="40.0266393" lon="15.8668928"><ele>724.0</ele><time>2026-05-02T11:30:16.713Z</time></trkpt><trkpt lat="40.0264944" lon="15.8670231"><ele>725.0</ele><time>2026-05-02T11:30:17.719Z</time></trkpt><trkpt lat="40.0263358" lon="15.8671477"><ele>726.0</ele><time>2026-05-02T11:30:18.732Z</time></trkpt><trkpt lat="40.0261766" lon="15.8672696"><ele>727.0</ele><time>2026-05-02T11:30:19.711Z</time></trkpt><trkpt lat="40.0260261" lon="15.8673817"><ele>727.0</ele><time>2026-05-02T11:30:20.721Z</time></trkpt><trkpt lat="40.0258915" lon="15.8674808"><ele>727.0</ele><time>2026-05-02T11:30:21.737Z</time></trkpt><trkpt lat="40.0257797" lon="15.8675645"><ele>727.0</ele><time>2026-05-02T11:30:22.711Z</time></trkpt><trkpt lat="40.0256826" lon="15.8676594"><ele>727.0</ele><time>2026-05-02T11:30:23.729Z</time></trkpt><trkpt lat="40.025598" lon="15.8677883"><ele>730.0</ele><time>2026-05-02T11:30:24.721Z</time></trkpt><trkpt lat="40.0255303" lon="15.8679498"><ele>733.0</ele><time>2026-05-02T11:30:25.726Z</time></trkpt><trkpt lat="40.0254666" lon="15.8681325"><ele>736.0</ele><time>2026-05-02T11:30:26.724Z</time></trkpt><trkpt lat="40.0254093" lon="15.8683271"><ele>734.0</ele><time>2026-05-02T11:30:27.71Z</time></trkpt><trkpt lat="40.0253541" lon="15.8685105"><ele>732.0</ele><time>2026-05-02T11:30:28.715Z</time></trkpt><trkpt lat="40.0252877" lon="15.8686752"><ele>730.0</ele><time>2026-05-02T11:30:29.716Z</time></trkpt><trkpt lat="40.0252002" lon="15.8688353"><ele>728.0</ele><time>2026-05-02T11:30:30.719Z</time></trkpt><trkpt lat="40.0250907" lon="15.8689895"><ele>731.3333333333333</ele><time>2026-05-02T11:30:31.733Z</time></trkpt><trkpt lat="40.0249744" lon="15.8691587"><ele>734.6666666666666</ele><time>2026-05-02T11:30:32.712Z</time></trkpt><trkpt lat="40.0248553" lon="15.8693391"><ele>738.0</ele><time>2026-05-02T11:30:33.721Z</time></trkpt><trkpt lat="40.0247309" lon="15.8695192"><ele>738.0</ele><time>2026-05-02T11:30:34.722Z</time></trkpt><trkpt lat="40.0246023" lon="15.8696944"><ele>738.0</ele><time>2026-05-02T11:30:35.705Z</time></trkpt><trkpt lat="40.0244804" lon="15.8698475"><ele>738.0</ele><time>2026-05-02T11:30:36.715Z</time></trkpt><trkpt lat="40.0243631" lon="15.8699932"><ele>733.6666666666666</ele><time>2026-05-02T11:30:37.717Z</time></trkpt><trkpt lat="40.0242378" lon="15.8701279"><ele>729.3333333333333</ele><time>2026-05-02T11:30:38.718Z</time></trkpt><trkpt lat="40.0241171" lon="15.8702511"><ele>725.0</ele><time>2026-05-02T11:30:39.734Z</time></trkpt><trkpt lat="40.0240191" lon="15.8703961"><ele>735.0</ele><time>2026-05-02T11:30:40.714Z</time></trkpt><trkpt lat="40.0239391" lon="15.8705715"><ele>745.0</ele><time>2026-05-02T11:30:41.716Z</time></trkpt><trkpt lat="40.0238727" lon="15.8707778"><ele>755.0</ele><time>2026-05-02T11:30:42.73Z</time></trkpt><trkpt lat="40.0238131" lon="15.8710057"><ele>755.0</ele><time>2026-05-02T11:30:43.716Z</time></trkpt><trkpt lat="40.0237435" lon="15.8712377"><ele>755.0</ele><time>2026-05-02T11:30:44.713Z</time></trkpt><trkpt lat="40.023666" lon="15.8714544"><ele>755.0</ele><time>2026-05-02T11:30:45.713Z</time></trkpt><trkpt lat="40.0235822" lon="15.8716582"><ele>750.6666666666666</ele><time>2026-05-02T11:30:46.726Z</time></trkpt><trkpt lat="40.0234901" lon="15.8718605"><ele>746.3333333333334</ele><time>2026-05-02T11:30:47.71Z</time></trkpt><trkpt lat="40.023395" lon="15.8720584"><ele>742.0</ele><time>2026-05-02T11:30:48.714Z</time></trkpt><trkpt lat="40.0233019" lon="15.8722531"><ele>757.0</ele><time>2026-05-02T11:30:49.71Z</time></trkpt><trkpt lat="40.0232142" lon="15.8724411"><ele>772.0</ele><time>2026-05-02T11:30:50.717Z</time></trkpt><trkpt lat="40.0231228" lon="15.8726122"><ele>787.0</ele><time>2026-05-02T11:30:51.728Z</time></trkpt><trkpt lat="40.0230491" lon="15.872781"><ele>787.0</ele><time>2026-05-02T11:30:52.712Z</time></trkpt><trkpt lat="40.0229975" lon="15.8729634"><ele>787.0</ele><time>2026-05-02T11:30:53.714Z</time></trkpt><trkpt lat="40.022966" lon="15.8731736"><ele>787.0</ele><time>2026-05-02T11:30:54.71Z</time></trkpt><trkpt lat="40.0229538" lon="15.8733995"><ele>781.6666666666666</ele><time>2026-05-02T11:30:55.717Z</time></trkpt><trkpt lat="40.0229458" lon="15.8736336"><ele>776.3333333333333</ele><time>2026-05-02T11:30:56.708Z</time></trkpt><trkpt lat="40.0229347" lon="15.8738788"><ele>771.0</ele><time>2026-05-02T11:30:57.713Z</time></trkpt><trkpt lat="40.0229171" lon="15.874123"><ele>770.0</ele><time>2026-05-02T11:30:58.712Z</time></trkpt><trkpt lat="40.0228951" lon="15.874373"><ele>769.0</ele><time>2026-05-02T11:30:59.714Z</time></trkpt><trkpt lat="40.0228793" lon="15.8746219"><ele>768.0</ele><time>2026-05-02T11:31:00.7Z</time></trkpt><trkpt lat="40.0228646" lon="15.8748668"><ele>768.0</ele><time>2026-05-02T11:31:01.709Z</time></trkpt><trkpt lat="40.0228533" lon="15.8750895"><ele>768.0</ele><time>2026-05-02T11:31:02.714Z</time></trkpt><trkpt lat="40.0228408" lon="15.8753034"><ele>768.0</ele><time>2026-05-02T11:31:03.718Z</time></trkpt><trkpt lat="40.0228142" lon="15.8755264"><ele>766.6666666666666</ele><time>2026-05-02T11:31:04.708Z</time></trkpt><trkpt lat="40.0227706" lon="15.875757"><ele>765.3333333333333</ele><time>2026-05-02T11:31:05.724Z</time></trkpt><trkpt lat="40.0227206" lon="15.8759838"><ele>764.0</ele><time>2026-05-02T11:31:06.704Z</time></trkpt><trkpt lat="40.0226648" lon="15.8762001"><ele>766.6666666666666</ele><time>2026-05-02T11:31:07.713Z</time></trkpt><trkpt lat="40.0225984" lon="15.8764015"><ele>769.3333333333333</ele><time>2026-05-02T11:31:08.711Z</time></trkpt><trkpt lat="40.0225165" lon="15.8765916"><ele>772.0</ele><time>2026-05-02T11:31:09.721Z</time></trkpt><trkpt lat="40.0224243" lon="15.8767781"><ele>772.0</ele><time>2026-05-02T11:31:10.71Z</time></trkpt><trkpt lat="40.0223365" lon="15.8769582"><ele>772.0</ele><time>2026-05-02T11:31:11.711Z</time></trkpt><trkpt lat="40.0222548" lon="15.8771228"><ele>772.0</ele><time>2026-05-02T11:31:12.712Z</time></trkpt><trkpt lat="40.0221825" lon="15.8772638"><ele>772.0</ele><time>2026-05-02T11:31:13.712Z</time></trkpt><trkpt lat="40.0221149" lon="15.8773948"><ele>772.0</ele><time>2026-05-02T11:31:14.71Z</time></trkpt><trkpt lat="40.0220437" lon="15.8775327"><ele>772.0</ele><time>2026-05-02T11:31:15.72Z</time></trkpt><trkpt lat="40.0219613" lon="15.8776632"><ele>772.0</ele><time>2026-05-02T11:31:16.72Z</time></trkpt><trkpt lat="40.0218737" lon="15.8777818"><ele>772.0</ele><time>2026-05-02T11:31:17.722Z</time></trkpt><trkpt lat="40.0217901" lon="15.877903"><ele>771.5</ele><time>2026-05-02T11:31:18.719Z</time></trkpt><trkpt lat="40.0217088" lon="15.8780358"><ele>771.0</ele><time>2026-05-02T11:31:19.714Z</time></trkpt><trkpt lat="40.0216373" lon="15.8781767"><ele>770.5</ele><time>2026-05-02T11:31:20.723Z</time></trkpt><trkpt lat="40.021569" lon="15.878323"><ele>770.0</ele><time>2026-05-02T11:31:21.717Z</time></trkpt><trkpt lat="40.0215057" lon="15.8784723"><ele>765.8</ele><time>2026-05-02T11:31:22.706Z</time></trkpt><trkpt lat="40.0214446" lon="15.878611"><ele>761.6</ele><time>2026-05-02T11:31:23.718Z</time></trkpt><trkpt lat="40.0213823" lon="15.8787385"><ele>757.4000000000001</ele><time>2026-05-02T11:31:24.726Z</time></trkpt><trkpt lat="40.0213242" lon="15.8788518"><ele>753.2</ele><time>2026-05-02T11:31:25.704Z</time></trkpt><trkpt lat="40.0212764" lon="15.8789511"><ele>749.0</ele><time>2026-05-02T11:31:26.715Z</time></trkpt><trkpt lat="40.0212378" lon="15.8790382"><ele>749.0</ele><time>2026-05-02T11:31:27.723Z</time></trkpt><trkpt lat="40.021191" lon="15.8791319"><ele>749.0</ele><time>2026-05-02T11:31:28.716Z</time></trkpt><trkpt lat="40.0211429" lon="15.8792529"><ele>749.0</ele><time>2026-05-02T11:31:29.723Z</time></trkpt><trkpt lat="40.0210808" lon="15.8793778"><ele>749.0</ele><time>2026-05-02T11:31:30.717Z</time></trkpt><trkpt lat="40.0210153" lon="15.8795128"><ele>749.0</ele><time>2026-05-02T11:31:31.722Z</time></trkpt><trkpt lat="40.0209496" lon="15.879648"><ele>747.4000000000001</ele><time>2026-05-02T11:31:32.718Z</time></trkpt><trkpt lat="40.0208905" lon="15.8797733"><ele>745.8</ele><time>2026-05-02T11:31:33.721Z</time></trkpt><trkpt lat="40.0208325" lon="15.8798855"><ele>744.2</ele><time>2026-05-02T11:31:34.724Z</time></trkpt><trkpt lat="40.0207782" lon="15.8799948"><ele>742.5999999999999</ele><time>2026-05-02T11:31:35.72Z</time></trkpt><trkpt lat="40.0207265" lon="15.8801046"><ele>741.0</ele><time>2026-05-02T11:31:36.726Z</time></trkpt><trkpt lat="40.0206742" lon="15.880221"><ele>739.75</ele><time>2026-05-02T11:31:37.719Z</time></trkpt><trkpt lat="40.0206132" lon="15.8803509"><ele>738.5</ele><time>2026-05-02T11:31:38.727Z</time></trkpt><trkpt lat="40.0205439" lon="15.8804912"><ele>737.25</ele><time>2026-05-02T11:31:39.724Z</time></trkpt><trkpt lat="40.0204741" lon="15.8806363"><ele>736.0</ele><time>2026-05-02T11:31:40.717Z</time></trkpt><trkpt lat="40.0203974" lon="15.8807847"><ele>735.75</ele><time>2026-05-02T11:31:41.723Z</time></trkpt><trkpt lat="40.0203202" lon="15.880937"><ele>735.5</ele><time>2026-05-02T11:31:42.718Z</time></trkpt><trkpt lat="40.0202428" lon="15.8810853"><ele>735.25</ele><time>2026-05-02T11:31:43.708Z</time></trkpt><trkpt lat="40.0201701" lon="15.8812369"><ele>735.0</ele><time>2026-05-02T11:31:44.728Z</time></trkpt><trkpt lat="40.0200954" lon="15.8813818"><ele>735.0</ele><time>2026-05-02T11:31:45.723Z</time></trkpt><trkpt lat="40.0200283" lon="15.8815296"><ele>735.0</ele><time>2026-05-02T11:31:46.727Z</time></trkpt><trkpt lat="40.0199706" lon="15.8816654"><ele>735.0</ele><time>2026-05-02T11:31:47.721Z</time></trkpt><trkpt lat="40.0199208" lon="15.8818009"><ele>735.0</ele><time>2026-05-02T11:31:48.718Z</time></trkpt><trkpt lat="40.0198838" lon="15.8819446"><ele>734.4</ele><time>2026-05-02T11:31:49.711Z</time></trkpt><trkpt lat="40.0198616" lon="15.8820834"><ele>733.8</ele><time>2026-05-02T11:31:50.713Z</time></trkpt><trkpt lat="40.0198564" lon="15.8822166"><ele>733.2</ele><time>2026-05-02T11:31:51.716Z</time></trkpt><trkpt lat="40.0198564" lon="15.8823621"><ele>732.6</ele><time>2026-05-02T11:31:52.713Z</time></trkpt><trkpt lat="40.0198665" lon="15.8825219"><ele>732.0</ele><time>2026-05-02T11:31:53.721Z</time></trkpt><trkpt lat="40.0198785" lon="15.8826932"><ele>732.0</ele><time>2026-05-02T11:31:54.724Z</time></trkpt><trkpt lat="40.0198914" lon="15.8828718"><ele>732.0</ele><time>2026-05-02T11:31:55.717Z</time></trkpt><trkpt lat="40.0198997" lon="15.8830616"><ele>732.0</ele><time>2026-05-02T11:31:56.727Z</time></trkpt><trkpt lat="40.0199092" lon="15.883259"><ele>732.0</ele><time>2026-05-02T11:31:57.711Z</time></trkpt><trkpt lat="40.0199209" lon="15.8834624"><ele>732.0</ele><time>2026-05-02T11:31:58.713Z</time></trkpt><trkpt lat="40.0199308" lon="15.8836749"><ele>732.0</ele><time>2026-05-02T11:31:59.71Z</time></trkpt><trkpt lat="40.0199491" lon="15.8838879"><ele>732.0</ele><time>2026-05-02T11:32:00.716Z</time></trkpt><trkpt lat="40.0199674" lon="15.884076"><ele>732.0</ele><time>2026-05-02T11:32:01.72Z</time></trkpt><trkpt lat="40.0199779" lon="15.8842517"><ele>732.0</ele><time>2026-05-02T11:32:02.732Z</time></trkpt><trkpt lat="40.019995" lon="15.8844218"><ele>732.0</ele><time>2026-05-02T11:32:03.716Z</time></trkpt><trkpt lat="40.02001" lon="15.8845915"><ele>732.0</ele><time>2026-05-02T11:32:04.72Z</time></trkpt><trkpt lat="40.0200241" lon="15.8847708"><ele>732.5</ele><time>2026-05-02T11:32:05.708Z</time></trkpt><trkpt lat="40.0200357" lon="15.8849585"><ele>733.0</ele><time>2026-05-02T11:32:06.721Z</time></trkpt><trkpt lat="40.0200509" lon="15.885152"><ele>733.5</ele><time>2026-05-02T11:32:07.719Z</time></trkpt><trkpt lat="40.0200752" lon="15.8853509"><ele>734.0</ele><time>2026-05-02T11:32:08.722Z</time></trkpt><trkpt lat="40.0201187" lon="15.8855504"><ele>732.6666666666666</ele><time>2026-05-02T11:32:09.717Z</time></trkpt><trkpt lat="40.0201752" lon="15.8857491"><ele>731.3333333333334</ele><time>2026-05-02T11:32:10.738Z</time></trkpt><trkpt lat="40.0202332" lon="15.8859528"><ele>730.0</ele><time>2026-05-02T11:32:11.728Z</time></trkpt><trkpt lat="40.0202913" lon="15.8861543"><ele>729.3333333333334</ele><time>2026-05-02T11:32:12.718Z</time></trkpt><trkpt lat="40.0203489" lon="15.8863576"><ele>728.6666666666666</ele><time>2026-05-02T11:32:13.725Z</time></trkpt><trkpt lat="40.0204078" lon="15.886557"><ele>728.0</ele><time>2026-05-02T11:32:14.72Z</time></trkpt><trkpt lat="40.0204688" lon="15.8867519"><ele>728.0</ele><time>2026-05-02T11:32:15.744Z</time></trkpt><trkpt lat="40.0205379" lon="15.8869513"><ele>728.0</ele><time>2026-05-02T11:32:16.717Z</time></trkpt><trkpt lat="40.0206039" lon="15.8871593"><ele>728.0</ele><time>2026-05-02T11:32:17.737Z</time></trkpt><trkpt lat="40.0206807" lon="15.8873641"><ele>728.0</ele><time>2026-05-02T11:32:18.712Z</time></trkpt><trkpt lat="40.0207584" lon="15.8875725"><ele>728.0</ele><time>2026-05-02T11:32:19.728Z</time></trkpt><trkpt lat="40.0208357" lon="15.8877886"><ele>728.0</ele><time>2026-05-02T11:32:20.722Z</time></trkpt><trkpt lat="40.0209125" lon="15.8880063"><ele>728.3333333333333</ele><time>2026-05-02T11:32:21.721Z</time></trkpt><trkpt lat="40.0209924" lon="15.8882272"><ele>728.6666666666666</ele><time>2026-05-02T11:32:22.733Z</time></trkpt><trkpt lat="40.0210731" lon="15.8884457"><ele>729.0</ele><time>2026-05-02T11:32:23.723Z</time></trkpt><trkpt lat="40.0211489" lon="15.8886592"><ele>728.6666666666666</ele><time>2026-05-02T11:32:24.723Z</time></trkpt><trkpt lat="40.021217" lon="15.8888748"><ele>728.3333333333333</ele><time>2026-05-02T11:32:25.724Z</time></trkpt><trkpt lat="40.0212787" lon="15.8890942"><ele>728.0</ele><time>2026-05-02T11:32:26.716Z</time></trkpt><trkpt lat="40.0213255" lon="15.8893195"><ele>728.0</ele><time>2026-05-02T11:32:27.738Z</time></trkpt><trkpt lat="40.0213646" lon="15.8895482"><ele>728.0</ele><time>2026-05-02T11:32:28.711Z</time></trkpt><trkpt lat="40.0213925" lon="15.8897866"><ele>728.0</ele><time>2026-05-02T11:32:29.728Z</time></trkpt><trkpt lat="40.021414" lon="15.8900259"><ele>727.6666666666666</ele><time>2026-05-02T11:32:30.721Z</time></trkpt><trkpt lat="40.0214434" lon="15.8902726"><ele>727.3333333333334</ele><time>2026-05-02T11:32:31.738Z</time></trkpt><trkpt lat="40.0214749" lon="15.8905169"><ele>727.0</ele><time>2026-05-02T11:32:32.727Z</time></trkpt><trkpt lat="40.0215047" lon="15.8907696"><ele>727.3333333333334</ele><time>2026-05-02T11:32:33.731Z</time></trkpt><trkpt lat="40.0215248" lon="15.8910275"><ele>727.6666666666666</ele><time>2026-05-02T11:32:34.721Z</time></trkpt><trkpt lat="40.0215354" lon="15.8912842"><ele>728.0</ele><time>2026-05-02T11:32:35.726Z</time></trkpt><trkpt lat="40.0215149" lon="15.8915379"><ele>729.0</ele><time>2026-05-02T11:32:36.724Z</time></trkpt><trkpt lat="40.021486" lon="15.8917907"><ele>730.0</ele><time>2026-05-02T11:32:37.723Z</time></trkpt><trkpt lat="40.0214506" lon="15.8920446"><ele>731.0</ele><time>2026-05-02T11:32:38.719Z</time></trkpt><trkpt lat="40.0214113" lon="15.8922883"><ele>731.0</ele><time>2026-05-02T11:32:39.719Z</time></trkpt><trkpt lat="40.0213717" lon="15.8925156"><ele>731.0</ele><time>2026-05-02T11:32:40.726Z</time></trkpt><trkpt lat="40.0213348" lon="15.8927078"><ele>731.0</ele><time>2026-05-02T11:32:41.735Z</time></trkpt><trkpt lat="40.0213043" lon="15.8928795"><ele>731.0</ele><time>2026-05-02T11:32:42.718Z</time></trkpt><trkpt lat="40.0212814" lon="15.8930491"><ele>731.0</ele><time>2026-05-02T11:32:43.727Z</time></trkpt><trkpt lat="40.0212606" lon="15.8932239"><ele>731.0</ele><time>2026-05-02T11:32:44.717Z</time></trkpt><trkpt lat="40.0212412" lon="15.8934086"><ele>731.0</ele><time>2026-05-02T11:32:45.739Z</time></trkpt><trkpt lat="40.0212234" lon="15.8936034"><ele>731.6666666666666</ele><time>2026-05-02T11:32:46.719Z</time></trkpt><trkpt lat="40.0212066" lon="15.8938005"><ele>732.3333333333334</ele><time>2026-05-02T11:32:47.721Z</time></trkpt><trkpt lat="40.0211881" lon="15.8939994"><ele>733.0</ele><time>2026-05-02T11:32:48.726Z</time></trkpt><trkpt lat="40.021171" lon="15.8942064"><ele>734.0</ele><time>2026-05-02T11:32:49.723Z</time></trkpt><trkpt lat="40.0211533" lon="15.8944166"><ele>735.0</ele><time>2026-05-02T11:32:50.715Z</time></trkpt><trkpt lat="40.0211358" lon="15.894626"><ele>736.0</ele><time>2026-05-02T11:32:51.722Z</time></trkpt><trkpt lat="40.0211171" lon="15.8948419"><ele>736.0</ele><time>2026-05-02T11:32:52.727Z</time></trkpt><trkpt lat="40.0210973" lon="15.89506"><ele>736.0</ele><time>2026-05-02T11:32:53.729Z</time></trkpt><trkpt lat="40.0210804" lon="15.8952846"><ele>736.0</ele><time>2026-05-02T11:32:54.713Z</time></trkpt><trkpt lat="40.0210594" lon="15.8954962"><ele>736.5</ele><time>2026-05-02T11:32:55.73Z</time></trkpt><trkpt lat="40.0210372" lon="15.8956855"><ele>737.0</ele><time>2026-05-02T11:32:56.705Z</time></trkpt><trkpt lat="40.0210106" lon="15.8958549"><ele>737.5</ele><time>2026-05-02T11:32:57.721Z</time></trkpt><trkpt lat="40.0209864" lon="15.8960135"><ele>738.0</ele><time>2026-05-02T11:32:58.721Z</time></trkpt><trkpt lat="40.0209649" lon="15.8961603"><ele>738.3333333333334</ele><time>2026-05-02T11:32:59.714Z</time></trkpt><trkpt lat="40.0209429" lon="15.8962978"><ele>738.6666666666666</ele><time>2026-05-02T11:33:00.726Z</time></trkpt><trkpt lat="40.0209235" lon="15.8964213"><ele>739.0</ele><time>2026-05-02T11:33:01.72Z</time></trkpt><trkpt lat="40.0208991" lon="15.8965322"><ele>739.3333333333333</ele><time>2026-05-02T11:33:02.715Z</time></trkpt><trkpt lat="40.0208751" lon="15.8966267"><ele>739.6666666666666</ele><time>2026-05-02T11:33:03.717Z</time></trkpt><trkpt lat="40.0208453" lon="15.8967018"><ele>740.0</ele><time>2026-05-02T11:33:04.717Z</time></trkpt><trkpt lat="40.0208015" lon="15.8967649"><ele>740.0</ele><time>2026-05-02T11:33:05.724Z</time></trkpt><trkpt lat="40.0207593" lon="15.8968385"><ele>740.0</ele><time>2026-05-02T11:33:06.718Z</time></trkpt><trkpt lat="40.0207476" lon="15.8969444"><ele>740.0</ele><time>2026-05-02T11:33:07.716Z</time></trkpt><trkpt lat="40.0207483" lon="15.8970664"><ele>740.0</ele><time>2026-05-02T11:33:08.712Z</time></trkpt><trkpt lat="40.0207661" lon="15.8972023"><ele>740.0</ele><time>2026-05-02T11:33:09.695Z</time></trkpt><trkpt lat="40.0207688" lon="15.8973514"><ele>740.0</ele><time>2026-05-02T11:33:10.718Z</time></trkpt><trkpt lat="40.020744" lon="15.8975144"><ele>740.0</ele><time>2026-05-02T11:33:11.712Z</time></trkpt><trkpt lat="40.0207027" lon="15.8976867"><ele>740.0</ele><time>2026-05-02T11:33:12.712Z</time></trkpt><trkpt lat="40.020663" lon="15.8978801"><ele>740.0</ele><time>2026-05-02T11:33:13.743Z</time></trkpt><trkpt lat="40.0206266" lon="15.8980857"><ele>741.6666666666666</ele><time>2026-05-02T11:33:14.704Z</time></trkpt><trkpt lat="40.020585" lon="15.8982966"><ele>743.3333333333334</ele><time>2026-05-02T11:33:15.73Z</time></trkpt><trkpt lat="40.0205429" lon="15.898509"><ele>745.0</ele><time>2026-05-02T11:33:16.722Z</time></trkpt><trkpt lat="40.0205072" lon="15.8987281"><ele>746.0</ele><time>2026-05-02T11:33:17.708Z</time></trkpt><trkpt lat="40.0204661" lon="15.89896"><ele>747.0</ele><time>2026-05-02T11:33:18.722Z</time></trkpt><trkpt lat="40.020421" lon="15.8991996"><ele>748.0</ele><time>2026-05-02T11:33:19.72Z</time></trkpt><trkpt lat="40.0203793" lon="15.8994435"><ele>749.6666666666667</ele><time>2026-05-02T11:33:20.72Z</time></trkpt><trkpt lat="40.0203354" lon="15.8996948"><ele>751.3333333333334</ele><time>2026-05-02T11:33:21.721Z</time></trkpt><trkpt lat="40.0202932" lon="15.8999485"><ele>753.0</ele><time>2026-05-02T11:33:22.722Z</time></trkpt><trkpt lat="40.0202508" lon="15.9002065"><ele>754.6666666666666</ele><time>2026-05-02T11:33:23.726Z</time></trkpt><trkpt lat="40.0202142" lon="15.9004662"><ele>756.3333333333333</ele><time>2026-05-02T11:33:24.729Z</time></trkpt><trkpt lat="40.0201734" lon="15.9007275"><ele>758.0</ele><time>2026-05-02T11:33:25.722Z</time></trkpt><trkpt lat="40.0201344" lon="15.9009831"><ele>759.3333333333333</ele><time>2026-05-02T11:33:26.719Z</time></trkpt><trkpt lat="40.0200931" lon="15.9012385"><ele>760.6666666666666</ele><time>2026-05-02T11:33:27.724Z</time></trkpt><trkpt lat="40.0200505" lon="15.9014953"><ele>762.0</ele><time>2026-05-02T11:33:28.718Z</time></trkpt><trkpt lat="40.0200057" lon="15.9017581"><ele>762.3333333333334</ele><time>2026-05-02T11:33:29.718Z</time></trkpt><trkpt lat="40.0199677" lon="15.9020234"><ele>762.6666666666667</ele><time>2026-05-02T11:33:30.713Z</time></trkpt><trkpt lat="40.0199271" lon="15.9022858"><ele>763.0</ele><time>2026-05-02T11:33:31.727Z</time></trkpt><trkpt lat="40.0198838" lon="15.9025484"><ele>765.0</ele><time>2026-05-02T11:33:32.711Z</time></trkpt><trkpt lat="40.0198409" lon="15.9028116"><ele>767.0</ele><time>2026-05-02T11:33:33.706Z</time></trkpt><trkpt lat="40.019801" lon="15.9030736"><ele>769.0</ele><time>2026-05-02T11:33:34.715Z</time></trkpt><trkpt lat="40.0197623" lon="15.9033397"><ele>770.3333333333333</ele><time>2026-05-02T11:33:35.705Z</time></trkpt><trkpt lat="40.0197212" lon="15.9036035"><ele>771.6666666666667</ele><time>2026-05-02T11:33:36.722Z</time></trkpt><trkpt lat="40.0196757" lon="15.9038609"><ele>773.0</ele><time>2026-05-02T11:33:37.729Z</time></trkpt><trkpt lat="40.0196323" lon="15.9041128"><ele>774.0</ele><time>2026-05-02T11:33:38.711Z</time></trkpt><trkpt lat="40.019589" lon="15.9043639"><ele>775.0</ele><time>2026-05-02T11:33:39.713Z</time></trkpt><trkpt lat="40.0195502" lon="15.9046132"><ele>776.0</ele><time>2026-05-02T11:33:40.715Z</time></trkpt><trkpt lat="40.0195095" lon="15.9048624"><ele>776.6666666666667</ele><time>2026-05-02T11:33:41.718Z</time></trkpt><trkpt lat="40.019464" lon="15.9051108"><ele>777.3333333333333</ele><time>2026-05-02T11:33:42.722Z</time></trkpt><trkpt lat="40.0194163" lon="15.9053577"><ele>778.0</ele><time>2026-05-02T11:33:43.73Z</time></trkpt><trkpt lat="40.0193649" lon="15.9056041"><ele>778.0</ele><time>2026-05-02T11:33:44.74Z</time></trkpt><trkpt lat="40.0193114" lon="15.9058548"><ele>778.0</ele><time>2026-05-02T11:33:45.716Z</time></trkpt><trkpt lat="40.0192583" lon="15.9061073"><ele>778.0</ele><time>2026-05-02T11:33:46.725Z</time></trkpt><trkpt lat="40.0192082" lon="15.9063635"><ele>778.6666666666666</ele><time>2026-05-02T11:33:47.722Z</time></trkpt><trkpt lat="40.0191545" lon="15.9066209"><ele>779.3333333333333</ele><time>2026-05-02T11:33:48.714Z</time></trkpt><trkpt lat="40.0190983" lon="15.9068786"><ele>780.0</ele><time>2026-05-02T11:33:49.717Z</time></trkpt><trkpt lat="40.0190373" lon="15.9071357"><ele>780.0</ele><time>2026-05-02T11:33:50.708Z</time></trkpt><trkpt lat="40.0189856" lon="15.9073959"><ele>780.0</ele><time>2026-05-02T11:33:51.701Z</time></trkpt><trkpt lat="40.0189452" lon="15.9076561"><ele>780.0</ele><time>2026-05-02T11:33:52.715Z</time></trkpt><trkpt lat="40.018917" lon="15.9079124"><ele>780.6666666666667</ele><time>2026-05-02T11:33:53.72Z</time></trkpt><trkpt lat="40.0188948" lon="15.9081688"><ele>781.3333333333334</ele><time>2026-05-02T11:33:54.717Z</time></trkpt><trkpt lat="40.0188711" lon="15.9084337"><ele>782.0</ele><time>2026-05-02T11:33:55.728Z</time></trkpt><trkpt lat="40.0188489" lon="15.9087019"><ele>783.6666666666667</ele><time>2026-05-02T11:33:56.721Z</time></trkpt><trkpt lat="40.0188323" lon="15.9089766"><ele>785.3333333333333</ele><time>2026-05-02T11:33:57.715Z</time></trkpt><trkpt lat="40.0188178" lon="15.9092587"><ele>787.0</ele><time>2026-05-02T11:33:58.714Z</time></trkpt><trkpt lat="40.018801" lon="15.9095429"><ele>788.3333333333333</ele><time>2026-05-02T11:33:59.725Z</time></trkpt><trkpt lat="40.0187841" lon="15.9098306"><ele>789.6666666666667</ele><time>2026-05-02T11:34:00.724Z</time></trkpt><trkpt lat="40.0187708" lon="15.9101221"><ele>791.0</ele><time>2026-05-02T11:34:01.739Z</time></trkpt><trkpt lat="40.0187562" lon="15.9104136"><ele>792.3333333333334</ele><time>2026-05-02T11:34:02.72Z</time></trkpt><trkpt lat="40.0187423" lon="15.9107034"><ele>793.6666666666667</ele><time>2026-05-02T11:34:03.727Z</time></trkpt><trkpt lat="40.0187298" lon="15.9109897"><ele>795.0</ele><time>2026-05-02T11:34:04.719Z</time></trkpt><trkpt lat="40.0187176" lon="15.9112769"><ele>796.6666666666667</ele><time>2026-05-02T11:34:05.741Z</time></trkpt><trkpt lat="40.0187107" lon="15.9115615"><ele>798.3333333333334</ele><time>2026-05-02T11:34:06.72Z</time></trkpt><trkpt lat="40.0187004" lon="15.9118463"><ele>800.0</ele><time>2026-05-02T11:34:07.734Z</time></trkpt><trkpt lat="40.0186895" lon="15.9121289"><ele>801.3333333333334</ele><time>2026-05-02T11:34:08.724Z</time></trkpt><trkpt lat="40.0186813" lon="15.9124154"><ele>802.6666666666667</ele><time>2026-05-02T11:34:09.727Z</time></trkpt><trkpt lat="40.0186738" lon="15.9126973"><ele>804.0</ele><time>2026-05-02T11:34:10.726Z</time></trkpt><trkpt lat="40.0186659" lon="15.9129817"><ele>805.0</ele><time>2026-05-02T11:34:11.726Z</time></trkpt><trkpt lat="40.0186616" lon="15.9132702"><ele>806.0</ele><time>2026-05-02T11:34:12.725Z</time></trkpt><trkpt lat="40.0186549" lon="15.9135603"><ele>807.0</ele><time>2026-05-02T11:34:13.738Z</time></trkpt><trkpt lat="40.0186457" lon="15.9138513"><ele>808.6666666666667</ele><time>2026-05-02T11:34:14.726Z</time></trkpt><trkpt lat="40.0186392" lon="15.9141428"><ele>810.3333333333334</ele><time>2026-05-02T11:34:15.729Z</time></trkpt><trkpt lat="40.0186352" lon="15.9144304"><ele>812.0</ele><time>2026-05-02T11:34:16.728Z</time></trkpt><trkpt lat="40.0186266" lon="15.9147102"><ele>812.6666666666667</ele><time>2026-05-02T11:34:17.726Z</time></trkpt><trkpt lat="40.0186237" lon="15.9149671"><ele>813.3333333333333</ele><time>2026-05-02T11:34:18.722Z</time></trkpt><trkpt lat="40.0186324" lon="15.9152198"><ele>814.0</ele><time>2026-05-02T11:34:19.732Z</time></trkpt><trkpt lat="40.0186529" lon="15.9154769"><ele>815.0</ele><time>2026-05-02T11:34:20.725Z</time></trkpt><trkpt lat="40.0186856" lon="15.9157432"><ele>816.0</ele><time>2026-05-02T11:34:21.734Z</time></trkpt><trkpt lat="40.0187295" lon="15.916012"><ele>817.0</ele><time>2026-05-02T11:34:22.732Z</time></trkpt><trkpt lat="40.0187787" lon="15.9162843"><ele>817.3333333333333</ele><time>2026-05-02T11:34:23.732Z</time></trkpt><trkpt lat="40.0188297" lon="15.9165605"><ele>817.6666666666667</ele><time>2026-05-02T11:34:24.729Z</time></trkpt><trkpt lat="40.0188778" lon="15.9168413"><ele>818.0</ele><time>2026-05-02T11:34:25.739Z</time></trkpt><trkpt lat="40.01892" lon="15.9171055"><ele>818.0</ele><time>2026-05-02T11:34:26.726Z</time></trkpt><trkpt lat="40.0189618" lon="15.9173521"><ele>818.0</ele><time>2026-05-02T11:34:27.714Z</time></trkpt><trkpt lat="40.0190133" lon="15.9175968"><ele>818.0</ele><time>2026-05-02T11:34:28.723Z</time></trkpt><trkpt lat="40.0190894" lon="15.917841"><ele>820.0</ele><time>2026-05-02T11:34:29.711Z</time></trkpt><trkpt lat="40.0191917" lon="15.9180707"><ele>822.0</ele><time>2026-05-02T11:34:30.711Z</time></trkpt><trkpt lat="40.0193172" lon="15.918284"><ele>824.0</ele><time>2026-05-02T11:34:31.726Z</time></trkpt><trkpt lat="40.019451" lon="15.9184843"><ele>824.0</ele><time>2026-05-02T11:34:32.727Z</time></trkpt><trkpt lat="40.0195752" lon="15.9186704"><ele>824.0</ele><time>2026-05-02T11:34:33.72Z</time></trkpt><trkpt lat="40.0196672" lon="15.918848"><ele>824.0</ele><time>2026-05-02T11:34:34.715Z</time></trkpt><trkpt lat="40.0197339" lon="15.9190124"><ele>824.0</ele><time>2026-05-02T11:34:35.709Z</time></trkpt><trkpt lat="40.0197637" lon="15.9191686"><ele>824.0</ele><time>2026-05-02T11:34:36.711Z</time></trkpt><trkpt lat="40.019756" lon="15.9193205"><ele>824.0</ele><time>2026-05-02T11:34:37.722Z</time></trkpt><trkpt lat="40.0197088" lon="15.9194786"><ele>824.0</ele><time>2026-05-02T11:34:38.721Z</time></trkpt><trkpt lat="40.019634" lon="15.9196345"><ele>826.0</ele><time>2026-05-02T11:34:39.728Z</time></trkpt><trkpt lat="40.0195397" lon="15.9197942"><ele>828.0</ele><time>2026-05-02T11:34:40.723Z</time></trkpt><trkpt lat="40.0194258" lon="15.9199589"><ele>830.0</ele><time>2026-05-02T11:34:41.72Z</time></trkpt><trkpt lat="40.0193179" lon="15.9201241"><ele>828.75</ele><time>2026-05-02T11:34:42.711Z</time></trkpt><trkpt lat="40.0192116" lon="15.9202776"><ele>827.5</ele><time>2026-05-02T11:34:43.725Z</time></trkpt><trkpt lat="40.019113" lon="15.9204063"><ele>826.25</ele><time>2026-05-02T11:34:44.71Z</time></trkpt><trkpt lat="40.0190343" lon="15.9205192"><ele>825.0</ele><time>2026-05-02T11:34:45.71Z</time></trkpt><trkpt lat="40.0189839" lon="15.9206543"><ele>825.0</ele><time>2026-05-02T11:34:46.715Z</time></trkpt><trkpt lat="40.0189624" lon="15.920817"><ele>825.0</ele><time>2026-05-02T11:34:47.714Z</time></trkpt><trkpt lat="40.0189803" lon="15.9209989"><ele>825.0</ele><time>2026-05-02T11:34:48.714Z</time></trkpt><trkpt lat="40.01904" lon="15.9211765"><ele>825.0</ele><time>2026-05-02T11:34:49.726Z</time></trkpt><trkpt lat="40.0191039" lon="15.9213496"><ele>828.0</ele><time>2026-05-02T11:34:50.726Z</time></trkpt><trkpt lat="40.0191369" lon="15.9215379"><ele>831.0</ele><time>2026-05-02T11:34:51.717Z</time></trkpt><trkpt lat="40.0191325" lon="15.9217316"><ele>834.0</ele><time>2026-05-02T11:34:52.723Z</time></trkpt><trkpt lat="40.0190866" lon="15.9219226"><ele>836.3333333333333</ele><time>2026-05-02T11:34:53.72Z</time></trkpt><trkpt lat="40.0190031" lon="15.9221153"><ele>838.6666666666666</ele><time>2026-05-02T11:34:54.719Z</time></trkpt><trkpt lat="40.0188923" lon="15.9223115"><ele>841.0</ele><time>2026-05-02T11:34:55.714Z</time></trkpt><trkpt lat="40.0187787" lon="15.9225165"><ele>841.6666666666666</ele><time>2026-05-02T11:34:56.718Z</time></trkpt><trkpt lat="40.0186762" lon="15.9227121"><ele>842.3333333333333</ele><time>2026-05-02T11:34:57.723Z</time></trkpt><trkpt lat="40.0185854" lon="15.9228891"><ele>843.0</ele><time>2026-05-02T11:34:58.724Z</time></trkpt><trkpt lat="40.0185119" lon="15.9230771"><ele>843.0</ele><time>2026-05-02T11:34:59.719Z</time></trkpt><trkpt lat="40.018457" lon="15.9232866"><ele>843.0</ele><time>2026-05-02T11:35:00.733Z</time></trkpt><trkpt lat="40.0184237" lon="15.9235155"><ele>843.0</ele><time>2026-05-02T11:35:01.717Z</time></trkpt><trkpt lat="40.0184093" lon="15.9237544"><ele>842.3333333333333</ele><time>2026-05-02T11:35:02.726Z</time></trkpt><trkpt lat="40.0184028" lon="15.924005"><ele>841.6666666666666</ele><time>2026-05-02T11:35:03.721Z</time></trkpt><trkpt lat="40.0183995" lon="15.9242631"><ele>841.0</ele><time>2026-05-02T11:35:04.724Z</time></trkpt><trkpt lat="40.0183993" lon="15.924531"><ele>840.3333333333333</ele><time>2026-05-02T11:35:05.712Z</time></trkpt><trkpt lat="40.0183967" lon="15.9248068"><ele>839.6666666666667</ele><time>2026-05-02T11:35:06.743Z</time></trkpt><trkpt lat="40.018394" lon="15.9250862"><ele>839.0</ele><time>2026-05-02T11:35:07.717Z</time></trkpt><trkpt lat="40.0183956" lon="15.9253711"><ele>838.3333333333334</ele><time>2026-05-02T11:35:08.724Z</time></trkpt><trkpt lat="40.0183995" lon="15.9256598"><ele>837.6666666666667</ele><time>2026-05-02T11:35:09.726Z</time></trkpt><trkpt lat="40.0184021" lon="15.9259521"><ele>837.0</ele><time>2026-05-02T11:35:10.717Z</time></trkpt><trkpt lat="40.0183977" lon="15.9262416"><ele>836.3333333333333</ele><time>2026-05-02T11:35:11.726Z</time></trkpt><trkpt lat="40.0184034" lon="15.9265079"><ele>835.6666666666666</ele><time>2026-05-02T11:35:12.721Z</time></trkpt><trkpt lat="40.0183937" lon="15.9267565"><ele>835.0</ele><time>2026-05-02T11:35:13.727Z</time></trkpt><trkpt lat="40.0183768" lon="15.9269845"><ele>835.0</ele><time>2026-05-02T11:35:14.725Z</time></trkpt><trkpt lat="40.0183447" lon="15.9272021"><ele>835.0</ele><time>2026-05-02T11:35:15.722Z</time></trkpt><trkpt lat="40.0182857" lon="15.9274099"><ele>835.0</ele><time>2026-05-02T11:35:16.735Z</time></trkpt><trkpt lat="40.0182018" lon="15.9276052"><ele>832.3333333333333</ele><time>2026-05-02T11:35:17.733Z</time></trkpt><trkpt lat="40.0181079" lon="15.9277947"><ele>829.6666666666667</ele><time>2026-05-02T11:35:18.728Z</time></trkpt><trkpt lat="40.0180287" lon="15.9279701"><ele>827.0</ele><time>2026-05-02T11:35:19.751Z</time></trkpt><trkpt lat="40.0179704" lon="15.928117"><ele>827.0</ele><time>2026-05-02T11:35:20.729Z</time></trkpt><trkpt lat="40.0179331" lon="15.9282486"><ele>827.0</ele><time>2026-05-02T11:35:21.727Z</time></trkpt><trkpt lat="40.0179336" lon="15.9283883"><ele>827.0</ele><time>2026-05-02T11:35:22.726Z</time></trkpt><trkpt lat="40.0179646" lon="15.9285298"><ele>827.0</ele><time>2026-05-02T11:35:23.725Z</time></trkpt><trkpt lat="40.018034" lon="15.9286559"><ele>827.0</ele><time>2026-05-02T11:35:24.722Z</time></trkpt><trkpt lat="40.0181376" lon="15.9287338"><ele>827.6</ele><time>2026-05-02T11:35:25.723Z</time></trkpt><trkpt lat="40.0182561" lon="15.9287717"><ele>828.2</ele><time>2026-05-02T11:35:26.726Z</time></trkpt><trkpt lat="40.0183768" lon="15.9287728"><ele>828.8</ele><time>2026-05-02T11:35:27.727Z</time></trkpt><trkpt lat="40.0184742" lon="15.928785"><ele>829.4</ele><time>2026-05-02T11:35:28.725Z</time></trkpt><trkpt lat="40.0185507" lon="15.9288312"><ele>830.0</ele><time>2026-05-02T11:35:29.72Z</time></trkpt><trkpt lat="40.0186138" lon="15.9289255"><ele>830.0</ele><time>2026-05-02T11:35:30.731Z</time></trkpt><trkpt lat="40.0186499" lon="15.9290584"><ele>830.0</ele><time>2026-05-02T11:35:31.722Z</time></trkpt><trkpt lat="40.0186283" lon="15.9292106"><ele>830.0</ele><time>2026-05-02T11:35:32.716Z</time></trkpt><trkpt lat="40.0185626" lon="15.9293656"><ele>830.0</ele><time>2026-05-02T11:35:33.734Z</time></trkpt><trkpt lat="40.0184563" lon="15.929515"><ele>831.6666666666667</ele><time>2026-05-02T11:35:34.717Z</time></trkpt><trkpt lat="40.0183429" lon="15.9296834"><ele>833.3333333333333</ele><time>2026-05-02T11:35:35.721Z</time></trkpt><trkpt lat="40.018229" lon="15.9298432"><ele>835.0</ele><time>2026-05-02T11:35:36.715Z</time></trkpt><trkpt lat="40.018124" lon="15.9299812"><ele>827.0</ele><time>2026-05-02T11:35:37.724Z</time></trkpt><trkpt lat="40.0180447" lon="15.9301178"><ele>819.0</ele><time>2026-05-02T11:35:38.73Z</time></trkpt><trkpt lat="40.0179905" lon="15.9302602"><ele>811.0</ele><time>2026-05-02T11:35:39.718Z</time></trkpt><trkpt lat="40.0179676" lon="15.9304079"><ele>803.0</ele><time>2026-05-02T11:35:40.724Z</time></trkpt><trkpt lat="40.0179831" lon="15.9305744"><ele>803.0</ele><time>2026-05-02T11:35:41.719Z</time></trkpt><trkpt lat="40.0180541" lon="15.930741"><ele>803.0</ele><time>2026-05-02T11:35:42.718Z</time></trkpt><trkpt lat="40.0181503" lon="15.9309102"><ele>803.0</ele><time>2026-05-02T11:35:43.722Z</time></trkpt><trkpt lat="40.0182549" lon="15.9310897"><ele>807.6666666666667</ele><time>2026-05-02T11:35:44.717Z</time></trkpt><trkpt lat="40.0183551" lon="15.9312995"><ele>812.3333333333333</ele><time>2026-05-02T11:35:45.746Z</time></trkpt><trkpt lat="40.0184353" lon="15.931498"><ele>817.0</ele><time>2026-05-02T11:35:46.723Z</time></trkpt><trkpt lat="40.0184974" lon="15.9316844"><ele>817.0</ele><time>2026-05-02T11:35:47.737Z</time></trkpt><trkpt lat="40.0185331" lon="15.9318629"><ele>817.0</ele><time>2026-05-02T11:35:48.714Z</time></trkpt><trkpt lat="40.0185535" lon="15.9320377"><ele>817.0</ele><time>2026-05-02T11:35:49.72Z</time></trkpt><trkpt lat="40.0185542" lon="15.9322083"><ele>817.0</ele><time>2026-05-02T11:35:50.718Z</time></trkpt><trkpt lat="40.0185315" lon="15.932377"><ele>817.0</ele><time>2026-05-02T11:35:51.726Z</time></trkpt><trkpt lat="40.0184851" lon="15.932526"><ele>817.0</ele><time>2026-05-02T11:35:52.706Z</time></trkpt><trkpt lat="40.0184266" lon="15.9326461"><ele>817.0</ele><time>2026-05-02T11:35:53.72Z</time></trkpt><trkpt lat="40.0183231" lon="15.9327335"><ele>817.0</ele><time>2026-05-02T11:35:54.729Z</time></trkpt><trkpt lat="40.0181906" lon="15.932802"><ele>814.5</ele><time>2026-05-02T11:35:55.718Z</time></trkpt><trkpt lat="40.018047" lon="15.93288"><ele>812.0</ele><time>2026-05-02T11:35:56.716Z</time></trkpt><trkpt lat="40.0179263" lon="15.9329651"><ele>809.5</ele><time>2026-05-02T11:35:57.712Z</time></trkpt><trkpt lat="40.0178191" lon="15.9330367"><ele>807.0</ele><time>2026-05-02T11:35:58.722Z</time></trkpt><trkpt lat="40.0177476" lon="15.9331331"><ele>807.0</ele><time>2026-05-02T11:35:59.725Z</time></trkpt><trkpt lat="40.0177003" lon="15.9332689"><ele>807.0</ele><time>2026-05-02T11:36:00.714Z</time></trkpt><trkpt lat="40.0176769" lon="15.9334443"><ele>807.0</ele><time>2026-05-02T11:36:01.721Z</time></trkpt><trkpt lat="40.017689" lon="15.9336292"><ele>807.0</ele><time>2026-05-02T11:36:02.711Z</time></trkpt><trkpt lat="40.0176907" lon="15.9337897"><ele>806.25</ele><time>2026-05-02T11:36:03.724Z</time></trkpt><trkpt lat="40.0176366" lon="15.9339308"><ele>805.5</ele><time>2026-05-02T11:36:04.715Z</time></trkpt><trkpt lat="40.0175131" lon="15.9340294"><ele>804.75</ele><time>2026-05-02T11:36:05.717Z</time></trkpt><trkpt lat="40.0173601" lon="15.9341033"><ele>804.0</ele><time>2026-05-02T11:36:06.722Z</time></trkpt><trkpt lat="40.017214" lon="15.9341615"><ele>804.0</ele><time>2026-05-02T11:36:07.711Z</time></trkpt><trkpt lat="40.0170865" lon="15.934204"><ele>804.0</ele><time>2026-05-02T11:36:08.714Z</time></trkpt><trkpt lat="40.0169768" lon="15.9342232"><ele>804.0</ele><time>2026-05-02T11:36:09.706Z</time></trkpt><trkpt lat="40.0168734" lon="15.9342004"><ele>804.0</ele><time>2026-05-02T11:36:10.717Z</time></trkpt><trkpt lat="40.0167851" lon="15.9341323"><ele>804.0</ele><time>2026-05-02T11:36:11.723Z</time></trkpt><trkpt lat="40.0166968" lon="15.9340859"><ele>804.0</ele><time>2026-05-02T11:36:12.705Z</time></trkpt><trkpt lat="40.0165914" lon="15.9340874"><ele>804.0</ele><time>2026-05-02T11:36:13.709Z</time></trkpt><trkpt lat="40.0164992" lon="15.934157"><ele>804.0</ele><time>2026-05-02T11:36:14.723Z</time></trkpt><trkpt lat="40.0164373" lon="15.9342704"><ele>804.0</ele><time>2026-05-02T11:36:15.736Z</time></trkpt><trkpt lat="40.0164014" lon="15.9344111"><ele>801.5</ele><time>2026-05-02T11:36:16.713Z</time></trkpt><trkpt lat="40.016383" lon="15.9345802"><ele>799.0</ele><time>2026-05-02T11:36:17.718Z</time></trkpt><trkpt lat="40.0163603" lon="15.9347545"><ele>796.5</ele><time>2026-05-02T11:36:18.718Z</time></trkpt><trkpt lat="40.0163294" lon="15.934935"><ele>794.0</ele><time>2026-05-02T11:36:19.724Z</time></trkpt><trkpt lat="40.0162835" lon="15.9351302"><ele>794.0</ele><time>2026-05-02T11:36:20.719Z</time></trkpt><trkpt lat="40.016225" lon="15.9353301"><ele>794.0</ele><time>2026-05-02T11:36:21.73Z</time></trkpt><trkpt lat="40.0161545" lon="15.9355405"><ele>794.0</ele><time>2026-05-02T11:36:22.713Z</time></trkpt><trkpt lat="40.016081" lon="15.9357446"><ele>793.6666666666667</ele><time>2026-05-02T11:36:23.723Z</time></trkpt><trkpt lat="40.0160107" lon="15.9359334"><ele>793.3333333333333</ele><time>2026-05-02T11:36:24.72Z</time></trkpt><trkpt lat="40.0159495" lon="15.9361126"><ele>793.0</ele><time>2026-05-02T11:36:25.729Z</time></trkpt><trkpt lat="40.0159041" lon="15.9362839"><ele>793.0</ele><time>2026-05-02T11:36:26.718Z</time></trkpt><trkpt lat="40.0158726" lon="15.9364527"><ele>793.0</ele><time>2026-05-02T11:36:27.724Z</time></trkpt><trkpt lat="40.0158696" lon="15.9366155"><ele>793.0</ele><time>2026-05-02T11:36:28.716Z</time></trkpt><trkpt lat="40.0158964" lon="15.9367776"><ele>793.0</ele><time>2026-05-02T11:36:29.737Z</time></trkpt><trkpt lat="40.015959" lon="15.9369296"><ele>790.5</ele><time>2026-05-02T11:36:30.725Z</time></trkpt><trkpt lat="40.0160397" lon="15.9370453"><ele>788.0</ele><time>2026-05-02T11:36:31.723Z</time></trkpt><trkpt lat="40.0161479" lon="15.9371319"><ele>785.5</ele><time>2026-05-02T11:36:32.725Z</time></trkpt><trkpt lat="40.0162756" lon="15.9371825"><ele>783.0</ele><time>2026-05-02T11:36:33.712Z</time></trkpt><trkpt lat="40.0164107" lon="15.9371727"><ele>783.0</ele><time>2026-05-02T11:36:34.72Z</time></trkpt><trkpt lat="40.0165587" lon="15.9371222"><ele>783.0</ele><time>2026-05-02T11:36:35.738Z</time></trkpt><trkpt lat="40.0167169" lon="15.9370424"><ele>783.0</ele><time>2026-05-02T11:36:36.721Z</time></trkpt><trkpt lat="40.0168632" lon="15.9369168"><ele>780.3333333333333</ele><time>2026-05-02T11:36:37.713Z</time></trkpt><trkpt lat="40.0170147" lon="15.9367878"><ele>777.6666666666666</ele><time>2026-05-02T11:36:38.731Z</time></trkpt><trkpt lat="40.0171666" lon="15.9366495"><ele>775.0</ele><time>2026-05-02T11:36:39.729Z</time></trkpt><trkpt lat="40.0173282" lon="15.9365128"><ele>777.3333333333333</ele><time>2026-05-02T11:36:40.719Z</time></trkpt><trkpt lat="40.0174956" lon="15.9363745"><ele>779.6666666666667</ele><time>2026-05-02T11:36:41.712Z</time></trkpt><trkpt lat="40.0176699" lon="15.9362367"><ele>782.0</ele><time>2026-05-02T11:36:42.709Z</time></trkpt><trkpt lat="40.0178411" lon="15.9360957"><ele>782.0</ele><time>2026-05-02T11:36:43.716Z</time></trkpt><trkpt lat="40.0180118" lon="15.9359576"><ele>782.0</ele><time>2026-05-02T11:36:44.731Z</time></trkpt><trkpt lat="40.0181773" lon="15.9358212"><ele>782.0</ele><time>2026-05-02T11:36:45.729Z</time></trkpt><trkpt lat="40.0183428" lon="15.9357003"><ele>783.5</ele><time>2026-05-02T11:36:46.717Z</time></trkpt><trkpt lat="40.0184932" lon="15.9356037"><ele>785.0</ele><time>2026-05-02T11:36:47.722Z</time></trkpt><trkpt lat="40.0186297" lon="15.9355426"><ele>786.5</ele><time>2026-05-02T11:36:48.712Z</time></trkpt><trkpt lat="40.0187518" lon="15.9355123"><ele>788.0</ele><time>2026-05-02T11:36:49.718Z</time></trkpt><trkpt lat="40.0188588" lon="15.9355384"><ele>788.0</ele><time>2026-05-02T11:36:50.722Z</time></trkpt><trkpt lat="40.0189604" lon="15.9355963"><ele>788.0</ele><time>2026-05-02T11:36:51.712Z</time></trkpt><trkpt lat="40.019053" lon="15.9356912"><ele>788.0</ele><time>2026-05-02T11:36:52.723Z</time></trkpt><trkpt lat="40.019127" lon="15.9358213"><ele>788.0</ele><time>2026-05-02T11:36:53.713Z</time></trkpt><trkpt lat="40.0191537" lon="15.9359756"><ele>785.25</ele><time>2026-05-02T11:36:54.726Z</time></trkpt><trkpt lat="40.01915" lon="15.9361403"><ele>782.5</ele><time>2026-05-02T11:36:55.724Z</time></trkpt><trkpt lat="40.0190971" lon="15.936319"><ele>779.75</ele><time>2026-05-02T11:36:56.714Z</time></trkpt><trkpt lat="40.0190093" lon="15.9364915"><ele>777.0</ele><time>2026-05-02T11:36:57.722Z</time></trkpt><trkpt lat="40.0188948" lon="15.936677"><ele>779.3333333333333</ele><time>2026-05-02T11:36:58.718Z</time></trkpt><trkpt lat="40.0187774" lon="15.9368702"><ele>781.6666666666666</ele><time>2026-05-02T11:36:59.71Z</time></trkpt><trkpt lat="40.0186473" lon="15.9370644"><ele>784.0</ele><time>2026-05-02T11:37:00.719Z</time></trkpt><trkpt lat="40.0185138" lon="15.9372744"><ele>784.0</ele><time>2026-05-02T11:37:01.714Z</time></trkpt><trkpt lat="40.0183838" lon="15.9375049"><ele>784.0</ele><time>2026-05-02T11:37:02.722Z</time></trkpt><trkpt lat="40.018239" lon="15.9377436"><ele>773.0</ele><time>2026-05-02T11:37:03.709Z</time></trkpt><trkpt lat="40.0180866" lon="15.9379763"><ele>762.0</ele><time>2026-05-02T11:37:04.713Z</time></trkpt><trkpt lat="40.0179252" lon="15.9382022"><ele>765.3333333333333</ele><time>2026-05-02T11:37:05.715Z</time></trkpt><trkpt lat="40.0177616" lon="15.9384215"><ele>768.6666666666666</ele><time>2026-05-02T11:37:06.716Z</time></trkpt><trkpt lat="40.017617" lon="15.9386175"><ele>772.0</ele><time>2026-05-02T11:37:07.727Z</time></trkpt><trkpt lat="40.0174894" lon="15.9387857"><ele>766.0</ele><time>2026-05-02T11:37:08.695Z</time></trkpt><trkpt lat="40.0173771" lon="15.9389398"><ele>760.0</ele><time>2026-05-02T11:37:09.715Z</time></trkpt><trkpt lat="40.0172433" lon="15.9390614"><ele>754.0</ele><time>2026-05-02T11:37:10.719Z</time></trkpt><trkpt lat="40.0170949" lon="15.9391657"><ele>759.6666666666667</ele><time>2026-05-02T11:37:11.715Z</time></trkpt><trkpt lat="40.0169445" lon="15.9392811"><ele>765.3333333333334</ele><time>2026-05-02T11:37:12.707Z</time></trkpt><trkpt lat="40.0168014" lon="15.9394033"><ele>771.0</ele><time>2026-05-02T11:37:13.722Z</time></trkpt><trkpt lat="40.0166694" lon="15.9395571"><ele>761.3333333333334</ele><time>2026-05-02T11:37:14.726Z</time></trkpt><trkpt lat="40.0165538" lon="15.9397498"><ele>751.6666666666667</ele><time>2026-05-02T11:37:15.715Z</time></trkpt><trkpt lat="40.0164556" lon="15.9399649"><ele>742.0</ele><time>2026-05-02T11:37:16.716Z</time></trkpt><trkpt lat="40.0163736" lon="15.9401998"><ele>742.0</ele><time>2026-05-02T11:37:17.731Z</time></trkpt><trkpt lat="40.0162889" lon="15.9404424"><ele>742.0</ele><time>2026-05-02T11:37:18.717Z</time></trkpt><trkpt lat="40.0162018" lon="15.9406864"><ele>742.0</ele><time>2026-05-02T11:37:19.713Z</time></trkpt><trkpt lat="40.0161202" lon="15.940928"><ele>744.6666666666667</ele><time>2026-05-02T11:37:20.71Z</time></trkpt><trkpt lat="40.0160456" lon="15.9411391"><ele>747.3333333333334</ele><time>2026-05-02T11:37:21.724Z</time></trkpt><trkpt lat="40.0159687" lon="15.9413159"><ele>750.0</ele><time>2026-05-02T11:37:22.716Z</time></trkpt><trkpt lat="40.0159154" lon="15.9414605"><ele>750.0</ele><time>2026-05-02T11:37:23.715Z</time></trkpt><trkpt lat="40.0158735" lon="15.9415908"><ele>750.0</ele><time>2026-05-02T11:37:24.7Z</time></trkpt><trkpt lat="40.015861" lon="15.9417262"><ele>750.0</ele><time>2026-05-02T11:37:25.72Z</time></trkpt><trkpt lat="40.0158776" lon="15.9418727"><ele>750.0</ele><time>2026-05-02T11:37:26.718Z</time></trkpt><trkpt lat="40.0159308" lon="15.9420023"><ele>750.0</ele><time>2026-05-02T11:37:27.735Z</time></trkpt><trkpt lat="40.0160028" lon="15.9421298"><ele>750.6</ele><time>2026-05-02T11:37:28.717Z</time></trkpt><trkpt lat="40.0160585" lon="15.9422601"><ele>751.2</ele><time>2026-05-02T11:37:29.719Z</time></trkpt><trkpt lat="40.0160734" lon="15.9423888"><ele>751.8</ele><time>2026-05-02T11:37:30.707Z</time></trkpt><trkpt lat="40.0160393" lon="15.9425029"><ele>752.4</ele><time>2026-05-02T11:37:31.715Z</time></trkpt><trkpt lat="40.015952" lon="15.942581"><ele>753.0</ele><time>2026-05-02T11:37:32.708Z</time></trkpt><trkpt lat="40.0158274" lon="15.9426177"><ele>752.6666666666666</ele><time>2026-05-02T11:37:33.712Z</time></trkpt><trkpt lat="40.0156752" lon="15.9426571"><ele>752.3333333333333</ele><time>2026-05-02T11:37:34.699Z</time></trkpt><trkpt lat="40.0155075" lon="15.942675"><ele>752.0</ele><time>2026-05-02T11:37:35.715Z</time></trkpt><trkpt lat="40.0153363" lon="15.9426906"><ele>752.0</ele><time>2026-05-02T11:37:36.717Z</time></trkpt><trkpt lat="40.0151764" lon="15.9427096"><ele>752.0</ele><time>2026-05-02T11:37:37.72Z</time></trkpt><trkpt lat="40.0150292" lon="15.9427293"><ele>752.0</ele><time>2026-05-02T11:37:38.721Z</time></trkpt><trkpt lat="40.0148811" lon="15.9427607"><ele>743.6666666666666</ele><time>2026-05-02T11:37:39.713Z</time></trkpt><trkpt lat="40.0147454" lon="15.9428418"><ele>735.3333333333334</ele><time>2026-05-02T11:37:40.706Z</time></trkpt><trkpt lat="40.0146231" lon="15.9429899"><ele>727.0</ele><time>2026-05-02T11:37:41.721Z</time></trkpt><trkpt lat="40.0145085" lon="15.9431588"><ele>727.0</ele><time>2026-05-02T11:37:42.71Z</time></trkpt><trkpt lat="40.0143905" lon="15.9433281"><ele>727.0</ele><time>2026-05-02T11:37:43.727Z</time></trkpt><trkpt lat="40.0142654" lon="15.9434813"><ele>727.0</ele><time>2026-05-02T11:37:44.714Z</time></trkpt><trkpt lat="40.0141359" lon="15.9436143"><ele>725.6666666666667</ele><time>2026-05-02T11:37:45.719Z</time></trkpt><trkpt lat="40.0139982" lon="15.943738"><ele>724.3333333333334</ele><time>2026-05-02T11:37:46.722Z</time></trkpt><trkpt lat="40.0138501" lon="15.9438226"><ele>723.0</ele><time>2026-05-02T11:37:47.725Z</time></trkpt><trkpt lat="40.0137019" lon="15.9438786"><ele>723.0</ele><time>2026-05-02T11:37:48.71Z</time></trkpt><trkpt lat="40.0135777" lon="15.943929"><ele>723.0</ele><time>2026-05-02T11:37:49.726Z</time></trkpt><trkpt lat="40.0134704" lon="15.943981"><ele>723.0</ele><time>2026-05-02T11:37:50.706Z</time></trkpt><trkpt lat="40.0133858" lon="15.94407"><ele>723.0</ele><time>2026-05-02T11:37:51.724Z</time></trkpt><trkpt lat="40.013309" lon="15.9442027"><ele>719.0</ele><time>2026-05-02T11:37:52.715Z</time></trkpt><trkpt lat="40.0132732" lon="15.9443791"><ele>715.0</ele><time>2026-05-02T11:37:53.72Z</time></trkpt><trkpt lat="40.0132695" lon="15.9445791"><ele>711.0</ele><time>2026-05-02T11:37:54.726Z</time></trkpt><trkpt lat="40.0132754" lon="15.9447993"><ele>711.0</ele><time>2026-05-02T11:37:55.714Z</time></trkpt><trkpt lat="40.0132712" lon="15.9450247"><ele>711.0</ele><time>2026-05-02T11:37:56.714Z</time></trkpt><trkpt lat="40.013262" lon="15.9452616"><ele>711.0</ele><time>2026-05-02T11:37:57.712Z</time></trkpt><trkpt lat="40.0132534" lon="15.9455049"><ele>710.6666666666666</ele><time>2026-05-02T11:37:58.71Z</time></trkpt><trkpt lat="40.0132566" lon="15.9457419"><ele>710.3333333333333</ele><time>2026-05-02T11:37:59.719Z</time></trkpt><trkpt lat="40.0132605" lon="15.945968"><ele>710.0</ele><time>2026-05-02T11:38:00.724Z</time></trkpt><trkpt lat="40.0132612" lon="15.9461961"><ele>708.6666666666666</ele><time>2026-05-02T11:38:01.711Z</time></trkpt><trkpt lat="40.0132585" lon="15.9464202"><ele>707.3333333333334</ele><time>2026-05-02T11:38:02.706Z</time></trkpt><trkpt lat="40.013244" lon="15.9466557"><ele>706.0</ele><time>2026-05-02T11:38:03.755Z</time></trkpt><trkpt lat="40.0132251" lon="15.9469042"><ele>705.3333333333334</ele><time>2026-05-02T11:38:04.712Z</time></trkpt><trkpt lat="40.0132076" lon="15.9471621"><ele>704.6666666666666</ele><time>2026-05-02T11:38:05.71Z</time></trkpt><trkpt lat="40.0131954" lon="15.9474309"><ele>704.0</ele><time>2026-05-02T11:38:06.731Z</time></trkpt><trkpt lat="40.0131837" lon="15.9477041"><ele>703.6666666666666</ele><time>2026-05-02T11:38:07.725Z</time></trkpt><trkpt lat="40.013164" lon="15.9479801"><ele>703.3333333333334</ele><time>2026-05-02T11:38:08.726Z</time></trkpt><trkpt lat="40.0131454" lon="15.9482639"><ele>703.0</ele><time>2026-05-02T11:38:09.712Z</time></trkpt><trkpt lat="40.0131266" lon="15.948552"><ele>703.0</ele><time>2026-05-02T11:38:10.718Z</time></trkpt><trkpt lat="40.0131054" lon="15.948843"><ele>703.0</ele><time>2026-05-02T11:38:11.721Z</time></trkpt><trkpt lat="40.0130844" lon="15.9491199"><ele>703.0</ele><time>2026-05-02T11:38:12.718Z</time></trkpt><trkpt lat="40.013064" lon="15.9493844"><ele>701.3333333333334</ele><time>2026-05-02T11:38:13.758Z</time></trkpt><trkpt lat="40.01305" lon="15.9496465"><ele>699.6666666666666</ele><time>2026-05-02T11:38:14.712Z</time></trkpt><trkpt lat="40.0130514" lon="15.9499209"><ele>698.0</ele><time>2026-05-02T11:38:15.714Z</time></trkpt><trkpt lat="40.0130824" lon="15.9501997"><ele>696.6666666666666</ele><time>2026-05-02T11:38:16.728Z</time></trkpt><trkpt lat="40.0131264" lon="15.9504671"><ele>695.3333333333334</ele><time>2026-05-02T11:38:17.738Z</time></trkpt><trkpt lat="40.0131606" lon="15.9507051"><ele>694.0</ele><time>2026-05-02T11:38:18.72Z</time></trkpt><trkpt lat="40.0131937" lon="15.9508994"><ele>693.0</ele><time>2026-05-02T11:38:19.74Z</time></trkpt><trkpt lat="40.0132264" lon="15.9510734"><ele>692.0</ele><time>2026-05-02T11:38:20.726Z</time></trkpt><trkpt lat="40.0132515" lon="15.9512418"><ele>691.0</ele><time>2026-05-02T11:38:21.737Z</time></trkpt><trkpt lat="40.0132698" lon="15.951409"><ele>690.0</ele><time>2026-05-02T11:38:22.713Z</time></trkpt><trkpt lat="40.0132744" lon="15.9515501"><ele>690.0</ele><time>2026-05-02T11:38:23.724Z</time></trkpt><trkpt lat="40.0132582" lon="15.9516655"><ele>690.0</ele><time>2026-05-02T11:38:24.721Z</time></trkpt><trkpt lat="40.0132052" lon="15.9517557"><ele>690.0</ele><time>2026-05-02T11:38:25.717Z</time></trkpt><trkpt lat="40.0131394" lon="15.9517998"><ele>690.0</ele><time>2026-05-02T11:38:26.71Z</time></trkpt><trkpt lat="40.0130585" lon="15.951792"><ele>690.0</ele><time>2026-05-02T11:38:27.721Z</time></trkpt><trkpt lat="40.0129794" lon="15.9517226"><ele>690.0</ele><time>2026-05-02T11:38:28.725Z</time></trkpt><trkpt lat="40.0129053" lon="15.9516001"><ele>690.0</ele><time>2026-05-02T11:38:29.727Z</time></trkpt><trkpt lat="40.0128472" lon="15.95142"><ele>690.0</ele><time>2026-05-02T11:38:30.72Z</time></trkpt><trkpt lat="40.0127867" lon="15.9512226"><ele>690.0</ele><time>2026-05-02T11:38:31.721Z</time></trkpt><trkpt lat="40.0127194" lon="15.9510274"><ele>691.3333333333334</ele><time>2026-05-02T11:38:32.724Z</time></trkpt><trkpt lat="40.0126597" lon="15.950858"><ele>692.6666666666667</ele><time>2026-05-02T11:38:33.723Z</time></trkpt><trkpt lat="40.0125791" lon="15.9506952"><ele>694.0</ele><time>2026-05-02T11:38:34.715Z</time></trkpt><trkpt lat="40.0124701" lon="15.9505422"><ele>690.3333333333334</ele><time>2026-05-02T11:38:35.718Z</time></trkpt><trkpt lat="40.0123271" lon="15.9504069"><ele>686.6666666666666</ele><time>2026-05-02T11:38:36.723Z</time></trkpt><trkpt lat="40.0121679" lon="15.9502713"><ele>683.0</ele><time>2026-05-02T11:38:37.713Z</time></trkpt><trkpt lat="40.0120025" lon="15.9501281"><ele>684.3333333333333</ele><time>2026-05-02T11:38:38.717Z</time></trkpt><trkpt lat="40.0118409" lon="15.9499712"><ele>685.6666666666666</ele><time>2026-05-02T11:38:39.721Z</time></trkpt><trkpt lat="40.0116689" lon="15.9498203"><ele>687.0</ele><time>2026-05-02T11:38:40.725Z</time></trkpt><trkpt lat="40.0114932" lon="15.9496684"><ele>684.3333333333334</ele><time>2026-05-02T11:38:41.731Z</time></trkpt><trkpt lat="40.0113188" lon="15.9495161"><ele>681.6666666666667</ele><time>2026-05-02T11:38:42.717Z</time></trkpt><trkpt lat="40.011152" lon="15.9493623"><ele>679.0</ele><time>2026-05-02T11:38:43.727Z</time></trkpt><trkpt lat="40.0109888" lon="15.949205"><ele>679.0</ele><time>2026-05-02T11:38:44.711Z</time></trkpt><trkpt lat="40.0108297" lon="15.9490573"><ele>679.0</ele><time>2026-05-02T11:38:45.719Z</time></trkpt><trkpt lat="40.0106662" lon="15.948917"><ele>679.0</ele><time>2026-05-02T11:38:46.71Z</time></trkpt><trkpt lat="40.0105081" lon="15.948773"><ele>677.0</ele><time>2026-05-02T11:38:47.721Z</time></trkpt><trkpt lat="40.010348" lon="15.9486314"><ele>675.0</ele><time>2026-05-02T11:38:48.728Z</time></trkpt><trkpt lat="40.0101939" lon="15.9484866"><ele>673.0</ele><time>2026-05-02T11:38:49.728Z</time></trkpt><trkpt lat="40.0100441" lon="15.9483451"><ele>671.0</ele><time>2026-05-02T11:38:50.712Z</time></trkpt><trkpt lat="40.009902" lon="15.948211"><ele>669.0</ele><time>2026-05-02T11:38:51.715Z</time></trkpt><trkpt lat="40.0097656" lon="15.9480815"><ele>667.0</ele><time>2026-05-02T11:38:52.72Z</time></trkpt><trkpt lat="40.0096326" lon="15.9479442"><ele>667.0</ele><time>2026-05-02T11:38:53.718Z</time></trkpt><trkpt lat="40.0095101" lon="15.9477938"><ele>667.0</ele><time>2026-05-02T11:38:54.723Z</time></trkpt><trkpt lat="40.0094018" lon="15.94764"><ele>667.0</ele><time>2026-05-02T11:38:55.722Z</time></trkpt><trkpt lat="40.0093096" lon="15.9474883"><ele>667.6</ele><time>2026-05-02T11:38:56.72Z</time></trkpt><trkpt lat="40.0092317" lon="15.947346"><ele>668.2</ele><time>2026-05-02T11:38:57.725Z</time></trkpt><trkpt lat="40.0091569" lon="15.9472323"><ele>668.8</ele><time>2026-05-02T11:38:58.719Z</time></trkpt><trkpt lat="40.0090876" lon="15.9471548"><ele>669.4</ele><time>2026-05-02T11:38:59.715Z</time></trkpt><trkpt lat="40.0089928" lon="15.9471015"><ele>670.0</ele><time>2026-05-02T11:39:00.718Z</time></trkpt><trkpt lat="40.0088924" lon="15.9470966"><ele>666.75</ele><time>2026-05-02T11:39:01.72Z</time></trkpt><trkpt lat="40.0087822" lon="15.9471363"><ele>663.5</ele><time>2026-05-02T11:39:02.713Z</time></trkpt><trkpt lat="40.0086857" lon="15.9472206"><ele>660.25</ele><time>2026-05-02T11:39:03.714Z</time></trkpt><trkpt lat="40.0085976" lon="15.9473441"><ele>657.0</ele><time>2026-05-02T11:39:04.729Z</time></trkpt><trkpt lat="40.0085078" lon="15.9474843"><ele>657.25</ele><time>2026-05-02T11:39:05.719Z</time></trkpt><trkpt lat="40.0084195" lon="15.9476151"><ele>657.5</ele><time>2026-05-02T11:39:06.709Z</time></trkpt><trkpt lat="40.00834" lon="15.9477481"><ele>657.75</ele><time>2026-05-02T11:39:07.724Z</time></trkpt><trkpt lat="40.0082696" lon="15.9478613"><ele>658.0</ele><time>2026-05-02T11:39:08.721Z</time></trkpt><trkpt lat="40.0082116" lon="15.947998"><ele>655.75</ele><time>2026-05-02T11:39:09.722Z</time></trkpt><trkpt lat="40.0081845" lon="15.9481601"><ele>653.5</ele><time>2026-05-02T11:39:10.717Z</time></trkpt><trkpt lat="40.0081812" lon="15.9483431"><ele>651.25</ele><time>2026-05-02T11:39:11.724Z</time></trkpt><trkpt lat="40.0081981" lon="15.9485123"><ele>649.0</ele><time>2026-05-02T11:39:12.722Z</time></trkpt><trkpt lat="40.0082386" lon="15.9486671"><ele>649.5</ele><time>2026-05-02T11:39:13.731Z</time></trkpt><trkpt lat="40.0082939" lon="15.9488233"><ele>650.0</ele><time>2026-05-02T11:39:14.72Z</time></trkpt><trkpt lat="40.0083499" lon="15.9489711"><ele>650.5</ele><time>2026-05-02T11:39:15.732Z</time></trkpt><trkpt lat="40.0084055" lon="15.9491071"><ele>651.0</ele><time>2026-05-02T11:39:16.727Z</time></trkpt><trkpt lat="40.0084557" lon="15.9492396"><ele>650.0</ele><time>2026-05-02T11:39:17.715Z</time></trkpt><trkpt lat="40.0085125" lon="15.9493807"><ele>649.0</ele><time>2026-05-02T11:39:18.717Z</time></trkpt><trkpt lat="40.0085562" lon="15.9495393"><ele>648.0</ele><time>2026-05-02T11:39:19.714Z</time></trkpt><trkpt lat="40.008589" lon="15.9497038"><ele>647.0</ele><time>2026-05-02T11:39:20.73Z</time></trkpt><trkpt lat="40.0086039" lon="15.9498768"><ele>646.6666666666666</ele><time>2026-05-02T11:39:21.742Z</time></trkpt><trkpt lat="40.0086046" lon="15.9500719"><ele>646.3333333333334</ele><time>2026-05-02T11:39:22.714Z</time></trkpt><trkpt lat="40.0085964" lon="15.9502872"><ele>646.0</ele><time>2026-05-02T11:39:23.73Z</time></trkpt><trkpt lat="40.0085721" lon="15.9505201"><ele>646.0</ele><time>2026-05-02T11:39:24.718Z</time></trkpt><trkpt lat="40.008548" lon="15.9507751"><ele>646.0</ele><time>2026-05-02T11:39:25.727Z</time></trkpt><trkpt lat="40.0085168" lon="15.9510223"><ele>646.0</ele><time>2026-05-02T11:39:26.721Z</time></trkpt><trkpt lat="40.0084982" lon="15.9512553"><ele>644.6666666666667</ele><time>2026-05-02T11:39:27.732Z</time></trkpt><trkpt lat="40.0084826" lon="15.9514861"><ele>643.3333333333334</ele><time>2026-05-02T11:39:28.712Z</time></trkpt><trkpt lat="40.0084652" lon="15.9517029"><ele>642.0</ele><time>2026-05-02T11:39:29.713Z</time></trkpt><trkpt lat="40.008449" lon="15.9519072"><ele>641.0</ele><time>2026-05-02T11:39:30.715Z</time></trkpt><trkpt lat="40.0084361" lon="15.9520949"><ele>640.0</ele><time>2026-05-02T11:39:31.728Z</time></trkpt><trkpt lat="40.0084232" lon="15.9522568"><ele>639.0</ele><time>2026-05-02T11:39:32.717Z</time></trkpt><trkpt lat="40.0084205" lon="15.9524108"><ele>638.0</ele><time>2026-05-02T11:39:33.727Z</time></trkpt><trkpt lat="40.0084481" lon="15.9525657"><ele>636.0</ele><time>2026-05-02T11:39:34.72Z</time></trkpt><trkpt lat="40.0085126" lon="15.9527249"><ele>634.0</ele><time>2026-05-02T11:39:35.721Z</time></trkpt><trkpt lat="40.0086114" lon="15.9528431"><ele>632.0</ele><time>2026-05-02T11:39:36.722Z</time></trkpt><trkpt lat="40.0087414" lon="15.9529455"><ele>630.0</ele><time>2026-05-02T11:39:37.725Z</time></trkpt><trkpt lat="40.008893" lon="15.953026"><ele>630.0</ele><time>2026-05-02T11:39:38.722Z</time></trkpt><trkpt lat="40.0090383" lon="15.9531094"><ele>630.0</ele><time>2026-05-02T11:39:39.715Z</time></trkpt><trkpt lat="40.0091754" lon="15.9531913"><ele>630.0</ele><time>2026-05-02T11:39:40.715Z</time></trkpt><trkpt lat="40.0093052" lon="15.9532598"><ele>630.0</ele><time>2026-05-02T11:39:41.723Z</time></trkpt><trkpt lat="40.00944" lon="15.9532897"><ele>629.6666666666666</ele><time>2026-05-02T11:39:42.719Z</time></trkpt><trkpt lat="40.0095799" lon="15.9532513"><ele>629.3333333333333</ele><time>2026-05-02T11:39:43.724Z</time></trkpt><trkpt lat="40.0097184" lon="15.9531636"><ele>629.0</ele><time>2026-05-02T11:39:44.722Z</time></trkpt><trkpt lat="40.0098451" lon="15.9530378"><ele>629.0</ele><time>2026-05-02T11:39:45.717Z</time></trkpt><trkpt lat="40.0099616" lon="15.9529324"><ele>629.0</ele><time>2026-05-02T11:39:46.714Z</time></trkpt><trkpt lat="40.0100677" lon="15.9528622"><ele>629.0</ele><time>2026-05-02T11:39:47.718Z</time></trkpt><trkpt lat="40.0101837" lon="15.9528494"><ele>629.0</ele><time>2026-05-02T11:39:48.711Z</time></trkpt><trkpt lat="40.0103004" lon="15.9528735"><ele>627.25</ele><time>2026-05-02T11:39:49.711Z</time></trkpt><trkpt lat="40.010419" lon="15.9529456"><ele>625.5</ele><time>2026-05-02T11:39:50.73Z</time></trkpt><trkpt lat="40.0105318" lon="15.9530697"><ele>623.75</ele><time>2026-05-02T11:39:51.721Z</time></trkpt><trkpt lat="40.0106492" lon="15.9532216"><ele>622.0</ele><time>2026-05-02T11:39:52.723Z</time></trkpt><trkpt lat="40.0107707" lon="15.9533584"><ele>621.5</ele><time>2026-05-02T11:39:53.732Z</time></trkpt><trkpt lat="40.0108915" lon="15.9534543"><ele>621.0</ele><time>2026-05-02T11:39:54.714Z</time></trkpt><trkpt lat="40.010996" lon="15.9535406"><ele>620.5</ele><time>2026-05-02T11:39:55.718Z</time></trkpt><trkpt lat="40.0110688" lon="15.9536348"><ele>620.0</ele><time>2026-05-02T11:39:56.72Z</time></trkpt><trkpt lat="40.0111147" lon="15.9537706"><ele>620.0</ele><time>2026-05-02T11:39:57.734Z</time></trkpt><trkpt lat="40.0111172" lon="15.9539464"><ele>620.0</ele><time>2026-05-02T11:39:58.711Z</time></trkpt><trkpt lat="40.0110739" lon="15.9541158"><ele>620.0</ele><time>2026-05-02T11:39:59.715Z</time></trkpt><trkpt lat="40.011005" lon="15.9542684"><ele>620.0</ele><time>2026-05-02T11:40:00.711Z</time></trkpt><trkpt lat="40.0109063" lon="15.9544318"><ele>616.3333333333333</ele><time>2026-05-02T11:40:01.717Z</time></trkpt><trkpt lat="40.0108016" lon="15.9545988"><ele>612.6666666666666</ele><time>2026-05-02T11:40:02.717Z</time></trkpt><trkpt lat="40.0107139" lon="15.9547731"><ele>609.0</ele><time>2026-05-02T11:40:03.732Z</time></trkpt><trkpt lat="40.0106394" lon="15.9549327"><ele>614.75</ele><time>2026-05-02T11:40:04.697Z</time></trkpt><trkpt lat="40.0105656" lon="15.9550704"><ele>620.5</ele><time>2026-05-02T11:40:05.705Z</time></trkpt><trkpt lat="40.0104757" lon="15.9551705"><ele>626.25</ele><time>2026-05-02T11:40:06.709Z</time></trkpt><trkpt lat="40.0103582" lon="15.9552171"><ele>632.0</ele><time>2026-05-02T11:40:07.701Z</time></trkpt><trkpt lat="40.0102244" lon="15.9552273"><ele>632.0</ele><time>2026-05-02T11:40:08.701Z</time></trkpt><trkpt lat="40.0100856" lon="15.9552244"><ele>632.0</ele><time>2026-05-02T11:40:09.71Z</time></trkpt><trkpt lat="40.0099341" lon="15.9552323"><ele>632.0</ele><time>2026-05-02T11:40:10.716Z</time></trkpt><trkpt lat="40.0097711" lon="15.9552446"><ele>628.25</ele><time>2026-05-02T11:40:11.723Z</time></trkpt><trkpt lat="40.0096165" lon="15.9552531"><ele>624.5</ele><time>2026-05-02T11:40:12.713Z</time></trkpt><trkpt lat="40.0094757" lon="15.9552556"><ele>620.75</ele><time>2026-05-02T11:40:13.713Z</time></trkpt><trkpt lat="40.0093457" lon="15.9552695"><ele>617.0</ele><time>2026-05-02T11:40:14.711Z</time></trkpt><trkpt lat="40.0092169" lon="15.9553093"><ele>612.0</ele><time>2026-05-02T11:40:15.721Z</time></trkpt><trkpt lat="40.0090881" lon="15.9553594"><ele>607.0</ele><time>2026-05-02T11:40:16.706Z</time></trkpt><trkpt lat="40.00896" lon="15.9554447"><ele>602.0</ele><time>2026-05-02T11:40:17.718Z</time></trkpt><trkpt lat="40.0088339" lon="15.9555683"><ele>597.0</ele><time>2026-05-02T11:40:18.708Z</time></trkpt><trkpt lat="40.0087009" lon="15.9557054"><ele>597.0</ele><time>2026-05-02T11:40:19.719Z</time></trkpt><trkpt lat="40.0085648" lon="15.9558475"><ele>597.0</ele><time>2026-05-02T11:40:20.717Z</time></trkpt><trkpt lat="40.0084353" lon="15.9559699"><ele>597.0</ele><time>2026-05-02T11:40:21.717Z</time></trkpt><trkpt lat="40.0083233" lon="15.9560799"><ele>592.6</ele><time>2026-05-02T11:40:22.713Z</time></trkpt><trkpt lat="40.0082304" lon="15.95618"><ele>588.2</ele><time>2026-05-02T11:40:23.713Z</time></trkpt><trkpt lat="40.0081511" lon="15.9562742"><ele>583.8</ele><time>2026-05-02T11:40:24.707Z</time></trkpt><trkpt lat="40.0080924" lon="15.9563632"><ele>579.4</ele><time>2026-05-02T11:40:25.705Z</time></trkpt><trkpt lat="40.0080499" lon="15.9564399"><ele>575.0</ele><time>2026-05-02T11:40:26.718Z</time></trkpt><trkpt lat="40.0080159" lon="15.9565123"><ele>575.0</ele><time>2026-05-02T11:40:27.724Z</time></trkpt><trkpt lat="40.0079712" lon="15.9566389"><ele>575.0</ele><time>2026-05-02T11:40:29.717Z</time></trkpt><trkpt lat="40.0079625" lon="15.9567799"><ele>575.0</ele><time>2026-05-02T11:40:31.729Z</time></trkpt><trkpt lat="40.0079686" lon="15.956925"><ele>575.0</ele><time>2026-05-02T11:40:33.711Z</time></trkpt><trkpt lat="40.0079861" lon="15.9570693"><ele>575.0</ele><time>2026-05-02T11:40:35.712Z</time></trkpt><trkpt lat="40.0080016" lon="15.9571522"><ele>575.8333333333333</ele><time>2026-05-02T11:40:36.719Z</time></trkpt><trkpt lat="40.0080256" lon="15.9573048"><ele>576.6666666666666</ele><time>2026-05-02T11:40:38.721Z</time></trkpt><trkpt lat="40.0080103" lon="15.9573934"><ele>577.5</ele><time>2026-05-02T11:40:39.734Z</time></trkpt><trkpt lat="40.0079844" lon="15.9574782"><ele>578.3333333333334</ele><time>2026-05-02T11:40:40.718Z</time></trkpt><trkpt lat="40.0079645" lon="15.957561"><ele>579.1666666666667</ele><time>2026-05-02T11:40:41.721Z</time></trkpt><trkpt lat="40.0079425" lon="15.9576543"><ele>580.0</ele><time>2026-05-02T11:40:42.729Z</time></trkpt><trkpt lat="40.0079227" lon="15.9577652"><ele>582.3333333333334</ele><time>2026-05-02T11:40:43.724Z</time></trkpt><trkpt lat="40.0079107" lon="15.9578796"><ele>584.6666666666667</ele><time>2026-05-02T11:40:44.713Z</time></trkpt><trkpt lat="40.0078964" lon="15.9579822"><ele>587.0</ele><time>2026-05-02T11:40:45.712Z</time></trkpt><trkpt lat="40.0078726" lon="15.9580743"><ele>589.3333333333334</ele><time>2026-05-02T11:40:46.719Z</time></trkpt><trkpt lat="40.007829" lon="15.9581516"><ele>591.6666666666666</ele><time>2026-05-02T11:40:47.714Z</time></trkpt><trkpt lat="40.007751" lon="15.9581935"><ele>594.0</ele><time>2026-05-02T11:40:48.707Z</time></trkpt><trkpt lat="40.0076509" lon="15.9582009"><ele>594.0</ele><time>2026-05-02T11:40:49.721Z</time></trkpt><trkpt lat="40.0075383" lon="15.9581885"><ele>594.0</ele><time>2026-05-02T11:40:50.714Z</time></trkpt><trkpt lat="40.0074251" lon="15.9581689"><ele>594.0</ele><time>2026-05-02T11:40:51.721Z</time></trkpt><trkpt lat="40.0073099" lon="15.95817"><ele>594.0</ele><time>2026-05-02T11:40:52.712Z</time></trkpt><trkpt lat="40.0071897" lon="15.9582162"><ele>592.25</ele><time>2026-05-02T11:40:53.716Z</time></trkpt><trkpt lat="40.0070821" lon="15.9583352"><ele>590.5</ele><time>2026-05-02T11:40:54.714Z</time></trkpt><trkpt lat="40.0069989" lon="15.9584852"><ele>588.75</ele><time>2026-05-02T11:40:55.72Z</time></trkpt><trkpt lat="40.0069248" lon="15.9586475"><ele>587.0</ele><time>2026-05-02T11:40:56.725Z</time></trkpt><trkpt lat="40.0068456" lon="15.9587939"><ele>587.0</ele><time>2026-05-02T11:40:57.717Z</time></trkpt><trkpt lat="40.0067445" lon="15.9589193"><ele>587.0</ele><time>2026-05-02T11:40:58.713Z</time></trkpt><trkpt lat="40.0066136" lon="15.9590114"><ele>587.0</ele><time>2026-05-02T11:40:59.722Z</time></trkpt><trkpt lat="40.0064565" lon="15.9590845"><ele>582.6666666666666</ele><time>2026-05-02T11:41:00.717Z</time></trkpt><trkpt lat="40.0062957" lon="15.9591579"><ele>578.3333333333334</ele><time>2026-05-02T11:41:01.717Z</time></trkpt><trkpt lat="40.0061307" lon="15.9592421"><ele>574.0</ele><time>2026-05-02T11:41:02.728Z</time></trkpt><trkpt lat="40.0059832" lon="15.9593259"><ele>574.0</ele><time>2026-05-02T11:41:03.719Z</time></trkpt><trkpt lat="40.0058615" lon="15.9594026"><ele>574.0</ele><time>2026-05-02T11:41:04.709Z</time></trkpt><trkpt lat="40.0057502" lon="15.9594801"><ele>574.0</ele><time>2026-05-02T11:41:05.72Z</time></trkpt><trkpt lat="40.0056519" lon="15.9595953"><ele>574.0</ele><time>2026-05-02T11:41:06.714Z</time></trkpt><trkpt lat="40.0055677" lon="15.9597502"><ele>570.0</ele><time>2026-05-02T11:41:07.734Z</time></trkpt><trkpt lat="40.0055036" lon="15.9599322"><ele>566.0</ele><time>2026-05-02T11:41:08.716Z</time></trkpt><trkpt lat="40.005438" lon="15.9601016"><ele>562.0</ele><time>2026-05-02T11:41:09.724Z</time></trkpt><trkpt lat="40.0053708" lon="15.9602558"><ele>558.0</ele><time>2026-05-02T11:41:10.699Z</time></trkpt><trkpt lat="40.0052877" lon="15.9603667"><ele>558.0</ele><time>2026-05-02T11:41:11.716Z</time></trkpt><trkpt lat="40.0052234" lon="15.9604461"><ele>558.0</ele><time>2026-05-02T11:41:12.713Z</time></trkpt><trkpt lat="40.0051901" lon="15.9605329"><ele>558.0</ele><time>2026-05-02T11:41:13.716Z</time></trkpt><trkpt lat="40.005181" lon="15.9606469"><ele>558.0</ele><time>2026-05-02T11:41:14.726Z</time></trkpt><trkpt lat="40.0052044" lon="15.9607564"><ele>558.0</ele><time>2026-05-02T11:41:15.705Z</time></trkpt><trkpt lat="40.0052548" lon="15.9608646"><ele>558.0</ele><time>2026-05-02T11:41:16.723Z</time></trkpt><trkpt lat="40.00533" lon="15.9609513"><ele>555.4</ele><time>2026-05-02T11:41:17.711Z</time></trkpt><trkpt lat="40.0054314" lon="15.9610012"><ele>552.8</ele><time>2026-05-02T11:41:18.721Z</time></trkpt><trkpt lat="40.0055394" lon="15.9610075"><ele>550.2</ele><time>2026-05-02T11:41:19.722Z</time></trkpt><trkpt lat="40.0056482" lon="15.96096"><ele>547.6</ele><time>2026-05-02T11:41:20.717Z</time></trkpt><trkpt lat="40.0057292" lon="15.9609261"><ele>545.0</ele><time>2026-05-02T11:41:21.726Z</time></trkpt><trkpt lat="40.005799" lon="15.9609397"><ele>545.0</ele><time>2026-05-02T11:41:22.72Z</time></trkpt><trkpt lat="40.0058585" lon="15.9610043"><ele>545.0</ele><time>2026-05-02T11:41:23.732Z</time></trkpt><trkpt lat="40.005891" lon="15.9611204"><ele>545.0</ele><time>2026-05-02T11:41:24.72Z</time></trkpt><trkpt lat="40.0058761" lon="15.9612604"><ele>545.0</ele><time>2026-05-02T11:41:25.718Z</time></trkpt><trkpt lat="40.0058403" lon="15.9614075"><ele>545.0</ele><time>2026-05-02T11:41:26.71Z</time></trkpt><trkpt lat="40.005817" lon="15.9615627"><ele>546.75</ele><time>2026-05-02T11:41:27.713Z</time></trkpt><trkpt lat="40.0058301" lon="15.9617214"><ele>548.5</ele><time>2026-05-02T11:41:28.712Z</time></trkpt><trkpt lat="40.0058707" lon="15.9618749"><ele>550.25</ele><time>2026-05-02T11:41:29.715Z</time></trkpt><trkpt lat="40.0059377" lon="15.9620282"><ele>552.0</ele><time>2026-05-02T11:41:30.718Z</time></trkpt><trkpt lat="40.0060176" lon="15.962177"><ele>552.0</ele><time>2026-05-02T11:41:31.707Z</time></trkpt><trkpt lat="40.0061007" lon="15.9623325"><ele>552.0</ele><time>2026-05-02T11:41:32.727Z</time></trkpt><trkpt lat="40.0061845" lon="15.9624884"><ele>552.0</ele><time>2026-05-02T11:41:33.722Z</time></trkpt><trkpt lat="40.0062682" lon="15.9626417"><ele>552.0</ele><time>2026-05-02T11:41:34.713Z</time></trkpt><trkpt lat="40.0063441" lon="15.9627805"><ele>549.4</ele><time>2026-05-02T11:41:35.727Z</time></trkpt><trkpt lat="40.0064101" lon="15.9629053"><ele>546.8000000000001</ele><time>2026-05-02T11:41:36.726Z</time></trkpt><trkpt lat="40.0064711" lon="15.9630198"><ele>544.2</ele><time>2026-05-02T11:41:37.716Z</time></trkpt><trkpt lat="40.0065259" lon="15.963115"><ele>541.6</ele><time>2026-05-02T11:41:38.718Z</time></trkpt><trkpt lat="40.0065713" lon="15.9632069"><ele>539.0</ele><time>2026-05-02T11:41:39.708Z</time></trkpt><trkpt lat="40.0066041" lon="15.9633077"><ele>539.8</ele><time>2026-05-02T11:41:40.714Z</time></trkpt><trkpt lat="40.0066302" lon="15.9634148"><ele>540.5999999999999</ele><time>2026-05-02T11:41:41.724Z</time></trkpt><trkpt lat="40.0066583" lon="15.9635411"><ele>541.4</ele><time>2026-05-02T11:41:42.714Z</time></trkpt><trkpt lat="40.0066877" lon="15.9636926"><ele>542.1999999999999</ele><time>2026-05-02T11:41:43.719Z</time></trkpt><trkpt lat="40.0067163" lon="15.9638419"><ele>543.0</ele><time>2026-05-02T11:41:44.71Z</time></trkpt><trkpt lat="40.0067315" lon="15.963981"><ele>543.0</ele><time>2026-05-02T11:41:45.71Z</time></trkpt><trkpt lat="40.0067303" lon="15.9641131"><ele>543.0</ele><time>2026-05-02T11:41:46.717Z</time></trkpt><trkpt lat="40.0067024" lon="15.9642449"><ele>543.0</ele><time>2026-05-02T11:41:47.745Z</time></trkpt><trkpt lat="40.0066477" lon="15.9643629"><ele>543.0</ele><time>2026-05-02T11:41:48.713Z</time></trkpt><trkpt lat="40.0065748" lon="15.964462"><ele>543.0</ele><time>2026-05-02T11:41:49.717Z</time></trkpt><trkpt lat="40.0064788" lon="15.9645366"><ele>541.75</ele><time>2026-05-02T11:41:50.705Z</time></trkpt><trkpt lat="40.0063559" lon="15.9645829"><ele>540.5</ele><time>2026-05-02T11:41:51.717Z</time></trkpt><trkpt lat="40.0062132" lon="15.9645881"><ele>539.25</ele><time>2026-05-02T11:41:52.712Z</time></trkpt><trkpt lat="40.0060765" lon="15.9646082"><ele>538.0</ele><time>2026-05-02T11:41:53.713Z</time></trkpt><trkpt lat="40.0059328" lon="15.9646627"><ele>531.3333333333334</ele><time>2026-05-02T11:41:54.714Z</time></trkpt><trkpt lat="40.0057901" lon="15.9647522"><ele>524.6666666666666</ele><time>2026-05-02T11:41:55.71Z</time></trkpt><trkpt lat="40.0056519" lon="15.9648611"><ele>518.0</ele><time>2026-05-02T11:41:56.719Z</time></trkpt><trkpt lat="40.0055171" lon="15.9650137"><ele>518.6666666666666</ele><time>2026-05-02T11:41:57.722Z</time></trkpt><trkpt lat="40.0053954" lon="15.9652038"><ele>519.3333333333334</ele><time>2026-05-02T11:41:58.721Z</time></trkpt><trkpt lat="40.005269" lon="15.9654008"><ele>520.0</ele><time>2026-05-02T11:41:59.719Z</time></trkpt><trkpt lat="40.0051374" lon="15.9655945"><ele>520.0</ele><time>2026-05-02T11:42:00.721Z</time></trkpt><trkpt lat="40.0050091" lon="15.9657767"><ele>520.0</ele><time>2026-05-02T11:42:01.719Z</time></trkpt><trkpt lat="40.0048863" lon="15.9659599"><ele>520.0</ele><time>2026-05-02T11:42:02.713Z</time></trkpt><trkpt lat="40.0047649" lon="15.9661346"><ele>514.3333333333334</ele><time>2026-05-02T11:42:03.718Z</time></trkpt><trkpt lat="40.0046326" lon="15.9662958"><ele>508.66666666666663</ele><time>2026-05-02T11:42:04.709Z</time></trkpt><trkpt lat="40.0044857" lon="15.966448"><ele>503.0</ele><time>2026-05-02T11:42:05.718Z</time></trkpt><trkpt lat="40.0043215" lon="15.966586"><ele>500.0</ele><time>2026-05-02T11:42:06.719Z</time></trkpt><trkpt lat="40.0041388" lon="15.9667046"><ele>497.0</ele><time>2026-05-02T11:42:07.718Z</time></trkpt><trkpt lat="40.0039527" lon="15.9668068"><ele>494.0</ele><time>2026-05-02T11:42:08.716Z</time></trkpt><trkpt lat="40.0037802" lon="15.9669024"><ele>494.0</ele><time>2026-05-02T11:42:09.722Z</time></trkpt><trkpt lat="40.003617" lon="15.9670162"><ele>494.0</ele><time>2026-05-02T11:42:10.726Z</time></trkpt><trkpt lat="40.0034595" lon="15.9671432"><ele>494.0</ele><time>2026-05-02T11:42:11.722Z</time></trkpt><trkpt lat="40.0033134" lon="15.9672947"><ele>491.0</ele><time>2026-05-02T11:42:12.708Z</time></trkpt><trkpt lat="40.0031764" lon="15.9674649"><ele>488.0</ele><time>2026-05-02T11:42:13.715Z</time></trkpt><trkpt lat="40.0030535" lon="15.9676585"><ele>485.0</ele><time>2026-05-02T11:42:14.717Z</time></trkpt><trkpt lat="40.0029542" lon="15.9678806"><ele>485.0</ele><time>2026-05-02T11:42:15.744Z</time></trkpt><trkpt lat="40.0028669" lon="15.9681212"><ele>485.0</ele><time>2026-05-02T11:42:16.71Z</time></trkpt><trkpt lat="40.0027797" lon="15.9683552"><ele>485.0</ele><time>2026-05-02T11:42:17.73Z</time></trkpt><trkpt lat="40.0026925" lon="15.9685692"><ele>485.3333333333333</ele><time>2026-05-02T11:42:18.713Z</time></trkpt><trkpt lat="40.0026179" lon="15.9687755"><ele>485.66666666666663</ele><time>2026-05-02T11:42:19.719Z</time></trkpt><trkpt lat="40.0025516" lon="15.9689795"><ele>486.0</ele><time>2026-05-02T11:42:20.732Z</time></trkpt><trkpt lat="40.0025023" lon="15.9691847"><ele>481.33333333333337</ele><time>2026-05-02T11:42:21.721Z</time></trkpt><trkpt lat="40.0024653" lon="15.9693863"><ele>476.6666666666667</ele><time>2026-05-02T11:42:22.714Z</time></trkpt><trkpt lat="40.0024476" lon="15.9696023"><ele>472.0</ele><time>2026-05-02T11:42:23.72Z</time></trkpt><trkpt lat="40.0024541" lon="15.9698306"><ele>471.33333333333337</ele><time>2026-05-02T11:42:24.72Z</time></trkpt><trkpt lat="40.0024857" lon="15.9700694"><ele>470.66666666666663</ele><time>2026-05-02T11:42:25.717Z</time></trkpt><trkpt lat="40.0025376" lon="15.9703178"><ele>470.0</ele><time>2026-05-02T11:42:26.719Z</time></trkpt><trkpt lat="40.0026017" lon="15.970575"><ele>470.0</ele><time>2026-05-02T11:42:27.726Z</time></trkpt><trkpt lat="40.0026563" lon="15.9708439"><ele>470.0</ele><time>2026-05-02T11:42:28.718Z</time></trkpt><trkpt lat="40.0027108" lon="15.9711111"><ele>470.0</ele><time>2026-05-02T11:42:29.746Z</time></trkpt><trkpt lat="40.0027672" lon="15.971354"><ele>467.3333333333333</ele><time>2026-05-02T11:42:30.721Z</time></trkpt><trkpt lat="40.0028194" lon="15.9715857"><ele>464.66666666666663</ele><time>2026-05-02T11:42:31.75Z</time></trkpt><trkpt lat="40.0028576" lon="15.9718151"><ele>462.0</ele><time>2026-05-02T11:42:32.722Z</time></trkpt><trkpt lat="40.0028839" lon="15.9720415"><ele>461.0</ele><time>2026-05-02T11:42:33.717Z</time></trkpt><trkpt lat="40.0028991" lon="15.9722586"><ele>460.0</ele><time>2026-05-02T11:42:34.721Z</time></trkpt><trkpt lat="40.0028934" lon="15.9724631"><ele>459.0</ele><time>2026-05-02T11:42:35.724Z</time></trkpt><trkpt lat="40.0028651" lon="15.9726682"><ele>459.0</ele><time>2026-05-02T11:42:36.718Z</time></trkpt><trkpt lat="40.0028069" lon="15.9728745"><ele>459.0</ele><time>2026-05-02T11:42:37.731Z</time></trkpt><trkpt lat="40.0027305" lon="15.9730809"><ele>459.0</ele><time>2026-05-02T11:42:38.731Z</time></trkpt><trkpt lat="40.0026356" lon="15.9732698"><ele>459.33333333333337</ele><time>2026-05-02T11:42:39.724Z</time></trkpt><trkpt lat="40.0025243" lon="15.9734461"><ele>459.6666666666667</ele><time>2026-05-02T11:42:40.719Z</time></trkpt><trkpt lat="40.002402" lon="15.973618"><ele>460.0</ele><time>2026-05-02T11:42:41.726Z</time></trkpt><trkpt lat="40.0022715" lon="15.9737944"><ele>458.33333333333337</ele><time>2026-05-02T11:42:42.73Z</time></trkpt><trkpt lat="40.0021307" lon="15.9739795"><ele>456.66666666666663</ele><time>2026-05-02T11:42:43.75Z</time></trkpt><trkpt lat="40.0019858" lon="15.9741721"><ele>455.0</ele><time>2026-05-02T11:42:44.73Z</time></trkpt><trkpt lat="40.0018368" lon="15.974371"><ele>455.0</ele><time>2026-05-02T11:42:45.72Z</time></trkpt><trkpt lat="40.0016884" lon="15.9745684"><ele>455.0</ele><time>2026-05-02T11:42:46.723Z</time></trkpt><trkpt lat="40.0015447" lon="15.9747492"><ele>455.0</ele><time>2026-05-02T11:42:47.717Z</time></trkpt><trkpt lat="40.0014141" lon="15.9749061"><ele>453.25</ele><time>2026-05-02T11:42:48.723Z</time></trkpt><trkpt lat="40.001305" lon="15.9750432"><ele>451.5</ele><time>2026-05-02T11:42:49.719Z</time></trkpt><trkpt lat="40.001216" lon="15.9751604"><ele>449.75</ele><time>2026-05-02T11:42:50.71Z</time></trkpt><trkpt lat="40.0011469" lon="15.9752599"><ele>448.0</ele><time>2026-05-02T11:42:51.728Z</time></trkpt><trkpt lat="40.0011032" lon="15.9753371"><ele>448.0</ele><time>2026-05-02T11:42:52.718Z</time></trkpt><trkpt lat="40.0010468" lon="15.9754515"><ele>448.0</ele><time>2026-05-02T11:42:54.722Z</time></trkpt><trkpt lat="40.0010142" lon="15.9755238"><ele>448.0</ele><time>2026-05-02T11:43:56.718Z</time></trkpt><trkpt lat="40.0009568" lon="15.975758"><ele>448.0</ele><time>2026-05-02T11:43:59.74Z</time></trkpt><trkpt lat="40.0009342" lon="15.9758947"><ele>447.5</ele><time>2026-05-02T11:44:00.717Z</time></trkpt><trkpt lat="40.0009271" lon="15.9760473"><ele>447.0</ele><time>2026-05-02T11:44:01.704Z</time></trkpt><trkpt lat="40.0009414" lon="15.9761888"><ele>446.5</ele><time>2026-05-02T11:44:02.714Z</time></trkpt><trkpt lat="40.0009698" lon="15.9763281"><ele>446.0</ele><time>2026-05-02T11:44:03.723Z</time></trkpt><trkpt lat="40.0009999" lon="15.9764746"><ele>446.0</ele><time>2026-05-02T11:44:04.715Z</time></trkpt><trkpt lat="40.0010376" lon="15.9766306"><ele>446.0</ele><time>2026-05-02T11:44:05.722Z</time></trkpt><trkpt lat="40.0010824" lon="15.9767904"><ele>446.0</ele><time>2026-05-02T11:44:06.712Z</time></trkpt><trkpt lat="40.0011397" lon="15.9769602"><ele>446.0</ele><time>2026-05-02T11:44:07.738Z</time></trkpt><trkpt lat="40.0012148" lon="15.9771452"><ele>443.0</ele><time>2026-05-02T11:44:08.719Z</time></trkpt><trkpt lat="40.0012945" lon="15.977347"><ele>440.0</ele><time>2026-05-02T11:44:09.726Z</time></trkpt><trkpt lat="40.0013662" lon="15.9775688"><ele>437.0</ele><time>2026-05-02T11:44:10.72Z</time></trkpt><trkpt lat="40.0014341" lon="15.9777966"><ele>436.0</ele><time>2026-05-02T11:44:11.722Z</time></trkpt><trkpt lat="40.0015061" lon="15.978022"><ele>435.0</ele><time>2026-05-02T11:44:12.735Z</time></trkpt><trkpt lat="40.0015816" lon="15.9782472"><ele>434.0</ele><time>2026-05-02T11:44:13.715Z</time></trkpt><trkpt lat="40.0016595" lon="15.9784742"><ele>438.0</ele><time>2026-05-02T11:44:14.73Z</time></trkpt><trkpt lat="40.0017177" lon="15.9787035"><ele>442.0</ele><time>2026-05-02T11:44:15.732Z</time></trkpt><trkpt lat="40.0017558" lon="15.9789402"><ele>446.0</ele><time>2026-05-02T11:44:16.717Z</time></trkpt><trkpt lat="40.0017749" lon="15.9791683"><ele>449.3333333333333</ele><time>2026-05-02T11:44:17.725Z</time></trkpt><trkpt lat="40.0017741" lon="15.9793993"><ele>452.66666666666663</ele><time>2026-05-02T11:44:18.706Z</time></trkpt><trkpt lat="40.0017448" lon="15.9796298"><ele>456.0</ele><time>2026-05-02T11:44:19.723Z</time></trkpt><trkpt lat="40.001687" lon="15.9798531"><ele>453.66666666666663</ele><time>2026-05-02T11:44:20.734Z</time></trkpt><trkpt lat="40.0016183" lon="15.9800803"><ele>451.3333333333333</ele><time>2026-05-02T11:44:21.727Z</time></trkpt><trkpt lat="40.0015297" lon="15.9803135"><ele>449.0</ele><time>2026-05-02T11:44:22.739Z</time></trkpt><trkpt lat="40.0014334" lon="15.9805402"><ele>449.0</ele><time>2026-05-02T11:44:23.731Z</time></trkpt><trkpt lat="40.0013442" lon="15.9807696"><ele>449.0</ele><time>2026-05-02T11:44:24.714Z</time></trkpt><trkpt lat="40.0012512" lon="15.9809989"><ele>449.0</ele><time>2026-05-02T11:44:25.728Z</time></trkpt><trkpt lat="40.0011599" lon="15.9812341"><ele>449.66666666666663</ele><time>2026-05-02T11:44:26.713Z</time></trkpt><trkpt lat="40.0010697" lon="15.9814776"><ele>450.33333333333337</ele><time>2026-05-02T11:44:27.726Z</time></trkpt><trkpt lat="40.0009761" lon="15.9817274"><ele>451.0</ele><time>2026-05-02T11:44:28.721Z</time></trkpt><trkpt lat="40.0008825" lon="15.9819837"><ele>448.33333333333337</ele><time>2026-05-02T11:44:29.711Z</time></trkpt><trkpt lat="40.0007927" lon="15.9822489"><ele>445.66666666666663</ele><time>2026-05-02T11:44:30.719Z</time></trkpt><trkpt lat="40.0007033" lon="15.9825157"><ele>443.0</ele><time>2026-05-02T11:44:31.727Z</time></trkpt><trkpt lat="40.0006128" lon="15.9827822"><ele>443.0</ele><time>2026-05-02T11:44:32.717Z</time></trkpt><trkpt lat="40.0005255" lon="15.9830431"><ele>443.0</ele><time>2026-05-02T11:44:33.703Z</time></trkpt><trkpt lat="40.0004448" lon="15.9833041"><ele>443.0</ele><time>2026-05-02T11:44:34.714Z</time></trkpt><trkpt lat="40.0003777" lon="15.9835722"><ele>443.3333333333333</ele><time>2026-05-02T11:44:35.717Z</time></trkpt><trkpt lat="40.0003287" lon="15.9838433"><ele>443.66666666666663</ele><time>2026-05-02T11:44:36.725Z</time></trkpt><trkpt lat="40.0002944" lon="15.9841202"><ele>444.0</ele><time>2026-05-02T11:44:37.719Z</time></trkpt><trkpt lat="40.0002819" lon="15.9843982"><ele>444.0</ele><time>2026-05-02T11:44:38.718Z</time></trkpt><trkpt lat="40.0002879" lon="15.9846739"><ele>444.0</ele><time>2026-05-02T11:44:39.721Z</time></trkpt><trkpt lat="40.0003052" lon="15.9849428"><ele>444.0</ele><time>2026-05-02T11:44:40.725Z</time></trkpt><trkpt lat="40.0003264" lon="15.9851922"><ele>443.33333333333337</ele><time>2026-05-02T11:44:41.74Z</time></trkpt><trkpt lat="40.0003463" lon="15.9854243"><ele>442.6666666666667</ele><time>2026-05-02T11:44:42.719Z</time></trkpt><trkpt lat="40.0003541" lon="15.9856424"><ele>442.0</ele><time>2026-05-02T11:44:43.716Z</time></trkpt><trkpt lat="40.000345" lon="15.9858512"><ele>443.6666666666667</ele><time>2026-05-02T11:44:44.713Z</time></trkpt><trkpt lat="40.0003168" lon="15.9860612"><ele>445.33333333333337</ele><time>2026-05-02T11:44:45.715Z</time></trkpt><trkpt lat="40.000268" lon="15.9862602"><ele>447.0</ele><time>2026-05-02T11:44:46.713Z</time></trkpt><trkpt lat="40.0001944" lon="15.9864629"><ele>447.0</ele><time>2026-05-02T11:44:47.717Z</time></trkpt><trkpt lat="40.0000987" lon="15.9866586"><ele>447.0</ele><time>2026-05-02T11:44:48.717Z</time></trkpt><trkpt lat="39.9999852" lon="15.9868481"><ele>447.0</ele><time>2026-05-02T11:44:49.726Z</time></trkpt><trkpt lat="39.9998585" lon="15.9870301"><ele>448.66666666666663</ele><time>2026-05-02T11:44:50.714Z</time></trkpt><trkpt lat="39.9997449" lon="15.9872199"><ele>450.3333333333333</ele><time>2026-05-02T11:44:51.722Z</time></trkpt><trkpt lat="39.9996437" lon="15.9874399"><ele>452.0</ele><time>2026-05-02T11:44:52.719Z</time></trkpt><trkpt lat="39.9995556" lon="15.9876789"><ele>452.0</ele><time>2026-05-02T11:44:53.708Z</time></trkpt><trkpt lat="39.999485" lon="15.9879338"><ele>452.0</ele><time>2026-05-02T11:44:54.713Z</time></trkpt><trkpt lat="39.999424" lon="15.98818"><ele>452.0</ele><time>2026-05-02T11:44:55.721Z</time></trkpt><trkpt lat="39.9993709" lon="15.9883923"><ele>453.3333333333333</ele><time>2026-05-02T11:44:56.723Z</time></trkpt><trkpt lat="39.9993101" lon="15.9885793"><ele>454.66666666666663</ele><time>2026-05-02T11:44:57.714Z</time></trkpt><trkpt lat="39.9992422" lon="15.9887512"><ele>456.0</ele><time>2026-05-02T11:44:58.723Z</time></trkpt><trkpt lat="39.9991516" lon="15.9889137"><ele>454.33333333333337</ele><time>2026-05-02T11:44:59.725Z</time></trkpt><trkpt lat="39.9990446" lon="15.9890681"><ele>452.6666666666667</ele><time>2026-05-02T11:45:00.72Z</time></trkpt><trkpt lat="39.9989254" lon="15.989211"><ele>451.0</ele><time>2026-05-02T11:45:01.721Z</time></trkpt><trkpt lat="39.9987878" lon="15.9893372"><ele>451.0</ele><time>2026-05-02T11:45:02.718Z</time></trkpt><trkpt lat="39.9986335" lon="15.9894382"><ele>451.0</ele><time>2026-05-02T11:45:03.719Z</time></trkpt><trkpt lat="39.9984668" lon="15.9895287"><ele>451.0</ele><time>2026-05-02T11:45:04.718Z</time></trkpt><trkpt lat="39.9982956" lon="15.9896269"><ele>448.33333333333337</ele><time>2026-05-02T11:45:05.725Z</time></trkpt><trkpt lat="39.9981321" lon="15.9897348"><ele>445.66666666666663</ele><time>2026-05-02T11:45:06.724Z</time></trkpt><trkpt lat="39.9979769" lon="15.9898296"><ele>443.0</ele><time>2026-05-02T11:45:07.718Z</time></trkpt><trkpt lat="39.9978353" lon="15.9899113"><ele>443.0</ele><time>2026-05-02T11:45:08.732Z</time></trkpt><trkpt lat="39.9977117" lon="15.9899917"><ele>442.99999999999994</ele><time>2026-05-02T11:45:09.713Z</time></trkpt><trkpt lat="39.9976071" lon="15.9900475"><ele>442.99999999999994</ele><time>2026-05-02T11:45:10.721Z</time></trkpt><trkpt lat="39.9975256" lon="15.9900785"><ele>443.0</ele><time>2026-05-02T11:45:11.704Z</time></trkpt><trkpt lat="39.9974546" lon="15.9901054"><ele>443.0</ele><time>2026-05-02T11:45:12.712Z</time></trkpt><trkpt lat="39.9973865" lon="15.9901273"><ele>442.99999999999994</ele><time>2026-05-02T11:45:13.722Z</time></trkpt><trkpt lat="39.9973318" lon="15.9901752"><ele>443.0</ele><time>2026-05-02T11:45:14.717Z</time></trkpt><trkpt lat="39.9972914" lon="15.9902442"><ele>443.0</ele><time>2026-05-02T11:45:15.724Z</time></trkpt><trkpt lat="39.9972728" lon="15.9903328"><ele>443.0</ele><time>2026-05-02T11:45:16.705Z</time></trkpt><trkpt lat="39.9972588" lon="15.9904335"><ele>442.99999999999994</ele><time>2026-05-02T11:45:17.714Z</time></trkpt><trkpt lat="39.9972335" lon="15.9905408"><ele>443.0</ele><time>2026-05-02T11:45:18.712Z</time></trkpt><trkpt lat="39.9971903" lon="15.9906575"><ele>443.0</ele><time>2026-05-02T11:45:19.726Z</time></trkpt><trkpt lat="39.9971309" lon="15.990794"><ele>443.0</ele><time>2026-05-02T11:45:20.726Z</time></trkpt><trkpt lat="39.9970761" lon="15.990942"><ele>443.0</ele><time>2026-05-02T11:45:21.722Z</time></trkpt><trkpt lat="39.9970309" lon="15.9911142"><ele>443.0</ele><time>2026-05-02T11:45:22.724Z</time></trkpt><trkpt lat="39.9969973" lon="15.9913022"><ele>443.0</ele><time>2026-05-02T11:45:23.727Z</time></trkpt><trkpt lat="39.9969687" lon="15.9915099"><ele>443.0</ele><time>2026-05-02T11:45:24.725Z</time></trkpt><trkpt lat="39.996961" lon="15.9917214"><ele>443.0</ele><time>2026-05-02T11:45:25.722Z</time></trkpt><trkpt lat="39.9969715" lon="15.991939"><ele>442.66666666666663</ele><time>2026-05-02T11:45:26.726Z</time></trkpt><trkpt lat="39.9970024" lon="15.9921678"><ele>442.33333333333337</ele><time>2026-05-02T11:45:27.759Z</time></trkpt><trkpt lat="39.9970434" lon="15.9924019"><ele>442.0</ele><time>2026-05-02T11:45:28.712Z</time></trkpt><trkpt lat="39.9971032" lon="15.9926439"><ele>440.33333333333337</ele><time>2026-05-02T11:45:29.727Z</time></trkpt><trkpt lat="39.9971659" lon="15.9928896"><ele>438.66666666666663</ele><time>2026-05-02T11:45:30.716Z</time></trkpt><trkpt lat="39.99723" lon="15.9931437"><ele>437.0</ele><time>2026-05-02T11:45:31.715Z</time></trkpt><trkpt lat="39.9972867" lon="15.9933988"><ele>435.0</ele><time>2026-05-02T11:45:32.717Z</time></trkpt><trkpt lat="39.9973442" lon="15.9936515"><ele>433.0</ele><time>2026-05-02T11:45:33.73Z</time></trkpt><trkpt lat="39.997407" lon="15.9939059"><ele>431.0</ele><time>2026-05-02T11:45:34.725Z</time></trkpt><trkpt lat="39.9974735" lon="15.9941565"><ele>432.3333333333333</ele><time>2026-05-02T11:45:35.732Z</time></trkpt><trkpt lat="39.9975374" lon="15.9944068"><ele>433.66666666666663</ele><time>2026-05-02T11:45:36.726Z</time></trkpt><trkpt lat="39.9975953" lon="15.9946539"><ele>435.0</ele><time>2026-05-02T11:45:37.729Z</time></trkpt><trkpt lat="39.9976525" lon="15.9948899"><ele>435.0</ele><time>2026-05-02T11:45:38.726Z</time></trkpt><trkpt lat="39.9977014" lon="15.9951152"><ele>435.0</ele><time>2026-05-02T11:45:39.742Z</time></trkpt><trkpt lat="39.9977335" lon="15.9953315"><ele>435.0</ele><time>2026-05-02T11:45:40.722Z</time></trkpt><trkpt lat="39.9977428" lon="15.9955369"><ele>435.0</ele><time>2026-05-02T11:45:41.715Z</time></trkpt><trkpt lat="39.9977303" lon="15.9957298"><ele>435.0</ele><time>2026-05-02T11:45:42.726Z</time></trkpt><trkpt lat="39.9976935" lon="15.9959092"><ele>435.0</ele><time>2026-05-02T11:45:43.715Z</time></trkpt><trkpt lat="39.997642" lon="15.9960691"><ele>435.0</ele><time>2026-05-02T11:45:44.732Z</time></trkpt><trkpt lat="39.9975733" lon="15.996224"><ele>433.25</ele><time>2026-05-02T11:45:45.723Z</time></trkpt><trkpt lat="39.997491" lon="15.9963661"><ele>431.5</ele><time>2026-05-02T11:45:46.717Z</time></trkpt><trkpt lat="39.997401" lon="15.9964903"><ele>429.75</ele><time>2026-05-02T11:45:47.712Z</time></trkpt><trkpt lat="39.9973094" lon="15.9965973"><ele>428.0</ele><time>2026-05-02T11:45:48.724Z</time></trkpt><trkpt lat="39.9972092" lon="15.9966791"><ele>428.0</ele><time>2026-05-02T11:45:49.713Z</time></trkpt><trkpt lat="39.9971026" lon="15.9967483"><ele>428.0</ele><time>2026-05-02T11:45:50.699Z</time></trkpt><trkpt lat="39.9969822" lon="15.9968024"><ele>428.0</ele><time>2026-05-02T11:45:51.726Z</time></trkpt><trkpt lat="39.9968587" lon="15.996839"><ele>428.0</ele><time>2026-05-02T11:45:52.725Z</time></trkpt><trkpt lat="39.9967386" lon="15.9968573"><ele>428.75</ele><time>2026-05-02T11:45:53.716Z</time></trkpt><trkpt lat="39.996614" lon="15.9968592"><ele>429.5</ele><time>2026-05-02T11:45:54.713Z</time></trkpt><trkpt lat="39.9964893" lon="15.9968451"><ele>430.25</ele><time>2026-05-02T11:45:55.708Z</time></trkpt><trkpt lat="39.9963642" lon="15.9968155"><ele>431.0</ele><time>2026-05-02T11:45:56.718Z</time></trkpt><trkpt lat="39.9962389" lon="15.9967881"><ele>431.0</ele><time>2026-05-02T11:45:57.715Z</time></trkpt><trkpt lat="39.9961173" lon="15.9967748"><ele>431.0</ele><time>2026-05-02T11:45:58.711Z</time></trkpt><trkpt lat="39.9960044" lon="15.9967701"><ele>431.0</ele><time>2026-05-02T11:45:59.725Z</time></trkpt><trkpt lat="39.9959047" lon="15.9967739"><ele>431.0</ele><time>2026-05-02T11:46:00.711Z</time></trkpt><trkpt lat="39.9958225" lon="15.99679"><ele>431.0</ele><time>2026-05-02T11:46:01.711Z</time></trkpt><trkpt lat="39.9957586" lon="15.9968185"><ele>431.20000000000005</ele><time>2026-05-02T11:46:02.714Z</time></trkpt><trkpt lat="39.9956875" lon="15.9968672"><ele>431.40000000000003</ele><time>2026-05-02T11:46:04.718Z</time></trkpt><trkpt lat="39.9956403" lon="15.9969582"><ele>431.6</ele><time>2026-05-02T11:46:06.711Z</time></trkpt><trkpt lat="39.9956106" lon="15.9971244"><ele>431.8</ele><time>2026-05-02T11:46:08.72Z</time></trkpt><trkpt lat="39.9956183" lon="15.9972414"><ele>432.0</ele><time>2026-05-02T11:46:09.713Z</time></trkpt><trkpt lat="39.9956128" lon="15.9973791"><ele>433.5</ele><time>2026-05-02T11:46:10.717Z</time></trkpt><trkpt lat="39.9955907" lon="15.9975385"><ele>435.0</ele><time>2026-05-02T11:46:11.705Z</time></trkpt><trkpt lat="39.9955516" lon="15.9977082"><ele>436.5</ele><time>2026-05-02T11:46:12.715Z</time></trkpt><trkpt lat="39.9954993" lon="15.9978894"><ele>438.0</ele><time>2026-05-02T11:46:13.718Z</time></trkpt><trkpt lat="39.9954462" lon="15.9980798"><ele>438.0</ele><time>2026-05-02T11:46:14.72Z</time></trkpt><trkpt lat="39.9953918" lon="15.9982782"><ele>438.0</ele><time>2026-05-02T11:46:15.748Z</time></trkpt><trkpt lat="39.9953384" lon="15.9984959"><ele>438.0</ele><time>2026-05-02T11:46:16.713Z</time></trkpt><trkpt lat="39.995282" lon="15.9987186"><ele>438.33333333333337</ele><time>2026-05-02T11:46:17.726Z</time></trkpt><trkpt lat="39.9952207" lon="15.9989468"><ele>438.6666666666667</ele><time>2026-05-02T11:46:18.728Z</time></trkpt><trkpt lat="39.99516" lon="15.9991761"><ele>439.0</ele><time>2026-05-02T11:46:19.715Z</time></trkpt><trkpt lat="39.9950934" lon="15.9994089"><ele>439.0</ele><time>2026-05-02T11:46:20.727Z</time></trkpt><trkpt lat="39.9950219" lon="15.999639"><ele>439.0</ele><time>2026-05-02T11:46:21.72Z</time></trkpt><trkpt lat="39.9949367" lon="15.9998533"><ele>439.0</ele><time>2026-05-02T11:46:22.717Z</time></trkpt><trkpt lat="39.9948454" lon="16.000042"><ele>438.0</ele><time>2026-05-02T11:46:23.724Z</time></trkpt><trkpt lat="39.9947438" lon="16.0001992"><ele>437.0</ele><time>2026-05-02T11:46:24.724Z</time></trkpt><trkpt lat="39.9946179" lon="16.0003254"><ele>436.0</ele><time>2026-05-02T11:46:25.731Z</time></trkpt><trkpt lat="39.9944804" lon="16.0004272"><ele>436.0</ele><time>2026-05-02T11:46:26.715Z</time></trkpt><trkpt lat="39.994328" lon="16.000491"><ele>436.0</ele><time>2026-05-02T11:46:27.721Z</time></trkpt><trkpt lat="39.9941712" lon="16.0005089"><ele>436.0</ele><time>2026-05-02T11:46:28.716Z</time></trkpt><trkpt lat="39.9940011" lon="16.0004924"><ele>435.6666666666667</ele><time>2026-05-02T11:46:29.714Z</time></trkpt><trkpt lat="39.9938301" lon="16.0004259"><ele>435.33333333333337</ele><time>2026-05-02T11:46:30.724Z</time></trkpt><trkpt lat="39.9936602" lon="16.0003184"><ele>435.0</ele><time>2026-05-02T11:46:31.727Z</time></trkpt><trkpt lat="39.9934928" lon="16.0001844"><ele>435.0</ele><time>2026-05-02T11:46:32.713Z</time></trkpt><trkpt lat="39.9933347" lon="16.0000358"><ele>435.0</ele><time>2026-05-02T11:46:33.722Z</time></trkpt><trkpt lat="39.993175" lon="15.9998856"><ele>435.0</ele><time>2026-05-02T11:46:34.728Z</time></trkpt><trkpt lat="39.9930055" lon="15.9997422"><ele>435.0</ele><time>2026-05-02T11:46:35.718Z</time></trkpt><trkpt lat="39.9928198" lon="15.999624"><ele>435.0</ele><time>2026-05-02T11:46:36.713Z</time></trkpt><trkpt lat="39.9926233" lon="15.9995273"><ele>435.0</ele><time>2026-05-02T11:46:37.7Z</time></trkpt><trkpt lat="39.992429" lon="15.9994519"><ele>435.0</ele><time>2026-05-02T11:46:38.714Z</time></trkpt><trkpt lat="39.9922513" lon="15.9993959"><ele>435.0</ele><time>2026-05-02T11:46:39.717Z</time></trkpt><trkpt lat="39.9921016" lon="15.9993582"><ele>435.0</ele><time>2026-05-02T11:46:40.722Z</time></trkpt><trkpt lat="39.9919745" lon="15.999362"><ele>435.0</ele><time>2026-05-02T11:46:41.732Z</time></trkpt><trkpt lat="39.9918523" lon="15.9993994"><ele>435.0</ele><time>2026-05-02T11:46:42.716Z</time></trkpt><trkpt lat="39.9917283" lon="15.9994887"><ele>435.0</ele><time>2026-05-02T11:46:43.733Z</time></trkpt><trkpt lat="39.9916157" lon="15.9996193"><ele>435.0</ele><time>2026-05-02T11:46:44.72Z</time></trkpt><trkpt lat="39.9915112" lon="15.9997912"><ele>435.25</ele><time>2026-05-02T11:46:45.725Z</time></trkpt><trkpt lat="39.9914253" lon="15.9999599"><ele>435.5</ele><time>2026-05-02T11:46:46.715Z</time></trkpt><trkpt lat="39.991343" lon="16.0001047"><ele>435.75</ele><time>2026-05-02T11:46:47.732Z</time></trkpt><trkpt lat="39.9912363" lon="16.0002374"><ele>436.0</ele><time>2026-05-02T11:46:48.717Z</time></trkpt><trkpt lat="39.9911011" lon="16.0003363"><ele>436.0</ele><time>2026-05-02T11:46:49.713Z</time></trkpt><trkpt lat="39.990943" lon="16.0003954"><ele>436.0</ele><time>2026-05-02T11:46:50.713Z</time></trkpt><trkpt lat="39.9907785" lon="16.0004424"><ele>436.0</ele><time>2026-05-02T11:46:51.724Z</time></trkpt><trkpt lat="39.9906154" lon="16.0005114"><ele>435.33333333333337</ele><time>2026-05-02T11:46:52.716Z</time></trkpt><trkpt lat="39.9904632" lon="16.0006377"><ele>434.66666666666663</ele><time>2026-05-02T11:46:53.722Z</time></trkpt><trkpt lat="39.990328" lon="16.0007962"><ele>434.0</ele><time>2026-05-02T11:46:54.708Z</time></trkpt><trkpt lat="39.9901891" lon="16.0009743"><ele>434.0</ele><time>2026-05-02T11:46:55.732Z</time></trkpt><trkpt lat="39.9900459" lon="16.0011483"><ele>434.0</ele><time>2026-05-02T11:46:56.724Z</time></trkpt><trkpt lat="39.9899066" lon="16.0013228"><ele>434.0</ele><time>2026-05-02T11:46:57.719Z</time></trkpt><trkpt lat="39.9897618" lon="16.0014965"><ele>431.3333333333333</ele><time>2026-05-02T11:46:58.721Z</time></trkpt><trkpt lat="39.9896233" lon="16.001655"><ele>428.66666666666663</ele><time>2026-05-02T11:46:59.743Z</time></trkpt><trkpt lat="39.9895026" lon="16.0018126"><ele>426.0</ele><time>2026-05-02T11:47:00.723Z</time></trkpt><trkpt lat="39.989379" lon="16.0019433"><ele>426.0</ele><time>2026-05-02T11:47:01.722Z</time></trkpt><trkpt lat="39.989238" lon="16.0020581"><ele>426.0</ele><time>2026-05-02T11:47:02.719Z</time></trkpt><trkpt lat="39.9890811" lon="16.0021529"><ele>426.0</ele><time>2026-05-02T11:47:03.726Z</time></trkpt><trkpt lat="39.9889087" lon="16.0022161"><ele>422.0</ele><time>2026-05-02T11:47:04.717Z</time></trkpt><trkpt lat="39.9887243" lon="16.0022568"><ele>418.0</ele><time>2026-05-02T11:47:05.715Z</time></trkpt><trkpt lat="39.9885315" lon="16.0022648"><ele>414.0</ele><time>2026-05-02T11:47:06.715Z</time></trkpt><trkpt lat="39.9883329" lon="16.0022565"><ele>411.66666666666663</ele><time>2026-05-02T11:47:07.726Z</time></trkpt><trkpt lat="39.9881288" lon="16.002222"><ele>409.3333333333333</ele><time>2026-05-02T11:47:08.733Z</time></trkpt><trkpt lat="39.9879203" lon="16.0021892"><ele>407.0</ele><time>2026-05-02T11:47:09.712Z</time></trkpt><trkpt lat="39.987718" lon="16.0021655"><ele>407.0</ele><time>2026-05-02T11:47:10.722Z</time></trkpt><trkpt lat="39.9875316" lon="16.0021496"><ele>407.0</ele><time>2026-05-02T11:47:11.726Z</time></trkpt><trkpt lat="39.9873576" lon="16.002136"><ele>407.0</ele><time>2026-05-02T11:47:12.724Z</time></trkpt><trkpt lat="39.9871907" lon="16.002112"><ele>407.66666666666663</ele><time>2026-05-02T11:47:13.72Z</time></trkpt><trkpt lat="39.987027" lon="16.0020539"><ele>408.33333333333337</ele><time>2026-05-02T11:47:14.722Z</time></trkpt><trkpt lat="39.9868646" lon="16.0019558"><ele>409.0</ele><time>2026-05-02T11:47:15.728Z</time></trkpt><trkpt lat="39.9866996" lon="16.0018445"><ele>407.6666666666667</ele><time>2026-05-02T11:47:16.722Z</time></trkpt><trkpt lat="39.9865345" lon="16.0017121"><ele>406.33333333333337</ele><time>2026-05-02T11:47:17.721Z</time></trkpt><trkpt lat="39.9863662" lon="16.0015569"><ele>405.0</ele><time>2026-05-02T11:47:18.715Z</time></trkpt><trkpt lat="39.9861907" lon="16.0013989"><ele>400.0</ele><time>2026-05-02T11:47:19.721Z</time></trkpt><trkpt lat="39.986006" lon="16.0012408"><ele>395.0</ele><time>2026-05-02T11:47:20.715Z</time></trkpt><trkpt lat="39.9858142" lon="16.0010775"><ele>395.0</ele><time>2026-05-02T11:47:21.718Z</time></trkpt><trkpt lat="39.9856232" lon="16.0009024"><ele>395.0</ele><time>2026-05-02T11:47:22.716Z</time></trkpt><trkpt lat="39.9854231" lon="16.0007233"><ele>385.5</ele><time>2026-05-02T11:47:23.719Z</time></trkpt><trkpt lat="39.9852174" lon="16.0005428"><ele>376.0</ele><time>2026-05-02T11:47:24.716Z</time></trkpt><trkpt lat="39.9850214" lon="16.0003589"><ele>378.66666666666663</ele><time>2026-05-02T11:47:25.726Z</time></trkpt><trkpt lat="39.9848405" lon="16.0001935"><ele>381.3333333333333</ele><time>2026-05-02T11:47:26.719Z</time></trkpt><trkpt lat="39.9846807" lon="16.0000522"><ele>384.0</ele><time>2026-05-02T11:47:27.716Z</time></trkpt><trkpt lat="39.9845381" lon="15.9999306"><ele>384.0</ele><time>2026-05-02T11:47:28.717Z</time></trkpt><trkpt lat="39.9844126" lon="15.9998178"><ele>384.0</ele><time>2026-05-02T11:47:29.71Z</time></trkpt><trkpt lat="39.9842937" lon="15.9997165"><ele>384.0</ele><time>2026-05-02T11:47:30.717Z</time></trkpt><trkpt lat="39.9841715" lon="15.999625"><ele>384.0</ele><time>2026-05-02T11:47:31.729Z</time></trkpt><trkpt lat="39.9840272" lon="15.9995582"><ele>385.25</ele><time>2026-05-02T11:47:32.72Z</time></trkpt><trkpt lat="39.9838772" lon="15.9995226"><ele>386.5</ele><time>2026-05-02T11:47:33.721Z</time></trkpt><trkpt lat="39.9837342" lon="15.9995196"><ele>387.75</ele><time>2026-05-02T11:47:34.714Z</time></trkpt><trkpt lat="39.98359" lon="15.9995555"><ele>389.0</ele><time>2026-05-02T11:47:35.726Z</time></trkpt><trkpt lat="39.9834402" lon="15.999614"><ele>387.3333333333333</ele><time>2026-05-02T11:47:36.72Z</time></trkpt><trkpt lat="39.9832939" lon="15.9997003"><ele>385.66666666666663</ele><time>2026-05-02T11:47:37.722Z</time></trkpt><trkpt lat="39.9831576" lon="15.9998168"><ele>384.0</ele><time>2026-05-02T11:47:38.718Z</time></trkpt><trkpt lat="39.9830479" lon="15.9999651"><ele>384.0</ele><time>2026-05-02T11:47:39.719Z</time></trkpt><trkpt lat="39.9829566" lon="16.0001389"><ele>384.0</ele><time>2026-05-02T11:47:40.721Z</time></trkpt><trkpt lat="39.9828905" lon="16.0003416"><ele>384.0</ele><time>2026-05-02T11:47:41.718Z</time></trkpt><trkpt lat="39.9828488" lon="16.0005581"><ele>384.0</ele><time>2026-05-02T11:47:42.723Z</time></trkpt><trkpt lat="39.9828415" lon="16.0007873"><ele>384.0</ele><time>2026-05-02T11:47:43.724Z</time></trkpt><trkpt lat="39.9828586" lon="16.0010326"><ele>384.0</ele><time>2026-05-02T11:47:44.725Z</time></trkpt><trkpt lat="39.982893" lon="16.001285"><ele>382.6666666666667</ele><time>2026-05-02T11:47:45.721Z</time></trkpt><trkpt lat="39.9829311" lon="16.0015512"><ele>381.33333333333337</ele><time>2026-05-02T11:47:46.72Z</time></trkpt><trkpt lat="39.9829593" lon="16.0018024"><ele>380.0</ele><time>2026-05-02T11:47:47.722Z</time></trkpt><trkpt lat="39.9829885" lon="16.0020276"><ele>380.0</ele><time>2026-05-02T11:47:48.721Z</time></trkpt><trkpt lat="39.9830122" lon="16.0022394"><ele>380.0</ele><time>2026-05-02T11:47:49.733Z</time></trkpt><trkpt lat="39.9830114" lon="16.0024598"><ele>380.0</ele><time>2026-05-02T11:47:50.712Z</time></trkpt><trkpt lat="39.9829969" lon="16.0026958"><ele>379.0</ele><time>2026-05-02T11:47:51.72Z</time></trkpt><trkpt lat="39.9829641" lon="16.0029382"><ele>378.0</ele><time>2026-05-02T11:47:52.722Z</time></trkpt><trkpt lat="39.9829085" lon="16.0031739"><ele>377.0</ele><time>2026-05-02T11:47:53.73Z</time></trkpt><trkpt lat="39.9828313" lon="16.0033834"><ele>376.0</ele><time>2026-05-02T11:47:54.713Z</time></trkpt><trkpt lat="39.9827558" lon="16.0035748"><ele>375.0</ele><time>2026-05-02T11:47:55.72Z</time></trkpt><trkpt lat="39.9826869" lon="16.0037619"><ele>374.0</ele><time>2026-05-02T11:47:56.718Z</time></trkpt><trkpt lat="39.9826212" lon="16.0039491"><ele>374.0</ele><time>2026-05-02T11:47:57.715Z</time></trkpt><trkpt lat="39.9825589" lon="16.0041404"><ele>374.0</ele><time>2026-05-02T11:47:58.728Z</time></trkpt><trkpt lat="39.9825254" lon="16.0043338"><ele>374.0</ele><time>2026-05-02T11:47:59.713Z</time></trkpt><trkpt lat="39.982525" lon="16.0045393"><ele>375.0</ele><time>2026-05-02T11:48:00.725Z</time></trkpt><trkpt lat="39.9825337" lon="16.0047501"><ele>376.0</ele><time>2026-05-02T11:48:01.719Z</time></trkpt><trkpt lat="39.9825492" lon="16.0049765"><ele>377.0</ele><time>2026-05-02T11:48:02.709Z</time></trkpt><trkpt lat="39.982574" lon="16.0052219"><ele>377.0</ele><time>2026-05-02T11:48:03.735Z</time></trkpt><trkpt lat="39.9825911" lon="16.0054762"><ele>377.0</ele><time>2026-05-02T11:48:04.72Z</time></trkpt><trkpt lat="39.9826023" lon="16.0057393"><ele>377.0</ele><time>2026-05-02T11:48:05.725Z</time></trkpt><trkpt lat="39.9826186" lon="16.0060002"><ele>373.6666666666667</ele><time>2026-05-02T11:48:06.719Z</time></trkpt><trkpt lat="39.9826464" lon="16.0062434"><ele>370.3333333333333</ele><time>2026-05-02T11:48:07.719Z</time></trkpt><trkpt lat="39.982694" lon="16.0064635"><ele>367.0</ele><time>2026-05-02T11:48:08.716Z</time></trkpt><trkpt lat="39.9827656" lon="16.0066672"><ele>362.0</ele><time>2026-05-02T11:48:09.741Z</time></trkpt><trkpt lat="39.9828636" lon="16.0068579"><ele>357.0</ele><time>2026-05-02T11:48:10.718Z</time></trkpt><trkpt lat="39.9829794" lon="16.0070362"><ele>352.0</ele><time>2026-05-02T11:48:11.726Z</time></trkpt><trkpt lat="39.9831148" lon="16.0071843"><ele>352.0</ele><time>2026-05-02T11:48:12.709Z</time></trkpt><trkpt lat="39.983263" lon="16.0072864"><ele>352.0</ele><time>2026-05-02T11:48:13.745Z</time></trkpt><trkpt lat="39.9834135" lon="16.0073503"><ele>352.0</ele><time>2026-05-02T11:48:14.717Z</time></trkpt><trkpt lat="39.9835659" lon="16.0073905"><ele>353.0</ele><time>2026-05-02T11:48:15.741Z</time></trkpt><trkpt lat="39.9837034" lon="16.0074471"><ele>354.0</ele><time>2026-05-02T11:48:16.715Z</time></trkpt><trkpt lat="39.9838225" lon="16.0075204"><ele>355.0</ele><time>2026-05-02T11:48:17.725Z</time></trkpt><trkpt lat="39.983916" lon="16.0076126"><ele>356.0</ele><time>2026-05-02T11:48:18.713Z</time></trkpt><trkpt lat="39.9839884" lon="16.0077293"><ele>351.0</ele><time>2026-05-02T11:48:19.722Z</time></trkpt><trkpt lat="39.9840227" lon="16.0078623"><ele>346.0</ele><time>2026-05-02T11:48:20.729Z</time></trkpt><trkpt lat="39.9840267" lon="16.0080187"><ele>341.0</ele><time>2026-05-02T11:48:21.723Z</time></trkpt><trkpt lat="39.9840041" lon="16.0081921"><ele>336.0</ele><time>2026-05-02T11:48:22.719Z</time></trkpt><trkpt lat="39.9839491" lon="16.0083699"><ele>336.0</ele><time>2026-05-02T11:48:23.719Z</time></trkpt><trkpt lat="39.9838692" lon="16.0085534"><ele>336.0</ele><time>2026-05-02T11:48:24.707Z</time></trkpt><trkpt lat="39.9837635" lon="16.0087347"><ele>336.0</ele><time>2026-05-02T11:48:25.725Z</time></trkpt><trkpt lat="39.9836433" lon="16.0089159"><ele>336.0</ele><time>2026-05-02T11:48:26.726Z</time></trkpt><trkpt lat="39.983513" lon="16.0091114"><ele>336.0</ele><time>2026-05-02T11:48:27.718Z</time></trkpt><trkpt lat="39.9833806" lon="16.0093146"><ele>336.0</ele><time>2026-05-02T11:48:28.718Z</time></trkpt><trkpt lat="39.9832395" lon="16.0095255"><ele>335.3333333333333</ele><time>2026-05-02T11:48:29.719Z</time></trkpt><trkpt lat="39.9830971" lon="16.0097397"><ele>334.66666666666663</ele><time>2026-05-02T11:48:30.727Z</time></trkpt><trkpt lat="39.9829592" lon="16.0099578"><ele>334.0</ele><time>2026-05-02T11:48:31.714Z</time></trkpt><trkpt lat="39.9828162" lon="16.01017"><ele>334.0</ele><time>2026-05-02T11:48:32.713Z</time></trkpt><trkpt lat="39.9826876" lon="16.0103532"><ele>334.0</ele><time>2026-05-02T11:48:33.721Z</time></trkpt><trkpt lat="39.982577" lon="16.0105117"><ele>334.0</ele><time>2026-05-02T11:48:34.722Z</time></trkpt><trkpt lat="39.982485" lon="16.0106578"><ele>332.5</ele><time>2026-05-02T11:48:35.726Z</time></trkpt><trkpt lat="39.982409" lon="16.0107928"><ele>331.0</ele><time>2026-05-02T11:48:36.725Z</time></trkpt><trkpt lat="39.9823501" lon="16.0109299"><ele>329.5</ele><time>2026-05-02T11:48:37.716Z</time></trkpt><trkpt lat="39.982308" lon="16.0110731"><ele>328.0</ele><time>2026-05-02T11:48:38.72Z</time></trkpt><trkpt lat="39.9822804" lon="16.0112083"><ele>327.8333333333333</ele><time>2026-05-02T11:48:39.725Z</time></trkpt><trkpt lat="39.9822642" lon="16.0113274"><ele>327.66666666666663</ele><time>2026-05-02T11:48:40.717Z</time></trkpt><trkpt lat="39.9822472" lon="16.011419"><ele>327.5</ele><time>2026-05-02T11:48:41.713Z</time></trkpt><trkpt lat="39.9822166" lon="16.0114957"><ele>327.3333333333333</ele><time>2026-05-02T11:48:42.727Z</time></trkpt><trkpt lat="39.9821858" lon="16.0115816"><ele>327.1666666666667</ele><time>2026-05-02T11:48:43.725Z</time></trkpt><trkpt lat="39.9821778" lon="16.0116872"><ele>327.0</ele><time>2026-05-02T11:48:44.731Z</time></trkpt><trkpt lat="39.982196" lon="16.0118019"><ele>327.5</ele><time>2026-05-02T11:48:45.717Z</time></trkpt><trkpt lat="39.9822462" lon="16.0119107"><ele>328.0</ele><time>2026-05-02T11:48:46.723Z</time></trkpt><trkpt lat="39.9822952" lon="16.0120459"><ele>328.5</ele><time>2026-05-02T11:48:47.714Z</time></trkpt><trkpt lat="39.9823478" lon="16.0122132"><ele>329.0</ele><time>2026-05-02T11:48:48.729Z</time></trkpt><trkpt lat="39.982402" lon="16.012406"><ele>329.6666666666667</ele><time>2026-05-02T11:48:49.73Z</time></trkpt><trkpt lat="39.9824555" lon="16.0126103"><ele>330.3333333333333</ele><time>2026-05-02T11:48:50.726Z</time></trkpt><trkpt lat="39.9825188" lon="16.012828"><ele>331.0</ele><time>2026-05-02T11:48:51.715Z</time></trkpt><trkpt lat="39.982578" lon="16.0130577"><ele>332.3333333333333</ele><time>2026-05-02T11:48:52.719Z</time></trkpt><trkpt lat="39.9826393" lon="16.0132881"><ele>333.6666666666667</ele><time>2026-05-02T11:48:53.721Z</time></trkpt><trkpt lat="39.9826964" lon="16.0135169"><ele>335.0</ele><time>2026-05-02T11:48:54.726Z</time></trkpt><trkpt lat="39.9827525" lon="16.0137501"><ele>335.33333333333337</ele><time>2026-05-02T11:48:55.707Z</time></trkpt><trkpt lat="39.9828127" lon="16.0139861"><ele>335.6666666666667</ele><time>2026-05-02T11:48:56.721Z</time></trkpt><trkpt lat="39.9828699" lon="16.0142279"><ele>336.0</ele><time>2026-05-02T11:48:57.723Z</time></trkpt><trkpt lat="39.9829311" lon="16.0144733"><ele>336.0</ele><time>2026-05-02T11:48:58.723Z</time></trkpt><trkpt lat="39.9829905" lon="16.0147258"><ele>336.0</ele><time>2026-05-02T11:48:59.751Z</time></trkpt><trkpt lat="39.9830545" lon="16.0149836"><ele>336.0</ele><time>2026-05-02T11:49:00.718Z</time></trkpt><trkpt lat="39.9831249" lon="16.0152454"><ele>336.0</ele><time>2026-05-02T11:49:01.728Z</time></trkpt><trkpt lat="39.9831923" lon="16.0155075"><ele>336.0</ele><time>2026-05-02T11:49:02.723Z</time></trkpt><trkpt lat="39.9832598" lon="16.0157679"><ele>336.0</ele><time>2026-05-02T11:49:03.727Z</time></trkpt><trkpt lat="39.9833271" lon="16.0160341"><ele>338.0</ele><time>2026-05-02T11:49:04.705Z</time></trkpt><trkpt lat="39.9833955" lon="16.016301"><ele>340.0</ele><time>2026-05-02T11:49:05.715Z</time></trkpt><trkpt lat="39.9834644" lon="16.0165624"><ele>342.0</ele><time>2026-05-02T11:49:06.723Z</time></trkpt><trkpt lat="39.983533" lon="16.016831"><ele>342.0</ele><time>2026-05-02T11:49:07.725Z</time></trkpt><trkpt lat="39.9835983" lon="16.0170997"><ele>342.0</ele><time>2026-05-02T11:49:08.718Z</time></trkpt><trkpt lat="39.983666" lon="16.01737"><ele>342.0</ele><time>2026-05-02T11:49:09.724Z</time></trkpt><trkpt lat="39.9837318" lon="16.0176438"><ele>342.6666666666667</ele><time>2026-05-02T11:49:10.718Z</time></trkpt><trkpt lat="39.9838" lon="16.0179097"><ele>343.33333333333337</ele><time>2026-05-02T11:49:11.724Z</time></trkpt><trkpt lat="39.9838585" lon="16.0181703"><ele>344.0</ele><time>2026-05-02T11:49:12.721Z</time></trkpt><trkpt lat="39.9839213" lon="16.0184231"><ele>344.0</ele><time>2026-05-02T11:49:13.725Z</time></trkpt><trkpt lat="39.9839932" lon="16.0186691"><ele>344.0</ele><time>2026-05-02T11:49:14.72Z</time></trkpt><trkpt lat="39.9840688" lon="16.0188872"><ele>344.0</ele><time>2026-05-02T11:49:15.722Z</time></trkpt><trkpt lat="39.9841378" lon="16.0190843"><ele>348.6666666666667</ele><time>2026-05-02T11:49:16.726Z</time></trkpt><trkpt lat="39.9841947" lon="16.0192777"><ele>353.3333333333333</ele><time>2026-05-02T11:49:17.729Z</time></trkpt><trkpt lat="39.9842295" lon="16.0194684"><ele>358.0</ele><time>2026-05-02T11:49:18.718Z</time></trkpt><trkpt lat="39.9842435" lon="16.0196591"><ele>358.0</ele><time>2026-05-02T11:49:19.729Z</time></trkpt><trkpt lat="39.9842369" lon="16.0198366"><ele>358.0</ele><time>2026-05-02T11:49:20.712Z</time></trkpt><trkpt lat="39.9841989" lon="16.0200211"><ele>358.0</ele><time>2026-05-02T11:49:21.724Z</time></trkpt><trkpt lat="39.9841362" lon="16.0202057"><ele>358.0</ele><time>2026-05-02T11:49:22.718Z</time></trkpt><trkpt lat="39.9840526" lon="16.0203853"><ele>351.0</ele><time>2026-05-02T11:49:23.714Z</time></trkpt><trkpt lat="39.9839435" lon="16.0205641"><ele>344.0</ele><time>2026-05-02T11:49:24.721Z</time></trkpt><trkpt lat="39.9838079" lon="16.0207376"><ele>337.0</ele><time>2026-05-02T11:49:25.724Z</time></trkpt><trkpt lat="39.9836643" lon="16.0209044"><ele>336.66666666666663</ele><time>2026-05-02T11:49:26.711Z</time></trkpt><trkpt lat="39.9835224" lon="16.0210701"><ele>336.3333333333333</ele><time>2026-05-02T11:49:27.724Z</time></trkpt><trkpt lat="39.9833775" lon="16.021252"><ele>336.0</ele><time>2026-05-02T11:49:28.713Z</time></trkpt><trkpt lat="39.9832292" lon="16.0214392"><ele>336.0</ele><time>2026-05-02T11:49:29.717Z</time></trkpt><trkpt lat="39.9830722" lon="16.021627"><ele>336.0</ele><time>2026-05-02T11:49:30.715Z</time></trkpt><trkpt lat="39.9829108" lon="16.0218096"><ele>336.0</ele><time>2026-05-02T11:49:31.723Z</time></trkpt><trkpt lat="39.9827482" lon="16.0220037"><ele>336.0</ele><time>2026-05-02T11:49:32.704Z</time></trkpt><trkpt lat="39.9825859" lon="16.0222016"><ele>336.0</ele><time>2026-05-02T11:49:33.73Z</time></trkpt><trkpt lat="39.9824306" lon="16.0223915"><ele>336.0</ele><time>2026-05-02T11:49:34.719Z</time></trkpt><trkpt lat="39.9822824" lon="16.0225721"><ele>337.0</ele><time>2026-05-02T11:49:35.721Z</time></trkpt><trkpt lat="39.9821384" lon="16.0227466"><ele>338.0</ele><time>2026-05-02T11:49:36.718Z</time></trkpt><trkpt lat="39.9819957" lon="16.0229276"><ele>339.0</ele><time>2026-05-02T11:49:37.726Z</time></trkpt><trkpt lat="39.9818497" lon="16.0231101"><ele>339.0</ele><time>2026-05-02T11:49:38.713Z</time></trkpt><trkpt lat="39.9817102" lon="16.0232926"><ele>339.0</ele><time>2026-05-02T11:49:39.718Z</time></trkpt><trkpt lat="39.9815817" lon="16.0234586"><ele>339.0</ele><time>2026-05-02T11:49:40.732Z</time></trkpt><trkpt lat="39.9814694" lon="16.0236107"><ele>338.0</ele><time>2026-05-02T11:49:41.721Z</time></trkpt><trkpt lat="39.9813717" lon="16.0237716"><ele>337.0</ele><time>2026-05-02T11:49:42.724Z</time></trkpt><trkpt lat="39.9812918" lon="16.0239402"><ele>336.0</ele><time>2026-05-02T11:49:43.727Z</time></trkpt><trkpt lat="39.9812173" lon="16.0241015"><ele>336.0</ele><time>2026-05-02T11:49:44.715Z</time></trkpt><trkpt lat="39.9811511" lon="16.0242355"><ele>336.0</ele><time>2026-05-02T11:49:45.721Z</time></trkpt><trkpt lat="39.9810809" lon="16.024331"><ele>336.0</ele><time>2026-05-02T11:49:46.711Z</time></trkpt><trkpt lat="39.9809999" lon="16.0243988"><ele>336.0</ele><time>2026-05-02T11:49:47.718Z</time></trkpt><trkpt lat="39.980892" lon="16.0244353"><ele>336.0</ele><time>2026-05-02T11:49:48.727Z</time></trkpt><trkpt lat="39.9807679" lon="16.0244451"><ele>336.0</ele><time>2026-05-02T11:49:49.708Z</time></trkpt><trkpt lat="39.9806337" lon="16.0244356"><ele>336.0</ele><time>2026-05-02T11:49:50.73Z</time></trkpt><trkpt lat="39.9805019" lon="16.0244244"><ele>336.0</ele><time>2026-05-02T11:49:51.719Z</time></trkpt><trkpt lat="39.980374" lon="16.0244348"><ele>336.0</ele><time>2026-05-02T11:49:52.714Z</time></trkpt><trkpt lat="39.9802402" lon="16.0244746"><ele>336.0</ele><time>2026-05-02T11:49:53.729Z</time></trkpt><trkpt lat="39.9801213" lon="16.0245418"><ele>336.0</ele><time>2026-05-02T11:49:54.718Z</time></trkpt><trkpt lat="39.980012" lon="16.0246252"><ele>336.0</ele><time>2026-05-02T11:49:55.734Z</time></trkpt><trkpt lat="39.9799002" lon="16.0247163"><ele>336.0</ele><time>2026-05-02T11:49:56.738Z</time></trkpt><trkpt lat="39.9797881" lon="16.0248111"><ele>335.75</ele><time>2026-05-02T11:49:57.721Z</time></trkpt><trkpt lat="39.9796648" lon="16.0249072"><ele>335.5</ele><time>2026-05-02T11:49:58.722Z</time></trkpt><trkpt lat="39.9795381" lon="16.0250002"><ele>335.25</ele><time>2026-05-02T11:49:59.724Z</time></trkpt><trkpt lat="39.9794253" lon="16.025085"><ele>335.0</ele><time>2026-05-02T11:50:00.723Z</time></trkpt><trkpt lat="39.97933" lon="16.0251635"><ele>335.0</ele><time>2026-05-02T11:50:01.722Z</time></trkpt><trkpt lat="39.9792342" lon="16.0252402"><ele>335.0</ele><time>2026-05-02T11:50:02.722Z</time></trkpt><trkpt lat="39.979152" lon="16.0253394"><ele>335.0</ele><time>2026-05-02T11:50:03.728Z</time></trkpt><trkpt lat="39.9790929" lon="16.0254665"><ele>335.0</ele><time>2026-05-02T11:50:04.719Z</time></trkpt><trkpt lat="39.9790428" lon="16.0256347"><ele>334.5</ele><time>2026-05-02T11:50:05.72Z</time></trkpt><trkpt lat="39.9789904" lon="16.0258144"><ele>334.0</ele><time>2026-05-02T11:50:06.72Z</time></trkpt><trkpt lat="39.9789322" lon="16.0259746"><ele>333.5</ele><time>2026-05-02T11:50:07.734Z</time></trkpt><trkpt lat="39.9788695" lon="16.0261083"><ele>333.0</ele><time>2026-05-02T11:50:08.717Z</time></trkpt><trkpt lat="39.9787974" lon="16.0262345"><ele>333.0</ele><time>2026-05-02T11:50:09.719Z</time></trkpt><trkpt lat="39.9786986" lon="16.026335"><ele>333.0</ele><time>2026-05-02T11:50:10.715Z</time></trkpt><trkpt lat="39.9785785" lon="16.0264138"><ele>333.0</ele><time>2026-05-02T11:50:11.717Z</time></trkpt><trkpt lat="39.9784369" lon="16.0264861"><ele>333.0</ele><time>2026-05-02T11:50:12.713Z</time></trkpt><trkpt lat="39.9782747" lon="16.0265574"><ele>330.3333333333333</ele><time>2026-05-02T11:50:13.72Z</time></trkpt><trkpt lat="39.9781101" lon="16.0266266"><ele>327.66666666666663</ele><time>2026-05-02T11:50:14.725Z</time></trkpt><trkpt lat="39.9779487" lon="16.0266848"><ele>325.0</ele><time>2026-05-02T11:50:15.721Z</time></trkpt><trkpt lat="39.9778081" lon="16.0267407"><ele>325.0</ele><time>2026-05-02T11:50:16.731Z</time></trkpt><trkpt lat="39.977691" lon="16.0267806"><ele>325.0</ele><time>2026-05-02T11:50:17.711Z</time></trkpt><trkpt lat="39.9775896" lon="16.0267999"><ele>325.0</ele><time>2026-05-02T11:50:18.725Z</time></trkpt><trkpt lat="39.9774986" lon="16.0267998"><ele>325.0</ele><time>2026-05-02T11:50:19.718Z</time></trkpt><trkpt lat="39.977418" lon="16.0268003"><ele>325.0</ele><time>2026-05-02T11:50:20.725Z</time></trkpt><trkpt lat="39.9773479" lon="16.0267882"><ele>324.6</ele><time>2026-05-02T11:50:21.739Z</time></trkpt><trkpt lat="39.9772811" lon="16.0267565"><ele>324.2</ele><time>2026-05-02T11:50:22.72Z</time></trkpt><trkpt lat="39.9772143" lon="16.0267092"><ele>323.79999999999995</ele><time>2026-05-02T11:50:23.719Z</time></trkpt><trkpt lat="39.9771418" lon="16.0266322"><ele>323.4</ele><time>2026-05-02T11:50:24.72Z</time></trkpt><trkpt lat="39.9770559" lon="16.026533"><ele>323.0</ele><time>2026-05-02T11:50:25.719Z</time></trkpt><trkpt lat="39.9769781" lon="16.0263988"><ele>322.33333333333337</ele><time>2026-05-02T11:50:26.706Z</time></trkpt><trkpt lat="39.9768939" lon="16.0262331"><ele>321.6666666666667</ele><time>2026-05-02T11:50:27.715Z</time></trkpt><trkpt lat="39.9768031" lon="16.0260591"><ele>321.0</ele><time>2026-05-02T11:50:28.719Z</time></trkpt><trkpt lat="39.9767068" lon="16.0258757"><ele>320.6666666666667</ele><time>2026-05-02T11:50:29.721Z</time></trkpt><trkpt lat="39.9766047" lon="16.0256866"><ele>320.33333333333337</ele><time>2026-05-02T11:50:30.722Z</time></trkpt><trkpt lat="39.9764984" lon="16.025492"><ele>320.0</ele><time>2026-05-02T11:50:31.713Z</time></trkpt><trkpt lat="39.976386" lon="16.0252814"><ele>320.0</ele><time>2026-05-02T11:50:32.71Z</time></trkpt><trkpt lat="39.976271" lon="16.0250671"><ele>320.0</ele><time>2026-05-02T11:50:33.721Z</time></trkpt><trkpt lat="39.9761622" lon="16.0248563"><ele>320.0</ele><time>2026-05-02T11:50:34.715Z</time></trkpt><trkpt lat="39.9760743" lon="16.0246724"><ele>320.5</ele><time>2026-05-02T11:50:35.718Z</time></trkpt><trkpt lat="39.9759984" lon="16.0245266"><ele>321.0</ele><time>2026-05-02T11:50:36.714Z</time></trkpt><trkpt lat="39.9759325" lon="16.0243989"><ele>321.5</ele><time>2026-05-02T11:50:37.722Z</time></trkpt><trkpt lat="39.975858" lon="16.0242875"><ele>322.0</ele><time>2026-05-02T11:50:38.715Z</time></trkpt><trkpt lat="39.9757758" lon="16.0241948"><ele>321.25</ele><time>2026-05-02T11:50:39.732Z</time></trkpt><trkpt lat="39.9756727" lon="16.0241176"><ele>320.5</ele><time>2026-05-02T11:50:40.724Z</time></trkpt><trkpt lat="39.9755579" lon="16.0240649"><ele>319.75</ele><time>2026-05-02T11:50:41.719Z</time></trkpt><trkpt lat="39.9754346" lon="16.0240561"><ele>319.0</ele><time>2026-05-02T11:50:42.713Z</time></trkpt><trkpt lat="39.9753013" lon="16.024077"><ele>319.0</ele><time>2026-05-02T11:50:43.729Z</time></trkpt><trkpt lat="39.9751614" lon="16.0241013"><ele>319.0</ele><time>2026-05-02T11:50:44.718Z</time></trkpt><trkpt lat="39.9750345" lon="16.0241319"><ele>319.0</ele><time>2026-05-02T11:50:45.723Z</time></trkpt><trkpt lat="39.9749203" lon="16.0241587"><ele>319.0</ele><time>2026-05-02T11:50:46.72Z</time></trkpt><trkpt lat="39.9748198" lon="16.0241805"><ele>319.4</ele><time>2026-05-02T11:50:47.724Z</time></trkpt><trkpt lat="39.9747243" lon="16.0241885"><ele>319.79999999999995</ele><time>2026-05-02T11:50:48.72Z</time></trkpt><trkpt lat="39.9746272" lon="16.0241694"><ele>320.20000000000005</ele><time>2026-05-02T11:50:49.735Z</time></trkpt><trkpt lat="39.9745451" lon="16.0241235"><ele>320.6</ele><time>2026-05-02T11:50:50.717Z</time></trkpt><trkpt lat="39.9744842" lon="16.02404"><ele>321.0</ele><time>2026-05-02T11:50:51.72Z</time></trkpt><trkpt lat="39.9744412" lon="16.0239327"><ele>321.0</ele><time>2026-05-02T11:50:52.714Z</time></trkpt><trkpt lat="39.9744193" lon="16.023801"><ele>321.0</ele><time>2026-05-02T11:50:53.72Z</time></trkpt><trkpt lat="39.974419" lon="16.0236553"><ele>321.0</ele><time>2026-05-02T11:50:54.706Z</time></trkpt><trkpt lat="39.9744266" lon="16.0235007"><ele>321.0</ele><time>2026-05-02T11:50:55.715Z</time></trkpt><trkpt lat="39.9744246" lon="16.0233415"><ele>320.75</ele><time>2026-05-02T11:50:56.707Z</time></trkpt><trkpt lat="39.9744042" lon="16.0231745"><ele>320.5</ele><time>2026-05-02T11:50:57.72Z</time></trkpt><trkpt lat="39.9743502" lon="16.0230236"><ele>320.25</ele><time>2026-05-02T11:50:58.72Z</time></trkpt><trkpt lat="39.9742652" lon="16.0228974"><ele>320.0</ele><time>2026-05-02T11:50:59.709Z</time></trkpt><trkpt lat="39.974153" lon="16.0227847"><ele>323.33333333333337</ele><time>2026-05-02T11:51:00.693Z</time></trkpt><trkpt lat="39.974026" lon="16.0226911"><ele>326.6666666666667</ele><time>2026-05-02T11:51:01.713Z</time></trkpt><trkpt lat="39.9738869" lon="16.0226048"><ele>330.0</ele><time>2026-05-02T11:51:02.717Z</time></trkpt><trkpt lat="39.9737358" lon="16.0225219"><ele>330.6666666666667</ele><time>2026-05-02T11:51:03.709Z</time></trkpt><trkpt lat="39.9735782" lon="16.0224413"><ele>331.33333333333337</ele><time>2026-05-02T11:51:04.709Z</time></trkpt><trkpt lat="39.9734109" lon="16.02236"><ele>332.0</ele><time>2026-05-02T11:51:05.703Z</time></trkpt><trkpt lat="39.9732425" lon="16.0222668"><ele>332.0</ele><time>2026-05-02T11:51:06.709Z</time></trkpt><trkpt lat="39.9730748" lon="16.0221693"><ele>332.0</ele><time>2026-05-02T11:51:07.729Z</time></trkpt><trkpt lat="39.9729231" lon="16.0220888"><ele>332.0</ele><time>2026-05-02T11:51:08.71Z</time></trkpt><trkpt lat="39.9727877" lon="16.0220123"><ele>332.0</ele><time>2026-05-02T11:51:09.73Z</time></trkpt><trkpt lat="39.9726713" lon="16.021945"><ele>332.0</ele><time>2026-05-02T11:51:10.709Z</time></trkpt><trkpt lat="39.9725522" lon="16.0218849"><ele>332.0</ele><time>2026-05-02T11:51:11.712Z</time></trkpt><trkpt lat="39.9724332" lon="16.0218102"><ele>332.0</ele><time>2026-05-02T11:51:12.706Z</time></trkpt><trkpt lat="39.9723059" lon="16.0217393"><ele>333.5</ele><time>2026-05-02T11:51:13.698Z</time></trkpt><trkpt lat="39.9721723" lon="16.0216662"><ele>335.0</ele><time>2026-05-02T11:51:14.707Z</time></trkpt><trkpt lat="39.972036" lon="16.0215916"><ele>336.5</ele><time>2026-05-02T11:51:15.712Z</time></trkpt><trkpt lat="39.9718913" lon="16.0215179"><ele>338.0</ele><time>2026-05-02T11:51:16.715Z</time></trkpt><trkpt lat="39.9717409" lon="16.0214382"><ele>342.0</ele><time>2026-05-02T11:51:17.715Z</time></trkpt><trkpt lat="39.9715869" lon="16.0213515"><ele>346.0</ele><time>2026-05-02T11:51:18.71Z</time></trkpt><trkpt lat="39.9714289" lon="16.0212649"><ele>350.0</ele><time>2026-05-02T11:51:19.714Z</time></trkpt><trkpt lat="39.9712676" lon="16.0211785"><ele>350.0</ele><time>2026-05-02T11:51:20.707Z</time></trkpt><trkpt lat="39.9711192" lon="16.0210992"><ele>350.0</ele><time>2026-05-02T11:51:21.715Z</time></trkpt><trkpt lat="39.9709847" lon="16.0210224"><ele>350.0</ele><time>2026-05-02T11:51:22.716Z</time></trkpt><trkpt lat="39.9708647" lon="16.0209597"><ele>350.0</ele><time>2026-05-02T11:51:23.716Z</time></trkpt><trkpt lat="39.9707675" lon="16.0209125"><ele>350.33333333333337</ele><time>2026-05-02T11:51:24.713Z</time></trkpt><trkpt lat="39.9706998" lon="16.020864"><ele>350.6666666666667</ele><time>2026-05-02T11:51:25.711Z</time></trkpt><trkpt lat="39.9705858" lon="16.0208394"><ele>351.0</ele><time>2026-05-02T11:51:27.713Z</time></trkpt><trkpt lat="39.9705003" lon="16.0208282"><ele>351.3333333333333</ele><time>2026-05-02T11:51:29.713Z</time></trkpt><trkpt lat="39.9704424" lon="16.0207619"><ele>351.66666666666663</ele><time>2026-05-02T11:55:46.709Z</time></trkpt><trkpt lat="39.9703975" lon="16.0206895"><ele>352.0</ele><time>2026-05-02T11:55:48.71Z</time></trkpt><trkpt lat="39.9703122" lon="16.0206102"><ele>352.0</ele><time>2026-05-02T11:55:50.713Z</time></trkpt><trkpt lat="39.9702064" lon="16.0205252"><ele>352.0</ele><time>2026-05-02T11:55:52.725Z</time></trkpt><trkpt lat="39.9700872" lon="16.0204674"><ele>352.0</ele><time>2026-05-02T11:55:54.721Z</time></trkpt><trkpt lat="39.9700114" lon="16.0204237"><ele>352.0</ele><time>2026-05-02T11:55:55.71Z</time></trkpt><trkpt lat="39.9699189" lon="16.0203601"><ele>352.0</ele><time>2026-05-02T11:55:56.719Z</time></trkpt><trkpt lat="39.9698215" lon="16.0202823"><ele>352.0</ele><time>2026-05-02T11:55:57.726Z</time></trkpt><trkpt lat="39.9697202" lon="16.0202022"><ele>352.0</ele><time>2026-05-02T11:55:58.713Z</time></trkpt><trkpt lat="39.9696151" lon="16.0201303"><ele>352.0</ele><time>2026-05-02T11:55:59.713Z</time></trkpt><trkpt lat="39.9695051" lon="16.0200498"><ele>352.0</ele><time>2026-05-02T11:56:00.714Z</time></trkpt><trkpt lat="39.9693916" lon="16.0199656"><ele>352.0</ele><time>2026-05-02T11:56:01.72Z</time></trkpt><trkpt lat="39.9692794" lon="16.0199011"><ele>352.0</ele><time>2026-05-02T11:56:02.705Z</time></trkpt><trkpt lat="39.969161" lon="16.0198635"><ele>352.0</ele><time>2026-05-02T11:56:03.711Z</time></trkpt><trkpt lat="39.9690366" lon="16.0198678"><ele>352.0</ele><time>2026-05-02T11:56:04.721Z</time></trkpt><trkpt lat="39.9689145" lon="16.0198913"><ele>355.0</ele><time>2026-05-02T11:56:05.721Z</time></trkpt><trkpt lat="39.968822" lon="16.0199116"><ele>358.0</ele><time>2026-05-02T11:56:06.708Z</time></trkpt><trkpt lat="39.9687375" lon="16.0198442"><ele>361.0</ele><time>2026-05-02T11:56:07.719Z</time></trkpt><trkpt lat="39.9686432" lon="16.0197234"><ele>364.0</ele><time>2026-05-02T11:56:08.704Z</time></trkpt><trkpt lat="39.9685459" lon="16.0195956"><ele>364.0</ele><time>2026-05-02T11:56:09.705Z</time></trkpt><trkpt lat="39.9684605" lon="16.0194739"><ele>364.0</ele><time>2026-05-02T11:56:10.709Z</time></trkpt><trkpt lat="39.9683879" lon="16.0193598"><ele>364.0</ele><time>2026-05-02T11:56:11.714Z</time></trkpt><trkpt lat="39.9683123" lon="16.0192522"><ele>364.0</ele><time>2026-05-02T11:56:12.706Z</time></trkpt><trkpt lat="39.9682225" lon="16.0191462"><ele>362.75</ele><time>2026-05-02T11:56:13.707Z</time></trkpt><trkpt lat="39.9681158" lon="16.019052"><ele>361.5</ele><time>2026-05-02T11:56:14.713Z</time></trkpt><trkpt lat="39.9679843" lon="16.0189919"><ele>360.25</ele><time>2026-05-02T11:56:15.723Z</time></trkpt><trkpt lat="39.9678582" lon="16.0189546"><ele>359.0</ele><time>2026-05-02T11:56:16.711Z</time></trkpt><trkpt lat="39.9677555" lon="16.0189274"><ele>359.0</ele><time>2026-05-02T11:56:17.733Z</time></trkpt><trkpt lat="39.9676609" lon="16.0189236"><ele>359.0</ele><time>2026-05-02T11:56:18.71Z</time></trkpt><trkpt lat="39.9675646" lon="16.018966"><ele>359.0</ele><time>2026-05-02T11:56:19.721Z</time></trkpt><trkpt lat="39.9674533" lon="16.0190449"><ele>359.0</ele><time>2026-05-02T11:56:20.699Z</time></trkpt><trkpt lat="39.9673496" lon="16.0191394"><ele>359.0</ele><time>2026-05-02T11:56:21.714Z</time></trkpt><trkpt lat="39.9672443" lon="16.0192271"><ele>367.75</ele><time>2026-05-02T11:56:22.713Z</time></trkpt><trkpt lat="39.9671393" lon="16.0193135"><ele>376.5</ele><time>2026-05-02T11:56:23.715Z</time></trkpt><trkpt lat="39.9670321" lon="16.0194179"><ele>385.25</ele><time>2026-05-02T11:56:24.716Z</time></trkpt><trkpt lat="39.9669358" lon="16.019543"><ele>394.0</ele><time>2026-05-02T11:56:25.716Z</time></trkpt><trkpt lat="39.9668519" lon="16.0196773"><ele>394.0</ele><time>2026-05-02T11:56:26.715Z</time></trkpt><trkpt lat="39.9667758" lon="16.0198123"><ele>394.0</ele><time>2026-05-02T11:56:27.716Z</time></trkpt><trkpt lat="39.966684" lon="16.0199224"><ele>394.0</ele><time>2026-05-02T11:56:28.713Z</time></trkpt><trkpt lat="39.9665767" lon="16.0200151"><ele>394.0</ele><time>2026-05-02T11:56:29.73Z</time></trkpt><trkpt lat="39.9664685" lon="16.020113"><ele>395.75</ele><time>2026-05-02T11:56:30.71Z</time></trkpt><trkpt lat="39.9663602" lon="16.0202137"><ele>397.5</ele><time>2026-05-02T11:56:31.72Z</time></trkpt><trkpt lat="39.9662643" lon="16.020342"><ele>399.25</ele><time>2026-05-02T11:56:32.71Z</time></trkpt><trkpt lat="39.9661869" lon="16.0204936"><ele>401.0</ele><time>2026-05-02T11:56:33.719Z</time></trkpt><trkpt lat="39.9661203" lon="16.0206334"><ele>401.0</ele><time>2026-05-02T11:56:34.718Z</time></trkpt><trkpt lat="39.9660427" lon="16.020721"><ele>401.0</ele><time>2026-05-02T11:56:35.726Z</time></trkpt><trkpt lat="39.965939" lon="16.0207579"><ele>401.0</ele><time>2026-05-02T11:56:36.714Z</time></trkpt><trkpt lat="39.9658288" lon="16.0207699"><ele>401.0</ele><time>2026-05-02T11:56:37.714Z</time></trkpt><trkpt lat="39.96572" lon="16.0207768"><ele>401.0</ele><time>2026-05-02T11:56:38.708Z</time></trkpt><trkpt lat="39.9656177" lon="16.020818"><ele>403.25</ele><time>2026-05-02T11:56:39.713Z</time></trkpt><trkpt lat="39.9655354" lon="16.0209055"><ele>405.5</ele><time>2026-05-02T11:56:40.722Z</time></trkpt><trkpt lat="39.9654698" lon="16.0210364"><ele>407.75</ele><time>2026-05-02T11:56:41.716Z</time></trkpt><trkpt lat="39.9654362" lon="16.0211978"><ele>410.0</ele><time>2026-05-02T11:56:42.72Z</time></trkpt><trkpt lat="39.9654055" lon="16.0213617"><ele>410.0</ele><time>2026-05-02T11:56:43.733Z</time></trkpt><trkpt lat="39.9653821" lon="16.0215019"><ele>410.0</ele><time>2026-05-02T11:56:44.714Z</time></trkpt><trkpt lat="39.9653205" lon="16.0215857"><ele>410.0</ele><time>2026-05-02T11:56:45.726Z</time></trkpt><trkpt lat="39.9652396" lon="16.0216215"><ele>410.0</ele><time>2026-05-02T11:56:46.727Z</time></trkpt><trkpt lat="39.9651445" lon="16.0216122"><ele>410.0</ele><time>2026-05-02T11:56:47.716Z</time></trkpt><trkpt lat="39.965048" lon="16.0215567"><ele>405.5</ele><time>2026-05-02T11:56:48.713Z</time></trkpt><trkpt lat="39.9649391" lon="16.0215022"><ele>401.0</ele><time>2026-05-02T11:56:49.713Z</time></trkpt><trkpt lat="39.9648202" lon="16.0214747"><ele>396.5</ele><time>2026-05-02T11:56:50.712Z</time></trkpt><trkpt lat="39.964712" lon="16.0214945"><ele>392.0</ele><time>2026-05-02T11:56:51.714Z</time></trkpt><trkpt lat="39.9646163" lon="16.0215575"><ele>399.75</ele><time>2026-05-02T11:56:52.711Z</time></trkpt><trkpt lat="39.9645259" lon="16.02166"><ele>407.5</ele><time>2026-05-02T11:56:53.71Z</time></trkpt><trkpt lat="39.9644403" lon="16.0217876"><ele>415.25</ele><time>2026-05-02T11:56:54.715Z</time></trkpt><trkpt lat="39.9643534" lon="16.0219395"><ele>423.0</ele><time>2026-05-02T11:56:55.723Z</time></trkpt><trkpt lat="39.9642682" lon="16.0220975"><ele>425.75</ele><time>2026-05-02T11:56:56.714Z</time></trkpt><trkpt lat="39.9641773" lon="16.0222477"><ele>428.5</ele><time>2026-05-02T11:56:57.709Z</time></trkpt><trkpt lat="39.9640628" lon="16.0223708"><ele>431.25</ele><time>2026-05-02T11:56:58.71Z</time></trkpt><trkpt lat="39.963936" lon="16.0224742"><ele>434.0</ele><time>2026-05-02T11:56:59.716Z</time></trkpt><trkpt lat="39.9637976" lon="16.0225584"><ele>434.0</ele><time>2026-05-02T11:57:00.721Z</time></trkpt><trkpt lat="39.9636619" lon="16.0226395"><ele>434.0</ele><time>2026-05-02T11:57:01.727Z</time></trkpt><trkpt lat="39.9635402" lon="16.0227036"><ele>434.0</ele><time>2026-05-02T11:57:02.71Z</time></trkpt><trkpt lat="39.9634312" lon="16.0227348"><ele>434.0</ele><time>2026-05-02T11:57:03.725Z</time></trkpt><trkpt lat="39.9633259" lon="16.0227345"><ele>430.0</ele><time>2026-05-02T11:57:04.728Z</time></trkpt><trkpt lat="39.9632125" lon="16.0227169"><ele>426.0</ele><time>2026-05-02T11:57:05.727Z</time></trkpt><trkpt lat="39.9631017" lon="16.022736"><ele>422.0</ele><time>2026-05-02T11:57:06.719Z</time></trkpt><trkpt lat="39.9629893" lon="16.0228064"><ele>418.0</ele><time>2026-05-02T11:57:07.712Z</time></trkpt><trkpt lat="39.9628913" lon="16.022918"><ele>418.0</ele><time>2026-05-02T11:57:08.717Z</time></trkpt><trkpt lat="39.9628105" lon="16.0230608"><ele>418.0</ele><time>2026-05-02T11:57:09.706Z</time></trkpt><trkpt lat="39.9627375" lon="16.0232148"><ele>418.0</ele><time>2026-05-02T11:57:10.718Z</time></trkpt><trkpt lat="39.9626685" lon="16.0233898"><ele>418.0</ele><time>2026-05-02T11:57:11.719Z</time></trkpt><trkpt lat="39.9625968" lon="16.0235674"><ele>419.33333333333337</ele><time>2026-05-02T11:57:12.716Z</time></trkpt><trkpt lat="39.9625248" lon="16.0237497"><ele>420.66666666666663</ele><time>2026-05-02T11:57:13.722Z</time></trkpt><trkpt lat="39.9624455" lon="16.0239257"><ele>422.0</ele><time>2026-05-02T11:57:14.712Z</time></trkpt><trkpt lat="39.9623608" lon="16.0240953"><ele>430.3333333333333</ele><time>2026-05-02T11:57:15.72Z</time></trkpt><trkpt lat="39.9622874" lon="16.0242737"><ele>438.66666666666663</ele><time>2026-05-02T11:57:16.72Z</time></trkpt><trkpt lat="39.9622291" lon="16.0244606"><ele>447.0</ele><time>2026-05-02T11:57:17.717Z</time></trkpt><trkpt lat="39.9621883" lon="16.0246434"><ele>447.0</ele><time>2026-05-02T11:57:18.715Z</time></trkpt><trkpt lat="39.9621428" lon="16.024815"><ele>447.0</ele><time>2026-05-02T11:57:19.712Z</time></trkpt><trkpt lat="39.9620782" lon="16.0249704"><ele>447.0</ele><time>2026-05-02T11:57:20.727Z</time></trkpt><trkpt lat="39.9619917" lon="16.0251214"><ele>447.0</ele><time>2026-05-02T11:57:21.724Z</time></trkpt><trkpt lat="39.9618966" lon="16.0252766"><ele>450.75</ele><time>2026-05-02T11:57:22.721Z</time></trkpt><trkpt lat="39.9617971" lon="16.025432"><ele>454.5</ele><time>2026-05-02T11:57:23.724Z</time></trkpt><trkpt lat="39.9616932" lon="16.0255612"><ele>458.25</ele><time>2026-05-02T11:57:24.728Z</time></trkpt><trkpt lat="39.961583" lon="16.0256691"><ele>462.0</ele><time>2026-05-02T11:57:25.726Z</time></trkpt><trkpt lat="39.9614632" lon="16.0257519"><ele>461.25</ele><time>2026-05-02T11:57:26.725Z</time></trkpt><trkpt lat="39.9613301" lon="16.0258281"><ele>460.5</ele><time>2026-05-02T11:57:27.715Z</time></trkpt><trkpt lat="39.9612047" lon="16.0259089"><ele>459.75</ele><time>2026-05-02T11:57:28.723Z</time></trkpt><trkpt lat="39.9610856" lon="16.0260118"><ele>459.0</ele><time>2026-05-02T11:57:29.719Z</time></trkpt><trkpt lat="39.9609789" lon="16.0261499"><ele>450.66666666666663</ele><time>2026-05-02T11:57:30.716Z</time></trkpt><trkpt lat="39.9608646" lon="16.0262854"><ele>442.3333333333333</ele><time>2026-05-02T11:57:31.717Z</time></trkpt><trkpt lat="39.9607415" lon="16.0264034"><ele>434.0</ele><time>2026-05-02T11:57:32.717Z</time></trkpt><trkpt lat="39.9606202" lon="16.0265135"><ele>434.0</ele><time>2026-05-02T11:57:33.717Z</time></trkpt><trkpt lat="39.9605119" lon="16.0266189"><ele>434.0</ele><time>2026-05-02T11:57:34.706Z</time></trkpt><trkpt lat="39.9604201" lon="16.0267316"><ele>434.0</ele><time>2026-05-02T11:57:35.722Z</time></trkpt><trkpt lat="39.9603372" lon="16.0268622"><ele>434.0</ele><time>2026-05-02T11:57:36.719Z</time></trkpt><trkpt lat="39.9602744" lon="16.0270189"><ele>436.25</ele><time>2026-05-02T11:57:37.715Z</time></trkpt><trkpt lat="39.9602265" lon="16.0271671"><ele>438.5</ele><time>2026-05-02T11:57:38.714Z</time></trkpt><trkpt lat="39.9601694" lon="16.0272842"><ele>440.75</ele><time>2026-05-02T11:57:39.721Z</time></trkpt><trkpt lat="39.9600843" lon="16.0273784"><ele>443.0</ele><time>2026-05-02T11:57:40.715Z</time></trkpt><trkpt lat="39.9599801" lon="16.0274729"><ele>450.66666666666663</ele><time>2026-05-02T11:57:41.722Z</time></trkpt><trkpt lat="39.9598603" lon="16.0275737"><ele>458.33333333333337</ele><time>2026-05-02T11:57:42.719Z</time></trkpt><trkpt lat="39.9597246" lon="16.0276872"><ele>466.0</ele><time>2026-05-02T11:57:43.729Z</time></trkpt><trkpt lat="39.9595868" lon="16.0278094"><ele>466.0</ele><time>2026-05-02T11:57:44.705Z</time></trkpt><trkpt lat="39.959444" lon="16.0279323"><ele>466.0</ele><time>2026-05-02T11:57:45.723Z</time></trkpt><trkpt lat="39.9593018" lon="16.0280553"><ele>466.0</ele><time>2026-05-02T11:57:46.717Z</time></trkpt><trkpt lat="39.9591573" lon="16.0281793"><ele>470.33333333333337</ele><time>2026-05-02T11:57:47.711Z</time></trkpt><trkpt lat="39.9590156" lon="16.0282981"><ele>474.66666666666663</ele><time>2026-05-02T11:57:48.724Z</time></trkpt><trkpt lat="39.9588832" lon="16.0283917"><ele>479.0</ele><time>2026-05-02T11:57:49.711Z</time></trkpt><trkpt lat="39.9587523" lon="16.0284682"><ele>479.0</ele><time>2026-05-02T11:57:50.712Z</time></trkpt><trkpt lat="39.9586139" lon="16.0285323"><ele>479.0</ele><time>2026-05-02T11:57:51.713Z</time></trkpt><trkpt lat="39.9584609" lon="16.0285723"><ele>479.0</ele><time>2026-05-02T11:57:52.718Z</time></trkpt><trkpt lat="39.9583202" lon="16.0285902"><ele>479.0</ele><time>2026-05-02T11:57:53.728Z</time></trkpt><trkpt lat="39.9581946" lon="16.0286199"><ele>476.25</ele><time>2026-05-02T11:57:54.706Z</time></trkpt><trkpt lat="39.9580791" lon="16.0286887"><ele>473.5</ele><time>2026-05-02T11:57:55.718Z</time></trkpt><trkpt lat="39.9579687" lon="16.0287879"><ele>470.75</ele><time>2026-05-02T11:57:56.713Z</time></trkpt><trkpt lat="39.9578685" lon="16.0289107"><ele>468.0</ele><time>2026-05-02T11:57:57.729Z</time></trkpt><trkpt lat="39.9577801" lon="16.0290266"><ele>468.0</ele><time>2026-05-02T11:57:58.717Z</time></trkpt><trkpt lat="39.9576865" lon="16.0290962"><ele>467.99999999999994</ele><time>2026-05-02T11:57:59.725Z</time></trkpt><trkpt lat="39.9575791" lon="16.0291318"><ele>467.99999999999994</ele><time>2026-05-02T11:58:00.703Z</time></trkpt><trkpt lat="39.9574736" lon="16.0291687"><ele>468.0</ele><time>2026-05-02T11:58:01.72Z</time></trkpt><trkpt lat="39.9573812" lon="16.0292567"><ele>468.0</ele><time>2026-05-02T11:58:02.717Z</time></trkpt><trkpt lat="39.9573109" lon="16.0293895"><ele>473.5</ele><time>2026-05-02T11:58:03.724Z</time></trkpt><trkpt lat="39.9572544" lon="16.0295515"><ele>479.0</ele><time>2026-05-02T11:58:04.718Z</time></trkpt><trkpt lat="39.9572029" lon="16.0297148"><ele>484.5</ele><time>2026-05-02T11:58:05.725Z</time></trkpt><trkpt lat="39.9571441" lon="16.0298468"><ele>490.0</ele><time>2026-05-02T11:58:06.743Z</time></trkpt><trkpt lat="39.957092" lon="16.0299398"><ele>490.00000000000006</ele><time>2026-05-02T11:58:07.719Z</time></trkpt><trkpt lat="39.9570412" lon="16.0299918"><ele>490.0</ele><time>2026-05-02T11:58:08.718Z</time></trkpt><trkpt lat="39.9569699" lon="16.0300064"><ele>490.0</ele><time>2026-05-02T11:58:09.715Z</time></trkpt><trkpt lat="39.9568811" lon="16.0299819"><ele>490.0</ele><time>2026-05-02T11:58:10.717Z</time></trkpt><trkpt lat="39.9567861" lon="16.0299502"><ele>490.00000000000006</ele><time>2026-05-02T11:58:11.713Z</time></trkpt><trkpt lat="39.9566908" lon="16.0299153"><ele>490.0</ele><time>2026-05-02T11:58:12.741Z</time></trkpt><trkpt lat="39.95659" lon="16.0299267"><ele>491.0</ele><time>2026-05-02T11:58:13.718Z</time></trkpt><trkpt lat="39.9564903" lon="16.0299889"><ele>492.0</ele><time>2026-05-02T11:58:14.715Z</time></trkpt><trkpt lat="39.9563943" lon="16.0301073"><ele>493.0</ele><time>2026-05-02T11:58:15.712Z</time></trkpt><trkpt lat="39.9563033" lon="16.0302202"><ele>494.0</ele><time>2026-05-02T11:58:16.709Z</time></trkpt><trkpt lat="39.9561915" lon="16.0303011"><ele>494.0</ele><time>2026-05-02T11:58:17.713Z</time></trkpt><trkpt lat="39.9560571" lon="16.0303541"><ele>494.0</ele><time>2026-05-02T11:58:18.713Z</time></trkpt><trkpt lat="39.9559487" lon="16.0304176"><ele>494.0</ele><time>2026-05-02T11:58:19.711Z</time></trkpt><trkpt lat="39.9558636" lon="16.0305009"><ele>494.0</ele><time>2026-05-02T11:58:20.709Z</time></trkpt><trkpt lat="39.9558068" lon="16.0306158"><ele>494.75</ele><time>2026-05-02T11:58:21.717Z</time></trkpt><trkpt lat="39.9557897" lon="16.030759"><ele>495.5</ele><time>2026-05-02T11:58:22.709Z</time></trkpt><trkpt lat="39.9557859" lon="16.0309184"><ele>496.25</ele><time>2026-05-02T11:58:23.724Z</time></trkpt><trkpt lat="39.9557916" lon="16.0310841"><ele>497.0</ele><time>2026-05-02T11:58:24.723Z</time></trkpt><trkpt lat="39.9557819" lon="16.0312489"><ele>497.0</ele><time>2026-05-02T11:58:25.717Z</time></trkpt><trkpt lat="39.9557731" lon="16.0313929"><ele>497.00000000000006</ele><time>2026-05-02T11:58:26.716Z</time></trkpt><trkpt lat="39.9557664" lon="16.0315061"><ele>497.00000000000006</ele><time>2026-05-02T11:58:27.713Z</time></trkpt><trkpt lat="39.9557929" lon="16.0316031"><ele>497.0</ele><time>2026-05-02T11:58:28.721Z</time></trkpt><trkpt lat="39.9558641" lon="16.0316637"><ele>497.0</ele><time>2026-05-02T11:58:29.725Z</time></trkpt><trkpt lat="39.9559562" lon="16.0316989"><ele>501.25</ele><time>2026-05-02T11:58:30.72Z</time></trkpt><trkpt lat="39.9560611" lon="16.0317198"><ele>505.5</ele><time>2026-05-02T11:58:31.72Z</time></trkpt><trkpt lat="39.9561771" lon="16.0317478"><ele>509.75</ele><time>2026-05-02T11:58:32.714Z</time></trkpt><trkpt lat="39.9562985" lon="16.0317653"><ele>514.0</ele><time>2026-05-02T11:58:33.715Z</time></trkpt><trkpt lat="39.956414" lon="16.0317748"><ele>514.0</ele><time>2026-05-02T11:58:34.713Z</time></trkpt><trkpt lat="39.9565061" lon="16.0317924"><ele>514.0</ele><time>2026-05-02T11:58:35.726Z</time></trkpt><trkpt lat="39.9565683" lon="16.0318417"><ele>514.0</ele><time>2026-05-02T11:58:36.72Z</time></trkpt><trkpt lat="39.9566158" lon="16.0319464"><ele>514.0</ele><time>2026-05-02T11:58:37.717Z</time></trkpt><trkpt lat="39.9566379" lon="16.0320869"><ele>514.0</ele><time>2026-05-02T11:58:38.715Z</time></trkpt><trkpt lat="39.9566425" lon="16.0322466"><ele>514.0</ele><time>2026-05-02T11:58:39.732Z</time></trkpt><trkpt lat="39.9566682" lon="16.0324189"><ele>514.0</ele><time>2026-05-02T11:58:40.71Z</time></trkpt><trkpt lat="39.9567021" lon="16.0326122"><ele>514.0</ele><time>2026-05-02T11:58:41.726Z</time></trkpt><trkpt lat="39.9567328" lon="16.0328191"><ele>514.0</ele><time>2026-05-02T11:58:42.716Z</time></trkpt><trkpt lat="39.9567524" lon="16.0330253"><ele>513.6666666666667</ele><time>2026-05-02T11:58:43.718Z</time></trkpt><trkpt lat="39.9567691" lon="16.0332304"><ele>513.3333333333334</ele><time>2026-05-02T11:58:44.719Z</time></trkpt><trkpt lat="39.9567939" lon="16.0334345"><ele>513.0</ele><time>2026-05-02T11:58:45.727Z</time></trkpt><trkpt lat="39.9568226" lon="16.0336376"><ele>514.6</ele><time>2026-05-02T11:58:46.701Z</time></trkpt><trkpt lat="39.9568474" lon="16.0338224"><ele>516.1999999999999</ele><time>2026-05-02T11:58:47.719Z</time></trkpt><trkpt lat="39.956862" lon="16.0339732"><ele>517.8</ele><time>2026-05-02T11:58:48.697Z</time></trkpt><trkpt lat="39.9568513" lon="16.0340851"><ele>519.4</ele><time>2026-05-02T11:58:49.708Z</time></trkpt><trkpt lat="39.9568221" lon="16.0341696"><ele>521.0</ele><time>2026-05-02T11:58:50.714Z</time></trkpt><trkpt lat="39.9567207" lon="16.0342416"><ele>522.2</ele><time>2026-05-02T11:58:52.73Z</time></trkpt><trkpt lat="39.9566451" lon="16.0342351"><ele>523.4000000000001</ele><time>2026-05-02T11:58:53.717Z</time></trkpt><trkpt lat="39.9565626" lon="16.0342082"><ele>524.6</ele><time>2026-05-02T11:58:54.724Z</time></trkpt><trkpt lat="39.9564651" lon="16.0341743"><ele>525.8000000000001</ele><time>2026-05-02T11:58:55.721Z</time></trkpt><trkpt lat="39.9563602" lon="16.0341361"><ele>527.0</ele><time>2026-05-02T11:58:56.72Z</time></trkpt><trkpt lat="39.9562472" lon="16.0340877"><ele>527.0</ele><time>2026-05-02T11:58:57.719Z</time></trkpt><trkpt lat="39.9561178" lon="16.0340338"><ele>527.0</ele><time>2026-05-02T11:58:58.712Z</time></trkpt><trkpt lat="39.9559828" lon="16.033964"><ele>527.0</ele><time>2026-05-02T11:58:59.753Z</time></trkpt><trkpt lat="39.9558415" lon="16.0338945"><ele>527.0</ele><time>2026-05-02T11:59:00.71Z</time></trkpt><trkpt lat="39.9557047" lon="16.0338234"><ele>529.25</ele><time>2026-05-02T11:59:01.724Z</time></trkpt><trkpt lat="39.9555864" lon="16.0337702"><ele>531.5</ele><time>2026-05-02T11:59:02.718Z</time></trkpt><trkpt lat="39.9554767" lon="16.0337414"><ele>533.75</ele><time>2026-05-02T11:59:03.721Z</time></trkpt><trkpt lat="39.9553677" lon="16.0337457"><ele>536.0</ele><time>2026-05-02T11:59:04.708Z</time></trkpt><trkpt lat="39.9552657" lon="16.0337831"><ele>536.0</ele><time>2026-05-02T11:59:05.704Z</time></trkpt><trkpt lat="39.9551746" lon="16.0338581"><ele>536.0</ele><time>2026-05-02T11:59:06.719Z</time></trkpt><trkpt lat="39.9551033" lon="16.0339701"><ele>536.0</ele><time>2026-05-02T11:59:07.718Z</time></trkpt><trkpt lat="39.9550707" lon="16.0341085"><ele>536.0</ele><time>2026-05-02T11:59:08.717Z</time></trkpt><trkpt lat="39.9550742" lon="16.0342679"><ele>538.0</ele><time>2026-05-02T11:59:09.732Z</time></trkpt><trkpt lat="39.955075" lon="16.0344336"><ele>540.0</ele><time>2026-05-02T11:59:10.708Z</time></trkpt><trkpt lat="39.9550815" lon="16.0346036"><ele>542.0</ele><time>2026-05-02T11:59:11.71Z</time></trkpt><trkpt lat="39.9550829" lon="16.0347813"><ele>544.0</ele><time>2026-05-02T11:59:12.714Z</time></trkpt><trkpt lat="39.9550821" lon="16.0349438"><ele>544.8</ele><time>2026-05-02T11:59:13.722Z</time></trkpt><trkpt lat="39.9550649" lon="16.0350915"><ele>545.5999999999999</ele><time>2026-05-02T11:59:14.712Z</time></trkpt><trkpt lat="39.9550445" lon="16.0352289"><ele>546.4</ele><time>2026-05-02T11:59:15.726Z</time></trkpt><trkpt lat="39.9550122" lon="16.035362"><ele>547.1999999999999</ele><time>2026-05-02T11:59:16.724Z</time></trkpt><trkpt lat="39.9549495" lon="16.0354922"><ele>548.0</ele><time>2026-05-02T11:59:17.724Z</time></trkpt><trkpt lat="39.9548658" lon="16.0356168"><ele>548.25</ele><time>2026-05-02T11:59:18.727Z</time></trkpt><trkpt lat="39.9547762" lon="16.0357486"><ele>548.5</ele><time>2026-05-02T11:59:19.718Z</time></trkpt><trkpt lat="39.954683" lon="16.0358881"><ele>548.75</ele><time>2026-05-02T11:59:20.707Z</time></trkpt><trkpt lat="39.9545801" lon="16.0360297"><ele>549.0</ele><time>2026-05-02T11:59:21.719Z</time></trkpt><trkpt lat="39.9544778" lon="16.0361745"><ele>549.0</ele><time>2026-05-02T11:59:22.722Z</time></trkpt><trkpt lat="39.9543799" lon="16.0363203"><ele>549.0</ele><time>2026-05-02T11:59:23.712Z</time></trkpt><trkpt lat="39.9542845" lon="16.0364637"><ele>549.0</ele><time>2026-05-02T11:59:24.728Z</time></trkpt><trkpt lat="39.9541964" lon="16.0365968"><ele>549.0</ele><time>2026-05-02T11:59:25.713Z</time></trkpt><trkpt lat="39.9541151" lon="16.0367126"><ele>550.5</ele><time>2026-05-02T11:59:26.717Z</time></trkpt><trkpt lat="39.9540373" lon="16.0368278"><ele>552.0</ele><time>2026-05-02T11:59:27.709Z</time></trkpt><trkpt lat="39.9539592" lon="16.036936"><ele>553.5</ele><time>2026-05-02T11:59:28.722Z</time></trkpt><trkpt lat="39.9538779" lon="16.0370477"><ele>555.0</ele><time>2026-05-02T11:59:29.719Z</time></trkpt><trkpt lat="39.9538003" lon="16.0371735"><ele>555.0</ele><time>2026-05-02T11:59:30.714Z</time></trkpt><trkpt lat="39.9537218" lon="16.0372919"><ele>555.0</ele><time>2026-05-02T11:59:31.714Z</time></trkpt><trkpt lat="39.9536405" lon="16.0374063"><ele>555.0</ele><time>2026-05-02T11:59:32.718Z</time></trkpt><trkpt lat="39.9535651" lon="16.0375108"><ele>555.0</ele><time>2026-05-02T11:59:33.722Z</time></trkpt><trkpt lat="39.9534991" lon="16.0376107"><ele>555.4285714285714</ele><time>2026-05-02T11:59:34.714Z</time></trkpt><trkpt lat="39.9534414" lon="16.0376935"><ele>555.8571428571429</ele><time>2026-05-02T11:59:35.712Z</time></trkpt><trkpt lat="39.9534043" lon="16.0377739"><ele>556.2857142857142</ele><time>2026-05-02T11:59:36.702Z</time></trkpt><trkpt lat="39.953367" lon="16.0378407"><ele>556.7142857142858</ele><time>2026-05-02T11:59:37.707Z</time></trkpt><trkpt lat="39.9532948" lon="16.0378801"><ele>557.1428571428571</ele><time>2026-05-02T11:59:39.71Z</time></trkpt><trkpt lat="39.9532491" lon="16.0378232"><ele>557.5714285714286</ele><time>2026-05-02T11:59:41.714Z</time></trkpt><trkpt lat="39.9532235" lon="16.0377261"><ele>558.0</ele><time>2026-05-02T11:59:43.714Z</time></trkpt><trkpt lat="39.9531899" lon="16.0376438"><ele>557.8333333333334</ele><time>2026-05-02T11:59:44.724Z</time></trkpt><trkpt lat="39.95316" lon="16.0375327"><ele>557.6666666666666</ele><time>2026-05-02T11:59:45.731Z</time></trkpt><trkpt lat="39.953125" lon="16.0374174"><ele>557.5</ele><time>2026-05-02T11:59:46.73Z</time></trkpt><trkpt lat="39.9530766" lon="16.0373223"><ele>557.3333333333333</ele><time>2026-05-02T11:59:47.728Z</time></trkpt><trkpt lat="39.9530108" lon="16.0372642"><ele>557.1666666666666</ele><time>2026-05-02T11:59:48.715Z</time></trkpt><trkpt lat="39.9529317" lon="16.0372413"><ele>557.0</ele><time>2026-05-02T11:59:49.718Z</time></trkpt><trkpt lat="39.9528407" lon="16.0372417"><ele>557.0</ele><time>2026-05-02T11:59:50.706Z</time></trkpt><trkpt lat="39.95275" lon="16.0372736"><ele>557.0</ele><time>2026-05-02T11:59:51.715Z</time></trkpt><trkpt lat="39.9526641" lon="16.0373256"><ele>557.0</ele><time>2026-05-02T11:59:52.719Z</time></trkpt><trkpt lat="39.9525835" lon="16.0373889"><ele>557.0</ele><time>2026-05-02T11:59:53.728Z</time></trkpt><trkpt lat="39.9525194" lon="16.0374817"><ele>557.0</ele><time>2026-05-02T11:59:54.717Z</time></trkpt><trkpt lat="39.9524852" lon="16.0376011"><ele>558.5</ele><time>2026-05-02T11:59:55.709Z</time></trkpt><trkpt lat="39.9524766" lon="16.0377319"><ele>560.0</ele><time>2026-05-02T11:59:56.717Z</time></trkpt><trkpt lat="39.9524674" lon="16.0378821"><ele>561.5</ele><time>2026-05-02T11:59:57.717Z</time></trkpt><trkpt lat="39.9524548" lon="16.0380454"><ele>563.0</ele><time>2026-05-02T11:59:58.719Z</time></trkpt><trkpt lat="39.952446" lon="16.038207"><ele>564.6666666666666</ele><time>2026-05-02T11:59:59.719Z</time></trkpt><trkpt lat="39.9524333" lon="16.0383398"><ele>566.3333333333333</ele><time>2026-05-02T12:00:00.721Z</time></trkpt><trkpt lat="39.9524136" lon="16.0384425"><ele>568.0</ele><time>2026-05-02T12:00:01.728Z</time></trkpt><trkpt lat="39.9523752" lon="16.0385308"><ele>569.6666666666666</ele><time>2026-05-02T12:00:02.721Z</time></trkpt><trkpt lat="39.9523158" lon="16.0385965"><ele>571.3333333333334</ele><time>2026-05-02T12:00:03.716Z</time></trkpt><trkpt lat="39.9522471" lon="16.0386489"><ele>573.0</ele><time>2026-05-02T12:00:04.711Z</time></trkpt><trkpt lat="39.9521568" lon="16.0386834"><ele>573.0</ele><time>2026-05-02T12:00:05.712Z</time></trkpt><trkpt lat="39.9520553" lon="16.0386892"><ele>573.0</ele><time>2026-05-02T12:00:06.719Z</time></trkpt><trkpt lat="39.951943" lon="16.0386721"><ele>573.0</ele><time>2026-05-02T12:00:07.714Z</time></trkpt><trkpt lat="39.9518225" lon="16.0386295"><ele>573.0</ele><time>2026-05-02T12:00:08.718Z</time></trkpt><trkpt lat="39.9516957" lon="16.0385776"><ele>573.25</ele><time>2026-05-02T12:00:09.711Z</time></trkpt><trkpt lat="39.9515661" lon="16.0385244"><ele>573.5</ele><time>2026-05-02T12:00:10.717Z</time></trkpt><trkpt lat="39.9514426" lon="16.0384626"><ele>573.75</ele><time>2026-05-02T12:00:11.713Z</time></trkpt><trkpt lat="39.951331" lon="16.038411"><ele>574.0</ele><time>2026-05-02T12:00:12.718Z</time></trkpt><trkpt lat="39.9512388" lon="16.0383869"><ele>574.0</ele><time>2026-05-02T12:00:13.716Z</time></trkpt><trkpt lat="39.9511515" lon="16.038395"><ele>574.0</ele><time>2026-05-02T12:00:14.701Z</time></trkpt><trkpt lat="39.9510679" lon="16.0384359"><ele>574.0</ele><time>2026-05-02T12:00:15.714Z</time></trkpt><trkpt lat="39.9509922" lon="16.0385165"><ele>574.0</ele><time>2026-05-02T12:00:16.711Z</time></trkpt><trkpt lat="39.9509337" lon="16.0386285"><ele>574.0</ele><time>2026-05-02T12:00:17.709Z</time></trkpt><trkpt lat="39.9508743" lon="16.0387681"><ele>573.6</ele><time>2026-05-02T12:00:18.717Z</time></trkpt><trkpt lat="39.9508166" lon="16.0389149"><ele>573.2</ele><time>2026-05-02T12:00:19.709Z</time></trkpt><trkpt lat="39.9507621" lon="16.0390427"><ele>572.8000000000001</ele><time>2026-05-02T12:00:20.716Z</time></trkpt><trkpt lat="39.9507147" lon="16.0391414"><ele>572.4</ele><time>2026-05-02T12:00:21.714Z</time></trkpt><trkpt lat="39.9506734" lon="16.0392196"><ele>572.0</ele><time>2026-05-02T12:00:22.706Z</time></trkpt><trkpt lat="39.9506328" lon="16.0392909"><ele>574.8333333333333</ele><time>2026-05-02T12:00:23.707Z</time></trkpt><trkpt lat="39.9505423" lon="16.0393889"><ele>577.6666666666666</ele><time>2026-05-02T12:00:25.716Z</time></trkpt><trkpt lat="39.9504793" lon="16.0394165"><ele>580.5</ele><time>2026-05-02T12:00:26.713Z</time></trkpt><trkpt lat="39.950403" lon="16.0394279"><ele>583.3333333333334</ele><time>2026-05-02T12:00:27.716Z</time></trkpt><trkpt lat="39.9503169" lon="16.0394393"><ele>586.1666666666667</ele><time>2026-05-02T12:00:28.71Z</time></trkpt><trkpt lat="39.950218" lon="16.0394461"><ele>589.0</ele><time>2026-05-02T12:00:29.719Z</time></trkpt><trkpt lat="39.9501017" lon="16.0394521"><ele>590.0</ele><time>2026-05-02T12:00:30.709Z</time></trkpt><trkpt lat="39.9499774" lon="16.0394585"><ele>591.0</ele><time>2026-05-02T12:00:31.705Z</time></trkpt><trkpt lat="39.9498605" lon="16.0394529"><ele>592.0</ele><time>2026-05-02T12:00:32.72Z</time></trkpt><trkpt lat="39.9497518" lon="16.0394439"><ele>593.0</ele><time>2026-05-02T12:00:33.713Z</time></trkpt><trkpt lat="39.9496498" lon="16.0394556"><ele>593.0</ele><time>2026-05-02T12:00:34.709Z</time></trkpt><trkpt lat="39.949544" lon="16.0394817"><ele>593.0</ele><time>2026-05-02T12:00:35.719Z</time></trkpt><trkpt lat="39.9494406" lon="16.039517"><ele>593.0</ele><time>2026-05-02T12:00:36.71Z</time></trkpt><trkpt lat="39.9493348" lon="16.0395598"><ele>593.0</ele><time>2026-05-02T12:00:37.72Z</time></trkpt><trkpt lat="39.9492252" lon="16.039606"><ele>593.0</ele><time>2026-05-02T12:00:38.71Z</time></trkpt><trkpt lat="39.9491128" lon="16.0396724"><ele>593.75</ele><time>2026-05-02T12:00:39.706Z</time></trkpt><trkpt lat="39.948997" lon="16.0397431"><ele>594.5</ele><time>2026-05-02T12:00:40.724Z</time></trkpt><trkpt lat="39.948869" lon="16.0398029"><ele>595.25</ele><time>2026-05-02T12:00:41.721Z</time></trkpt><trkpt lat="39.9487404" lon="16.0398573"><ele>596.0</ele><time>2026-05-02T12:00:42.719Z</time></trkpt><trkpt lat="39.9486061" lon="16.0399143"><ele>596.75</ele><time>2026-05-02T12:00:43.731Z</time></trkpt><trkpt lat="39.9484653" lon="16.039969"><ele>597.5</ele><time>2026-05-02T12:00:44.719Z</time></trkpt><trkpt lat="39.9483252" lon="16.0400251"><ele>598.25</ele><time>2026-05-02T12:00:45.727Z</time></trkpt><trkpt lat="39.9481797" lon="16.0400742"><ele>599.0</ele><time>2026-05-02T12:00:46.727Z</time></trkpt><trkpt lat="39.9480315" lon="16.0401258"><ele>599.5</ele><time>2026-05-02T12:00:47.715Z</time></trkpt><trkpt lat="39.9478906" lon="16.0401758"><ele>600.0</ele><time>2026-05-02T12:00:48.7Z</time></trkpt><trkpt lat="39.947758" lon="16.0402215"><ele>600.5</ele><time>2026-05-02T12:00:49.711Z</time></trkpt><trkpt lat="39.9476199" lon="16.0402702"><ele>601.0</ele><time>2026-05-02T12:00:50.714Z</time></trkpt><trkpt lat="39.947481" lon="16.0403161"><ele>601.0</ele><time>2026-05-02T12:00:51.732Z</time></trkpt><trkpt lat="39.9473389" lon="16.0403683"><ele>601.0</ele><time>2026-05-02T12:00:52.719Z</time></trkpt><trkpt lat="39.9471949" lon="16.0404215"><ele>601.0</ele><time>2026-05-02T12:00:53.716Z</time></trkpt><trkpt lat="39.9470623" lon="16.0404718"><ele>601.0</ele><time>2026-05-02T12:00:54.716Z</time></trkpt><trkpt lat="39.9469396" lon="16.0405109"><ele>601.0</ele><time>2026-05-02T12:00:55.711Z</time></trkpt><trkpt lat="39.9468149" lon="16.0405502"><ele>601.0</ele><time>2026-05-02T12:00:56.715Z</time></trkpt><trkpt lat="39.9466848" lon="16.0405871"><ele>601.0</ele><time>2026-05-02T12:00:57.727Z</time></trkpt><trkpt lat="39.946555" lon="16.0406198"><ele>601.0</ele><time>2026-05-02T12:00:58.71Z</time></trkpt><trkpt lat="39.9464228" lon="16.0406564"><ele>600.5</ele><time>2026-05-02T12:00:59.72Z</time></trkpt><trkpt lat="39.9462907" lon="16.0406964"><ele>600.0</ele><time>2026-05-02T12:01:00.708Z</time></trkpt><trkpt lat="39.946153" lon="16.0407528"><ele>599.5</ele><time>2026-05-02T12:01:01.705Z</time></trkpt><trkpt lat="39.9460138" lon="16.0408197"><ele>599.0</ele><time>2026-05-02T12:01:02.722Z</time></trkpt><trkpt lat="39.9458846" lon="16.0409218"><ele>602.0</ele><time>2026-05-02T12:01:03.714Z</time></trkpt><trkpt lat="39.9457558" lon="16.0410566"><ele>605.0</ele><time>2026-05-02T12:01:04.715Z</time></trkpt><trkpt lat="39.9456286" lon="16.0412018"><ele>608.0</ele><time>2026-05-02T12:01:05.7Z</time></trkpt><trkpt lat="39.9454848" lon="16.0413567"><ele>608.0</ele><time>2026-05-02T12:01:06.714Z</time></trkpt><trkpt lat="39.945334" lon="16.0415056"><ele>608.0</ele><time>2026-05-02T12:01:07.717Z</time></trkpt><trkpt lat="39.945186" lon="16.0416498"><ele>608.0</ele><time>2026-05-02T12:01:08.718Z</time></trkpt><trkpt lat="39.945052" lon="16.0417899"><ele>610.6666666666666</ele><time>2026-05-02T12:01:09.726Z</time></trkpt><trkpt lat="39.9449164" lon="16.0419342"><ele>613.3333333333334</ele><time>2026-05-02T12:01:10.717Z</time></trkpt><trkpt lat="39.9447812" lon="16.0420763"><ele>616.0</ele><time>2026-05-02T12:01:11.721Z</time></trkpt><trkpt lat="39.9446419" lon="16.0422167"><ele>616.0</ele><time>2026-05-02T12:01:12.71Z</time></trkpt><trkpt lat="39.9445031" lon="16.0423545"><ele>616.0</ele><time>2026-05-02T12:01:13.71Z</time></trkpt><trkpt lat="39.9443578" lon="16.0424894"><ele>616.0</ele><time>2026-05-02T12:01:14.716Z</time></trkpt><trkpt lat="39.9441962" lon="16.0425994"><ele>617.0</ele><time>2026-05-02T12:01:15.717Z</time></trkpt><trkpt lat="39.9440319" lon="16.0427058"><ele>618.0</ele><time>2026-05-02T12:01:16.707Z</time></trkpt><trkpt lat="39.9438707" lon="16.0428167"><ele>619.0</ele><time>2026-05-02T12:01:17.706Z</time></trkpt><trkpt lat="39.9437199" lon="16.0429413"><ele>619.0</ele><time>2026-05-02T12:01:18.721Z</time></trkpt><trkpt lat="39.9435735" lon="16.0430614"><ele>619.0</ele><time>2026-05-02T12:01:19.709Z</time></trkpt><trkpt lat="39.9434376" lon="16.0431648"><ele>619.0</ele><time>2026-05-02T12:01:20.718Z</time></trkpt><trkpt lat="39.9433039" lon="16.0432729"><ele>620.0</ele><time>2026-05-02T12:01:21.729Z</time></trkpt><trkpt lat="39.9431594" lon="16.0433739"><ele>621.0</ele><time>2026-05-02T12:01:22.717Z</time></trkpt><trkpt lat="39.9430075" lon="16.043466"><ele>622.0</ele><time>2026-05-02T12:01:23.713Z</time></trkpt><trkpt lat="39.9428491" lon="16.0435556"><ele>622.0</ele><time>2026-05-02T12:01:24.707Z</time></trkpt><trkpt lat="39.9426868" lon="16.0436475"><ele>622.0</ele><time>2026-05-02T12:01:25.719Z</time></trkpt><trkpt lat="39.9425373" lon="16.0437397"><ele>622.0</ele><time>2026-05-02T12:01:26.719Z</time></trkpt><trkpt lat="39.9424022" lon="16.0438227"><ele>620.2</ele><time>2026-05-02T12:01:27.718Z</time></trkpt><trkpt lat="39.9422783" lon="16.0438918"><ele>618.4000000000001</ele><time>2026-05-02T12:01:28.706Z</time></trkpt><trkpt lat="39.9421825" lon="16.0439429"><ele>616.5999999999999</ele><time>2026-05-02T12:01:29.715Z</time></trkpt><trkpt lat="39.9421041" lon="16.0439743"><ele>614.8</ele><time>2026-05-02T12:01:31.716Z</time></trkpt><trkpt lat="39.9420368" lon="16.0439522"><ele>613.0</ele><time>2026-05-02T12:01:42.712Z</time></trkpt><trkpt lat="39.9419383" lon="16.0439298"><ele>613.0</ele><time>2026-05-02T12:01:44.718Z</time></trkpt><trkpt lat="39.9418603" lon="16.0439361"><ele>613.0</ele><time>2026-05-02T12:01:45.709Z</time></trkpt><trkpt lat="39.9417654" lon="16.0439542"><ele>613.0</ele><time>2026-05-02T12:01:46.71Z</time></trkpt><trkpt lat="39.9416558" lon="16.0439941"><ele>613.0</ele><time>2026-05-02T12:01:47.721Z</time></trkpt><trkpt lat="39.9415445" lon="16.0440384"><ele>613.0</ele><time>2026-05-02T12:01:48.718Z</time></trkpt><trkpt lat="39.9414356" lon="16.0440924"><ele>614.8</ele><time>2026-05-02T12:01:49.718Z</time></trkpt><trkpt lat="39.9413384" lon="16.0441572"><ele>616.5999999999999</ele><time>2026-05-02T12:01:50.718Z</time></trkpt><trkpt lat="39.9412605" lon="16.0442496"><ele>618.4000000000001</ele><time>2026-05-02T12:01:51.725Z</time></trkpt><trkpt lat="39.9412033" lon="16.0443532"><ele>620.2</ele><time>2026-05-02T12:01:52.714Z</time></trkpt><trkpt lat="39.9411398" lon="16.0444561"><ele>622.0</ele><time>2026-05-02T12:01:53.727Z</time></trkpt><trkpt lat="39.9410615" lon="16.0445535"><ele>622.0</ele><time>2026-05-02T12:01:54.719Z</time></trkpt><trkpt lat="39.9409392" lon="16.044632"><ele>622.0</ele><time>2026-05-02T12:01:55.715Z</time></trkpt><trkpt lat="39.9407926" lon="16.0447038"><ele>622.0</ele><time>2026-05-02T12:01:56.72Z</time></trkpt><trkpt lat="39.9406357" lon="16.0447879"><ele>622.0</ele><time>2026-05-02T12:01:57.718Z</time></trkpt><trkpt lat="39.9404768" lon="16.0448857"><ele>622.0</ele><time>2026-05-02T12:01:58.72Z</time></trkpt><trkpt lat="39.9403154" lon="16.0449833"><ele>622.0</ele><time>2026-05-02T12:01:59.724Z</time></trkpt><trkpt lat="39.9401504" lon="16.0450815"><ele>621.3333333333334</ele><time>2026-05-02T12:02:00.722Z</time></trkpt><trkpt lat="39.9399809" lon="16.0451713"><ele>620.6666666666666</ele><time>2026-05-02T12:02:01.71Z</time></trkpt><trkpt lat="39.9398105" lon="16.0452622"><ele>620.0</ele><time>2026-05-02T12:02:02.723Z</time></trkpt><trkpt lat="39.9396399" lon="16.0453557"><ele>620.0</ele><time>2026-05-02T12:02:03.712Z</time></trkpt><trkpt lat="39.9394676" lon="16.0454566"><ele>620.0</ele><time>2026-05-02T12:02:04.72Z</time></trkpt><trkpt lat="39.9392931" lon="16.04556"><ele>620.0</ele><time>2026-05-02T12:02:05.726Z</time></trkpt><trkpt lat="39.939125" lon="16.0456689"><ele>620.0</ele><time>2026-05-02T12:02:06.713Z</time></trkpt><trkpt lat="39.9389652" lon="16.0457739"><ele>620.0</ele><time>2026-05-02T12:02:07.729Z</time></trkpt><trkpt lat="39.9388133" lon="16.0458727"><ele>620.0</ele><time>2026-05-02T12:02:08.728Z</time></trkpt><trkpt lat="39.9386642" lon="16.045971"><ele>620.0</ele><time>2026-05-02T12:02:09.724Z</time></trkpt><trkpt lat="39.9385203" lon="16.0460796"><ele>620.0</ele><time>2026-05-02T12:02:10.723Z</time></trkpt><trkpt lat="39.938384" lon="16.0461975"><ele>620.0</ele><time>2026-05-02T12:02:11.716Z</time></trkpt><trkpt lat="39.938257" lon="16.0463192"><ele>621.0</ele><time>2026-05-02T12:02:12.713Z</time></trkpt><trkpt lat="39.9381362" lon="16.0464479"><ele>622.0</ele><time>2026-05-02T12:02:13.715Z</time></trkpt><trkpt lat="39.9380256" lon="16.046584"><ele>623.0</ele><time>2026-05-02T12:02:14.711Z</time></trkpt><trkpt lat="39.937925" lon="16.0467158"><ele>624.75</ele><time>2026-05-02T12:02:15.712Z</time></trkpt><trkpt lat="39.9378324" lon="16.0468347"><ele>626.5</ele><time>2026-05-02T12:02:16.718Z</time></trkpt><trkpt lat="39.937739" lon="16.0469489"><ele>628.25</ele><time>2026-05-02T12:02:17.715Z</time></trkpt><trkpt lat="39.9376389" lon="16.0470669"><ele>630.0</ele><time>2026-05-02T12:02:18.721Z</time></trkpt><trkpt lat="39.9375278" lon="16.0471852"><ele>630.6666666666666</ele><time>2026-05-02T12:02:19.732Z</time></trkpt><trkpt lat="39.9374068" lon="16.0472944"><ele>631.3333333333333</ele><time>2026-05-02T12:02:20.705Z</time></trkpt><trkpt lat="39.9372807" lon="16.0474146"><ele>632.0</ele><time>2026-05-02T12:02:21.732Z</time></trkpt><trkpt lat="39.937155" lon="16.0475337"><ele>631.25</ele><time>2026-05-02T12:02:22.717Z</time></trkpt><trkpt lat="39.9370447" lon="16.0476445"><ele>630.5</ele><time>2026-05-02T12:02:23.723Z</time></trkpt><trkpt lat="39.9369363" lon="16.0477433"><ele>629.75</ele><time>2026-05-02T12:02:24.714Z</time></trkpt><trkpt lat="39.9368194" lon="16.0478385"><ele>629.0</ele><time>2026-05-02T12:02:25.714Z</time></trkpt><trkpt lat="39.936704" lon="16.0479496"><ele>629.0</ele><time>2026-05-02T12:02:26.707Z</time></trkpt><trkpt lat="39.9365888" lon="16.0480678"><ele>629.0</ele><time>2026-05-02T12:02:27.724Z</time></trkpt><trkpt lat="39.9364784" lon="16.0481871"><ele>629.0</ele><time>2026-05-02T12:02:28.716Z</time></trkpt><trkpt lat="39.9363698" lon="16.0482997"><ele>629.0</ele><time>2026-05-02T12:02:29.717Z</time></trkpt><trkpt lat="39.9362733" lon="16.0484021"><ele>627.5</ele><time>2026-05-02T12:02:30.72Z</time></trkpt><trkpt lat="39.9361775" lon="16.0485121"><ele>626.0</ele><time>2026-05-02T12:02:31.718Z</time></trkpt><trkpt lat="39.9360769" lon="16.0486314"><ele>624.5</ele><time>2026-05-02T12:02:32.716Z</time></trkpt><trkpt lat="39.9359642" lon="16.0487491"><ele>623.0</ele><time>2026-05-02T12:02:33.717Z</time></trkpt><trkpt lat="39.9358467" lon="16.0488719"><ele>623.0</ele><time>2026-05-02T12:02:34.719Z</time></trkpt><trkpt lat="39.9357243" lon="16.0489976"><ele>623.0</ele><time>2026-05-02T12:02:35.723Z</time></trkpt><trkpt lat="39.9356141" lon="16.0491141"><ele>623.0</ele><time>2026-05-02T12:02:36.715Z</time></trkpt><trkpt lat="39.9355116" lon="16.0492171"><ele>623.0</ele><time>2026-05-02T12:02:37.722Z</time></trkpt><trkpt lat="39.935423" lon="16.0493153"><ele>622.4</ele><time>2026-05-02T12:02:38.725Z</time></trkpt><trkpt lat="39.9353428" lon="16.0494013"><ele>621.8</ele><time>2026-05-02T12:02:39.709Z</time></trkpt><trkpt lat="39.9352617" lon="16.0494799"><ele>621.2</ele><time>2026-05-02T12:02:40.72Z</time></trkpt><trkpt lat="39.9351746" lon="16.0495355"><ele>620.6</ele><time>2026-05-02T12:02:41.72Z</time></trkpt><trkpt lat="39.9350794" lon="16.0495596"><ele>620.0</ele><time>2026-05-02T12:02:42.72Z</time></trkpt><trkpt lat="39.9349851" lon="16.0495638"><ele>620.0</ele><time>2026-05-02T12:02:43.71Z</time></trkpt><trkpt lat="39.9349004" lon="16.049581"><ele>620.0</ele><time>2026-05-02T12:02:44.714Z</time></trkpt><trkpt lat="39.9348184" lon="16.0496233"><ele>620.0</ele><time>2026-05-02T12:02:45.706Z</time></trkpt><trkpt lat="39.934735" lon="16.0497004"><ele>620.0</ele><time>2026-05-02T12:02:46.713Z</time></trkpt><trkpt lat="39.934647" lon="16.0498025"><ele>620.0</ele><time>2026-05-02T12:02:47.705Z</time></trkpt><trkpt lat="39.9345486" lon="16.0499124"><ele>620.5</ele><time>2026-05-02T12:02:48.707Z</time></trkpt><trkpt lat="39.9344424" lon="16.0499994"><ele>621.0</ele><time>2026-05-02T12:02:49.719Z</time></trkpt><trkpt lat="39.9343355" lon="16.0500824"><ele>621.5</ele><time>2026-05-02T12:02:50.711Z</time></trkpt><trkpt lat="39.9342258" lon="16.0501598"><ele>622.0</ele><time>2026-05-02T12:02:51.719Z</time></trkpt><trkpt lat="39.9341138" lon="16.0502311"><ele>622.0</ele><time>2026-05-02T12:02:52.716Z</time></trkpt><trkpt lat="39.934018" lon="16.050281"><ele>622.0</ele><time>2026-05-02T12:02:53.72Z</time></trkpt><trkpt lat="39.9339312" lon="16.050305"><ele>622.0</ele><time>2026-05-02T12:02:54.714Z</time></trkpt><trkpt lat="39.9338559" lon="16.0503056"><ele>622.0</ele><time>2026-05-02T12:02:55.71Z</time></trkpt><trkpt lat="39.9337814" lon="16.0502854"><ele>622.0</ele><time>2026-05-02T12:02:56.722Z</time></trkpt><trkpt lat="39.9336988" lon="16.0502375"><ele>622.0</ele><time>2026-05-02T12:02:57.716Z</time></trkpt><trkpt lat="39.9336014" lon="16.0501727"><ele>622.0</ele><time>2026-05-02T12:02:58.708Z</time></trkpt><trkpt lat="39.933494" lon="16.0500953"><ele>622.0</ele><time>2026-05-02T12:02:59.708Z</time></trkpt><trkpt lat="39.9333814" lon="16.0500294"><ele>622.0</ele><time>2026-05-02T12:03:00.717Z</time></trkpt><trkpt lat="39.9332684" lon="16.0499652"><ele>622.0</ele><time>2026-05-02T12:03:01.742Z</time></trkpt><trkpt lat="39.933178" lon="16.0498972"><ele>620.8333333333334</ele><time>2026-05-02T12:03:02.719Z</time></trkpt><trkpt lat="39.9331067" lon="16.049828"><ele>619.6666666666667</ele><time>2026-05-02T12:03:03.713Z</time></trkpt><trkpt lat="39.9330527" lon="16.0497626"><ele>618.5</ele><time>2026-05-02T12:03:04.729Z</time></trkpt><trkpt lat="39.9329995" lon="16.0496225"><ele>617.3333333333334</ele><time>2026-05-02T12:03:06.716Z</time></trkpt><trkpt lat="39.9330038" lon="16.0494993"><ele>616.1666666666666</ele><time>2026-05-02T12:03:08.71Z</time></trkpt><trkpt lat="39.9330067" lon="16.0494163"><ele>615.0</ele><time>2026-05-02T12:03:22.724Z</time></trkpt><trkpt lat="39.9330051" lon="16.0493001"><ele>615.0</ele><time>2026-05-02T12:03:25.728Z</time></trkpt><trkpt lat="39.932949" lon="16.0492522"><ele>615.0</ele><time>2026-05-02T12:05:16.717Z</time></trkpt><trkpt lat="39.9328903" lon="16.0491981"><ele>615.0</ele><time>2026-05-02T12:05:18.725Z</time></trkpt><trkpt lat="39.9328263" lon="16.0491029"><ele>615.0</ele><time>2026-05-02T12:05:20.715Z</time></trkpt><trkpt lat="39.9327363" lon="16.0489981"><ele>615.0</ele><time>2026-05-02T12:05:22.712Z</time></trkpt><trkpt lat="39.9326802" lon="16.0489494"><ele>615.0</ele><time>2026-05-02T12:05:23.722Z</time></trkpt><trkpt lat="39.9326147" lon="16.0488959"><ele>617.8333333333334</ele><time>2026-05-02T12:05:24.72Z</time></trkpt><trkpt lat="39.9325428" lon="16.0488447"><ele>620.6666666666666</ele><time>2026-05-02T12:05:25.709Z</time></trkpt><trkpt lat="39.9324715" lon="16.0487934"><ele>623.5</ele><time>2026-05-02T12:05:26.702Z</time></trkpt><trkpt lat="39.9323942" lon="16.0487428"><ele>626.3333333333333</ele><time>2026-05-02T12:05:27.697Z</time></trkpt><trkpt lat="39.9323146" lon="16.0486949"><ele>629.1666666666666</ele><time>2026-05-02T12:05:28.71Z</time></trkpt><trkpt lat="39.9322309" lon="16.0486457"><ele>632.0</ele><time>2026-05-02T12:05:29.689Z</time></trkpt><trkpt lat="39.9321487" lon="16.0485964"><ele>632.0</ele><time>2026-05-02T12:05:30.698Z</time></trkpt><trkpt lat="39.9320726" lon="16.0485558"><ele>632.0</ele><time>2026-05-02T12:05:31.713Z</time></trkpt><trkpt lat="39.9319576" lon="16.0485221"><ele>632.0</ele><time>2026-05-02T12:05:33.718Z</time></trkpt><trkpt lat="39.9318965" lon="16.0485576"><ele>632.0</ele><time>2026-05-02T12:05:34.707Z</time></trkpt><trkpt lat="39.9318449" lon="16.0486284"><ele>632.0</ele><time>2026-05-02T12:05:35.705Z</time></trkpt><trkpt lat="39.9318228" lon="16.0487201"><ele>632.0</ele><time>2026-05-02T12:05:36.692Z</time></trkpt><trkpt lat="39.9317895" lon="16.0488115"><ele>632.0</ele><time>2026-05-02T12:05:37.706Z</time></trkpt><trkpt lat="39.9317603" lon="16.0489149"><ele>632.0</ele><time>2026-05-02T12:05:38.714Z</time></trkpt><trkpt lat="39.9317232" lon="16.0490139"><ele>632.0</ele><time>2026-05-02T12:05:39.732Z</time></trkpt><trkpt lat="39.9316715" lon="16.0490925"><ele>632.0</ele><time>2026-05-02T12:05:40.724Z</time></trkpt><trkpt lat="39.9316074" lon="16.0491386"><ele>632.0</ele><time>2026-05-02T12:05:41.717Z</time></trkpt><trkpt lat="39.9315312" lon="16.0491501"><ele>632.0</ele><time>2026-05-02T12:05:42.728Z</time></trkpt><trkpt lat="39.931466" lon="16.0491318"><ele>635.3333333333333</ele><time>2026-05-02T12:05:43.728Z</time></trkpt><trkpt lat="39.9314168" lon="16.0490084"><ele>638.6666666666666</ele><time>2026-05-02T12:05:45.711Z</time></trkpt><trkpt lat="39.9314385" lon="16.0488457"><ele>642.0</ele><time>2026-05-02T12:05:47.709Z</time></trkpt><trkpt lat="39.93145" lon="16.048756"><ele>645.3333333333334</ele><time>2026-05-02T12:05:48.713Z</time></trkpt><trkpt lat="39.9314525" lon="16.0486601"><ele>648.6666666666667</ele><time>2026-05-02T12:05:49.707Z</time></trkpt><trkpt lat="39.9314483" lon="16.0485739"><ele>652.0</ele><time>2026-05-02T12:05:50.725Z</time></trkpt><trkpt lat="39.9313942" lon="16.0484576"><ele>652.0</ele><time>2026-05-02T12:05:52.722Z</time></trkpt><trkpt lat="39.931322" lon="16.0484904"><ele>652.0</ele><time>2026-05-02T12:05:54.704Z</time></trkpt><trkpt lat="39.9313045" lon="16.0486189"><ele>652.0</ele><time>2026-05-02T12:05:56.706Z</time></trkpt><trkpt lat="39.9312434" lon="16.0487053"><ele>652.0</ele><time>2026-05-02T12:05:58.713Z</time></trkpt><trkpt lat="39.9311152" lon="16.0487004"><ele>652.0</ele><time>2026-05-02T12:06:00.699Z</time></trkpt><trkpt lat="39.9310471" lon="16.0486912"><ele>652.0</ele><time>2026-05-02T12:06:01.719Z</time></trkpt><trkpt lat="39.9309744" lon="16.0486938"><ele>652.0</ele><time>2026-05-02T12:06:02.724Z</time></trkpt><trkpt lat="39.9309042" lon="16.0487085"><ele>652.0</ele><time>2026-05-02T12:06:03.738Z</time></trkpt><trkpt lat="39.9308274" lon="16.0487304"><ele>652.0</ele><time>2026-05-02T12:06:04.721Z</time></trkpt><trkpt lat="39.9307578" lon="16.0487645"><ele>652.0</ele><time>2026-05-02T12:06:05.717Z</time></trkpt><trkpt lat="39.9306691" lon="16.0487843"><ele>652.0</ele><time>2026-05-02T12:06:07.709Z</time></trkpt><trkpt lat="39.9306539" lon="16.0486754"><ele>654.6666666666667</ele><time>2026-05-02T12:06:18.728Z</time></trkpt><trkpt lat="39.9307035" lon="16.0485744"><ele>657.3333333333334</ele><time>2026-05-02T12:06:20.732Z</time></trkpt><trkpt lat="39.9306799" lon="16.0484598"><ele>660.0</ele><time>2026-05-02T12:06:22.715Z</time></trkpt><trkpt lat="39.9305873" lon="16.0484014"><ele>662.6666666666666</ele><time>2026-05-02T12:06:24.714Z</time></trkpt><trkpt lat="39.9305206" lon="16.0483908"><ele>665.3333333333333</ele><time>2026-05-02T12:06:25.718Z</time></trkpt><trkpt lat="39.9304432" lon="16.0483791"><ele>668.0</ele><time>2026-05-02T12:06:26.731Z</time></trkpt><trkpt lat="39.9303559" lon="16.0483673"><ele>668.0</ele><time>2026-05-02T12:06:27.718Z</time></trkpt><trkpt lat="39.9302621" lon="16.0483459"><ele>668.0</ele><time>2026-05-02T12:06:28.726Z</time></trkpt><trkpt lat="39.9301693" lon="16.048309"><ele>668.0</ele><time>2026-05-02T12:06:29.713Z</time></trkpt><trkpt lat="39.9300848" lon="16.048276"><ele>668.0</ele><time>2026-05-02T12:06:30.735Z</time></trkpt><trkpt lat="39.9300101" lon="16.0482628"><ele>668.0</ele><time>2026-05-02T12:06:31.721Z</time></trkpt><trkpt lat="39.9299388" lon="16.0482622"><ele>668.0</ele><time>2026-05-02T12:06:32.715Z</time></trkpt><trkpt lat="39.9298642" lon="16.0482868"><ele>669.8333333333333</ele><time>2026-05-02T12:06:33.718Z</time></trkpt><trkpt lat="39.9298001" lon="16.0483166"><ele>671.6666666666666</ele><time>2026-05-02T12:06:34.722Z</time></trkpt><trkpt lat="39.9297111" lon="16.0483835"><ele>673.5</ele><time>2026-05-02T12:06:36.716Z</time></trkpt><trkpt lat="39.9296457" lon="16.0483835"><ele>675.3333333333334</ele><time>2026-05-02T12:06:45.72Z</time></trkpt><trkpt lat="39.9296296" lon="16.0482721"><ele>677.1666666666667</ele><time>2026-05-02T12:06:48.717Z</time></trkpt><trkpt lat="39.9296387" lon="16.0481495"><ele>679.0</ele><time>2026-05-02T12:06:50.714Z</time></trkpt><trkpt lat="39.9296402" lon="16.0479939"><ele>679.6</ele><time>2026-05-02T12:06:52.723Z</time></trkpt><trkpt lat="39.9296476" lon="16.0478495"><ele>680.2</ele><time>2026-05-02T12:06:54.714Z</time></trkpt><trkpt lat="39.9296501" lon="16.0477502"><ele>680.8000000000001</ele><time>2026-05-02T12:06:56.719Z</time></trkpt><trkpt lat="39.9296527" lon="16.0476572"><ele>681.4000000000001</ele><time>2026-05-02T12:06:58.715Z</time></trkpt><trkpt lat="39.9296538" lon="16.0475234"><ele>682.0</ele><time>2026-05-02T12:07:00.723Z</time></trkpt><trkpt lat="39.9296506" lon="16.0473608"><ele>682.6666666666667</ele><time>2026-05-02T12:07:02.718Z</time></trkpt><trkpt lat="39.9296488" lon="16.0472765"><ele>683.3333333333334</ele><time>2026-05-02T12:07:03.728Z</time></trkpt><trkpt lat="39.9296443" lon="16.0471926"><ele>684.0</ele><time>2026-05-02T12:07:04.722Z</time></trkpt><trkpt lat="39.9296412" lon="16.0470316"><ele>684.6666666666666</ele><time>2026-05-02T12:07:06.723Z</time></trkpt><trkpt lat="39.9296412" lon="16.04694"><ele>685.3333333333333</ele><time>2026-05-02T12:07:07.718Z</time></trkpt><trkpt lat="39.929652" lon="16.0468502"><ele>686.0</ele><time>2026-05-02T12:07:08.72Z</time></trkpt><trkpt lat="39.9296777" lon="16.0467726"><ele>686.0</ele><time>2026-05-02T12:07:09.727Z</time></trkpt><trkpt lat="39.9297219" lon="16.0466989"><ele>686.0</ele><time>2026-05-02T12:07:10.724Z</time></trkpt><trkpt lat="39.9297674" lon="16.0466279"><ele>686.0</ele><time>2026-05-02T12:07:11.718Z</time></trkpt><trkpt lat="39.9298185" lon="16.0465594"><ele>686.0</ele><time>2026-05-02T12:07:12.71Z</time></trkpt><trkpt lat="39.9298645" lon="16.0464894"><ele>686.0</ele><time>2026-05-02T12:07:13.727Z</time></trkpt><trkpt lat="39.9299082" lon="16.046417"><ele>686.0</ele><time>2026-05-02T12:07:14.715Z</time></trkpt><trkpt lat="39.9299505" lon="16.0463514"><ele>686.0</ele><time>2026-05-02T12:07:15.719Z</time></trkpt><trkpt lat="39.9300109" lon="16.0462327"><ele>686.8333333333333</ele><time>2026-05-02T12:07:17.729Z</time></trkpt><trkpt lat="39.9299938" lon="16.0461254"><ele>687.6666666666666</ele><time>2026-05-02T12:07:19.718Z</time></trkpt><trkpt lat="39.9299055" lon="16.0460382"><ele>688.5</ele><time>2026-05-02T12:07:21.73Z</time></trkpt><trkpt lat="39.9298541" lon="16.0459866"><ele>689.3333333333334</ele><time>2026-05-02T12:07:22.725Z</time></trkpt><trkpt lat="39.9297978" lon="16.0459256"><ele>690.1666666666667</ele><time>2026-05-02T12:07:23.716Z</time></trkpt><trkpt lat="39.9297478" lon="16.0458351"><ele>691.0</ele><time>2026-05-02T12:07:24.719Z</time></trkpt><trkpt lat="39.92971" lon="16.0457322"><ele>691.4</ele><time>2026-05-02T12:07:25.72Z</time></trkpt><trkpt lat="39.9296704" lon="16.0456073"><ele>691.8</ele><time>2026-05-02T12:07:26.719Z</time></trkpt><trkpt lat="39.9296318" lon="16.0454778"><ele>692.1999999999999</ele><time>2026-05-02T12:07:27.748Z</time></trkpt><trkpt lat="39.9296031" lon="16.0453439"><ele>692.5999999999999</ele><time>2026-05-02T12:07:28.72Z</time></trkpt><trkpt lat="39.9295899" lon="16.0452011"><ele>693.0</ele><time>2026-05-02T12:07:29.727Z</time></trkpt><trkpt lat="39.9295898" lon="16.0450606"><ele>691.8</ele><time>2026-05-02T12:07:30.725Z</time></trkpt><trkpt lat="39.9296075" lon="16.0449395"><ele>690.5999999999999</ele><time>2026-05-02T12:07:31.712Z</time></trkpt><trkpt lat="39.9296141" lon="16.0448453"><ele>689.4000000000001</ele><time>2026-05-02T12:07:32.722Z</time></trkpt><trkpt lat="39.9295592" lon="16.0447306"><ele>688.2</ele><time>2026-05-02T12:07:34.721Z</time></trkpt><trkpt lat="39.92944" lon="16.044752"><ele>687.0</ele><time>2026-05-02T12:07:36.725Z</time></trkpt><trkpt lat="39.9293908" lon="16.0448211"><ele>687.0</ele><time>2026-05-02T12:07:37.723Z</time></trkpt><trkpt lat="39.9293591" lon="16.044922"><ele>687.0</ele><time>2026-05-02T12:07:38.72Z</time></trkpt><trkpt lat="39.9293368" lon="16.0450246"><ele>687.0</ele><time>2026-05-02T12:07:39.711Z</time></trkpt><trkpt lat="39.9293089" lon="16.0451177"><ele>687.0</ele><time>2026-05-02T12:07:40.721Z</time></trkpt><trkpt lat="39.9292403" lon="16.0451901"><ele>687.0</ele><time>2026-05-02T12:07:41.721Z</time></trkpt><trkpt lat="39.9291579" lon="16.045254"><ele>687.0</ele><time>2026-05-02T12:07:42.714Z</time></trkpt><trkpt lat="39.9290604" lon="16.0453186"><ele>690.8</ele><time>2026-05-02T12:07:43.73Z</time></trkpt><trkpt lat="39.9289569" lon="16.0453876"><ele>694.6</ele><time>2026-05-02T12:07:44.713Z</time></trkpt><trkpt lat="39.928854" lon="16.0454532"><ele>698.4</ele><time>2026-05-02T12:07:45.727Z</time></trkpt><trkpt lat="39.9287527" lon="16.0455186"><ele>702.1999999999999</ele><time>2026-05-02T12:07:46.716Z</time></trkpt><trkpt lat="39.9286658" lon="16.0455742"><ele>706.0</ele><time>2026-05-02T12:07:47.719Z</time></trkpt><trkpt lat="39.9285781" lon="16.0456126"><ele>706.0</ele><time>2026-05-02T12:07:48.713Z</time></trkpt><trkpt lat="39.9284773" lon="16.0456159"><ele>706.0</ele><time>2026-05-02T12:07:49.734Z</time></trkpt><trkpt lat="39.9283667" lon="16.0455936"><ele>706.0</ele><time>2026-05-02T12:07:50.709Z</time></trkpt><trkpt lat="39.9282536" lon="16.0455477"><ele>706.0</ele><time>2026-05-02T12:07:51.732Z</time></trkpt><trkpt lat="39.9281396" lon="16.0455215"><ele>706.0</ele><time>2026-05-02T12:07:52.71Z</time></trkpt><trkpt lat="39.9280207" lon="16.0455224"><ele>707.5999999999999</ele><time>2026-05-02T12:07:53.714Z</time></trkpt><trkpt lat="39.9279113" lon="16.0455396"><ele>709.2</ele><time>2026-05-02T12:07:54.719Z</time></trkpt><trkpt lat="39.9277943" lon="16.045573"><ele>710.8</ele><time>2026-05-02T12:07:55.727Z</time></trkpt><trkpt lat="39.9276868" lon="16.0456088"><ele>712.4000000000001</ele><time>2026-05-02T12:07:56.712Z</time></trkpt><trkpt lat="39.9275956" lon="16.045632"><ele>714.0</ele><time>2026-05-02T12:07:57.733Z</time></trkpt><trkpt lat="39.9275273" lon="16.0456554"><ele>714.5</ele><time>2026-05-02T12:07:58.732Z</time></trkpt><trkpt lat="39.927414" lon="16.0456937"><ele>715.0</ele><time>2026-05-02T12:08:00.725Z</time></trkpt><trkpt lat="39.9273558" lon="16.0457367"><ele>715.5</ele><time>2026-05-02T12:08:01.716Z</time></trkpt><trkpt lat="39.9273011" lon="16.0458077"><ele>716.0</ele><time>2026-05-02T12:08:02.725Z</time></trkpt><trkpt lat="39.9272637" lon="16.0459141"><ele>716.5</ele><time>2026-05-02T12:08:03.748Z</time></trkpt><trkpt lat="39.9272573" lon="16.0460384"><ele>717.0</ele><time>2026-05-02T12:08:04.719Z</time></trkpt><trkpt lat="39.9272683" lon="16.0461709"><ele>717.0</ele><time>2026-05-02T12:08:05.723Z</time></trkpt><trkpt lat="39.9272779" lon="16.0463136"><ele>717.0</ele><time>2026-05-02T12:08:06.719Z</time></trkpt><trkpt lat="39.9272847" lon="16.046437"><ele>717.0</ele><time>2026-05-02T12:08:07.715Z</time></trkpt><trkpt lat="39.927271" lon="16.0465566"><ele>717.0</ele><time>2026-05-02T12:08:08.723Z</time></trkpt><trkpt lat="39.9272222" lon="16.0466618"><ele>717.0</ele><time>2026-05-02T12:08:09.716Z</time></trkpt><trkpt lat="39.9271534" lon="16.0467579"><ele>717.25</ele><time>2026-05-02T12:08:10.726Z</time></trkpt><trkpt lat="39.9270612" lon="16.0468578"><ele>717.5</ele><time>2026-05-02T12:08:11.728Z</time></trkpt><trkpt lat="39.9269632" lon="16.0469642"><ele>717.75</ele><time>2026-05-02T12:08:12.73Z</time></trkpt><trkpt lat="39.9268644" lon="16.0470751"><ele>718.0</ele><time>2026-05-02T12:08:13.715Z</time></trkpt><trkpt lat="39.9267837" lon="16.0471755"><ele>720.1666666666667</ele><time>2026-05-02T12:08:14.719Z</time></trkpt><trkpt lat="39.9267236" lon="16.0472487"><ele>722.3333333333334</ele><time>2026-05-02T12:08:15.722Z</time></trkpt><trkpt lat="39.9266702" lon="16.0472972"><ele>724.5</ele><time>2026-05-02T12:08:16.716Z</time></trkpt><trkpt lat="39.9265729" lon="16.04729"><ele>726.6666666666666</ele><time>2026-05-02T12:08:18.72Z</time></trkpt><trkpt lat="39.9265428" lon="16.0471486"><ele>728.8333333333333</ele><time>2026-05-02T12:08:20.712Z</time></trkpt><trkpt lat="39.9265877" lon="16.0470636"><ele>731.0</ele><time>2026-05-02T12:08:21.72Z</time></trkpt><trkpt lat="39.9266669" lon="16.0469775"><ele>728.4</ele><time>2026-05-02T12:08:22.711Z</time></trkpt><trkpt lat="39.9267648" lon="16.046913"><ele>725.8</ele><time>2026-05-02T12:08:23.741Z</time></trkpt><trkpt lat="39.9268246" lon="16.0468141"><ele>723.1999999999999</ele><time>2026-05-02T12:08:24.717Z</time></trkpt><trkpt lat="39.9268516" lon="16.0466932"><ele>720.5999999999999</ele><time>2026-05-02T12:08:25.722Z</time></trkpt><trkpt lat="39.9268435" lon="16.0465888"><ele>718.0</ele><time>2026-05-02T12:08:26.713Z</time></trkpt><trkpt lat="39.9267922" lon="16.0464883"><ele>721.0</ele><time>2026-05-02T12:08:27.72Z</time></trkpt><trkpt lat="39.9267063" lon="16.0464042"><ele>724.0</ele><time>2026-05-02T12:08:28.719Z</time></trkpt><trkpt lat="39.9265982" lon="16.0463316"><ele>727.0</ele><time>2026-05-02T12:08:29.722Z</time></trkpt><trkpt lat="39.9264709" lon="16.0462681"><ele>730.0</ele><time>2026-05-02T12:08:30.715Z</time></trkpt><trkpt lat="39.9263416" lon="16.0461807"><ele>730.0</ele><time>2026-05-02T12:08:31.72Z</time></trkpt><trkpt lat="39.9262094" lon="16.046093"><ele>730.0</ele><time>2026-05-02T12:08:32.721Z</time></trkpt><trkpt lat="39.9261059" lon="16.0460178"><ele>730.0</ele><time>2026-05-02T12:08:33.721Z</time></trkpt><trkpt lat="39.9260312" lon="16.0459261"><ele>730.0</ele><time>2026-05-02T12:08:34.723Z</time></trkpt><trkpt lat="39.9259691" lon="16.045816"><ele>730.0</ele><time>2026-05-02T12:08:35.715Z</time></trkpt><trkpt lat="39.925919" lon="16.0456787"><ele>730.0</ele><time>2026-05-02T12:08:36.724Z</time></trkpt><trkpt lat="39.9258973" lon="16.0455192"><ele>730.0</ele><time>2026-05-02T12:08:37.72Z</time></trkpt><trkpt lat="39.925875" lon="16.0453595"><ele>730.0</ele><time>2026-05-02T12:08:38.711Z</time></trkpt><trkpt lat="39.9258263" lon="16.0452155"><ele>733.25</ele><time>2026-05-02T12:08:39.715Z</time></trkpt><trkpt lat="39.9257493" lon="16.0450762"><ele>736.5</ele><time>2026-05-02T12:08:40.709Z</time></trkpt><trkpt lat="39.9256435" lon="16.0449359"><ele>739.75</ele><time>2026-05-02T12:08:41.72Z</time></trkpt><trkpt lat="39.9255308" lon="16.0448052"><ele>743.0</ele><time>2026-05-02T12:08:42.725Z</time></trkpt><trkpt lat="39.9254144" lon="16.0446828"><ele>743.0</ele><time>2026-05-02T12:08:43.703Z</time></trkpt><trkpt lat="39.9253038" lon="16.0445553"><ele>743.0</ele><time>2026-05-02T12:08:44.713Z</time></trkpt><trkpt lat="39.9251952" lon="16.0444173"><ele>743.0</ele><time>2026-05-02T12:08:45.708Z</time></trkpt><trkpt lat="39.9250848" lon="16.0442864"><ele>743.0</ele><time>2026-05-02T12:08:46.709Z</time></trkpt><trkpt lat="39.9249707" lon="16.0441607"><ele>745.75</ele><time>2026-05-02T12:08:47.714Z</time></trkpt><trkpt lat="39.9248548" lon="16.0440313"><ele>748.5</ele><time>2026-05-02T12:08:48.717Z</time></trkpt><trkpt lat="39.9247366" lon="16.0439061"><ele>751.25</ele><time>2026-05-02T12:08:49.703Z</time></trkpt><trkpt lat="39.924621" lon="16.0437958"><ele>754.0</ele><time>2026-05-02T12:08:50.72Z</time></trkpt><trkpt lat="39.9245156" lon="16.043717"><ele>754.0</ele><time>2026-05-02T12:08:51.733Z</time></trkpt><trkpt lat="39.9244261" lon="16.0436379"><ele>754.0</ele><time>2026-05-02T12:08:52.717Z</time></trkpt><trkpt lat="39.9243713" lon="16.0435303"><ele>754.0</ele><time>2026-05-02T12:08:53.731Z</time></trkpt><trkpt lat="39.9243237" lon="16.0434039"><ele>754.0</ele><time>2026-05-02T12:08:54.715Z</time></trkpt><trkpt lat="39.9242828" lon="16.0432484"><ele>754.0</ele><time>2026-05-02T12:08:55.719Z</time></trkpt><trkpt lat="39.9242393" lon="16.0430887"><ele>756.25</ele><time>2026-05-02T12:08:56.719Z</time></trkpt><trkpt lat="39.9241919" lon="16.0429203"><ele>758.5</ele><time>2026-05-02T12:08:57.723Z</time></trkpt><trkpt lat="39.9241539" lon="16.0427879"><ele>760.75</ele><time>2026-05-02T12:08:58.714Z</time></trkpt><trkpt lat="39.9240999" lon="16.0426616"><ele>763.0</ele><time>2026-05-02T12:08:59.712Z</time></trkpt><trkpt lat="39.92401" lon="16.0425389"><ele>763.5999999999999</ele><time>2026-05-02T12:09:00.715Z</time></trkpt><trkpt lat="39.9239174" lon="16.0424382"><ele>764.1999999999999</ele><time>2026-05-02T12:09:01.705Z</time></trkpt><trkpt lat="39.9238419" lon="16.0423536"><ele>764.8</ele><time>2026-05-02T12:09:02.722Z</time></trkpt><trkpt lat="39.9237857" lon="16.0422694"><ele>765.4</ele><time>2026-05-02T12:09:03.723Z</time></trkpt><trkpt lat="39.9237556" lon="16.0421587"><ele>766.0</ele><time>2026-05-02T12:09:04.725Z</time></trkpt><trkpt lat="39.9237565" lon="16.0420257"><ele>766.0</ele><time>2026-05-02T12:09:05.709Z</time></trkpt><trkpt lat="39.9237856" lon="16.0418952"><ele>766.0</ele><time>2026-05-02T12:09:06.708Z</time></trkpt><trkpt lat="39.9238448" lon="16.0417869"><ele>766.0</ele><time>2026-05-02T12:09:07.718Z</time></trkpt><trkpt lat="39.9239305" lon="16.0416994"><ele>766.0</ele><time>2026-05-02T12:09:08.711Z</time></trkpt><trkpt lat="39.9240184" lon="16.0416103"><ele>766.0</ele><time>2026-05-02T12:09:09.727Z</time></trkpt><trkpt lat="39.9241047" lon="16.0414933"><ele>768.0</ele><time>2026-05-02T12:09:10.714Z</time></trkpt><trkpt lat="39.9241768" lon="16.0413355"><ele>770.0</ele><time>2026-05-02T12:09:11.713Z</time></trkpt><trkpt lat="39.9242379" lon="16.0411409"><ele>772.0</ele><time>2026-05-02T12:09:12.718Z</time></trkpt><trkpt lat="39.9242965" lon="16.0409299"><ele>768.0</ele><time>2026-05-02T12:09:13.717Z</time></trkpt><trkpt lat="39.9243623" lon="16.0407107"><ele>764.0</ele><time>2026-05-02T12:09:14.714Z</time></trkpt><trkpt lat="39.9244288" lon="16.0404872"><ele>760.0</ele><time>2026-05-02T12:09:15.716Z</time></trkpt><trkpt lat="39.9244969" lon="16.0402761"><ele>760.0</ele><time>2026-05-02T12:09:16.714Z</time></trkpt><trkpt lat="39.9245537" lon="16.040088"><ele>760.0</ele><time>2026-05-02T12:09:17.715Z</time></trkpt><trkpt lat="39.9245931" lon="16.0399314"><ele>760.0</ele><time>2026-05-02T12:09:18.713Z</time></trkpt><trkpt lat="39.9246147" lon="16.0397822"><ele>760.0</ele><time>2026-05-02T12:09:19.744Z</time></trkpt><trkpt lat="39.924589" lon="16.0396316"><ele>759.5</ele><time>2026-05-02T12:09:20.706Z</time></trkpt><trkpt lat="39.9245297" lon="16.0394774"><ele>759.0</ele><time>2026-05-02T12:09:21.721Z</time></trkpt><trkpt lat="39.9244444" lon="16.0393323"><ele>758.5</ele><time>2026-05-02T12:09:22.713Z</time></trkpt><trkpt lat="39.9243358" lon="16.0391867"><ele>758.0</ele><time>2026-05-02T12:09:23.71Z</time></trkpt><trkpt lat="39.9242228" lon="16.0390404"><ele>760.6666666666666</ele><time>2026-05-02T12:09:24.708Z</time></trkpt><trkpt lat="39.9241091" lon="16.0388772"><ele>763.3333333333334</ele><time>2026-05-02T12:09:25.713Z</time></trkpt><trkpt lat="39.9239999" lon="16.0387141"><ele>766.0</ele><time>2026-05-02T12:09:26.718Z</time></trkpt><trkpt lat="39.9239005" lon="16.0385551"><ele>766.0</ele><time>2026-05-02T12:09:27.714Z</time></trkpt><trkpt lat="39.9238131" lon="16.0383802"><ele>766.0</ele><time>2026-05-02T12:09:28.72Z</time></trkpt><trkpt lat="39.9237533" lon="16.038182"><ele>766.0</ele><time>2026-05-02T12:09:29.707Z</time></trkpt><trkpt lat="39.923716" lon="16.037981"><ele>763.5</ele><time>2026-05-02T12:09:30.719Z</time></trkpt><trkpt lat="39.9236969" lon="16.0378067"><ele>761.0</ele><time>2026-05-02T12:09:31.723Z</time></trkpt><trkpt lat="39.9236825" lon="16.0376678"><ele>758.5</ele><time>2026-05-02T12:09:32.72Z</time></trkpt><trkpt lat="39.9236507" lon="16.0375273"><ele>756.0</ele><time>2026-05-02T12:09:33.711Z</time></trkpt><trkpt lat="39.9235886" lon="16.0373842"><ele>758.0</ele><time>2026-05-02T12:09:34.707Z</time></trkpt><trkpt lat="39.9234974" lon="16.0372427"><ele>760.0</ele><time>2026-05-02T12:09:35.708Z</time></trkpt><trkpt lat="39.9233883" lon="16.0370974"><ele>762.0</ele><time>2026-05-02T12:09:36.712Z</time></trkpt><trkpt lat="39.9232719" lon="16.0369451"><ele>762.0</ele><time>2026-05-02T12:09:37.718Z</time></trkpt><trkpt lat="39.9231559" lon="16.0367993"><ele>762.0</ele><time>2026-05-02T12:09:38.712Z</time></trkpt><trkpt lat="39.9230265" lon="16.0366798"><ele>762.0</ele><time>2026-05-02T12:09:39.74Z</time></trkpt><trkpt lat="39.9228721" lon="16.0365851"><ele>760.3333333333334</ele><time>2026-05-02T12:09:40.713Z</time></trkpt><trkpt lat="39.9227086" lon="16.0365007"><ele>758.6666666666667</ele><time>2026-05-02T12:09:41.706Z</time></trkpt><trkpt lat="39.9225354" lon="16.0364309"><ele>757.0</ele><time>2026-05-02T12:09:42.711Z</time></trkpt><trkpt lat="39.9223705" lon="16.0363752"><ele>757.0</ele><time>2026-05-02T12:09:43.714Z</time></trkpt><trkpt lat="39.9222354" lon="16.0363281"><ele>757.0</ele><time>2026-05-02T12:09:44.712Z</time></trkpt><trkpt lat="39.9221252" lon="16.0362717"><ele>757.0</ele><time>2026-05-02T12:09:45.724Z</time></trkpt><trkpt lat="39.9220319" lon="16.0361789"><ele>757.0</ele><time>2026-05-02T12:09:46.72Z</time></trkpt><trkpt lat="39.9219569" lon="16.0360689"><ele>757.0</ele><time>2026-05-02T12:09:47.71Z</time></trkpt><trkpt lat="39.9218912" lon="16.0359198"><ele>757.0</ele><time>2026-05-02T12:09:48.703Z</time></trkpt><trkpt lat="39.921849" lon="16.0357462"><ele>757.0</ele><time>2026-05-02T12:09:49.711Z</time></trkpt><trkpt lat="39.9218051" lon="16.0355685"><ele>757.0</ele><time>2026-05-02T12:09:50.713Z</time></trkpt><trkpt lat="39.9217474" lon="16.035405"><ele>758.75</ele><time>2026-05-02T12:09:51.722Z</time></trkpt><trkpt lat="39.9216703" lon="16.035267"><ele>760.5</ele><time>2026-05-02T12:09:52.716Z</time></trkpt><trkpt lat="39.9215658" lon="16.0351593"><ele>762.25</ele><time>2026-05-02T12:09:53.707Z</time></trkpt><trkpt lat="39.9214323" lon="16.0350749"><ele>764.0</ele><time>2026-05-02T12:09:54.709Z</time></trkpt><trkpt lat="39.9212895" lon="16.0350046"><ele>766.0</ele><time>2026-05-02T12:09:55.707Z</time></trkpt><trkpt lat="39.9211306" lon="16.034959"><ele>768.0</ele><time>2026-05-02T12:09:56.719Z</time></trkpt><trkpt lat="39.920971" lon="16.0349273"><ele>770.0</ele><time>2026-05-02T12:09:57.706Z</time></trkpt><trkpt lat="39.9208119" lon="16.0348994"><ele>770.0</ele><time>2026-05-02T12:09:58.713Z</time></trkpt><trkpt lat="39.9206623" lon="16.0348833"><ele>770.0</ele><time>2026-05-02T12:09:59.709Z</time></trkpt><trkpt lat="39.9205269" lon="16.0348522"><ele>770.0</ele><time>2026-05-02T12:10:00.716Z</time></trkpt><trkpt lat="39.9203933" lon="16.0347995"><ele>770.0</ele><time>2026-05-02T12:10:01.724Z</time></trkpt><trkpt lat="39.9202604" lon="16.0347256"><ele>770.0</ele><time>2026-05-02T12:10:02.714Z</time></trkpt><trkpt lat="39.9201436" lon="16.0346237"><ele>770.0</ele><time>2026-05-02T12:10:03.717Z</time></trkpt><trkpt lat="39.9200385" lon="16.0345288"><ele>770.0</ele><time>2026-05-02T12:10:04.711Z</time></trkpt><trkpt lat="39.9199309" lon="16.0344624"><ele>770.0</ele><time>2026-05-02T12:10:05.716Z</time></trkpt><trkpt lat="39.919826" lon="16.0344037"><ele>773.2</ele><time>2026-05-02T12:10:06.712Z</time></trkpt><trkpt lat="39.9197518" lon="16.0343371"><ele>776.4</ele><time>2026-05-02T12:10:07.704Z</time></trkpt><trkpt lat="39.9197307" lon="16.0342499"><ele>779.5999999999999</ele><time>2026-05-02T12:10:08.711Z</time></trkpt><trkpt lat="39.9197431" lon="16.0341364"><ele>782.8</ele><time>2026-05-02T12:10:09.711Z</time></trkpt><trkpt lat="39.9197433" lon="16.0340064"><ele>786.0</ele><time>2026-05-02T12:10:10.716Z</time></trkpt><trkpt lat="39.9197217" lon="16.0338705"><ele>788.75</ele><time>2026-05-02T12:10:11.705Z</time></trkpt><trkpt lat="39.9196628" lon="16.0337428"><ele>791.5</ele><time>2026-05-02T12:10:12.721Z</time></trkpt><trkpt lat="39.9195732" lon="16.0336199"><ele>794.25</ele><time>2026-05-02T12:10:13.705Z</time></trkpt><trkpt lat="39.9194815" lon="16.0335265"><ele>797.0</ele><time>2026-05-02T12:10:14.709Z</time></trkpt><trkpt lat="39.9193779" lon="16.0334852"><ele>797.0</ele><time>2026-05-02T12:10:15.712Z</time></trkpt><trkpt lat="39.919264" lon="16.0334891"><ele>797.0</ele><time>2026-05-02T12:10:16.709Z</time></trkpt><trkpt lat="39.9191405" lon="16.033523"><ele>797.0</ele><time>2026-05-02T12:10:17.712Z</time></trkpt><trkpt lat="39.9190168" lon="16.0335842"><ele>797.0</ele><time>2026-05-02T12:10:18.706Z</time></trkpt><trkpt lat="39.9188918" lon="16.0336625"><ele>798.0</ele><time>2026-05-02T12:10:19.709Z</time></trkpt><trkpt lat="39.9187861" lon="16.0337162"><ele>799.0</ele><time>2026-05-02T12:10:20.709Z</time></trkpt><trkpt lat="39.9187029" lon="16.0337584"><ele>800.0</ele><time>2026-05-02T12:10:21.72Z</time></trkpt><trkpt lat="39.9186343" lon="16.0337587"><ele>801.0</ele><time>2026-05-02T12:10:22.708Z</time></trkpt><trkpt lat="39.9185743" lon="16.0337275"><ele>802.0</ele><time>2026-05-02T12:10:23.725Z</time></trkpt><trkpt lat="39.9185499" lon="16.0335691"><ele>802.0</ele><time>2026-05-02T12:10:25.711Z</time></trkpt><trkpt lat="39.9186006" lon="16.0334831"><ele>802.0</ele><time>2026-05-02T12:10:26.71Z</time></trkpt><trkpt lat="39.9186787" lon="16.033448"><ele>802.0</ele><time>2026-05-02T12:10:27.72Z</time></trkpt><trkpt lat="39.9187733" lon="16.0334284"><ele>802.0</ele><time>2026-05-02T12:10:28.708Z</time></trkpt><trkpt lat="39.9188806" lon="16.033387"><ele>802.0</ele><time>2026-05-02T12:10:29.718Z</time></trkpt><trkpt lat="39.9189771" lon="16.0333122"><ele>804.8</ele><time>2026-05-02T12:10:30.715Z</time></trkpt><trkpt lat="39.9190558" lon="16.0332098"><ele>807.6</ele><time>2026-05-02T12:10:31.715Z</time></trkpt><trkpt lat="39.9190892" lon="16.0330741"><ele>810.4</ele><time>2026-05-02T12:10:32.717Z</time></trkpt><trkpt lat="39.919084" lon="16.0329197"><ele>813.1999999999999</ele><time>2026-05-02T12:10:33.715Z</time></trkpt><trkpt lat="39.9190571" lon="16.0327856"><ele>816.0</ele><time>2026-05-02T12:10:34.709Z</time></trkpt><trkpt lat="39.9190039" lon="16.0326927"><ele>816.0</ele><time>2026-05-02T12:10:35.705Z</time></trkpt><trkpt lat="39.9189291" lon="16.0326302"><ele>816.0</ele><time>2026-05-02T12:10:36.715Z</time></trkpt><trkpt lat="39.9188363" lon="16.0326163"><ele>816.0</ele><time>2026-05-02T12:10:37.707Z</time></trkpt><trkpt lat="39.9187359" lon="16.0326647"><ele>816.0</ele><time>2026-05-02T12:10:38.722Z</time></trkpt><trkpt lat="39.9186315" lon="16.0327437"><ele>816.0</ele><time>2026-05-02T12:10:39.718Z</time></trkpt><trkpt lat="39.9185195" lon="16.032848"><ele>816.0</ele><time>2026-05-02T12:10:40.704Z</time></trkpt><trkpt lat="39.9184093" lon="16.0329439"><ele>816.0</ele><time>2026-05-02T12:10:41.706Z</time></trkpt><trkpt lat="39.9182951" lon="16.033045"><ele>816.0</ele><time>2026-05-02T12:10:42.719Z</time></trkpt><trkpt lat="39.918181" lon="16.0331512"><ele>816.0</ele><time>2026-05-02T12:10:43.721Z</time></trkpt><trkpt lat="39.9180607" lon="16.033269"><ele>816.6666666666667</ele><time>2026-05-02T12:10:44.695Z</time></trkpt><trkpt lat="39.9179412" lon="16.0334046"><ele>817.3333333333334</ele><time>2026-05-02T12:10:45.705Z</time></trkpt><trkpt lat="39.9178231" lon="16.0335447"><ele>818.0</ele><time>2026-05-02T12:10:46.706Z</time></trkpt><trkpt lat="39.9177095" lon="16.0336865"><ele>818.0</ele><time>2026-05-02T12:10:47.713Z</time></trkpt><trkpt lat="39.917598" lon="16.0338342"><ele>818.0</ele><time>2026-05-02T12:10:48.702Z</time></trkpt><trkpt lat="39.9174889" lon="16.0339872"><ele>818.0</ele><time>2026-05-02T12:10:49.7Z</time></trkpt><trkpt lat="39.9173749" lon="16.0341463"><ele>824.0</ele><time>2026-05-02T12:10:50.713Z</time></trkpt><trkpt lat="39.9172625" lon="16.0343049"><ele>830.0</ele><time>2026-05-02T12:10:51.709Z</time></trkpt><trkpt lat="39.9171552" lon="16.0344668"><ele>836.0</ele><time>2026-05-02T12:10:52.694Z</time></trkpt><trkpt lat="39.9170605" lon="16.0346492"><ele>836.0</ele><time>2026-05-02T12:10:53.712Z</time></trkpt><trkpt lat="39.9169736" lon="16.0348531"><ele>836.0</ele><time>2026-05-02T12:10:54.719Z</time></trkpt><trkpt lat="39.9168835" lon="16.0350625"><ele>836.0</ele><time>2026-05-02T12:10:55.718Z</time></trkpt><trkpt lat="39.9167931" lon="16.0352693"><ele>840.3333333333334</ele><time>2026-05-02T12:10:56.723Z</time></trkpt><trkpt lat="39.9167007" lon="16.0354778"><ele>844.6666666666667</ele><time>2026-05-02T12:10:57.718Z</time></trkpt><trkpt lat="39.916608" lon="16.0356912"><ele>849.0</ele><time>2026-05-02T12:10:58.704Z</time></trkpt><trkpt lat="39.9165189" lon="16.0359054"><ele>849.0</ele><time>2026-05-02T12:10:59.741Z</time></trkpt><trkpt lat="39.9164285" lon="16.0361199"><ele>849.0</ele><time>2026-05-02T12:11:00.721Z</time></trkpt><trkpt lat="39.9163403" lon="16.0363291"><ele>849.0</ele><time>2026-05-02T12:11:01.725Z</time></trkpt><trkpt lat="39.9162559" lon="16.0365347"><ele>846.6666666666667</ele><time>2026-05-02T12:11:02.717Z</time></trkpt><trkpt lat="39.9161637" lon="16.0367337"><ele>844.3333333333334</ele><time>2026-05-02T12:11:03.716Z</time></trkpt><trkpt lat="39.9160805" lon="16.036923"><ele>842.0</ele><time>2026-05-02T12:11:04.712Z</time></trkpt><trkpt lat="39.9160041" lon="16.0371062"><ele>842.0</ele><time>2026-05-02T12:11:05.724Z</time></trkpt><trkpt lat="39.9159317" lon="16.0372929"><ele>842.0</ele><time>2026-05-02T12:11:06.711Z</time></trkpt><trkpt lat="39.915848" lon="16.0374774"><ele>842.0</ele><time>2026-05-02T12:11:07.714Z</time></trkpt><trkpt lat="39.9157615" lon="16.0376541"><ele>847.5</ele><time>2026-05-02T12:11:08.714Z</time></trkpt><trkpt lat="39.9156794" lon="16.0378162"><ele>853.0</ele><time>2026-05-02T12:11:09.702Z</time></trkpt><trkpt lat="39.9155963" lon="16.0379536"><ele>858.5</ele><time>2026-05-02T12:11:10.714Z</time></trkpt><trkpt lat="39.9155112" lon="16.0380862"><ele>864.0</ele><time>2026-05-02T12:11:11.716Z</time></trkpt><trkpt lat="39.9154079" lon="16.0382007"><ele>864.0</ele><time>2026-05-02T12:11:12.713Z</time></trkpt><trkpt lat="39.9152858" lon="16.0382963"><ele>864.0</ele><time>2026-05-02T12:11:13.706Z</time></trkpt><trkpt lat="39.9151518" lon="16.0383903"><ele>864.0</ele><time>2026-05-02T12:11:14.713Z</time></trkpt><trkpt lat="39.9150191" lon="16.0385001"><ele>869.6666666666667</ele><time>2026-05-02T12:11:15.712Z</time></trkpt><trkpt lat="39.9148769" lon="16.0386108"><ele>875.3333333333334</ele><time>2026-05-02T12:11:16.708Z</time></trkpt><trkpt lat="39.9147239" lon="16.0387171"><ele>881.0</ele><time>2026-05-02T12:11:17.703Z</time></trkpt><trkpt lat="39.9145659" lon="16.0388197"><ele>881.0</ele><time>2026-05-02T12:11:18.712Z</time></trkpt><trkpt lat="39.9144126" lon="16.0389207"><ele>881.0</ele><time>2026-05-02T12:11:19.711Z</time></trkpt><trkpt lat="39.9142748" lon="16.0390094"><ele>881.0</ele><time>2026-05-02T12:11:20.706Z</time></trkpt><trkpt lat="39.9141527" lon="16.0390999"><ele>883.6666666666667</ele><time>2026-05-02T12:11:21.703Z</time></trkpt><trkpt lat="39.9140434" lon="16.0392207"><ele>886.3333333333333</ele><time>2026-05-02T12:11:22.703Z</time></trkpt><trkpt lat="39.9139547" lon="16.039376"><ele>889.0</ele><time>2026-05-02T12:11:23.704Z</time></trkpt><trkpt lat="39.9138669" lon="16.0395497"><ele>889.0</ele><time>2026-05-02T12:11:24.706Z</time></trkpt><trkpt lat="39.9137752" lon="16.0397283"><ele>889.0</ele><time>2026-05-02T12:11:25.717Z</time></trkpt><trkpt lat="39.9136777" lon="16.0399173"><ele>889.0</ele><time>2026-05-02T12:11:26.71Z</time></trkpt><trkpt lat="39.9135714" lon="16.0400999"><ele>890.5</ele><time>2026-05-02T12:11:27.711Z</time></trkpt><trkpt lat="39.9134614" lon="16.0402611"><ele>892.0</ele><time>2026-05-02T12:11:28.714Z</time></trkpt><trkpt lat="39.9133637" lon="16.0403869"><ele>893.5</ele><time>2026-05-02T12:11:29.712Z</time></trkpt><trkpt lat="39.913273" lon="16.0404957"><ele>895.0</ele><time>2026-05-02T12:11:30.71Z</time></trkpt><trkpt lat="39.9131677" lon="16.0405828"><ele>897.0</ele><time>2026-05-02T12:11:31.707Z</time></trkpt><trkpt lat="39.913042" lon="16.0406469"><ele>899.0</ele><time>2026-05-02T12:11:32.705Z</time></trkpt><trkpt lat="39.9129009" lon="16.0406956"><ele>901.0</ele><time>2026-05-02T12:11:33.711Z</time></trkpt><trkpt lat="39.9127464" lon="16.0407519"><ele>903.0</ele><time>2026-05-02T12:11:34.7Z</time></trkpt><trkpt lat="39.9125908" lon="16.0408058"><ele>904.25</ele><time>2026-05-02T12:11:35.711Z</time></trkpt><trkpt lat="39.912449" lon="16.0408506"><ele>905.5</ele><time>2026-05-02T12:11:36.712Z</time></trkpt><trkpt lat="39.912317" lon="16.0409128"><ele>906.75</ele><time>2026-05-02T12:11:37.706Z</time></trkpt><trkpt lat="39.9121878" lon="16.0410105"><ele>908.0</ele><time>2026-05-02T12:11:38.711Z</time></trkpt><trkpt lat="39.9120653" lon="16.0411353"><ele>908.0</ele><time>2026-05-02T12:11:39.715Z</time></trkpt><trkpt lat="39.911944" lon="16.0412817"><ele>908.0</ele><time>2026-05-02T12:11:40.718Z</time></trkpt><trkpt lat="39.9118186" lon="16.041434"><ele>908.0</ele><time>2026-05-02T12:11:41.709Z</time></trkpt><trkpt lat="39.9116889" lon="16.0415792"><ele>911.3333333333334</ele><time>2026-05-02T12:11:42.708Z</time></trkpt><trkpt lat="39.9115537" lon="16.0417232"><ele>914.6666666666667</ele><time>2026-05-02T12:11:43.714Z</time></trkpt><trkpt lat="39.9114214" lon="16.041872"><ele>918.0</ele><time>2026-05-02T12:11:44.708Z</time></trkpt><trkpt lat="39.911287" lon="16.0420026"><ele>918.0</ele><time>2026-05-02T12:11:45.71Z</time></trkpt><trkpt lat="39.9111602" lon="16.0421199"><ele>918.0</ele><time>2026-05-02T12:11:46.732Z</time></trkpt><trkpt lat="39.9110346" lon="16.0422482"><ele>918.0</ele><time>2026-05-02T12:11:47.713Z</time></trkpt><trkpt lat="39.910937" lon="16.0424161"><ele>922.0</ele><time>2026-05-02T12:11:48.706Z</time></trkpt><trkpt lat="39.9108439" lon="16.0426034"><ele>926.0</ele><time>2026-05-02T12:11:49.724Z</time></trkpt><trkpt lat="39.9107532" lon="16.0427835"><ele>930.0</ele><time>2026-05-02T12:11:50.704Z</time></trkpt><trkpt lat="39.9106711" lon="16.0429346"><ele>930.0</ele><time>2026-05-02T12:11:51.716Z</time></trkpt><trkpt lat="39.9105852" lon="16.0430663"><ele>930.0</ele><time>2026-05-02T12:11:52.712Z</time></trkpt><trkpt lat="39.9104819" lon="16.043177"><ele>930.0</ele><time>2026-05-02T12:11:53.719Z</time></trkpt><trkpt lat="39.9103825" lon="16.0432621"><ele>930.0</ele><time>2026-05-02T12:11:54.713Z</time></trkpt><trkpt lat="39.910293" lon="16.0433101"><ele>930.0</ele><time>2026-05-02T12:11:55.717Z</time></trkpt><trkpt lat="39.9102207" lon="16.04333"><ele>930.0</ele><time>2026-05-02T12:11:56.705Z</time></trkpt><trkpt lat="39.9101582" lon="16.0433089"><ele>930.0</ele><time>2026-05-02T12:11:57.719Z</time></trkpt><trkpt lat="39.9101106" lon="16.0431819"><ele>930.0</ele><time>2026-05-02T12:11:59.713Z</time></trkpt><trkpt lat="39.9101345" lon="16.0430948"><ele>930.0</ele><time>2026-05-02T12:12:00.707Z</time></trkpt><trkpt lat="39.9101779" lon="16.0430084"><ele>930.0</ele><time>2026-05-02T12:12:01.711Z</time></trkpt><trkpt lat="39.9102465" lon="16.0429209"><ele>930.0</ele><time>2026-05-02T12:12:02.687Z</time></trkpt><trkpt lat="39.9103058" lon="16.0428068"><ele>930.0</ele><time>2026-05-02T12:12:03.709Z</time></trkpt><trkpt lat="39.9103294" lon="16.0426211"><ele>930.0</ele><time>2026-05-02T12:12:04.708Z</time></trkpt><trkpt lat="39.9103574" lon="16.0424273"><ele>930.0</ele><time>2026-05-02T12:12:05.706Z</time></trkpt><trkpt lat="39.9104171" lon="16.0422673"><ele>932.3333333333334</ele><time>2026-05-02T12:12:06.712Z</time></trkpt><trkpt lat="39.9104901" lon="16.0421508"><ele>934.6666666666667</ele><time>2026-05-02T12:12:07.711Z</time></trkpt><trkpt lat="39.910552" lon="16.0420619"><ele>937.0</ele><time>2026-05-02T12:12:08.697Z</time></trkpt><trkpt lat="39.9105889" lon="16.0419785"><ele>939.3333333333334</ele><time>2026-05-02T12:12:09.724Z</time></trkpt><trkpt lat="39.9105923" lon="16.0418939"><ele>941.6666666666667</ele><time>2026-05-02T12:12:10.709Z</time></trkpt><trkpt lat="39.9105523" lon="16.0418141"><ele>944.0</ele><time>2026-05-02T12:12:11.709Z</time></trkpt><trkpt lat="39.9104372" lon="16.0418018"><ele>944.0</ele><time>2026-05-02T12:12:13.694Z</time></trkpt><trkpt lat="39.9103719" lon="16.0418854"><ele>944.0</ele><time>2026-05-02T12:12:14.713Z</time></trkpt><trkpt lat="39.9103001" lon="16.0419922"><ele>944.0</ele><time>2026-05-02T12:12:15.707Z</time></trkpt><trkpt lat="39.9102131" lon="16.0421163"><ele>944.0</ele><time>2026-05-02T12:12:16.718Z</time></trkpt><trkpt lat="39.9101295" lon="16.0422455"><ele>946.0</ele><time>2026-05-02T12:12:17.706Z</time></trkpt><trkpt lat="39.9100488" lon="16.0423935"><ele>948.0</ele><time>2026-05-02T12:12:18.704Z</time></trkpt><trkpt lat="39.9099784" lon="16.0425401"><ele>950.0</ele><time>2026-05-02T12:12:19.701Z</time></trkpt><trkpt lat="39.9099268" lon="16.0426775"><ele>952.0</ele><time>2026-05-02T12:12:20.726Z</time></trkpt><trkpt lat="39.909872" lon="16.0427939"><ele>952.0</ele><time>2026-05-02T12:12:21.718Z</time></trkpt><trkpt lat="39.909799" lon="16.0428927"><ele>952.0</ele><time>2026-05-02T12:12:22.709Z</time></trkpt><trkpt lat="39.9096977" lon="16.042963"><ele>952.0</ele><time>2026-05-02T12:12:23.719Z</time></trkpt><trkpt lat="39.9095717" lon="16.0429961"><ele>952.0</ele><time>2026-05-02T12:12:24.699Z</time></trkpt><trkpt lat="39.9094255" lon="16.0430114"><ele>952.0</ele><time>2026-05-02T12:12:25.716Z</time></trkpt><trkpt lat="39.9092698" lon="16.0430244"><ele>952.0</ele><time>2026-05-02T12:12:26.711Z</time></trkpt><trkpt lat="39.909105" lon="16.0430355"><ele>952.0</ele><time>2026-05-02T12:12:27.708Z</time></trkpt><trkpt lat="39.9089434" lon="16.0430281"><ele>955.25</ele><time>2026-05-02T12:12:28.721Z</time></trkpt><trkpt lat="39.9087936" lon="16.0429981"><ele>958.5</ele><time>2026-05-02T12:12:29.705Z</time></trkpt><trkpt lat="39.9086573" lon="16.0429502"><ele>961.75</ele><time>2026-05-02T12:12:30.699Z</time></trkpt><trkpt lat="39.9085188" lon="16.0428792"><ele>965.0</ele><time>2026-05-02T12:12:31.722Z</time></trkpt><trkpt lat="39.9083843" lon="16.0427821"><ele>966.5</ele><time>2026-05-02T12:12:32.704Z</time></trkpt><trkpt lat="39.9082481" lon="16.0426765"><ele>968.0</ele><time>2026-05-02T12:12:33.717Z</time></trkpt><trkpt lat="39.908113" lon="16.0425944"><ele>969.5</ele><time>2026-05-02T12:12:34.707Z</time></trkpt><trkpt lat="39.907982" lon="16.0425468"><ele>971.0</ele><time>2026-05-02T12:12:35.706Z</time></trkpt><trkpt lat="39.9078461" lon="16.0425467"><ele>971.0</ele><time>2026-05-02T12:12:36.707Z</time></trkpt><trkpt lat="39.9077035" lon="16.0425874"><ele>971.0</ele><time>2026-05-02T12:12:37.705Z</time></trkpt><trkpt lat="39.9075578" lon="16.0426526"><ele>971.0</ele><time>2026-05-02T12:12:38.707Z</time></trkpt><trkpt lat="39.9074009" lon="16.0427203"><ele>977.6666666666667</ele><time>2026-05-02T12:12:39.696Z</time></trkpt><trkpt lat="39.9072365" lon="16.0427831"><ele>984.3333333333333</ele><time>2026-05-02T12:12:40.702Z</time></trkpt><trkpt lat="39.9070634" lon="16.0428569"><ele>991.0</ele><time>2026-05-02T12:12:41.71Z</time></trkpt><trkpt lat="39.9068926" lon="16.0429497"><ele>999.6666666666666</ele><time>2026-05-02T12:12:42.714Z</time></trkpt><trkpt lat="39.9067157" lon="16.0430524"><ele>1008.3333333333333</ele><time>2026-05-02T12:12:43.711Z</time></trkpt><trkpt lat="39.9065357" lon="16.043155"><ele>1017.0</ele><time>2026-05-02T12:12:44.706Z</time></trkpt><trkpt lat="39.9063471" lon="16.0432451"><ele>1010.0</ele><time>2026-05-02T12:12:45.714Z</time></trkpt><trkpt lat="39.9061526" lon="16.0433248"><ele>1003.0</ele><time>2026-05-02T12:12:46.703Z</time></trkpt><trkpt lat="39.9059754" lon="16.0433984"><ele>996.0</ele><time>2026-05-02T12:12:47.704Z</time></trkpt><trkpt lat="39.9058151" lon="16.0434604"><ele>996.0</ele><time>2026-05-02T12:12:48.704Z</time></trkpt><trkpt lat="39.9056699" lon="16.043507"><ele>996.0</ele><time>2026-05-02T12:12:49.702Z</time></trkpt><trkpt lat="39.9055236" lon="16.0435387"><ele>996.0</ele><time>2026-05-02T12:12:50.713Z</time></trkpt><trkpt lat="39.9053674" lon="16.043545"><ele>996.0</ele><time>2026-05-02T12:12:51.707Z</time></trkpt><trkpt lat="39.9052031" lon="16.0435521"><ele>996.0</ele><time>2026-05-02T12:12:52.704Z</time></trkpt><trkpt lat="39.9050462" lon="16.0435608"><ele>996.0</ele><time>2026-05-02T12:12:53.709Z</time></trkpt><trkpt lat="39.9049103" lon="16.0435879"><ele>997.0</ele><time>2026-05-02T12:12:54.705Z</time></trkpt><trkpt lat="39.904788" lon="16.0436485"><ele>998.0</ele><time>2026-05-02T12:12:55.711Z</time></trkpt><trkpt lat="39.9046593" lon="16.0437335"><ele>999.0</ele><time>2026-05-02T12:12:56.702Z</time></trkpt><trkpt lat="39.9045357" lon="16.0438022"><ele>1000.0</ele><time>2026-05-02T12:12:57.712Z</time></trkpt><trkpt lat="39.9044097" lon="16.0438325"><ele>1000.0</ele><time>2026-05-02T12:12:58.698Z</time></trkpt><trkpt lat="39.904269" lon="16.0438351"><ele>1000.0</ele><time>2026-05-02T12:12:59.699Z</time></trkpt><trkpt lat="39.9041172" lon="16.0438219"><ele>1000.0</ele><time>2026-05-02T12:13:00.701Z</time></trkpt><trkpt lat="39.9039586" lon="16.0438027"><ele>1001.6666666666666</ele><time>2026-05-02T12:13:01.709Z</time></trkpt><trkpt lat="39.9037983" lon="16.0437787"><ele>1003.3333333333333</ele><time>2026-05-02T12:13:02.705Z</time></trkpt><trkpt lat="39.9036384" lon="16.0437421"><ele>1005.0</ele><time>2026-05-02T12:13:03.711Z</time></trkpt><trkpt lat="39.9034748" lon="16.0436891"><ele>1007.3333333333333</ele><time>2026-05-02T12:13:04.698Z</time></trkpt><trkpt lat="39.903314" lon="16.0436443"><ele>1009.6666666666666</ele><time>2026-05-02T12:13:05.707Z</time></trkpt><trkpt lat="39.9031454" lon="16.0436211"><ele>1012.0</ele><time>2026-05-02T12:13:06.712Z</time></trkpt><trkpt lat="39.9029716" lon="16.0436188"><ele>1012.0</ele><time>2026-05-02T12:13:07.714Z</time></trkpt><trkpt lat="39.9028066" lon="16.0436194"><ele>1012.0</ele><time>2026-05-02T12:13:08.709Z</time></trkpt><trkpt lat="39.9026636" lon="16.0436243"><ele>1012.0</ele><time>2026-05-02T12:13:09.7Z</time></trkpt><trkpt lat="39.9025354" lon="16.0436577"><ele>1012.0</ele><time>2026-05-02T12:13:10.711Z</time></trkpt><trkpt lat="39.9024009" lon="16.0437339"><ele>1017.3333333333333</ele><time>2026-05-02T12:13:11.699Z</time></trkpt><trkpt lat="39.9022736" lon="16.043844"><ele>1022.6666666666667</ele><time>2026-05-02T12:13:12.713Z</time></trkpt><trkpt lat="39.9021459" lon="16.0439756"><ele>1028.0</ele><time>2026-05-02T12:13:13.713Z</time></trkpt><trkpt lat="39.902013" lon="16.044105"><ele>1028.3333333333335</ele><time>2026-05-02T12:13:14.715Z</time></trkpt><trkpt lat="39.9018729" lon="16.0442372"><ele>1028.6666666666667</ele><time>2026-05-02T12:13:15.712Z</time></trkpt><trkpt lat="39.9017372" lon="16.0443693"><ele>1029.0</ele><time>2026-05-02T12:13:16.715Z</time></trkpt><trkpt lat="39.9015981" lon="16.0445123"><ele>1029.0</ele><time>2026-05-02T12:13:17.71Z</time></trkpt><trkpt lat="39.9014561" lon="16.0446429"><ele>1029.0</ele><time>2026-05-02T12:13:18.714Z</time></trkpt><trkpt lat="39.9013072" lon="16.0447462"><ele>1029.0</ele><time>2026-05-02T12:13:19.718Z</time></trkpt><trkpt lat="39.9011417" lon="16.0448197"><ele>1029.0</ele><time>2026-05-02T12:13:20.691Z</time></trkpt><trkpt lat="39.9009652" lon="16.0448829"><ele>1029.0</ele><time>2026-05-02T12:13:21.715Z</time></trkpt><trkpt lat="39.9007841" lon="16.0449414"><ele>1029.0</ele><time>2026-05-02T12:13:22.71Z</time></trkpt><trkpt lat="39.9006034" lon="16.0450188"><ele>1030.6666666666667</ele><time>2026-05-02T12:13:23.708Z</time></trkpt><trkpt lat="39.9004359" lon="16.0450938"><ele>1032.3333333333335</ele><time>2026-05-02T12:13:24.708Z</time></trkpt><trkpt lat="39.9002757" lon="16.0451586"><ele>1034.0</ele><time>2026-05-02T12:13:25.729Z</time></trkpt><trkpt lat="39.9001091" lon="16.0452038"><ele>1038.0</ele><time>2026-05-02T12:13:26.712Z</time></trkpt><trkpt lat="39.8999283" lon="16.0452254"><ele>1042.0</ele><time>2026-05-02T12:13:27.714Z</time></trkpt><trkpt lat="39.8997475" lon="16.0452292"><ele>1046.0</ele><time>2026-05-02T12:13:28.719Z</time></trkpt><trkpt lat="39.8995669" lon="16.045222"><ele>1046.0</ele><time>2026-05-02T12:13:29.713Z</time></trkpt><trkpt lat="39.8994007" lon="16.0452201"><ele>1046.0</ele><time>2026-05-02T12:13:30.706Z</time></trkpt><trkpt lat="39.8992387" lon="16.0452568"><ele>1046.0</ele><time>2026-05-02T12:13:31.713Z</time></trkpt><trkpt lat="39.8990929" lon="16.0453061"><ele>1050.3333333333335</ele><time>2026-05-02T12:13:32.706Z</time></trkpt><trkpt lat="39.8989623" lon="16.0453736"><ele>1054.6666666666667</ele><time>2026-05-02T12:13:33.711Z</time></trkpt><trkpt lat="39.8988296" lon="16.045462"><ele>1059.0</ele><time>2026-05-02T12:13:34.713Z</time></trkpt><trkpt lat="39.8986867" lon="16.0455638"><ele>1059.0</ele><time>2026-05-02T12:13:35.708Z</time></trkpt><trkpt lat="39.8985477" lon="16.0456854"><ele>1059.0</ele><time>2026-05-02T12:13:36.717Z</time></trkpt><trkpt lat="39.8984126" lon="16.0458109"><ele>1059.0</ele><time>2026-05-02T12:13:37.71Z</time></trkpt><trkpt lat="39.8982897" lon="16.0459265"><ele>1059.5</ele><time>2026-05-02T12:13:38.702Z</time></trkpt><trkpt lat="39.8981656" lon="16.0460243"><ele>1060.0</ele><time>2026-05-02T12:13:39.706Z</time></trkpt><trkpt lat="39.8980399" lon="16.0461079"><ele>1060.5</ele><time>2026-05-02T12:13:40.709Z</time></trkpt><trkpt lat="39.8979114" lon="16.0461869"><ele>1061.0</ele><time>2026-05-02T12:13:41.707Z</time></trkpt><trkpt lat="39.8977884" lon="16.0463063"><ele>1061.0</ele><time>2026-05-02T12:13:42.697Z</time></trkpt><trkpt lat="39.8976674" lon="16.0464531"><ele>1061.0</ele><time>2026-05-02T12:13:43.7Z</time></trkpt><trkpt lat="39.8975533" lon="16.0466208"><ele>1061.0</ele><time>2026-05-02T12:13:44.702Z</time></trkpt><trkpt lat="39.8974287" lon="16.0467847"><ele>1062.6666666666667</ele><time>2026-05-02T12:13:45.706Z</time></trkpt><trkpt lat="39.8973029" lon="16.0469329"><ele>1064.3333333333333</ele><time>2026-05-02T12:13:46.703Z</time></trkpt><trkpt lat="39.8971778" lon="16.0470555"><ele>1066.0</ele><time>2026-05-02T12:13:47.714Z</time></trkpt><trkpt lat="39.897083" lon="16.0471634"><ele>1066.0</ele><time>2026-05-02T12:13:48.707Z</time></trkpt><trkpt lat="39.8970054" lon="16.0472571"><ele>1066.0</ele><time>2026-05-02T12:13:49.712Z</time></trkpt><trkpt lat="39.8969497" lon="16.0473674"><ele>1066.0</ele><time>2026-05-02T12:13:50.704Z</time></trkpt><trkpt lat="39.8969339" lon="16.0474725"><ele>1066.0</ele><time>2026-05-02T12:13:51.698Z</time></trkpt><trkpt lat="39.8969602" lon="16.0475788"><ele>1066.0</ele><time>2026-05-02T12:13:52.699Z</time></trkpt><trkpt lat="39.8970246" lon="16.0476645"><ele>1066.0</ele><time>2026-05-02T12:13:53.711Z</time></trkpt><trkpt lat="39.8971186" lon="16.0477021"><ele>1066.0</ele><time>2026-05-02T12:13:54.702Z</time></trkpt><trkpt lat="39.8972236" lon="16.0476958"><ele>1066.0</ele><time>2026-05-02T12:13:55.709Z</time></trkpt><trkpt lat="39.8973492" lon="16.0476364"><ele>1066.0</ele><time>2026-05-02T12:13:56.707Z</time></trkpt><trkpt lat="39.8974883" lon="16.0475861"><ele>1068.6</ele><time>2026-05-02T12:13:57.695Z</time></trkpt><trkpt lat="39.8976226" lon="16.0475388"><ele>1071.1999999999998</ele><time>2026-05-02T12:13:58.698Z</time></trkpt><trkpt lat="39.8977292" lon="16.0475093"><ele>1073.8000000000002</ele><time>2026-05-02T12:13:59.704Z</time></trkpt><trkpt lat="39.8978275" lon="16.047481"><ele>1076.4</ele><time>2026-05-02T12:14:01.713Z</time></trkpt><trkpt lat="39.897887" lon="16.0475588"><ele>1079.0</ele><time>2026-05-02T12:14:03.711Z</time></trkpt><trkpt lat="39.8978388" lon="16.0476629"><ele>1079.0</ele><time>2026-05-02T12:14:05.722Z</time></trkpt><trkpt lat="39.8976942" lon="16.0477236"><ele>1079.0</ele><time>2026-05-02T12:14:07.708Z</time></trkpt><trkpt lat="39.8975944" lon="16.0477558"><ele>1079.0</ele><time>2026-05-02T12:14:08.716Z</time></trkpt><trkpt lat="39.8974725" lon="16.0478039"><ele>1079.0</ele><time>2026-05-02T12:14:09.693Z</time></trkpt><trkpt lat="39.8973432" lon="16.0478476"><ele>1074.6666666666667</ele><time>2026-05-02T12:14:10.712Z</time></trkpt><trkpt lat="39.8972062" lon="16.0479002"><ele>1070.3333333333333</ele><time>2026-05-02T12:14:11.697Z</time></trkpt><trkpt lat="39.8970546" lon="16.0479507"><ele>1066.0</ele><time>2026-05-02T12:14:12.696Z</time></trkpt><trkpt lat="39.8968998" lon="16.0480067"><ele>1071.0</ele><time>2026-05-02T12:14:13.703Z</time></trkpt><trkpt lat="39.8967485" lon="16.0480611"><ele>1076.0</ele><time>2026-05-02T12:14:14.697Z</time></trkpt><trkpt lat="39.8966139" lon="16.048151"><ele>1081.0</ele><time>2026-05-02T12:14:15.699Z</time></trkpt><trkpt lat="39.8965015" lon="16.0482944"><ele>1081.0</ele><time>2026-05-02T12:14:16.707Z</time></trkpt><trkpt lat="39.8964109" lon="16.0484694"><ele>1081.0</ele><time>2026-05-02T12:14:17.705Z</time></trkpt><trkpt lat="39.8963338" lon="16.0486345"><ele>1081.0</ele><time>2026-05-02T12:14:18.702Z</time></trkpt><trkpt lat="39.8962385" lon="16.0487578"><ele>1081.0</ele><time>2026-05-02T12:14:19.707Z</time></trkpt><trkpt lat="39.896122" lon="16.0488416"><ele>1081.0</ele><time>2026-05-02T12:14:20.708Z</time></trkpt><trkpt lat="39.8959893" lon="16.0488805"><ele>1081.0</ele><time>2026-05-02T12:14:21.705Z</time></trkpt><trkpt lat="39.8958455" lon="16.0488832"><ele>1081.0</ele><time>2026-05-02T12:14:22.691Z</time></trkpt><trkpt lat="39.8956982" lon="16.0488462"><ele>1081.0</ele><time>2026-05-02T12:14:23.696Z</time></trkpt><trkpt lat="39.8955454" lon="16.0488365"><ele>1082.0</ele><time>2026-05-02T12:14:24.702Z</time></trkpt><trkpt lat="39.8953865" lon="16.0488459"><ele>1083.0</ele><time>2026-05-02T12:14:25.697Z</time></trkpt><trkpt lat="39.8952258" lon="16.0488633"><ele>1084.0</ele><time>2026-05-02T12:14:26.705Z</time></trkpt><trkpt lat="39.8950888" lon="16.0488933"><ele>1084.5</ele><time>2026-05-02T12:14:27.705Z</time></trkpt><trkpt lat="39.8949938" lon="16.0489257"><ele>1085.0</ele><time>2026-05-02T12:14:28.707Z</time></trkpt><trkpt lat="39.8949235" lon="16.0489142"><ele>1085.5</ele><time>2026-05-02T12:14:29.696Z</time></trkpt><trkpt lat="39.8948185" lon="16.0489125"><ele>1086.0</ele><time>2026-05-02T12:14:31.71Z</time></trkpt><trkpt lat="39.8947448" lon="16.0489115"><ele>1086.5</ele><time>2026-05-02T12:14:33.7Z</time></trkpt><trkpt lat="39.8946595" lon="16.0489568"><ele>1087.0</ele><time>2026-05-02T12:14:36.725Z</time></trkpt><trkpt lat="39.894646" lon="16.0490535"><ele>1087.0</ele><time>2026-05-02T12:14:38.711Z</time></trkpt><trkpt lat="39.8946576" lon="16.0491419"><ele>1087.0</ele><time>2026-05-02T12:15:34.712Z</time></trkpt><trkpt lat="39.8947148" lon="16.0491044"><ele>1087.0</ele><time>2026-05-02T12:17:30.686Z</time></trkpt><trkpt lat="39.8947229" lon="16.049221"><ele>1087.0</ele><time>2026-05-02T12:26:53.676Z</time></trkpt><trkpt lat="39.894673" lon="16.0491616"><ele>1087.0</ele><time>2026-05-02T12:30:06.722Z</time></trkpt><trkpt lat="39.8947193" lon="16.0492271"><ele>1087.0</ele><time>2026-05-02T12:30:09.696Z</time></trkpt><trkpt lat="39.8947668" lon="16.0493787"><ele>1086.8</ele><time>2026-05-02T12:30:11.701Z</time></trkpt><trkpt lat="39.8948044" lon="16.0494806"><ele>1086.6</ele><time>2026-05-02T12:30:12.712Z</time></trkpt><trkpt lat="39.8948487" lon="16.049599"><ele>1086.3999999999999</ele><time>2026-05-02T12:30:13.714Z</time></trkpt><trkpt lat="39.8948902" lon="16.0497252"><ele>1086.2</ele><time>2026-05-02T12:30:14.71Z</time></trkpt><trkpt lat="39.8949231" lon="16.0498596"><ele>1086.0</ele><time>2026-05-02T12:30:15.71Z</time></trkpt><trkpt lat="39.8949541" lon="16.0500038"><ele>1087.6</ele><time>2026-05-02T12:30:16.707Z</time></trkpt><trkpt lat="39.8949724" lon="16.0501476"><ele>1089.1999999999998</ele><time>2026-05-02T12:30:17.708Z</time></trkpt><trkpt lat="39.8949837" lon="16.0502936"><ele>1090.8000000000002</ele><time>2026-05-02T12:30:18.713Z</time></trkpt><trkpt lat="39.8949917" lon="16.0504405"><ele>1092.4</ele><time>2026-05-02T12:30:19.705Z</time></trkpt><trkpt lat="39.8949763" lon="16.0505844"><ele>1094.0</ele><time>2026-05-02T12:30:20.69Z</time></trkpt><trkpt lat="39.8949404" lon="16.0507247"><ele>1096.5</ele><time>2026-05-02T12:30:21.72Z</time></trkpt><trkpt lat="39.8948846" lon="16.0508625"><ele>1099.0</ele><time>2026-05-02T12:30:22.701Z</time></trkpt><trkpt lat="39.8948278" lon="16.0510006"><ele>1101.5</ele><time>2026-05-02T12:30:23.713Z</time></trkpt><trkpt lat="39.8947789" lon="16.0511444"><ele>1104.0</ele><time>2026-05-02T12:30:24.709Z</time></trkpt><trkpt lat="39.8947283" lon="16.0512968"><ele>1104.0</ele><time>2026-05-02T12:30:25.692Z</time></trkpt><trkpt lat="39.8946877" lon="16.0514514"><ele>1104.0</ele><time>2026-05-02T12:30:26.708Z</time></trkpt><trkpt lat="39.894657" lon="16.0516177"><ele>1104.0</ele><time>2026-05-02T12:30:27.718Z</time></trkpt><trkpt lat="39.8946347" lon="16.0517815"><ele>1104.0</ele><time>2026-05-02T12:30:28.708Z</time></trkpt><trkpt lat="39.8946185" lon="16.0519558"><ele>1107.25</ele><time>2026-05-02T12:30:29.704Z</time></trkpt><trkpt lat="39.8946041" lon="16.0521262"><ele>1110.5</ele><time>2026-05-02T12:30:30.713Z</time></trkpt><trkpt lat="39.8945824" lon="16.0522953"><ele>1113.75</ele><time>2026-05-02T12:30:31.713Z</time></trkpt><trkpt lat="39.89457" lon="16.0524456"><ele>1117.0</ele><time>2026-05-02T12:30:32.711Z</time></trkpt><trkpt lat="39.8945596" lon="16.0525536"><ele>1115.6</ele><time>2026-05-02T12:30:33.708Z</time></trkpt><trkpt lat="39.8945212" lon="16.0526335"><ele>1114.2</ele><time>2026-05-02T12:30:34.703Z</time></trkpt><trkpt lat="39.8944223" lon="16.0527328"><ele>1112.8</ele><time>2026-05-02T12:30:36.708Z</time></trkpt><trkpt lat="39.8943496" lon="16.0527391"><ele>1111.4</ele><time>2026-05-02T12:30:37.698Z</time></trkpt><trkpt lat="39.8942575" lon="16.0527255"><ele>1110.0</ele><time>2026-05-02T12:30:38.712Z</time></trkpt><trkpt lat="39.8941613" lon="16.0526965"><ele>1110.0</ele><time>2026-05-02T12:30:39.711Z</time></trkpt><trkpt lat="39.8940658" lon="16.052677"><ele>1110.0</ele><time>2026-05-02T12:30:40.707Z</time></trkpt><trkpt lat="39.8939695" lon="16.0526915"><ele>1110.0</ele><time>2026-05-02T12:30:41.706Z</time></trkpt><trkpt lat="39.8938768" lon="16.0527613"><ele>1110.0</ele><time>2026-05-02T12:30:42.714Z</time></trkpt><trkpt lat="39.8937793" lon="16.0528448"><ele>1110.0</ele><time>2026-05-02T12:30:43.706Z</time></trkpt><trkpt lat="39.8936782" lon="16.0529409"><ele>1110.0</ele><time>2026-05-02T12:30:44.691Z</time></trkpt><trkpt lat="39.8935624" lon="16.053034"><ele>1110.0</ele><time>2026-05-02T12:30:45.699Z</time></trkpt><trkpt lat="39.8934406" lon="16.0531317"><ele>1110.0</ele><time>2026-05-02T12:30:46.709Z</time></trkpt><trkpt lat="39.8933283" lon="16.0532292"><ele>1110.0</ele><time>2026-05-02T12:30:47.705Z</time></trkpt><trkpt lat="39.8932288" lon="16.0533398"><ele>1110.5</ele><time>2026-05-02T12:30:48.691Z</time></trkpt><trkpt lat="39.8931562" lon="16.0534695"><ele>1111.0</ele><time>2026-05-02T12:30:49.687Z</time></trkpt><trkpt lat="39.8931056" lon="16.0536158"><ele>1111.5</ele><time>2026-05-02T12:30:50.687Z</time></trkpt><trkpt lat="39.8930811" lon="16.0537793"><ele>1112.0</ele><time>2026-05-02T12:30:51.71Z</time></trkpt><trkpt lat="39.8930784" lon="16.0539555"><ele>1115.25</ele><time>2026-05-02T12:30:52.683Z</time></trkpt><trkpt lat="39.8930943" lon="16.0541325"><ele>1118.5</ele><time>2026-05-02T12:30:53.71Z</time></trkpt><trkpt lat="39.8931193" lon="16.0543154"><ele>1121.75</ele><time>2026-05-02T12:30:54.704Z</time></trkpt><trkpt lat="39.8931323" lon="16.0545047"><ele>1125.0</ele><time>2026-05-02T12:30:55.718Z</time></trkpt><trkpt lat="39.8931239" lon="16.054693"><ele>1125.0</ele><time>2026-05-02T12:30:56.717Z</time></trkpt><trkpt lat="39.8930903" lon="16.0548836"><ele>1125.0</ele><time>2026-05-02T12:30:57.698Z</time></trkpt><trkpt lat="39.893032" lon="16.0550628"><ele>1125.0</ele><time>2026-05-02T12:30:58.699Z</time></trkpt><trkpt lat="39.8929793" lon="16.0552224"><ele>1125.0</ele><time>2026-05-02T12:30:59.705Z</time></trkpt><trkpt lat="39.8929278" lon="16.0553549"><ele>1127.75</ele><time>2026-05-02T12:31:00.709Z</time></trkpt><trkpt lat="39.892862" lon="16.0554683"><ele>1130.5</ele><time>2026-05-02T12:31:01.71Z</time></trkpt><trkpt lat="39.8927655" lon="16.0555686"><ele>1133.25</ele><time>2026-05-02T12:31:02.722Z</time></trkpt><trkpt lat="39.8926544" lon="16.0556613"><ele>1136.0</ele><time>2026-05-02T12:31:03.713Z</time></trkpt><trkpt lat="39.8925412" lon="16.055748"><ele>1132.3999999999999</ele><time>2026-05-02T12:31:04.71Z</time></trkpt><trkpt lat="39.8924482" lon="16.0558579"><ele>1128.8</ele><time>2026-05-02T12:31:05.711Z</time></trkpt><trkpt lat="39.892384" lon="16.0559762"><ele>1125.1999999999998</ele><time>2026-05-02T12:31:06.705Z</time></trkpt><trkpt lat="39.8923345" lon="16.0560931"><ele>1121.6</ele><time>2026-05-02T12:31:07.703Z</time></trkpt><trkpt lat="39.8923081" lon="16.056224"><ele>1118.0</ele><time>2026-05-02T12:31:08.705Z</time></trkpt><trkpt lat="39.8923003" lon="16.0563676"><ele>1118.0</ele><time>2026-05-02T12:31:09.716Z</time></trkpt><trkpt lat="39.8923252" lon="16.0565077"><ele>1118.0</ele><time>2026-05-02T12:31:10.714Z</time></trkpt><trkpt lat="39.892368" lon="16.0566409"><ele>1118.0</ele><time>2026-05-02T12:31:11.705Z</time></trkpt><trkpt lat="39.8924354" lon="16.0567667"><ele>1118.0</ele><time>2026-05-02T12:31:12.711Z</time></trkpt><trkpt lat="39.8925107" lon="16.0568925"><ele>1120.6</ele><time>2026-05-02T12:31:13.697Z</time></trkpt><trkpt lat="39.8925873" lon="16.0570162"><ele>1123.1999999999998</ele><time>2026-05-02T12:31:14.706Z</time></trkpt><trkpt lat="39.8926653" lon="16.0571279"><ele>1125.8</ele><time>2026-05-02T12:31:15.697Z</time></trkpt><trkpt lat="39.8927251" lon="16.0572255"><ele>1128.3999999999999</ele><time>2026-05-02T12:31:16.709Z</time></trkpt><trkpt lat="39.8927561" lon="16.0573176"><ele>1131.0</ele><time>2026-05-02T12:31:17.705Z</time></trkpt><trkpt lat="39.8927544" lon="16.0574083"><ele>1134.0</ele><time>2026-05-02T12:31:18.701Z</time></trkpt><trkpt lat="39.8927206" lon="16.0574821"><ele>1137.0</ele><time>2026-05-02T12:31:19.703Z</time></trkpt><trkpt lat="39.892657" lon="16.0575443"><ele>1140.0</ele><time>2026-05-02T12:31:20.705Z</time></trkpt><trkpt lat="39.8925694" lon="16.0575767"><ele>1143.0</ele><time>2026-05-02T12:31:21.709Z</time></trkpt><trkpt lat="39.8924666" lon="16.057601"><ele>1146.0</ele><time>2026-05-02T12:31:22.707Z</time></trkpt><trkpt lat="39.8923498" lon="16.0576363"><ele>1146.0</ele><time>2026-05-02T12:31:23.714Z</time></trkpt><trkpt lat="39.8922334" lon="16.0576979"><ele>1146.0</ele><time>2026-05-02T12:31:24.713Z</time></trkpt><trkpt lat="39.8921251" lon="16.0577903"><ele>1146.0</ele><time>2026-05-02T12:31:25.701Z</time></trkpt><trkpt lat="39.8920204" lon="16.0579141"><ele>1146.0</ele><time>2026-05-02T12:31:26.705Z</time></trkpt><trkpt lat="39.8919254" lon="16.0580438"><ele>1146.0</ele><time>2026-05-02T12:31:27.712Z</time></trkpt><trkpt lat="39.8918206" lon="16.0581866"><ele>1146.0</ele><time>2026-05-02T12:31:28.721Z</time></trkpt><trkpt lat="39.8917241" lon="16.0583311"><ele>1146.0</ele><time>2026-05-02T12:31:29.707Z</time></trkpt><trkpt lat="39.8916307" lon="16.0584857"><ele>1145.5</ele><time>2026-05-02T12:31:30.713Z</time></trkpt><trkpt lat="39.8915569" lon="16.0586452"><ele>1145.0</ele><time>2026-05-02T12:31:31.7Z</time></trkpt><trkpt lat="39.8914975" lon="16.0587952"><ele>1144.5</ele><time>2026-05-02T12:31:32.699Z</time></trkpt><trkpt lat="39.8914618" lon="16.0589421"><ele>1144.0</ele><time>2026-05-02T12:31:33.717Z</time></trkpt><trkpt lat="39.8914661" lon="16.0590991"><ele>1147.0</ele><time>2026-05-02T12:31:34.716Z</time></trkpt><trkpt lat="39.8915057" lon="16.0592648"><ele>1150.0</ele><time>2026-05-02T12:31:35.71Z</time></trkpt><trkpt lat="39.8915626" lon="16.0594365"><ele>1153.0</ele><time>2026-05-02T12:31:36.715Z</time></trkpt><trkpt lat="39.891638" lon="16.0595997"><ele>1156.0</ele><time>2026-05-02T12:31:37.715Z</time></trkpt><trkpt lat="39.89171" lon="16.0597622"><ele>1156.6</ele><time>2026-05-02T12:31:38.716Z</time></trkpt><trkpt lat="39.891767" lon="16.0599017"><ele>1157.1999999999998</ele><time>2026-05-02T12:31:39.708Z</time></trkpt><trkpt lat="39.8918014" lon="16.0600066"><ele>1157.8000000000002</ele><time>2026-05-02T12:31:40.707Z</time></trkpt><trkpt lat="39.8918017" lon="16.060096"><ele>1158.4</ele><time>2026-05-02T12:31:41.714Z</time></trkpt><trkpt lat="39.891782" lon="16.0601996"><ele>1159.0</ele><time>2026-05-02T12:31:42.703Z</time></trkpt><trkpt lat="39.8917484" lon="16.0603137"><ele>1159.0</ele><time>2026-05-02T12:31:43.706Z</time></trkpt><trkpt lat="39.8916884" lon="16.0604376"><ele>1159.0</ele><time>2026-05-02T12:31:44.709Z</time></trkpt><trkpt lat="39.8916192" lon="16.0605654"><ele>1159.0</ele><time>2026-05-02T12:31:45.704Z</time></trkpt><trkpt lat="39.8915658" lon="16.0606497"><ele>1159.0</ele><time>2026-05-02T12:31:46.704Z</time></trkpt><trkpt lat="39.8915" lon="16.0606875"><ele>1159.0</ele><time>2026-05-02T12:31:47.705Z</time></trkpt><trkpt lat="39.8914219" lon="16.0606896"><ele>1159.0</ele><time>2026-05-02T12:31:48.706Z</time></trkpt><trkpt lat="39.8913367" lon="16.0606559"><ele>1159.0</ele><time>2026-05-02T12:31:49.708Z</time></trkpt><trkpt lat="39.8912444" lon="16.0606118"><ele>1159.0</ele><time>2026-05-02T12:31:50.721Z</time></trkpt><trkpt lat="39.8911405" lon="16.0605882"><ele>1159.0</ele><time>2026-05-02T12:31:51.707Z</time></trkpt><trkpt lat="39.891023" lon="16.0605974"><ele>1159.0</ele><time>2026-05-02T12:31:52.717Z</time></trkpt><trkpt lat="39.8909126" lon="16.0606382"><ele>1159.25</ele><time>2026-05-02T12:31:53.707Z</time></trkpt><trkpt lat="39.8908085" lon="16.0607118"><ele>1159.5</ele><time>2026-05-02T12:31:54.693Z</time></trkpt><trkpt lat="39.8907188" lon="16.0608248"><ele>1159.75</ele><time>2026-05-02T12:31:55.712Z</time></trkpt><trkpt lat="39.8906563" lon="16.060957"><ele>1160.0</ele><time>2026-05-02T12:31:56.71Z</time></trkpt><trkpt lat="39.8906225" lon="16.0610931"><ele>1160.0</ele><time>2026-05-02T12:31:57.703Z</time></trkpt><trkpt lat="39.8906244" lon="16.0612535"><ele>1160.0</ele><time>2026-05-02T12:31:58.708Z</time></trkpt><trkpt lat="39.8906346" lon="16.0614268"><ele>1160.0</ele><time>2026-05-02T12:31:59.714Z</time></trkpt><trkpt lat="39.8906424" lon="16.0615952"><ele>1160.0</ele><time>2026-05-02T12:32:00.703Z</time></trkpt><trkpt lat="39.8906472" lon="16.0617238"><ele>1163.8333333333335</ele><time>2026-05-02T12:32:01.704Z</time></trkpt><trkpt lat="39.8906195" lon="16.0618159"><ele>1167.6666666666667</ele><time>2026-05-02T12:32:02.708Z</time></trkpt><trkpt lat="39.8905697" lon="16.0618874"><ele>1171.5</ele><time>2026-05-02T12:32:03.704Z</time></trkpt><trkpt lat="39.8904985" lon="16.0619496"><ele>1175.3333333333333</ele><time>2026-05-02T12:32:04.704Z</time></trkpt><trkpt lat="39.8904096" lon="16.0619986"><ele>1179.1666666666665</ele><time>2026-05-02T12:32:05.712Z</time></trkpt><trkpt lat="39.8903007" lon="16.0620178"><ele>1183.0</ele><time>2026-05-02T12:32:06.715Z</time></trkpt><trkpt lat="39.8901929" lon="16.0620312"><ele>1176.5</ele><time>2026-05-02T12:32:07.723Z</time></trkpt><trkpt lat="39.8900913" lon="16.0620597"><ele>1170.0</ele><time>2026-05-02T12:32:08.711Z</time></trkpt><trkpt lat="39.8899964" lon="16.0621306"><ele>1163.5</ele><time>2026-05-02T12:32:09.694Z</time></trkpt><trkpt lat="39.8899017" lon="16.0622285"><ele>1157.0</ele><time>2026-05-02T12:32:10.707Z</time></trkpt><trkpt lat="39.8897986" lon="16.0623367"><ele>1167.0</ele><time>2026-05-02T12:32:11.703Z</time></trkpt><trkpt lat="39.88969" lon="16.0624585"><ele>1177.0</ele><time>2026-05-02T12:32:12.705Z</time></trkpt><trkpt lat="39.8895787" lon="16.0625949"><ele>1187.0</ele><time>2026-05-02T12:32:13.709Z</time></trkpt><trkpt lat="39.8894622" lon="16.062747"><ele>1187.0</ele><time>2026-05-02T12:32:14.7Z</time></trkpt><trkpt lat="39.8893457" lon="16.0629039"><ele>1187.0</ele><time>2026-05-02T12:32:15.728Z</time></trkpt><trkpt lat="39.8892432" lon="16.0630595"><ele>1187.0</ele><time>2026-05-02T12:32:16.706Z</time></trkpt><trkpt lat="39.8891654" lon="16.0632198"><ele>1185.75</ele><time>2026-05-02T12:32:17.714Z</time></trkpt><trkpt lat="39.8891069" lon="16.0633921"><ele>1184.5</ele><time>2026-05-02T12:32:18.711Z</time></trkpt><trkpt lat="39.8890603" lon="16.0635614"><ele>1183.25</ele><time>2026-05-02T12:32:19.707Z</time></trkpt><trkpt lat="39.889032" lon="16.0637066"><ele>1182.0</ele><time>2026-05-02T12:32:20.708Z</time></trkpt><trkpt lat="39.8890293" lon="16.0638437"><ele>1182.0</ele><time>2026-05-02T12:32:21.707Z</time></trkpt><trkpt lat="39.8890568" lon="16.0639876"><ele>1182.0</ele><time>2026-05-02T12:32:22.726Z</time></trkpt><trkpt lat="39.8891127" lon="16.0641282"><ele>1182.0</ele><time>2026-05-02T12:32:23.712Z</time></trkpt><trkpt lat="39.8891808" lon="16.0642728"><ele>1182.0</ele><time>2026-05-02T12:32:24.724Z</time></trkpt><trkpt lat="39.8892621" lon="16.0644177"><ele>1193.5</ele><time>2026-05-02T12:32:25.697Z</time></trkpt><trkpt lat="39.8893512" lon="16.0645653"><ele>1205.0</ele><time>2026-05-02T12:32:26.709Z</time></trkpt><trkpt lat="39.8894297" lon="16.0647103"><ele>1216.5</ele><time>2026-05-02T12:32:27.705Z</time></trkpt><trkpt lat="39.8894847" lon="16.0648387"><ele>1228.0</ele><time>2026-05-02T12:32:28.701Z</time></trkpt><trkpt lat="39.8895205" lon="16.064944"><ele>1227.4</ele><time>2026-05-02T12:32:29.701Z</time></trkpt><trkpt lat="39.8895119" lon="16.0650533"><ele>1226.8</ele><time>2026-05-02T12:32:30.71Z</time></trkpt><trkpt lat="39.8894761" lon="16.0651806"><ele>1226.2</ele><time>2026-05-02T12:32:31.702Z</time></trkpt><trkpt lat="39.8894398" lon="16.0653203"><ele>1225.6</ele><time>2026-05-02T12:32:32.705Z</time></trkpt><trkpt lat="39.8894054" lon="16.065481"><ele>1225.0</ele><time>2026-05-02T12:32:33.708Z</time></trkpt><trkpt lat="39.8893668" lon="16.0656545"><ele>1227.0</ele><time>2026-05-02T12:32:34.718Z</time></trkpt><trkpt lat="39.8893111" lon="16.0658358"><ele>1229.0</ele><time>2026-05-02T12:32:35.71Z</time></trkpt><trkpt lat="39.8892408" lon="16.0660195"><ele>1231.0</ele><time>2026-05-02T12:32:36.712Z</time></trkpt><trkpt lat="39.8891663" lon="16.0662009"><ele>1225.8</ele><time>2026-05-02T12:32:37.706Z</time></trkpt><trkpt lat="39.8890983" lon="16.0663588"><ele>1220.6</ele><time>2026-05-02T12:32:38.713Z</time></trkpt><trkpt lat="39.8890518" lon="16.0664799"><ele>1215.4</ele><time>2026-05-02T12:32:39.703Z</time></trkpt><trkpt lat="39.8890283" lon="16.066582"><ele>1210.2</ele><time>2026-05-02T12:32:40.723Z</time></trkpt><trkpt lat="39.8890392" lon="16.066675"><ele>1205.0</ele><time>2026-05-02T12:32:41.709Z</time></trkpt><trkpt lat="39.8890736" lon="16.0667564"><ele>1205.0</ele><time>2026-05-02T12:32:42.698Z</time></trkpt><trkpt lat="39.8891413" lon="16.0668246"><ele>1205.0</ele><time>2026-05-02T12:32:43.711Z</time></trkpt><trkpt lat="39.8892271" lon="16.0668361"><ele>1205.0</ele><time>2026-05-02T12:32:44.702Z</time></trkpt><trkpt lat="39.8893038" lon="16.0667971"><ele>1205.0</ele><time>2026-05-02T12:32:45.701Z</time></trkpt><trkpt lat="39.8893715" lon="16.0667009"><ele>1205.0</ele><time>2026-05-02T12:32:46.714Z</time></trkpt><trkpt lat="39.8894145" lon="16.0665742"><ele>1211.5</ele><time>2026-05-02T12:32:47.71Z</time></trkpt><trkpt lat="39.8894465" lon="16.0664176"><ele>1218.0</ele><time>2026-05-02T12:32:48.711Z</time></trkpt><trkpt lat="39.8894934" lon="16.0662596"><ele>1224.5</ele><time>2026-05-02T12:32:49.707Z</time></trkpt><trkpt lat="39.8895517" lon="16.0660973"><ele>1231.0</ele><time>2026-05-02T12:32:50.721Z</time></trkpt><trkpt lat="39.8896296" lon="16.065937"><ele>1229.0</ele><time>2026-05-02T12:32:51.704Z</time></trkpt><trkpt lat="39.8897189" lon="16.0657775"><ele>1227.0</ele><time>2026-05-02T12:32:52.71Z</time></trkpt><trkpt lat="39.8898172" lon="16.0656221"><ele>1225.0</ele><time>2026-05-02T12:32:53.708Z</time></trkpt><trkpt lat="39.8899099" lon="16.065461"><ele>1225.0</ele><time>2026-05-02T12:32:54.714Z</time></trkpt><trkpt lat="39.8899941" lon="16.06529"><ele>1225.0</ele><time>2026-05-02T12:32:55.715Z</time></trkpt><trkpt lat="39.8900747" lon="16.0651484"><ele>1225.0</ele><time>2026-05-02T12:32:56.709Z</time></trkpt><trkpt lat="39.8901367" lon="16.0650362"><ele>1225.0</ele><time>2026-05-02T12:32:57.711Z</time></trkpt><trkpt lat="39.8901718" lon="16.0649236"><ele>1225.6</ele><time>2026-05-02T12:32:58.708Z</time></trkpt><trkpt lat="39.890171" lon="16.0647928"><ele>1226.2</ele><time>2026-05-02T12:32:59.707Z</time></trkpt><trkpt lat="39.8901231" lon="16.0646622"><ele>1226.8</ele><time>2026-05-02T12:33:00.717Z</time></trkpt><trkpt lat="39.8900449" lon="16.0645389"><ele>1227.4</ele><time>2026-05-02T12:33:01.701Z</time></trkpt><trkpt lat="39.8899879" lon="16.0644263"><ele>1228.0</ele><time>2026-05-02T12:33:02.704Z</time></trkpt><trkpt lat="39.8899486" lon="16.0643298"><ele>1228.0</ele><time>2026-05-02T12:33:03.707Z</time></trkpt><trkpt lat="39.8899444" lon="16.0642147"><ele>1228.0</ele><time>2026-05-02T12:33:04.698Z</time></trkpt><trkpt lat="39.8899639" lon="16.0641021"><ele>1228.0</ele><time>2026-05-02T12:33:05.716Z</time></trkpt><trkpt lat="39.8900208" lon="16.0639824"><ele>1228.0</ele><time>2026-05-02T12:33:06.707Z</time></trkpt><trkpt lat="39.890102" lon="16.0638728"><ele>1228.0</ele><time>2026-05-02T12:33:07.707Z</time></trkpt><trkpt lat="39.8901958" lon="16.0637671"><ele>1231.0</ele><time>2026-05-02T12:33:08.704Z</time></trkpt><trkpt lat="39.8903126" lon="16.0636744"><ele>1234.0</ele><time>2026-05-02T12:33:09.696Z</time></trkpt><trkpt lat="39.8904411" lon="16.0635808"><ele>1237.0</ele><time>2026-05-02T12:33:10.708Z</time></trkpt><trkpt lat="39.8905726" lon="16.0634875"><ele>1240.0</ele><time>2026-05-02T12:33:11.701Z</time></trkpt><trkpt lat="39.8907103" lon="16.0633866"><ele>1240.0</ele><time>2026-05-02T12:33:12.707Z</time></trkpt><trkpt lat="39.8908383" lon="16.0632953"><ele>1240.0</ele><time>2026-05-02T12:33:13.691Z</time></trkpt><trkpt lat="39.8909484" lon="16.0632357"><ele>1240.0</ele><time>2026-05-02T12:33:14.711Z</time></trkpt><trkpt lat="39.8910355" lon="16.0632082"><ele>1240.0</ele><time>2026-05-02T12:33:15.71Z</time></trkpt><trkpt lat="39.891134" lon="16.063235"><ele>1240.0</ele><time>2026-05-02T12:33:17.71Z</time></trkpt><trkpt lat="39.8911336" lon="16.0633408"><ele>1240.0</ele><time>2026-05-02T12:33:19.701Z</time></trkpt><trkpt lat="39.8910544" lon="16.0634549"><ele>1240.0</ele><time>2026-05-02T12:33:21.69Z</time></trkpt><trkpt lat="39.8909887" lon="16.0635242"><ele>1240.0</ele><time>2026-05-02T12:33:22.712Z</time></trkpt><trkpt lat="39.8909061" lon="16.0636025"><ele>1240.0</ele><time>2026-05-02T12:33:23.71Z</time></trkpt><trkpt lat="39.8908209" lon="16.0636817"><ele>1240.0</ele><time>2026-05-02T12:33:24.705Z</time></trkpt><trkpt lat="39.8907391" lon="16.063782"><ele>1240.0</ele><time>2026-05-02T12:33:25.705Z</time></trkpt><trkpt lat="39.8906739" lon="16.0639009"><ele>1240.0</ele><time>2026-05-02T12:33:26.7Z</time></trkpt><trkpt lat="39.8906362" lon="16.0640422"><ele>1240.0</ele><time>2026-05-02T12:33:27.725Z</time></trkpt><trkpt lat="39.8906218" lon="16.0641828"><ele>1240.0</ele><time>2026-05-02T12:33:28.705Z</time></trkpt><trkpt lat="39.8906387" lon="16.0643101"><ele>1245.0</ele><time>2026-05-02T12:33:29.708Z</time></trkpt><trkpt lat="39.8906854" lon="16.0644342"><ele>1250.0</ele><time>2026-05-02T12:33:30.714Z</time></trkpt><trkpt lat="39.8907415" lon="16.0645655"><ele>1255.0</ele><time>2026-05-02T12:33:31.689Z</time></trkpt><trkpt lat="39.8907831" lon="16.0647172"><ele>1260.0</ele><time>2026-05-02T12:33:32.715Z</time></trkpt><trkpt lat="39.8908051" lon="16.0648706"><ele>1260.75</ele><time>2026-05-02T12:33:33.706Z</time></trkpt><trkpt lat="39.8908162" lon="16.0650355"><ele>1261.5</ele><time>2026-05-02T12:33:34.704Z</time></trkpt><trkpt lat="39.8908175" lon="16.0651936"><ele>1262.25</ele><time>2026-05-02T12:33:35.706Z</time></trkpt><trkpt lat="39.8908014" lon="16.0653481"><ele>1263.0</ele><time>2026-05-02T12:33:36.701Z</time></trkpt><trkpt lat="39.8907691" lon="16.065501"><ele>1263.0</ele><time>2026-05-02T12:33:37.707Z</time></trkpt><trkpt lat="39.890737" lon="16.065644"><ele>1263.0</ele><time>2026-05-02T12:33:38.704Z</time></trkpt><trkpt lat="39.8907088" lon="16.0657759"><ele>1263.0</ele><time>2026-05-02T12:33:39.711Z</time></trkpt><trkpt lat="39.8907086" lon="16.0659187"><ele>1263.0</ele><time>2026-05-02T12:33:40.709Z</time></trkpt><trkpt lat="39.8907413" lon="16.0660578"><ele>1263.0</ele><time>2026-05-02T12:33:41.707Z</time></trkpt><trkpt lat="39.8908097" lon="16.0661781"><ele>1264.0</ele><time>2026-05-02T12:33:42.706Z</time></trkpt><trkpt lat="39.8909057" lon="16.0662752"><ele>1265.0</ele><time>2026-05-02T12:33:43.707Z</time></trkpt><trkpt lat="39.8910088" lon="16.0663535"><ele>1266.0</ele><time>2026-05-02T12:33:44.711Z</time></trkpt><trkpt lat="39.8911009" lon="16.066437"><ele>1267.0</ele><time>2026-05-02T12:33:45.708Z</time></trkpt><trkpt lat="39.8911652" lon="16.0665411"><ele>1274.0</ele><time>2026-05-02T12:33:46.709Z</time></trkpt><trkpt lat="39.8912034" lon="16.0666892"><ele>1281.0</ele><time>2026-05-02T12:33:47.71Z</time></trkpt><trkpt lat="39.8912259" lon="16.0668512"><ele>1288.0</ele><time>2026-05-02T12:33:48.706Z</time></trkpt><trkpt lat="39.8912372" lon="16.0669808"><ele>1295.0</ele><time>2026-05-02T12:33:49.712Z</time></trkpt><trkpt lat="39.8912583" lon="16.0670749"><ele>1302.0</ele><time>2026-05-02T12:33:50.709Z</time></trkpt><trkpt lat="39.8913488" lon="16.0671242"><ele>1302.0</ele><time>2026-05-02T12:33:52.708Z</time></trkpt><trkpt lat="39.8914019" lon="16.0670783"><ele>1302.0</ele><time>2026-05-02T12:33:53.716Z</time></trkpt><trkpt lat="39.8914166" lon="16.0669041"><ele>1302.0</ele><time>2026-05-02T12:33:55.702Z</time></trkpt><trkpt lat="39.8914044" lon="16.0667615"><ele>1302.0</ele><time>2026-05-02T12:33:56.706Z</time></trkpt><trkpt lat="39.8913884" lon="16.0665994"><ele>1302.0</ele><time>2026-05-02T12:33:57.707Z</time></trkpt><trkpt lat="39.8913618" lon="16.0664357"><ele>1304.0</ele><time>2026-05-02T12:33:58.712Z</time></trkpt><trkpt lat="39.8913149" lon="16.0662769"><ele>1306.0</ele><time>2026-05-02T12:33:59.702Z</time></trkpt><trkpt lat="39.8912601" lon="16.0661339"><ele>1308.0</ele><time>2026-05-02T12:34:00.708Z</time></trkpt><trkpt lat="39.8912274" lon="16.0659914"><ele>1310.0</ele><time>2026-05-02T12:34:01.706Z</time></trkpt><trkpt lat="39.8912244" lon="16.0658333"><ele>1309.0</ele><time>2026-05-02T12:34:02.702Z</time></trkpt><trkpt lat="39.8912365" lon="16.0656664"><ele>1308.0</ele><time>2026-05-02T12:34:03.698Z</time></trkpt><trkpt lat="39.8912726" lon="16.0654926"><ele>1307.0</ele><time>2026-05-02T12:34:04.706Z</time></trkpt><trkpt lat="39.8913153" lon="16.0653273"><ele>1306.0</ele><time>2026-05-02T12:34:05.707Z</time></trkpt><trkpt lat="39.8913314" lon="16.0651625"><ele>1306.0</ele><time>2026-05-02T12:34:06.71Z</time></trkpt><trkpt lat="39.8913324" lon="16.0649905"><ele>1306.0</ele><time>2026-05-02T12:34:07.706Z</time></trkpt><trkpt lat="39.8913287" lon="16.0648161"><ele>1306.0</ele><time>2026-05-02T12:34:08.713Z</time></trkpt><trkpt lat="39.8913519" lon="16.0646474"><ele>1306.0</ele><time>2026-05-02T12:34:09.715Z</time></trkpt><trkpt lat="39.8913946" lon="16.064492"><ele>1302.8</ele><time>2026-05-02T12:34:10.706Z</time></trkpt><trkpt lat="39.891452" lon="16.0643766"><ele>1299.6</ele><time>2026-05-02T12:34:11.709Z</time></trkpt><trkpt lat="39.8915196" lon="16.0642828"><ele>1296.4</ele><time>2026-05-02T12:34:12.711Z</time></trkpt><trkpt lat="39.891606" lon="16.0642052"><ele>1293.2</ele><time>2026-05-02T12:34:13.707Z</time></trkpt><trkpt lat="39.8917101" lon="16.0641521"><ele>1290.0</ele><time>2026-05-02T12:34:14.716Z</time></trkpt><trkpt lat="39.891835" lon="16.0641209"><ele>1291.5</ele><time>2026-05-02T12:34:15.699Z</time></trkpt><trkpt lat="39.8919595" lon="16.0641083"><ele>1293.0</ele><time>2026-05-02T12:34:16.716Z</time></trkpt><trkpt lat="39.8920816" lon="16.0640728"><ele>1294.5</ele><time>2026-05-02T12:34:17.708Z</time></trkpt><trkpt lat="39.8921861" lon="16.0639977"><ele>1296.0</ele><time>2026-05-02T12:34:18.72Z</time></trkpt><trkpt lat="39.8922619" lon="16.0638902"><ele>1296.0</ele><time>2026-05-02T12:34:19.702Z</time></trkpt><trkpt lat="39.8923219" lon="16.0637632"><ele>1296.0</ele><time>2026-05-02T12:34:20.702Z</time></trkpt><trkpt lat="39.8923815" lon="16.063635"><ele>1296.0</ele><time>2026-05-02T12:34:21.701Z</time></trkpt><trkpt lat="39.8924491" lon="16.0635477"><ele>1296.0</ele><time>2026-05-02T12:34:22.719Z</time></trkpt><trkpt lat="39.8925301" lon="16.0635086"><ele>1296.0</ele><time>2026-05-02T12:34:23.715Z</time></trkpt><trkpt lat="39.8926326" lon="16.0634829"><ele>1303.0</ele><time>2026-05-02T12:34:24.704Z</time></trkpt><trkpt lat="39.8927557" lon="16.0634576"><ele>1310.0</ele><time>2026-05-02T12:34:25.712Z</time></trkpt><trkpt lat="39.8928872" lon="16.0634361"><ele>1317.0</ele><time>2026-05-02T12:34:26.707Z</time></trkpt><trkpt lat="39.8930251" lon="16.0634275"><ele>1324.0</ele><time>2026-05-02T12:34:27.698Z</time></trkpt><trkpt lat="39.8931436" lon="16.0634233"><ele>1324.0</ele><time>2026-05-02T12:34:28.708Z</time></trkpt><trkpt lat="39.8932235" lon="16.0634048"><ele>1324.0</ele><time>2026-05-02T12:34:29.707Z</time></trkpt><trkpt lat="39.8932895" lon="16.0633694"><ele>1324.0</ele><time>2026-05-02T12:34:30.709Z</time></trkpt><trkpt lat="39.8933523" lon="16.0632942"><ele>1324.0</ele><time>2026-05-02T12:34:31.708Z</time></trkpt><trkpt lat="39.8934052" lon="16.0631875"><ele>1324.0</ele><time>2026-05-02T12:34:32.711Z</time></trkpt><trkpt lat="39.893454" lon="16.0631012"><ele>1324.0</ele><time>2026-05-02T12:34:33.71Z</time></trkpt><trkpt lat="39.8934975" lon="16.0630285"><ele>1327.1666666666665</ele><time>2026-05-02T12:34:34.713Z</time></trkpt><trkpt lat="39.8936042" lon="16.0629434"><ele>1330.3333333333333</ele><time>2026-05-02T12:34:36.696Z</time></trkpt><trkpt lat="39.8936704" lon="16.0629089"><ele>1333.5</ele><time>2026-05-02T12:34:37.708Z</time></trkpt><trkpt lat="39.8937391" lon="16.0628664"><ele>1336.6666666666667</ele><time>2026-05-02T12:34:38.705Z</time></trkpt><trkpt lat="39.8937936" lon="16.0627943"><ele>1339.8333333333335</ele><time>2026-05-02T12:34:39.708Z</time></trkpt><trkpt lat="39.8938328" lon="16.0626953"><ele>1343.0</ele><time>2026-05-02T12:34:40.705Z</time></trkpt><trkpt lat="39.8938603" lon="16.0625653"><ele>1341.2</ele><time>2026-05-02T12:34:41.701Z</time></trkpt><trkpt lat="39.8938737" lon="16.0624116"><ele>1339.4</ele><time>2026-05-02T12:34:42.708Z</time></trkpt><trkpt lat="39.8938886" lon="16.062251"><ele>1337.6000000000001</ele><time>2026-05-02T12:34:43.708Z</time></trkpt><trkpt lat="39.8938925" lon="16.0621109"><ele>1335.8000000000002</ele><time>2026-05-02T12:34:44.706Z</time></trkpt><trkpt lat="39.8939033" lon="16.0620131"><ele>1334.0</ele><time>2026-05-02T12:34:45.709Z</time></trkpt><trkpt lat="39.8939558" lon="16.0619192"><ele>1334.0</ele><time>2026-05-02T12:34:47.703Z</time></trkpt><trkpt lat="39.8940349" lon="16.0619411"><ele>1334.0</ele><time>2026-05-02T12:34:49.704Z</time></trkpt><trkpt lat="39.8940446" lon="16.0620825"><ele>1334.0</ele><time>2026-05-02T12:34:51.706Z</time></trkpt><trkpt lat="39.8940397" lon="16.0621916"><ele>1334.0</ele><time>2026-05-02T12:34:52.714Z</time></trkpt><trkpt lat="39.8940385" lon="16.0623209"><ele>1334.0</ele><time>2026-05-02T12:34:53.715Z</time></trkpt><trkpt lat="39.894027" lon="16.0624652"><ele>1336.25</ele><time>2026-05-02T12:34:54.707Z</time></trkpt><trkpt lat="39.8940154" lon="16.0626266"><ele>1338.5</ele><time>2026-05-02T12:34:55.709Z</time></trkpt><trkpt lat="39.8940016" lon="16.0627884"><ele>1340.75</ele><time>2026-05-02T12:34:56.709Z</time></trkpt><trkpt lat="39.893974" lon="16.062953"><ele>1343.0</ele><time>2026-05-02T12:34:57.702Z</time></trkpt><trkpt lat="39.8939274" lon="16.0631196"><ele>1346.0</ele><time>2026-05-02T12:34:58.712Z</time></trkpt><trkpt lat="39.893854" lon="16.0632895"><ele>1349.0</ele><time>2026-05-02T12:34:59.704Z</time></trkpt><trkpt lat="39.8937769" lon="16.0634541"><ele>1352.0</ele><time>2026-05-02T12:35:00.719Z</time></trkpt><trkpt lat="39.8936963" lon="16.0636087"><ele>1355.0</ele><time>2026-05-02T12:35:01.709Z</time></trkpt><trkpt lat="39.8936296" lon="16.0637209"><ele>1355.0</ele><time>2026-05-02T12:35:02.714Z</time></trkpt><trkpt lat="39.8935707" lon="16.0637985"><ele>1355.0</ele><time>2026-05-02T12:35:03.705Z</time></trkpt><trkpt lat="39.8935053" lon="16.0638733"><ele>1355.0</ele><time>2026-05-02T12:35:04.711Z</time></trkpt><trkpt lat="39.8934327" lon="16.0639349"><ele>1355.0</ele><time>2026-05-02T12:35:05.699Z</time></trkpt><trkpt lat="39.8933408" lon="16.063976"><ele>1355.0</ele><time>2026-05-02T12:35:06.709Z</time></trkpt><trkpt lat="39.8932355" lon="16.0640033"><ele>1354.75</ele><time>2026-05-02T12:35:07.709Z</time></trkpt><trkpt lat="39.8931277" lon="16.0640388"><ele>1354.5</ele><time>2026-05-02T12:35:08.709Z</time></trkpt><trkpt lat="39.8930206" lon="16.0641007"><ele>1354.25</ele><time>2026-05-02T12:35:09.702Z</time></trkpt><trkpt lat="39.8929306" lon="16.064202"><ele>1354.0</ele><time>2026-05-02T12:35:10.712Z</time></trkpt><trkpt lat="39.8928449" lon="16.0643435"><ele>1354.0</ele><time>2026-05-02T12:35:11.712Z</time></trkpt><trkpt lat="39.8927657" lon="16.0645007"><ele>1354.0</ele><time>2026-05-02T12:35:12.705Z</time></trkpt><trkpt lat="39.8926886" lon="16.0646584"><ele>1354.0</ele><time>2026-05-02T12:35:13.704Z</time></trkpt><trkpt lat="39.8926169" lon="16.0648099"><ele>1354.0</ele><time>2026-05-02T12:35:14.706Z</time></trkpt><trkpt lat="39.8925505" lon="16.0649615"><ele>1352.6</ele><time>2026-05-02T12:35:15.704Z</time></trkpt><trkpt lat="39.8925039" lon="16.0651191"><ele>1351.2</ele><time>2026-05-02T12:35:16.701Z</time></trkpt><trkpt lat="39.8924772" lon="16.0652687"><ele>1349.8</ele><time>2026-05-02T12:35:17.717Z</time></trkpt><trkpt lat="39.8924511" lon="16.0654"><ele>1348.3999999999999</ele><time>2026-05-02T12:35:18.715Z</time></trkpt><trkpt lat="39.8924327" lon="16.0655082"><ele>1347.0</ele><time>2026-05-02T12:35:19.707Z</time></trkpt><trkpt lat="39.8924202" lon="16.0656001"><ele>1346.9999999999998</ele><time>2026-05-02T12:35:20.714Z</time></trkpt><trkpt lat="39.8924075" lon="16.0656905"><ele>1347.0</ele><time>2026-05-02T12:35:21.708Z</time></trkpt><trkpt lat="39.8924048" lon="16.065781"><ele>1347.0</ele><time>2026-05-02T12:35:22.7Z</time></trkpt><trkpt lat="39.8924131" lon="16.0658734"><ele>1347.0</ele><time>2026-05-02T12:35:23.715Z</time></trkpt><trkpt lat="39.8924248" lon="16.0659634"><ele>1347.0</ele><time>2026-05-02T12:35:24.713Z</time></trkpt><trkpt lat="39.8924477" lon="16.0660512"><ele>1346.9999999999998</ele><time>2026-05-02T12:35:25.711Z</time></trkpt><trkpt lat="39.8924819" lon="16.0661322"><ele>1347.0</ele><time>2026-05-02T12:35:26.718Z</time></trkpt><trkpt lat="39.8925205" lon="16.0662122"><ele>1348.7142857142856</ele><time>2026-05-02T12:35:27.724Z</time></trkpt><trkpt lat="39.8925572" lon="16.0662926"><ele>1350.4285714285713</ele><time>2026-05-02T12:35:28.716Z</time></trkpt><trkpt lat="39.8925914" lon="16.0663716"><ele>1352.142857142857</ele><time>2026-05-02T12:35:29.702Z</time></trkpt><trkpt lat="39.8926209" lon="16.0664484"><ele>1353.8571428571427</ele><time>2026-05-02T12:35:30.712Z</time></trkpt><trkpt lat="39.8926471" lon="16.0665242"><ele>1355.5714285714284</ele><time>2026-05-02T12:35:31.718Z</time></trkpt><trkpt lat="39.8926774" lon="16.0666011"><ele>1357.2857142857142</ele><time>2026-05-02T12:35:32.708Z</time></trkpt><trkpt lat="39.892704" lon="16.0666815"><ele>1359.0</ele><time>2026-05-02T12:35:33.709Z</time></trkpt><trkpt lat="39.8927298" lon="16.0667654"><ele>1366.2</ele><time>2026-05-02T12:35:34.718Z</time></trkpt><trkpt lat="39.8927638" lon="16.0668501"><ele>1373.4</ele><time>2026-05-02T12:35:35.705Z</time></trkpt><trkpt lat="39.8928172" lon="16.066939"><ele>1380.6</ele><time>2026-05-02T12:35:36.717Z</time></trkpt><trkpt lat="39.8929009" lon="16.0670176"><ele>1387.8</ele><time>2026-05-02T12:35:37.7Z</time></trkpt><trkpt lat="39.8930025" lon="16.0670813"><ele>1395.0</ele><time>2026-05-02T12:35:38.695Z</time></trkpt><trkpt lat="39.893116" lon="16.0671352"><ele>1395.0</ele><time>2026-05-02T12:35:39.7Z</time></trkpt><trkpt lat="39.893237" lon="16.0671732"><ele>1395.0</ele><time>2026-05-02T12:35:40.707Z</time></trkpt><trkpt lat="39.8933618" lon="16.0671959"><ele>1395.0</ele><time>2026-05-02T12:35:41.716Z</time></trkpt><trkpt lat="39.8934766" lon="16.0672132"><ele>1395.0</ele><time>2026-05-02T12:35:42.713Z</time></trkpt><trkpt lat="39.8935861" lon="16.067243"><ele>1402.25</ele><time>2026-05-02T12:35:43.702Z</time></trkpt><trkpt lat="39.8936981" lon="16.0672751"><ele>1409.5</ele><time>2026-05-02T12:35:44.718Z</time></trkpt><trkpt lat="39.8938126" lon="16.0673079"><ele>1416.75</ele><time>2026-05-02T12:35:45.705Z</time></trkpt><trkpt lat="39.8939293" lon="16.06736"><ele>1424.0</ele><time>2026-05-02T12:35:46.709Z</time></trkpt><trkpt lat="39.8940418" lon="16.0674273"><ele>1418.6666666666667</ele><time>2026-05-02T12:35:47.702Z</time></trkpt><trkpt lat="39.8941313" lon="16.0674887"><ele>1413.3333333333335</ele><time>2026-05-02T12:35:48.709Z</time></trkpt><trkpt lat="39.8941891" lon="16.0675423"><ele>1408.0</ele><time>2026-05-02T12:35:49.71Z</time></trkpt><trkpt lat="39.8942218" lon="16.0676148"><ele>1402.6666666666667</ele><time>2026-05-02T12:35:50.701Z</time></trkpt><trkpt lat="39.8942421" lon="16.0677162"><ele>1397.3333333333333</ele><time>2026-05-02T12:35:51.693Z</time></trkpt><trkpt lat="39.8942444" lon="16.0678288"><ele>1392.0</ele><time>2026-05-02T12:35:52.692Z</time></trkpt><trkpt lat="39.8942233" lon="16.0679648"><ele>1392.0</ele><time>2026-05-02T12:35:53.697Z</time></trkpt><trkpt lat="39.8941926" lon="16.0681161"><ele>1392.0</ele><time>2026-05-02T12:35:54.706Z</time></trkpt><trkpt lat="39.8941522" lon="16.0682857"><ele>1392.0</ele><time>2026-05-02T12:35:55.7Z</time></trkpt><trkpt lat="39.8941135" lon="16.0684473"><ele>1392.0</ele><time>2026-05-02T12:35:56.708Z</time></trkpt><trkpt lat="39.8940792" lon="16.0685968"><ele>1390.5</ele><time>2026-05-02T12:35:57.707Z</time></trkpt><trkpt lat="39.89406" lon="16.0687513"><ele>1389.0</ele><time>2026-05-02T12:35:58.711Z</time></trkpt><trkpt lat="39.8940706" lon="16.0689146"><ele>1387.5</ele><time>2026-05-02T12:35:59.709Z</time></trkpt><trkpt lat="39.8941025" lon="16.0690796"><ele>1386.0</ele><time>2026-05-02T12:36:00.696Z</time></trkpt><trkpt lat="39.89416" lon="16.0692476"><ele>1386.0</ele><time>2026-05-02T12:36:01.707Z</time></trkpt><trkpt lat="39.8942361" lon="16.0694093"><ele>1386.0</ele><time>2026-05-02T12:36:02.709Z</time></trkpt><trkpt lat="39.8943409" lon="16.0695477"><ele>1386.0</ele><time>2026-05-02T12:36:03.708Z</time></trkpt><trkpt lat="39.8944624" lon="16.0696843"><ele>1394.0</ele><time>2026-05-02T12:36:04.709Z</time></trkpt><trkpt lat="39.8945798" lon="16.0698323"><ele>1402.0</ele><time>2026-05-02T12:36:05.706Z</time></trkpt><trkpt lat="39.8946738" lon="16.0699833"><ele>1410.0</ele><time>2026-05-02T12:36:06.705Z</time></trkpt><trkpt lat="39.8947504" lon="16.070104"><ele>1418.0</ele><time>2026-05-02T12:36:07.697Z</time></trkpt><trkpt lat="39.8948096" lon="16.0702107"><ele>1418.0</ele><time>2026-05-02T12:36:08.705Z</time></trkpt><trkpt lat="39.894851" lon="16.0703235"><ele>1418.0</ele><time>2026-05-02T12:36:09.702Z</time></trkpt><trkpt lat="39.8948623" lon="16.0704509"><ele>1418.0</ele><time>2026-05-02T12:36:10.703Z</time></trkpt><trkpt lat="39.8948425" lon="16.0705911"><ele>1418.0</ele><time>2026-05-02T12:36:11.699Z</time></trkpt><trkpt lat="39.8948093" lon="16.0707317"><ele>1418.0</ele><time>2026-05-02T12:36:12.703Z</time></trkpt><trkpt lat="39.894763" lon="16.0708823"><ele>1416.0</ele><time>2026-05-02T12:36:13.718Z</time></trkpt><trkpt lat="39.8947253" lon="16.0710406"><ele>1414.0</ele><time>2026-05-02T12:36:14.706Z</time></trkpt><trkpt lat="39.8947044" lon="16.0712026"><ele>1412.0</ele><time>2026-05-02T12:36:15.707Z</time></trkpt><trkpt lat="39.894713" lon="16.0713739"><ele>1410.0</ele><time>2026-05-02T12:36:16.702Z</time></trkpt><trkpt lat="39.8947496" lon="16.0715543"><ele>1411.5</ele><time>2026-05-02T12:36:17.707Z</time></trkpt><trkpt lat="39.8947832" lon="16.0717431"><ele>1413.0</ele><time>2026-05-02T12:36:18.697Z</time></trkpt><trkpt lat="39.8948016" lon="16.0719285"><ele>1414.5</ele><time>2026-05-02T12:36:19.714Z</time></trkpt><trkpt lat="39.8948" lon="16.0721255"><ele>1416.0</ele><time>2026-05-02T12:36:20.708Z</time></trkpt><trkpt lat="39.8947985" lon="16.0723216"><ele>1417.5</ele><time>2026-05-02T12:36:21.709Z</time></trkpt><trkpt lat="39.8947822" lon="16.0725193"><ele>1419.0</ele><time>2026-05-02T12:36:22.712Z</time></trkpt><trkpt lat="39.8947632" lon="16.0727044"><ele>1420.5</ele><time>2026-05-02T12:36:23.704Z</time></trkpt><trkpt lat="39.8947523" lon="16.0728599"><ele>1422.0</ele><time>2026-05-02T12:36:24.717Z</time></trkpt><trkpt lat="39.8947156" lon="16.0730066"><ele>1422.0</ele><time>2026-05-02T12:36:25.702Z</time></trkpt><trkpt lat="39.894656" lon="16.07316"><ele>1422.0</ele><time>2026-05-02T12:36:26.712Z</time></trkpt><trkpt lat="39.8945798" lon="16.0733102"><ele>1422.0</ele><time>2026-05-02T12:36:27.706Z</time></trkpt><trkpt lat="39.8944932" lon="16.0734684"><ele>1422.0</ele><time>2026-05-02T12:36:28.703Z</time></trkpt><trkpt lat="39.8944132" lon="16.0736279"><ele>1425.75</ele><time>2026-05-02T12:36:29.708Z</time></trkpt><trkpt lat="39.8943454" lon="16.0737604"><ele>1429.5</ele><time>2026-05-02T12:36:30.7Z</time></trkpt><trkpt lat="39.8942703" lon="16.0738563"><ele>1433.25</ele><time>2026-05-02T12:36:31.71Z</time></trkpt><trkpt lat="39.8941783" lon="16.0739356"><ele>1437.0</ele><time>2026-05-02T12:36:32.715Z</time></trkpt><trkpt lat="39.8940673" lon="16.0740145"><ele>1426.75</ele><time>2026-05-02T12:36:33.704Z</time></trkpt><trkpt lat="39.8939457" lon="16.074075"><ele>1416.5</ele><time>2026-05-02T12:36:34.701Z</time></trkpt><trkpt lat="39.8938208" lon="16.0740926"><ele>1406.25</ele><time>2026-05-02T12:36:35.714Z</time></trkpt><trkpt lat="39.8937123" lon="16.0740915"><ele>1396.0</ele><time>2026-05-02T12:36:36.702Z</time></trkpt><trkpt lat="39.8936246" lon="16.0740829"><ele>1396.0</ele><time>2026-05-02T12:36:37.711Z</time></trkpt><trkpt lat="39.8935377" lon="16.0740962"><ele>1396.0</ele><time>2026-05-02T12:36:38.706Z</time></trkpt><trkpt lat="39.8934573" lon="16.0741577"><ele>1396.0</ele><time>2026-05-02T12:36:39.706Z</time></trkpt><trkpt lat="39.8933925" lon="16.0742506"><ele>1396.0</ele><time>2026-05-02T12:36:40.694Z</time></trkpt><trkpt lat="39.8933536" lon="16.0743648"><ele>1396.0</ele><time>2026-05-02T12:36:41.704Z</time></trkpt><trkpt lat="39.8933598" lon="16.0744802"><ele>1397.5</ele><time>2026-05-02T12:36:42.701Z</time></trkpt><trkpt lat="39.8933898" lon="16.0746149"><ele>1399.0</ele><time>2026-05-02T12:36:43.7Z</time></trkpt><trkpt lat="39.8934278" lon="16.0747598"><ele>1400.5</ele><time>2026-05-02T12:36:44.709Z</time></trkpt><trkpt lat="39.8934633" lon="16.0749041"><ele>1402.0</ele><time>2026-05-02T12:36:45.706Z</time></trkpt><trkpt lat="39.8935086" lon="16.0750421"><ele>1410.75</ele><time>2026-05-02T12:36:46.718Z</time></trkpt><trkpt lat="39.8935751" lon="16.0751695"><ele>1419.5</ele><time>2026-05-02T12:36:47.711Z</time></trkpt><trkpt lat="39.8936703" lon="16.0752745"><ele>1428.25</ele><time>2026-05-02T12:36:48.714Z</time></trkpt><trkpt lat="39.8937936" lon="16.0753419"><ele>1437.0</ele><time>2026-05-02T12:36:49.702Z</time></trkpt><trkpt lat="39.8939254" lon="16.0754109"><ele>1437.0</ele><time>2026-05-02T12:36:50.712Z</time></trkpt><trkpt lat="39.8940514" lon="16.0754943"><ele>1437.0</ele><time>2026-05-02T12:36:51.698Z</time></trkpt><trkpt lat="39.8941454" lon="16.0755777"><ele>1437.0</ele><time>2026-05-02T12:36:52.711Z</time></trkpt><trkpt lat="39.8942107" lon="16.0756518"><ele>1437.0</ele><time>2026-05-02T12:36:53.71Z</time></trkpt><trkpt lat="39.8942571" lon="16.0757422"><ele>1437.0</ele><time>2026-05-02T12:36:54.714Z</time></trkpt><trkpt lat="39.8942789" lon="16.0758393"><ele>1436.0</ele><time>2026-05-02T12:36:55.723Z</time></trkpt><trkpt lat="39.8942646" lon="16.0759452"><ele>1435.0</ele><time>2026-05-02T12:36:56.701Z</time></trkpt><trkpt lat="39.894234" lon="16.0760833"><ele>1434.0</ele><time>2026-05-02T12:36:57.701Z</time></trkpt><trkpt lat="39.89418" lon="16.0762408"><ele>1433.0</ele><time>2026-05-02T12:36:58.711Z</time></trkpt><trkpt lat="39.8941048" lon="16.0763762"><ele>1433.0</ele><time>2026-05-02T12:36:59.702Z</time></trkpt><trkpt lat="39.8940133" lon="16.0765141"><ele>1433.0</ele><time>2026-05-02T12:37:00.712Z</time></trkpt><trkpt lat="39.8939294" lon="16.076669"><ele>1433.0</ele><time>2026-05-02T12:37:01.707Z</time></trkpt><trkpt lat="39.8938606" lon="16.076856"><ele>1433.0</ele><time>2026-05-02T12:37:02.709Z</time></trkpt><trkpt lat="39.8937796" lon="16.0770488"><ele>1437.0</ele><time>2026-05-02T12:37:03.706Z</time></trkpt><trkpt lat="39.8936885" lon="16.0772181"><ele>1441.0</ele><time>2026-05-02T12:37:04.706Z</time></trkpt><trkpt lat="39.8936051" lon="16.0773623"><ele>1445.0</ele><time>2026-05-02T12:37:05.71Z</time></trkpt><trkpt lat="39.893538" lon="16.0774968"><ele>1449.0</ele><time>2026-05-02T12:37:06.715Z</time></trkpt><trkpt lat="39.893478" lon="16.077651"><ele>1445.75</ele><time>2026-05-02T12:37:07.708Z</time></trkpt><trkpt lat="39.8934442" lon="16.0778287"><ele>1442.5</ele><time>2026-05-02T12:37:08.706Z</time></trkpt><trkpt lat="39.8934254" lon="16.0780211"><ele>1439.25</ele><time>2026-05-02T12:37:09.706Z</time></trkpt><trkpt lat="39.8933975" lon="16.0782097"><ele>1436.0</ele><time>2026-05-02T12:37:10.712Z</time></trkpt><trkpt lat="39.89338" lon="16.078375"><ele>1436.0</ele><time>2026-05-02T12:37:11.701Z</time></trkpt><trkpt lat="39.8933862" lon="16.0785221"><ele>1436.0</ele><time>2026-05-02T12:37:12.714Z</time></trkpt><trkpt lat="39.8934206" lon="16.0786527"><ele>1436.0</ele><time>2026-05-02T12:37:13.712Z</time></trkpt><trkpt lat="39.8934726" lon="16.0787542"><ele>1436.0</ele><time>2026-05-02T12:37:14.708Z</time></trkpt><trkpt lat="39.8935468" lon="16.0788252"><ele>1436.0</ele><time>2026-05-02T12:37:15.7Z</time></trkpt><trkpt lat="39.8936476" lon="16.0788582"><ele>1442.1999999999998</ele><time>2026-05-02T12:37:16.71Z</time></trkpt><trkpt lat="39.8937648" lon="16.0788511"><ele>1448.3999999999999</ele><time>2026-05-02T12:37:17.696Z</time></trkpt><trkpt lat="39.8938898" lon="16.078823"><ele>1454.6</ele><time>2026-05-02T12:37:18.726Z</time></trkpt><trkpt lat="39.8939833" lon="16.0788225"><ele>1460.8</ele><time>2026-05-02T12:37:19.704Z</time></trkpt><trkpt lat="39.8940648" lon="16.0788527"><ele>1467.0</ele><time>2026-05-02T12:37:20.711Z</time></trkpt><trkpt lat="39.8941287" lon="16.0789409"><ele>1467.0</ele><time>2026-05-02T12:37:21.698Z</time></trkpt><trkpt lat="39.8941502" lon="16.0790691"><ele>1467.0</ele><time>2026-05-02T12:37:22.697Z</time></trkpt><trkpt lat="39.8941374" lon="16.0792178"><ele>1467.0</ele><time>2026-05-02T12:37:23.711Z</time></trkpt><trkpt lat="39.8940956" lon="16.0793595"><ele>1467.0</ele><time>2026-05-02T12:37:24.706Z</time></trkpt><trkpt lat="39.8940438" lon="16.0794973"><ele>1468.0</ele><time>2026-05-02T12:37:25.706Z</time></trkpt><trkpt lat="39.8939872" lon="16.0796451"><ele>1469.0</ele><time>2026-05-02T12:37:26.698Z</time></trkpt><trkpt lat="39.8939216" lon="16.0797859"><ele>1470.0</ele><time>2026-05-02T12:37:27.71Z</time></trkpt><trkpt lat="39.8938523" lon="16.079919"><ele>1471.0</ele><time>2026-05-02T12:37:28.698Z</time></trkpt><trkpt lat="39.8937847" lon="16.0800395"><ele>1471.0</ele><time>2026-05-02T12:37:29.693Z</time></trkpt><trkpt lat="39.8937384" lon="16.0801435"><ele>1471.0</ele><time>2026-05-02T12:37:30.711Z</time></trkpt><trkpt lat="39.8937073" lon="16.0802332"><ele>1471.0</ele><time>2026-05-02T12:37:31.702Z</time></trkpt><trkpt lat="39.8936811" lon="16.080376"><ele>1471.0</ele><time>2026-05-02T12:37:33.708Z</time></trkpt><trkpt lat="39.8936761" lon="16.0805077"><ele>1471.0</ele><time>2026-05-02T12:37:35.705Z</time></trkpt><trkpt lat="39.8936888" lon="16.0806037"><ele>1471.0</ele><time>2026-05-02T12:37:36.716Z</time></trkpt><trkpt lat="39.893707" lon="16.080706"><ele>1471.0</ele><time>2026-05-02T12:37:37.717Z</time></trkpt><trkpt lat="39.893731" lon="16.0808251"><ele>1471.0</ele><time>2026-05-02T12:37:38.699Z</time></trkpt><trkpt lat="39.8937695" lon="16.0809543"><ele>1471.0</ele><time>2026-05-02T12:37:39.701Z</time></trkpt><trkpt lat="39.8938181" lon="16.0810871"><ele>1471.0</ele><time>2026-05-02T12:37:40.715Z</time></trkpt><trkpt lat="39.8938762" lon="16.0812222"><ele>1473.75</ele><time>2026-05-02T12:37:41.703Z</time></trkpt><trkpt lat="39.8939339" lon="16.0813692"><ele>1476.5</ele><time>2026-05-02T12:37:42.715Z</time></trkpt><trkpt lat="39.8939915" lon="16.0815256"><ele>1479.25</ele><time>2026-05-02T12:37:43.706Z</time></trkpt><trkpt lat="39.8940549" lon="16.0816844"><ele>1482.0</ele><time>2026-05-02T12:37:44.711Z</time></trkpt><trkpt lat="39.8941304" lon="16.0818313"><ele>1482.0</ele><time>2026-05-02T12:37:45.709Z</time></trkpt><trkpt lat="39.8941989" lon="16.0819521"><ele>1482.0</ele><time>2026-05-02T12:37:46.703Z</time></trkpt><trkpt lat="39.8942487" lon="16.0820581"><ele>1482.0</ele><time>2026-05-02T12:37:47.708Z</time></trkpt><trkpt lat="39.8942744" lon="16.0821768"><ele>1482.0</ele><time>2026-05-02T12:37:48.707Z</time></trkpt><trkpt lat="39.894276" lon="16.0823088"><ele>1482.0</ele><time>2026-05-02T12:37:49.7Z</time></trkpt><trkpt lat="39.8942545" lon="16.0824473"><ele>1481.0</ele><time>2026-05-02T12:37:50.705Z</time></trkpt><trkpt lat="39.8942063" lon="16.0826077"><ele>1480.0</ele><time>2026-05-02T12:37:51.702Z</time></trkpt><trkpt lat="39.8941456" lon="16.0827866"><ele>1479.0</ele><time>2026-05-02T12:37:52.71Z</time></trkpt><trkpt lat="39.8940862" lon="16.0829641"><ele>1478.0</ele><time>2026-05-02T12:37:53.717Z</time></trkpt><trkpt lat="39.8940274" lon="16.0831158"><ele>1478.0</ele><time>2026-05-02T12:37:54.707Z</time></trkpt><trkpt lat="39.893965" lon="16.0832514"><ele>1478.0</ele><time>2026-05-02T12:37:55.71Z</time></trkpt><trkpt lat="39.8938953" lon="16.0833782"><ele>1478.0</ele><time>2026-05-02T12:37:56.709Z</time></trkpt><trkpt lat="39.8937998" lon="16.0834909"><ele>1478.0</ele><time>2026-05-02T12:37:57.709Z</time></trkpt><trkpt lat="39.8937022" lon="16.083602"><ele>1481.5</ele><time>2026-05-02T12:37:58.71Z</time></trkpt><trkpt lat="39.8936213" lon="16.0837271"><ele>1485.0</ele><time>2026-05-02T12:37:59.708Z</time></trkpt><trkpt lat="39.8935612" lon="16.0838811"><ele>1488.5</ele><time>2026-05-02T12:38:00.714Z</time></trkpt><trkpt lat="39.8935272" lon="16.0840555"><ele>1492.0</ele><time>2026-05-02T12:38:01.707Z</time></trkpt><trkpt lat="39.8935107" lon="16.0842427"><ele>1494.25</ele><time>2026-05-02T12:38:02.711Z</time></trkpt><trkpt lat="39.8935045" lon="16.0844023"><ele>1496.5</ele><time>2026-05-02T12:38:03.716Z</time></trkpt><trkpt lat="39.8935076" lon="16.0845544"><ele>1498.75</ele><time>2026-05-02T12:38:04.706Z</time></trkpt><trkpt lat="39.8935206" lon="16.0847133"><ele>1501.0</ele><time>2026-05-02T12:38:05.718Z</time></trkpt><trkpt lat="39.8935474" lon="16.0848763"><ele>1498.5</ele><time>2026-05-02T12:38:06.726Z</time></trkpt><trkpt lat="39.893569" lon="16.0850459"><ele>1496.0</ele><time>2026-05-02T12:38:07.705Z</time></trkpt><trkpt lat="39.8935795" lon="16.085205"><ele>1493.5</ele><time>2026-05-02T12:38:08.709Z</time></trkpt><trkpt lat="39.8935793" lon="16.0853624"><ele>1491.0</ele><time>2026-05-02T12:38:09.712Z</time></trkpt><trkpt lat="39.893561" lon="16.0855267"><ele>1491.0</ele><time>2026-05-02T12:38:10.718Z</time></trkpt><trkpt lat="39.8935237" lon="16.0856914"><ele>1491.0</ele><time>2026-05-02T12:38:11.706Z</time></trkpt><trkpt lat="39.8934712" lon="16.085842"><ele>1491.0</ele><time>2026-05-02T12:38:12.711Z</time></trkpt><trkpt lat="39.8934291" lon="16.0859939"><ele>1491.0</ele><time>2026-05-02T12:38:13.708Z</time></trkpt><trkpt lat="39.8933964" lon="16.0861627"><ele>1483.5</ele><time>2026-05-02T12:38:14.718Z</time></trkpt><trkpt lat="39.8933739" lon="16.086344"><ele>1476.0</ele><time>2026-05-02T12:38:15.714Z</time></trkpt><trkpt lat="39.8933633" lon="16.0865184"><ele>1468.5</ele><time>2026-05-02T12:38:16.713Z</time></trkpt><trkpt lat="39.8933593" lon="16.0866663"><ele>1461.0</ele><time>2026-05-02T12:38:17.691Z</time></trkpt><trkpt lat="39.8933554" lon="16.0867848"><ele>1461.0</ele><time>2026-05-02T12:38:18.727Z</time></trkpt><trkpt lat="39.8933578" lon="16.0868676"><ele>1461.0</ele><time>2026-05-02T12:38:19.706Z</time></trkpt><trkpt lat="39.8933613" lon="16.0869612"><ele>1461.0</ele><time>2026-05-02T12:38:21.716Z</time></trkpt><trkpt lat="39.893313" lon="16.0870433"><ele>1461.0</ele><time>2026-05-02T12:38:32.704Z</time></trkpt><trkpt lat="39.8933406" lon="16.0871552"><ele>1461.0</ele><time>2026-05-02T12:41:25.716Z</time></trkpt><trkpt lat="39.893422" lon="16.0872772"><ele>1461.0</ele><time>2026-05-02T12:41:27.703Z</time></trkpt><trkpt lat="39.8934862" lon="16.0873004"><ele>1462.1999999999998</ele><time>2026-05-02T12:41:28.714Z</time></trkpt><trkpt lat="39.8935598" lon="16.0872927"><ele>1463.3999999999999</ele><time>2026-05-02T12:41:29.708Z</time></trkpt><trkpt lat="39.8936445" lon="16.0872526"><ele>1464.6</ele><time>2026-05-02T12:41:30.71Z</time></trkpt><trkpt lat="39.8937494" lon="16.0871944"><ele>1465.8</ele><time>2026-05-02T12:41:31.709Z</time></trkpt><trkpt lat="39.8938516" lon="16.0871333"><ele>1467.0</ele><time>2026-05-02T12:41:32.712Z</time></trkpt><trkpt lat="39.8939433" lon="16.0870579"><ele>1467.0</ele><time>2026-05-02T12:41:33.711Z</time></trkpt><trkpt lat="39.8940296" lon="16.0869633"><ele>1467.0</ele><time>2026-05-02T12:41:34.711Z</time></trkpt><trkpt lat="39.8941164" lon="16.0868465"><ele>1467.0</ele><time>2026-05-02T12:41:35.697Z</time></trkpt><trkpt lat="39.8941918" lon="16.086706"><ele>1467.0</ele><time>2026-05-02T12:41:36.686Z</time></trkpt><trkpt lat="39.8942512" lon="16.0865483"><ele>1469.6</ele><time>2026-05-02T12:41:37.681Z</time></trkpt><trkpt lat="39.8943071" lon="16.0863972"><ele>1472.1999999999998</ele><time>2026-05-02T12:41:38.685Z</time></trkpt><trkpt lat="39.894359" lon="16.086272"><ele>1474.8</ele><time>2026-05-02T12:41:39.703Z</time></trkpt><trkpt lat="39.8944003" lon="16.086163"><ele>1477.4</ele><time>2026-05-02T12:41:40.697Z</time></trkpt><trkpt lat="39.8944447" lon="16.08607"><ele>1480.0</ele><time>2026-05-02T12:41:41.694Z</time></trkpt><trkpt lat="39.8945464" lon="16.0859708"><ele>1480.0</ele><time>2026-05-02T12:41:43.691Z</time></trkpt><trkpt lat="39.8946163" lon="16.0859547"><ele>1480.0</ele><time>2026-05-02T12:41:44.704Z</time></trkpt><trkpt lat="39.8947025" lon="16.0859715"><ele>1480.0</ele><time>2026-05-02T12:41:45.7Z</time></trkpt><trkpt lat="39.8947982" lon="16.0859997"><ele>1480.0</ele><time>2026-05-02T12:41:46.706Z</time></trkpt><trkpt lat="39.8948961" lon="16.0860581"><ele>1480.0</ele><time>2026-05-02T12:41:47.697Z</time></trkpt><trkpt lat="39.8950099" lon="16.0861421"><ele>1486.5</ele><time>2026-05-02T12:41:48.703Z</time></trkpt><trkpt lat="39.8951251" lon="16.0862306"><ele>1493.0</ele><time>2026-05-02T12:41:49.698Z</time></trkpt><trkpt lat="39.8952325" lon="16.0863385"><ele>1499.5</ele><time>2026-05-02T12:41:50.687Z</time></trkpt><trkpt lat="39.8953198" lon="16.0864497"><ele>1506.0</ele><time>2026-05-02T12:41:51.703Z</time></trkpt><trkpt lat="39.8953965" lon="16.0865406"><ele>1500.8</ele><time>2026-05-02T12:41:52.708Z</time></trkpt><trkpt lat="39.8954646" lon="16.0866193"><ele>1495.6</ele><time>2026-05-02T12:41:53.701Z</time></trkpt><trkpt lat="39.8955309" lon="16.0867236"><ele>1490.4</ele><time>2026-05-02T12:41:54.716Z</time></trkpt><trkpt lat="39.8955916" lon="16.0868584"><ele>1485.2</ele><time>2026-05-02T12:41:55.697Z</time></trkpt><trkpt lat="39.8956486" lon="16.0870068"><ele>1480.0</ele><time>2026-05-02T12:41:56.703Z</time></trkpt><trkpt lat="39.8957146" lon="16.0871459"><ele>1480.0</ele><time>2026-05-02T12:41:57.71Z</time></trkpt><trkpt lat="39.8957934" lon="16.0872775"><ele>1480.0</ele><time>2026-05-02T12:41:58.699Z</time></trkpt><trkpt lat="39.8958833" lon="16.0873856"><ele>1480.0</ele><time>2026-05-02T12:41:59.699Z</time></trkpt><trkpt lat="39.895961" lon="16.0874853"><ele>1480.0</ele><time>2026-05-02T12:42:00.707Z</time></trkpt><trkpt lat="39.896009" lon="16.0875917"><ele>1484.75</ele><time>2026-05-02T12:42:01.702Z</time></trkpt><trkpt lat="39.8960411" lon="16.0877138"><ele>1489.5</ele><time>2026-05-02T12:42:02.695Z</time></trkpt><trkpt lat="39.8960586" lon="16.0878689"><ele>1494.25</ele><time>2026-05-02T12:42:03.704Z</time></trkpt><trkpt lat="39.8960702" lon="16.0880378"><ele>1499.0</ele><time>2026-05-02T12:42:04.701Z</time></trkpt><trkpt lat="39.8960752" lon="16.0882115"><ele>1496.75</ele><time>2026-05-02T12:42:05.713Z</time></trkpt><trkpt lat="39.8960722" lon="16.0883701"><ele>1494.5</ele><time>2026-05-02T12:42:06.701Z</time></trkpt><trkpt lat="39.8960781" lon="16.0885224"><ele>1492.25</ele><time>2026-05-02T12:42:07.718Z</time></trkpt><trkpt lat="39.8961099" lon="16.0886696"><ele>1490.0</ele><time>2026-05-02T12:42:08.716Z</time></trkpt><trkpt lat="39.8961723" lon="16.0888191"><ele>1490.0</ele><time>2026-05-02T12:42:09.703Z</time></trkpt><trkpt lat="39.8962475" lon="16.0889561"><ele>1490.0</ele><time>2026-05-02T12:42:10.716Z</time></trkpt><trkpt lat="39.8963192" lon="16.0890738"><ele>1490.0</ele><time>2026-05-02T12:42:11.708Z</time></trkpt><trkpt lat="39.896382" lon="16.0891791"><ele>1490.0</ele><time>2026-05-02T12:42:12.702Z</time></trkpt><trkpt lat="39.8964359" lon="16.0892764"><ele>1490.0</ele><time>2026-05-02T12:42:13.694Z</time></trkpt><trkpt lat="39.8964774" lon="16.0893661"><ele>1489.6</ele><time>2026-05-02T12:42:14.705Z</time></trkpt><trkpt lat="39.8965105" lon="16.0894677"><ele>1489.2</ele><time>2026-05-02T12:42:15.693Z</time></trkpt><trkpt lat="39.8965215" lon="16.0895888"><ele>1488.8000000000002</ele><time>2026-05-02T12:42:16.708Z</time></trkpt><trkpt lat="39.8965094" lon="16.0897346"><ele>1488.4</ele><time>2026-05-02T12:42:17.709Z</time></trkpt><trkpt lat="39.8964781" lon="16.0899007"><ele>1488.0</ele><time>2026-05-02T12:42:18.691Z</time></trkpt><trkpt lat="39.8964765" lon="16.0900669"><ele>1485.0</ele><time>2026-05-02T12:42:19.706Z</time></trkpt><trkpt lat="39.896504" lon="16.09024"><ele>1482.0</ele><time>2026-05-02T12:42:20.715Z</time></trkpt><trkpt lat="39.8965348" lon="16.0903965"><ele>1479.0</ele><time>2026-05-02T12:42:21.709Z</time></trkpt><trkpt lat="39.8965588" lon="16.090535"><ele>1476.0</ele><time>2026-05-02T12:42:22.705Z</time></trkpt><trkpt lat="39.8965618" lon="16.0906766"><ele>1475.4</ele><time>2026-05-02T12:42:23.706Z</time></trkpt><trkpt lat="39.8965411" lon="16.090795"><ele>1474.8</ele><time>2026-05-02T12:42:24.706Z</time></trkpt><trkpt lat="39.896501" lon="16.0909186"><ele>1474.2</ele><time>2026-05-02T12:42:25.706Z</time></trkpt><trkpt lat="39.8964632" lon="16.0910476"><ele>1473.6000000000001</ele><time>2026-05-02T12:42:26.71Z</time></trkpt><trkpt lat="39.8964442" lon="16.0912068"><ele>1473.0</ele><time>2026-05-02T12:42:27.7Z</time></trkpt><trkpt lat="39.8964665" lon="16.0913904"><ele>1473.0</ele><time>2026-05-02T12:42:28.706Z</time></trkpt><trkpt lat="39.8965014" lon="16.0915894"><ele>1473.0</ele><time>2026-05-02T12:42:29.709Z</time></trkpt><trkpt lat="39.8965332" lon="16.0917982"><ele>1473.0</ele><time>2026-05-02T12:42:30.697Z</time></trkpt><trkpt lat="39.8965611" lon="16.0920106"><ele>1473.3333333333333</ele><time>2026-05-02T12:42:31.707Z</time></trkpt><trkpt lat="39.8965884" lon="16.0922178"><ele>1473.6666666666665</ele><time>2026-05-02T12:42:32.707Z</time></trkpt><trkpt lat="39.8966166" lon="16.0924183"><ele>1474.0</ele><time>2026-05-02T12:42:33.704Z</time></trkpt><trkpt lat="39.8966385" lon="16.0925906"><ele>1473.75</ele><time>2026-05-02T12:42:34.703Z</time></trkpt><trkpt lat="39.8966559" lon="16.0927534"><ele>1473.5</ele><time>2026-05-02T12:42:35.699Z</time></trkpt><trkpt lat="39.8966598" lon="16.092925"><ele>1473.25</ele><time>2026-05-02T12:42:36.703Z</time></trkpt><trkpt lat="39.8966481" lon="16.0930999"><ele>1473.0</ele><time>2026-05-02T12:42:37.704Z</time></trkpt><trkpt lat="39.8966171" lon="16.0932821"><ele>1473.0</ele><time>2026-05-02T12:42:38.711Z</time></trkpt><trkpt lat="39.8965834" lon="16.0934561"><ele>1473.0</ele><time>2026-05-02T12:42:39.708Z</time></trkpt><trkpt lat="39.8965607" lon="16.0936314"><ele>1473.0</ele><time>2026-05-02T12:42:40.716Z</time></trkpt><trkpt lat="39.896542" lon="16.0938026"><ele>1473.0</ele><time>2026-05-02T12:42:41.698Z</time></trkpt><trkpt lat="39.8965246" lon="16.0939476"><ele>1473.0</ele><time>2026-05-02T12:42:42.701Z</time></trkpt><trkpt lat="39.8965134" lon="16.0940826"><ele>1473.0</ele><time>2026-05-02T12:42:43.699Z</time></trkpt><trkpt lat="39.8965081" lon="16.0942141"><ele>1473.0</ele><time>2026-05-02T12:42:44.705Z</time></trkpt><trkpt lat="39.8965253" lon="16.0943518"><ele>1473.0</ele><time>2026-05-02T12:42:45.7Z</time></trkpt><trkpt lat="39.896572" lon="16.0944845"><ele>1473.0</ele><time>2026-05-02T12:42:46.722Z</time></trkpt><trkpt lat="39.8966449" lon="16.0945999"><ele>1473.5</ele><time>2026-05-02T12:42:47.707Z</time></trkpt><trkpt lat="39.8967281" lon="16.0947083"><ele>1474.0</ele><time>2026-05-02T12:42:48.711Z</time></trkpt><trkpt lat="39.8968177" lon="16.0948011"><ele>1474.5</ele><time>2026-05-02T12:42:49.725Z</time></trkpt><trkpt lat="39.8969115" lon="16.0948865"><ele>1475.0</ele><time>2026-05-02T12:42:50.711Z</time></trkpt><trkpt lat="39.897021" lon="16.0949572"><ele>1477.25</ele><time>2026-05-02T12:42:51.708Z</time></trkpt><trkpt lat="39.8971344" lon="16.0950241"><ele>1479.5</ele><time>2026-05-02T12:42:52.708Z</time></trkpt><trkpt lat="39.8972548" lon="16.0950932"><ele>1481.75</ele><time>2026-05-02T12:42:53.706Z</time></trkpt><trkpt lat="39.8973766" lon="16.0951738"><ele>1484.0</ele><time>2026-05-02T12:42:54.709Z</time></trkpt><trkpt lat="39.8974991" lon="16.0952661"><ele>1491.5</ele><time>2026-05-02T12:42:55.714Z</time></trkpt><trkpt lat="39.8976209" lon="16.0953766"><ele>1499.0</ele><time>2026-05-02T12:42:56.714Z</time></trkpt><trkpt lat="39.8977401" lon="16.0954905"><ele>1506.5</ele><time>2026-05-02T12:42:57.709Z</time></trkpt><trkpt lat="39.8978614" lon="16.0956043"><ele>1514.0</ele><time>2026-05-02T12:42:58.705Z</time></trkpt><trkpt lat="39.8979786" lon="16.0957197"><ele>1507.75</ele><time>2026-05-02T12:42:59.708Z</time></trkpt><trkpt lat="39.8980836" lon="16.0958513"><ele>1501.5</ele><time>2026-05-02T12:43:00.705Z</time></trkpt><trkpt lat="39.8981862" lon="16.0959863"><ele>1495.25</ele><time>2026-05-02T12:43:01.698Z</time></trkpt><trkpt lat="39.8982902" lon="16.0961116"><ele>1489.0</ele><time>2026-05-02T12:43:02.702Z</time></trkpt><trkpt lat="39.8983993" lon="16.0962398"><ele>1492.0</ele><time>2026-05-02T12:43:03.71Z</time></trkpt><trkpt lat="39.898491" lon="16.0963878"><ele>1495.0</ele><time>2026-05-02T12:43:04.701Z</time></trkpt><trkpt lat="39.8985602" lon="16.0965504"><ele>1498.0</ele><time>2026-05-02T12:43:05.704Z</time></trkpt><trkpt lat="39.8986056" lon="16.0967165"><ele>1501.0</ele><time>2026-05-02T12:43:06.705Z</time></trkpt><trkpt lat="39.8986325" lon="16.0968731"><ele>1501.0</ele><time>2026-05-02T12:43:07.704Z</time></trkpt><trkpt lat="39.8986605" lon="16.0970103"><ele>1501.0</ele><time>2026-05-02T12:43:08.703Z</time></trkpt><trkpt lat="39.8986939" lon="16.0971347"><ele>1501.0</ele><time>2026-05-02T12:43:09.707Z</time></trkpt><trkpt lat="39.8987527" lon="16.0972642"><ele>1501.0</ele><time>2026-05-02T12:43:10.699Z</time></trkpt><trkpt lat="39.8988433" lon="16.0974032"><ele>1502.5</ele><time>2026-05-02T12:43:11.695Z</time></trkpt><trkpt lat="39.8989483" lon="16.0975304"><ele>1504.0</ele><time>2026-05-02T12:43:12.715Z</time></trkpt><trkpt lat="39.8990642" lon="16.0976465"><ele>1505.5</ele><time>2026-05-02T12:43:13.71Z</time></trkpt><trkpt lat="39.8991893" lon="16.0977588"><ele>1507.0</ele><time>2026-05-02T12:43:14.71Z</time></trkpt><trkpt lat="39.899327" lon="16.0978564"><ele>1507.0</ele><time>2026-05-02T12:43:15.704Z</time></trkpt><trkpt lat="39.8994764" lon="16.0979501"><ele>1507.0</ele><time>2026-05-02T12:43:16.708Z</time></trkpt><trkpt lat="39.8996364" lon="16.0980402"><ele>1507.0</ele><time>2026-05-02T12:43:17.705Z</time></trkpt><trkpt lat="39.8998007" lon="16.0981275"><ele>1507.0</ele><time>2026-05-02T12:43:18.698Z</time></trkpt><trkpt lat="39.8999692" lon="16.0982125"><ele>1507.0</ele><time>2026-05-02T12:43:19.709Z</time></trkpt><trkpt lat="39.9001329" lon="16.0982892"><ele>1507.0</ele><time>2026-05-02T12:43:20.689Z</time></trkpt><trkpt lat="39.9002852" lon="16.0983513"><ele>1510.5</ele><time>2026-05-02T12:43:21.703Z</time></trkpt><trkpt lat="39.9004295" lon="16.0984273"><ele>1514.0</ele><time>2026-05-02T12:43:22.71Z</time></trkpt><trkpt lat="39.9005599" lon="16.098506"><ele>1517.5</ele><time>2026-05-02T12:43:23.713Z</time></trkpt><trkpt lat="39.9006721" lon="16.0985934"><ele>1521.0</ele><time>2026-05-02T12:43:24.703Z</time></trkpt><trkpt lat="39.9007708" lon="16.0986897"><ele>1521.0</ele><time>2026-05-02T12:43:25.696Z</time></trkpt><trkpt lat="39.9008486" lon="16.0987995"><ele>1521.0</ele><time>2026-05-02T12:43:26.708Z</time></trkpt><trkpt lat="39.9008955" lon="16.0989185"><ele>1521.0</ele><time>2026-05-02T12:43:27.709Z</time></trkpt><trkpt lat="39.9009136" lon="16.0990508"><ele>1521.0</ele><time>2026-05-02T12:43:28.72Z</time></trkpt><trkpt lat="39.9009137" lon="16.0992035"><ele>1521.0</ele><time>2026-05-02T12:43:29.704Z</time></trkpt><trkpt lat="39.9008935" lon="16.0993618"><ele>1522.25</ele><time>2026-05-02T12:43:30.71Z</time></trkpt><trkpt lat="39.9008679" lon="16.099502"><ele>1523.5</ele><time>2026-05-02T12:43:31.705Z</time></trkpt><trkpt lat="39.9008347" lon="16.0996254"><ele>1524.75</ele><time>2026-05-02T12:43:32.705Z</time></trkpt><trkpt lat="39.9007803" lon="16.0997696"><ele>1526.0</ele><time>2026-05-02T12:43:33.702Z</time></trkpt><trkpt lat="39.9007088" lon="16.0999208"><ele>1526.0</ele><time>2026-05-02T12:43:34.708Z</time></trkpt><trkpt lat="39.9006106" lon="16.1000562"><ele>1526.0</ele><time>2026-05-02T12:43:35.7Z</time></trkpt><trkpt lat="39.9004908" lon="16.1001977"><ele>1526.0</ele><time>2026-05-02T12:43:36.699Z</time></trkpt><trkpt lat="39.9003624" lon="16.100326"><ele>1526.0</ele><time>2026-05-02T12:43:37.696Z</time></trkpt><trkpt lat="39.9002308" lon="16.1004518"><ele>1526.0</ele><time>2026-05-02T12:43:38.712Z</time></trkpt><trkpt lat="39.9000858" lon="16.1005743"><ele>1526.0</ele><time>2026-05-02T12:43:39.695Z</time></trkpt><trkpt lat="39.8999356" lon="16.1006712"><ele>1528.3333333333335</ele><time>2026-05-02T12:43:40.704Z</time></trkpt><trkpt lat="39.8997793" lon="16.100753"><ele>1530.6666666666667</ele><time>2026-05-02T12:43:41.699Z</time></trkpt><trkpt lat="39.8996317" lon="16.1008247"><ele>1533.0</ele><time>2026-05-02T12:43:42.695Z</time></trkpt><trkpt lat="39.8995084" lon="16.1008835"><ele>1533.0</ele><time>2026-05-02T12:43:43.706Z</time></trkpt><trkpt lat="39.8993982" lon="16.100941"><ele>1533.0</ele><time>2026-05-02T12:43:44.706Z</time></trkpt><trkpt lat="39.8993004" lon="16.1010166"><ele>1533.0</ele><time>2026-05-02T12:43:45.69Z</time></trkpt><trkpt lat="39.8992196" lon="16.1011316"><ele>1533.0</ele><time>2026-05-02T12:43:46.698Z</time></trkpt><trkpt lat="39.8991414" lon="16.101268"><ele>1534.75</ele><time>2026-05-02T12:43:47.707Z</time></trkpt><trkpt lat="39.8990717" lon="16.1014019"><ele>1536.5</ele><time>2026-05-02T12:43:48.714Z</time></trkpt><trkpt lat="39.8989918" lon="16.101514"><ele>1538.25</ele><time>2026-05-02T12:43:49.691Z</time></trkpt><trkpt lat="39.8989002" lon="16.101588"><ele>1540.0</ele><time>2026-05-02T12:43:50.702Z</time></trkpt><trkpt lat="39.8987946" lon="16.1016307"><ele>1540.0</ele><time>2026-05-02T12:43:51.7Z</time></trkpt><trkpt lat="39.8986814" lon="16.1016591"><ele>1540.0</ele><time>2026-05-02T12:43:52.712Z</time></trkpt><trkpt lat="39.8985666" lon="16.1016647"><ele>1540.0</ele><time>2026-05-02T12:43:53.709Z</time></trkpt><trkpt lat="39.8984666" lon="16.1016971"><ele>1540.0</ele><time>2026-05-02T12:43:54.699Z</time></trkpt><trkpt lat="39.8984033" lon="16.1017671"><ele>1540.0</ele><time>2026-05-02T12:43:55.712Z</time></trkpt><trkpt lat="39.89836" lon="16.1018664"><ele>1538.75</ele><time>2026-05-02T12:43:56.706Z</time></trkpt><trkpt lat="39.8983275" lon="16.1019859"><ele>1537.5</ele><time>2026-05-02T12:43:57.707Z</time></trkpt><trkpt lat="39.898308" lon="16.1021262"><ele>1536.25</ele><time>2026-05-02T12:43:58.7Z</time></trkpt><trkpt lat="39.8983155" lon="16.1022844"><ele>1535.0</ele><time>2026-05-02T12:43:59.707Z</time></trkpt><trkpt lat="39.8983368" lon="16.1024559"><ele>1535.0</ele><time>2026-05-02T12:44:00.712Z</time></trkpt><trkpt lat="39.8983582" lon="16.1026337"><ele>1535.0</ele><time>2026-05-02T12:44:01.714Z</time></trkpt><trkpt lat="39.898377" lon="16.1027918"><ele>1535.0</ele><time>2026-05-02T12:44:02.713Z</time></trkpt><trkpt lat="39.8983954" lon="16.1029368"><ele>1535.0</ele><time>2026-05-02T12:44:03.709Z</time></trkpt><trkpt lat="39.8984138" lon="16.1030862"><ele>1535.5</ele><time>2026-05-02T12:44:04.712Z</time></trkpt><trkpt lat="39.8984242" lon="16.103241"><ele>1536.0</ele><time>2026-05-02T12:44:05.717Z</time></trkpt><trkpt lat="39.8984272" lon="16.103398"><ele>1536.5</ele><time>2026-05-02T12:44:06.711Z</time></trkpt><trkpt lat="39.8984058" lon="16.1035572"><ele>1537.0</ele><time>2026-05-02T12:44:07.712Z</time></trkpt><trkpt lat="39.8983674" lon="16.1037217"><ele>1537.0</ele><time>2026-05-02T12:44:08.705Z</time></trkpt><trkpt lat="39.8983092" lon="16.1038864"><ele>1537.0</ele><time>2026-05-02T12:44:09.709Z</time></trkpt><trkpt lat="39.8982435" lon="16.1040588"><ele>1537.0</ele><time>2026-05-02T12:44:10.727Z</time></trkpt><trkpt lat="39.8981804" lon="16.1042283"><ele>1537.0</ele><time>2026-05-02T12:44:11.701Z</time></trkpt><trkpt lat="39.8981266" lon="16.1043702"><ele>1537.1999999999998</ele><time>2026-05-02T12:44:12.708Z</time></trkpt><trkpt lat="39.8980889" lon="16.1044887"><ele>1537.4</ele><time>2026-05-02T12:44:13.719Z</time></trkpt><trkpt lat="39.8980844" lon="16.104598"><ele>1537.6</ele><time>2026-05-02T12:44:14.716Z</time></trkpt><trkpt lat="39.8981104" lon="16.1047076"><ele>1537.8000000000002</ele><time>2026-05-02T12:44:15.705Z</time></trkpt><trkpt lat="39.8981751" lon="16.1048204"><ele>1538.0</ele><time>2026-05-02T12:44:16.704Z</time></trkpt><trkpt lat="39.8982613" lon="16.1049372"><ele>1538.0</ele><time>2026-05-02T12:44:17.71Z</time></trkpt><trkpt lat="39.8983581" lon="16.1050455"><ele>1538.0</ele><time>2026-05-02T12:44:18.706Z</time></trkpt><trkpt lat="39.8984659" lon="16.1051499"><ele>1538.0</ele><time>2026-05-02T12:44:19.713Z</time></trkpt><trkpt lat="39.8985654" lon="16.1052519"><ele>1538.0</ele><time>2026-05-02T12:44:20.727Z</time></trkpt><trkpt lat="39.8986621" lon="16.1053412"><ele>1543.25</ele><time>2026-05-02T12:44:21.71Z</time></trkpt><trkpt lat="39.8987529" lon="16.1054093"><ele>1548.5</ele><time>2026-05-02T12:44:22.701Z</time></trkpt><trkpt lat="39.8988576" lon="16.1054529"><ele>1553.75</ele><time>2026-05-02T12:44:23.712Z</time></trkpt><trkpt lat="39.8989703" lon="16.1054809"><ele>1559.0</ele><time>2026-05-02T12:44:24.713Z</time></trkpt><trkpt lat="39.8990989" lon="16.1054812"><ele>1559.0</ele><time>2026-05-02T12:44:25.695Z</time></trkpt><trkpt lat="39.8992432" lon="16.1054935"><ele>1559.0</ele><time>2026-05-02T12:44:26.71Z</time></trkpt><trkpt lat="39.8993912" lon="16.1055064"><ele>1559.0</ele><time>2026-05-02T12:44:27.695Z</time></trkpt><trkpt lat="39.899527" lon="16.1055001"><ele>1559.0</ele><time>2026-05-02T12:44:28.708Z</time></trkpt><trkpt lat="39.8996454" lon="16.1055132"><ele>1556.25</ele><time>2026-05-02T12:44:29.699Z</time></trkpt><trkpt lat="39.8997529" lon="16.105553"><ele>1553.5</ele><time>2026-05-02T12:44:30.701Z</time></trkpt><trkpt lat="39.8998573" lon="16.1056136"><ele>1550.75</ele><time>2026-05-02T12:44:31.693Z</time></trkpt><trkpt lat="39.8999477" lon="16.1057082"><ele>1548.0</ele><time>2026-05-02T12:44:32.699Z</time></trkpt><trkpt lat="39.9000192" lon="16.1058231"><ele>1548.0</ele><time>2026-05-02T12:44:33.697Z</time></trkpt><trkpt lat="39.9000825" lon="16.1059694"><ele>1548.0</ele><time>2026-05-02T12:44:34.702Z</time></trkpt><trkpt lat="39.9001248" lon="16.106142"><ele>1548.0</ele><time>2026-05-02T12:44:35.702Z</time></trkpt><trkpt lat="39.9001757" lon="16.1063342"><ele>1548.0</ele><time>2026-05-02T12:44:36.704Z</time></trkpt><trkpt lat="39.9002393" lon="16.1065268"><ele>1553.25</ele><time>2026-05-02T12:44:37.705Z</time></trkpt><trkpt lat="39.9003092" lon="16.1067101"><ele>1558.5</ele><time>2026-05-02T12:44:38.701Z</time></trkpt><trkpt lat="39.9003706" lon="16.1068764"><ele>1563.75</ele><time>2026-05-02T12:44:39.693Z</time></trkpt><trkpt lat="39.9004256" lon="16.1070305"><ele>1569.0</ele><time>2026-05-02T12:44:40.714Z</time></trkpt><trkpt lat="39.9004732" lon="16.1071758"><ele>1569.0</ele><time>2026-05-02T12:44:41.708Z</time></trkpt><trkpt lat="39.9005014" lon="16.1073146"><ele>1569.0</ele><time>2026-05-02T12:44:42.725Z</time></trkpt><trkpt lat="39.9005066" lon="16.1074638"><ele>1569.0</ele><time>2026-05-02T12:44:43.715Z</time></trkpt><trkpt lat="39.9005033" lon="16.107613"><ele>1569.0</ele><time>2026-05-02T12:44:44.691Z</time></trkpt><trkpt lat="39.9005062" lon="16.1077506"><ele>1569.0</ele><time>2026-05-02T12:44:45.706Z</time></trkpt><trkpt lat="39.9005333" lon="16.1078795"><ele>1570.5</ele><time>2026-05-02T12:44:46.707Z</time></trkpt><trkpt lat="39.9005863" lon="16.1080061"><ele>1572.0</ele><time>2026-05-02T12:44:47.693Z</time></trkpt><trkpt lat="39.9006836" lon="16.1081225"><ele>1573.5</ele><time>2026-05-02T12:44:48.694Z</time></trkpt><trkpt lat="39.9008019" lon="16.1082368"><ele>1575.0</ele><time>2026-05-02T12:44:49.708Z</time></trkpt><trkpt lat="39.9009207" lon="16.1083459"><ele>1575.0</ele><time>2026-05-02T12:44:50.701Z</time></trkpt><trkpt lat="39.9010167" lon="16.1084584"><ele>1575.0</ele><time>2026-05-02T12:44:51.707Z</time></trkpt><trkpt lat="39.9010968" lon="16.1085861"><ele>1575.0</ele><time>2026-05-02T12:44:52.7Z</time></trkpt><trkpt lat="39.9011725" lon="16.1087379"><ele>1575.0</ele><time>2026-05-02T12:44:53.69Z</time></trkpt><trkpt lat="39.9012468" lon="16.1088969"><ele>1575.0</ele><time>2026-05-02T12:44:54.706Z</time></trkpt><trkpt lat="39.9013297" lon="16.1090574"><ele>1575.0</ele><time>2026-05-02T12:44:55.7Z</time></trkpt><trkpt lat="39.9014159" lon="16.1091952"><ele>1575.0</ele><time>2026-05-02T12:44:56.695Z</time></trkpt><trkpt lat="39.9014915" lon="16.1093047"><ele>1575.0</ele><time>2026-05-02T12:44:57.72Z</time></trkpt><trkpt lat="39.9015688" lon="16.1093889"><ele>1572.0</ele><time>2026-05-02T12:44:58.694Z</time></trkpt><trkpt lat="39.9016472" lon="16.1094449"><ele>1569.0</ele><time>2026-05-02T12:44:59.709Z</time></trkpt><trkpt lat="39.9016983" lon="16.1095014"><ele>1566.0</ele><time>2026-05-02T12:45:00.71Z</time></trkpt><trkpt lat="39.9017241" lon="16.1095809"><ele>1563.0</ele><time>2026-05-02T12:45:01.707Z</time></trkpt><trkpt lat="39.9017277" lon="16.1096875"><ele>1560.0</ele><time>2026-05-02T12:45:02.7Z</time></trkpt><trkpt lat="39.9017151" lon="16.1097982"><ele>1557.0</ele><time>2026-05-02T12:45:03.704Z</time></trkpt><trkpt lat="39.9016897" lon="16.1099196"><ele>1555.0</ele><time>2026-05-02T12:45:04.703Z</time></trkpt><trkpt lat="39.9016527" lon="16.1100455"><ele>1553.0</ele><time>2026-05-02T12:45:05.709Z</time></trkpt><trkpt lat="39.9016464" lon="16.110181"><ele>1551.0</ele><time>2026-05-02T12:45:06.716Z</time></trkpt><trkpt lat="39.9016978" lon="16.1103101"><ele>1549.0</ele><time>2026-05-02T12:45:07.705Z</time></trkpt><trkpt lat="39.901764" lon="16.1104342"><ele>1547.0</ele><time>2026-05-02T12:45:08.697Z</time></trkpt><trkpt lat="39.9018236" lon="16.1105652"><ele>1555.8</ele><time>2026-05-02T12:45:09.708Z</time></trkpt><trkpt lat="39.9018535" lon="16.110706"><ele>1564.6</ele><time>2026-05-02T12:45:10.697Z</time></trkpt><trkpt lat="39.9018456" lon="16.1108531"><ele>1573.3999999999999</ele><time>2026-05-02T12:45:11.699Z</time></trkpt><trkpt lat="39.90185" lon="16.1109919"><ele>1582.1999999999998</ele><time>2026-05-02T12:45:12.701Z</time></trkpt><trkpt lat="39.9018712" lon="16.111126"><ele>1591.0</ele><time>2026-05-02T12:45:13.697Z</time></trkpt><trkpt lat="39.9018855" lon="16.1112525"><ele>1591.0000000000002</ele><time>2026-05-02T12:45:14.716Z</time></trkpt><trkpt lat="39.9018831" lon="16.1113587"><ele>1591.0</ele><time>2026-05-02T12:45:15.702Z</time></trkpt><trkpt lat="39.901861" lon="16.1114502"><ele>1591.0</ele><time>2026-05-02T12:45:16.71Z</time></trkpt><trkpt lat="39.9018252" lon="16.111536"><ele>1591.0</ele><time>2026-05-02T12:45:17.704Z</time></trkpt><trkpt lat="39.9017608" lon="16.1116364"><ele>1591.0000000000002</ele><time>2026-05-02T12:45:18.701Z</time></trkpt><trkpt lat="39.9016971" lon="16.1117379"><ele>1591.0</ele><time>2026-05-02T12:45:19.703Z</time></trkpt><trkpt lat="39.9016356" lon="16.1118441"><ele>1583.75</ele><time>2026-05-02T12:45:20.71Z</time></trkpt><trkpt lat="39.9016071" lon="16.1119543"><ele>1576.5</ele><time>2026-05-02T12:45:21.702Z</time></trkpt><trkpt lat="39.9015882" lon="16.112107"><ele>1569.25</ele><time>2026-05-02T12:45:22.699Z</time></trkpt><trkpt lat="39.901589" lon="16.1122646"><ele>1562.0</ele><time>2026-05-02T12:45:23.713Z</time></trkpt><trkpt lat="39.9016114" lon="16.1124376"><ele>1562.0</ele><time>2026-05-02T12:45:24.704Z</time></trkpt><trkpt lat="39.9016477" lon="16.112596"><ele>1562.0</ele><time>2026-05-02T12:45:25.71Z</time></trkpt><trkpt lat="39.9017097" lon="16.112748"><ele>1562.0</ele><time>2026-05-02T12:45:26.7Z</time></trkpt><trkpt lat="39.9017822" lon="16.1128901"><ele>1562.0</ele><time>2026-05-02T12:45:27.716Z</time></trkpt><trkpt lat="39.9018558" lon="16.1130031"><ele>1572.8</ele><time>2026-05-02T12:45:28.701Z</time></trkpt><trkpt lat="39.9019005" lon="16.1130943"><ele>1583.6</ele><time>2026-05-02T12:45:29.708Z</time></trkpt><trkpt lat="39.9019229" lon="16.1132052"><ele>1594.3999999999999</ele><time>2026-05-02T12:45:30.705Z</time></trkpt><trkpt lat="39.9019129" lon="16.1133277"><ele>1605.1999999999998</ele><time>2026-05-02T12:45:31.704Z</time></trkpt><trkpt lat="39.9018858" lon="16.1134466"><ele>1616.0</ele><time>2026-05-02T12:45:32.704Z</time></trkpt><trkpt lat="39.9018585" lon="16.1135714"><ele>1616.5</ele><time>2026-05-02T12:45:33.701Z</time></trkpt><trkpt lat="39.9018311" lon="16.1137118"><ele>1617.0</ele><time>2026-05-02T12:45:34.699Z</time></trkpt><trkpt lat="39.9018296" lon="16.1138661"><ele>1617.5</ele><time>2026-05-02T12:45:35.691Z</time></trkpt><trkpt lat="39.901852" lon="16.1140354"><ele>1618.0</ele><time>2026-05-02T12:45:36.711Z</time></trkpt><trkpt lat="39.9018956" lon="16.1142122"><ele>1618.25</ele><time>2026-05-02T12:45:37.707Z</time></trkpt><trkpt lat="39.901959" lon="16.1143875"><ele>1618.5</ele><time>2026-05-02T12:45:38.71Z</time></trkpt><trkpt lat="39.9020071" lon="16.1145698"><ele>1618.75</ele><time>2026-05-02T12:45:39.709Z</time></trkpt><trkpt lat="39.9020319" lon="16.1147596"><ele>1619.0</ele><time>2026-05-02T12:45:40.727Z</time></trkpt><trkpt lat="39.9020404" lon="16.1149533"><ele>1618.0</ele><time>2026-05-02T12:45:41.698Z</time></trkpt><trkpt lat="39.9020553" lon="16.1151516"><ele>1617.0</ele><time>2026-05-02T12:45:42.711Z</time></trkpt><trkpt lat="39.9020872" lon="16.1153536"><ele>1616.0</ele><time>2026-05-02T12:45:43.711Z</time></trkpt><trkpt lat="39.9021351" lon="16.1155598"><ele>1614.0</ele><time>2026-05-02T12:45:44.705Z</time></trkpt><trkpt lat="39.9021806" lon="16.1157701"><ele>1612.0</ele><time>2026-05-02T12:45:45.71Z</time></trkpt><trkpt lat="39.9022177" lon="16.1159873"><ele>1610.0</ele><time>2026-05-02T12:45:46.718Z</time></trkpt><trkpt lat="39.9022478" lon="16.1162027"><ele>1610.0</ele><time>2026-05-02T12:45:47.714Z</time></trkpt><trkpt lat="39.9022779" lon="16.1164034"><ele>1610.0</ele><time>2026-05-02T12:45:48.704Z</time></trkpt><trkpt lat="39.902314" lon="16.1165863"><ele>1610.0</ele><time>2026-05-02T12:45:49.709Z</time></trkpt><trkpt lat="39.9023622" lon="16.1167621"><ele>1610.0</ele><time>2026-05-02T12:45:50.719Z</time></trkpt><trkpt lat="39.9024262" lon="16.1169311"><ele>1609.5</ele><time>2026-05-02T12:45:51.708Z</time></trkpt><trkpt lat="39.9025108" lon="16.1170856"><ele>1609.0</ele><time>2026-05-02T12:45:52.716Z</time></trkpt><trkpt lat="39.9025974" lon="16.1172296"><ele>1608.5</ele><time>2026-05-02T12:45:53.701Z</time></trkpt><trkpt lat="39.902686" lon="16.1173536"><ele>1608.0</ele><time>2026-05-02T12:45:54.709Z</time></trkpt><trkpt lat="39.9027992" lon="16.1174428"><ele>1608.0</ele><time>2026-05-02T12:45:55.711Z</time></trkpt><trkpt lat="39.9029352" lon="16.1175112"><ele>1608.0</ele><time>2026-05-02T12:45:56.711Z</time></trkpt><trkpt lat="39.9030823" lon="16.1175607"><ele>1608.0</ele><time>2026-05-02T12:45:57.712Z</time></trkpt><trkpt lat="39.9032477" lon="16.1175949"><ele>1608.0</ele><time>2026-05-02T12:45:58.706Z</time></trkpt><trkpt lat="39.9034135" lon="16.1176384"><ele>1608.0</ele><time>2026-05-02T12:45:59.695Z</time></trkpt><trkpt lat="39.9035818" lon="16.1176996"><ele>1608.0</ele><time>2026-05-02T12:46:00.712Z</time></trkpt><trkpt lat="39.9037469" lon="16.1177774"><ele>1610.3333333333335</ele><time>2026-05-02T12:46:01.709Z</time></trkpt><trkpt lat="39.9039037" lon="16.1178562"><ele>1612.6666666666667</ele><time>2026-05-02T12:46:02.702Z</time></trkpt><trkpt lat="39.9040703" lon="16.1179117"><ele>1615.0</ele><time>2026-05-02T12:46:03.703Z</time></trkpt><trkpt lat="39.9042296" lon="16.117951"><ele>1615.25</ele><time>2026-05-02T12:46:04.704Z</time></trkpt><trkpt lat="39.9043858" lon="16.1180043"><ele>1615.5</ele><time>2026-05-02T12:46:05.713Z</time></trkpt><trkpt lat="39.904517" lon="16.1180651"><ele>1615.75</ele><time>2026-05-02T12:46:06.714Z</time></trkpt><trkpt lat="39.9046439" lon="16.118117"><ele>1616.0</ele><time>2026-05-02T12:46:07.708Z</time></trkpt><trkpt lat="39.9047744" lon="16.1181443"><ele>1616.0</ele><time>2026-05-02T12:46:08.702Z</time></trkpt><trkpt lat="39.9049368" lon="16.118132"><ele>1616.0</ele><time>2026-05-02T12:46:09.696Z</time></trkpt><trkpt lat="39.9051104" lon="16.1181143"><ele>1616.0</ele><time>2026-05-02T12:46:10.708Z</time></trkpt><trkpt lat="39.9052813" lon="16.1180938"><ele>1618.0</ele><time>2026-05-02T12:46:11.712Z</time></trkpt><trkpt lat="39.9054228" lon="16.1181033"><ele>1620.0</ele><time>2026-05-02T12:46:12.696Z</time></trkpt><trkpt lat="39.9055385" lon="16.1181388"><ele>1622.0</ele><time>2026-05-02T12:46:13.704Z</time></trkpt><trkpt lat="39.9056378" lon="16.1182023"><ele>1624.0</ele><time>2026-05-02T12:46:14.702Z</time></trkpt><trkpt lat="39.9057021" lon="16.118311"><ele>1626.0</ele><time>2026-05-02T12:46:15.704Z</time></trkpt><trkpt lat="39.9057369" lon="16.1184537"><ele>1628.0</ele><time>2026-05-02T12:46:16.699Z</time></trkpt><trkpt lat="39.9057879" lon="16.1186159"><ele>1630.0</ele><time>2026-05-02T12:46:17.694Z</time></trkpt><trkpt lat="39.9058512" lon="16.1187916"><ele>1632.0</ele><time>2026-05-02T12:46:18.703Z</time></trkpt><trkpt lat="39.9059145" lon="16.1189673"><ele>1626.75</ele><time>2026-05-02T12:46:19.708Z</time></trkpt><trkpt lat="39.9059794" lon="16.1191367"><ele>1621.5</ele><time>2026-05-02T12:46:20.714Z</time></trkpt><trkpt lat="39.9060337" lon="16.1192978"><ele>1616.25</ele><time>2026-05-02T12:46:21.698Z</time></trkpt><trkpt lat="39.9060751" lon="16.119448"><ele>1611.0</ele><time>2026-05-02T12:46:22.699Z</time></trkpt><trkpt lat="39.9061084" lon="16.1195552"><ele>1611.0</ele><time>2026-05-02T12:46:23.698Z</time></trkpt><trkpt lat="39.9061569" lon="16.1196453"><ele>1611.0</ele><time>2026-05-02T12:46:24.702Z</time></trkpt><trkpt lat="39.9062243" lon="16.119733"><ele>1611.0</ele><time>2026-05-02T12:46:25.704Z</time></trkpt><trkpt lat="39.9063124" lon="16.1198324"><ele>1611.0</ele><time>2026-05-02T12:46:26.698Z</time></trkpt><trkpt lat="39.9064089" lon="16.1199196"><ele>1611.0</ele><time>2026-05-02T12:46:27.698Z</time></trkpt><trkpt lat="39.9064894" lon="16.1199994"><ele>1604.25</ele><time>2026-05-02T12:46:28.706Z</time></trkpt><trkpt lat="39.9065596" lon="16.12006"><ele>1597.5</ele><time>2026-05-02T12:46:29.704Z</time></trkpt><trkpt lat="39.906651" lon="16.1200749"><ele>1590.75</ele><time>2026-05-02T12:46:30.694Z</time></trkpt><trkpt lat="39.9067809" lon="16.1200406"><ele>1584.0</ele><time>2026-05-02T12:46:31.694Z</time></trkpt><trkpt lat="39.9069213" lon="16.1199691"><ele>1593.6666666666665</ele><time>2026-05-02T12:46:32.702Z</time></trkpt><trkpt lat="39.9070585" lon="16.1198867"><ele>1603.3333333333333</ele><time>2026-05-02T12:46:33.705Z</time></trkpt><trkpt lat="39.9072049" lon="16.1198184"><ele>1613.0</ele><time>2026-05-02T12:46:34.699Z</time></trkpt><trkpt lat="39.9073541" lon="16.1197708"><ele>1613.0</ele><time>2026-05-02T12:46:35.686Z</time></trkpt><trkpt lat="39.9074994" lon="16.1197448"><ele>1613.0</ele><time>2026-05-02T12:46:36.7Z</time></trkpt><trkpt lat="39.9076329" lon="16.1197332"><ele>1613.0</ele><time>2026-05-02T12:46:37.702Z</time></trkpt><trkpt lat="39.9077509" lon="16.1197167"><ele>1613.0</ele><time>2026-05-02T12:46:38.705Z</time></trkpt><trkpt lat="39.9078544" lon="16.1197176"><ele>1613.2</ele><time>2026-05-02T12:46:39.702Z</time></trkpt><trkpt lat="39.9079517" lon="16.1197593"><ele>1613.4</ele><time>2026-05-02T12:46:40.702Z</time></trkpt><trkpt lat="39.9080443" lon="16.1197927"><ele>1613.6000000000001</ele><time>2026-05-02T12:46:41.701Z</time></trkpt><trkpt lat="39.9081441" lon="16.1198141"><ele>1613.8000000000002</ele><time>2026-05-02T12:46:42.704Z</time></trkpt><trkpt lat="39.9082296" lon="16.1198318"><ele>1614.0</ele><time>2026-05-02T12:46:43.714Z</time></trkpt><trkpt lat="39.9083247" lon="16.1198546"><ele>1609.6</ele><time>2026-05-02T12:46:44.699Z</time></trkpt><trkpt lat="39.9084092" lon="16.1199089"><ele>1605.2</ele><time>2026-05-02T12:46:45.7Z</time></trkpt><trkpt lat="39.9084823" lon="16.1199782"><ele>1600.8</ele><time>2026-05-02T12:46:46.698Z</time></trkpt><trkpt lat="39.9085296" lon="16.1200866"><ele>1596.3999999999999</ele><time>2026-05-02T12:46:47.701Z</time></trkpt><trkpt lat="39.9085705" lon="16.1201968"><ele>1592.0</ele><time>2026-05-02T12:46:48.7Z</time></trkpt><trkpt lat="39.9086048" lon="16.1203186"><ele>1591.9999999999998</ele><time>2026-05-02T12:46:49.698Z</time></trkpt><trkpt lat="39.908649" lon="16.1204314"><ele>1592.0</ele><time>2026-05-02T12:46:50.704Z</time></trkpt><trkpt lat="39.9087075" lon="16.1205465"><ele>1592.0</ele><time>2026-05-02T12:46:51.703Z</time></trkpt><trkpt lat="39.9087736" lon="16.1206513"><ele>1592.0</ele><time>2026-05-02T12:46:52.708Z</time></trkpt><trkpt lat="39.9088131" lon="16.1207243"><ele>1591.9999999999998</ele><time>2026-05-02T12:46:53.692Z</time></trkpt><trkpt lat="39.9088796" lon="16.1207281"><ele>1592.0</ele><time>2026-05-02T12:46:54.708Z</time></trkpt><trkpt lat="39.9089455" lon="16.120735"><ele>1592.0</ele><time>2026-05-02T12:46:55.698Z</time></trkpt><trkpt lat="39.9090472" lon="16.1206839"><ele>1592.0</ele><time>2026-05-02T12:46:56.698Z</time></trkpt><trkpt lat="39.9091562" lon="16.1206147"><ele>1592.0</ele><time>2026-05-02T12:46:57.701Z</time></trkpt><trkpt lat="39.909277" lon="16.1205613"><ele>1592.0</ele><time>2026-05-02T12:46:58.699Z</time></trkpt><trkpt lat="39.9094018" lon="16.1204866"><ele>1590.6</ele><time>2026-05-02T12:46:59.697Z</time></trkpt><trkpt lat="39.9095128" lon="16.1204139"><ele>1589.1999999999998</ele><time>2026-05-02T12:47:00.705Z</time></trkpt><trkpt lat="39.9095995" lon="16.1204025"><ele>1587.8</ele><time>2026-05-02T12:47:01.711Z</time></trkpt><trkpt lat="39.9096661" lon="16.1204134"><ele>1586.4</ele><time>2026-05-02T12:47:02.701Z</time></trkpt><trkpt lat="39.9097376" lon="16.1205072"><ele>1585.0</ele><time>2026-05-02T12:47:04.697Z</time></trkpt><trkpt lat="39.9098198" lon="16.1205745"><ele>1585.0</ele><time>2026-05-02T12:47:05.7Z</time></trkpt><trkpt lat="39.9098922" lon="16.1206656"><ele>1585.0</ele><time>2026-05-02T12:47:06.697Z</time></trkpt><trkpt lat="39.9099704" lon="16.1207404"><ele>1585.0</ele><time>2026-05-02T12:47:07.701Z</time></trkpt><trkpt lat="39.9100548" lon="16.1207963"><ele>1585.0</ele><time>2026-05-02T12:47:08.707Z</time></trkpt><trkpt lat="39.9101217" lon="16.120841"><ele>1585.0</ele><time>2026-05-02T12:47:09.694Z</time></trkpt><trkpt lat="39.910195" lon="16.1209772"><ele>1584.2</ele><time>2026-05-02T12:47:11.706Z</time></trkpt><trkpt lat="39.910214" lon="16.1210575"><ele>1583.4</ele><time>2026-05-02T12:47:12.703Z</time></trkpt><trkpt lat="39.910207" lon="16.1211966"><ele>1582.6</ele><time>2026-05-02T12:47:14.713Z</time></trkpt><trkpt lat="39.9101762" lon="16.1213657"><ele>1581.8</ele><time>2026-05-02T12:47:16.704Z</time></trkpt><trkpt lat="39.9101541" lon="16.1214826"><ele>1581.0</ele><time>2026-05-02T12:47:17.709Z</time></trkpt><trkpt lat="39.9101391" lon="16.121609"><ele>1579.1999999999998</ele><time>2026-05-02T12:47:18.712Z</time></trkpt><trkpt lat="39.910146" lon="16.1217366"><ele>1577.3999999999999</ele><time>2026-05-02T12:47:19.715Z</time></trkpt><trkpt lat="39.9101864" lon="16.1218684"><ele>1575.6</ele><time>2026-05-02T12:47:20.705Z</time></trkpt><trkpt lat="39.9102353" lon="16.1219949"><ele>1573.8</ele><time>2026-05-02T12:47:21.703Z</time></trkpt><trkpt lat="39.910293" lon="16.1221211"><ele>1572.0</ele><time>2026-05-02T12:47:22.713Z</time></trkpt><trkpt lat="39.9103567" lon="16.1222703"><ele>1570.75</ele><time>2026-05-02T12:47:23.71Z</time></trkpt><trkpt lat="39.9104116" lon="16.1224219"><ele>1569.5</ele><time>2026-05-02T12:47:24.699Z</time></trkpt><trkpt lat="39.9104532" lon="16.1225752"><ele>1568.25</ele><time>2026-05-02T12:47:25.71Z</time></trkpt><trkpt lat="39.9104836" lon="16.122744"><ele>1567.0</ele><time>2026-05-02T12:47:26.71Z</time></trkpt><trkpt lat="39.9105146" lon="16.1229145"><ele>1567.0</ele><time>2026-05-02T12:47:27.713Z</time></trkpt><trkpt lat="39.9105478" lon="16.1230865"><ele>1567.0</ele><time>2026-05-02T12:47:28.716Z</time></trkpt><trkpt lat="39.9105882" lon="16.1232698"><ele>1567.0</ele><time>2026-05-02T12:47:29.703Z</time></trkpt><trkpt lat="39.9106484" lon="16.1234279"><ele>1567.0</ele><time>2026-05-02T12:47:30.705Z</time></trkpt><trkpt lat="39.9107235" lon="16.1235641"><ele>1566.25</ele><time>2026-05-02T12:47:31.711Z</time></trkpt><trkpt lat="39.9108077" lon="16.1236966"><ele>1565.5</ele><time>2026-05-02T12:47:32.714Z</time></trkpt><trkpt lat="39.9109104" lon="16.123832"><ele>1564.75</ele><time>2026-05-02T12:47:33.703Z</time></trkpt><trkpt lat="39.9110261" lon="16.123957"><ele>1564.0</ele><time>2026-05-02T12:47:34.707Z</time></trkpt><trkpt lat="39.9111451" lon="16.1240653"><ele>1563.5</ele><time>2026-05-02T12:47:35.712Z</time></trkpt><trkpt lat="39.9112654" lon="16.1241638"><ele>1563.0</ele><time>2026-05-02T12:47:36.705Z</time></trkpt><trkpt lat="39.9113876" lon="16.1242595"><ele>1562.5</ele><time>2026-05-02T12:47:37.709Z</time></trkpt><trkpt lat="39.9115096" lon="16.1243483"><ele>1562.0</ele><time>2026-05-02T12:47:38.706Z</time></trkpt><trkpt lat="39.9116253" lon="16.1244308"><ele>1560.75</ele><time>2026-05-02T12:47:39.709Z</time></trkpt><trkpt lat="39.9117412" lon="16.1245227"><ele>1559.5</ele><time>2026-05-02T12:47:40.71Z</time></trkpt><trkpt lat="39.9118495" lon="16.1246142"><ele>1558.25</ele><time>2026-05-02T12:47:41.699Z</time></trkpt><trkpt lat="39.91195" lon="16.1246956"><ele>1557.0</ele><time>2026-05-02T12:47:42.708Z</time></trkpt><trkpt lat="39.9120471" lon="16.1247724"><ele>1557.0</ele><time>2026-05-02T12:47:43.707Z</time></trkpt><trkpt lat="39.9121379" lon="16.1248377"><ele>1557.0</ele><time>2026-05-02T12:47:44.71Z</time></trkpt><trkpt lat="39.9122267" lon="16.1249047"><ele>1557.0</ele><time>2026-05-02T12:47:45.707Z</time></trkpt><trkpt lat="39.9123161" lon="16.1249759"><ele>1557.0</ele><time>2026-05-02T12:47:46.71Z</time></trkpt><trkpt lat="39.9124121" lon="16.1250503"><ele>1557.0</ele><time>2026-05-02T12:47:47.717Z</time></trkpt><trkpt lat="39.9125037" lon="16.125124"><ele>1552.6666666666667</ele><time>2026-05-02T12:47:48.718Z</time></trkpt><trkpt lat="39.912582" lon="16.125191"><ele>1548.3333333333333</ele><time>2026-05-02T12:47:49.711Z</time></trkpt><trkpt lat="39.9126564" lon="16.1252497"><ele>1544.0</ele><time>2026-05-02T12:47:50.714Z</time></trkpt><trkpt lat="39.9127244" lon="16.1252948"><ele>1539.6666666666665</ele><time>2026-05-02T12:47:51.733Z</time></trkpt><trkpt lat="39.9127934" lon="16.1253252"><ele>1535.3333333333333</ele><time>2026-05-02T12:47:52.706Z</time></trkpt><trkpt lat="39.912863" lon="16.1253418"><ele>1531.0</ele><time>2026-05-02T12:47:53.708Z</time></trkpt><trkpt lat="39.9129306" lon="16.1253471"><ele>1531.0</ele><time>2026-05-02T12:47:54.716Z</time></trkpt><trkpt lat="39.9129978" lon="16.1253466"><ele>1531.0</ele><time>2026-05-02T12:47:55.712Z</time></trkpt><trkpt lat="39.9130614" lon="16.1253466"><ele>1531.0</ele><time>2026-05-02T12:47:56.724Z</time></trkpt><trkpt lat="39.9131257" lon="16.1253422"><ele>1531.0</ele><time>2026-05-02T12:47:57.716Z</time></trkpt><trkpt lat="39.9132462" lon="16.12533"><ele>1531.0</ele><time>2026-05-02T12:47:59.705Z</time></trkpt><trkpt lat="39.9133637" lon="16.1253164"><ele>1531.0</ele><time>2026-05-02T12:48:01.712Z</time></trkpt><trkpt lat="39.9134303" lon="16.1253129"><ele>1534.1666666666665</ele><time>2026-05-02T12:48:02.724Z</time></trkpt><trkpt lat="39.9134949" lon="16.125314"><ele>1537.3333333333333</ele><time>2026-05-02T12:48:03.703Z</time></trkpt><trkpt lat="39.9136186" lon="16.1253207"><ele>1540.5</ele><time>2026-05-02T12:48:05.703Z</time></trkpt><trkpt lat="39.9137407" lon="16.1253291"><ele>1543.6666666666665</ele><time>2026-05-02T12:48:07.71Z</time></trkpt><trkpt lat="39.9138066" lon="16.1253486"><ele>1546.8333333333333</ele><time>2026-05-02T12:48:08.713Z</time></trkpt><trkpt lat="39.9138697" lon="16.1253902"><ele>1550.0</ele><time>2026-05-02T12:48:09.718Z</time></trkpt><trkpt lat="39.9139312" lon="16.1254445"><ele>1550.0</ele><time>2026-05-02T12:48:10.692Z</time></trkpt><trkpt lat="39.9139989" lon="16.1255129"><ele>1550.0</ele><time>2026-05-02T12:48:11.711Z</time></trkpt><trkpt lat="39.914074" lon="16.1255964"><ele>1550.0</ele><time>2026-05-02T12:48:12.7Z</time></trkpt><trkpt lat="39.9141444" lon="16.125691"><ele>1550.0</ele><time>2026-05-02T12:48:13.708Z</time></trkpt><trkpt lat="39.9142183" lon="16.1258029"><ele>1550.0</ele><time>2026-05-02T12:48:14.703Z</time></trkpt><trkpt lat="39.9142953" lon="16.1259174"><ele>1552.0</ele><time>2026-05-02T12:48:15.719Z</time></trkpt><trkpt lat="39.9143721" lon="16.1260438"><ele>1554.0</ele><time>2026-05-02T12:48:16.718Z</time></trkpt><trkpt lat="39.9144559" lon="16.1261624"><ele>1556.0</ele><time>2026-05-02T12:48:17.693Z</time></trkpt><trkpt lat="39.9145353" lon="16.1263"><ele>1558.0</ele><time>2026-05-02T12:48:18.711Z</time></trkpt><trkpt lat="39.9146154" lon="16.1264517"><ele>1553.25</ele><time>2026-05-02T12:48:19.704Z</time></trkpt><trkpt lat="39.9146936" lon="16.1266121"><ele>1548.5</ele><time>2026-05-02T12:48:20.712Z</time></trkpt><trkpt lat="39.9147717" lon="16.1267772"><ele>1543.75</ele><time>2026-05-02T12:48:21.703Z</time></trkpt><trkpt lat="39.9148492" lon="16.126943"><ele>1539.0</ele><time>2026-05-02T12:48:22.706Z</time></trkpt><trkpt lat="39.9149259" lon="16.1271106"><ele>1539.0</ele><time>2026-05-02T12:48:23.701Z</time></trkpt><trkpt lat="39.9149947" lon="16.1272803"><ele>1539.0</ele><time>2026-05-02T12:48:24.695Z</time></trkpt><trkpt lat="39.9150526" lon="16.1274574"><ele>1539.0</ele><time>2026-05-02T12:48:25.706Z</time></trkpt><trkpt lat="39.9151044" lon="16.1276329"><ele>1539.0</ele><time>2026-05-02T12:48:26.712Z</time></trkpt><trkpt lat="39.9151585" lon="16.1278041"><ele>1539.5</ele><time>2026-05-02T12:48:27.699Z</time></trkpt><trkpt lat="39.9152116" lon="16.1279733"><ele>1540.0</ele><time>2026-05-02T12:48:28.713Z</time></trkpt><trkpt lat="39.915268" lon="16.1281442"><ele>1540.5</ele><time>2026-05-02T12:48:29.694Z</time></trkpt><trkpt lat="39.9153262" lon="16.1283185"><ele>1541.0</ele><time>2026-05-02T12:48:30.702Z</time></trkpt><trkpt lat="39.9153802" lon="16.1285002"><ele>1541.0</ele><time>2026-05-02T12:48:31.698Z</time></trkpt><trkpt lat="39.9154196" lon="16.1286939"><ele>1541.0</ele><time>2026-05-02T12:48:32.715Z</time></trkpt><trkpt lat="39.9154501" lon="16.1288866"><ele>1541.0</ele><time>2026-05-02T12:48:33.695Z</time></trkpt><trkpt lat="39.9154761" lon="16.1290693"><ele>1541.0</ele><time>2026-05-02T12:48:34.71Z</time></trkpt><trkpt lat="39.9154978" lon="16.1292418"><ele>1539.5</ele><time>2026-05-02T12:48:35.704Z</time></trkpt><trkpt lat="39.9154981" lon="16.1293964"><ele>1538.0</ele><time>2026-05-02T12:48:36.71Z</time></trkpt><trkpt lat="39.9154771" lon="16.1295499"><ele>1536.5</ele><time>2026-05-02T12:48:37.684Z</time></trkpt><trkpt lat="39.9154478" lon="16.129697"><ele>1535.0</ele><time>2026-05-02T12:48:38.705Z</time></trkpt><trkpt lat="39.9154139" lon="16.1298482"><ele>1533.4</ele><time>2026-05-02T12:48:39.709Z</time></trkpt><trkpt lat="39.9153771" lon="16.1299862"><ele>1531.8</ele><time>2026-05-02T12:48:40.702Z</time></trkpt><trkpt lat="39.9153437" lon="16.1301151"><ele>1530.1999999999998</ele><time>2026-05-02T12:48:41.704Z</time></trkpt><trkpt lat="39.9153215" lon="16.1302452"><ele>1528.6</ele><time>2026-05-02T12:48:42.715Z</time></trkpt><trkpt lat="39.9153129" lon="16.1303883"><ele>1527.0</ele><time>2026-05-02T12:48:43.7Z</time></trkpt><trkpt lat="39.915312" lon="16.1305496"><ele>1527.0</ele><time>2026-05-02T12:48:44.722Z</time></trkpt><trkpt lat="39.9153212" lon="16.1307152"><ele>1527.0</ele><time>2026-05-02T12:48:45.711Z</time></trkpt><trkpt lat="39.9153356" lon="16.1308752"><ele>1527.0</ele><time>2026-05-02T12:48:46.716Z</time></trkpt><trkpt lat="39.9153517" lon="16.1310212"><ele>1527.0</ele><time>2026-05-02T12:48:47.701Z</time></trkpt><trkpt lat="39.9153648" lon="16.1311555"><ele>1528.1999999999998</ele><time>2026-05-02T12:48:48.71Z</time></trkpt><trkpt lat="39.9153587" lon="16.1312861"><ele>1529.4</ele><time>2026-05-02T12:48:49.708Z</time></trkpt><trkpt lat="39.9153327" lon="16.1314187"><ele>1530.6</ele><time>2026-05-02T12:48:50.694Z</time></trkpt><trkpt lat="39.9152948" lon="16.1315404"><ele>1531.8000000000002</ele><time>2026-05-02T12:48:51.715Z</time></trkpt><trkpt lat="39.9152522" lon="16.1316471"><ele>1533.0</ele><time>2026-05-02T12:48:52.704Z</time></trkpt><trkpt lat="39.9152018" lon="16.1317525"><ele>1533.6666666666667</ele><time>2026-05-02T12:48:53.699Z</time></trkpt><trkpt lat="39.9151526" lon="16.1318482"><ele>1534.3333333333335</ele><time>2026-05-02T12:48:54.715Z</time></trkpt><trkpt lat="39.915113" lon="16.1319307"><ele>1535.0</ele><time>2026-05-02T12:48:55.718Z</time></trkpt><trkpt lat="39.9150833" lon="16.132019"><ele>1535.6666666666667</ele><time>2026-05-02T12:48:56.709Z</time></trkpt><trkpt lat="39.9150621" lon="16.1321392"><ele>1536.3333333333335</ele><time>2026-05-02T12:48:57.7Z</time></trkpt><trkpt lat="39.9150511" lon="16.1322858"><ele>1537.0</ele><time>2026-05-02T12:48:58.72Z</time></trkpt><trkpt lat="39.9150484" lon="16.1324412"><ele>1531.25</ele><time>2026-05-02T12:48:59.714Z</time></trkpt><trkpt lat="39.9150466" lon="16.1326148"><ele>1525.5</ele><time>2026-05-02T12:49:00.711Z</time></trkpt><trkpt lat="39.9150451" lon="16.1327966"><ele>1519.75</ele><time>2026-05-02T12:49:01.716Z</time></trkpt><trkpt lat="39.9150409" lon="16.1329764"><ele>1514.0</ele><time>2026-05-02T12:49:02.713Z</time></trkpt><trkpt lat="39.9150184" lon="16.1331516"><ele>1514.5</ele><time>2026-05-02T12:49:03.702Z</time></trkpt><trkpt lat="39.9149806" lon="16.1333093"><ele>1515.0</ele><time>2026-05-02T12:49:04.706Z</time></trkpt><trkpt lat="39.9149334" lon="16.1334412"><ele>1515.5</ele><time>2026-05-02T12:49:05.709Z</time></trkpt><trkpt lat="39.9148947" lon="16.1335749"><ele>1516.0</ele><time>2026-05-02T12:49:06.705Z</time></trkpt><trkpt lat="39.9148723" lon="16.1337215"><ele>1516.0</ele><time>2026-05-02T12:49:07.71Z</time></trkpt><trkpt lat="39.9148625" lon="16.1338829"><ele>1516.0</ele><time>2026-05-02T12:49:08.709Z</time></trkpt><trkpt lat="39.9148621" lon="16.1340629"><ele>1516.0</ele><time>2026-05-02T12:49:09.716Z</time></trkpt><trkpt lat="39.9148711" lon="16.1342579"><ele>1516.0</ele><time>2026-05-02T12:49:10.708Z</time></trkpt><trkpt lat="39.9148924" lon="16.134453"><ele>1519.0</ele><time>2026-05-02T12:49:11.7Z</time></trkpt><trkpt lat="39.9149314" lon="16.1346573"><ele>1522.0</ele><time>2026-05-02T12:49:12.693Z</time></trkpt><trkpt lat="39.9149894" lon="16.1348643"><ele>1525.0</ele><time>2026-05-02T12:49:13.709Z</time></trkpt><trkpt lat="39.9150571" lon="16.1350727"><ele>1535.3333333333333</ele><time>2026-05-02T12:49:14.703Z</time></trkpt><trkpt lat="39.9151252" lon="16.1352767"><ele>1545.6666666666665</ele><time>2026-05-02T12:49:15.707Z</time></trkpt><trkpt lat="39.9151846" lon="16.1354726"><ele>1556.0</ele><time>2026-05-02T12:49:16.708Z</time></trkpt><trkpt lat="39.9152328" lon="16.1356425"><ele>1550.9999999999998</ele><time>2026-05-02T12:49:17.711Z</time></trkpt><trkpt lat="39.9152565" lon="16.1357647"><ele>1546.0</ele><time>2026-05-02T12:49:18.704Z</time></trkpt><trkpt lat="39.9152854" lon="16.1358502"><ele>1541.0</ele><time>2026-05-02T12:49:19.703Z</time></trkpt><trkpt lat="39.915335" lon="16.1359171"><ele>1536.0</ele><time>2026-05-02T12:49:20.713Z</time></trkpt><trkpt lat="39.9153862" lon="16.1359729"><ele>1531.0</ele><time>2026-05-02T12:49:21.71Z</time></trkpt><trkpt lat="39.9154524" lon="16.1359995"><ele>1526.0</ele><time>2026-05-02T12:49:22.709Z</time></trkpt><trkpt lat="39.9155304" lon="16.1359932"><ele>1526.0</ele><time>2026-05-02T12:49:23.709Z</time></trkpt><trkpt lat="39.9156266" lon="16.1359762"><ele>1526.0</ele><time>2026-05-02T12:49:24.71Z</time></trkpt><trkpt lat="39.9157294" lon="16.1359535"><ele>1526.0</ele><time>2026-05-02T12:49:25.706Z</time></trkpt><trkpt lat="39.9158454" lon="16.1359231"><ele>1526.0</ele><time>2026-05-02T12:49:26.703Z</time></trkpt><trkpt lat="39.9159699" lon="16.1358828"><ele>1526.0</ele><time>2026-05-02T12:49:27.703Z</time></trkpt><trkpt lat="39.9161087" lon="16.1358552"><ele>1528.6666666666667</ele><time>2026-05-02T12:49:28.723Z</time></trkpt><trkpt lat="39.9162598" lon="16.1358419"><ele>1531.3333333333333</ele><time>2026-05-02T12:49:29.7Z</time></trkpt><trkpt lat="39.916421" lon="16.1358391"><ele>1534.0</ele><time>2026-05-02T12:49:30.703Z</time></trkpt><trkpt lat="39.9165911" lon="16.1358404"><ele>1538.6666666666665</ele><time>2026-05-02T12:49:31.704Z</time></trkpt><trkpt lat="39.9167629" lon="16.1358512"><ele>1543.3333333333333</ele><time>2026-05-02T12:49:32.699Z</time></trkpt><trkpt lat="39.9169351" lon="16.1358742"><ele>1548.0</ele><time>2026-05-02T12:49:33.695Z</time></trkpt><trkpt lat="39.9171078" lon="16.1358989"><ele>1548.0</ele><time>2026-05-02T12:49:34.708Z</time></trkpt><trkpt lat="39.91728" lon="16.1359389"><ele>1548.0</ele><time>2026-05-02T12:49:35.702Z</time></trkpt><trkpt lat="39.9174507" lon="16.1359902"><ele>1548.0</ele><time>2026-05-02T12:49:36.705Z</time></trkpt><trkpt lat="39.917617" lon="16.1360484"><ele>1554.0</ele><time>2026-05-02T12:49:37.704Z</time></trkpt><trkpt lat="39.9177773" lon="16.1361022"><ele>1560.0</ele><time>2026-05-02T12:49:38.737Z</time></trkpt><trkpt lat="39.9179302" lon="16.136138"><ele>1566.0</ele><time>2026-05-02T12:49:39.7Z</time></trkpt><trkpt lat="39.9180648" lon="16.1361702"><ele>1566.0</ele><time>2026-05-02T12:49:40.713Z</time></trkpt><trkpt lat="39.9181822" lon="16.1362239"><ele>1566.0</ele><time>2026-05-02T12:49:41.708Z</time></trkpt><trkpt lat="39.9182861" lon="16.1363071"><ele>1566.0</ele><time>2026-05-02T12:49:42.713Z</time></trkpt><trkpt lat="39.9183814" lon="16.1364106"><ele>1566.0</ele><time>2026-05-02T12:49:43.701Z</time></trkpt><trkpt lat="39.9184739" lon="16.1365135"><ele>1568.25</ele><time>2026-05-02T12:49:44.719Z</time></trkpt><trkpt lat="39.9185648" lon="16.1366315"><ele>1570.5</ele><time>2026-05-02T12:49:45.69Z</time></trkpt><trkpt lat="39.9186572" lon="16.1367382"><ele>1572.75</ele><time>2026-05-02T12:49:46.705Z</time></trkpt><trkpt lat="39.9187428" lon="16.1368405"><ele>1575.0</ele><time>2026-05-02T12:49:47.715Z</time></trkpt><trkpt lat="39.9188148" lon="16.1369507"><ele>1575.0</ele><time>2026-05-02T12:49:48.704Z</time></trkpt><trkpt lat="39.9188887" lon="16.1370705"><ele>1575.0</ele><time>2026-05-02T12:49:49.714Z</time></trkpt><trkpt lat="39.9189607" lon="16.1372027"><ele>1575.0</ele><time>2026-05-02T12:49:50.703Z</time></trkpt><trkpt lat="39.9190368" lon="16.1373496"><ele>1575.0</ele><time>2026-05-02T12:49:51.702Z</time></trkpt><trkpt lat="39.919115" lon="16.1375002"><ele>1572.0</ele><time>2026-05-02T12:49:52.714Z</time></trkpt><trkpt lat="39.9191985" lon="16.1376588"><ele>1569.0</ele><time>2026-05-02T12:49:53.714Z</time></trkpt><trkpt lat="39.9192843" lon="16.1378228"><ele>1566.0</ele><time>2026-05-02T12:49:54.709Z</time></trkpt><trkpt lat="39.919362" lon="16.1379814"><ele>1563.0</ele><time>2026-05-02T12:49:55.701Z</time></trkpt><trkpt lat="39.9194277" lon="16.1381246"><ele>1567.75</ele><time>2026-05-02T12:49:56.712Z</time></trkpt><trkpt lat="39.9194931" lon="16.1382642"><ele>1572.5</ele><time>2026-05-02T12:49:57.703Z</time></trkpt><trkpt lat="39.9195624" lon="16.1383994"><ele>1577.25</ele><time>2026-05-02T12:49:58.717Z</time></trkpt><trkpt lat="39.9196304" lon="16.1385508"><ele>1582.0</ele><time>2026-05-02T12:49:59.708Z</time></trkpt><trkpt lat="39.9196833" lon="16.1387037"><ele>1582.0</ele><time>2026-05-02T12:50:00.712Z</time></trkpt><trkpt lat="39.9197374" lon="16.1388423"><ele>1582.0</ele><time>2026-05-02T12:50:01.708Z</time></trkpt><trkpt lat="39.9197936" lon="16.1389715"><ele>1582.0</ele><time>2026-05-02T12:50:02.716Z</time></trkpt><trkpt lat="39.9198391" lon="16.1391"><ele>1582.0</ele><time>2026-05-02T12:50:03.705Z</time></trkpt><trkpt lat="39.9198708" lon="16.1392084"><ele>1582.0</ele><time>2026-05-02T12:50:04.714Z</time></trkpt><trkpt lat="39.9198975" lon="16.1392895"><ele>1581.5000000000002</ele><time>2026-05-02T12:50:05.699Z</time></trkpt><trkpt lat="39.9199429" lon="16.1394115"><ele>1581.0</ele><time>2026-05-02T12:50:07.697Z</time></trkpt><trkpt lat="39.9199889" lon="16.1395266"><ele>1580.5</ele><time>2026-05-02T12:50:09.708Z</time></trkpt><trkpt lat="39.9200157" lon="16.1396021"><ele>1580.0</ele><time>2026-05-02T12:50:10.715Z</time></trkpt><trkpt lat="39.9200544" lon="16.1396907"><ele>1579.5000000000002</ele><time>2026-05-02T12:50:11.714Z</time></trkpt><trkpt lat="39.9201011" lon="16.1397942"><ele>1579.0</ele><time>2026-05-02T12:50:12.713Z</time></trkpt><trkpt lat="39.920154" lon="16.1399006"><ele>1578.0</ele><time>2026-05-02T12:50:13.711Z</time></trkpt><trkpt lat="39.9202099" lon="16.1400146"><ele>1577.0</ele><time>2026-05-02T12:50:14.705Z</time></trkpt><trkpt lat="39.9202716" lon="16.1401291"><ele>1576.0</ele><time>2026-05-02T12:50:15.708Z</time></trkpt><trkpt lat="39.9203292" lon="16.140258"><ele>1575.0</ele><time>2026-05-02T12:50:16.702Z</time></trkpt><trkpt lat="39.920385" lon="16.1403958"><ele>1574.0</ele><time>2026-05-02T12:50:17.707Z</time></trkpt><trkpt lat="39.9204397" lon="16.1405408"><ele>1574.0</ele><time>2026-05-02T12:50:18.709Z</time></trkpt><trkpt lat="39.9204962" lon="16.1406879"><ele>1574.0</ele><time>2026-05-02T12:50:19.709Z</time></trkpt><trkpt lat="39.920555" lon="16.1408245"><ele>1574.0</ele><time>2026-05-02T12:50:20.698Z</time></trkpt><trkpt lat="39.9206012" lon="16.1409383"><ele>1574.0</ele><time>2026-05-02T12:50:21.712Z</time></trkpt><trkpt lat="39.9206443" lon="16.1410422"><ele>1574.0</ele><time>2026-05-02T12:50:22.703Z</time></trkpt><trkpt lat="39.9206927" lon="16.141156"><ele>1574.25</ele><time>2026-05-02T12:50:23.7Z</time></trkpt><trkpt lat="39.9207484" lon="16.1412885"><ele>1574.5</ele><time>2026-05-02T12:50:24.705Z</time></trkpt><trkpt lat="39.920801" lon="16.1414435"><ele>1574.75</ele><time>2026-05-02T12:50:25.704Z</time></trkpt><trkpt lat="39.9208505" lon="16.1416022"><ele>1575.0</ele><time>2026-05-02T12:50:26.701Z</time></trkpt><trkpt lat="39.9208948" lon="16.1417491"><ele>1574.0</ele><time>2026-05-02T12:50:27.701Z</time></trkpt><trkpt lat="39.9209317" lon="16.1418798"><ele>1573.0</ele><time>2026-05-02T12:50:28.704Z</time></trkpt><trkpt lat="39.9209713" lon="16.1419992"><ele>1572.0</ele><time>2026-05-02T12:50:29.704Z</time></trkpt><trkpt lat="39.9210223" lon="16.1421222"><ele>1571.0</ele><time>2026-05-02T12:50:30.701Z</time></trkpt><trkpt lat="39.9210903" lon="16.1422429"><ele>1570.0</ele><time>2026-05-02T12:50:31.699Z</time></trkpt><trkpt lat="39.9211763" lon="16.1423585"><ele>1573.0</ele><time>2026-05-02T12:50:32.702Z</time></trkpt><trkpt lat="39.9212749" lon="16.1424845"><ele>1576.0</ele><time>2026-05-02T12:50:33.707Z</time></trkpt><trkpt lat="39.9213805" lon="16.1426286"><ele>1579.0</ele><time>2026-05-02T12:50:34.709Z</time></trkpt><trkpt lat="39.9214858" lon="16.1427685"><ele>1582.0</ele><time>2026-05-02T12:50:35.706Z</time></trkpt><trkpt lat="39.9215784" lon="16.1428949"><ele>1582.0</ele><time>2026-05-02T12:50:36.707Z</time></trkpt><trkpt lat="39.921661" lon="16.1430112"><ele>1582.0</ele><time>2026-05-02T12:50:37.705Z</time></trkpt><trkpt lat="39.9217308" lon="16.1431112"><ele>1582.0</ele><time>2026-05-02T12:50:38.702Z</time></trkpt><trkpt lat="39.9218012" lon="16.1431866"><ele>1582.0</ele><time>2026-05-02T12:50:39.695Z</time></trkpt><trkpt lat="39.9218865" lon="16.1432323"><ele>1582.0</ele><time>2026-05-02T12:50:40.703Z</time></trkpt><trkpt lat="39.9219871" lon="16.1432633"><ele>1583.75</ele><time>2026-05-02T12:50:41.704Z</time></trkpt><trkpt lat="39.9221089" lon="16.1433056"><ele>1585.5</ele><time>2026-05-02T12:50:42.705Z</time></trkpt><trkpt lat="39.9222541" lon="16.1433355"><ele>1587.25</ele><time>2026-05-02T12:50:43.7Z</time></trkpt><trkpt lat="39.9223996" lon="16.1433788"><ele>1589.0</ele><time>2026-05-02T12:50:44.715Z</time></trkpt><trkpt lat="39.9225437" lon="16.1434211"><ele>1587.5</ele><time>2026-05-02T12:50:45.704Z</time></trkpt><trkpt lat="39.9226726" lon="16.1434458"><ele>1586.0</ele><time>2026-05-02T12:50:46.703Z</time></trkpt><trkpt lat="39.9227839" lon="16.1434697"><ele>1584.5</ele><time>2026-05-02T12:50:47.694Z</time></trkpt><trkpt lat="39.9228849" lon="16.1434911"><ele>1583.0</ele><time>2026-05-02T12:50:48.703Z</time></trkpt><trkpt lat="39.9229885" lon="16.1435297"><ele>1583.0</ele><time>2026-05-02T12:50:49.698Z</time></trkpt><trkpt lat="39.9230898" lon="16.1435776"><ele>1583.0</ele><time>2026-05-02T12:50:50.71Z</time></trkpt><trkpt lat="39.9231896" lon="16.1436387"><ele>1583.0</ele><time>2026-05-02T12:50:51.705Z</time></trkpt><trkpt lat="39.9232717" lon="16.1437031"><ele>1583.0</ele><time>2026-05-02T12:50:52.719Z</time></trkpt><trkpt lat="39.923348" lon="16.1437757"><ele>1583.0</ele><time>2026-05-02T12:50:53.694Z</time></trkpt><trkpt lat="39.9234296" lon="16.1438845"><ele>1581.75</ele><time>2026-05-02T12:50:54.708Z</time></trkpt><trkpt lat="39.9235061" lon="16.1440096"><ele>1580.5</ele><time>2026-05-02T12:50:55.705Z</time></trkpt><trkpt lat="39.9235837" lon="16.1441408"><ele>1579.25</ele><time>2026-05-02T12:50:56.699Z</time></trkpt><trkpt lat="39.923646" lon="16.1442874"><ele>1578.0</ele><time>2026-05-02T12:50:57.683Z</time></trkpt><trkpt lat="39.9236963" lon="16.1444418"><ele>1578.0</ele><time>2026-05-02T12:50:58.7Z</time></trkpt><trkpt lat="39.9237299" lon="16.1446165"><ele>1578.0</ele><time>2026-05-02T12:50:59.706Z</time></trkpt><trkpt lat="39.9237614" lon="16.1447994"><ele>1578.0</ele><time>2026-05-02T12:51:00.686Z</time></trkpt><trkpt lat="39.9237821" lon="16.1449841"><ele>1578.0</ele><time>2026-05-02T12:51:01.711Z</time></trkpt><trkpt lat="39.9238267" lon="16.1451677"><ele>1580.5</ele><time>2026-05-02T12:51:02.71Z</time></trkpt><trkpt lat="39.9238697" lon="16.145331"><ele>1583.0</ele><time>2026-05-02T12:51:03.719Z</time></trkpt><trkpt lat="39.9238928" lon="16.1454832"><ele>1585.5</ele><time>2026-05-02T12:51:04.687Z</time></trkpt><trkpt lat="39.9239287" lon="16.1456346"><ele>1588.0</ele><time>2026-05-02T12:51:05.7Z</time></trkpt><trkpt lat="39.9239884" lon="16.1457786"><ele>1585.0</ele><time>2026-05-02T12:51:06.699Z</time></trkpt><trkpt lat="39.9240806" lon="16.1459086"><ele>1582.0</ele><time>2026-05-02T12:51:07.707Z</time></trkpt><trkpt lat="39.9241672" lon="16.1460478"><ele>1579.0</ele><time>2026-05-02T12:51:08.717Z</time></trkpt><trkpt lat="39.924251" lon="16.1461686"><ele>1576.0</ele><time>2026-05-02T12:51:09.695Z</time></trkpt><trkpt lat="39.9243467" lon="16.1462907"><ele>1576.0</ele><time>2026-05-02T12:51:10.701Z</time></trkpt><trkpt lat="39.9244514" lon="16.1464282"><ele>1576.0</ele><time>2026-05-02T12:51:11.709Z</time></trkpt><trkpt lat="39.9245495" lon="16.1465761"><ele>1576.0</ele><time>2026-05-02T12:51:12.702Z</time></trkpt><trkpt lat="39.9246531" lon="16.1467224"><ele>1583.0</ele><time>2026-05-02T12:51:13.722Z</time></trkpt><trkpt lat="39.924774" lon="16.1468616"><ele>1590.0</ele><time>2026-05-02T12:51:14.711Z</time></trkpt><trkpt lat="39.9249018" lon="16.1469973"><ele>1597.0</ele><time>2026-05-02T12:51:15.707Z</time></trkpt><trkpt lat="39.9250204" lon="16.1471276"><ele>1596.3333333333335</ele><time>2026-05-02T12:51:16.718Z</time></trkpt><trkpt lat="39.9251457" lon="16.1472511"><ele>1595.6666666666665</ele><time>2026-05-02T12:51:17.693Z</time></trkpt><trkpt lat="39.9252759" lon="16.1473754"><ele>1595.0</ele><time>2026-05-02T12:51:18.704Z</time></trkpt><trkpt lat="39.9253998" lon="16.1474927"><ele>1595.0</ele><time>2026-05-02T12:51:19.704Z</time></trkpt><trkpt lat="39.9254993" lon="16.1475996"><ele>1595.0</ele><time>2026-05-02T12:51:20.708Z</time></trkpt><trkpt lat="39.9255892" lon="16.1476778"><ele>1595.0</ele><time>2026-05-02T12:51:21.689Z</time></trkpt><trkpt lat="39.925657" lon="16.1477511"><ele>1595.0</ele><time>2026-05-02T12:51:22.702Z</time></trkpt><trkpt lat="39.9257132" lon="16.1478345"><ele>1595.0</ele><time>2026-05-02T12:51:23.712Z</time></trkpt><trkpt lat="39.9257492" lon="16.1479226"><ele>1595.0</ele><time>2026-05-02T12:51:24.703Z</time></trkpt><trkpt lat="39.9257599" lon="16.1480421"><ele>1595.0</ele><time>2026-05-02T12:51:25.721Z</time></trkpt><trkpt lat="39.9257977" lon="16.148154"><ele>1595.0</ele><time>2026-05-02T12:51:26.705Z</time></trkpt><trkpt lat="39.9258508" lon="16.1482489"><ele>1595.0</ele><time>2026-05-02T12:51:27.714Z</time></trkpt><trkpt lat="39.9259112" lon="16.1483312"><ele>1595.0</ele><time>2026-05-02T12:51:28.703Z</time></trkpt><trkpt lat="39.9259929" lon="16.1483761"><ele>1597.25</ele><time>2026-05-02T12:51:29.706Z</time></trkpt><trkpt lat="39.9261132" lon="16.1484101"><ele>1599.5</ele><time>2026-05-02T12:51:30.711Z</time></trkpt><trkpt lat="39.9262452" lon="16.1484358"><ele>1601.75</ele><time>2026-05-02T12:51:31.695Z</time></trkpt><trkpt lat="39.9263868" lon="16.1484497"><ele>1604.0</ele><time>2026-05-02T12:51:32.692Z</time></trkpt><trkpt lat="39.9265476" lon="16.1484539"><ele>1604.0</ele><time>2026-05-02T12:51:33.704Z</time></trkpt><trkpt lat="39.9267182" lon="16.1484581"><ele>1604.0</ele><time>2026-05-02T12:51:34.709Z</time></trkpt><trkpt lat="39.9268936" lon="16.1484657"><ele>1604.0</ele><time>2026-05-02T12:51:35.689Z</time></trkpt><trkpt lat="39.9270802" lon="16.1484804"><ele>1602.0</ele><time>2026-05-02T12:51:36.703Z</time></trkpt><trkpt lat="39.9272441" lon="16.148502"><ele>1600.0</ele><time>2026-05-02T12:51:37.71Z</time></trkpt><trkpt lat="39.9273963" lon="16.1485218"><ele>1598.0</ele><time>2026-05-02T12:51:38.693Z</time></trkpt><trkpt lat="39.927533" lon="16.1485404"><ele>1595.8000000000002</ele><time>2026-05-02T12:51:39.701Z</time></trkpt><trkpt lat="39.9276579" lon="16.1485618"><ele>1593.6</ele><time>2026-05-02T12:51:40.695Z</time></trkpt><trkpt lat="39.9277708" lon="16.1485867"><ele>1591.4</ele><time>2026-05-02T12:51:41.719Z</time></trkpt><trkpt lat="39.927866" lon="16.1486263"><ele>1589.1999999999998</ele><time>2026-05-02T12:51:42.712Z</time></trkpt><trkpt lat="39.9279387" lon="16.1486741"><ele>1587.0</ele><time>2026-05-02T12:51:43.711Z</time></trkpt><trkpt lat="39.9279857" lon="16.1487374"><ele>1587.0</ele><time>2026-05-02T12:51:44.715Z</time></trkpt><trkpt lat="39.9279846" lon="16.1488689"><ele>1587.0</ele><time>2026-05-02T12:51:46.707Z</time></trkpt><trkpt lat="39.9279261" lon="16.1489883"><ele>1587.0</ele><time>2026-05-02T12:51:48.71Z</time></trkpt><trkpt lat="39.9278708" lon="16.1491637"><ele>1587.0</ele><time>2026-05-02T12:51:50.712Z</time></trkpt><trkpt lat="39.9278404" lon="16.1492856"><ele>1590.75</ele><time>2026-05-02T12:51:51.705Z</time></trkpt><trkpt lat="39.9278216" lon="16.1494252"><ele>1594.5</ele><time>2026-05-02T12:51:52.699Z</time></trkpt><trkpt lat="39.9278267" lon="16.1495708"><ele>1598.25</ele><time>2026-05-02T12:51:53.709Z</time></trkpt><trkpt lat="39.9278582" lon="16.1497171"><ele>1602.0</ele><time>2026-05-02T12:51:54.706Z</time></trkpt><trkpt lat="39.9279" lon="16.1498576"><ele>1603.6</ele><time>2026-05-02T12:51:55.703Z</time></trkpt><trkpt lat="39.9279495" lon="16.149986"><ele>1605.1999999999998</ele><time>2026-05-02T12:51:56.713Z</time></trkpt><trkpt lat="39.9280096" lon="16.1500976"><ele>1606.8</ele><time>2026-05-02T12:51:57.707Z</time></trkpt><trkpt lat="39.9280767" lon="16.1501921"><ele>1608.4</ele><time>2026-05-02T12:51:58.705Z</time></trkpt><trkpt lat="39.9281432" lon="16.1502858"><ele>1610.0</ele><time>2026-05-02T12:51:59.71Z</time></trkpt><trkpt lat="39.9282121" lon="16.1503952"><ele>1610.0</ele><time>2026-05-02T12:52:00.703Z</time></trkpt><trkpt lat="39.9282658" lon="16.1505234"><ele>1610.0</ele><time>2026-05-02T12:52:01.703Z</time></trkpt><trkpt lat="39.9283101" lon="16.1506812"><ele>1610.0</ele><time>2026-05-02T12:52:02.701Z</time></trkpt><trkpt lat="39.9283446" lon="16.1508637"><ele>1610.0</ele><time>2026-05-02T12:52:03.703Z</time></trkpt><trkpt lat="39.9283833" lon="16.1510445"><ele>1607.5</ele><time>2026-05-02T12:52:04.712Z</time></trkpt><trkpt lat="39.9284121" lon="16.1512129"><ele>1605.0</ele><time>2026-05-02T12:52:05.707Z</time></trkpt><trkpt lat="39.9284339" lon="16.151383"><ele>1602.5</ele><time>2026-05-02T12:52:06.699Z</time></trkpt><trkpt lat="39.9284499" lon="16.1515556"><ele>1600.0</ele><time>2026-05-02T12:52:07.711Z</time></trkpt><trkpt lat="39.9284618" lon="16.1517183"><ele>1600.0000000000002</ele><time>2026-05-02T12:52:08.696Z</time></trkpt><trkpt lat="39.9284668" lon="16.1518472"><ele>1600.0</ele><time>2026-05-02T12:52:09.715Z</time></trkpt><trkpt lat="39.9284833" lon="16.151946"><ele>1600.0</ele><time>2026-05-02T12:52:10.706Z</time></trkpt><trkpt lat="39.9284955" lon="16.1520466"><ele>1600.0</ele><time>2026-05-02T12:52:11.702Z</time></trkpt><trkpt lat="39.9285183" lon="16.1521249"><ele>1600.0000000000002</ele><time>2026-05-02T12:52:12.724Z</time></trkpt><trkpt lat="39.9286115" lon="16.1522249"><ele>1600.0</ele><time>2026-05-02T12:52:14.719Z</time></trkpt><trkpt lat="39.9286821" lon="16.1522551"><ele>1600.0</ele><time>2026-05-02T12:52:15.692Z</time></trkpt><trkpt lat="39.928772" lon="16.1522712"><ele>1600.0</ele><time>2026-05-02T12:52:16.711Z</time></trkpt><trkpt lat="39.9288813" lon="16.1522934"><ele>1600.0</ele><time>2026-05-02T12:52:17.705Z</time></trkpt><trkpt lat="39.9289818" lon="16.1523035"><ele>1600.0</ele><time>2026-05-02T12:52:18.71Z</time></trkpt><trkpt lat="39.9290677" lon="16.1523088"><ele>1600.0</ele><time>2026-05-02T12:52:19.686Z</time></trkpt><trkpt lat="39.9291386" lon="16.1523516"><ele>1599.4</ele><time>2026-05-02T12:52:20.701Z</time></trkpt><trkpt lat="39.9292075" lon="16.1524204"><ele>1598.8</ele><time>2026-05-02T12:52:21.705Z</time></trkpt><trkpt lat="39.9292764" lon="16.1525238"><ele>1598.1999999999998</ele><time>2026-05-02T12:52:22.696Z</time></trkpt><trkpt lat="39.929336" lon="16.1526546"><ele>1597.6</ele><time>2026-05-02T12:52:23.707Z</time></trkpt><trkpt lat="39.9293806" lon="16.1527901"><ele>1597.0</ele><time>2026-05-02T12:52:24.704Z</time></trkpt><trkpt lat="39.9294212" lon="16.1529051"><ele>1597.0000000000002</ele><time>2026-05-02T12:52:25.693Z</time></trkpt><trkpt lat="39.9294678" lon="16.1530152"><ele>1597.0</ele><time>2026-05-02T12:52:26.704Z</time></trkpt><trkpt lat="39.9294981" lon="16.15311"><ele>1597.0</ele><time>2026-05-02T12:52:27.704Z</time></trkpt><trkpt lat="39.9295267" lon="16.1531952"><ele>1597.0</ele><time>2026-05-02T12:52:28.707Z</time></trkpt><trkpt lat="39.9295499" lon="16.1533001"><ele>1597.0000000000002</ele><time>2026-05-02T12:52:29.699Z</time></trkpt><trkpt lat="39.9295727" lon="16.1534103"><ele>1597.0</ele><time>2026-05-02T12:52:30.708Z</time></trkpt><trkpt lat="39.9295917" lon="16.1535448"><ele>1597.0</ele><time>2026-05-02T12:52:31.701Z</time></trkpt><trkpt lat="39.9296046" lon="16.1536865"><ele>1597.0</ele><time>2026-05-02T12:52:32.693Z</time></trkpt><trkpt lat="39.9296066" lon="16.1538231"><ele>1597.0</ele><time>2026-05-02T12:52:33.704Z</time></trkpt><trkpt lat="39.9296094" lon="16.1539583"><ele>1597.0</ele><time>2026-05-02T12:52:34.713Z</time></trkpt><trkpt lat="39.9296113" lon="16.1541008"><ele>1597.0</ele><time>2026-05-02T12:52:35.696Z</time></trkpt><trkpt lat="39.9296231" lon="16.1542458"><ele>1597.0</ele><time>2026-05-02T12:52:36.7Z</time></trkpt><trkpt lat="39.9296461" lon="16.154384"><ele>1597.0</ele><time>2026-05-02T12:52:37.705Z</time></trkpt><trkpt lat="39.9296965" lon="16.1545188"><ele>1597.0</ele><time>2026-05-02T12:52:38.713Z</time></trkpt><trkpt lat="39.9297763" lon="16.1546343"><ele>1597.0</ele><time>2026-05-02T12:52:39.701Z</time></trkpt><trkpt lat="39.9298758" lon="16.1547307"><ele>1597.0</ele><time>2026-05-02T12:52:40.698Z</time></trkpt><trkpt lat="39.9299837" lon="16.1548036"><ele>1597.0</ele><time>2026-05-02T12:52:41.691Z</time></trkpt><trkpt lat="39.9300904" lon="16.1548723"><ele>1597.0</ele><time>2026-05-02T12:52:42.71Z</time></trkpt><trkpt lat="39.9301932" lon="16.1549436"><ele>1597.0</ele><time>2026-05-02T12:52:43.703Z</time></trkpt><trkpt lat="39.9302798" lon="16.1550011"><ele>1594.3999999999999</ele><time>2026-05-02T12:52:44.708Z</time></trkpt><trkpt lat="39.9303505" lon="16.1550711"><ele>1591.8</ele><time>2026-05-02T12:52:45.708Z</time></trkpt><trkpt lat="39.9304183" lon="16.1551585"><ele>1589.2</ele><time>2026-05-02T12:52:46.7Z</time></trkpt><trkpt lat="39.9304811" lon="16.1552761"><ele>1586.6</ele><time>2026-05-02T12:52:47.709Z</time></trkpt><trkpt lat="39.9305403" lon="16.1554055"><ele>1584.0</ele><time>2026-05-02T12:52:48.692Z</time></trkpt><trkpt lat="39.9305849" lon="16.155546"><ele>1584.0</ele><time>2026-05-02T12:52:49.698Z</time></trkpt><trkpt lat="39.930616" lon="16.1556873"><ele>1584.0</ele><time>2026-05-02T12:52:50.706Z</time></trkpt><trkpt lat="39.9306479" lon="16.1558331"><ele>1584.0</ele><time>2026-05-02T12:52:51.71Z</time></trkpt><trkpt lat="39.9306852" lon="16.1559795"><ele>1584.0</ele><time>2026-05-02T12:52:52.71Z</time></trkpt><trkpt lat="39.9307299" lon="16.1561198"><ele>1586.25</ele><time>2026-05-02T12:52:53.699Z</time></trkpt><trkpt lat="39.9307924" lon="16.1562559"><ele>1588.5</ele><time>2026-05-02T12:52:54.702Z</time></trkpt><trkpt lat="39.930864" lon="16.1563777"><ele>1590.75</ele><time>2026-05-02T12:52:55.702Z</time></trkpt><trkpt lat="39.9309405" lon="16.1564899"><ele>1593.0</ele><time>2026-05-02T12:52:56.713Z</time></trkpt><trkpt lat="39.9310171" lon="16.1565904"><ele>1588.0</ele><time>2026-05-02T12:52:57.69Z</time></trkpt><trkpt lat="39.9310793" lon="16.1566899"><ele>1583.0</ele><time>2026-05-02T12:52:58.701Z</time></trkpt><trkpt lat="39.931123" lon="16.1567893"><ele>1578.0</ele><time>2026-05-02T12:52:59.702Z</time></trkpt><trkpt lat="39.9311655" lon="16.1569025"><ele>1573.0</ele><time>2026-05-02T12:53:00.707Z</time></trkpt><trkpt lat="39.9312087" lon="16.157038"><ele>1568.0</ele><time>2026-05-02T12:53:01.709Z</time></trkpt><trkpt lat="39.9312618" lon="16.1571804"><ele>1568.0</ele><time>2026-05-02T12:53:02.701Z</time></trkpt><trkpt lat="39.9313218" lon="16.1573102"><ele>1568.0</ele><time>2026-05-02T12:53:03.718Z</time></trkpt><trkpt lat="39.9313703" lon="16.1574256"><ele>1568.0</ele><time>2026-05-02T12:53:04.697Z</time></trkpt><trkpt lat="39.9314087" lon="16.1575368"><ele>1568.0</ele><time>2026-05-02T12:53:05.707Z</time></trkpt><trkpt lat="39.9314419" lon="16.1576657"><ele>1568.0</ele><time>2026-05-02T12:53:06.694Z</time></trkpt><trkpt lat="39.9314758" lon="16.1578109"><ele>1568.0</ele><time>2026-05-02T12:53:07.706Z</time></trkpt><trkpt lat="39.9314989" lon="16.1579615"><ele>1568.0</ele><time>2026-05-02T12:53:08.713Z</time></trkpt><trkpt lat="39.9315105" lon="16.1581112"><ele>1568.0</ele><time>2026-05-02T12:53:09.712Z</time></trkpt><trkpt lat="39.9315302" lon="16.1582628"><ele>1568.0</ele><time>2026-05-02T12:53:10.701Z</time></trkpt><trkpt lat="39.9315626" lon="16.1584197"><ele>1568.5</ele><time>2026-05-02T12:53:11.69Z</time></trkpt><trkpt lat="39.931611" lon="16.1585855"><ele>1569.0</ele><time>2026-05-02T12:53:12.689Z</time></trkpt><trkpt lat="39.931683" lon="16.158751"><ele>1569.5</ele><time>2026-05-02T12:53:13.698Z</time></trkpt><trkpt lat="39.9317559" lon="16.1589176"><ele>1570.0</ele><time>2026-05-02T12:53:14.705Z</time></trkpt><trkpt lat="39.9318263" lon="16.1590754"><ele>1563.75</ele><time>2026-05-02T12:53:15.704Z</time></trkpt><trkpt lat="39.9319013" lon="16.1592329"><ele>1557.5</ele><time>2026-05-02T12:53:16.718Z</time></trkpt><trkpt lat="39.9319683" lon="16.1593965"><ele>1551.25</ele><time>2026-05-02T12:53:17.705Z</time></trkpt><trkpt lat="39.9320214" lon="16.1595471"><ele>1545.0</ele><time>2026-05-02T12:53:18.7Z</time></trkpt><trkpt lat="39.9320598" lon="16.1596826"><ele>1545.0</ele><time>2026-05-02T12:53:19.71Z</time></trkpt><trkpt lat="39.9320949" lon="16.1598071"><ele>1545.0</ele><time>2026-05-02T12:53:20.704Z</time></trkpt><trkpt lat="39.9321204" lon="16.159931"><ele>1545.0</ele><time>2026-05-02T12:53:21.692Z</time></trkpt><trkpt lat="39.9321497" lon="16.1600542"><ele>1545.0</ele><time>2026-05-02T12:53:22.708Z</time></trkpt><trkpt lat="39.9321884" lon="16.1601839"><ele>1545.0</ele><time>2026-05-02T12:53:23.707Z</time></trkpt><trkpt lat="39.9322391" lon="16.1603363"><ele>1548.0</ele><time>2026-05-02T12:53:24.698Z</time></trkpt><trkpt lat="39.9322982" lon="16.16051"><ele>1551.0</ele><time>2026-05-02T12:53:25.682Z</time></trkpt><trkpt lat="39.9323628" lon="16.1606921"><ele>1554.0</ele><time>2026-05-02T12:53:26.68Z</time></trkpt><trkpt lat="39.9324251" lon="16.1608835"><ele>1557.0</ele><time>2026-05-02T12:53:27.705Z</time></trkpt><trkpt lat="39.9324807" lon="16.1610693"><ele>1560.0</ele><time>2026-05-02T12:53:28.68Z</time></trkpt><trkpt lat="39.9325494" lon="16.1612585"><ele>1563.0</ele><time>2026-05-02T12:53:29.696Z</time></trkpt><trkpt lat="39.9326094" lon="16.1614483"><ele>1560.8000000000002</ele><time>2026-05-02T12:53:30.708Z</time></trkpt><trkpt lat="39.93265" lon="16.1616103"><ele>1558.6</ele><time>2026-05-02T12:53:31.703Z</time></trkpt><trkpt lat="39.9326908" lon="16.1617377"><ele>1556.4</ele><time>2026-05-02T12:53:32.678Z</time></trkpt><trkpt lat="39.9327311" lon="16.1618429"><ele>1554.1999999999998</ele><time>2026-05-02T12:53:33.694Z</time></trkpt><trkpt lat="39.9327649" lon="16.16194"><ele>1552.0</ele><time>2026-05-02T12:53:34.691Z</time></trkpt><trkpt lat="39.9328089" lon="16.1620368"><ele>1552.0</ele><time>2026-05-02T12:53:35.685Z</time></trkpt><trkpt lat="39.9328635" lon="16.1621271"><ele>1552.0</ele><time>2026-05-02T12:53:36.695Z</time></trkpt><trkpt lat="39.9329448" lon="16.1622072"><ele>1552.0</ele><time>2026-05-02T12:53:37.699Z</time></trkpt><trkpt lat="39.9330397" lon="16.1622642"><ele>1552.0</ele><time>2026-05-02T12:53:38.703Z</time></trkpt><trkpt lat="39.933147" lon="16.1622912"><ele>1552.0</ele><time>2026-05-02T12:53:39.696Z</time></trkpt><trkpt lat="39.9332563" lon="16.1622859"><ele>1552.0</ele><time>2026-05-02T12:53:40.701Z</time></trkpt><trkpt lat="39.933364" lon="16.1622536"><ele>1552.0</ele><time>2026-05-02T12:53:41.71Z</time></trkpt><trkpt lat="39.9334763" lon="16.1622024"><ele>1552.0</ele><time>2026-05-02T12:53:42.704Z</time></trkpt><trkpt lat="39.9335884" lon="16.162145"><ele>1552.0</ele><time>2026-05-02T12:53:43.703Z</time></trkpt><trkpt lat="39.9336965" lon="16.162075"><ele>1553.6</ele><time>2026-05-02T12:53:44.704Z</time></trkpt><trkpt lat="39.9337915" lon="16.1619923"><ele>1555.1999999999998</ele><time>2026-05-02T12:53:45.693Z</time></trkpt><trkpt lat="39.933882" lon="16.1618932"><ele>1556.8</ele><time>2026-05-02T12:53:46.707Z</time></trkpt><trkpt lat="39.9339622" lon="16.1617961"><ele>1558.4</ele><time>2026-05-02T12:53:47.703Z</time></trkpt><trkpt lat="39.9340284" lon="16.1617067"><ele>1560.0</ele><time>2026-05-02T12:53:48.71Z</time></trkpt><trkpt lat="39.9340813" lon="16.1616395"><ele>1560.0</ele><time>2026-05-02T12:53:49.706Z</time></trkpt><trkpt lat="39.9341647" lon="16.1615324"><ele>1560.0</ele><time>2026-05-02T12:53:51.7Z</time></trkpt><trkpt lat="39.9342092" lon="16.1614704"><ele>1560.0</ele><time>2026-05-02T12:53:52.708Z</time></trkpt><trkpt lat="39.9342717" lon="16.1613831"><ele>1560.0</ele><time>2026-05-02T12:53:53.702Z</time></trkpt><trkpt lat="39.9343483" lon="16.1612816"><ele>1560.0</ele><time>2026-05-02T12:53:54.71Z</time></trkpt><trkpt lat="39.9344342" lon="16.1611701"><ele>1558.0</ele><time>2026-05-02T12:53:55.706Z</time></trkpt><trkpt lat="39.9345179" lon="16.1610307"><ele>1556.0</ele><time>2026-05-02T12:53:56.698Z</time></trkpt><trkpt lat="39.9345961" lon="16.1608806"><ele>1554.0</ele><time>2026-05-02T12:53:57.704Z</time></trkpt><trkpt lat="39.9346665" lon="16.1607435"><ele>1552.0</ele><time>2026-05-02T12:53:58.704Z</time></trkpt><trkpt lat="39.934733" lon="16.1606257"><ele>1548.0</ele><time>2026-05-02T12:53:59.704Z</time></trkpt><trkpt lat="39.9348073" lon="16.1605071"><ele>1544.0</ele><time>2026-05-02T12:54:00.706Z</time></trkpt><trkpt lat="39.9348988" lon="16.1603785"><ele>1540.0</ele><time>2026-05-02T12:54:01.712Z</time></trkpt><trkpt lat="39.9350043" lon="16.1602419"><ele>1536.0</ele><time>2026-05-02T12:54:02.709Z</time></trkpt><trkpt lat="39.9351164" lon="16.160107"><ele>1536.0</ele><time>2026-05-02T12:54:03.693Z</time></trkpt><trkpt lat="39.9352304" lon="16.1599745"><ele>1536.0</ele><time>2026-05-02T12:54:04.696Z</time></trkpt><trkpt lat="39.9353398" lon="16.1598533"><ele>1536.0</ele><time>2026-05-02T12:54:05.697Z</time></trkpt><trkpt lat="39.9354332" lon="16.1597398"><ele>1536.0</ele><time>2026-05-02T12:54:06.708Z</time></trkpt><trkpt lat="39.9355085" lon="16.1596418"><ele>1532.1666666666667</ele><time>2026-05-02T12:54:07.707Z</time></trkpt><trkpt lat="39.9355746" lon="16.1595633"><ele>1528.3333333333333</ele><time>2026-05-02T12:54:08.71Z</time></trkpt><trkpt lat="39.9356249" lon="16.1594861"><ele>1524.5</ele><time>2026-05-02T12:54:09.698Z</time></trkpt><trkpt lat="39.9356675" lon="16.159404"><ele>1520.6666666666665</ele><time>2026-05-02T12:54:10.708Z</time></trkpt><trkpt lat="39.9357084" lon="16.1593127"><ele>1516.8333333333333</ele><time>2026-05-02T12:54:11.715Z</time></trkpt><trkpt lat="39.9357442" lon="16.1592093"><ele>1513.0</ele><time>2026-05-02T12:54:12.705Z</time></trkpt><trkpt lat="39.9357821" lon="16.1591108"><ele>1511.3333333333333</ele><time>2026-05-02T12:54:13.701Z</time></trkpt><trkpt lat="39.9358282" lon="16.1590233"><ele>1509.6666666666665</ele><time>2026-05-02T12:54:14.705Z</time></trkpt><trkpt lat="39.9358824" lon="16.1589571"><ele>1508.0</ele><time>2026-05-02T12:54:15.709Z</time></trkpt><trkpt lat="39.9359489" lon="16.1589072"><ele>1506.3333333333333</ele><time>2026-05-02T12:54:16.7Z</time></trkpt><trkpt lat="39.9360116" lon="16.1588691"><ele>1504.6666666666667</ele><time>2026-05-02T12:54:17.701Z</time></trkpt><trkpt lat="39.9361116" lon="16.1588013"><ele>1503.0</ele><time>2026-05-02T12:54:19.701Z</time></trkpt><trkpt lat="39.9361773" lon="16.1586561"><ele>1503.0</ele><time>2026-05-02T12:54:21.705Z</time></trkpt><trkpt lat="39.93619" lon="16.1585414"><ele>1503.0</ele><time>2026-05-02T12:54:22.71Z</time></trkpt><trkpt lat="39.9361953" lon="16.1584071"><ele>1503.0</ele><time>2026-05-02T12:54:23.703Z</time></trkpt><trkpt lat="39.9362047" lon="16.1582706"><ele>1503.0</ele><time>2026-05-02T12:54:24.711Z</time></trkpt><trkpt lat="39.9362158" lon="16.1581539"><ele>1503.0</ele><time>2026-05-02T12:54:25.713Z</time></trkpt><trkpt lat="39.9362397" lon="16.1580346"><ele>1500.5</ele><time>2026-05-02T12:54:26.7Z</time></trkpt><trkpt lat="39.9362856" lon="16.1579068"><ele>1498.0</ele><time>2026-05-02T12:54:27.699Z</time></trkpt><trkpt lat="39.9363552" lon="16.157757"><ele>1495.5</ele><time>2026-05-02T12:54:28.703Z</time></trkpt><trkpt lat="39.9364257" lon="16.1575874"><ele>1493.0</ele><time>2026-05-02T12:54:29.707Z</time></trkpt><trkpt lat="39.9364913" lon="16.1574"><ele>1488.6666666666667</ele><time>2026-05-02T12:54:30.718Z</time></trkpt><trkpt lat="39.9365509" lon="16.1572012"><ele>1484.3333333333333</ele><time>2026-05-02T12:54:31.698Z</time></trkpt><trkpt lat="39.9366088" lon="16.1570076"><ele>1480.0</ele><time>2026-05-02T12:54:32.701Z</time></trkpt><trkpt lat="39.9366608" lon="16.1568352"><ele>1480.0</ele><time>2026-05-02T12:54:33.703Z</time></trkpt><trkpt lat="39.9367075" lon="16.1566805"><ele>1480.0</ele><time>2026-05-02T12:54:34.703Z</time></trkpt><trkpt lat="39.9367435" lon="16.1565251"><ele>1480.0</ele><time>2026-05-02T12:54:35.711Z</time></trkpt><trkpt lat="39.9367733" lon="16.1563591"><ele>1480.0</ele><time>2026-05-02T12:54:36.712Z</time></trkpt><trkpt lat="39.9367856" lon="16.1561801"><ele>1480.6666666666665</ele><time>2026-05-02T12:54:37.709Z</time></trkpt><trkpt lat="39.9367922" lon="16.1559878"><ele>1481.3333333333333</ele><time>2026-05-02T12:54:38.714Z</time></trkpt><trkpt lat="39.9367962" lon="16.1557781"><ele>1482.0</ele><time>2026-05-02T12:54:39.71Z</time></trkpt><trkpt lat="39.9368069" lon="16.1555717"><ele>1482.0</ele><time>2026-05-02T12:54:40.72Z</time></trkpt><trkpt lat="39.9368184" lon="16.1553764"><ele>1482.0</ele><time>2026-05-02T12:54:41.714Z</time></trkpt><trkpt lat="39.9368336" lon="16.1551881"><ele>1482.0</ele><time>2026-05-02T12:54:42.704Z</time></trkpt><trkpt lat="39.9368538" lon="16.154991"><ele>1482.0</ele><time>2026-05-02T12:54:43.714Z</time></trkpt><trkpt lat="39.9368668" lon="16.154784"><ele>1483.0</ele><time>2026-05-02T12:54:44.704Z</time></trkpt><trkpt lat="39.9368813" lon="16.154571"><ele>1484.0</ele><time>2026-05-02T12:54:45.708Z</time></trkpt><trkpt lat="39.9369013" lon="16.1543692"><ele>1485.0</ele><time>2026-05-02T12:54:46.716Z</time></trkpt><trkpt lat="39.9369242" lon="16.1541754"><ele>1485.75</ele><time>2026-05-02T12:54:47.71Z</time></trkpt><trkpt lat="39.9369386" lon="16.1539965"><ele>1486.5</ele><time>2026-05-02T12:54:48.709Z</time></trkpt><trkpt lat="39.9369466" lon="16.1538239"><ele>1487.25</ele><time>2026-05-02T12:54:49.713Z</time></trkpt><trkpt lat="39.9369372" lon="16.1536533"><ele>1488.0</ele><time>2026-05-02T12:54:50.718Z</time></trkpt><trkpt lat="39.9369217" lon="16.1534969"><ele>1488.0</ele><time>2026-05-02T12:54:51.706Z</time></trkpt><trkpt lat="39.9369105" lon="16.1533516"><ele>1488.0</ele><time>2026-05-02T12:54:52.713Z</time></trkpt><trkpt lat="39.9369155" lon="16.1532057"><ele>1488.0</ele><time>2026-05-02T12:54:53.708Z</time></trkpt><trkpt lat="39.9369301" lon="16.1530547"><ele>1488.0</ele><time>2026-05-02T12:54:54.718Z</time></trkpt><trkpt lat="39.9369593" lon="16.1529182"><ele>1488.0</ele><time>2026-05-02T12:54:55.704Z</time></trkpt><trkpt lat="39.9369944" lon="16.1527963"><ele>1486.0</ele><time>2026-05-02T12:54:56.711Z</time></trkpt><trkpt lat="39.9370344" lon="16.1526662"><ele>1484.0</ele><time>2026-05-02T12:54:57.69Z</time></trkpt><trkpt lat="39.9370924" lon="16.1525178"><ele>1482.0</ele><time>2026-05-02T12:54:58.706Z</time></trkpt><trkpt lat="39.9371541" lon="16.1523392"><ele>1480.0</ele><time>2026-05-02T12:54:59.705Z</time></trkpt><trkpt lat="39.9372239" lon="16.1521587"><ele>1472.0</ele><time>2026-05-02T12:55:00.709Z</time></trkpt><trkpt lat="39.9373052" lon="16.1519671"><ele>1464.0</ele><time>2026-05-02T12:55:01.709Z</time></trkpt><trkpt lat="39.9373877" lon="16.1517889"><ele>1456.0</ele><time>2026-05-02T12:55:02.702Z</time></trkpt><trkpt lat="39.9374644" lon="16.151622"><ele>1456.25</ele><time>2026-05-02T12:55:03.711Z</time></trkpt><trkpt lat="39.9375286" lon="16.1514557"><ele>1456.5</ele><time>2026-05-02T12:55:04.703Z</time></trkpt><trkpt lat="39.9376064" lon="16.1513044"><ele>1456.75</ele><time>2026-05-02T12:55:05.702Z</time></trkpt><trkpt lat="39.9377154" lon="16.1511589"><ele>1457.0</ele><time>2026-05-02T12:55:06.714Z</time></trkpt><trkpt lat="39.9378447" lon="16.1510095"><ele>1457.0</ele><time>2026-05-02T12:55:07.711Z</time></trkpt><trkpt lat="39.9379751" lon="16.1508668"><ele>1457.0</ele><time>2026-05-02T12:55:08.711Z</time></trkpt><trkpt lat="39.9381027" lon="16.1507257"><ele>1457.0</ele><time>2026-05-02T12:55:09.718Z</time></trkpt><trkpt lat="39.9382293" lon="16.1505987"><ele>1453.75</ele><time>2026-05-02T12:55:10.715Z</time></trkpt><trkpt lat="39.9383416" lon="16.1504958"><ele>1450.5</ele><time>2026-05-02T12:55:11.711Z</time></trkpt><trkpt lat="39.9384236" lon="16.1504149"><ele>1447.25</ele><time>2026-05-02T12:55:12.702Z</time></trkpt><trkpt lat="39.9385105" lon="16.1503341"><ele>1444.0</ele><time>2026-05-02T12:55:13.719Z</time></trkpt><trkpt lat="39.9385952" lon="16.1502467"><ele>1444.0</ele><time>2026-05-02T12:55:14.712Z</time></trkpt><trkpt lat="39.9386884" lon="16.1501833"><ele>1444.0</ele><time>2026-05-02T12:55:15.712Z</time></trkpt><trkpt lat="39.9387834" lon="16.1501192"><ele>1444.0</ele><time>2026-05-02T12:55:16.72Z</time></trkpt><trkpt lat="39.9388927" lon="16.1500572"><ele>1444.0</ele><time>2026-05-02T12:55:17.701Z</time></trkpt><trkpt lat="39.9390018" lon="16.1500104"><ele>1444.0</ele><time>2026-05-02T12:55:18.727Z</time></trkpt><trkpt lat="39.9391187" lon="16.1499765"><ele>1441.8333333333333</ele><time>2026-05-02T12:55:19.712Z</time></trkpt><trkpt lat="39.9392359" lon="16.1499488"><ele>1439.6666666666665</ele><time>2026-05-02T12:55:20.708Z</time></trkpt><trkpt lat="39.939339" lon="16.1499184"><ele>1437.5</ele><time>2026-05-02T12:55:21.7Z</time></trkpt><trkpt lat="39.939412" lon="16.1498971"><ele>1435.3333333333333</ele><time>2026-05-02T12:55:22.716Z</time></trkpt><trkpt lat="39.9394756" lon="16.1498837"><ele>1433.1666666666667</ele><time>2026-05-02T12:55:23.716Z</time></trkpt><trkpt lat="39.9395413" lon="16.1498728"><ele>1431.0</ele><time>2026-05-02T12:55:24.705Z</time></trkpt><trkpt lat="39.9396106" lon="16.1498658"><ele>1427.6</ele><time>2026-05-02T12:55:25.71Z</time></trkpt><trkpt lat="39.9397131" lon="16.1498047"><ele>1424.1999999999998</ele><time>2026-05-02T12:55:27.696Z</time></trkpt><trkpt lat="39.9397208" lon="16.1496666"><ele>1420.8000000000002</ele><time>2026-05-02T12:55:29.713Z</time></trkpt><trkpt lat="39.9396785" lon="16.1495848"><ele>1417.4</ele><time>2026-05-02T12:55:30.708Z</time></trkpt><trkpt lat="39.939616" lon="16.1494949"><ele>1414.0</ele><time>2026-05-02T12:55:31.706Z</time></trkpt><trkpt lat="39.9395531" lon="16.1493945"><ele>1414.0</ele><time>2026-05-02T12:55:32.713Z</time></trkpt><trkpt lat="39.9394959" lon="16.1492944"><ele>1414.0</ele><time>2026-05-02T12:55:33.7Z</time></trkpt><trkpt lat="39.9394671" lon="16.1491989"><ele>1414.0</ele><time>2026-05-02T12:55:34.704Z</time></trkpt><trkpt lat="39.9394695" lon="16.1491088"><ele>1414.0</ele><time>2026-05-02T12:55:35.712Z</time></trkpt><trkpt lat="39.9394992" lon="16.1490237"><ele>1414.0</ele><time>2026-05-02T12:55:36.709Z</time></trkpt><trkpt lat="39.939559" lon="16.1489895"><ele>1414.0</ele><time>2026-05-02T12:55:37.695Z</time></trkpt><trkpt lat="39.9396359" lon="16.1489983"><ele>1414.0</ele><time>2026-05-02T12:55:38.706Z</time></trkpt><trkpt lat="39.9397268" lon="16.1490509"><ele>1414.0</ele><time>2026-05-02T12:55:39.718Z</time></trkpt><trkpt lat="39.9398298" lon="16.1491269"><ele>1414.0</ele><time>2026-05-02T12:55:40.701Z</time></trkpt><trkpt lat="39.9399352" lon="16.1491957"><ele>1414.0</ele><time>2026-05-02T12:55:41.705Z</time></trkpt><trkpt lat="39.9400256" lon="16.1492432"><ele>1414.0</ele><time>2026-05-02T12:55:42.718Z</time></trkpt><trkpt lat="39.9401222" lon="16.1492541"><ele>1412.4</ele><time>2026-05-02T12:55:43.707Z</time></trkpt><trkpt lat="39.9402245" lon="16.1492609"><ele>1410.8000000000002</ele><time>2026-05-02T12:55:44.712Z</time></trkpt><trkpt lat="39.9403278" lon="16.1492478"><ele>1409.1999999999998</ele><time>2026-05-02T12:55:45.72Z</time></trkpt><trkpt lat="39.9404337" lon="16.1492014"><ele>1407.6</ele><time>2026-05-02T12:55:46.704Z</time></trkpt><trkpt lat="39.9405424" lon="16.1491221"><ele>1406.0</ele><time>2026-05-02T12:55:47.705Z</time></trkpt><trkpt lat="39.9406518" lon="16.1490238"><ele>1405.0</ele><time>2026-05-02T12:55:48.712Z</time></trkpt><trkpt lat="39.9407746" lon="16.1489267"><ele>1404.0</ele><time>2026-05-02T12:55:49.715Z</time></trkpt><trkpt lat="39.9408956" lon="16.1488355"><ele>1403.0</ele><time>2026-05-02T12:55:50.704Z</time></trkpt><trkpt lat="39.9410075" lon="16.1487556"><ele>1402.0</ele><time>2026-05-02T12:55:51.707Z</time></trkpt><trkpt lat="39.9411108" lon="16.1486769"><ele>1402.0</ele><time>2026-05-02T12:55:52.718Z</time></trkpt><trkpt lat="39.941223" lon="16.1485994"><ele>1402.0</ele><time>2026-05-02T12:55:53.71Z</time></trkpt><trkpt lat="39.9413455" lon="16.1485342"><ele>1402.0</ele><time>2026-05-02T12:55:54.715Z</time></trkpt><trkpt lat="39.9414779" lon="16.1484747"><ele>1402.0</ele><time>2026-05-02T12:55:55.711Z</time></trkpt><trkpt lat="39.941603" lon="16.1484168"><ele>1402.0</ele><time>2026-05-02T12:55:56.714Z</time></trkpt><trkpt lat="39.9417208" lon="16.148363"><ele>1402.0</ele><time>2026-05-02T12:55:57.709Z</time></trkpt><trkpt lat="39.941833" lon="16.14831"><ele>1402.0</ele><time>2026-05-02T12:55:58.711Z</time></trkpt><trkpt lat="39.9419521" lon="16.148251"><ele>1402.0</ele><time>2026-05-02T12:55:59.7Z</time></trkpt><trkpt lat="39.9420822" lon="16.1481923"><ele>1402.25</ele><time>2026-05-02T12:56:00.722Z</time></trkpt><trkpt lat="39.942217" lon="16.148139"><ele>1402.5</ele><time>2026-05-02T12:56:01.706Z</time></trkpt><trkpt lat="39.9423405" lon="16.1480832"><ele>1402.75</ele><time>2026-05-02T12:56:02.708Z</time></trkpt><trkpt lat="39.9424618" lon="16.1480261"><ele>1403.0</ele><time>2026-05-02T12:56:03.695Z</time></trkpt><trkpt lat="39.9425867" lon="16.1479747"><ele>1402.2</ele><time>2026-05-02T12:56:04.721Z</time></trkpt><trkpt lat="39.9427053" lon="16.1479235"><ele>1401.4</ele><time>2026-05-02T12:56:05.714Z</time></trkpt><trkpt lat="39.9428155" lon="16.1478956"><ele>1400.6000000000001</ele><time>2026-05-02T12:56:06.714Z</time></trkpt><trkpt lat="39.9429168" lon="16.1478993"><ele>1399.8000000000002</ele><time>2026-05-02T12:56:07.713Z</time></trkpt><trkpt lat="39.9430254" lon="16.14792"><ele>1399.0</ele><time>2026-05-02T12:56:08.724Z</time></trkpt><trkpt lat="39.9431388" lon="16.1479436"><ele>1399.0</ele><time>2026-05-02T12:56:09.716Z</time></trkpt><trkpt lat="39.9432497" lon="16.1479684"><ele>1399.0</ele><time>2026-05-02T12:56:10.718Z</time></trkpt><trkpt lat="39.9433626" lon="16.1479828"><ele>1399.0</ele><time>2026-05-02T12:56:11.704Z</time></trkpt><trkpt lat="39.9434772" lon="16.1479558"><ele>1399.0</ele><time>2026-05-02T12:56:12.714Z</time></trkpt><trkpt lat="39.9435994" lon="16.1478715"><ele>1393.0</ele><time>2026-05-02T12:56:13.698Z</time></trkpt><trkpt lat="39.94373" lon="16.1477584"><ele>1387.0</ele><time>2026-05-02T12:56:14.712Z</time></trkpt><trkpt lat="39.9438633" lon="16.147648"><ele>1381.0</ele><time>2026-05-02T12:56:15.723Z</time></trkpt><trkpt lat="39.9440063" lon="16.1475421"><ele>1381.0</ele><time>2026-05-02T12:56:16.715Z</time></trkpt><trkpt lat="39.9441374" lon="16.1474423"><ele>1381.0</ele><time>2026-05-02T12:56:17.706Z</time></trkpt><trkpt lat="39.9442633" lon="16.1473619"><ele>1381.0</ele><time>2026-05-02T12:56:18.71Z</time></trkpt><trkpt lat="39.9443729" lon="16.1472936"><ele>1381.0</ele><time>2026-05-02T12:56:19.708Z</time></trkpt><trkpt lat="39.9444727" lon="16.1472518"><ele>1378.8</ele><time>2026-05-02T12:56:20.697Z</time></trkpt><trkpt lat="39.944568" lon="16.1472147"><ele>1376.6</ele><time>2026-05-02T12:56:21.709Z</time></trkpt><trkpt lat="39.9446714" lon="16.1472244"><ele>1374.4</ele><time>2026-05-02T12:56:22.712Z</time></trkpt><trkpt lat="39.9447821" lon="16.1472377"><ele>1372.2</ele><time>2026-05-02T12:56:23.703Z</time></trkpt><trkpt lat="39.9448936" lon="16.1472787"><ele>1370.0</ele><time>2026-05-02T12:56:24.709Z</time></trkpt><trkpt lat="39.9449894" lon="16.1472994"><ele>1367.2</ele><time>2026-05-02T12:56:25.719Z</time></trkpt><trkpt lat="39.94509" lon="16.1472952"><ele>1364.4</ele><time>2026-05-02T12:56:26.702Z</time></trkpt><trkpt lat="39.9451858" lon="16.147253"><ele>1361.6</ele><time>2026-05-02T12:56:27.723Z</time></trkpt><trkpt lat="39.9452759" lon="16.1471797"><ele>1358.8</ele><time>2026-05-02T12:56:28.71Z</time></trkpt><trkpt lat="39.9453642" lon="16.1470954"><ele>1356.0</ele><time>2026-05-02T12:56:29.695Z</time></trkpt><trkpt lat="39.9454558" lon="16.1470345"><ele>1356.0</ele><time>2026-05-02T12:56:30.706Z</time></trkpt><trkpt lat="39.9455583" lon="16.1469982"><ele>1356.0</ele><time>2026-05-02T12:56:31.701Z</time></trkpt><trkpt lat="39.9456618" lon="16.1469996"><ele>1356.0</ele><time>2026-05-02T12:56:32.706Z</time></trkpt><trkpt lat="39.9457576" lon="16.1470132"><ele>1356.0</ele><time>2026-05-02T12:56:33.693Z</time></trkpt><trkpt lat="39.9458439" lon="16.1470077"><ele>1356.0</ele><time>2026-05-02T12:56:34.703Z</time></trkpt><trkpt lat="39.9459157" lon="16.1469676"><ele>1351.5</ele><time>2026-05-02T12:56:35.716Z</time></trkpt><trkpt lat="39.9460047" lon="16.1468866"><ele>1347.0</ele><time>2026-05-02T12:56:36.699Z</time></trkpt><trkpt lat="39.9460945" lon="16.1467735"><ele>1342.5</ele><time>2026-05-02T12:56:37.687Z</time></trkpt><trkpt lat="39.9461935" lon="16.1466659"><ele>1338.0</ele><time>2026-05-02T12:56:38.715Z</time></trkpt><trkpt lat="39.9462795" lon="16.1465674"><ele>1338.4</ele><time>2026-05-02T12:56:39.71Z</time></trkpt><trkpt lat="39.9463366" lon="16.1464788"><ele>1338.8000000000002</ele><time>2026-05-02T12:56:40.708Z</time></trkpt><trkpt lat="39.9463627" lon="16.1463878"><ele>1339.2</ele><time>2026-05-02T12:56:41.709Z</time></trkpt><trkpt lat="39.9463591" lon="16.1462702"><ele>1339.6</ele><time>2026-05-02T12:56:42.718Z</time></trkpt><trkpt lat="39.9463385" lon="16.146124"><ele>1340.0</ele><time>2026-05-02T12:56:43.73Z</time></trkpt><trkpt lat="39.9463259" lon="16.1459628"><ele>1340.0</ele><time>2026-05-02T12:56:44.713Z</time></trkpt><trkpt lat="39.9463225" lon="16.1458077"><ele>1340.0</ele><time>2026-05-02T12:56:45.713Z</time></trkpt><trkpt lat="39.9463249" lon="16.1456542"><ele>1340.0</ele><time>2026-05-02T12:56:46.713Z</time></trkpt><trkpt lat="39.9463324" lon="16.1455078"><ele>1340.0</ele><time>2026-05-02T12:56:47.708Z</time></trkpt><trkpt lat="39.9463585" lon="16.145379"><ele>1340.3333333333335</ele><time>2026-05-02T12:56:48.712Z</time></trkpt><trkpt lat="39.9463884" lon="16.1452606"><ele>1340.6666666666667</ele><time>2026-05-02T12:56:49.708Z</time></trkpt><trkpt lat="39.9464332" lon="16.1451635"><ele>1341.0</ele><time>2026-05-02T12:56:50.704Z</time></trkpt><trkpt lat="39.9464938" lon="16.1450824"><ele>1341.3333333333333</ele><time>2026-05-02T12:56:51.72Z</time></trkpt><trkpt lat="39.9465697" lon="16.1450206"><ele>1341.6666666666665</ele><time>2026-05-02T12:56:52.725Z</time></trkpt><trkpt lat="39.9466544" lon="16.1449949"><ele>1342.0</ele><time>2026-05-02T12:56:53.709Z</time></trkpt><trkpt lat="39.9467574" lon="16.1449964"><ele>1340.5</ele><time>2026-05-02T12:56:54.721Z</time></trkpt><trkpt lat="39.9468722" lon="16.1450165"><ele>1339.0</ele><time>2026-05-02T12:56:55.704Z</time></trkpt><trkpt lat="39.9470077" lon="16.1450304"><ele>1337.5</ele><time>2026-05-02T12:56:56.708Z</time></trkpt><trkpt lat="39.9471569" lon="16.1450366"><ele>1336.0</ele><time>2026-05-02T12:56:57.712Z</time></trkpt><trkpt lat="39.9473092" lon="16.1450496"><ele>1336.0</ele><time>2026-05-02T12:56:58.72Z</time></trkpt><trkpt lat="39.9474546" lon="16.1450598"><ele>1336.0</ele><time>2026-05-02T12:56:59.712Z</time></trkpt><trkpt lat="39.947591" lon="16.1450665"><ele>1336.0</ele><time>2026-05-02T12:57:00.707Z</time></trkpt><trkpt lat="39.9477349" lon="16.1450674"><ele>1336.0</ele><time>2026-05-02T12:57:01.706Z</time></trkpt><trkpt lat="39.9478896" lon="16.1450627"><ele>1335.0</ele><time>2026-05-02T12:57:02.709Z</time></trkpt><trkpt lat="39.9480453" lon="16.1450651"><ele>1334.0</ele><time>2026-05-02T12:57:03.722Z</time></trkpt><trkpt lat="39.9481998" lon="16.1450742"><ele>1333.0</ele><time>2026-05-02T12:57:04.71Z</time></trkpt><trkpt lat="39.9483402" lon="16.1450866"><ele>1329.25</ele><time>2026-05-02T12:57:05.708Z</time></trkpt><trkpt lat="39.9484687" lon="16.1451001"><ele>1325.5</ele><time>2026-05-02T12:57:06.724Z</time></trkpt><trkpt lat="39.9485916" lon="16.1451156"><ele>1321.75</ele><time>2026-05-02T12:57:07.709Z</time></trkpt><trkpt lat="39.9487205" lon="16.1451449"><ele>1318.0</ele><time>2026-05-02T12:57:08.72Z</time></trkpt><trkpt lat="39.9488569" lon="16.1451995"><ele>1318.0</ele><time>2026-05-02T12:57:09.701Z</time></trkpt><trkpt lat="39.9489888" lon="16.1452586"><ele>1318.0</ele><time>2026-05-02T12:57:10.714Z</time></trkpt><trkpt lat="39.9491049" lon="16.1453209"><ele>1318.0</ele><time>2026-05-02T12:57:11.709Z</time></trkpt><trkpt lat="39.9492159" lon="16.1453689"><ele>1318.0</ele><time>2026-05-02T12:57:12.722Z</time></trkpt><trkpt lat="39.9493233" lon="16.1453945"><ele>1316.5</ele><time>2026-05-02T12:57:13.699Z</time></trkpt><trkpt lat="39.9494257" lon="16.1454024"><ele>1315.0</ele><time>2026-05-02T12:57:14.71Z</time></trkpt><trkpt lat="39.9495314" lon="16.145383"><ele>1313.5</ele><time>2026-05-02T12:57:15.719Z</time></trkpt><trkpt lat="39.9496466" lon="16.145339"><ele>1312.0</ele><time>2026-05-02T12:57:16.716Z</time></trkpt><trkpt lat="39.9497669" lon="16.1452643"><ele>1312.0</ele><time>2026-05-02T12:57:17.721Z</time></trkpt><trkpt lat="39.9499045" lon="16.1451796"><ele>1312.0</ele><time>2026-05-02T12:57:18.715Z</time></trkpt><trkpt lat="39.9500595" lon="16.1450822"><ele>1312.0</ele><time>2026-05-02T12:57:19.721Z</time></trkpt><trkpt lat="39.9502247" lon="16.1449869"><ele>1311.6666666666665</ele><time>2026-05-02T12:57:20.725Z</time></trkpt><trkpt lat="39.9503826" lon="16.1448905"><ele>1311.3333333333333</ele><time>2026-05-02T12:57:21.715Z</time></trkpt><trkpt lat="39.9505321" lon="16.1447999"><ele>1311.0</ele><time>2026-05-02T12:57:22.72Z</time></trkpt><trkpt lat="39.9506681" lon="16.1447284"><ele>1310.75</ele><time>2026-05-02T12:57:23.695Z</time></trkpt><trkpt lat="39.9507933" lon="16.1446538"><ele>1310.5</ele><time>2026-05-02T12:57:24.72Z</time></trkpt><trkpt lat="39.9509054" lon="16.1445745"><ele>1310.25</ele><time>2026-05-02T12:57:25.715Z</time></trkpt><trkpt lat="39.9509898" lon="16.1444896"><ele>1310.0</ele><time>2026-05-02T12:57:26.705Z</time></trkpt><trkpt lat="39.9510566" lon="16.1443939"><ele>1310.0</ele><time>2026-05-02T12:57:27.716Z</time></trkpt><trkpt lat="39.951119" lon="16.1442811"><ele>1310.0</ele><time>2026-05-02T12:57:28.713Z</time></trkpt><trkpt lat="39.951183" lon="16.1441694"><ele>1310.0</ele><time>2026-05-02T12:57:29.718Z</time></trkpt><trkpt lat="39.9512496" lon="16.1440736"><ele>1310.0</ele><time>2026-05-02T12:57:30.719Z</time></trkpt><trkpt lat="39.9513161" lon="16.1439972"><ele>1310.0</ele><time>2026-05-02T12:57:31.72Z</time></trkpt><trkpt lat="39.9513879" lon="16.1439245"><ele>1310.0</ele><time>2026-05-02T12:57:32.714Z</time></trkpt><trkpt lat="39.951479" lon="16.1438506"><ele>1310.0</ele><time>2026-05-02T12:57:33.704Z</time></trkpt><trkpt lat="39.9515881" lon="16.1437756"><ele>1310.0</ele><time>2026-05-02T12:57:34.708Z</time></trkpt><trkpt lat="39.9517121" lon="16.1437042"><ele>1310.0</ele><time>2026-05-02T12:57:35.705Z</time></trkpt><trkpt lat="39.9518404" lon="16.1436305"><ele>1309.5</ele><time>2026-05-02T12:57:36.712Z</time></trkpt><trkpt lat="39.951972" lon="16.143551"><ele>1309.0</ele><time>2026-05-02T12:57:37.717Z</time></trkpt><trkpt lat="39.9521059" lon="16.1434676"><ele>1308.5</ele><time>2026-05-02T12:57:38.722Z</time></trkpt><trkpt lat="39.9522392" lon="16.1433833"><ele>1308.0</ele><time>2026-05-02T12:57:39.716Z</time></trkpt><trkpt lat="39.952373" lon="16.1432996"><ele>1306.3333333333333</ele><time>2026-05-02T12:57:40.724Z</time></trkpt><trkpt lat="39.9525036" lon="16.1432132"><ele>1304.6666666666665</ele><time>2026-05-02T12:57:41.711Z</time></trkpt><trkpt lat="39.9526389" lon="16.1431302"><ele>1303.0</ele><time>2026-05-02T12:57:42.717Z</time></trkpt><trkpt lat="39.9527809" lon="16.1430515"><ele>1302.75</ele><time>2026-05-02T12:57:43.725Z</time></trkpt><trkpt lat="39.9529158" lon="16.1429692"><ele>1302.5</ele><time>2026-05-02T12:57:44.738Z</time></trkpt><trkpt lat="39.9530411" lon="16.1428888"><ele>1302.25</ele><time>2026-05-02T12:57:45.721Z</time></trkpt><trkpt lat="39.9531673" lon="16.1428175"><ele>1302.0</ele><time>2026-05-02T12:57:46.724Z</time></trkpt><trkpt lat="39.9532903" lon="16.1427523"><ele>1300.5</ele><time>2026-05-02T12:57:47.709Z</time></trkpt><trkpt lat="39.9534122" lon="16.142697"><ele>1299.0</ele><time>2026-05-02T12:57:48.712Z</time></trkpt><trkpt lat="39.9535416" lon="16.1426451"><ele>1297.5</ele><time>2026-05-02T12:57:49.708Z</time></trkpt><trkpt lat="39.9536813" lon="16.1425976"><ele>1296.0</ele><time>2026-05-02T12:57:50.732Z</time></trkpt><trkpt lat="39.9538341" lon="16.1425477"><ele>1296.0</ele><time>2026-05-02T12:57:51.708Z</time></trkpt><trkpt lat="39.953988" lon="16.1424998"><ele>1296.0</ele><time>2026-05-02T12:57:52.733Z</time></trkpt><trkpt lat="39.9541451" lon="16.142457"><ele>1296.0</ele><time>2026-05-02T12:57:53.717Z</time></trkpt><trkpt lat="39.9543081" lon="16.1424026"><ele>1296.0</ele><time>2026-05-02T12:57:54.715Z</time></trkpt><trkpt lat="39.954465" lon="16.1423481"><ele>1296.0</ele><time>2026-05-02T12:57:55.715Z</time></trkpt><trkpt lat="39.9546073" lon="16.142302"><ele>1296.0</ele><time>2026-05-02T12:57:56.702Z</time></trkpt><trkpt lat="39.954738" lon="16.14226"><ele>1296.0</ele><time>2026-05-02T12:57:57.705Z</time></trkpt><trkpt lat="39.9548539" lon="16.1422202"><ele>1296.0</ele><time>2026-05-02T12:57:58.707Z</time></trkpt><trkpt lat="39.9549588" lon="16.1421825"><ele>1296.0</ele><time>2026-05-02T12:57:59.713Z</time></trkpt><trkpt lat="39.9550632" lon="16.1421308"><ele>1296.0</ele><time>2026-05-02T12:58:00.707Z</time></trkpt><trkpt lat="39.9551727" lon="16.142053"><ele>1296.0</ele><time>2026-05-02T12:58:01.714Z</time></trkpt><trkpt lat="39.955291" lon="16.1419643"><ele>1295.5</ele><time>2026-05-02T12:58:02.724Z</time></trkpt><trkpt lat="39.9554181" lon="16.1418735"><ele>1295.0</ele><time>2026-05-02T12:58:03.718Z</time></trkpt><trkpt lat="39.9555453" lon="16.1417874"><ele>1294.5</ele><time>2026-05-02T12:58:04.711Z</time></trkpt><trkpt lat="39.9556634" lon="16.1416963"><ele>1294.0</ele><time>2026-05-02T12:58:05.709Z</time></trkpt><trkpt lat="39.9557765" lon="16.14161"><ele>1291.5</ele><time>2026-05-02T12:58:06.705Z</time></trkpt><trkpt lat="39.955882" lon="16.1415252"><ele>1289.0</ele><time>2026-05-02T12:58:07.708Z</time></trkpt><trkpt lat="39.9559759" lon="16.1414275"><ele>1286.5</ele><time>2026-05-02T12:58:08.712Z</time></trkpt><trkpt lat="39.9560691" lon="16.1412992"><ele>1284.0</ele><time>2026-05-02T12:58:09.704Z</time></trkpt><trkpt lat="39.9561646" lon="16.1411605"><ele>1284.0</ele><time>2026-05-02T12:58:10.713Z</time></trkpt><trkpt lat="39.9562695" lon="16.1410066"><ele>1284.0</ele><time>2026-05-02T12:58:11.716Z</time></trkpt><trkpt lat="39.9563873" lon="16.1408423"><ele>1284.0</ele><time>2026-05-02T12:58:12.713Z</time></trkpt><trkpt lat="39.9565017" lon="16.1406776"><ele>1283.0</ele><time>2026-05-02T12:58:13.718Z</time></trkpt><trkpt lat="39.9566151" lon="16.1405184"><ele>1282.0</ele><time>2026-05-02T12:58:14.718Z</time></trkpt><trkpt lat="39.9567212" lon="16.1403696"><ele>1281.0</ele><time>2026-05-02T12:58:15.718Z</time></trkpt><trkpt lat="39.9568231" lon="16.1402238"><ele>1279.75</ele><time>2026-05-02T12:58:16.709Z</time></trkpt><trkpt lat="39.9569272" lon="16.140078"><ele>1278.5</ele><time>2026-05-02T12:58:17.706Z</time></trkpt><trkpt lat="39.9570213" lon="16.1399472"><ele>1277.25</ele><time>2026-05-02T12:58:18.71Z</time></trkpt><trkpt lat="39.9571003" lon="16.1398366"><ele>1276.0</ele><time>2026-05-02T12:58:19.706Z</time></trkpt><trkpt lat="39.9571665" lon="16.139745"><ele>1273.8</ele><time>2026-05-02T12:58:20.719Z</time></trkpt><trkpt lat="39.9572302" lon="16.1396679"><ele>1271.6</ele><time>2026-05-02T12:58:21.722Z</time></trkpt><trkpt lat="39.9572935" lon="16.1396035"><ele>1269.4</ele><time>2026-05-02T12:58:22.729Z</time></trkpt><trkpt lat="39.9573787" lon="16.1395545"><ele>1267.2</ele><time>2026-05-02T12:58:23.715Z</time></trkpt><trkpt lat="39.9574806" lon="16.1395434"><ele>1265.0</ele><time>2026-05-02T12:58:24.726Z</time></trkpt><trkpt lat="39.9575959" lon="16.1395468"><ele>1265.0</ele><time>2026-05-02T12:58:25.706Z</time></trkpt><trkpt lat="39.9577196" lon="16.1395443"><ele>1265.0</ele><time>2026-05-02T12:58:26.723Z</time></trkpt><trkpt lat="39.9578501" lon="16.1395459"><ele>1265.0</ele><time>2026-05-02T12:58:27.72Z</time></trkpt><trkpt lat="39.9579811" lon="16.1395422"><ele>1265.0</ele><time>2026-05-02T12:58:28.709Z</time></trkpt><trkpt lat="39.9580992" lon="16.13954"><ele>1265.0</ele><time>2026-05-02T12:58:29.705Z</time></trkpt><trkpt lat="39.9581992" lon="16.1395379"><ele>1265.0</ele><time>2026-05-02T12:58:30.72Z</time></trkpt><trkpt lat="39.9582738" lon="16.139551"><ele>1265.0</ele><time>2026-05-02T12:58:31.722Z</time></trkpt><trkpt lat="39.9583541" lon="16.1396296"><ele>1265.0</ele><time>2026-05-02T12:58:33.72Z</time></trkpt><trkpt lat="39.9583461" lon="16.1397517"><ele>1265.0</ele><time>2026-05-02T12:58:35.712Z</time></trkpt><trkpt lat="39.9582714" lon="16.1398929"><ele>1264.6</ele><time>2026-05-02T12:58:37.713Z</time></trkpt><trkpt lat="39.9582099" lon="16.139973"><ele>1264.2</ele><time>2026-05-02T12:58:38.711Z</time></trkpt><trkpt lat="39.9581427" lon="16.1400513"><ele>1263.8</ele><time>2026-05-02T12:58:39.715Z</time></trkpt><trkpt lat="39.9580635" lon="16.1401478"><ele>1263.4</ele><time>2026-05-02T12:58:40.717Z</time></trkpt><trkpt lat="39.9579777" lon="16.1402695"><ele>1263.0</ele><time>2026-05-02T12:58:41.71Z</time></trkpt><trkpt lat="39.957902" lon="16.1404008"><ele>1263.0</ele><time>2026-05-02T12:58:42.704Z</time></trkpt><trkpt lat="39.957843" lon="16.1405337"><ele>1263.0</ele><time>2026-05-02T12:58:43.707Z</time></trkpt><trkpt lat="39.9578002" lon="16.140662"><ele>1263.0</ele><time>2026-05-02T12:58:44.702Z</time></trkpt><trkpt lat="39.957759" lon="16.1407944"><ele>1263.0</ele><time>2026-05-02T12:58:45.711Z</time></trkpt><trkpt lat="39.9577212" lon="16.1409458"><ele>1260.2</ele><time>2026-05-02T12:58:46.707Z</time></trkpt><trkpt lat="39.9576883" lon="16.1411013"><ele>1257.4</ele><time>2026-05-02T12:58:47.712Z</time></trkpt><trkpt lat="39.9576577" lon="16.1412398"><ele>1254.6000000000001</ele><time>2026-05-02T12:58:48.712Z</time></trkpt><trkpt lat="39.9576441" lon="16.1413526"><ele>1251.8</ele><time>2026-05-02T12:58:49.701Z</time></trkpt><trkpt lat="39.9576525" lon="16.1414498"><ele>1249.0</ele><time>2026-05-02T12:58:50.687Z</time></trkpt><trkpt lat="39.9576832" lon="16.1415421"><ele>1249.0</ele><time>2026-05-02T12:58:51.708Z</time></trkpt><trkpt lat="39.9577426" lon="16.1416305"><ele>1249.0</ele><time>2026-05-02T12:58:52.715Z</time></trkpt><trkpt lat="39.9578171" lon="16.1417102"><ele>1249.0</ele><time>2026-05-02T12:58:53.704Z</time></trkpt><trkpt lat="39.957906" lon="16.141791"><ele>1249.0</ele><time>2026-05-02T12:58:54.708Z</time></trkpt><trkpt lat="39.9579999" lon="16.1418946"><ele>1249.0</ele><time>2026-05-02T12:58:55.705Z</time></trkpt><trkpt lat="39.9580855" lon="16.142003"><ele>1249.0</ele><time>2026-05-02T12:58:56.707Z</time></trkpt><trkpt lat="39.9581544" lon="16.1420907"><ele>1249.0</ele><time>2026-05-02T12:58:57.703Z</time></trkpt><trkpt lat="39.9582025" lon="16.1421668"><ele>1249.0</ele><time>2026-05-02T12:58:58.701Z</time></trkpt><trkpt lat="39.9582442" lon="16.1422444"><ele>1249.0</ele><time>2026-05-02T12:58:59.711Z</time></trkpt><trkpt lat="39.9582712" lon="16.142346"><ele>1249.0</ele><time>2026-05-02T12:59:00.718Z</time></trkpt><trkpt lat="39.9582837" lon="16.1424638"><ele>1249.0</ele><time>2026-05-02T12:59:01.712Z</time></trkpt><trkpt lat="39.9582852" lon="16.1426046"><ele>1250.2</ele><time>2026-05-02T12:59:02.705Z</time></trkpt><trkpt lat="39.9582727" lon="16.1427425"><ele>1251.4</ele><time>2026-05-02T12:59:03.701Z</time></trkpt><trkpt lat="39.9582501" lon="16.1428721"><ele>1252.6</ele><time>2026-05-02T12:59:04.713Z</time></trkpt><trkpt lat="39.9582161" lon="16.142995"><ele>1253.8</ele><time>2026-05-02T12:59:05.716Z</time></trkpt><trkpt lat="39.9581749" lon="16.143101"><ele>1255.0</ele><time>2026-05-02T12:59:06.71Z</time></trkpt><trkpt lat="39.9581454" lon="16.1431918"><ele>1253.2</ele><time>2026-05-02T12:59:07.707Z</time></trkpt><trkpt lat="39.9581451" lon="16.1432898"><ele>1251.4</ele><time>2026-05-02T12:59:08.698Z</time></trkpt><trkpt lat="39.9581814" lon="16.1433934"><ele>1249.6</ele><time>2026-05-02T12:59:09.71Z</time></trkpt><trkpt lat="39.9582413" lon="16.143499"><ele>1247.8</ele><time>2026-05-02T12:59:10.709Z</time></trkpt><trkpt lat="39.9583272" lon="16.1436173"><ele>1246.0</ele><time>2026-05-02T12:59:11.703Z</time></trkpt><trkpt lat="39.9584268" lon="16.1437421"><ele>1243.25</ele><time>2026-05-02T12:59:12.712Z</time></trkpt><trkpt lat="39.9585209" lon="16.1438622"><ele>1240.5</ele><time>2026-05-02T12:59:13.703Z</time></trkpt><trkpt lat="39.9586084" lon="16.143962"><ele>1237.75</ele><time>2026-05-02T12:59:14.71Z</time></trkpt><trkpt lat="39.9587024" lon="16.1440427"><ele>1235.0</ele><time>2026-05-02T12:59:15.71Z</time></trkpt><trkpt lat="39.9588162" lon="16.1441115"><ele>1235.0</ele><time>2026-05-02T12:59:16.717Z</time></trkpt><trkpt lat="39.9589429" lon="16.1441691"><ele>1235.0</ele><time>2026-05-02T12:59:17.708Z</time></trkpt><trkpt lat="39.9590674" lon="16.1442201"><ele>1235.0</ele><time>2026-05-02T12:59:18.724Z</time></trkpt><trkpt lat="39.9591904" lon="16.1442653"><ele>1235.0</ele><time>2026-05-02T12:59:19.705Z</time></trkpt><trkpt lat="39.9593168" lon="16.14431"><ele>1231.75</ele><time>2026-05-02T12:59:20.713Z</time></trkpt><trkpt lat="39.959447" lon="16.1443415"><ele>1228.5</ele><time>2026-05-02T12:59:21.719Z</time></trkpt><trkpt lat="39.9595712" lon="16.1443706"><ele>1225.25</ele><time>2026-05-02T12:59:22.712Z</time></trkpt><trkpt lat="39.9596999" lon="16.1443855"><ele>1222.0</ele><time>2026-05-02T12:59:23.71Z</time></trkpt><trkpt lat="39.9598383" lon="16.1443972"><ele>1222.0</ele><time>2026-05-02T12:59:24.7Z</time></trkpt><trkpt lat="39.9599799" lon="16.1444076"><ele>1222.0</ele><time>2026-05-02T12:59:25.715Z</time></trkpt><trkpt lat="39.9601165" lon="16.1444241"><ele>1222.0</ele><time>2026-05-02T12:59:26.716Z</time></trkpt><trkpt lat="39.9602396" lon="16.1444391"><ele>1222.0</ele><time>2026-05-02T12:59:27.722Z</time></trkpt><trkpt lat="39.9603373" lon="16.1444508"><ele>1220.5</ele><time>2026-05-02T12:59:28.72Z</time></trkpt><trkpt lat="39.9604093" lon="16.1444482"><ele>1219.0</ele><time>2026-05-02T12:59:29.698Z</time></trkpt><trkpt lat="39.9604683" lon="16.1444181"><ele>1217.5</ele><time>2026-05-02T12:59:30.709Z</time></trkpt><trkpt lat="39.9605489" lon="16.1443579"><ele>1216.0</ele><time>2026-05-02T12:59:31.715Z</time></trkpt><trkpt lat="39.9606184" lon="16.1442791"><ele>1214.5</ele><time>2026-05-02T12:59:32.708Z</time></trkpt><trkpt lat="39.9606849" lon="16.1442059"><ele>1213.0</ele><time>2026-05-02T12:59:33.72Z</time></trkpt><trkpt lat="39.9607575" lon="16.144142"><ele>1213.0</ele><time>2026-05-02T12:59:34.726Z</time></trkpt><trkpt lat="39.9608403" lon="16.1440766"><ele>1213.0</ele><time>2026-05-02T12:59:35.711Z</time></trkpt><trkpt lat="39.960933" lon="16.1440279"><ele>1213.0</ele><time>2026-05-02T12:59:36.717Z</time></trkpt><trkpt lat="39.9610327" lon="16.143984"><ele>1213.0</ele><time>2026-05-02T12:59:37.711Z</time></trkpt><trkpt lat="39.961131" lon="16.1439432"><ele>1213.0</ele><time>2026-05-02T12:59:38.716Z</time></trkpt><trkpt lat="39.9612035" lon="16.1439037"><ele>1211.8</ele><time>2026-05-02T12:59:39.702Z</time></trkpt><trkpt lat="39.9612677" lon="16.1438848"><ele>1210.6</ele><time>2026-05-02T12:59:40.707Z</time></trkpt><trkpt lat="39.9613789" lon="16.1439055"><ele>1209.4</ele><time>2026-05-02T12:59:42.716Z</time></trkpt><trkpt lat="39.961433" lon="16.1440605"><ele>1208.2</ele><time>2026-05-02T12:59:44.725Z</time></trkpt><trkpt lat="39.9614487" lon="16.1441791"><ele>1207.0</ele><time>2026-05-02T12:59:45.708Z</time></trkpt><trkpt lat="39.9614718" lon="16.1442947"><ele>1207.0</ele><time>2026-05-02T12:59:46.715Z</time></trkpt><trkpt lat="39.9615066" lon="16.1444031"><ele>1207.0</ele><time>2026-05-02T12:59:47.709Z</time></trkpt><trkpt lat="39.9615512" lon="16.1445217"><ele>1207.0</ele><time>2026-05-02T12:59:48.727Z</time></trkpt><trkpt lat="39.9616152" lon="16.1446335"><ele>1207.0</ele><time>2026-05-02T12:59:49.708Z</time></trkpt><trkpt lat="39.9616957" lon="16.1447333"><ele>1207.0</ele><time>2026-05-02T12:59:50.716Z</time></trkpt><trkpt lat="39.9617845" lon="16.144817"><ele>1205.5</ele><time>2026-05-02T12:59:51.713Z</time></trkpt><trkpt lat="39.961888" lon="16.1448767"><ele>1204.0</ele><time>2026-05-02T12:59:52.72Z</time></trkpt><trkpt lat="39.9620131" lon="16.1449227"><ele>1202.5</ele><time>2026-05-02T12:59:53.705Z</time></trkpt><trkpt lat="39.9621464" lon="16.1449588"><ele>1201.0</ele><time>2026-05-02T12:59:54.719Z</time></trkpt><trkpt lat="39.9622834" lon="16.1449931"><ele>1201.0</ele><time>2026-05-02T12:59:55.706Z</time></trkpt><trkpt lat="39.9624227" lon="16.1450194"><ele>1201.0</ele><time>2026-05-02T12:59:56.713Z</time></trkpt><trkpt lat="39.9625536" lon="16.1450518"><ele>1201.0</ele><time>2026-05-02T12:59:57.721Z</time></trkpt><trkpt lat="39.9626764" lon="16.145079"><ele>1201.0</ele><time>2026-05-02T12:59:58.706Z</time></trkpt><trkpt lat="39.9628017" lon="16.1451089"><ele>1200.0</ele><time>2026-05-02T12:59:59.697Z</time></trkpt><trkpt lat="39.9629355" lon="16.1451276"><ele>1199.0</ele><time>2026-05-02T13:00:00.712Z</time></trkpt><trkpt lat="39.9630677" lon="16.1451392"><ele>1198.0</ele><time>2026-05-02T13:00:01.692Z</time></trkpt><trkpt lat="39.9631837" lon="16.1451694"><ele>1197.0</ele><time>2026-05-02T13:00:02.717Z</time></trkpt><trkpt lat="39.9632937" lon="16.1452107"><ele>1195.75</ele><time>2026-05-02T13:00:03.717Z</time></trkpt><trkpt lat="39.9633982" lon="16.1452656"><ele>1194.5</ele><time>2026-05-02T13:00:04.715Z</time></trkpt><trkpt lat="39.9635031" lon="16.1453355"><ele>1193.25</ele><time>2026-05-02T13:00:05.714Z</time></trkpt><trkpt lat="39.9636093" lon="16.1454224"><ele>1192.0</ele><time>2026-05-02T13:00:06.701Z</time></trkpt><trkpt lat="39.9637162" lon="16.1455279"><ele>1192.0</ele><time>2026-05-02T13:00:07.718Z</time></trkpt><trkpt lat="39.9638336" lon="16.1456457"><ele>1192.0</ele><time>2026-05-02T13:00:08.718Z</time></trkpt><trkpt lat="39.9639548" lon="16.1457677"><ele>1192.0</ele><time>2026-05-02T13:00:09.705Z</time></trkpt><trkpt lat="39.9640813" lon="16.1458941"><ele>1192.3333333333333</ele><time>2026-05-02T13:00:10.714Z</time></trkpt><trkpt lat="39.9642106" lon="16.1460209"><ele>1192.6666666666667</ele><time>2026-05-02T13:00:11.72Z</time></trkpt><trkpt lat="39.9643437" lon="16.1461448"><ele>1193.0</ele><time>2026-05-02T13:00:12.721Z</time></trkpt><trkpt lat="39.964475" lon="16.1462713"><ele>1193.0</ele><time>2026-05-02T13:00:13.711Z</time></trkpt><trkpt lat="39.9645936" lon="16.1463918"><ele>1193.0</ele><time>2026-05-02T13:00:14.717Z</time></trkpt><trkpt lat="39.9646988" lon="16.1464997"><ele>1193.0</ele><time>2026-05-02T13:00:15.715Z</time></trkpt><trkpt lat="39.9648004" lon="16.146604"><ele>1193.0</ele><time>2026-05-02T13:00:16.716Z</time></trkpt><trkpt lat="39.9649026" lon="16.1467093"><ele>1192.75</ele><time>2026-05-02T13:00:17.706Z</time></trkpt><trkpt lat="39.9650074" lon="16.1468249"><ele>1192.5</ele><time>2026-05-02T13:00:18.717Z</time></trkpt><trkpt lat="39.9651128" lon="16.1469511"><ele>1192.25</ele><time>2026-05-02T13:00:19.7Z</time></trkpt><trkpt lat="39.9652177" lon="16.1470825"><ele>1192.0</ele><time>2026-05-02T13:00:20.719Z</time></trkpt><trkpt lat="39.9653275" lon="16.1472148"><ele>1192.0</ele><time>2026-05-02T13:00:21.711Z</time></trkpt><trkpt lat="39.9654328" lon="16.1473441"><ele>1192.0</ele><time>2026-05-02T13:00:22.72Z</time></trkpt><trkpt lat="39.9655386" lon="16.147469"><ele>1192.0</ele><time>2026-05-02T13:00:23.711Z</time></trkpt><trkpt lat="39.9656425" lon="16.1475837"><ele>1192.0</ele><time>2026-05-02T13:00:24.714Z</time></trkpt><trkpt lat="39.9657401" lon="16.147687"><ele>1191.75</ele><time>2026-05-02T13:00:25.715Z</time></trkpt><trkpt lat="39.9658438" lon="16.1477666"><ele>1191.5</ele><time>2026-05-02T13:00:26.716Z</time></trkpt><trkpt lat="39.9659572" lon="16.1478471"><ele>1191.25</ele><time>2026-05-02T13:00:27.718Z</time></trkpt><trkpt lat="39.9660784" lon="16.147937"><ele>1191.0</ele><time>2026-05-02T13:00:28.714Z</time></trkpt><trkpt lat="39.9661945" lon="16.1480254"><ele>1191.0</ele><time>2026-05-02T13:00:29.724Z</time></trkpt><trkpt lat="39.9663083" lon="16.1480893"><ele>1191.0</ele><time>2026-05-02T13:00:30.708Z</time></trkpt><trkpt lat="39.9663983" lon="16.1481453"><ele>1191.0</ele><time>2026-05-02T13:00:31.719Z</time></trkpt><trkpt lat="39.9664682" lon="16.1481932"><ele>1191.0</ele><time>2026-05-02T13:00:32.708Z</time></trkpt><trkpt lat="39.9665366" lon="16.1482405"><ele>1191.0</ele><time>2026-05-02T13:00:33.704Z</time></trkpt><trkpt lat="39.9666092" lon="16.1483135"><ele>1189.0</ele><time>2026-05-02T13:00:34.705Z</time></trkpt><trkpt lat="39.966705" lon="16.1484185"><ele>1187.0</ele><time>2026-05-02T13:00:35.717Z</time></trkpt><trkpt lat="39.966817" lon="16.1485475"><ele>1185.0</ele><time>2026-05-02T13:00:36.689Z</time></trkpt><trkpt lat="39.9669308" lon="16.1486965"><ele>1183.0</ele><time>2026-05-02T13:00:37.72Z</time></trkpt><trkpt lat="39.9670468" lon="16.148856"><ele>1183.0</ele><time>2026-05-02T13:00:38.722Z</time></trkpt><trkpt lat="39.9671683" lon="16.1490108"><ele>1183.0</ele><time>2026-05-02T13:00:39.714Z</time></trkpt><trkpt lat="39.9672792" lon="16.1491577"><ele>1183.0</ele><time>2026-05-02T13:00:40.719Z</time></trkpt><trkpt lat="39.9673796" lon="16.1492951"><ele>1182.5</ele><time>2026-05-02T13:00:41.713Z</time></trkpt><trkpt lat="39.9674776" lon="16.1494256"><ele>1182.0</ele><time>2026-05-02T13:00:42.723Z</time></trkpt><trkpt lat="39.9675698" lon="16.1495394"><ele>1181.5</ele><time>2026-05-02T13:00:43.714Z</time></trkpt><trkpt lat="39.9676636" lon="16.1496314"><ele>1181.0</ele><time>2026-05-02T13:00:44.714Z</time></trkpt><trkpt lat="39.9677705" lon="16.1497066"><ele>1180.5</ele><time>2026-05-02T13:00:45.715Z</time></trkpt><trkpt lat="39.9678849" lon="16.149769"><ele>1180.0</ele><time>2026-05-02T13:00:46.712Z</time></trkpt><trkpt lat="39.9679997" lon="16.1498127"><ele>1179.5</ele><time>2026-05-02T13:00:47.717Z</time></trkpt><trkpt lat="39.9681238" lon="16.149847"><ele>1179.0</ele><time>2026-05-02T13:00:48.716Z</time></trkpt><trkpt lat="39.9682432" lon="16.1498761"><ele>1180.6000000000001</ele><time>2026-05-02T13:00:49.714Z</time></trkpt><trkpt lat="39.9683418" lon="16.1499104"><ele>1182.2</ele><time>2026-05-02T13:00:50.712Z</time></trkpt><trkpt lat="39.9684286" lon="16.1499374"><ele>1183.8000000000002</ele><time>2026-05-02T13:00:51.717Z</time></trkpt><trkpt lat="39.9685132" lon="16.1499701"><ele>1185.4</ele><time>2026-05-02T13:00:52.722Z</time></trkpt><trkpt lat="39.9686059" lon="16.1500221"><ele>1187.0</ele><time>2026-05-02T13:00:53.707Z</time></trkpt><trkpt lat="39.9687068" lon="16.1500734"><ele>1187.0</ele><time>2026-05-02T13:00:54.727Z</time></trkpt><trkpt lat="39.9688028" lon="16.1501136"><ele>1187.0</ele><time>2026-05-02T13:00:55.712Z</time></trkpt><trkpt lat="39.9688877" lon="16.1501427"><ele>1187.0</ele><time>2026-05-02T13:00:56.716Z</time></trkpt><trkpt lat="39.96897" lon="16.1501644"><ele>1187.0</ele><time>2026-05-02T13:00:57.714Z</time></trkpt><trkpt lat="39.9690436" lon="16.1501909"><ele>1187.0</ele><time>2026-05-02T13:00:58.715Z</time></trkpt><trkpt lat="39.9691295" lon="16.1502219"><ele>1187.0</ele><time>2026-05-02T13:00:59.712Z</time></trkpt><trkpt lat="39.9692344" lon="16.150262"><ele>1187.25</ele><time>2026-05-02T13:01:00.717Z</time></trkpt><trkpt lat="39.9693586" lon="16.1503016"><ele>1187.5</ele><time>2026-05-02T13:01:01.721Z</time></trkpt><trkpt lat="39.9694942" lon="16.1503371"><ele>1187.75</ele><time>2026-05-02T13:01:02.716Z</time></trkpt><trkpt lat="39.9696393" lon="16.1503685"><ele>1188.0</ele><time>2026-05-02T13:01:03.708Z</time></trkpt><trkpt lat="39.9697836" lon="16.1503958"><ele>1188.0</ele><time>2026-05-02T13:01:04.709Z</time></trkpt><trkpt lat="39.9699152" lon="16.1504185"><ele>1188.0</ele><time>2026-05-02T13:01:05.698Z</time></trkpt><trkpt lat="39.9700396" lon="16.1504418"><ele>1188.0</ele><time>2026-05-02T13:01:06.717Z</time></trkpt><trkpt lat="39.9701668" lon="16.150454"><ele>1188.0</ele><time>2026-05-02T13:01:07.714Z</time></trkpt><trkpt lat="39.9702988" lon="16.1504626"><ele>1189.5</ele><time>2026-05-02T13:01:08.718Z</time></trkpt><trkpt lat="39.9704394" lon="16.1504609"><ele>1191.0</ele><time>2026-05-02T13:01:09.708Z</time></trkpt><trkpt lat="39.9705807" lon="16.1504504"><ele>1192.5</ele><time>2026-05-02T13:01:10.701Z</time></trkpt><trkpt lat="39.9707064" lon="16.1504419"><ele>1194.0</ele><time>2026-05-02T13:01:11.722Z</time></trkpt><trkpt lat="39.9708093" lon="16.1504212"><ele>1194.0</ele><time>2026-05-02T13:01:12.71Z</time></trkpt><trkpt lat="39.970894" lon="16.1503987"><ele>1194.0</ele><time>2026-05-02T13:01:13.709Z</time></trkpt><trkpt lat="39.970964" lon="16.1503776"><ele>1194.0</ele><time>2026-05-02T13:01:14.709Z</time></trkpt><trkpt lat="39.9710275" lon="16.1503493"><ele>1194.0</ele><time>2026-05-02T13:01:15.717Z</time></trkpt><trkpt lat="39.971097" lon="16.1503166"><ele>1194.0</ele><time>2026-05-02T13:01:16.716Z</time></trkpt><trkpt lat="39.9711834" lon="16.1502753"><ele>1194.0</ele><time>2026-05-02T13:01:17.713Z</time></trkpt><trkpt lat="39.9712843" lon="16.1502318"><ele>1194.0</ele><time>2026-05-02T13:01:18.717Z</time></trkpt><trkpt lat="39.9713919" lon="16.1501788"><ele>1194.0</ele><time>2026-05-02T13:01:19.706Z</time></trkpt><trkpt lat="39.971507" lon="16.1501239"><ele>1194.0</ele><time>2026-05-02T13:01:20.715Z</time></trkpt><trkpt lat="39.9716212" lon="16.150074"><ele>1194.0</ele><time>2026-05-02T13:01:21.717Z</time></trkpt><trkpt lat="39.9717303" lon="16.1500299"><ele>1193.0</ele><time>2026-05-02T13:01:22.711Z</time></trkpt><trkpt lat="39.9718417" lon="16.1499893"><ele>1192.0</ele><time>2026-05-02T13:01:23.711Z</time></trkpt><trkpt lat="39.9719558" lon="16.1499522"><ele>1191.0</ele><time>2026-05-02T13:01:24.711Z</time></trkpt><trkpt lat="39.9720736" lon="16.1499376"><ele>1190.0</ele><time>2026-05-02T13:01:25.716Z</time></trkpt><trkpt lat="39.9721924" lon="16.1499389"><ele>1190.0</ele><time>2026-05-02T13:01:26.706Z</time></trkpt><trkpt lat="39.9723072" lon="16.1499531"><ele>1190.0</ele><time>2026-05-02T13:01:27.712Z</time></trkpt><trkpt lat="39.9724192" lon="16.1499861"><ele>1190.0</ele><time>2026-05-02T13:01:28.726Z</time></trkpt><trkpt lat="39.9725415" lon="16.1500223"><ele>1190.0</ele><time>2026-05-02T13:01:29.712Z</time></trkpt><trkpt lat="39.972673" lon="16.150063"><ele>1188.3333333333335</ele><time>2026-05-02T13:01:30.706Z</time></trkpt><trkpt lat="39.9728129" lon="16.1501144"><ele>1186.6666666666667</ele><time>2026-05-02T13:01:31.711Z</time></trkpt><trkpt lat="39.9729697" lon="16.150163"><ele>1185.0</ele><time>2026-05-02T13:01:32.726Z</time></trkpt><trkpt lat="39.9731342" lon="16.1502219"><ele>1185.0</ele><time>2026-05-02T13:01:33.721Z</time></trkpt><trkpt lat="39.9733004" lon="16.1502756"><ele>1185.0</ele><time>2026-05-02T13:01:34.717Z</time></trkpt><trkpt lat="39.9734555" lon="16.1503245"><ele>1185.0</ele><time>2026-05-02T13:01:35.712Z</time></trkpt><trkpt lat="39.9735936" lon="16.1503655"><ele>1183.8</ele><time>2026-05-02T13:01:36.715Z</time></trkpt><trkpt lat="39.973721" lon="16.1504017"><ele>1182.6</ele><time>2026-05-02T13:01:37.704Z</time></trkpt><trkpt lat="39.9738316" lon="16.1504371"><ele>1181.4</ele><time>2026-05-02T13:01:38.711Z</time></trkpt><trkpt lat="39.9739257" lon="16.1504852"><ele>1180.2</ele><time>2026-05-02T13:01:39.711Z</time></trkpt><trkpt lat="39.9740089" lon="16.1505599"><ele>1179.0</ele><time>2026-05-02T13:01:40.711Z</time></trkpt><trkpt lat="39.9740924" lon="16.1506649"><ele>1179.8</ele><time>2026-05-02T13:01:41.713Z</time></trkpt><trkpt lat="39.9741757" lon="16.1507831"><ele>1180.6000000000001</ele><time>2026-05-02T13:01:42.713Z</time></trkpt><trkpt lat="39.9742526" lon="16.1508866"><ele>1181.4</ele><time>2026-05-02T13:01:43.718Z</time></trkpt><trkpt lat="39.9743327" lon="16.1509687"><ele>1182.2</ele><time>2026-05-02T13:01:44.715Z</time></trkpt><trkpt lat="39.9744284" lon="16.1510252"><ele>1183.0</ele><time>2026-05-02T13:01:45.704Z</time></trkpt><trkpt lat="39.9745336" lon="16.1510626"><ele>1183.0</ele><time>2026-05-02T13:01:46.712Z</time></trkpt><trkpt lat="39.9746231" lon="16.1510835"><ele>1183.0</ele><time>2026-05-02T13:01:47.717Z</time></trkpt><trkpt lat="39.9746953" lon="16.1510932"><ele>1183.0</ele><time>2026-05-02T13:01:48.714Z</time></trkpt><trkpt lat="39.9747684" lon="16.1510923"><ele>1183.0</ele><time>2026-05-02T13:01:49.715Z</time></trkpt><trkpt lat="39.9748409" lon="16.1510959"><ele>1183.0</ele><time>2026-05-02T13:01:50.717Z</time></trkpt><trkpt lat="39.9749142" lon="16.151101"><ele>1183.0</ele><time>2026-05-02T13:01:51.715Z</time></trkpt><trkpt lat="39.9749846" lon="16.151097"><ele>1180.6</ele><time>2026-05-02T13:01:52.715Z</time></trkpt><trkpt lat="39.9750463" lon="16.1510797"><ele>1178.1999999999998</ele><time>2026-05-02T13:01:53.725Z</time></trkpt><trkpt lat="39.9751558" lon="16.1510226"><ele>1175.8</ele><time>2026-05-02T13:01:55.71Z</time></trkpt><trkpt lat="39.9752228" lon="16.1509668"><ele>1173.3999999999999</ele><time>2026-05-02T13:01:56.713Z</time></trkpt><trkpt lat="39.9753" lon="16.1508808"><ele>1171.0</ele><time>2026-05-02T13:01:57.713Z</time></trkpt><trkpt lat="39.9753873" lon="16.1507773"><ele>1172.0</ele><time>2026-05-02T13:01:58.711Z</time></trkpt><trkpt lat="39.9754801" lon="16.1506457"><ele>1173.0</ele><time>2026-05-02T13:01:59.704Z</time></trkpt><trkpt lat="39.9755736" lon="16.1504803"><ele>1174.0</ele><time>2026-05-02T13:02:00.716Z</time></trkpt><trkpt lat="39.9756723" lon="16.1503029"><ele>1174.0</ele><time>2026-05-02T13:02:01.717Z</time></trkpt><trkpt lat="39.9757734" lon="16.1501152"><ele>1174.0</ele><time>2026-05-02T13:02:02.716Z</time></trkpt><trkpt lat="39.9758783" lon="16.1499236"><ele>1174.0</ele><time>2026-05-02T13:02:03.701Z</time></trkpt><trkpt lat="39.9759815" lon="16.1497371"><ele>1171.3333333333333</ele><time>2026-05-02T13:02:04.722Z</time></trkpt><trkpt lat="39.9760839" lon="16.1495573"><ele>1168.6666666666667</ele><time>2026-05-02T13:02:05.714Z</time></trkpt><trkpt lat="39.9761766" lon="16.1493842"><ele>1166.0</ele><time>2026-05-02T13:02:06.721Z</time></trkpt><trkpt lat="39.9762656" lon="16.1492165"><ele>1166.0</ele><time>2026-05-02T13:02:07.716Z</time></trkpt><trkpt lat="39.9763564" lon="16.1490491"><ele>1166.0</ele><time>2026-05-02T13:02:08.717Z</time></trkpt><trkpt lat="39.9764514" lon="16.1488834"><ele>1166.0</ele><time>2026-05-02T13:02:09.693Z</time></trkpt><trkpt lat="39.9765406" lon="16.148728"><ele>1165.5</ele><time>2026-05-02T13:02:10.702Z</time></trkpt><trkpt lat="39.9766326" lon="16.1485896"><ele>1165.0</ele><time>2026-05-02T13:02:11.709Z</time></trkpt><trkpt lat="39.9767316" lon="16.1484622"><ele>1164.5</ele><time>2026-05-02T13:02:12.706Z</time></trkpt><trkpt lat="39.9768486" lon="16.1483317"><ele>1164.0</ele><time>2026-05-02T13:02:13.725Z</time></trkpt><trkpt lat="39.9769734" lon="16.1481945"><ele>1161.6666666666667</ele><time>2026-05-02T13:02:14.715Z</time></trkpt><trkpt lat="39.9770978" lon="16.148054"><ele>1159.3333333333335</ele><time>2026-05-02T13:02:15.724Z</time></trkpt><trkpt lat="39.9772263" lon="16.1479123"><ele>1157.0</ele><time>2026-05-02T13:02:16.72Z</time></trkpt><trkpt lat="39.9773633" lon="16.1477715"><ele>1157.0</ele><time>2026-05-02T13:02:17.712Z</time></trkpt><trkpt lat="39.9775045" lon="16.1476291"><ele>1157.0</ele><time>2026-05-02T13:02:18.719Z</time></trkpt><trkpt lat="39.9776481" lon="16.1474792"><ele>1157.0</ele><time>2026-05-02T13:02:19.707Z</time></trkpt><trkpt lat="39.9777869" lon="16.1473283"><ele>1154.3333333333335</ele><time>2026-05-02T13:02:20.718Z</time></trkpt><trkpt lat="39.9779214" lon="16.1471874"><ele>1151.6666666666667</ele><time>2026-05-02T13:02:21.715Z</time></trkpt><trkpt lat="39.9780531" lon="16.1470463"><ele>1149.0</ele><time>2026-05-02T13:02:22.714Z</time></trkpt><trkpt lat="39.9781847" lon="16.1469129"><ele>1149.0</ele><time>2026-05-02T13:02:23.711Z</time></trkpt><trkpt lat="39.9783075" lon="16.1467855"><ele>1149.0</ele><time>2026-05-02T13:02:24.717Z</time></trkpt><trkpt lat="39.9784131" lon="16.1466704"><ele>1149.0</ele><time>2026-05-02T13:02:25.714Z</time></trkpt><trkpt lat="39.9784918" lon="16.1465619"><ele>1149.0</ele><time>2026-05-02T13:02:26.724Z</time></trkpt><trkpt lat="39.9785508" lon="16.1464482"><ele>1146.0</ele><time>2026-05-02T13:02:27.713Z</time></trkpt><trkpt lat="39.9785964" lon="16.1462933"><ele>1143.0</ele><time>2026-05-02T13:02:28.709Z</time></trkpt><trkpt lat="39.9786474" lon="16.1461063"><ele>1140.0</ele><time>2026-05-02T13:02:29.712Z</time></trkpt><trkpt lat="39.9787084" lon="16.1459008"><ele>1137.0</ele><time>2026-05-02T13:02:30.72Z</time></trkpt><trkpt lat="39.9787716" lon="16.1456897"><ele>1136.25</ele><time>2026-05-02T13:02:31.708Z</time></trkpt><trkpt lat="39.9788327" lon="16.1454921"><ele>1135.5</ele><time>2026-05-02T13:02:32.713Z</time></trkpt><trkpt lat="39.9788929" lon="16.1453171"><ele>1134.75</ele><time>2026-05-02T13:02:33.703Z</time></trkpt><trkpt lat="39.9789477" lon="16.14517"><ele>1134.0</ele><time>2026-05-02T13:02:34.715Z</time></trkpt><trkpt lat="39.979007" lon="16.1450429"><ele>1134.0</ele><time>2026-05-02T13:02:35.718Z</time></trkpt><trkpt lat="39.9790728" lon="16.1449377"><ele>1134.0</ele><time>2026-05-02T13:02:36.716Z</time></trkpt><trkpt lat="39.9791556" lon="16.1448404"><ele>1134.0</ele><time>2026-05-02T13:02:37.715Z</time></trkpt><trkpt lat="39.979249" lon="16.1447279"><ele>1134.0</ele><time>2026-05-02T13:02:38.723Z</time></trkpt><trkpt lat="39.9793525" lon="16.1446055"><ele>1132.3333333333333</ele><time>2026-05-02T13:02:39.719Z</time></trkpt><trkpt lat="39.979463" lon="16.1444809"><ele>1130.6666666666665</ele><time>2026-05-02T13:02:40.713Z</time></trkpt><trkpt lat="39.9795816" lon="16.1443552"><ele>1129.0</ele><time>2026-05-02T13:02:41.716Z</time></trkpt><trkpt lat="39.9797003" lon="16.1442243"><ele>1129.0</ele><time>2026-05-02T13:02:42.707Z</time></trkpt><trkpt lat="39.9798213" lon="16.1440804"><ele>1129.0</ele><time>2026-05-02T13:02:43.708Z</time></trkpt><trkpt lat="39.9799409" lon="16.1439278"><ele>1129.0</ele><time>2026-05-02T13:02:44.712Z</time></trkpt><trkpt lat="39.9800549" lon="16.1437789"><ele>1128.75</ele><time>2026-05-02T13:02:45.716Z</time></trkpt><trkpt lat="39.9801623" lon="16.1436362"><ele>1128.5</ele><time>2026-05-02T13:02:46.726Z</time></trkpt><trkpt lat="39.9802678" lon="16.1435017"><ele>1128.25</ele><time>2026-05-02T13:02:47.708Z</time></trkpt><trkpt lat="39.980374" lon="16.1433683"><ele>1128.0</ele><time>2026-05-02T13:02:48.716Z</time></trkpt><trkpt lat="39.9804729" lon="16.1432474"><ele>1127.75</ele><time>2026-05-02T13:02:49.712Z</time></trkpt><trkpt lat="39.9805675" lon="16.1431338"><ele>1127.5</ele><time>2026-05-02T13:02:50.708Z</time></trkpt><trkpt lat="39.9806687" lon="16.1430195"><ele>1127.25</ele><time>2026-05-02T13:02:51.717Z</time></trkpt><trkpt lat="39.980782" lon="16.1429024"><ele>1127.0</ele><time>2026-05-02T13:02:52.703Z</time></trkpt><trkpt lat="39.9809002" lon="16.1427911"><ele>1126.5</ele><time>2026-05-02T13:02:53.709Z</time></trkpt><trkpt lat="39.9810282" lon="16.1426801"><ele>1126.0</ele><time>2026-05-02T13:02:54.719Z</time></trkpt><trkpt lat="39.981155" lon="16.1425817"><ele>1125.5</ele><time>2026-05-02T13:02:55.718Z</time></trkpt><trkpt lat="39.9812777" lon="16.142488"><ele>1125.0</ele><time>2026-05-02T13:02:56.715Z</time></trkpt><trkpt lat="39.9814037" lon="16.1423831"><ele>1125.0</ele><time>2026-05-02T13:02:57.716Z</time></trkpt><trkpt lat="39.9815278" lon="16.1422792"><ele>1125.0</ele><time>2026-05-02T13:02:58.715Z</time></trkpt><trkpt lat="39.9816382" lon="16.142165"><ele>1125.0</ele><time>2026-05-02T13:02:59.725Z</time></trkpt><trkpt lat="39.9817481" lon="16.1420454"><ele>1125.0</ele><time>2026-05-02T13:03:00.709Z</time></trkpt><trkpt lat="39.9818507" lon="16.1419243"><ele>1124.75</ele><time>2026-05-02T13:03:01.706Z</time></trkpt><trkpt lat="39.9819619" lon="16.141809"><ele>1124.5</ele><time>2026-05-02T13:03:02.713Z</time></trkpt><trkpt lat="39.9820809" lon="16.1416981"><ele>1124.25</ele><time>2026-05-02T13:03:03.722Z</time></trkpt><trkpt lat="39.9821918" lon="16.1415877"><ele>1124.0</ele><time>2026-05-02T13:03:04.719Z</time></trkpt><trkpt lat="39.9823001" lon="16.1414727"><ele>1124.5</ele><time>2026-05-02T13:03:05.71Z</time></trkpt><trkpt lat="39.9824086" lon="16.1413616"><ele>1125.0</ele><time>2026-05-02T13:03:06.708Z</time></trkpt><trkpt lat="39.9825212" lon="16.141253"><ele>1125.5</ele><time>2026-05-02T13:03:07.716Z</time></trkpt><trkpt lat="39.982611" lon="16.1411221"><ele>1126.0</ele><time>2026-05-02T13:03:08.712Z</time></trkpt><trkpt lat="39.9827378" lon="16.141034"><ele>1126.25</ele><time>2026-05-02T13:03:09.717Z</time></trkpt><trkpt lat="39.982839" lon="16.1409167"><ele>1126.5</ele><time>2026-05-02T13:03:10.725Z</time></trkpt><trkpt lat="39.9829701" lon="16.1408207"><ele>1126.75</ele><time>2026-05-02T13:03:11.704Z</time></trkpt><trkpt lat="39.9830771" lon="16.1406865"><ele>1127.0</ele><time>2026-05-02T13:03:12.705Z</time></trkpt><trkpt lat="39.9831971" lon="16.1405625"><ele>1126.3333333333335</ele><time>2026-05-02T13:03:13.701Z</time></trkpt><trkpt lat="39.9833219" lon="16.1404566"><ele>1125.6666666666667</ele><time>2026-05-02T13:03:14.714Z</time></trkpt><trkpt lat="39.9834292" lon="16.1403339"><ele>1125.0</ele><time>2026-05-02T13:03:15.705Z</time></trkpt><trkpt lat="39.983556" lon="16.1402107"><ele>1124.75</ele><time>2026-05-02T13:03:16.707Z</time></trkpt><trkpt lat="39.9836383" lon="16.1400538"><ele>1124.5</ele><time>2026-05-02T13:03:17.708Z</time></trkpt><trkpt lat="39.983756" lon="16.1399272"><ele>1124.25</ele><time>2026-05-02T13:03:18.709Z</time></trkpt><trkpt lat="39.9838259" lon="16.1397759"><ele>1124.0</ele><time>2026-05-02T13:03:19.72Z</time></trkpt><trkpt lat="39.9839308" lon="16.1396564"><ele>1123.5</ele><time>2026-05-02T13:03:20.696Z</time></trkpt><trkpt lat="39.9840161" lon="16.1395466"><ele>1123.0</ele><time>2026-05-02T13:03:21.722Z</time></trkpt><trkpt lat="39.9841072" lon="16.1394502"><ele>1122.5</ele><time>2026-05-02T13:03:22.711Z</time></trkpt><trkpt lat="39.9842172" lon="16.1393704"><ele>1122.0</ele><time>2026-05-02T13:03:23.725Z</time></trkpt><trkpt lat="39.9843371" lon="16.139298"><ele>1120.4</ele><time>2026-05-02T13:03:24.717Z</time></trkpt><trkpt lat="39.9844572" lon="16.1392417"><ele>1118.8000000000002</ele><time>2026-05-02T13:03:25.705Z</time></trkpt><trkpt lat="39.9845539" lon="16.1391915"><ele>1117.2</ele><time>2026-05-02T13:03:26.728Z</time></trkpt><trkpt lat="39.9846332" lon="16.1391296"><ele>1115.6000000000001</ele><time>2026-05-02T13:03:27.719Z</time></trkpt><trkpt lat="39.9846946" lon="16.1390588"><ele>1114.0</ele><time>2026-05-02T13:03:28.712Z</time></trkpt><trkpt lat="39.9847425" lon="16.1389537"><ele>1114.0</ele><time>2026-05-02T13:03:29.705Z</time></trkpt><trkpt lat="39.9847746" lon="16.1388189"><ele>1114.0</ele><time>2026-05-02T13:03:30.727Z</time></trkpt><trkpt lat="39.9848415" lon="16.1386751"><ele>1114.0</ele><time>2026-05-02T13:03:31.725Z</time></trkpt><trkpt lat="39.984864" lon="16.1385206"><ele>1114.0</ele><time>2026-05-02T13:03:32.704Z</time></trkpt><trkpt lat="39.9849506" lon="16.1383663"><ele>1113.5</ele><time>2026-05-02T13:03:33.713Z</time></trkpt><trkpt lat="39.984979" lon="16.1382014"><ele>1113.0</ele><time>2026-05-02T13:03:34.712Z</time></trkpt><trkpt lat="39.9850576" lon="16.1380592"><ele>1112.5</ele><time>2026-05-02T13:03:35.72Z</time></trkpt><trkpt lat="39.985146" lon="16.1379316"><ele>1112.0</ele><time>2026-05-02T13:03:36.721Z</time></trkpt><trkpt lat="39.9852025" lon="16.1378032"><ele>1110.5</ele><time>2026-05-02T13:03:37.711Z</time></trkpt><trkpt lat="39.9852689" lon="16.1376802"><ele>1109.0</ele><time>2026-05-02T13:03:38.719Z</time></trkpt><trkpt lat="39.9853486" lon="16.1375571"><ele>1107.5</ele><time>2026-05-02T13:03:39.705Z</time></trkpt><trkpt lat="39.9854595" lon="16.1374364"><ele>1106.0</ele><time>2026-05-02T13:03:40.713Z</time></trkpt><trkpt lat="39.9855513" lon="16.137292"><ele>1104.75</ele><time>2026-05-02T13:03:41.698Z</time></trkpt><trkpt lat="39.9856778" lon="16.1371909"><ele>1103.5</ele><time>2026-05-02T13:03:42.714Z</time></trkpt><trkpt lat="39.985769" lon="16.1370803"><ele>1102.25</ele><time>2026-05-02T13:03:43.718Z</time></trkpt><trkpt lat="39.9858539" lon="16.1369899"><ele>1101.0</ele><time>2026-05-02T13:03:44.714Z</time></trkpt><trkpt lat="39.9859412" lon="16.1369208"><ele>1100.3999999999999</ele><time>2026-05-02T13:03:45.703Z</time></trkpt><trkpt lat="39.9860214" lon="16.1368507"><ele>1099.8</ele><time>2026-05-02T13:03:46.721Z</time></trkpt><trkpt lat="39.9861105" lon="16.1367917"><ele>1099.1999999999998</ele><time>2026-05-02T13:03:47.716Z</time></trkpt><trkpt lat="39.9862095" lon="16.136748"><ele>1098.6</ele><time>2026-05-02T13:03:48.713Z</time></trkpt><trkpt lat="39.9863328" lon="16.1367355"><ele>1098.0</ele><time>2026-05-02T13:03:49.71Z</time></trkpt><trkpt lat="39.9864462" lon="16.1366993"><ele>1098.0</ele><time>2026-05-02T13:03:50.711Z</time></trkpt><trkpt lat="39.9865718" lon="16.1366982"><ele>1098.0</ele><time>2026-05-02T13:03:51.715Z</time></trkpt><trkpt lat="39.9867016" lon="16.1367042"><ele>1098.0</ele><time>2026-05-02T13:03:52.709Z</time></trkpt><trkpt lat="39.9868156" lon="16.1366752"><ele>1098.0</ele><time>2026-05-02T13:03:53.714Z</time></trkpt><trkpt lat="39.9869128" lon="16.1366396"><ele>1096.2</ele><time>2026-05-02T13:03:54.71Z</time></trkpt><trkpt lat="39.9869937" lon="16.1365869"><ele>1094.4</ele><time>2026-05-02T13:03:55.714Z</time></trkpt><trkpt lat="39.9870682" lon="16.136531"><ele>1092.6000000000001</ele><time>2026-05-02T13:03:56.72Z</time></trkpt><trkpt lat="39.9871376" lon="16.136461"><ele>1090.8</ele><time>2026-05-02T13:03:57.713Z</time></trkpt><trkpt lat="39.987213" lon="16.1363849"><ele>1089.0</ele><time>2026-05-02T13:03:58.715Z</time></trkpt><trkpt lat="39.9872868" lon="16.1362982"><ele>1087.6000000000001</ele><time>2026-05-02T13:03:59.727Z</time></trkpt><trkpt lat="39.9873505" lon="16.1362073"><ele>1086.2</ele><time>2026-05-02T13:04:00.724Z</time></trkpt><trkpt lat="39.9874328" lon="16.1361353"><ele>1084.8000000000002</ele><time>2026-05-02T13:04:01.715Z</time></trkpt><trkpt lat="39.9875214" lon="16.1360649"><ele>1083.4</ele><time>2026-05-02T13:04:02.711Z</time></trkpt><trkpt lat="39.9876308" lon="16.1360182"><ele>1082.0</ele><time>2026-05-02T13:04:03.708Z</time></trkpt><trkpt lat="39.9877463" lon="16.1359738"><ele>1081.25</ele><time>2026-05-02T13:04:04.727Z</time></trkpt><trkpt lat="39.9878615" lon="16.1359302"><ele>1080.5</ele><time>2026-05-02T13:04:05.724Z</time></trkpt><trkpt lat="39.9879932" lon="16.1359191"><ele>1079.75</ele><time>2026-05-02T13:04:06.711Z</time></trkpt><trkpt lat="39.9881145" lon="16.1358907"><ele>1079.0</ele><time>2026-05-02T13:04:07.713Z</time></trkpt><trkpt lat="39.9882271" lon="16.1358581"><ele>1079.0</ele><time>2026-05-02T13:04:08.722Z</time></trkpt><trkpt lat="39.9883315" lon="16.1358219"><ele>1079.0</ele><time>2026-05-02T13:04:09.716Z</time></trkpt><trkpt lat="39.9884313" lon="16.1357805"><ele>1079.0</ele><time>2026-05-02T13:04:10.714Z</time></trkpt><trkpt lat="39.9885358" lon="16.1357205"><ele>1079.0</ele><time>2026-05-02T13:04:11.706Z</time></trkpt><trkpt lat="39.9886535" lon="16.135658"><ele>1076.0</ele><time>2026-05-02T13:04:12.723Z</time></trkpt><trkpt lat="39.9887722" lon="16.1355753"><ele>1073.0</ele><time>2026-05-02T13:04:13.695Z</time></trkpt><trkpt lat="39.9889004" lon="16.1354856"><ele>1070.0</ele><time>2026-05-02T13:04:14.701Z</time></trkpt><trkpt lat="39.9890413" lon="16.1353887"><ele>1067.0</ele><time>2026-05-02T13:04:15.71Z</time></trkpt><trkpt lat="39.9891932" lon="16.1352839"><ele>1066.6666666666667</ele><time>2026-05-02T13:04:16.719Z</time></trkpt><trkpt lat="39.989351" lon="16.1351746"><ele>1066.3333333333333</ele><time>2026-05-02T13:04:17.716Z</time></trkpt><trkpt lat="39.989501" lon="16.1350629"><ele>1066.0</ele><time>2026-05-02T13:04:18.71Z</time></trkpt><trkpt lat="39.9896525" lon="16.1349484"><ele>1066.0</ele><time>2026-05-02T13:04:19.709Z</time></trkpt><trkpt lat="39.9898068" lon="16.1348349"><ele>1066.0</ele><time>2026-05-02T13:04:20.714Z</time></trkpt><trkpt lat="39.9899553" lon="16.1347185"><ele>1066.0</ele><time>2026-05-02T13:04:21.711Z</time></trkpt><trkpt lat="39.9901027" lon="16.1345985"><ele>1065.6666666666665</ele><time>2026-05-02T13:04:22.71Z</time></trkpt><trkpt lat="39.9902383" lon="16.1344806"><ele>1065.3333333333333</ele><time>2026-05-02T13:04:23.711Z</time></trkpt><trkpt lat="39.9903717" lon="16.1343785"><ele>1065.0</ele><time>2026-05-02T13:04:24.724Z</time></trkpt><trkpt lat="39.9905042" lon="16.1342899"><ele>1065.0</ele><time>2026-05-02T13:04:25.706Z</time></trkpt><trkpt lat="39.9906448" lon="16.1342212"><ele>1065.0</ele><time>2026-05-02T13:04:26.708Z</time></trkpt><trkpt lat="39.9907986" lon="16.1341557"><ele>1065.0</ele><time>2026-05-02T13:04:27.708Z</time></trkpt><trkpt lat="39.9909609" lon="16.134099"><ele>1063.6666666666667</ele><time>2026-05-02T13:04:28.702Z</time></trkpt><trkpt lat="39.9911345" lon="16.1340548"><ele>1062.3333333333335</ele><time>2026-05-02T13:04:29.685Z</time></trkpt><trkpt lat="39.9913124" lon="16.1340238"><ele>1061.0</ele><time>2026-05-02T13:04:30.691Z</time></trkpt><trkpt lat="39.9914864" lon="16.1339943"><ele>1061.0</ele><time>2026-05-02T13:04:31.711Z</time></trkpt><trkpt lat="39.9916441" lon="16.1339621"><ele>1061.0</ele><time>2026-05-02T13:04:32.705Z</time></trkpt><trkpt lat="39.9917876" lon="16.1339281"><ele>1061.0</ele><time>2026-05-02T13:04:33.711Z</time></trkpt><trkpt lat="39.9919092" lon="16.1338979"><ele>1061.0</ele><time>2026-05-02T13:04:34.712Z</time></trkpt><trkpt lat="39.9920135" lon="16.1338531"><ele>1060.5</ele><time>2026-05-02T13:04:35.711Z</time></trkpt><trkpt lat="39.9921086" lon="16.1337896"><ele>1060.0</ele><time>2026-05-02T13:04:36.721Z</time></trkpt><trkpt lat="39.992194" lon="16.1336816"><ele>1059.5</ele><time>2026-05-02T13:04:37.708Z</time></trkpt><trkpt lat="39.9922656" lon="16.13353"><ele>1059.0</ele><time>2026-05-02T13:04:38.71Z</time></trkpt><trkpt lat="39.9923425" lon="16.1333554"><ele>1058.3333333333333</ele><time>2026-05-02T13:04:39.705Z</time></trkpt><trkpt lat="39.9924285" lon="16.1331613"><ele>1057.6666666666665</ele><time>2026-05-02T13:04:40.721Z</time></trkpt><trkpt lat="39.9925262" lon="16.1329531"><ele>1057.0</ele><time>2026-05-02T13:04:41.719Z</time></trkpt><trkpt lat="39.9926269" lon="16.1327417"><ele>1054.3333333333333</ele><time>2026-05-02T13:04:42.696Z</time></trkpt><trkpt lat="39.9927145" lon="16.1325401"><ele>1051.6666666666667</ele><time>2026-05-02T13:04:43.692Z</time></trkpt><trkpt lat="39.9927948" lon="16.1323568"><ele>1049.0</ele><time>2026-05-02T13:04:44.721Z</time></trkpt><trkpt lat="39.9928668" lon="16.1321868"><ele>1049.0</ele><time>2026-05-02T13:04:45.717Z</time></trkpt><trkpt lat="39.9929288" lon="16.1320343"><ele>1049.0</ele><time>2026-05-02T13:04:46.712Z</time></trkpt><trkpt lat="39.9929856" lon="16.131895"><ele>1049.0</ele><time>2026-05-02T13:04:47.712Z</time></trkpt><trkpt lat="39.9930395" lon="16.1317617"><ele>1049.0</ele><time>2026-05-02T13:04:48.708Z</time></trkpt><trkpt lat="39.9930942" lon="16.1316373"><ele>1048.5</ele><time>2026-05-02T13:04:49.71Z</time></trkpt><trkpt lat="39.9931596" lon="16.1315155"><ele>1048.0</ele><time>2026-05-02T13:04:50.725Z</time></trkpt><trkpt lat="39.9932355" lon="16.1313924"><ele>1047.5</ele><time>2026-05-02T13:04:51.701Z</time></trkpt><trkpt lat="39.9933367" lon="16.1312707"><ele>1047.0</ele><time>2026-05-02T13:04:52.728Z</time></trkpt><trkpt lat="39.9934536" lon="16.1311338"><ele>1046.6666666666667</ele><time>2026-05-02T13:04:53.712Z</time></trkpt><trkpt lat="39.9935793" lon="16.1309847"><ele>1046.3333333333335</ele><time>2026-05-02T13:04:54.717Z</time></trkpt><trkpt lat="39.9937089" lon="16.1308337"><ele>1046.0</ele><time>2026-05-02T13:04:55.701Z</time></trkpt><trkpt lat="39.9938401" lon="16.130685"><ele>1046.0</ele><time>2026-05-02T13:04:56.714Z</time></trkpt><trkpt lat="39.993965" lon="16.1305399"><ele>1046.0</ele><time>2026-05-02T13:04:57.705Z</time></trkpt><trkpt lat="39.9940811" lon="16.1303951"><ele>1046.0</ele><time>2026-05-02T13:04:58.723Z</time></trkpt><trkpt lat="39.9941965" lon="16.130255"><ele>1046.5</ele><time>2026-05-02T13:04:59.712Z</time></trkpt><trkpt lat="39.9943167" lon="16.1301294"><ele>1047.0</ele><time>2026-05-02T13:05:00.717Z</time></trkpt><trkpt lat="39.994438" lon="16.1300294"><ele>1047.5</ele><time>2026-05-02T13:05:01.7Z</time></trkpt><trkpt lat="39.9945604" lon="16.1299367"><ele>1048.0</ele><time>2026-05-02T13:05:02.709Z</time></trkpt><trkpt lat="39.9946795" lon="16.1298446"><ele>1048.75</ele><time>2026-05-02T13:05:03.709Z</time></trkpt><trkpt lat="39.9947997" lon="16.1297362"><ele>1049.5</ele><time>2026-05-02T13:05:04.718Z</time></trkpt><trkpt lat="39.9949188" lon="16.1296254"><ele>1050.25</ele><time>2026-05-02T13:05:05.708Z</time></trkpt><trkpt lat="39.9950286" lon="16.1295106"><ele>1051.0</ele><time>2026-05-02T13:05:06.72Z</time></trkpt><trkpt lat="39.9951346" lon="16.1293962"><ele>1051.5</ele><time>2026-05-02T13:05:07.714Z</time></trkpt><trkpt lat="39.995239" lon="16.1292848"><ele>1052.0</ele><time>2026-05-02T13:05:08.708Z</time></trkpt><trkpt lat="39.9953382" lon="16.1291748"><ele>1052.5</ele><time>2026-05-02T13:05:09.715Z</time></trkpt><trkpt lat="39.9954307" lon="16.1290648"><ele>1053.0</ele><time>2026-05-02T13:05:10.702Z</time></trkpt><trkpt lat="39.9955143" lon="16.1289564"><ele>1053.75</ele><time>2026-05-02T13:05:11.715Z</time></trkpt><trkpt lat="39.9955927" lon="16.1288462"><ele>1054.5</ele><time>2026-05-02T13:05:12.708Z</time></trkpt><trkpt lat="39.9956662" lon="16.1287297"><ele>1055.25</ele><time>2026-05-02T13:05:13.718Z</time></trkpt><trkpt lat="39.9957425" lon="16.128606"><ele>1056.0</ele><time>2026-05-02T13:05:14.716Z</time></trkpt><trkpt lat="39.9958245" lon="16.1284874"><ele>1056.0</ele><time>2026-05-02T13:05:15.711Z</time></trkpt><trkpt lat="39.9958974" lon="16.128373"><ele>1056.0</ele><time>2026-05-02T13:05:16.712Z</time></trkpt><trkpt lat="39.9959614" lon="16.1282566"><ele>1056.0</ele><time>2026-05-02T13:05:17.717Z</time></trkpt><trkpt lat="39.9960183" lon="16.1281328"><ele>1056.0</ele><time>2026-05-02T13:05:18.709Z</time></trkpt><trkpt lat="39.996071" lon="16.127998"><ele>1056.0</ele><time>2026-05-02T13:05:19.717Z</time></trkpt><trkpt lat="39.9961255" lon="16.1278556"><ele>1056.0</ele><time>2026-05-02T13:05:20.718Z</time></trkpt><trkpt lat="39.9961816" lon="16.1277094"><ele>1056.0</ele><time>2026-05-02T13:05:21.694Z</time></trkpt><trkpt lat="39.9962346" lon="16.1275566"><ele>1056.0</ele><time>2026-05-02T13:05:22.72Z</time></trkpt><trkpt lat="39.9962761" lon="16.1274011"><ele>1056.5</ele><time>2026-05-02T13:05:23.709Z</time></trkpt><trkpt lat="39.9963135" lon="16.1272487"><ele>1057.0</ele><time>2026-05-02T13:05:24.711Z</time></trkpt><trkpt lat="39.9963459" lon="16.1270999"><ele>1057.5</ele><time>2026-05-02T13:05:25.706Z</time></trkpt><trkpt lat="39.9963714" lon="16.1269641"><ele>1058.0</ele><time>2026-05-02T13:05:26.699Z</time></trkpt><trkpt lat="39.9964004" lon="16.1268374"><ele>1058.0</ele><time>2026-05-02T13:05:27.703Z</time></trkpt><trkpt lat="39.9964402" lon="16.1267053"><ele>1058.0</ele><time>2026-05-02T13:05:28.713Z</time></trkpt><trkpt lat="39.9964842" lon="16.1265738"><ele>1058.0</ele><time>2026-05-02T13:05:29.723Z</time></trkpt><trkpt lat="39.9965335" lon="16.126438"><ele>1058.0</ele><time>2026-05-02T13:05:30.707Z</time></trkpt><trkpt lat="39.996577" lon="16.1262933"><ele>1058.75</ele><time>2026-05-02T13:05:31.71Z</time></trkpt><trkpt lat="39.9966037" lon="16.1261272"><ele>1059.5</ele><time>2026-05-02T13:05:32.711Z</time></trkpt><trkpt lat="39.9966142" lon="16.125958"><ele>1060.25</ele><time>2026-05-02T13:05:33.708Z</time></trkpt><trkpt lat="39.9966168" lon="16.1257979"><ele>1061.0</ele><time>2026-05-02T13:05:34.7Z</time></trkpt><trkpt lat="39.996623" lon="16.1256384"><ele>1061.25</ele><time>2026-05-02T13:05:35.707Z</time></trkpt><trkpt lat="39.996635" lon="16.1254728"><ele>1061.5</ele><time>2026-05-02T13:05:36.701Z</time></trkpt><trkpt lat="39.9966499" lon="16.1253023"><ele>1061.75</ele><time>2026-05-02T13:05:37.703Z</time></trkpt><trkpt lat="39.996668" lon="16.1251447"><ele>1062.0</ele><time>2026-05-02T13:05:38.718Z</time></trkpt><trkpt lat="39.9966879" lon="16.1250026"><ele>1062.4</ele><time>2026-05-02T13:05:39.719Z</time></trkpt><trkpt lat="39.9967073" lon="16.1248742"><ele>1062.8000000000002</ele><time>2026-05-02T13:05:40.713Z</time></trkpt><trkpt lat="39.9967323" lon="16.1247482"><ele>1063.2</ele><time>2026-05-02T13:05:41.716Z</time></trkpt><trkpt lat="39.9967653" lon="16.1246251"><ele>1063.6000000000001</ele><time>2026-05-02T13:05:42.701Z</time></trkpt><trkpt lat="39.9968017" lon="16.1244986"><ele>1064.0</ele><time>2026-05-02T13:05:43.702Z</time></trkpt><trkpt lat="39.9968351" lon="16.1243634"><ele>1064.0</ele><time>2026-05-02T13:05:44.712Z</time></trkpt><trkpt lat="39.9968778" lon="16.1242318"><ele>1064.0</ele><time>2026-05-02T13:05:45.72Z</time></trkpt><trkpt lat="39.9969249" lon="16.1241012"><ele>1064.0</ele><time>2026-05-02T13:05:46.72Z</time></trkpt><trkpt lat="39.9969822" lon="16.1239675"><ele>1064.0</ele><time>2026-05-02T13:05:47.716Z</time></trkpt><trkpt lat="39.9970343" lon="16.1238457"><ele>1064.0</ele><time>2026-05-02T13:05:48.717Z</time></trkpt><trkpt lat="39.9970866" lon="16.1237293"><ele>1064.2</ele><time>2026-05-02T13:05:49.707Z</time></trkpt><trkpt lat="39.9971312" lon="16.1236114"><ele>1064.4</ele><time>2026-05-02T13:05:50.718Z</time></trkpt><trkpt lat="39.9971751" lon="16.1234882"><ele>1064.6</ele><time>2026-05-02T13:05:51.717Z</time></trkpt><trkpt lat="39.9972085" lon="16.1233763"><ele>1064.8</ele><time>2026-05-02T13:05:52.715Z</time></trkpt><trkpt lat="39.9972323" lon="16.1232492"><ele>1065.0</ele><time>2026-05-02T13:05:53.718Z</time></trkpt><trkpt lat="39.9972543" lon="16.1231178"><ele>1066.8</ele><time>2026-05-02T13:05:54.729Z</time></trkpt><trkpt lat="39.9972828" lon="16.1229825"><ele>1068.6</ele><time>2026-05-02T13:05:55.712Z</time></trkpt><trkpt lat="39.9973264" lon="16.1228555"><ele>1070.4</ele><time>2026-05-02T13:05:56.709Z</time></trkpt><trkpt lat="39.9973771" lon="16.1227289"><ele>1072.2</ele><time>2026-05-02T13:05:57.709Z</time></trkpt><trkpt lat="39.9974304" lon="16.1226218"><ele>1074.0</ele><time>2026-05-02T13:05:58.718Z</time></trkpt><trkpt lat="39.9974845" lon="16.1225286"><ele>1073.5</ele><time>2026-05-02T13:05:59.725Z</time></trkpt><trkpt lat="39.9975284" lon="16.1224408"><ele>1073.0</ele><time>2026-05-02T13:06:00.716Z</time></trkpt><trkpt lat="39.9975667" lon="16.1223457"><ele>1072.5</ele><time>2026-05-02T13:06:01.714Z</time></trkpt><trkpt lat="39.9975955" lon="16.1222532"><ele>1072.0</ele><time>2026-05-02T13:06:02.717Z</time></trkpt><trkpt lat="39.9976245" lon="16.1221699"><ele>1071.5</ele><time>2026-05-02T13:06:03.717Z</time></trkpt><trkpt lat="39.9976624" lon="16.1220909"><ele>1071.0</ele><time>2026-05-02T13:06:04.717Z</time></trkpt><trkpt lat="39.9977159" lon="16.1220204"><ele>1071.0</ele><time>2026-05-02T13:06:05.714Z</time></trkpt><trkpt lat="39.9977868" lon="16.1219521"><ele>1071.0</ele><time>2026-05-02T13:06:06.711Z</time></trkpt><trkpt lat="39.9978567" lon="16.1218868"><ele>1071.0</ele><time>2026-05-02T13:06:07.711Z</time></trkpt><trkpt lat="39.9979238" lon="16.121836"><ele>1071.0</ele><time>2026-05-02T13:06:08.712Z</time></trkpt><trkpt lat="39.9979873" lon="16.1217635"><ele>1071.0</ele><time>2026-05-02T13:06:09.712Z</time></trkpt><trkpt lat="39.9980452" lon="16.1216623"><ele>1071.0</ele><time>2026-05-02T13:06:10.717Z</time></trkpt><trkpt lat="39.9980956" lon="16.1215503"><ele>1071.8</ele><time>2026-05-02T13:06:11.709Z</time></trkpt><trkpt lat="39.9981409" lon="16.1214326"><ele>1072.6</ele><time>2026-05-02T13:06:12.71Z</time></trkpt><trkpt lat="39.998182" lon="16.1213113"><ele>1073.4</ele><time>2026-05-02T13:06:13.707Z</time></trkpt><trkpt lat="39.9982215" lon="16.1212009"><ele>1074.2</ele><time>2026-05-02T13:06:14.721Z</time></trkpt><trkpt lat="39.99826" lon="16.1210959"><ele>1075.0</ele><time>2026-05-02T13:06:15.706Z</time></trkpt><trkpt lat="39.9983028" lon="16.1209797"><ele>1073.0</ele><time>2026-05-02T13:06:16.713Z</time></trkpt><trkpt lat="39.9983451" lon="16.1208622"><ele>1071.0</ele><time>2026-05-02T13:06:17.715Z</time></trkpt><trkpt lat="39.998391" lon="16.120758"><ele>1069.0</ele><time>2026-05-02T13:06:18.709Z</time></trkpt><trkpt lat="39.9984369" lon="16.12066"><ele>1067.0</ele><time>2026-05-02T13:06:19.713Z</time></trkpt><trkpt lat="39.9984837" lon="16.1205688"><ele>1065.0</ele><time>2026-05-02T13:06:20.716Z</time></trkpt><trkpt lat="39.9985245" lon="16.1204742"><ele>1063.0</ele><time>2026-05-02T13:06:21.715Z</time></trkpt><trkpt lat="39.9985649" lon="16.1203706"><ele>1063.0</ele><time>2026-05-02T13:06:22.709Z</time></trkpt><trkpt lat="39.9986037" lon="16.1202523"><ele>1063.0</ele><time>2026-05-02T13:06:23.718Z</time></trkpt><trkpt lat="39.9986504" lon="16.1201343"><ele>1063.0</ele><time>2026-05-02T13:06:24.71Z</time></trkpt><trkpt lat="39.9986933" lon="16.1200261"><ele>1063.0</ele><time>2026-05-02T13:06:25.705Z</time></trkpt><trkpt lat="39.9987405" lon="16.1199229"><ele>1063.0</ele><time>2026-05-02T13:06:26.71Z</time></trkpt><trkpt lat="39.9987884" lon="16.1198226"><ele>1061.6</ele><time>2026-05-02T13:06:27.712Z</time></trkpt><trkpt lat="39.998849" lon="16.1197217"><ele>1060.1999999999998</ele><time>2026-05-02T13:06:28.714Z</time></trkpt><trkpt lat="39.9989215" lon="16.1196139"><ele>1058.8</ele><time>2026-05-02T13:06:29.71Z</time></trkpt><trkpt lat="39.9990043" lon="16.1195123"><ele>1057.3999999999999</ele><time>2026-05-02T13:06:30.709Z</time></trkpt><trkpt lat="39.9990897" lon="16.1194306"><ele>1056.0</ele><time>2026-05-02T13:06:31.707Z</time></trkpt><trkpt lat="39.9991641" lon="16.119359"><ele>1055.0</ele><time>2026-05-02T13:06:32.707Z</time></trkpt><trkpt lat="39.9992341" lon="16.1193004"><ele>1054.0</ele><time>2026-05-02T13:06:33.722Z</time></trkpt><trkpt lat="39.9993072" lon="16.1192709"><ele>1053.0</ele><time>2026-05-02T13:06:34.72Z</time></trkpt><trkpt lat="39.9993854" lon="16.1192818"><ele>1052.0</ele><time>2026-05-02T13:06:35.708Z</time></trkpt><trkpt lat="39.9994705" lon="16.1193155"><ele>1051.0</ele><time>2026-05-02T13:06:36.729Z</time></trkpt><trkpt lat="39.9995512" lon="16.1193606"><ele>1050.0</ele><time>2026-05-02T13:06:37.71Z</time></trkpt><trkpt lat="39.9996403" lon="16.1193591"><ele>1050.0</ele><time>2026-05-02T13:06:38.709Z</time></trkpt><trkpt lat="39.9997423" lon="16.1192986"><ele>1050.0</ele><time>2026-05-02T13:06:39.704Z</time></trkpt><trkpt lat="39.9998459" lon="16.1192079"><ele>1050.0</ele><time>2026-05-02T13:06:40.707Z</time></trkpt><trkpt lat="39.9999561" lon="16.1191255"><ele>1050.0</ele><time>2026-05-02T13:06:41.704Z</time></trkpt><trkpt lat="40.0000582" lon="16.1190655"><ele>1049.0</ele><time>2026-05-02T13:06:42.709Z</time></trkpt><trkpt lat="40.0001495" lon="16.1190227"><ele>1048.0</ele><time>2026-05-02T13:06:43.704Z</time></trkpt><trkpt lat="40.0002328" lon="16.1189635"><ele>1047.0</ele><time>2026-05-02T13:06:44.709Z</time></trkpt><trkpt lat="40.0003269" lon="16.1189102"><ele>1046.0</ele><time>2026-05-02T13:06:45.708Z</time></trkpt><trkpt lat="40.0004252" lon="16.1188465"><ele>1045.0</ele><time>2026-05-02T13:06:46.723Z</time></trkpt><trkpt lat="40.000526" lon="16.1187774"><ele>1045.0</ele><time>2026-05-02T13:06:47.703Z</time></trkpt><trkpt lat="40.0006194" lon="16.1186962"><ele>1045.0</ele><time>2026-05-02T13:06:48.714Z</time></trkpt><trkpt lat="40.0007105" lon="16.1185891"><ele>1045.0</ele><time>2026-05-02T13:06:49.714Z</time></trkpt><trkpt lat="40.0007891" lon="16.1184625"><ele>1045.0</ele><time>2026-05-02T13:06:50.723Z</time></trkpt><trkpt lat="40.000854" lon="16.1183249"><ele>1043.0</ele><time>2026-05-02T13:06:51.709Z</time></trkpt><trkpt lat="40.0009141" lon="16.1181835"><ele>1041.0</ele><time>2026-05-02T13:06:52.709Z</time></trkpt><trkpt lat="40.0009772" lon="16.1180487"><ele>1039.0</ele><time>2026-05-02T13:06:53.71Z</time></trkpt><trkpt lat="40.0010405" lon="16.1179141"><ele>1037.0</ele><time>2026-05-02T13:06:54.713Z</time></trkpt><trkpt lat="40.0010981" lon="16.1177839"><ele>1037.0</ele><time>2026-05-02T13:06:55.706Z</time></trkpt><trkpt lat="40.0011556" lon="16.1176672"><ele>1037.0</ele><time>2026-05-02T13:06:56.708Z</time></trkpt><trkpt lat="40.0012043" lon="16.1175595"><ele>1037.0</ele><time>2026-05-02T13:06:57.695Z</time></trkpt><trkpt lat="40.0012542" lon="16.1174488"><ele>1037.0</ele><time>2026-05-02T13:06:58.698Z</time></trkpt><trkpt lat="40.0013066" lon="16.1173273"><ele>1037.0</ele><time>2026-05-02T13:06:59.708Z</time></trkpt><trkpt lat="40.0013638" lon="16.1171995"><ele>1034.4</ele><time>2026-05-02T13:07:00.699Z</time></trkpt><trkpt lat="40.0014238" lon="16.117089"><ele>1031.8000000000002</ele><time>2026-05-02T13:07:01.712Z</time></trkpt><trkpt lat="40.0014836" lon="16.116982"><ele>1029.2</ele><time>2026-05-02T13:07:02.7Z</time></trkpt><trkpt lat="40.0015398" lon="16.116884"><ele>1026.6000000000001</ele><time>2026-05-02T13:07:03.704Z</time></trkpt><trkpt lat="40.0015952" lon="16.1167848"><ele>1024.0</ele><time>2026-05-02T13:07:04.716Z</time></trkpt><trkpt lat="40.0016486" lon="16.1166885"><ele>1024.8333333333333</ele><time>2026-05-02T13:07:05.692Z</time></trkpt><trkpt lat="40.0016976" lon="16.1165994"><ele>1025.6666666666665</ele><time>2026-05-02T13:07:06.718Z</time></trkpt><trkpt lat="40.0017447" lon="16.1165162"><ele>1026.5</ele><time>2026-05-02T13:07:07.707Z</time></trkpt><trkpt lat="40.0017968" lon="16.1164292"><ele>1027.3333333333333</ele><time>2026-05-02T13:07:08.7Z</time></trkpt><trkpt lat="40.0018474" lon="16.1163394"><ele>1028.1666666666667</ele><time>2026-05-02T13:07:09.709Z</time></trkpt><trkpt lat="40.0018898" lon="16.1162503"><ele>1029.0</ele><time>2026-05-02T13:07:10.712Z</time></trkpt><trkpt lat="40.0019151" lon="16.1161524"><ele>1029.0</ele><time>2026-05-02T13:07:11.698Z</time></trkpt><trkpt lat="40.0019124" lon="16.1160515"><ele>1029.0</ele><time>2026-05-02T13:07:12.713Z</time></trkpt><trkpt lat="40.0018902" lon="16.115944"><ele>1029.0</ele><time>2026-05-02T13:07:13.701Z</time></trkpt><trkpt lat="40.0018432" lon="16.1158399"><ele>1029.0</ele><time>2026-05-02T13:07:14.708Z</time></trkpt><trkpt lat="40.0017825" lon="16.1157502"><ele>1029.0</ele><time>2026-05-02T13:07:15.704Z</time></trkpt><trkpt lat="40.0017224" lon="16.1156891"><ele>1029.0</ele><time>2026-05-02T13:07:16.697Z</time></trkpt><trkpt lat="40.0016559" lon="16.1156399"><ele>1026.4</ele><time>2026-05-02T13:07:17.711Z</time></trkpt><trkpt lat="40.0015709" lon="16.115623"><ele>1023.8000000000001</ele><time>2026-05-02T13:07:18.72Z</time></trkpt><trkpt lat="40.0014775" lon="16.1156366"><ele>1021.1999999999999</ele><time>2026-05-02T13:07:19.711Z</time></trkpt><trkpt lat="40.0013805" lon="16.1156703"><ele>1018.5999999999999</ele><time>2026-05-02T13:07:20.714Z</time></trkpt><trkpt lat="40.0012863" lon="16.1157095"><ele>1016.0</ele><time>2026-05-02T13:07:21.713Z</time></trkpt><trkpt lat="40.0012088" lon="16.1157459"><ele>1016.0000000000001</ele><time>2026-05-02T13:07:22.705Z</time></trkpt><trkpt lat="40.001133" lon="16.115781"><ele>1016.0</ele><time>2026-05-02T13:07:23.713Z</time></trkpt><trkpt lat="40.0010654" lon="16.1158108"><ele>1016.0</ele><time>2026-05-02T13:07:24.71Z</time></trkpt><trkpt lat="40.0010011" lon="16.1158322"><ele>1016.0</ele><time>2026-05-02T13:07:25.706Z</time></trkpt><trkpt lat="40.0008804" lon="16.1158104"><ele>1016.0000000000001</ele><time>2026-05-02T13:07:27.706Z</time></trkpt><trkpt lat="40.0008276" lon="16.1157609"><ele>1016.0</ele><time>2026-05-02T13:07:28.717Z</time></trkpt><trkpt lat="40.000783" lon="16.1156978"><ele>1015.0000000000001</ele><time>2026-05-02T13:07:29.695Z</time></trkpt><trkpt lat="40.0007602" lon="16.1156156"><ele>1014.0</ele><time>2026-05-02T13:07:30.708Z</time></trkpt><trkpt lat="40.000766" lon="16.1155243"><ele>1013.0</ele><time>2026-05-02T13:07:31.708Z</time></trkpt><trkpt lat="40.0007996" lon="16.1154338"><ele>1012.0</ele><time>2026-05-02T13:07:32.694Z</time></trkpt><trkpt lat="40.0008477" lon="16.1153469"><ele>1011.0000000000001</ele><time>2026-05-02T13:07:33.719Z</time></trkpt><trkpt lat="40.0009021" lon="16.1152551"><ele>1010.0</ele><time>2026-05-02T13:07:34.704Z</time></trkpt><trkpt lat="40.0009577" lon="16.1151615"><ele>1010.0000000000001</ele><time>2026-05-02T13:07:35.713Z</time></trkpt><trkpt lat="40.0010169" lon="16.115063"><ele>1010.0</ele><time>2026-05-02T13:07:36.717Z</time></trkpt><trkpt lat="40.0010632" lon="16.1149712"><ele>1010.0</ele><time>2026-05-02T13:07:37.709Z</time></trkpt><trkpt lat="40.0010945" lon="16.1148806"><ele>1010.0</ele><time>2026-05-02T13:07:38.72Z</time></trkpt><trkpt lat="40.0011071" lon="16.1147786"><ele>1010.0000000000001</ele><time>2026-05-02T13:07:39.699Z</time></trkpt><trkpt lat="40.0011034" lon="16.1146677"><ele>1010.0</ele><time>2026-05-02T13:07:40.721Z</time></trkpt><trkpt lat="40.0010864" lon="16.1145434"><ele>1009.6</ele><time>2026-05-02T13:07:41.707Z</time></trkpt><trkpt lat="40.0010448" lon="16.1144274"><ele>1009.2</ele><time>2026-05-02T13:07:42.709Z</time></trkpt><trkpt lat="40.0009814" lon="16.1143105"><ele>1008.8</ele><time>2026-05-02T13:07:43.695Z</time></trkpt><trkpt lat="40.0009018" lon="16.1142001"><ele>1008.4</ele><time>2026-05-02T13:07:44.71Z</time></trkpt><trkpt lat="40.0008304" lon="16.1141155"><ele>1008.0</ele><time>2026-05-02T13:07:45.71Z</time></trkpt><trkpt lat="40.0007573" lon="16.1140353"><ele>1004.8</ele><time>2026-05-02T13:07:46.699Z</time></trkpt><trkpt lat="40.0006844" lon="16.113953"><ele>1001.5999999999999</ele><time>2026-05-02T13:07:47.712Z</time></trkpt><trkpt lat="40.0006178" lon="16.1138797"><ele>998.4000000000001</ele><time>2026-05-02T13:07:48.7Z</time></trkpt><trkpt lat="40.0005615" lon="16.113819"><ele>995.2</ele><time>2026-05-02T13:07:49.726Z</time></trkpt><trkpt lat="40.0004581" lon="16.1137562"><ele>992.0</ele><time>2026-05-02T13:07:51.705Z</time></trkpt><trkpt lat="40.0003781" lon="16.1137888"><ele>992.0</ele><time>2026-05-02T13:07:53.706Z</time></trkpt><trkpt lat="40.0003416" lon="16.1138835"><ele>992.0</ele><time>2026-05-02T13:07:55.702Z</time></trkpt><trkpt lat="40.0003764" lon="16.1140151"><ele>992.0</ele><time>2026-05-02T13:07:57.708Z</time></trkpt><trkpt lat="40.0004364" lon="16.1141634"><ele>992.0</ele><time>2026-05-02T13:07:59.697Z</time></trkpt><trkpt lat="40.0004544" lon="16.1143216"><ele>992.0</ele><time>2026-05-02T13:08:01.716Z</time></trkpt><trkpt lat="40.0004362" lon="16.1144015"><ele>992.6</ele><time>2026-05-02T13:08:02.711Z</time></trkpt><trkpt lat="40.000337" lon="16.114509"><ele>993.2</ele><time>2026-05-02T13:08:04.707Z</time></trkpt><trkpt lat="40.0002589" lon="16.1145339"><ele>993.8</ele><time>2026-05-02T13:08:05.712Z</time></trkpt><trkpt lat="40.0001706" lon="16.1145526"><ele>994.4</ele><time>2026-05-02T13:08:06.716Z</time></trkpt><trkpt lat="40.0000859" lon="16.1145694"><ele>995.0</ele><time>2026-05-02T13:08:07.714Z</time></trkpt><trkpt lat="40.000013" lon="16.1145854"><ele>995.0000000000001</ele><time>2026-05-02T13:08:08.726Z</time></trkpt><trkpt lat="39.9999426" lon="16.1145906"><ele>995.0</ele><time>2026-05-02T13:08:09.705Z</time></trkpt><trkpt lat="39.999881" lon="16.114568"><ele>995.0</ele><time>2026-05-02T13:08:10.719Z</time></trkpt><trkpt lat="39.999826" lon="16.1145253"><ele>995.0</ele><time>2026-05-02T13:08:11.714Z</time></trkpt><trkpt lat="39.9997819" lon="16.1144499"><ele>995.0000000000001</ele><time>2026-05-02T13:08:12.712Z</time></trkpt><trkpt lat="39.9997462" lon="16.1143358"><ele>995.0</ele><time>2026-05-02T13:08:13.724Z</time></trkpt><trkpt lat="39.9997185" lon="16.1142113"><ele>995.0</ele><time>2026-05-02T13:08:14.721Z</time></trkpt><trkpt lat="39.9996893" lon="16.1140775"><ele>995.0</ele><time>2026-05-02T13:08:15.717Z</time></trkpt><trkpt lat="39.9996595" lon="16.1139307"><ele>995.0</ele><time>2026-05-02T13:08:16.702Z</time></trkpt><trkpt lat="39.9996293" lon="16.1137841"><ele>995.0</ele><time>2026-05-02T13:08:17.702Z</time></trkpt><trkpt lat="39.9995983" lon="16.1136452"><ele>994.4</ele><time>2026-05-02T13:08:18.708Z</time></trkpt><trkpt lat="39.9995618" lon="16.113517"><ele>993.8</ele><time>2026-05-02T13:08:19.702Z</time></trkpt><trkpt lat="39.999533" lon="16.1133983"><ele>993.2</ele><time>2026-05-02T13:08:20.714Z</time></trkpt><trkpt lat="39.9995143" lon="16.1132911"><ele>992.6</ele><time>2026-05-02T13:08:21.705Z</time></trkpt><trkpt lat="39.9995019" lon="16.113181"><ele>992.0</ele><time>2026-05-02T13:08:22.714Z</time></trkpt><trkpt lat="39.9995027" lon="16.1130679"><ele>990.6</ele><time>2026-05-02T13:08:23.7Z</time></trkpt><trkpt lat="39.9995121" lon="16.1129545"><ele>989.2</ele><time>2026-05-02T13:08:24.717Z</time></trkpt><trkpt lat="39.9995251" lon="16.1128346"><ele>987.8</ele><time>2026-05-02T13:08:25.711Z</time></trkpt><trkpt lat="39.9995382" lon="16.1127122"><ele>986.4</ele><time>2026-05-02T13:08:26.707Z</time></trkpt><trkpt lat="39.9995542" lon="16.1125983"><ele>985.0</ele><time>2026-05-02T13:08:27.713Z</time></trkpt><trkpt lat="39.9995735" lon="16.1124881"><ele>982.4</ele><time>2026-05-02T13:08:28.697Z</time></trkpt><trkpt lat="39.9995908" lon="16.1123687"><ele>979.8</ele><time>2026-05-02T13:08:29.713Z</time></trkpt><trkpt lat="39.9996236" lon="16.11223"><ele>977.2</ele><time>2026-05-02T13:08:30.706Z</time></trkpt><trkpt lat="39.9996699" lon="16.1120859"><ele>974.6</ele><time>2026-05-02T13:08:31.714Z</time></trkpt><trkpt lat="39.9997163" lon="16.1119463"><ele>972.0</ele><time>2026-05-02T13:08:32.713Z</time></trkpt><trkpt lat="39.9997597" lon="16.1118162"><ele>972.0</ele><time>2026-05-02T13:08:33.704Z</time></trkpt><trkpt lat="39.9998042" lon="16.1117008"><ele>972.0</ele><time>2026-05-02T13:08:34.714Z</time></trkpt><trkpt lat="39.9998413" lon="16.1115933"><ele>972.0</ele><time>2026-05-02T13:08:35.705Z</time></trkpt><trkpt lat="39.9998737" lon="16.1114881"><ele>972.0</ele><time>2026-05-02T13:08:36.717Z</time></trkpt><trkpt lat="39.9999106" lon="16.1113917"><ele>972.0</ele><time>2026-05-02T13:08:37.712Z</time></trkpt><trkpt lat="39.9999578" lon="16.1113084"><ele>972.0</ele><time>2026-05-02T13:08:38.715Z</time></trkpt><trkpt lat="40.0000189" lon="16.1112382"><ele>969.25</ele><time>2026-05-02T13:08:39.71Z</time></trkpt><trkpt lat="40.0000995" lon="16.1111664"><ele>966.5</ele><time>2026-05-02T13:08:40.701Z</time></trkpt><trkpt lat="40.0001948" lon="16.1111002"><ele>963.75</ele><time>2026-05-02T13:08:41.717Z</time></trkpt><trkpt lat="40.0002983" lon="16.1110165"><ele>961.0</ele><time>2026-05-02T13:08:42.716Z</time></trkpt><trkpt lat="40.000401" lon="16.110902"><ele>961.0</ele><time>2026-05-02T13:08:43.716Z</time></trkpt><trkpt lat="40.0004925" lon="16.1107641"><ele>961.0</ele><time>2026-05-02T13:08:44.711Z</time></trkpt><trkpt lat="40.0005577" lon="16.1105985"><ele>961.0</ele><time>2026-05-02T13:08:45.705Z</time></trkpt><trkpt lat="40.0006038" lon="16.1104393"><ele>961.0</ele><time>2026-05-02T13:08:46.719Z</time></trkpt><trkpt lat="40.0006459" lon="16.1103"><ele>961.1999999999999</ele><time>2026-05-02T13:08:47.712Z</time></trkpt><trkpt lat="40.0006782" lon="16.1101715"><ele>961.3999999999999</ele><time>2026-05-02T13:08:48.707Z</time></trkpt><trkpt lat="40.0007027" lon="16.1100543"><ele>961.6</ele><time>2026-05-02T13:08:49.711Z</time></trkpt><trkpt lat="40.0007347" lon="16.109951"><ele>961.8</ele><time>2026-05-02T13:08:50.716Z</time></trkpt><trkpt lat="40.0007858" lon="16.10985"><ele>962.0</ele><time>2026-05-02T13:08:51.705Z</time></trkpt><trkpt lat="40.0008742" lon="16.1097674"><ele>962.0</ele><time>2026-05-02T13:08:52.72Z</time></trkpt><trkpt lat="40.0009785" lon="16.109698"><ele>962.0</ele><time>2026-05-02T13:08:53.716Z</time></trkpt><trkpt lat="40.0010871" lon="16.1096255"><ele>962.0</ele><time>2026-05-02T13:08:54.701Z</time></trkpt><trkpt lat="40.001188" lon="16.1095367"><ele>962.0</ele><time>2026-05-02T13:08:55.708Z</time></trkpt><trkpt lat="40.0012649" lon="16.109439"><ele>962.0</ele><time>2026-05-02T13:08:56.712Z</time></trkpt><trkpt lat="40.0013304" lon="16.1093263"><ele>962.0</ele><time>2026-05-02T13:08:57.704Z</time></trkpt><trkpt lat="40.0013871" lon="16.1092247"><ele>962.0</ele><time>2026-05-02T13:08:58.709Z</time></trkpt><trkpt lat="40.0014292" lon="16.1091375"><ele>962.0</ele><time>2026-05-02T13:08:59.707Z</time></trkpt><trkpt lat="40.0014704" lon="16.1090723"><ele>962.0</ele><time>2026-05-02T13:09:00.711Z</time></trkpt><trkpt lat="40.0015282" lon="16.1089573"><ele>963.0000000000001</ele><time>2026-05-02T13:09:02.717Z</time></trkpt><trkpt lat="40.0015561" lon="16.1088815"><ele>964.0</ele><time>2026-05-02T13:09:03.714Z</time></trkpt><trkpt lat="40.0015916" lon="16.1087927"><ele>965.0</ele><time>2026-05-02T13:09:04.714Z</time></trkpt><trkpt lat="40.0016421" lon="16.1086894"><ele>966.0</ele><time>2026-05-02T13:09:05.719Z</time></trkpt><trkpt lat="40.0016985" lon="16.1085838"><ele>967.0000000000001</ele><time>2026-05-02T13:09:06.705Z</time></trkpt><trkpt lat="40.0017508" lon="16.1084572"><ele>968.0</ele><time>2026-05-02T13:09:07.713Z</time></trkpt><trkpt lat="40.0017943" lon="16.1083122"><ele>965.75</ele><time>2026-05-02T13:09:08.705Z</time></trkpt><trkpt lat="40.0018201" lon="16.1081497"><ele>963.5</ele><time>2026-05-02T13:09:09.713Z</time></trkpt><trkpt lat="40.0018603" lon="16.1079897"><ele>961.25</ele><time>2026-05-02T13:09:10.711Z</time></trkpt><trkpt lat="40.0019164" lon="16.1078531"><ele>959.0</ele><time>2026-05-02T13:09:11.71Z</time></trkpt><trkpt lat="40.0019813" lon="16.1077534"><ele>959.0</ele><time>2026-05-02T13:09:12.719Z</time></trkpt><trkpt lat="40.0020614" lon="16.1076835"><ele>959.0</ele><time>2026-05-02T13:09:13.701Z</time></trkpt><trkpt lat="40.0021677" lon="16.1076475"><ele>959.0</ele><time>2026-05-02T13:09:14.707Z</time></trkpt><trkpt lat="40.0022868" lon="16.1076242"><ele>959.0</ele><time>2026-05-02T13:09:15.708Z</time></trkpt><trkpt lat="40.0024156" lon="16.1076026"><ele>962.0</ele><time>2026-05-02T13:09:16.717Z</time></trkpt><trkpt lat="40.0025461" lon="16.1075787"><ele>965.0</ele><time>2026-05-02T13:09:17.698Z</time></trkpt><trkpt lat="40.0026728" lon="16.107542"><ele>968.0</ele><time>2026-05-02T13:09:18.714Z</time></trkpt><trkpt lat="40.0027973" lon="16.1074918"><ele>971.0</ele><time>2026-05-02T13:09:19.698Z</time></trkpt><trkpt lat="40.0029042" lon="16.1074291"><ele>969.8</ele><time>2026-05-02T13:09:20.705Z</time></trkpt><trkpt lat="40.0029857" lon="16.1073476"><ele>968.5999999999999</ele><time>2026-05-02T13:09:21.701Z</time></trkpt><trkpt lat="40.0030548" lon="16.1072344"><ele>967.4</ele><time>2026-05-02T13:09:22.709Z</time></trkpt><trkpt lat="40.0030775" lon="16.1071037"><ele>966.2</ele><time>2026-05-02T13:09:23.697Z</time></trkpt><trkpt lat="40.0030617" lon="16.1069837"><ele>965.0</ele><time>2026-05-02T13:09:24.701Z</time></trkpt><trkpt lat="40.0030173" lon="16.1068635"><ele>965.0</ele><time>2026-05-02T13:09:25.725Z</time></trkpt><trkpt lat="40.0029464" lon="16.1067469"><ele>965.0</ele><time>2026-05-02T13:09:26.712Z</time></trkpt><trkpt lat="40.0028695" lon="16.106617"><ele>965.0</ele><time>2026-05-02T13:09:27.709Z</time></trkpt><trkpt lat="40.0028118" lon="16.1065009"><ele>965.0</ele><time>2026-05-02T13:09:28.717Z</time></trkpt><trkpt lat="40.0028114" lon="16.106378"><ele>965.0</ele><time>2026-05-02T13:09:29.717Z</time></trkpt><trkpt lat="40.0028515" lon="16.1062554"><ele>963.25</ele><time>2026-05-02T13:09:30.718Z</time></trkpt><trkpt lat="40.0029197" lon="16.1061266"><ele>961.5</ele><time>2026-05-02T13:09:31.704Z</time></trkpt><trkpt lat="40.0030035" lon="16.1060025"><ele>959.75</ele><time>2026-05-02T13:09:32.713Z</time></trkpt><trkpt lat="40.003092" lon="16.1058705"><ele>958.0</ele><time>2026-05-02T13:09:33.703Z</time></trkpt><trkpt lat="40.0031825" lon="16.1057228"><ele>960.25</ele><time>2026-05-02T13:09:34.703Z</time></trkpt><trkpt lat="40.003265" lon="16.1055643"><ele>962.5</ele><time>2026-05-02T13:09:35.708Z</time></trkpt><trkpt lat="40.003333" lon="16.10542"><ele>964.75</ele><time>2026-05-02T13:09:36.713Z</time></trkpt><trkpt lat="40.0033905" lon="16.1052876"><ele>967.0</ele><time>2026-05-02T13:09:37.71Z</time></trkpt><trkpt lat="40.0034592" lon="16.105181"><ele>967.0</ele><time>2026-05-02T13:09:38.702Z</time></trkpt><trkpt lat="40.0035603" lon="16.1051035"><ele>967.0</ele><time>2026-05-02T13:09:39.717Z</time></trkpt><trkpt lat="40.0036773" lon="16.1050497"><ele>967.0</ele><time>2026-05-02T13:09:40.708Z</time></trkpt><trkpt lat="40.0038065" lon="16.1049968"><ele>967.0</ele><time>2026-05-02T13:09:41.711Z</time></trkpt><trkpt lat="40.0039398" lon="16.1049583"><ele>967.0</ele><time>2026-05-02T13:09:42.705Z</time></trkpt><trkpt lat="40.0040547" lon="16.1049509"><ele>967.0</ele><time>2026-05-02T13:09:43.706Z</time></trkpt><trkpt lat="40.004173" lon="16.104974"><ele>967.0</ele><time>2026-05-02T13:09:44.709Z</time></trkpt><trkpt lat="40.0043052" lon="16.1050237"><ele>967.0</ele><time>2026-05-02T13:09:45.709Z</time></trkpt><trkpt lat="40.0044389" lon="16.1050854"><ele>969.25</ele><time>2026-05-02T13:09:46.702Z</time></trkpt><trkpt lat="40.0045725" lon="16.1051371"><ele>971.5</ele><time>2026-05-02T13:09:47.707Z</time></trkpt><trkpt lat="40.0047108" lon="16.1051906"><ele>973.75</ele><time>2026-05-02T13:09:48.698Z</time></trkpt><trkpt lat="40.0048547" lon="16.1052338"><ele>976.0</ele><time>2026-05-02T13:09:49.702Z</time></trkpt><trkpt lat="40.0050007" lon="16.1052715"><ele>976.0</ele><time>2026-05-02T13:09:50.718Z</time></trkpt><trkpt lat="40.0051527" lon="16.105298"><ele>976.0</ele><time>2026-05-02T13:09:51.709Z</time></trkpt><trkpt lat="40.0053005" lon="16.1053185"><ele>976.0</ele><time>2026-05-02T13:09:52.724Z</time></trkpt><trkpt lat="40.0054351" lon="16.1053461"><ele>976.0</ele><time>2026-05-02T13:09:53.709Z</time></trkpt><trkpt lat="40.0055541" lon="16.1053722"><ele>976.0</ele><time>2026-05-02T13:09:54.714Z</time></trkpt><trkpt lat="40.0056668" lon="16.1054022"><ele>975.9999999999999</ele><time>2026-05-02T13:09:55.697Z</time></trkpt><trkpt lat="40.0057753" lon="16.1054315"><ele>975.9999999999999</ele><time>2026-05-02T13:09:56.701Z</time></trkpt><trkpt lat="40.0058718" lon="16.1054446"><ele>976.0</ele><time>2026-05-02T13:09:57.706Z</time></trkpt><trkpt lat="40.0059509" lon="16.1054426"><ele>976.0</ele><time>2026-05-02T13:09:58.713Z</time></trkpt><trkpt lat="40.0060155" lon="16.105413"><ele>976.4999999999999</ele><time>2026-05-02T13:09:59.709Z</time></trkpt><trkpt lat="40.0060814" lon="16.1053388"><ele>977.0</ele><time>2026-05-02T13:10:00.712Z</time></trkpt><trkpt lat="40.0061361" lon="16.1052528"><ele>977.5</ele><time>2026-05-02T13:10:01.708Z</time></trkpt><trkpt lat="40.0061812" lon="16.1051646"><ele>978.0</ele><time>2026-05-02T13:10:02.713Z</time></trkpt><trkpt lat="40.0062337" lon="16.1050822"><ele>978.4999999999999</ele><time>2026-05-02T13:10:03.711Z</time></trkpt><trkpt lat="40.0063072" lon="16.1050201"><ele>979.0</ele><time>2026-05-02T13:10:04.72Z</time></trkpt><trkpt lat="40.0064" lon="16.1049592"><ele>979.0</ele><time>2026-05-02T13:10:05.711Z</time></trkpt><trkpt lat="40.0065033" lon="16.1048946"><ele>979.0</ele><time>2026-05-02T13:10:06.711Z</time></trkpt><trkpt lat="40.0066235" lon="16.1048437"><ele>979.0</ele><time>2026-05-02T13:10:07.728Z</time></trkpt><trkpt lat="40.0067376" lon="16.1047963"><ele>979.0</ele><time>2026-05-02T13:10:08.707Z</time></trkpt><trkpt lat="40.006844" lon="16.1047755"><ele>979.0</ele><time>2026-05-02T13:10:09.699Z</time></trkpt><trkpt lat="40.0069478" lon="16.1047861"><ele>979.0000000000001</ele><time>2026-05-02T13:10:10.71Z</time></trkpt><trkpt lat="40.0070584" lon="16.1048178"><ele>979.0000000000001</ele><time>2026-05-02T13:10:11.705Z</time></trkpt><trkpt lat="40.0071605" lon="16.1047914"><ele>979.0</ele><time>2026-05-02T13:10:12.714Z</time></trkpt><trkpt lat="40.0072418" lon="16.1047326"><ele>979.0</ele><time>2026-05-02T13:10:13.705Z</time></trkpt><trkpt lat="40.0072965" lon="16.1046478"><ele>979.0</ele><time>2026-05-02T13:10:14.703Z</time></trkpt><trkpt lat="40.0073366" lon="16.104544"><ele>979.0000000000001</ele><time>2026-05-02T13:10:15.712Z</time></trkpt><trkpt lat="40.0074039" lon="16.1044682"><ele>979.0000000000001</ele><time>2026-05-02T13:10:16.703Z</time></trkpt><trkpt lat="40.0075041" lon="16.1044089"><ele>979.0</ele><time>2026-05-02T13:10:17.714Z</time></trkpt><trkpt lat="40.0076164" lon="16.1043749"><ele>979.0</ele><time>2026-05-02T13:10:18.7Z</time></trkpt><trkpt lat="40.0077552" lon="16.1043621"><ele>981.0</ele><time>2026-05-02T13:10:19.702Z</time></trkpt><trkpt lat="40.0079118" lon="16.104345"><ele>983.0</ele><time>2026-05-02T13:10:20.696Z</time></trkpt><trkpt lat="40.008067" lon="16.1043273"><ele>985.0</ele><time>2026-05-02T13:10:21.702Z</time></trkpt><trkpt lat="40.0082077" lon="16.1043006"><ele>986.0</ele><time>2026-05-02T13:10:22.713Z</time></trkpt><trkpt lat="40.0083357" lon="16.1042739"><ele>987.0</ele><time>2026-05-02T13:10:23.699Z</time></trkpt><trkpt lat="40.0084594" lon="16.1042493"><ele>988.0</ele><time>2026-05-02T13:10:24.715Z</time></trkpt><trkpt lat="40.0085821" lon="16.1042283"><ele>989.0</ele><time>2026-05-02T13:10:25.712Z</time></trkpt><trkpt lat="40.0087074" lon="16.1042365"><ele>989.0</ele><time>2026-05-02T13:10:26.699Z</time></trkpt><trkpt lat="40.0088226" lon="16.1042964"><ele>989.0</ele><time>2026-05-02T13:10:27.715Z</time></trkpt><trkpt lat="40.0089332" lon="16.1043968"><ele>989.0</ele><time>2026-05-02T13:10:28.706Z</time></trkpt><trkpt lat="40.0090411" lon="16.1044935"><ele>989.0</ele><time>2026-05-02T13:10:29.697Z</time></trkpt><trkpt lat="40.0091398" lon="16.1045931"><ele>988.5</ele><time>2026-05-02T13:10:30.704Z</time></trkpt><trkpt lat="40.0092343" lon="16.1046379"><ele>988.0</ele><time>2026-05-02T13:10:31.708Z</time></trkpt><trkpt lat="40.009342" lon="16.104636"><ele>987.5</ele><time>2026-05-02T13:10:32.718Z</time></trkpt><trkpt lat="40.0094632" lon="16.1045938"><ele>987.0</ele><time>2026-05-02T13:10:33.713Z</time></trkpt><trkpt lat="40.0095954" lon="16.1045307"><ele>987.0</ele><time>2026-05-02T13:10:34.704Z</time></trkpt><trkpt lat="40.0097283" lon="16.1044827"><ele>987.0</ele><time>2026-05-02T13:10:35.694Z</time></trkpt><trkpt lat="40.0098495" lon="16.1044386"><ele>987.0</ele><time>2026-05-02T13:10:36.702Z</time></trkpt><trkpt lat="40.0099543" lon="16.1044209"><ele>987.0</ele><time>2026-05-02T13:10:37.701Z</time></trkpt><trkpt lat="40.0100467" lon="16.1044403"><ele>986.8333333333334</ele><time>2026-05-02T13:10:38.707Z</time></trkpt><trkpt lat="40.0101305" lon="16.1044745"><ele>986.6666666666667</ele><time>2026-05-02T13:10:39.706Z</time></trkpt><trkpt lat="40.0102125" lon="16.1045167"><ele>986.5</ele><time>2026-05-02T13:10:40.71Z</time></trkpt><trkpt lat="40.010285" lon="16.1045412"><ele>986.3333333333334</ele><time>2026-05-02T13:10:41.701Z</time></trkpt><trkpt lat="40.0103711" lon="16.1045312"><ele>986.1666666666667</ele><time>2026-05-02T13:10:42.702Z</time></trkpt><trkpt lat="40.0104617" lon="16.1045119"><ele>986.0</ele><time>2026-05-02T13:10:43.699Z</time></trkpt><trkpt lat="40.0105605" lon="16.1044874"><ele>986.0</ele><time>2026-05-02T13:10:44.709Z</time></trkpt><trkpt lat="40.0106499" lon="16.1044339"><ele>985.9999999999999</ele><time>2026-05-02T13:10:45.713Z</time></trkpt><trkpt lat="40.0107231" lon="16.1043526"><ele>985.9999999999999</ele><time>2026-05-02T13:10:46.709Z</time></trkpt><trkpt lat="40.0107774" lon="16.1042609"><ele>986.0</ele><time>2026-05-02T13:10:47.711Z</time></trkpt><trkpt lat="40.0108234" lon="16.1041366"><ele>986.0</ele><time>2026-05-02T13:10:48.712Z</time></trkpt><trkpt lat="40.0108771" lon="16.1040313"><ele>983.4</ele><time>2026-05-02T13:10:49.703Z</time></trkpt><trkpt lat="40.0109553" lon="16.1039559"><ele>980.8</ele><time>2026-05-02T13:10:50.701Z</time></trkpt><trkpt lat="40.0110407" lon="16.103931"><ele>978.1999999999999</ele><time>2026-05-02T13:10:51.693Z</time></trkpt><trkpt lat="40.01113" lon="16.1039403"><ele>975.5999999999999</ele><time>2026-05-02T13:10:52.71Z</time></trkpt><trkpt lat="40.0112297" lon="16.1039702"><ele>973.0</ele><time>2026-05-02T13:10:53.703Z</time></trkpt><trkpt lat="40.0113256" lon="16.1040125"><ele>975.8</ele><time>2026-05-02T13:10:54.705Z</time></trkpt><trkpt lat="40.0114178" lon="16.1040829"><ele>978.5999999999999</ele><time>2026-05-02T13:10:55.708Z</time></trkpt><trkpt lat="40.0114973" lon="16.1041618"><ele>981.4000000000001</ele><time>2026-05-02T13:10:56.71Z</time></trkpt><trkpt lat="40.0115641" lon="16.1042661"><ele>984.2</ele><time>2026-05-02T13:10:57.723Z</time></trkpt><trkpt lat="40.0116379" lon="16.1043837"><ele>987.0</ele><time>2026-05-02T13:10:58.708Z</time></trkpt><trkpt lat="40.0117117" lon="16.1045144"><ele>987.0</ele><time>2026-05-02T13:10:59.703Z</time></trkpt><trkpt lat="40.0117706" lon="16.1046532"><ele>987.0</ele><time>2026-05-02T13:11:00.71Z</time></trkpt><trkpt lat="40.0118039" lon="16.1047962"><ele>987.0</ele><time>2026-05-02T13:11:01.693Z</time></trkpt><trkpt lat="40.0118191" lon="16.1049337"><ele>987.0</ele><time>2026-05-02T13:11:02.715Z</time></trkpt><trkpt lat="40.0118375" lon="16.105058"><ele>987.0</ele><time>2026-05-02T13:11:03.708Z</time></trkpt><trkpt lat="40.0118685" lon="16.1051779"><ele>989.0</ele><time>2026-05-02T13:11:04.711Z</time></trkpt><trkpt lat="40.0119216" lon="16.1052716"><ele>991.0</ele><time>2026-05-02T13:11:05.702Z</time></trkpt><trkpt lat="40.0120021" lon="16.1053494"><ele>993.0</ele><time>2026-05-02T13:11:06.701Z</time></trkpt><trkpt lat="40.0121033" lon="16.1054107"><ele>995.0</ele><time>2026-05-02T13:11:07.693Z</time></trkpt><trkpt lat="40.0122248" lon="16.1054792"><ele>997.0</ele><time>2026-05-02T13:11:08.716Z</time></trkpt><trkpt lat="40.0123513" lon="16.1055205"><ele>997.0</ele><time>2026-05-02T13:11:09.711Z</time></trkpt><trkpt lat="40.0124436" lon="16.1056335"><ele>997.0</ele><time>2026-05-02T13:11:10.705Z</time></trkpt><trkpt lat="40.0125355" lon="16.1057612"><ele>997.0</ele><time>2026-05-02T13:11:11.7Z</time></trkpt><trkpt lat="40.0126099" lon="16.1059036"><ele>997.0</ele><time>2026-05-02T13:11:12.712Z</time></trkpt><trkpt lat="40.0126745" lon="16.1060428"><ele>994.4000000000001</ele><time>2026-05-02T13:11:13.717Z</time></trkpt><trkpt lat="40.0127304" lon="16.106195"><ele>991.8000000000001</ele><time>2026-05-02T13:11:14.708Z</time></trkpt><trkpt lat="40.0127932" lon="16.1063254"><ele>989.2</ele><time>2026-05-02T13:11:15.707Z</time></trkpt><trkpt lat="40.01286" lon="16.1064231"><ele>986.6</ele><time>2026-05-02T13:11:16.706Z</time></trkpt><trkpt lat="40.0129508" lon="16.106476"><ele>984.0</ele><time>2026-05-02T13:11:17.715Z</time></trkpt><trkpt lat="40.0130475" lon="16.106504"><ele>984.0</ele><time>2026-05-02T13:11:18.704Z</time></trkpt><trkpt lat="40.0131438" lon="16.1064927"><ele>984.0</ele><time>2026-05-02T13:11:19.713Z</time></trkpt><trkpt lat="40.013251" lon="16.1064405"><ele>984.0</ele><time>2026-05-02T13:11:20.706Z</time></trkpt><trkpt lat="40.0133507" lon="16.1063651"><ele>984.0</ele><time>2026-05-02T13:11:21.71Z</time></trkpt><trkpt lat="40.0134462" lon="16.10626"><ele>981.25</ele><time>2026-05-02T13:11:22.709Z</time></trkpt><trkpt lat="40.0135447" lon="16.1061607"><ele>978.5</ele><time>2026-05-02T13:11:23.714Z</time></trkpt><trkpt lat="40.0136475" lon="16.1060839"><ele>975.75</ele><time>2026-05-02T13:11:24.711Z</time></trkpt><trkpt lat="40.0137546" lon="16.106042"><ele>973.0</ele><time>2026-05-02T13:11:25.703Z</time></trkpt><trkpt lat="40.0138728" lon="16.1060136"><ele>973.0</ele><time>2026-05-02T13:11:26.71Z</time></trkpt><trkpt lat="40.0140064" lon="16.1059818"><ele>973.0</ele><time>2026-05-02T13:11:27.705Z</time></trkpt><trkpt lat="40.0141383" lon="16.105922"><ele>973.0</ele><time>2026-05-02T13:11:28.71Z</time></trkpt><trkpt lat="40.0142624" lon="16.105844"><ele>973.0</ele><time>2026-05-02T13:11:29.707Z</time></trkpt><trkpt lat="40.0143956" lon="16.1057747"><ele>969.25</ele><time>2026-05-02T13:11:30.731Z</time></trkpt><trkpt lat="40.0145304" lon="16.1057238"><ele>965.5</ele><time>2026-05-02T13:11:31.699Z</time></trkpt><trkpt lat="40.0146781" lon="16.1056972"><ele>961.75</ele><time>2026-05-02T13:11:32.706Z</time></trkpt><trkpt lat="40.0148248" lon="16.1056879"><ele>958.0</ele><time>2026-05-02T13:11:33.702Z</time></trkpt><trkpt lat="40.0149582" lon="16.1056932"><ele>957.25</ele><time>2026-05-02T13:11:34.704Z</time></trkpt><trkpt lat="40.0150811" lon="16.1057141"><ele>956.5</ele><time>2026-05-02T13:11:35.702Z</time></trkpt><trkpt lat="40.0152045" lon="16.1057669"><ele>955.75</ele><time>2026-05-02T13:11:36.703Z</time></trkpt><trkpt lat="40.0153197" lon="16.1058626"><ele>955.0</ele><time>2026-05-02T13:11:37.708Z</time></trkpt><trkpt lat="40.0154157" lon="16.106003"><ele>961.0</ele><time>2026-05-02T13:11:38.714Z</time></trkpt><trkpt lat="40.0154994" lon="16.1061654"><ele>967.0</ele><time>2026-05-02T13:11:39.707Z</time></trkpt><trkpt lat="40.0155867" lon="16.106333"><ele>973.0</ele><time>2026-05-02T13:11:40.714Z</time></trkpt><trkpt lat="40.0156882" lon="16.106498"><ele>972.0</ele><time>2026-05-02T13:11:41.703Z</time></trkpt><trkpt lat="40.0158045" lon="16.1066629"><ele>971.0</ele><time>2026-05-02T13:11:42.691Z</time></trkpt><trkpt lat="40.0159169" lon="16.1068321"><ele>970.0</ele><time>2026-05-02T13:11:43.713Z</time></trkpt><trkpt lat="40.0160016" lon="16.1070272"><ele>970.0</ele><time>2026-05-02T13:11:44.718Z</time></trkpt><trkpt lat="40.0160698" lon="16.1072349"><ele>970.0</ele><time>2026-05-02T13:11:45.725Z</time></trkpt><trkpt lat="40.0161303" lon="16.107432"><ele>970.0</ele><time>2026-05-02T13:11:46.703Z</time></trkpt><trkpt lat="40.0161996" lon="16.1075978"><ele>971.2</ele><time>2026-05-02T13:11:47.71Z</time></trkpt><trkpt lat="40.0162933" lon="16.1077068"><ele>972.4</ele><time>2026-05-02T13:11:48.711Z</time></trkpt><trkpt lat="40.0163957" lon="16.1077886"><ele>973.5999999999999</ele><time>2026-05-02T13:11:49.705Z</time></trkpt><trkpt lat="40.0164717" lon="16.107873"><ele>974.8</ele><time>2026-05-02T13:11:50.711Z</time></trkpt><trkpt lat="40.016502" lon="16.1079857"><ele>976.0</ele><time>2026-05-02T13:11:51.701Z</time></trkpt><trkpt lat="40.0165004" lon="16.1080999"><ele>976.0</ele><time>2026-05-02T13:11:52.716Z</time></trkpt><trkpt lat="40.0164766" lon="16.1082151"><ele>975.9999999999999</ele><time>2026-05-02T13:11:53.694Z</time></trkpt><trkpt lat="40.0164372" lon="16.1083249"><ele>975.9999999999999</ele><time>2026-05-02T13:11:54.709Z</time></trkpt><trkpt lat="40.01636" lon="16.1084142"><ele>976.0</ele><time>2026-05-02T13:11:55.707Z</time></trkpt><trkpt lat="40.016246" lon="16.1084798"><ele>976.0</ele><time>2026-05-02T13:11:56.718Z</time></trkpt><trkpt lat="40.0161199" lon="16.1085431"><ele>975.8</ele><time>2026-05-02T13:11:57.697Z</time></trkpt><trkpt lat="40.0160016" lon="16.1086131"><ele>975.5999999999999</ele><time>2026-05-02T13:11:58.724Z</time></trkpt><trkpt lat="40.0159051" lon="16.1087028"><ele>975.4</ele><time>2026-05-02T13:11:59.697Z</time></trkpt><trkpt lat="40.0158337" lon="16.1087998"><ele>975.2</ele><time>2026-05-02T13:12:00.714Z</time></trkpt><trkpt lat="40.0157993" lon="16.1088991"><ele>975.0</ele><time>2026-05-02T13:12:01.708Z</time></trkpt><trkpt lat="40.015812" lon="16.1090137"><ele>973.4</ele><time>2026-05-02T13:12:02.713Z</time></trkpt><trkpt lat="40.0158289" lon="16.1091191"><ele>971.8</ele><time>2026-05-02T13:12:03.693Z</time></trkpt><trkpt lat="40.0158838" lon="16.109195"><ele>970.2</ele><time>2026-05-02T13:12:04.71Z</time></trkpt><trkpt lat="40.0159567" lon="16.1092627"><ele>968.6</ele><time>2026-05-02T13:12:05.693Z</time></trkpt><trkpt lat="40.0160433" lon="16.109306"><ele>967.0</ele><time>2026-05-02T13:12:06.712Z</time></trkpt><trkpt lat="40.0161632" lon="16.1093483"><ele>967.0</ele><time>2026-05-02T13:12:07.71Z</time></trkpt><trkpt lat="40.0162891" lon="16.1093807"><ele>967.0</ele><time>2026-05-02T13:12:08.713Z</time></trkpt><trkpt lat="40.0164174" lon="16.1094209"><ele>967.0</ele><time>2026-05-02T13:12:09.698Z</time></trkpt><trkpt lat="40.0165409" lon="16.1094461"><ele>967.0</ele><time>2026-05-02T13:12:10.714Z</time></trkpt><trkpt lat="40.0166535" lon="16.1094852"><ele>967.0</ele><time>2026-05-02T13:12:11.712Z</time></trkpt><trkpt lat="40.0167541" lon="16.1095694"><ele>967.0</ele><time>2026-05-02T13:12:12.703Z</time></trkpt><trkpt lat="40.0168501" lon="16.1096964"><ele>967.0</ele><time>2026-05-02T13:12:13.711Z</time></trkpt><trkpt lat="40.0169545" lon="16.1098374"><ele>967.0</ele><time>2026-05-02T13:12:14.71Z</time></trkpt><trkpt lat="40.0170681" lon="16.1099705"><ele>967.0</ele><time>2026-05-02T13:12:15.702Z</time></trkpt><trkpt lat="40.0171788" lon="16.1101152"><ele>967.0</ele><time>2026-05-02T13:12:16.697Z</time></trkpt><trkpt lat="40.0172668" lon="16.1102817"><ele>967.0</ele><time>2026-05-02T13:12:17.704Z</time></trkpt><trkpt lat="40.0173377" lon="16.1104736"><ele>967.0</ele><time>2026-05-02T13:12:18.706Z</time></trkpt><trkpt lat="40.0173987" lon="16.1106546"><ele>967.0</ele><time>2026-05-02T13:12:19.707Z</time></trkpt><trkpt lat="40.0174496" lon="16.1108243"><ele>967.0</ele><time>2026-05-02T13:12:20.712Z</time></trkpt><trkpt lat="40.0174992" lon="16.1109853"><ele>967.0</ele><time>2026-05-02T13:12:21.708Z</time></trkpt><trkpt lat="40.0175388" lon="16.1111434"><ele>965.8</ele><time>2026-05-02T13:12:22.71Z</time></trkpt><trkpt lat="40.0175505" lon="16.1112894"><ele>964.6</ele><time>2026-05-02T13:12:23.708Z</time></trkpt><trkpt lat="40.0175304" lon="16.1114042"><ele>963.3999999999999</ele><time>2026-05-02T13:12:24.713Z</time></trkpt><trkpt lat="40.0174819" lon="16.1115141"><ele>962.1999999999999</ele><time>2026-05-02T13:12:25.719Z</time></trkpt><trkpt lat="40.0174011" lon="16.11162"><ele>961.0</ele><time>2026-05-02T13:12:26.698Z</time></trkpt><trkpt lat="40.0173078" lon="16.1117245"><ele>964.25</ele><time>2026-05-02T13:12:27.717Z</time></trkpt><trkpt lat="40.0172252" lon="16.1118582"><ele>967.5</ele><time>2026-05-02T13:12:28.717Z</time></trkpt><trkpt lat="40.017172" lon="16.1120282"><ele>970.75</ele><time>2026-05-02T13:12:29.71Z</time></trkpt><trkpt lat="40.0171366" lon="16.1122211"><ele>974.0</ele><time>2026-05-02T13:12:30.696Z</time></trkpt><trkpt lat="40.0171177" lon="16.1124181"><ele>974.0</ele><time>2026-05-02T13:12:31.705Z</time></trkpt><trkpt lat="40.0171117" lon="16.1126055"><ele>974.0</ele><time>2026-05-02T13:12:32.705Z</time></trkpt><trkpt lat="40.0171302" lon="16.1127916"><ele>974.0</ele><time>2026-05-02T13:12:33.71Z</time></trkpt><trkpt lat="40.0171546" lon="16.1129643"><ele>974.0</ele><time>2026-05-02T13:12:34.715Z</time></trkpt><trkpt lat="40.0171567" lon="16.1131403"><ele>973.6666666666667</ele><time>2026-05-02T13:12:35.702Z</time></trkpt><trkpt lat="40.0171283" lon="16.1133267"><ele>973.3333333333333</ele><time>2026-05-02T13:12:36.706Z</time></trkpt><trkpt lat="40.0170878" lon="16.1135265"><ele>973.0</ele><time>2026-05-02T13:12:37.72Z</time></trkpt><trkpt lat="40.0170366" lon="16.1137291"><ele>973.0</ele><time>2026-05-02T13:12:38.708Z</time></trkpt><trkpt lat="40.0169937" lon="16.1139397"><ele>973.0</ele><time>2026-05-02T13:12:39.721Z</time></trkpt><trkpt lat="40.0169656" lon="16.1141516"><ele>973.0</ele><time>2026-05-02T13:12:40.7Z</time></trkpt><trkpt lat="40.0169397" lon="16.1143481"><ele>970.3333333333333</ele><time>2026-05-02T13:12:41.708Z</time></trkpt><trkpt lat="40.0169199" lon="16.1145415"><ele>967.6666666666667</ele><time>2026-05-02T13:12:42.709Z</time></trkpt><trkpt lat="40.0168931" lon="16.1147351"><ele>965.0</ele><time>2026-05-02T13:12:43.707Z</time></trkpt><trkpt lat="40.0168489" lon="16.1149325"><ele>962.0</ele><time>2026-05-02T13:12:44.706Z</time></trkpt><trkpt lat="40.0167957" lon="16.1151235"><ele>959.0</ele><time>2026-05-02T13:12:45.694Z</time></trkpt><trkpt lat="40.0167367" lon="16.1153034"><ele>956.0</ele><time>2026-05-02T13:12:46.717Z</time></trkpt><trkpt lat="40.0166831" lon="16.1154796"><ele>963.0</ele><time>2026-05-02T13:12:47.7Z</time></trkpt><trkpt lat="40.0166476" lon="16.115646"><ele>970.0</ele><time>2026-05-02T13:12:48.707Z</time></trkpt><trkpt lat="40.0166124" lon="16.1158022"><ele>977.0</ele><time>2026-05-02T13:12:49.704Z</time></trkpt><trkpt lat="40.0165647" lon="16.115939"><ele>984.0</ele><time>2026-05-02T13:12:50.706Z</time></trkpt><trkpt lat="40.0164955" lon="16.1160734"><ele>984.0</ele><time>2026-05-02T13:12:51.701Z</time></trkpt><trkpt lat="40.0163996" lon="16.1162091"><ele>984.0</ele><time>2026-05-02T13:12:52.705Z</time></trkpt><trkpt lat="40.0162935" lon="16.1163407"><ele>984.0</ele><time>2026-05-02T13:12:53.701Z</time></trkpt><trkpt lat="40.016184" lon="16.1164908"><ele>984.0</ele><time>2026-05-02T13:12:54.706Z</time></trkpt><trkpt lat="40.0160809" lon="16.1166587"><ele>975.75</ele><time>2026-05-02T13:12:55.706Z</time></trkpt><trkpt lat="40.015984" lon="16.1168267"><ele>967.5</ele><time>2026-05-02T13:12:56.715Z</time></trkpt><trkpt lat="40.0158975" lon="16.1169753"><ele>959.25</ele><time>2026-05-02T13:12:57.696Z</time></trkpt><trkpt lat="40.0158223" lon="16.1171154"><ele>951.0</ele><time>2026-05-02T13:12:58.704Z</time></trkpt><trkpt lat="40.0157531" lon="16.1172358"><ele>950.5</ele><time>2026-05-02T13:12:59.707Z</time></trkpt><trkpt lat="40.0156866" lon="16.1173332"><ele>950.0</ele><time>2026-05-02T13:13:00.726Z</time></trkpt><trkpt lat="40.0156312" lon="16.1174087"><ele>949.5</ele><time>2026-05-02T13:13:01.709Z</time></trkpt><trkpt lat="40.0155705" lon="16.1174627"><ele>949.0</ele><time>2026-05-02T13:13:02.716Z</time></trkpt><trkpt lat="40.0154953" lon="16.1174792"><ele>948.5</ele><time>2026-05-02T13:13:03.714Z</time></trkpt><trkpt lat="40.0154098" lon="16.1174648"><ele>948.0</ele><time>2026-05-02T13:13:04.709Z</time></trkpt><trkpt lat="40.0153293" lon="16.1174087"><ele>948.0</ele><time>2026-05-02T13:13:05.705Z</time></trkpt><trkpt lat="40.0152487" lon="16.1173309"><ele>948.0</ele><time>2026-05-02T13:13:06.706Z</time></trkpt><trkpt lat="40.015181" lon="16.1172493"><ele>948.0</ele><time>2026-05-02T13:13:07.708Z</time></trkpt><trkpt lat="40.0151254" lon="16.1171871"><ele>948.0</ele><time>2026-05-02T13:13:08.695Z</time></trkpt><trkpt lat="40.0150727" lon="16.1171397"><ele>948.0</ele><time>2026-05-02T13:13:09.708Z</time></trkpt><trkpt lat="40.0150143" lon="16.1171014"><ele>948.0</ele><time>2026-05-02T13:13:10.698Z</time></trkpt><trkpt lat="40.0149521" lon="16.1170792"><ele>947.4</ele><time>2026-05-02T13:13:11.704Z</time></trkpt><trkpt lat="40.0148893" lon="16.117062"><ele>946.8</ele><time>2026-05-02T13:13:12.704Z</time></trkpt><trkpt lat="40.0147761" lon="16.1170701"><ele>946.2</ele><time>2026-05-02T13:13:14.699Z</time></trkpt><trkpt lat="40.0146721" lon="16.1170906"><ele>945.6</ele><time>2026-05-02T13:13:16.707Z</time></trkpt><trkpt lat="40.0145788" lon="16.1171022"><ele>945.0</ele><time>2026-05-02T13:13:18.703Z</time></trkpt><trkpt lat="40.0144745" lon="16.1171408"><ele>945.0</ele><time>2026-05-02T13:13:20.703Z</time></trkpt><trkpt lat="40.0144082" lon="16.1171971"><ele>945.0</ele><time>2026-05-02T13:13:21.696Z</time></trkpt><trkpt lat="40.0143391" lon="16.1172911"><ele>945.0</ele><time>2026-05-02T13:13:22.698Z</time></trkpt><trkpt lat="40.0142699" lon="16.1174065"><ele>945.0</ele><time>2026-05-02T13:13:23.702Z</time></trkpt><trkpt lat="40.0142026" lon="16.1175391"><ele>945.0</ele><time>2026-05-02T13:13:24.696Z</time></trkpt><trkpt lat="40.0141287" lon="16.1176681"><ele>944.25</ele><time>2026-05-02T13:13:25.704Z</time></trkpt><trkpt lat="40.0140328" lon="16.1177919"><ele>943.5</ele><time>2026-05-02T13:13:26.712Z</time></trkpt><trkpt lat="40.0139197" lon="16.117905"><ele>942.75</ele><time>2026-05-02T13:13:27.711Z</time></trkpt><trkpt lat="40.013797" lon="16.1180054"><ele>942.0</ele><time>2026-05-02T13:13:28.717Z</time></trkpt><trkpt lat="40.013669" lon="16.1181077"><ele>942.0</ele><time>2026-05-02T13:13:29.696Z</time></trkpt><trkpt lat="40.0135468" lon="16.1182006"><ele>942.0</ele><time>2026-05-02T13:13:30.696Z</time></trkpt><trkpt lat="40.0134387" lon="16.1183078"><ele>942.0</ele><time>2026-05-02T13:13:31.693Z</time></trkpt><trkpt lat="40.0133453" lon="16.1184407"><ele>942.0</ele><time>2026-05-02T13:13:32.726Z</time></trkpt><trkpt lat="40.0132686" lon="16.1186003"><ele>940.75</ele><time>2026-05-02T13:13:33.696Z</time></trkpt><trkpt lat="40.0132004" lon="16.1187784"><ele>939.5</ele><time>2026-05-02T13:13:34.72Z</time></trkpt><trkpt lat="40.0131442" lon="16.1189511"><ele>938.25</ele><time>2026-05-02T13:13:35.71Z</time></trkpt><trkpt lat="40.0130932" lon="16.1191119"><ele>937.0</ele><time>2026-05-02T13:13:36.723Z</time></trkpt><trkpt lat="40.013048" lon="16.1192699"><ele>935.25</ele><time>2026-05-02T13:13:37.71Z</time></trkpt><trkpt lat="40.0130075" lon="16.1194231"><ele>933.5</ele><time>2026-05-02T13:13:38.718Z</time></trkpt><trkpt lat="40.0129838" lon="16.1195678"><ele>931.75</ele><time>2026-05-02T13:13:39.707Z</time></trkpt><trkpt lat="40.0129916" lon="16.1197038"><ele>930.0</ele><time>2026-05-02T13:13:40.709Z</time></trkpt><trkpt lat="40.0130162" lon="16.1198468"><ele>929.5</ele><time>2026-05-02T13:13:41.697Z</time></trkpt><trkpt lat="40.0130491" lon="16.119997"><ele>929.0</ele><time>2026-05-02T13:13:42.721Z</time></trkpt><trkpt lat="40.0130921" lon="16.1201642"><ele>928.5</ele><time>2026-05-02T13:13:43.705Z</time></trkpt><trkpt lat="40.0131293" lon="16.1203465"><ele>928.0</ele><time>2026-05-02T13:13:44.708Z</time></trkpt><trkpt lat="40.0131645" lon="16.12054"><ele>927.3333333333333</ele><time>2026-05-02T13:13:45.709Z</time></trkpt><trkpt lat="40.0132039" lon="16.1207391"><ele>926.6666666666667</ele><time>2026-05-02T13:13:46.714Z</time></trkpt><trkpt lat="40.0132478" lon="16.1209274"><ele>926.0</ele><time>2026-05-02T13:13:47.723Z</time></trkpt><trkpt lat="40.0132898" lon="16.1211195"><ele>921.0</ele><time>2026-05-02T13:13:48.709Z</time></trkpt><trkpt lat="40.0133345" lon="16.1213082"><ele>916.0</ele><time>2026-05-02T13:13:49.707Z</time></trkpt><trkpt lat="40.0133794" lon="16.1215036"><ele>911.0</ele><time>2026-05-02T13:13:50.716Z</time></trkpt><trkpt lat="40.013423" lon="16.1217014"><ele>910.25</ele><time>2026-05-02T13:13:51.703Z</time></trkpt><trkpt lat="40.0134608" lon="16.1218857"><ele>909.5</ele><time>2026-05-02T13:13:52.722Z</time></trkpt><trkpt lat="40.0134938" lon="16.1220507"><ele>908.75</ele><time>2026-05-02T13:13:53.716Z</time></trkpt><trkpt lat="40.0135209" lon="16.1222003"><ele>908.0</ele><time>2026-05-02T13:13:54.702Z</time></trkpt><trkpt lat="40.0135439" lon="16.122333"><ele>907.8</ele><time>2026-05-02T13:13:55.699Z</time></trkpt><trkpt lat="40.0135473" lon="16.1224597"><ele>907.5999999999999</ele><time>2026-05-02T13:13:56.712Z</time></trkpt><trkpt lat="40.0135304" lon="16.1225804"><ele>907.4000000000001</ele><time>2026-05-02T13:13:57.719Z</time></trkpt><trkpt lat="40.0134816" lon="16.1227011"><ele>907.2</ele><time>2026-05-02T13:13:58.713Z</time></trkpt><trkpt lat="40.0134008" lon="16.1228282"><ele>907.0</ele><time>2026-05-02T13:13:59.705Z</time></trkpt><trkpt lat="40.0132976" lon="16.122951"><ele>908.0</ele><time>2026-05-02T13:14:00.705Z</time></trkpt><trkpt lat="40.0131725" lon="16.1230643"><ele>909.0</ele><time>2026-05-02T13:14:01.714Z</time></trkpt><trkpt lat="40.0130297" lon="16.1231723"><ele>910.0</ele><time>2026-05-02T13:14:02.711Z</time></trkpt><trkpt lat="40.0128811" lon="16.12328"><ele>908.0</ele><time>2026-05-02T13:14:03.716Z</time></trkpt><trkpt lat="40.0127351" lon="16.123385"><ele>906.0</ele><time>2026-05-02T13:14:04.712Z</time></trkpt><trkpt lat="40.0125956" lon="16.1234955"><ele>904.0</ele><time>2026-05-02T13:14:05.719Z</time></trkpt><trkpt lat="40.0124631" lon="16.1235939"><ele>904.0</ele><time>2026-05-02T13:14:06.706Z</time></trkpt><trkpt lat="40.0123432" lon="16.1236882"><ele>904.0</ele><time>2026-05-02T13:14:07.709Z</time></trkpt><trkpt lat="40.0122357" lon="16.1237775"><ele>904.0</ele><time>2026-05-02T13:14:08.714Z</time></trkpt><trkpt lat="40.0121367" lon="16.1238582"><ele>904.0</ele><time>2026-05-02T13:14:09.727Z</time></trkpt><trkpt lat="40.0120486" lon="16.1239504"><ele>901.75</ele><time>2026-05-02T13:14:10.71Z</time></trkpt><trkpt lat="40.0119703" lon="16.124068"><ele>899.5</ele><time>2026-05-02T13:14:11.7Z</time></trkpt><trkpt lat="40.0119164" lon="16.1242184"><ele>897.25</ele><time>2026-05-02T13:14:12.72Z</time></trkpt><trkpt lat="40.0118669" lon="16.1243847"><ele>895.0</ele><time>2026-05-02T13:14:13.704Z</time></trkpt><trkpt lat="40.0118194" lon="16.1245617"><ele>895.0</ele><time>2026-05-02T13:14:14.708Z</time></trkpt><trkpt lat="40.0117646" lon="16.1247266"><ele>895.0</ele><time>2026-05-02T13:14:15.709Z</time></trkpt><trkpt lat="40.0117185" lon="16.1248836"><ele>895.0</ele><time>2026-05-02T13:14:16.714Z</time></trkpt><trkpt lat="40.0116784" lon="16.1250262"><ele>895.0</ele><time>2026-05-02T13:14:17.715Z</time></trkpt><trkpt lat="40.01163" lon="16.1251521"><ele>893.0</ele><time>2026-05-02T13:14:18.709Z</time></trkpt><trkpt lat="40.0115558" lon="16.1252499"><ele>891.0</ele><time>2026-05-02T13:14:19.712Z</time></trkpt><trkpt lat="40.0114759" lon="16.1253072"><ele>889.0</ele><time>2026-05-02T13:14:20.707Z</time></trkpt><trkpt lat="40.0113908" lon="16.1253108"><ele>887.0</ele><time>2026-05-02T13:14:21.708Z</time></trkpt><trkpt lat="40.0113065" lon="16.1252993"><ele>885.0</ele><time>2026-05-02T13:14:22.702Z</time></trkpt><trkpt lat="40.0112193" lon="16.125272"><ele>885.0</ele><time>2026-05-02T13:14:23.701Z</time></trkpt><trkpt lat="40.0111238" lon="16.1252249"><ele>885.0</ele><time>2026-05-02T13:14:24.708Z</time></trkpt><trkpt lat="40.0110271" lon="16.125171"><ele>885.0</ele><time>2026-05-02T13:14:25.705Z</time></trkpt><trkpt lat="40.0109373" lon="16.1251434"><ele>885.0</ele><time>2026-05-02T13:14:26.711Z</time></trkpt><trkpt lat="40.0108568" lon="16.1251601"><ele>885.0</ele><time>2026-05-02T13:14:27.71Z</time></trkpt><trkpt lat="40.0107757" lon="16.1252031"><ele>885.0</ele><time>2026-05-02T13:14:28.717Z</time></trkpt><trkpt lat="40.0107209" lon="16.1252749"><ele>885.0</ele><time>2026-05-02T13:14:29.705Z</time></trkpt><trkpt lat="40.0107045" lon="16.1253598"><ele>885.0</ele><time>2026-05-02T13:14:30.712Z</time></trkpt><trkpt lat="40.0107211" lon="16.12546"><ele>885.0</ele><time>2026-05-02T13:14:31.714Z</time></trkpt><trkpt lat="40.0107753" lon="16.1255694"><ele>885.0</ele><time>2026-05-02T13:14:32.708Z</time></trkpt><trkpt lat="40.0108367" lon="16.1256819"><ele>885.0</ele><time>2026-05-02T13:14:33.712Z</time></trkpt><trkpt lat="40.010895" lon="16.1258028"><ele>884.8</ele><time>2026-05-02T13:14:34.706Z</time></trkpt><trkpt lat="40.010925" lon="16.125919"><ele>884.6</ele><time>2026-05-02T13:14:35.712Z</time></trkpt><trkpt lat="40.0109238" lon="16.1260455"><ele>884.4000000000001</ele><time>2026-05-02T13:14:36.716Z</time></trkpt><trkpt lat="40.0108918" lon="16.1261584"><ele>884.2</ele><time>2026-05-02T13:14:37.712Z</time></trkpt><trkpt lat="40.0108335" lon="16.1262722"><ele>884.0</ele><time>2026-05-02T13:14:38.711Z</time></trkpt><trkpt lat="40.0107477" lon="16.1263944"><ele>884.5</ele><time>2026-05-02T13:14:39.715Z</time></trkpt><trkpt lat="40.0106613" lon="16.1265186"><ele>885.0</ele><time>2026-05-02T13:14:40.716Z</time></trkpt><trkpt lat="40.0105899" lon="16.126624"><ele>885.5</ele><time>2026-05-02T13:14:41.692Z</time></trkpt><trkpt lat="40.0105108" lon="16.1267089"><ele>886.0</ele><time>2026-05-02T13:14:42.714Z</time></trkpt><trkpt lat="40.0104043" lon="16.126772"><ele>887.75</ele><time>2026-05-02T13:14:43.716Z</time></trkpt><trkpt lat="40.0102798" lon="16.1268065"><ele>889.5</ele><time>2026-05-02T13:14:44.717Z</time></trkpt><trkpt lat="40.0101505" lon="16.1268183"><ele>891.25</ele><time>2026-05-02T13:14:45.71Z</time></trkpt><trkpt lat="40.0100184" lon="16.1268265"><ele>893.0</ele><time>2026-05-02T13:14:46.701Z</time></trkpt><trkpt lat="40.0099046" lon="16.1268329"><ele>893.0</ele><time>2026-05-02T13:14:47.713Z</time></trkpt><trkpt lat="40.0098065" lon="16.1268392"><ele>893.0</ele><time>2026-05-02T13:14:48.714Z</time></trkpt><trkpt lat="40.0097103" lon="16.1268784"><ele>893.0</ele><time>2026-05-02T13:14:49.716Z</time></trkpt><trkpt lat="40.0096097" lon="16.12697"><ele>893.0</ele><time>2026-05-02T13:14:50.702Z</time></trkpt><trkpt lat="40.0095264" lon="16.1270767"><ele>893.0</ele><time>2026-05-02T13:14:51.701Z</time></trkpt><trkpt lat="40.0094398" lon="16.1271939"><ele>893.0</ele><time>2026-05-02T13:14:52.71Z</time></trkpt><trkpt lat="40.0093648" lon="16.1273332"><ele>893.0</ele><time>2026-05-02T13:14:53.698Z</time></trkpt><trkpt lat="40.0093068" lon="16.1274962"><ele>893.0</ele><time>2026-05-02T13:14:54.712Z</time></trkpt><trkpt lat="40.0092608" lon="16.1276485"><ele>893.0</ele><time>2026-05-02T13:14:55.703Z</time></trkpt><trkpt lat="40.0092144" lon="16.1277822"><ele>892.5999999999999</ele><time>2026-05-02T13:14:56.713Z</time></trkpt><trkpt lat="40.0091682" lon="16.1278967"><ele>892.1999999999999</ele><time>2026-05-02T13:14:57.705Z</time></trkpt><trkpt lat="40.0091131" lon="16.1279913"><ele>891.8</ele><time>2026-05-02T13:14:58.709Z</time></trkpt><trkpt lat="40.0090441" lon="16.1280661"><ele>891.4</ele><time>2026-05-02T13:14:59.704Z</time></trkpt><trkpt lat="40.0089528" lon="16.1281168"><ele>891.0</ele><time>2026-05-02T13:15:00.708Z</time></trkpt><trkpt lat="40.0088396" lon="16.12815"><ele>891.0</ele><time>2026-05-02T13:15:01.7Z</time></trkpt><trkpt lat="40.0087146" lon="16.1281603"><ele>891.0</ele><time>2026-05-02T13:15:02.706Z</time></trkpt><trkpt lat="40.0085745" lon="16.1281886"><ele>891.0</ele><time>2026-05-02T13:15:03.706Z</time></trkpt><trkpt lat="40.0084311" lon="16.1282467"><ele>891.0</ele><time>2026-05-02T13:15:04.709Z</time></trkpt><trkpt lat="40.0083035" lon="16.1283183"><ele>888.4</ele><time>2026-05-02T13:15:05.685Z</time></trkpt><trkpt lat="40.0081948" lon="16.1283913"><ele>885.8</ele><time>2026-05-02T13:15:06.722Z</time></trkpt><trkpt lat="40.0081065" lon="16.1284523"><ele>883.1999999999999</ele><time>2026-05-02T13:15:07.7Z</time></trkpt><trkpt lat="40.008041" lon="16.1285149"><ele>880.5999999999999</ele><time>2026-05-02T13:15:08.706Z</time></trkpt><trkpt lat="40.0080076" lon="16.128611"><ele>878.0</ele><time>2026-05-02T13:15:09.7Z</time></trkpt><trkpt lat="40.007987" lon="16.1287334"><ele>878.0</ele><time>2026-05-02T13:15:10.71Z</time></trkpt><trkpt lat="40.0079713" lon="16.1288607"><ele>878.0</ele><time>2026-05-02T13:15:11.71Z</time></trkpt><trkpt lat="40.0079733" lon="16.1290287"><ele>878.0</ele><time>2026-05-02T13:15:12.716Z</time></trkpt><trkpt lat="40.0079786" lon="16.1292009"><ele>878.0</ele><time>2026-05-02T13:15:13.701Z</time></trkpt><trkpt lat="40.0079733" lon="16.12936"><ele>876.8</ele><time>2026-05-02T13:15:14.708Z</time></trkpt><trkpt lat="40.0079508" lon="16.1294949"><ele>875.5999999999999</ele><time>2026-05-02T13:15:15.708Z</time></trkpt><trkpt lat="40.0079112" lon="16.1296266"><ele>874.4000000000001</ele><time>2026-05-02T13:15:16.711Z</time></trkpt><trkpt lat="40.0078559" lon="16.1297501"><ele>873.2</ele><time>2026-05-02T13:15:17.706Z</time></trkpt><trkpt lat="40.0077811" lon="16.1298656"><ele>872.0</ele><time>2026-05-02T13:15:18.71Z</time></trkpt><trkpt lat="40.0076984" lon="16.1299836"><ele>870.0</ele><time>2026-05-02T13:15:19.719Z</time></trkpt><trkpt lat="40.0076149" lon="16.13012"><ele>868.0</ele><time>2026-05-02T13:15:20.706Z</time></trkpt><trkpt lat="40.0075356" lon="16.1302534"><ele>866.0</ele><time>2026-05-02T13:15:21.694Z</time></trkpt><trkpt lat="40.0074596" lon="16.1303832"><ele>864.0</ele><time>2026-05-02T13:15:22.712Z</time></trkpt><trkpt lat="40.0073854" lon="16.1304961"><ele>867.4000000000001</ele><time>2026-05-02T13:15:23.707Z</time></trkpt><trkpt lat="40.0073228" lon="16.1305909"><ele>870.8000000000001</ele><time>2026-05-02T13:15:24.708Z</time></trkpt><trkpt lat="40.0072826" lon="16.1306835"><ele>874.1999999999999</ele><time>2026-05-02T13:15:25.707Z</time></trkpt><trkpt lat="40.0072681" lon="16.1307879"><ele>877.5999999999999</ele><time>2026-05-02T13:15:26.712Z</time></trkpt><trkpt lat="40.0072878" lon="16.1309084"><ele>881.0</ele><time>2026-05-02T13:15:27.713Z</time></trkpt><trkpt lat="40.0073385" lon="16.1310359"><ele>881.0</ele><time>2026-05-02T13:15:28.701Z</time></trkpt><trkpt lat="40.0073972" lon="16.1311589"><ele>880.9999999999999</ele><time>2026-05-02T13:15:29.71Z</time></trkpt><trkpt lat="40.0074469" lon="16.1312783"><ele>880.9999999999999</ele><time>2026-05-02T13:15:30.69Z</time></trkpt><trkpt lat="40.0074718" lon="16.131385"><ele>881.0</ele><time>2026-05-02T13:15:31.703Z</time></trkpt><trkpt lat="40.0074747" lon="16.131477"><ele>881.0</ele><time>2026-05-02T13:15:32.717Z</time></trkpt><trkpt lat="40.0074607" lon="16.1315798"><ele>880.1999999999999</ele><time>2026-05-02T13:15:33.702Z</time></trkpt><trkpt lat="40.0074221" lon="16.1317091"><ele>879.3999999999999</ele><time>2026-05-02T13:15:34.706Z</time></trkpt><trkpt lat="40.0073679" lon="16.1318429"><ele>878.6</ele><time>2026-05-02T13:15:35.7Z</time></trkpt><trkpt lat="40.0073358" lon="16.131971"><ele>877.8</ele><time>2026-05-02T13:15:36.711Z</time></trkpt><trkpt lat="40.0073173" lon="16.1320882"><ele>877.0</ele><time>2026-05-02T13:15:37.697Z</time></trkpt><trkpt lat="40.0073238" lon="16.1322118"><ele>877.0</ele><time>2026-05-02T13:15:38.699Z</time></trkpt><trkpt lat="40.0073607" lon="16.1323412"><ele>877.0</ele><time>2026-05-02T13:15:39.693Z</time></trkpt><trkpt lat="40.0074234" lon="16.1324635"><ele>877.0</ele><time>2026-05-02T13:15:40.704Z</time></trkpt><trkpt lat="40.0074953" lon="16.1325764"><ele>877.0</ele><time>2026-05-02T13:15:41.7Z</time></trkpt><trkpt lat="40.0075491" lon="16.1326674"><ele>877.0</ele><time>2026-05-02T13:15:42.712Z</time></trkpt><trkpt lat="40.0075798" lon="16.1327494"><ele>875.2</ele><time>2026-05-02T13:15:43.715Z</time></trkpt><trkpt lat="40.0075576" lon="16.132909"><ele>873.4000000000001</ele><time>2026-05-02T13:15:45.703Z</time></trkpt><trkpt lat="40.0074943" lon="16.132985"><ele>871.5999999999999</ele><time>2026-05-02T13:15:46.722Z</time></trkpt><trkpt lat="40.0074072" lon="16.1330661"><ele>869.8</ele><time>2026-05-02T13:15:47.707Z</time></trkpt><trkpt lat="40.0073161" lon="16.133162"><ele>868.0</ele><time>2026-05-02T13:15:48.706Z</time></trkpt><trkpt lat="40.0072238" lon="16.1332664"><ele>865.8</ele><time>2026-05-02T13:15:49.702Z</time></trkpt><trkpt lat="40.007143" lon="16.1333673"><ele>863.5999999999999</ele><time>2026-05-02T13:15:50.715Z</time></trkpt><trkpt lat="40.0070631" lon="16.1334711"><ele>861.4000000000001</ele><time>2026-05-02T13:15:51.719Z</time></trkpt><trkpt lat="40.0069962" lon="16.1335802"><ele>859.2</ele><time>2026-05-02T13:15:52.71Z</time></trkpt><trkpt lat="40.0069553" lon="16.1337002"><ele>857.0</ele><time>2026-05-02T13:15:53.714Z</time></trkpt><trkpt lat="40.0069305" lon="16.133825"><ele>857.0</ele><time>2026-05-02T13:15:54.715Z</time></trkpt><trkpt lat="40.0069216" lon="16.1339727"><ele>857.0</ele><time>2026-05-02T13:15:55.701Z</time></trkpt><trkpt lat="40.0069139" lon="16.1341061"><ele>857.0</ele><time>2026-05-02T13:15:56.713Z</time></trkpt><trkpt lat="40.0069032" lon="16.1342044"><ele>857.0</ele><time>2026-05-02T13:15:57.706Z</time></trkpt><trkpt lat="40.0068911" lon="16.1343119"><ele>857.0</ele><time>2026-05-02T13:15:59.709Z</time></trkpt><trkpt lat="40.0068812" lon="16.1344345"><ele>854.4000000000001</ele><time>2026-05-02T13:16:06.705Z</time></trkpt><trkpt lat="40.006868" lon="16.1345671"><ele>851.8000000000001</ele><time>2026-05-02T13:16:08.713Z</time></trkpt><trkpt lat="40.0068339" lon="16.1346797"><ele>849.2</ele><time>2026-05-02T13:16:11.716Z</time></trkpt><trkpt lat="40.006793" lon="16.1348085"><ele>846.6</ele><time>2026-05-02T13:16:13.711Z</time></trkpt><trkpt lat="40.0067516" lon="16.1349017"><ele>844.0</ele><time>2026-05-02T13:16:15.703Z</time></trkpt><trkpt lat="40.0067303" lon="16.1349992"><ele>844.6666666666666</ele><time>2026-05-02T13:16:17.706Z</time></trkpt><trkpt lat="40.0066978" lon="16.1351333"><ele>845.3333333333333</ele><time>2026-05-02T13:16:19.714Z</time></trkpt><trkpt lat="40.0066616" lon="16.1352446"><ele>846.0</ele><time>2026-05-02T13:16:21.712Z</time></trkpt><trkpt lat="40.006644" lon="16.1353584"><ele>846.6666666666667</ele><time>2026-05-02T13:16:23.704Z</time></trkpt><trkpt lat="40.0066231" lon="16.1354515"><ele>847.3333333333334</ele><time>2026-05-02T13:16:24.712Z</time></trkpt><trkpt lat="40.0065982" lon="16.1355546"><ele>848.0</ele><time>2026-05-02T13:16:25.72Z</time></trkpt><trkpt lat="40.0065739" lon="16.1356678"><ele>846.4</ele><time>2026-05-02T13:16:26.713Z</time></trkpt><trkpt lat="40.0065519" lon="16.1357891"><ele>844.8</ele><time>2026-05-02T13:16:27.719Z</time></trkpt><trkpt lat="40.0065326" lon="16.135921"><ele>843.2</ele><time>2026-05-02T13:16:28.711Z</time></trkpt><trkpt lat="40.0065018" lon="16.1360601"><ele>841.6</ele><time>2026-05-02T13:16:29.706Z</time></trkpt><trkpt lat="40.0064617" lon="16.1361992"><ele>840.0</ele><time>2026-05-02T13:16:30.719Z</time></trkpt><trkpt lat="40.0064164" lon="16.136332"><ele>840.0</ele><time>2026-05-02T13:16:31.704Z</time></trkpt><trkpt lat="40.0063741" lon="16.1364569"><ele>840.0</ele><time>2026-05-02T13:16:32.715Z</time></trkpt><trkpt lat="40.0063309" lon="16.1365879"><ele>840.0</ele><time>2026-05-02T13:16:33.705Z</time></trkpt><trkpt lat="40.0062828" lon="16.1367291"><ele>840.0</ele><time>2026-05-02T13:16:34.703Z</time></trkpt><trkpt lat="40.0062376" lon="16.136858"><ele>840.0</ele><time>2026-05-02T13:16:35.695Z</time></trkpt><trkpt lat="40.0062069" lon="16.1369945"><ele>839.0</ele><time>2026-05-02T13:16:36.706Z</time></trkpt><trkpt lat="40.0061861" lon="16.1371422"><ele>838.0</ele><time>2026-05-02T13:16:37.709Z</time></trkpt><trkpt lat="40.0061919" lon="16.1372956"><ele>837.0</ele><time>2026-05-02T13:16:38.719Z</time></trkpt><trkpt lat="40.0062178" lon="16.1374477"><ele>836.0</ele><time>2026-05-02T13:16:39.718Z</time></trkpt><trkpt lat="40.0062627" lon="16.137592"><ele>835.1999999999999</ele><time>2026-05-02T13:16:40.724Z</time></trkpt><trkpt lat="40.006314" lon="16.137726"><ele>834.4</ele><time>2026-05-02T13:16:41.7Z</time></trkpt><trkpt lat="40.0063661" lon="16.1378327"><ele>833.6</ele><time>2026-05-02T13:16:42.715Z</time></trkpt><trkpt lat="40.0064195" lon="16.1379325"><ele>832.8</ele><time>2026-05-02T13:16:43.703Z</time></trkpt><trkpt lat="40.00646" lon="16.1380248"><ele>832.0</ele><time>2026-05-02T13:16:44.711Z</time></trkpt><trkpt lat="40.0064811" lon="16.1381221"><ele>831.9999999999999</ele><time>2026-05-02T13:16:45.707Z</time></trkpt><trkpt lat="40.0064893" lon="16.1382155"><ele>832.0</ele><time>2026-05-02T13:16:46.712Z</time></trkpt><trkpt lat="40.006476" lon="16.1383083"><ele>832.0</ele><time>2026-05-02T13:16:47.707Z</time></trkpt><trkpt lat="40.0064332" lon="16.1383929"><ele>832.0</ele><time>2026-05-02T13:16:48.723Z</time></trkpt><trkpt lat="40.0063592" lon="16.1384552"><ele>831.9999999999999</ele><time>2026-05-02T13:16:49.705Z</time></trkpt><trkpt lat="40.0062658" lon="16.1384935"><ele>832.0</ele><time>2026-05-02T13:16:50.705Z</time></trkpt><trkpt lat="40.0061526" lon="16.1385358"><ele>830.6666666666666</ele><time>2026-05-02T13:16:51.712Z</time></trkpt><trkpt lat="40.0060501" lon="16.1385781"><ele>829.3333333333333</ele><time>2026-05-02T13:16:52.711Z</time></trkpt><trkpt lat="40.005965" lon="16.1386255"><ele>828.0</ele><time>2026-05-02T13:16:53.713Z</time></trkpt><trkpt lat="40.0058963" lon="16.1386654"><ele>826.6666666666667</ele><time>2026-05-02T13:16:54.705Z</time></trkpt><trkpt lat="40.0058227" lon="16.1387303"><ele>825.3333333333334</ele><time>2026-05-02T13:16:56.713Z</time></trkpt><trkpt lat="40.0057559" lon="16.1387827"><ele>824.0</ele><time>2026-05-02T13:31:19.714Z</time></trkpt><trkpt lat="40.0057951" lon="16.1388925"><ele>825.8333333333334</ele><time>2026-05-02T13:31:22.663Z</time></trkpt><trkpt lat="40.0057447" lon="16.1388427"><ele>827.6666666666667</ele><time>2026-05-02T13:31:28.691Z</time></trkpt><trkpt lat="40.0057955" lon="16.1387765"><ele>829.5</ele><time>2026-05-02T13:39:58.694Z</time></trkpt><trkpt lat="40.0057686" lon="16.1388767"><ele>831.3333333333333</ele><time>2026-05-02T13:40:00.7Z</time></trkpt><trkpt lat="40.0057655" lon="16.1389652"><ele>833.1666666666666</ele><time>2026-05-02T13:40:01.7Z</time></trkpt><trkpt lat="40.005774" lon="16.1390814"><ele>835.0</ele><time>2026-05-02T13:40:02.697Z</time></trkpt><trkpt lat="40.0058069" lon="16.1392144"><ele>831.4</ele><time>2026-05-02T13:40:03.693Z</time></trkpt><trkpt lat="40.0058424" lon="16.1393422"><ele>827.8</ele><time>2026-05-02T13:40:04.698Z</time></trkpt><trkpt lat="40.005876" lon="16.1394571"><ele>824.2</ele><time>2026-05-02T13:40:05.681Z</time></trkpt><trkpt lat="40.0059103" lon="16.1395675"><ele>820.6</ele><time>2026-05-02T13:40:06.687Z</time></trkpt><trkpt lat="40.0059683" lon="16.1396868"><ele>817.0</ele><time>2026-05-02T13:40:07.678Z</time></trkpt><trkpt lat="40.006016" lon="16.1397981"><ele>817.0</ele><time>2026-05-02T13:40:08.674Z</time></trkpt><trkpt lat="40.0060491" lon="16.1398951"><ele>817.0</ele><time>2026-05-02T13:40:09.676Z</time></trkpt><trkpt lat="40.0060692" lon="16.1399993"><ele>817.0</ele><time>2026-05-02T13:40:10.677Z</time></trkpt><trkpt lat="40.0060667" lon="16.1401187"><ele>817.0</ele><time>2026-05-02T13:40:11.674Z</time></trkpt><trkpt lat="40.0060396" lon="16.1402455"><ele>817.0</ele><time>2026-05-02T13:40:12.671Z</time></trkpt><trkpt lat="40.0060167" lon="16.1403858"><ele>817.0</ele><time>2026-05-02T13:40:13.705Z</time></trkpt><trkpt lat="40.0060222" lon="16.140531"><ele>817.0</ele><time>2026-05-02T13:40:14.669Z</time></trkpt><trkpt lat="40.0060473" lon="16.1406611"><ele>817.0</ele><time>2026-05-02T13:40:15.677Z</time></trkpt><trkpt lat="40.006053" lon="16.140819"><ele>817.0</ele><time>2026-05-02T13:40:16.674Z</time></trkpt><trkpt lat="40.0060407" lon="16.1409785"><ele>817.8</ele><time>2026-05-02T13:40:17.692Z</time></trkpt><trkpt lat="40.0059952" lon="16.1411222"><ele>818.6</ele><time>2026-05-02T13:40:18.692Z</time></trkpt><trkpt lat="40.005939" lon="16.1412578"><ele>819.4</ele><time>2026-05-02T13:40:19.699Z</time></trkpt><trkpt lat="40.0058744" lon="16.1413722"><ele>820.1999999999999</ele><time>2026-05-02T13:40:20.683Z</time></trkpt><trkpt lat="40.005809" lon="16.1414468"><ele>821.0</ele><time>2026-05-02T13:40:21.699Z</time></trkpt><trkpt lat="40.0057351" lon="16.1414925"><ele>821.0</ele><time>2026-05-02T13:40:22.698Z</time></trkpt><trkpt lat="40.0056363" lon="16.1415103"><ele>821.0</ele><time>2026-05-02T13:40:23.694Z</time></trkpt><trkpt lat="40.0055383" lon="16.1415146"><ele>821.0</ele><time>2026-05-02T13:40:24.713Z</time></trkpt><trkpt lat="40.0054485" lon="16.1415375"><ele>821.0</ele><time>2026-05-02T13:40:25.692Z</time></trkpt><trkpt lat="40.0053715" lon="16.141599"><ele>821.0</ele><time>2026-05-02T13:40:26.69Z</time></trkpt><trkpt lat="40.0053057" lon="16.1416959"><ele>820.75</ele><time>2026-05-02T13:40:27.702Z</time></trkpt><trkpt lat="40.0052332" lon="16.1418182"><ele>820.5</ele><time>2026-05-02T13:40:28.687Z</time></trkpt><trkpt lat="40.0051498" lon="16.1419586"><ele>820.25</ele><time>2026-05-02T13:40:29.696Z</time></trkpt><trkpt lat="40.0050571" lon="16.1421"><ele>820.0</ele><time>2026-05-02T13:40:30.691Z</time></trkpt><trkpt lat="40.0049668" lon="16.1422539"><ele>820.0</ele><time>2026-05-02T13:40:31.703Z</time></trkpt><trkpt lat="40.0048951" lon="16.1424106"><ele>820.0</ele><time>2026-05-02T13:40:32.697Z</time></trkpt><trkpt lat="40.0048473" lon="16.142574"><ele>820.0</ele><time>2026-05-02T13:40:33.692Z</time></trkpt><trkpt lat="40.0048321" lon="16.1427401"><ele>820.0</ele><time>2026-05-02T13:40:34.692Z</time></trkpt><trkpt lat="40.0048031" lon="16.1428651"><ele>820.0</ele><time>2026-05-02T13:40:35.699Z</time></trkpt><trkpt lat="40.004744" lon="16.1429712"><ele>820.0</ele><time>2026-05-02T13:40:36.695Z</time></trkpt><trkpt lat="40.0046683" lon="16.1430625"><ele>820.0</ele><time>2026-05-02T13:40:37.682Z</time></trkpt><trkpt lat="40.0045709" lon="16.143142"><ele>820.0</ele><time>2026-05-02T13:40:38.685Z</time></trkpt><trkpt lat="40.0044845" lon="16.1432028"><ele>820.0</ele><time>2026-05-02T13:40:39.69Z</time></trkpt><trkpt lat="40.0044194" lon="16.1432676"><ele>818.8</ele><time>2026-05-02T13:40:40.691Z</time></trkpt><trkpt lat="40.0043633" lon="16.1433648"><ele>817.6</ele><time>2026-05-02T13:40:41.693Z</time></trkpt><trkpt lat="40.0043419" lon="16.1434821"><ele>816.4000000000001</ele><time>2026-05-02T13:40:42.699Z</time></trkpt><trkpt lat="40.0043434" lon="16.143616"><ele>815.2</ele><time>2026-05-02T13:40:43.693Z</time></trkpt><trkpt lat="40.0043535" lon="16.1437469"><ele>814.0</ele><time>2026-05-02T13:40:44.688Z</time></trkpt><trkpt lat="40.0043446" lon="16.143855"><ele>814.0</ele><time>2026-05-02T13:40:45.686Z</time></trkpt><trkpt lat="40.0043045" lon="16.1439499"><ele>814.0</ele><time>2026-05-02T13:40:46.686Z</time></trkpt><trkpt lat="40.004243" lon="16.1440265"><ele>814.0</ele><time>2026-05-02T13:40:47.692Z</time></trkpt><trkpt lat="40.0041657" lon="16.144074"><ele>814.0</ele><time>2026-05-02T13:40:48.695Z</time></trkpt><trkpt lat="40.0040744" lon="16.1440931"><ele>814.0</ele><time>2026-05-02T13:40:49.689Z</time></trkpt><trkpt lat="40.0039707" lon="16.1441133"><ele>815.0</ele><time>2026-05-02T13:40:50.688Z</time></trkpt><trkpt lat="40.0038766" lon="16.144142"><ele>816.0</ele><time>2026-05-02T13:40:51.686Z</time></trkpt><trkpt lat="40.0037985" lon="16.1442024"><ele>817.0</ele><time>2026-05-02T13:40:52.7Z</time></trkpt><trkpt lat="40.0037353" lon="16.1442956"><ele>818.0</ele><time>2026-05-02T13:40:53.683Z</time></trkpt><trkpt lat="40.0036776" lon="16.1444098"><ele>819.0</ele><time>2026-05-02T13:40:54.691Z</time></trkpt><trkpt lat="40.0036193" lon="16.1445425"><ele>819.0</ele><time>2026-05-02T13:40:55.697Z</time></trkpt><trkpt lat="40.0035534" lon="16.1446792"><ele>819.0</ele><time>2026-05-02T13:40:56.68Z</time></trkpt><trkpt lat="40.0034824" lon="16.1448182"><ele>819.0</ele><time>2026-05-02T13:40:57.687Z</time></trkpt><trkpt lat="40.0034087" lon="16.1449581"><ele>819.0</ele><time>2026-05-02T13:40:58.703Z</time></trkpt><trkpt lat="40.0033143" lon="16.1450898"><ele>819.75</ele><time>2026-05-02T13:40:59.698Z</time></trkpt><trkpt lat="40.0032207" lon="16.1452216"><ele>820.5</ele><time>2026-05-02T13:41:00.689Z</time></trkpt><trkpt lat="40.0031413" lon="16.1453468"><ele>821.25</ele><time>2026-05-02T13:41:01.697Z</time></trkpt><trkpt lat="40.0030695" lon="16.1454652"><ele>822.0</ele><time>2026-05-02T13:41:02.694Z</time></trkpt><trkpt lat="40.003029" lon="16.1455864"><ele>821.2</ele><time>2026-05-02T13:41:03.701Z</time></trkpt><trkpt lat="40.0030178" lon="16.1457222"><ele>820.4000000000001</ele><time>2026-05-02T13:41:04.698Z</time></trkpt><trkpt lat="40.0030173" lon="16.145873"><ele>819.5999999999999</ele><time>2026-05-02T13:41:05.694Z</time></trkpt><trkpt lat="40.0030217" lon="16.146022"><ele>818.8</ele><time>2026-05-02T13:41:06.704Z</time></trkpt><trkpt lat="40.0030382" lon="16.1461488"><ele>818.0</ele><time>2026-05-02T13:41:07.695Z</time></trkpt><trkpt lat="40.0030622" lon="16.1462643"><ele>818.0</ele><time>2026-05-02T13:41:08.687Z</time></trkpt><trkpt lat="40.0030665" lon="16.1463684"><ele>818.0</ele><time>2026-05-02T13:41:09.686Z</time></trkpt><trkpt lat="40.0030496" lon="16.1464772"><ele>818.0</ele><time>2026-05-02T13:41:10.694Z</time></trkpt><trkpt lat="40.0030145" lon="16.1466089"><ele>818.0</ele><time>2026-05-02T13:41:11.7Z</time></trkpt><trkpt lat="40.0029586" lon="16.1467498"><ele>818.0</ele><time>2026-05-02T13:41:12.703Z</time></trkpt><trkpt lat="40.0029013" lon="16.1468947"><ele>817.5</ele><time>2026-05-02T13:41:13.698Z</time></trkpt><trkpt lat="40.0028414" lon="16.1470471"><ele>817.0</ele><time>2026-05-02T13:41:14.688Z</time></trkpt><trkpt lat="40.002782" lon="16.1472163"><ele>816.5</ele><time>2026-05-02T13:41:15.686Z</time></trkpt><trkpt lat="40.002728" lon="16.1473824"><ele>816.0</ele><time>2026-05-02T13:41:16.687Z</time></trkpt><trkpt lat="40.0026689" lon="16.1475416"><ele>814.25</ele><time>2026-05-02T13:41:17.695Z</time></trkpt><trkpt lat="40.0026064" lon="16.1477064"><ele>812.5</ele><time>2026-05-02T13:41:18.693Z</time></trkpt><trkpt lat="40.0025424" lon="16.1478672"><ele>810.75</ele><time>2026-05-02T13:41:19.691Z</time></trkpt><trkpt lat="40.0024719" lon="16.1480162"><ele>809.0</ele><time>2026-05-02T13:41:20.699Z</time></trkpt><trkpt lat="40.0023985" lon="16.1481468"><ele>810.2</ele><time>2026-05-02T13:41:21.691Z</time></trkpt><trkpt lat="40.0023284" lon="16.1482669"><ele>811.4000000000001</ele><time>2026-05-02T13:41:22.698Z</time></trkpt><trkpt lat="40.0022651" lon="16.1483903"><ele>812.6</ele><time>2026-05-02T13:41:23.691Z</time></trkpt><trkpt lat="40.0021965" lon="16.1485121"><ele>813.8</ele><time>2026-05-02T13:41:24.696Z</time></trkpt><trkpt lat="40.0021373" lon="16.1486165"><ele>815.0</ele><time>2026-05-02T13:41:25.72Z</time></trkpt><trkpt lat="40.0020899" lon="16.1486973"><ele>815.0000000000001</ele><time>2026-05-02T13:41:26.689Z</time></trkpt><trkpt lat="40.0020696" lon="16.1487793"><ele>815.0</ele><time>2026-05-02T13:41:27.695Z</time></trkpt><trkpt lat="40.002077" lon="16.1488736"><ele>815.0</ele><time>2026-05-02T13:41:28.691Z</time></trkpt><trkpt lat="40.002113" lon="16.1489634"><ele>815.0</ele><time>2026-05-02T13:41:29.691Z</time></trkpt><trkpt lat="40.002182" lon="16.1490206"><ele>815.0000000000001</ele><time>2026-05-02T13:41:30.688Z</time></trkpt><trkpt lat="40.002273" lon="16.1490226"><ele>815.0</ele><time>2026-05-02T13:41:31.705Z</time></trkpt><trkpt lat="40.0023548" lon="16.1489672"><ele>815.0</ele><time>2026-05-02T13:41:32.704Z</time></trkpt><trkpt lat="40.0024495" lon="16.148865"><ele>815.0</ele><time>2026-05-02T13:41:33.699Z</time></trkpt><trkpt lat="40.0025385" lon="16.1487449"><ele>815.0</ele><time>2026-05-02T13:41:34.687Z</time></trkpt><trkpt lat="40.0026304" lon="16.1486055"><ele>815.0</ele><time>2026-05-02T13:41:35.689Z</time></trkpt><trkpt lat="40.002726" lon="16.1484603"><ele>813.5</ele><time>2026-05-02T13:41:36.689Z</time></trkpt><trkpt lat="40.0028179" lon="16.1483152"><ele>812.0</ele><time>2026-05-02T13:41:37.689Z</time></trkpt><trkpt lat="40.0029159" lon="16.148169"><ele>810.5</ele><time>2026-05-02T13:41:38.687Z</time></trkpt><trkpt lat="40.0030174" lon="16.1480195"><ele>809.0</ele><time>2026-05-02T13:41:39.69Z</time></trkpt><trkpt lat="40.003112" lon="16.1478831"><ele>809.0</ele><time>2026-05-02T13:41:40.692Z</time></trkpt><trkpt lat="40.0031945" lon="16.1477756"><ele>809.0</ele><time>2026-05-02T13:41:41.691Z</time></trkpt><trkpt lat="40.0032826" lon="16.1477013"><ele>809.0</ele><time>2026-05-02T13:41:42.694Z</time></trkpt><trkpt lat="40.0033704" lon="16.1476749"><ele>809.0</ele><time>2026-05-02T13:41:43.686Z</time></trkpt><trkpt lat="40.0034489" lon="16.1476853"><ele>809.0</ele><time>2026-05-02T13:41:44.681Z</time></trkpt><trkpt lat="40.0035291" lon="16.1477624"><ele>805.0</ele><time>2026-05-02T13:41:45.699Z</time></trkpt><trkpt lat="40.0036064" lon="16.1478696"><ele>801.0</ele><time>2026-05-02T13:41:46.703Z</time></trkpt><trkpt lat="40.0036901" lon="16.148007"><ele>797.0</ele><time>2026-05-02T13:41:47.699Z</time></trkpt><trkpt lat="40.0037777" lon="16.1481454"><ele>793.0</ele><time>2026-05-02T13:41:48.693Z</time></trkpt><trkpt lat="40.0038517" lon="16.1482752"><ele>791.9999999999999</ele><time>2026-05-02T13:41:49.693Z</time></trkpt><trkpt lat="40.003917" lon="16.1483674"><ele>791.0</ele><time>2026-05-02T13:41:50.688Z</time></trkpt><trkpt lat="40.0039776" lon="16.1484166"><ele>790.0</ele><time>2026-05-02T13:41:51.691Z</time></trkpt><trkpt lat="40.0040445" lon="16.1484218"><ele>789.0</ele><time>2026-05-02T13:41:52.692Z</time></trkpt><trkpt lat="40.0041387" lon="16.1484036"><ele>787.9999999999999</ele><time>2026-05-02T13:41:53.705Z</time></trkpt><trkpt lat="40.0042538" lon="16.1483852"><ele>787.0</ele><time>2026-05-02T13:41:54.702Z</time></trkpt><trkpt lat="40.0043846" lon="16.1483652"><ele>787.0</ele><time>2026-05-02T13:41:55.692Z</time></trkpt><trkpt lat="40.0045164" lon="16.1483449"><ele>787.0</ele><time>2026-05-02T13:41:56.692Z</time></trkpt><trkpt lat="40.0046281" lon="16.148322"><ele>787.0</ele><time>2026-05-02T13:41:57.688Z</time></trkpt><trkpt lat="40.0047223" lon="16.1482964"><ele>787.0</ele><time>2026-05-02T13:41:58.692Z</time></trkpt><trkpt lat="40.0048178" lon="16.1482566"><ele>787.0</ele><time>2026-05-02T13:41:59.687Z</time></trkpt><trkpt lat="40.004911" lon="16.1481768"><ele>787.25</ele><time>2026-05-02T13:42:00.695Z</time></trkpt><trkpt lat="40.0049903" lon="16.1480469"><ele>787.5</ele><time>2026-05-02T13:42:01.691Z</time></trkpt><trkpt lat="40.0050646" lon="16.1478983"><ele>787.75</ele><time>2026-05-02T13:42:02.685Z</time></trkpt><trkpt lat="40.005139" lon="16.1477376"><ele>788.0</ele><time>2026-05-02T13:42:03.698Z</time></trkpt><trkpt lat="40.0052264" lon="16.1475954"><ele>788.0</ele><time>2026-05-02T13:42:04.691Z</time></trkpt><trkpt lat="40.0053211" lon="16.1474557"><ele>788.0</ele><time>2026-05-02T13:42:05.701Z</time></trkpt><trkpt lat="40.0054254" lon="16.1473275"><ele>788.0</ele><time>2026-05-02T13:42:06.691Z</time></trkpt><trkpt lat="40.0055426" lon="16.1471997"><ele>788.0</ele><time>2026-05-02T13:42:07.681Z</time></trkpt><trkpt lat="40.0056671" lon="16.1470755"><ele>790.6666666666667</ele><time>2026-05-02T13:42:08.692Z</time></trkpt><trkpt lat="40.0057952" lon="16.1469445"><ele>793.3333333333333</ele><time>2026-05-02T13:42:09.681Z</time></trkpt><trkpt lat="40.0059261" lon="16.1468099"><ele>796.0</ele><time>2026-05-02T13:42:10.695Z</time></trkpt><trkpt lat="40.0060667" lon="16.1466741"><ele>790.3333333333333</ele><time>2026-05-02T13:42:11.693Z</time></trkpt><trkpt lat="40.0062111" lon="16.146543"><ele>784.6666666666667</ele><time>2026-05-02T13:42:12.704Z</time></trkpt><trkpt lat="40.0063405" lon="16.1464213"><ele>779.0</ele><time>2026-05-02T13:42:13.686Z</time></trkpt><trkpt lat="40.006456" lon="16.146309"><ele>779.0</ele><time>2026-05-02T13:42:14.686Z</time></trkpt><trkpt lat="40.0065631" lon="16.1461965"><ele>779.0</ele><time>2026-05-02T13:42:15.687Z</time></trkpt><trkpt lat="40.0066536" lon="16.1460756"><ele>779.0</ele><time>2026-05-02T13:42:16.688Z</time></trkpt><trkpt lat="40.006734" lon="16.1459344"><ele>779.0</ele><time>2026-05-02T13:42:17.694Z</time></trkpt><trkpt lat="40.0067984" lon="16.1457695"><ele>780.25</ele><time>2026-05-02T13:42:18.694Z</time></trkpt><trkpt lat="40.0068491" lon="16.1455914"><ele>781.5</ele><time>2026-05-02T13:42:19.7Z</time></trkpt><trkpt lat="40.0068904" lon="16.1453956"><ele>782.75</ele><time>2026-05-02T13:42:20.687Z</time></trkpt><trkpt lat="40.006928" lon="16.1452171"><ele>784.0</ele><time>2026-05-02T13:42:21.689Z</time></trkpt><trkpt lat="40.0069426" lon="16.145042"><ele>782.75</ele><time>2026-05-02T13:42:22.69Z</time></trkpt><trkpt lat="40.0069354" lon="16.1448621"><ele>781.5</ele><time>2026-05-02T13:42:23.706Z</time></trkpt><trkpt lat="40.0069264" lon="16.1446879"><ele>780.25</ele><time>2026-05-02T13:42:24.702Z</time></trkpt><trkpt lat="40.0069277" lon="16.1445234"><ele>779.0</ele><time>2026-05-02T13:42:25.711Z</time></trkpt><trkpt lat="40.0069522" lon="16.1443771"><ele>779.0</ele><time>2026-05-02T13:42:26.698Z</time></trkpt><trkpt lat="40.0070078" lon="16.1442731"><ele>779.0</ele><time>2026-05-02T13:42:27.692Z</time></trkpt><trkpt lat="40.0070864" lon="16.1441921"><ele>779.0</ele><time>2026-05-02T13:42:28.694Z</time></trkpt><trkpt lat="40.0071892" lon="16.1441299"><ele>779.0</ele><time>2026-05-02T13:42:29.684Z</time></trkpt><trkpt lat="40.0072903" lon="16.1440924"><ele>779.0</ele><time>2026-05-02T13:42:30.707Z</time></trkpt><trkpt lat="40.0073913" lon="16.1440806"><ele>782.75</ele><time>2026-05-02T13:42:31.688Z</time></trkpt><trkpt lat="40.0074972" lon="16.1440887"><ele>786.5</ele><time>2026-05-02T13:42:32.685Z</time></trkpt><trkpt lat="40.0076117" lon="16.1441022"><ele>790.25</ele><time>2026-05-02T13:42:33.703Z</time></trkpt><trkpt lat="40.0077304" lon="16.1441196"><ele>794.0</ele><time>2026-05-02T13:42:34.698Z</time></trkpt><trkpt lat="40.0078475" lon="16.1441083"><ele>794.0</ele><time>2026-05-02T13:42:35.685Z</time></trkpt><trkpt lat="40.0079471" lon="16.144049"><ele>794.0</ele><time>2026-05-02T13:42:36.687Z</time></trkpt><trkpt lat="40.0080347" lon="16.1439567"><ele>794.0</ele><time>2026-05-02T13:42:37.691Z</time></trkpt><trkpt lat="40.008106" lon="16.1438264"><ele>794.0</ele><time>2026-05-02T13:42:38.701Z</time></trkpt><trkpt lat="40.0081698" lon="16.143696"><ele>792.5</ele><time>2026-05-02T13:42:39.688Z</time></trkpt><trkpt lat="40.0082326" lon="16.1435467"><ele>791.0</ele><time>2026-05-02T13:42:40.691Z</time></trkpt><trkpt lat="40.0082865" lon="16.1433852"><ele>789.5</ele><time>2026-05-02T13:42:41.689Z</time></trkpt><trkpt lat="40.0083458" lon="16.1432214"><ele>788.0</ele><time>2026-05-02T13:42:42.697Z</time></trkpt><trkpt lat="40.0083894" lon="16.1430832"><ele>788.0</ele><time>2026-05-02T13:42:43.694Z</time></trkpt><trkpt lat="40.0084176" lon="16.1429767"><ele>788.0</ele><time>2026-05-02T13:42:44.682Z</time></trkpt><trkpt lat="40.0084628" lon="16.1428568"><ele>788.0</ele><time>2026-05-02T13:42:46.692Z</time></trkpt><trkpt lat="40.0085472" lon="16.1428491"><ele>788.0</ele><time>2026-05-02T13:42:48.688Z</time></trkpt><trkpt lat="40.0085584" lon="16.1430054"><ele>788.0</ele><time>2026-05-02T13:42:50.68Z</time></trkpt><trkpt lat="40.0085156" lon="16.1431077"><ele>786.25</ele><time>2026-05-02T13:42:51.694Z</time></trkpt><trkpt lat="40.008463" lon="16.1432372"><ele>784.5</ele><time>2026-05-02T13:42:52.692Z</time></trkpt><trkpt lat="40.0083765" lon="16.1433702"><ele>782.75</ele><time>2026-05-02T13:42:53.71Z</time></trkpt><trkpt lat="40.0083137" lon="16.1435503"><ele>781.0</ele><time>2026-05-02T13:42:54.691Z</time></trkpt><trkpt lat="40.0082563" lon="16.1437232"><ele>781.0</ele><time>2026-05-02T13:42:55.695Z</time></trkpt><trkpt lat="40.0082057" lon="16.1438805"><ele>781.0</ele><time>2026-05-02T13:42:56.709Z</time></trkpt><trkpt lat="40.0081678" lon="16.144031"><ele>781.0</ele><time>2026-05-02T13:42:57.696Z</time></trkpt><trkpt lat="40.0081535" lon="16.1441752"><ele>781.0</ele><time>2026-05-02T13:42:58.692Z</time></trkpt><trkpt lat="40.0081374" lon="16.1442902"><ele>783.5999999999999</ele><time>2026-05-02T13:42:59.686Z</time></trkpt><trkpt lat="40.0081347" lon="16.1443737"><ele>786.2</ele><time>2026-05-02T13:43:00.693Z</time></trkpt><trkpt lat="40.0081999" lon="16.1444624"><ele>788.8</ele><time>2026-05-02T13:43:02.686Z</time></trkpt><trkpt lat="40.0083131" lon="16.1443914"><ele>791.4000000000001</ele><time>2026-05-02T13:43:04.685Z</time></trkpt><trkpt lat="40.0083278" lon="16.1442894"><ele>794.0</ele><time>2026-05-02T13:43:05.689Z</time></trkpt><trkpt lat="40.0083187" lon="16.1441754"><ele>794.0</ele><time>2026-05-02T13:43:06.682Z</time></trkpt><trkpt lat="40.0083139" lon="16.1440503"><ele>794.0</ele><time>2026-05-02T13:43:07.68Z</time></trkpt><trkpt lat="40.0083465" lon="16.143921"><ele>794.0</ele><time>2026-05-02T13:43:08.691Z</time></trkpt><trkpt lat="40.0084006" lon="16.1437979"><ele>794.0</ele><time>2026-05-02T13:43:09.703Z</time></trkpt><trkpt lat="40.0084558" lon="16.143665"><ele>794.0</ele><time>2026-05-02T13:43:10.69Z</time></trkpt><trkpt lat="40.0085182" lon="16.1435282"><ele>792.5</ele><time>2026-05-02T13:43:11.687Z</time></trkpt><trkpt lat="40.0085935" lon="16.1433916"><ele>791.0</ele><time>2026-05-02T13:43:12.683Z</time></trkpt><trkpt lat="40.0086806" lon="16.1432723"><ele>789.5</ele><time>2026-05-02T13:43:13.681Z</time></trkpt><trkpt lat="40.0087827" lon="16.1431686"><ele>788.0</ele><time>2026-05-02T13:43:14.681Z</time></trkpt><trkpt lat="40.0088966" lon="16.1430781"><ele>788.0</ele><time>2026-05-02T13:43:15.697Z</time></trkpt><trkpt lat="40.0090062" lon="16.1430081"><ele>788.0</ele><time>2026-05-02T13:43:16.694Z</time></trkpt><trkpt lat="40.009108" lon="16.1429703"><ele>788.0</ele><time>2026-05-02T13:43:17.683Z</time></trkpt><trkpt lat="40.0091963" lon="16.1429583"><ele>788.0</ele><time>2026-05-02T13:43:18.686Z</time></trkpt><trkpt lat="40.0092905" lon="16.1429946"><ele>788.0</ele><time>2026-05-02T13:43:19.685Z</time></trkpt><trkpt lat="40.0093894" lon="16.1430774"><ele>792.75</ele><time>2026-05-02T13:43:20.691Z</time></trkpt><trkpt lat="40.0094948" lon="16.1431801"><ele>797.5</ele><time>2026-05-02T13:43:21.694Z</time></trkpt><trkpt lat="40.0096005" lon="16.143266"><ele>802.25</ele><time>2026-05-02T13:43:22.702Z</time></trkpt><trkpt lat="40.0097187" lon="16.143318"><ele>807.0</ele><time>2026-05-02T13:43:23.689Z</time></trkpt><trkpt lat="40.0098411" lon="16.1433344"><ele>809.25</ele><time>2026-05-02T13:43:24.692Z</time></trkpt><trkpt lat="40.0099702" lon="16.143304"><ele>811.5</ele><time>2026-05-02T13:43:25.686Z</time></trkpt><trkpt lat="40.0100862" lon="16.143245"><ele>813.75</ele><time>2026-05-02T13:43:26.688Z</time></trkpt><trkpt lat="40.0101784" lon="16.1431546"><ele>816.0</ele><time>2026-05-02T13:43:27.688Z</time></trkpt><trkpt lat="40.0102557" lon="16.1430552"><ele>816.0</ele><time>2026-05-02T13:43:28.694Z</time></trkpt><trkpt lat="40.0103247" lon="16.1429574"><ele>816.0</ele><time>2026-05-02T13:43:29.689Z</time></trkpt><trkpt lat="40.0104198" lon="16.142907"><ele>816.0</ele><time>2026-05-02T13:43:30.705Z</time></trkpt><trkpt lat="40.0105343" lon="16.1428996"><ele>816.0</ele><time>2026-05-02T13:43:31.686Z</time></trkpt><trkpt lat="40.0106479" lon="16.1429067"><ele>816.0</ele><time>2026-05-02T13:43:32.686Z</time></trkpt><trkpt lat="40.010756" lon="16.1428767"><ele>816.5999999999999</ele><time>2026-05-02T13:43:33.691Z</time></trkpt><trkpt lat="40.0108366" lon="16.1427959"><ele>817.2</ele><time>2026-05-02T13:43:34.693Z</time></trkpt><trkpt lat="40.0108939" lon="16.1426744"><ele>817.8</ele><time>2026-05-02T13:43:35.709Z</time></trkpt><trkpt lat="40.0109216" lon="16.1425234"><ele>818.4000000000001</ele><time>2026-05-02T13:43:36.683Z</time></trkpt><trkpt lat="40.0109532" lon="16.1423731"><ele>819.0</ele><time>2026-05-02T13:43:37.689Z</time></trkpt><trkpt lat="40.0109915" lon="16.1422478"><ele>819.0</ele><time>2026-05-02T13:43:38.687Z</time></trkpt><trkpt lat="40.011048" lon="16.1421418"><ele>819.0</ele><time>2026-05-02T13:43:39.69Z</time></trkpt><trkpt lat="40.0111413" lon="16.1420783"><ele>819.0</ele><time>2026-05-02T13:43:40.685Z</time></trkpt><trkpt lat="40.0112485" lon="16.1420466"><ele>819.0</ele><time>2026-05-02T13:43:41.681Z</time></trkpt><trkpt lat="40.0113601" lon="16.1420119"><ele>819.0</ele><time>2026-05-02T13:43:42.688Z</time></trkpt><trkpt lat="40.0114644" lon="16.1419376"><ele>819.0</ele><time>2026-05-02T13:43:43.7Z</time></trkpt><trkpt lat="40.0115433" lon="16.1418488"><ele>819.0</ele><time>2026-05-02T13:43:44.69Z</time></trkpt><trkpt lat="40.0115796" lon="16.1417251"><ele>819.0</ele><time>2026-05-02T13:43:45.697Z</time></trkpt><trkpt lat="40.0115776" lon="16.1415769"><ele>819.0</ele><time>2026-05-02T13:43:46.693Z</time></trkpt><trkpt lat="40.0115676" lon="16.1414214"><ele>819.0</ele><time>2026-05-02T13:43:47.687Z</time></trkpt><trkpt lat="40.0115909" lon="16.1413045"><ele>821.8000000000001</ele><time>2026-05-02T13:43:48.7Z</time></trkpt><trkpt lat="40.0116641" lon="16.1412331"><ele>824.6</ele><time>2026-05-02T13:43:49.691Z</time></trkpt><trkpt lat="40.0117596" lon="16.1411721"><ele>827.4</ele><time>2026-05-02T13:43:50.685Z</time></trkpt><trkpt lat="40.0118627" lon="16.1411126"><ele>830.2</ele><time>2026-05-02T13:43:51.706Z</time></trkpt><trkpt lat="40.0119653" lon="16.1410495"><ele>833.0</ele><time>2026-05-02T13:43:52.689Z</time></trkpt><trkpt lat="40.0120684" lon="16.1409686"><ele>833.0</ele><time>2026-05-02T13:43:53.689Z</time></trkpt><trkpt lat="40.0121699" lon="16.1408828"><ele>833.0</ele><time>2026-05-02T13:43:54.698Z</time></trkpt><trkpt lat="40.0122654" lon="16.1407977"><ele>833.0</ele><time>2026-05-02T13:43:55.683Z</time></trkpt><trkpt lat="40.0123468" lon="16.1407144"><ele>833.0</ele><time>2026-05-02T13:43:56.681Z</time></trkpt><trkpt lat="40.0124154" lon="16.1406159"><ele>833.0</ele><time>2026-05-02T13:43:57.687Z</time></trkpt><trkpt lat="40.0124791" lon="16.1405051"><ele>836.25</ele><time>2026-05-02T13:43:58.692Z</time></trkpt><trkpt lat="40.0125389" lon="16.140388"><ele>839.5</ele><time>2026-05-02T13:43:59.689Z</time></trkpt><trkpt lat="40.0125934" lon="16.1402639"><ele>842.75</ele><time>2026-05-02T13:44:00.698Z</time></trkpt><trkpt lat="40.0126289" lon="16.1401279"><ele>846.0</ele><time>2026-05-02T13:44:01.684Z</time></trkpt><trkpt lat="40.0126246" lon="16.1399682"><ele>845.1666666666666</ele><time>2026-05-02T13:44:02.686Z</time></trkpt><trkpt lat="40.0126035" lon="16.1398193"><ele>844.3333333333333</ele><time>2026-05-02T13:44:03.677Z</time></trkpt><trkpt lat="40.012597" lon="16.1397081"><ele>843.5</ele><time>2026-05-02T13:44:04.692Z</time></trkpt><trkpt lat="40.0126289" lon="16.1396277"><ele>842.6666666666666</ele><time>2026-05-02T13:44:05.69Z</time></trkpt><trkpt lat="40.0126858" lon="16.1395669"><ele>841.8333333333333</ele><time>2026-05-02T13:44:06.688Z</time></trkpt><trkpt lat="40.0127681" lon="16.1395122"><ele>841.0</ele><time>2026-05-02T13:44:07.696Z</time></trkpt><trkpt lat="40.0128653" lon="16.139462"><ele>841.0</ele><time>2026-05-02T13:44:08.693Z</time></trkpt><trkpt lat="40.0129807" lon="16.1394234"><ele>841.0</ele><time>2026-05-02T13:44:09.688Z</time></trkpt><trkpt lat="40.013104" lon="16.1394059"><ele>841.0</ele><time>2026-05-02T13:44:10.703Z</time></trkpt><trkpt lat="40.0132372" lon="16.1394083"><ele>841.0</ele><time>2026-05-02T13:44:11.701Z</time></trkpt><trkpt lat="40.013374" lon="16.1394308"><ele>842.75</ele><time>2026-05-02T13:44:12.703Z</time></trkpt><trkpt lat="40.0135159" lon="16.1394579"><ele>844.5</ele><time>2026-05-02T13:44:13.692Z</time></trkpt><trkpt lat="40.013651" lon="16.1395071"><ele>846.25</ele><time>2026-05-02T13:44:14.686Z</time></trkpt><trkpt lat="40.0137717" lon="16.1395483"><ele>848.0</ele><time>2026-05-02T13:44:15.68Z</time></trkpt><trkpt lat="40.0138885" lon="16.1395679"><ele>848.0</ele><time>2026-05-02T13:44:16.693Z</time></trkpt><trkpt lat="40.0140031" lon="16.1395658"><ele>848.0</ele><time>2026-05-02T13:44:17.7Z</time></trkpt><trkpt lat="40.014121" lon="16.1395216"><ele>848.0</ele><time>2026-05-02T13:44:18.679Z</time></trkpt><trkpt lat="40.0142364" lon="16.1394429"><ele>848.0</ele><time>2026-05-02T13:44:19.691Z</time></trkpt><trkpt lat="40.014345" lon="16.1393559"><ele>848.8</ele><time>2026-05-02T13:44:20.691Z</time></trkpt><trkpt lat="40.0144437" lon="16.1392811"><ele>849.5999999999999</ele><time>2026-05-02T13:44:21.688Z</time></trkpt><trkpt lat="40.0145338" lon="16.1392186"><ele>850.4000000000001</ele><time>2026-05-02T13:44:22.689Z</time></trkpt><trkpt lat="40.014631" lon="16.1392035"><ele>851.2</ele><time>2026-05-02T13:44:23.688Z</time></trkpt><trkpt lat="40.01473" lon="16.1392219"><ele>852.0</ele><time>2026-05-02T13:44:24.694Z</time></trkpt><trkpt lat="40.0148247" lon="16.1392717"><ele>852.0</ele><time>2026-05-02T13:44:25.685Z</time></trkpt><trkpt lat="40.01492" lon="16.1393577"><ele>852.0</ele><time>2026-05-02T13:44:26.685Z</time></trkpt><trkpt lat="40.0150169" lon="16.1394448"><ele>852.0</ele><time>2026-05-02T13:44:27.682Z</time></trkpt><trkpt lat="40.0151094" lon="16.139549"><ele>852.0</ele><time>2026-05-02T13:44:28.689Z</time></trkpt><trkpt lat="40.0151997" lon="16.1396588"><ele>852.2</ele><time>2026-05-02T13:44:29.697Z</time></trkpt><trkpt lat="40.0152782" lon="16.1397547"><ele>852.4000000000001</ele><time>2026-05-02T13:44:30.681Z</time></trkpt><trkpt lat="40.0153338" lon="16.1398479"><ele>852.5999999999999</ele><time>2026-05-02T13:44:31.695Z</time></trkpt><trkpt lat="40.0154004" lon="16.139951"><ele>852.8</ele><time>2026-05-02T13:44:33.697Z</time></trkpt><trkpt lat="40.0154579" lon="16.1400435"><ele>853.0</ele><time>2026-05-02T13:44:36.681Z</time></trkpt><trkpt lat="40.0154989" lon="16.1401385"><ele>856.4</ele><time>2026-05-02T13:44:38.68Z</time></trkpt><trkpt lat="40.015563" lon="16.1402544"><ele>859.8</ele><time>2026-05-02T13:44:40.694Z</time></trkpt><trkpt lat="40.0156303" lon="16.1403875"><ele>863.2</ele><time>2026-05-02T13:44:42.707Z</time></trkpt><trkpt lat="40.0156736" lon="16.1404921"><ele>866.6</ele><time>2026-05-02T13:44:44.693Z</time></trkpt><trkpt lat="40.015655" lon="16.1404045"><ele>870.0</ele><time>2026-05-02T13:45:12.691Z</time></trkpt><trkpt lat="40.0155582" lon="16.1403042"><ele>870.0</ele><time>2026-05-02T13:45:14.691Z</time></trkpt><trkpt lat="40.0155115" lon="16.1402475"><ele>870.0</ele><time>2026-05-02T13:45:15.696Z</time></trkpt><trkpt lat="40.0154791" lon="16.1401363"><ele>870.0</ele><time>2026-05-02T13:45:17.699Z</time></trkpt><trkpt lat="40.0154834" lon="16.1400281"><ele>870.0</ele><time>2026-05-02T13:45:19.697Z</time></trkpt><trkpt lat="40.0155578" lon="16.1399291"><ele>870.0</ele><time>2026-05-02T13:45:21.699Z</time></trkpt><trkpt lat="40.0156394" lon="16.1399037"><ele>870.0</ele><time>2026-05-02T13:45:22.694Z</time></trkpt><trkpt lat="40.0157282" lon="16.1398754"><ele>864.75</ele><time>2026-05-02T13:45:23.69Z</time></trkpt><trkpt lat="40.0158319" lon="16.1398663"><ele>859.5</ele><time>2026-05-02T13:45:24.699Z</time></trkpt><trkpt lat="40.0159467" lon="16.1398518"><ele>854.25</ele><time>2026-05-02T13:45:25.692Z</time></trkpt><trkpt lat="40.0160651" lon="16.1398252"><ele>849.0</ele><time>2026-05-02T13:45:26.698Z</time></trkpt><trkpt lat="40.0161794" lon="16.1397949"><ele>849.0</ele><time>2026-05-02T13:45:27.69Z</time></trkpt><trkpt lat="40.0162731" lon="16.1397708"><ele>849.0</ele><time>2026-05-02T13:45:28.698Z</time></trkpt><trkpt lat="40.0163495" lon="16.1397419"><ele>849.0</ele><time>2026-05-02T13:45:29.693Z</time></trkpt><trkpt lat="40.016416" lon="16.139711"><ele>849.0</ele><time>2026-05-02T13:45:30.701Z</time></trkpt><trkpt lat="40.0165093" lon="16.1396417"><ele>849.0</ele><time>2026-05-02T13:45:32.689Z</time></trkpt><trkpt lat="40.0165803" lon="16.1395795"><ele>849.0</ele><time>2026-05-02T13:45:34.692Z</time></trkpt><trkpt lat="40.0166883" lon="16.139464"><ele>848.2</ele><time>2026-05-02T13:45:36.688Z</time></trkpt><trkpt lat="40.0167556" lon="16.1393847"><ele>847.4000000000001</ele><time>2026-05-02T13:45:37.687Z</time></trkpt><trkpt lat="40.0168278" lon="16.1392989"><ele>846.6</ele><time>2026-05-02T13:45:38.695Z</time></trkpt><trkpt lat="40.0169064" lon="16.1392056"><ele>845.8</ele><time>2026-05-02T13:45:39.692Z</time></trkpt><trkpt lat="40.016992" lon="16.139114"><ele>845.0</ele><time>2026-05-02T13:45:40.704Z</time></trkpt><trkpt lat="40.017077" lon="16.1390166"><ele>845.0</ele><time>2026-05-02T13:45:41.692Z</time></trkpt><trkpt lat="40.0171564" lon="16.1389108"><ele>845.0</ele><time>2026-05-02T13:45:42.695Z</time></trkpt><trkpt lat="40.0172465" lon="16.1387995"><ele>845.0</ele><time>2026-05-02T13:45:43.693Z</time></trkpt><trkpt lat="40.0173444" lon="16.1386812"><ele>845.0</ele><time>2026-05-02T13:45:44.689Z</time></trkpt><trkpt lat="40.0174425" lon="16.1385623"><ele>844.0</ele><time>2026-05-02T13:45:45.684Z</time></trkpt><trkpt lat="40.0175385" lon="16.1384439"><ele>843.0</ele><time>2026-05-02T13:45:46.68Z</time></trkpt><trkpt lat="40.0176334" lon="16.1383272"><ele>842.0</ele><time>2026-05-02T13:45:47.69Z</time></trkpt><trkpt lat="40.0177266" lon="16.1382032"><ele>841.0</ele><time>2026-05-02T13:45:48.7Z</time></trkpt><trkpt lat="40.0178254" lon="16.138083"><ele>841.0</ele><time>2026-05-02T13:45:49.685Z</time></trkpt><trkpt lat="40.0179229" lon="16.1379605"><ele>841.0</ele><time>2026-05-02T13:45:50.69Z</time></trkpt><trkpt lat="40.0180143" lon="16.1378412"><ele>841.0</ele><time>2026-05-02T13:45:51.697Z</time></trkpt><trkpt lat="40.0181054" lon="16.1377256"><ele>841.0</ele><time>2026-05-02T13:45:52.692Z</time></trkpt><trkpt lat="40.0181907" lon="16.1376247"><ele>841.0</ele><time>2026-05-02T13:45:53.702Z</time></trkpt><trkpt lat="40.0182695" lon="16.1375289"><ele>841.0</ele><time>2026-05-02T13:45:54.687Z</time></trkpt><trkpt lat="40.0183537" lon="16.1374426"><ele>841.0</ele><time>2026-05-02T13:45:55.688Z</time></trkpt><trkpt lat="40.018445" lon="16.137371"><ele>841.0</ele><time>2026-05-02T13:45:56.684Z</time></trkpt><trkpt lat="40.0185498" lon="16.1373105"><ele>841.0</ele><time>2026-05-02T13:45:57.691Z</time></trkpt><trkpt lat="40.0186655" lon="16.1372419"><ele>839.5</ele><time>2026-05-02T13:45:58.69Z</time></trkpt><trkpt lat="40.0187798" lon="16.137159"><ele>838.0</ele><time>2026-05-02T13:45:59.699Z</time></trkpt><trkpt lat="40.0188943" lon="16.1370552"><ele>836.5</ele><time>2026-05-02T13:46:00.685Z</time></trkpt><trkpt lat="40.019007" lon="16.1369519"><ele>835.0</ele><time>2026-05-02T13:46:01.687Z</time></trkpt><trkpt lat="40.0191208" lon="16.1368372"><ele>836.5</ele><time>2026-05-02T13:46:02.686Z</time></trkpt><trkpt lat="40.0192356" lon="16.1367247"><ele>838.0</ele><time>2026-05-02T13:46:03.676Z</time></trkpt><trkpt lat="40.0193354" lon="16.1366267"><ele>839.5</ele><time>2026-05-02T13:46:04.684Z</time></trkpt><trkpt lat="40.0194236" lon="16.1365449"><ele>841.0</ele><time>2026-05-02T13:46:05.681Z</time></trkpt><trkpt lat="40.0195145" lon="16.1364817"><ele>841.0</ele><time>2026-05-02T13:46:06.683Z</time></trkpt><trkpt lat="40.0196137" lon="16.1364258"><ele>841.0</ele><time>2026-05-02T13:46:07.697Z</time></trkpt><trkpt lat="40.0197247" lon="16.1363798"><ele>841.0</ele><time>2026-05-02T13:46:08.69Z</time></trkpt><trkpt lat="40.0198445" lon="16.1363501"><ele>841.0</ele><time>2026-05-02T13:46:09.69Z</time></trkpt><trkpt lat="40.019973" lon="16.1363216"><ele>843.1999999999999</ele><time>2026-05-02T13:46:10.678Z</time></trkpt><trkpt lat="40.0200922" lon="16.1362958"><ele>845.4</ele><time>2026-05-02T13:46:11.691Z</time></trkpt><trkpt lat="40.0201927" lon="16.1362635"><ele>847.6</ele><time>2026-05-02T13:46:12.687Z</time></trkpt><trkpt lat="40.0202938" lon="16.1362465"><ele>849.8</ele><time>2026-05-02T13:46:13.695Z</time></trkpt><trkpt lat="40.0204096" lon="16.1362424"><ele>852.0</ele><time>2026-05-02T13:46:14.679Z</time></trkpt><trkpt lat="40.0205227" lon="16.1362006"><ele>852.0</ele><time>2026-05-02T13:46:15.689Z</time></trkpt><trkpt lat="40.0206209" lon="16.1361334"><ele>852.0</ele><time>2026-05-02T13:46:16.675Z</time></trkpt><trkpt lat="40.0207041" lon="16.1360549"><ele>852.0</ele><time>2026-05-02T13:46:17.681Z</time></trkpt><trkpt lat="40.0207782" lon="16.1359627"><ele>852.0</ele><time>2026-05-02T13:46:18.68Z</time></trkpt><trkpt lat="40.0208263" lon="16.1358958"><ele>852.0</ele><time>2026-05-02T13:46:19.693Z</time></trkpt><trkpt lat="40.0208585" lon="16.1358207"><ele>851.1666666666666</ele><time>2026-05-02T13:46:44.686Z</time></trkpt><trkpt lat="40.0209217" lon="16.1357755"><ele>850.3333333333333</ele><time>2026-05-02T13:47:59.685Z</time></trkpt><trkpt lat="40.0209764" lon="16.1357177"><ele>849.5</ele><time>2026-05-02T13:48:01.681Z</time></trkpt><trkpt lat="40.0210536" lon="16.1356115"><ele>848.6666666666666</ele><time>2026-05-02T13:48:03.681Z</time></trkpt><trkpt lat="40.0210991" lon="16.1355528"><ele>847.8333333333333</ele><time>2026-05-02T13:48:04.687Z</time></trkpt><trkpt lat="40.0211503" lon="16.1354961"><ele>847.0</ele><time>2026-05-02T13:48:05.685Z</time></trkpt><trkpt lat="40.0212145" lon="16.1354441"><ele>846.9999999999999</ele><time>2026-05-02T13:48:06.698Z</time></trkpt><trkpt lat="40.0212802" lon="16.1353995"><ele>847.0</ele><time>2026-05-02T13:48:07.686Z</time></trkpt><trkpt lat="40.0213445" lon="16.135365"><ele>847.0</ele><time>2026-05-02T13:48:08.69Z</time></trkpt><trkpt lat="40.0214096" lon="16.1353478"><ele>847.0</ele><time>2026-05-02T13:48:09.696Z</time></trkpt><trkpt lat="40.0215032" lon="16.1353737"><ele>846.9999999999999</ele><time>2026-05-02T13:48:11.686Z</time></trkpt><trkpt lat="40.0215781" lon="16.1354186"><ele>847.0</ele><time>2026-05-02T13:48:14.689Z</time></trkpt><trkpt lat="40.0216587" lon="16.1354625"><ele>849.8</ele><time>2026-05-02T13:48:16.69Z</time></trkpt><trkpt lat="40.0217535" lon="16.1355234"><ele>852.6</ele><time>2026-05-02T13:48:18.699Z</time></trkpt><trkpt lat="40.0218279" lon="16.1356139"><ele>855.3999999999999</ele><time>2026-05-02T13:48:20.694Z</time></trkpt><trkpt lat="40.0218807" lon="16.1357168"><ele>858.1999999999999</ele><time>2026-05-02T13:48:22.688Z</time></trkpt><trkpt lat="40.0219486" lon="16.1358269"><ele>861.0</ele><time>2026-05-02T13:48:24.687Z</time></trkpt><trkpt lat="40.0220272" lon="16.1359334"><ele>863.3333333333334</ele><time>2026-05-02T13:48:26.693Z</time></trkpt><trkpt lat="40.022106" lon="16.1360445"><ele>865.6666666666667</ele><time>2026-05-02T13:48:28.692Z</time></trkpt><trkpt lat="40.0221613" lon="16.1361259"><ele>868.0</ele><time>2026-05-02T13:48:30.694Z</time></trkpt><trkpt lat="40.0221853" lon="16.1362035"><ele>870.3333333333334</ele><time>2026-05-02T13:48:32.684Z</time></trkpt><trkpt lat="40.0222054" lon="16.1362922"><ele>872.6666666666667</ele><time>2026-05-02T13:48:34.695Z</time></trkpt><trkpt lat="40.0222275" lon="16.1363869"><ele>875.0</ele><time>2026-05-02T13:48:36.681Z</time></trkpt><trkpt lat="40.0222415" lon="16.1364906"><ele>876.1666666666667</ele><time>2026-05-02T13:48:38.687Z</time></trkpt><trkpt lat="40.0222488" lon="16.1366086"><ele>877.3333333333334</ele><time>2026-05-02T13:48:40.684Z</time></trkpt><trkpt lat="40.022215" lon="16.1367351"><ele>878.5</ele><time>2026-05-02T13:48:42.694Z</time></trkpt><trkpt lat="40.0221846" lon="16.1368127"><ele>879.6666666666667</ele><time>2026-05-02T13:48:44.69Z</time></trkpt><trkpt lat="40.0221188" lon="16.1369056"><ele>880.8333333333334</ele><time>2026-05-02T13:48:54.696Z</time></trkpt><trkpt lat="40.0220471" lon="16.1369509"><ele>882.0</ele><time>2026-05-02T13:48:56.694Z</time></trkpt><trkpt lat="40.0219572" lon="16.1369475"><ele>882.0</ele><time>2026-05-02T13:48:58.685Z</time></trkpt><trkpt lat="40.0218786" lon="16.1368985"><ele>882.0</ele><time>2026-05-02T13:49:00.687Z</time></trkpt><trkpt lat="40.021789" lon="16.1368795"><ele>882.0</ele><time>2026-05-02T13:49:02.686Z</time></trkpt><trkpt lat="40.0217215" lon="16.1368825"><ele>882.0</ele><time>2026-05-02T13:49:04.681Z</time></trkpt><trkpt lat="40.02166" lon="16.1369418"><ele>882.0</ele><time>2026-05-02T13:50:10.698Z</time></trkpt><trkpt lat="40.0216249" lon="16.1370117"><ele>882.0</ele><time>2026-05-02T13:50:12.686Z</time></trkpt><trkpt lat="40.0215639" lon="16.1370998"><ele>883.0</ele><time>2026-05-02T13:50:14.682Z</time></trkpt><trkpt lat="40.0214964" lon="16.1372145"><ele>884.0</ele><time>2026-05-02T13:50:16.687Z</time></trkpt><trkpt lat="40.0214201" lon="16.1373374"><ele>885.0</ele><time>2026-05-02T13:50:18.691Z</time></trkpt><trkpt lat="40.0213457" lon="16.1374602"><ele>886.0</ele><time>2026-05-02T13:50:20.709Z</time></trkpt><trkpt lat="40.0212996" lon="16.1375202"><ele>887.0</ele><time>2026-05-02T13:50:21.693Z</time></trkpt><trkpt lat="40.0211887" lon="16.137604"><ele>887.0000000000001</ele><time>2026-05-02T13:50:23.685Z</time></trkpt><trkpt lat="40.0211196" lon="16.1376426"><ele>887.0</ele><time>2026-05-02T13:50:24.692Z</time></trkpt><trkpt lat="40.02106" lon="16.1376814"><ele>887.0</ele><time>2026-05-02T13:50:25.682Z</time></trkpt><trkpt lat="40.020943" lon="16.137737"><ele>887.0</ele><time>2026-05-02T13:50:27.687Z</time></trkpt><trkpt lat="40.0208273" lon="16.1377579"><ele>887.0000000000001</ele><time>2026-05-02T13:50:29.679Z</time></trkpt><trkpt lat="40.020763" lon="16.1377573"><ele>887.0</ele><time>2026-05-02T13:50:30.679Z</time></trkpt><trkpt lat="40.0206953" lon="16.1377581"><ele>887.2857142857142</ele><time>2026-05-02T13:50:31.687Z</time></trkpt><trkpt lat="40.0206325" lon="16.1377724"><ele>887.5714285714286</ele><time>2026-05-02T13:50:32.684Z</time></trkpt><trkpt lat="40.0205661" lon="16.1377879"><ele>887.8571428571429</ele><time>2026-05-02T13:50:33.683Z</time></trkpt><trkpt lat="40.0204952" lon="16.1378105"><ele>888.1428571428571</ele><time>2026-05-02T13:50:34.7Z</time></trkpt><trkpt lat="40.0204235" lon="16.1378379"><ele>888.4285714285714</ele><time>2026-05-02T13:50:35.682Z</time></trkpt><trkpt lat="40.0203557" lon="16.1378764"><ele>888.7142857142857</ele><time>2026-05-02T13:50:36.686Z</time></trkpt><trkpt lat="40.0202919" lon="16.1379156"><ele>889.0</ele><time>2026-05-02T13:50:37.684Z</time></trkpt><trkpt lat="40.0202243" lon="16.1379521"><ele>888.9999999999999</ele><time>2026-05-02T13:50:38.694Z</time></trkpt><trkpt lat="40.02016" lon="16.1379969"><ele>889.0</ele><time>2026-05-02T13:50:39.682Z</time></trkpt><trkpt lat="40.0200933" lon="16.1380378"><ele>889.0</ele><time>2026-05-02T13:50:40.695Z</time></trkpt><trkpt lat="40.0200297" lon="16.1380776"><ele>889.0</ele><time>2026-05-02T13:50:41.683Z</time></trkpt><trkpt lat="40.019962" lon="16.1381178"><ele>888.9999999999999</ele><time>2026-05-02T13:50:42.686Z</time></trkpt><trkpt lat="40.0198888" lon="16.1381522"><ele>889.0</ele><time>2026-05-02T13:50:43.688Z</time></trkpt><trkpt lat="40.0198108" lon="16.1381799"><ele>888.8333333333333</ele><time>2026-05-02T13:50:44.696Z</time></trkpt><trkpt lat="40.01973" lon="16.1382009"><ele>888.6666666666666</ele><time>2026-05-02T13:50:45.692Z</time></trkpt><trkpt lat="40.0196546" lon="16.1382212"><ele>888.5</ele><time>2026-05-02T13:50:46.689Z</time></trkpt><trkpt lat="40.0195849" lon="16.1382384"><ele>888.3333333333333</ele><time>2026-05-02T13:50:47.694Z</time></trkpt><trkpt lat="40.019521" lon="16.1382531"><ele>888.1666666666666</ele><time>2026-05-02T13:50:48.695Z</time></trkpt><trkpt lat="40.0194151" lon="16.1382912"><ele>888.0</ele><time>2026-05-02T13:50:50.688Z</time></trkpt><trkpt lat="40.0193291" lon="16.1383251"><ele>888.0</ele><time>2026-05-02T13:50:52.695Z</time></trkpt><trkpt lat="40.0192721" lon="16.13836"><ele>888.0</ele><time>2026-05-02T13:50:54.7Z</time></trkpt><trkpt lat="40.0192228" lon="16.1384244"><ele>888.0</ele><time>2026-05-02T13:50:57.694Z</time></trkpt><trkpt lat="40.0191907" lon="16.1385103"><ele>888.0</ele><time>2026-05-02T13:51:02.685Z</time></trkpt><trkpt lat="40.0191189" lon="16.1386266"><ele>888.0</ele><time>2026-05-02T13:51:04.684Z</time></trkpt><trkpt lat="40.0190686" lon="16.1387043"><ele>888.0</ele><time>2026-05-02T13:51:05.693Z</time></trkpt><trkpt lat="40.0190204" lon="16.1387879"><ele>886.8</ele><time>2026-05-02T13:51:06.684Z</time></trkpt><trkpt lat="40.0189896" lon="16.1388824"><ele>885.5999999999999</ele><time>2026-05-02T13:51:07.68Z</time></trkpt><trkpt lat="40.0189647" lon="16.1389744"><ele>884.4000000000001</ele><time>2026-05-02T13:51:08.692Z</time></trkpt><trkpt lat="40.0189304" lon="16.1390515"><ele>883.2</ele><time>2026-05-02T13:51:09.687Z</time></trkpt><trkpt lat="40.0188332" lon="16.1391681"><ele>882.0</ele><time>2026-05-02T13:51:11.689Z</time></trkpt><trkpt lat="40.0187585" lon="16.1392626"><ele>882.0</ele><time>2026-05-02T13:51:13.693Z</time></trkpt><trkpt lat="40.0187984" lon="16.1393601"><ele>882.0</ele><time>2026-05-02T13:51:15.687Z</time></trkpt><trkpt lat="40.0189071" lon="16.1393591"><ele>882.0</ele><time>2026-05-02T13:51:17.691Z</time></trkpt><trkpt lat="40.0189711" lon="16.1393308"><ele>882.0</ele><time>2026-05-02T13:51:18.69Z</time></trkpt><trkpt lat="40.0190389" lon="16.1392945"><ele>882.0</ele><time>2026-05-02T13:51:19.684Z</time></trkpt><trkpt lat="40.0191161" lon="16.1392597"><ele>882.0</ele><time>2026-05-02T13:51:20.691Z</time></trkpt><trkpt lat="40.0191972" lon="16.1392161"><ele>883.2</ele><time>2026-05-02T13:51:21.689Z</time></trkpt><trkpt lat="40.0192851" lon="16.1391707"><ele>884.4000000000001</ele><time>2026-05-02T13:51:22.69Z</time></trkpt><trkpt lat="40.019378" lon="16.1391296"><ele>885.5999999999999</ele><time>2026-05-02T13:51:23.695Z</time></trkpt><trkpt lat="40.0194758" lon="16.1390899"><ele>886.8</ele><time>2026-05-02T13:51:24.694Z</time></trkpt><trkpt lat="40.0195829" lon="16.1390611"><ele>888.0</ele><time>2026-05-02T13:51:25.691Z</time></trkpt><trkpt lat="40.0196864" lon="16.1390389"><ele>888.0</ele><time>2026-05-02T13:51:26.686Z</time></trkpt><trkpt lat="40.019786" lon="16.1390285"><ele>888.0</ele><time>2026-05-02T13:51:27.708Z</time></trkpt><trkpt lat="40.0198887" lon="16.1390185"><ele>888.0</ele><time>2026-05-02T13:51:28.689Z</time></trkpt><trkpt lat="40.0199928" lon="16.1390023"><ele>888.0</ele><time>2026-05-02T13:51:29.691Z</time></trkpt><trkpt lat="40.0201018" lon="16.1389995"><ele>888.0</ele><time>2026-05-02T13:51:30.687Z</time></trkpt><trkpt lat="40.0202132" lon="16.1389839"><ele>889.8</ele><time>2026-05-02T13:51:31.692Z</time></trkpt><trkpt lat="40.0203191" lon="16.1389604"><ele>891.5999999999999</ele><time>2026-05-02T13:51:32.693Z</time></trkpt><trkpt lat="40.0204254" lon="16.1389256"><ele>893.4000000000001</ele><time>2026-05-02T13:51:33.686Z</time></trkpt><trkpt lat="40.0205296" lon="16.138876"><ele>895.2</ele><time>2026-05-02T13:51:34.684Z</time></trkpt><trkpt lat="40.0206187" lon="16.1388276"><ele>897.0</ele><time>2026-05-02T13:51:35.69Z</time></trkpt><trkpt lat="40.0206851" lon="16.1387914"><ele>897.0</ele><time>2026-05-02T13:51:36.69Z</time></trkpt><trkpt lat="40.0207909" lon="16.1387654"><ele>897.0</ele><time>2026-05-02T13:51:38.68Z</time></trkpt><trkpt lat="40.0208619" lon="16.1388407"><ele>897.0</ele><time>2026-05-02T13:51:40.68Z</time></trkpt><trkpt lat="40.0208678" lon="16.138953"><ele>897.0</ele><time>2026-05-02T13:51:42.684Z</time></trkpt><trkpt lat="40.020823" lon="16.1390398"><ele>897.0</ele><time>2026-05-02T13:51:44.688Z</time></trkpt><trkpt lat="40.0207365" lon="16.1391029"><ele>898.6666666666666</ele><time>2026-05-02T13:51:46.678Z</time></trkpt><trkpt lat="40.020673" lon="16.1391391"><ele>900.3333333333333</ele><time>2026-05-02T13:51:47.683Z</time></trkpt><trkpt lat="40.0206085" lon="16.1391847"><ele>902.0</ele><time>2026-05-02T13:51:48.694Z</time></trkpt><trkpt lat="40.0205369" lon="16.1392319"><ele>903.6666666666666</ele><time>2026-05-02T13:51:49.674Z</time></trkpt><trkpt lat="40.0204635" lon="16.1392911"><ele>905.3333333333333</ele><time>2026-05-02T13:51:50.682Z</time></trkpt><trkpt lat="40.0203962" lon="16.1393629"><ele>907.0</ele><time>2026-05-02T13:51:51.685Z</time></trkpt><trkpt lat="40.0203472" lon="16.1394221"><ele>906.9999999999999</ele><time>2026-05-02T13:51:52.691Z</time></trkpt><trkpt lat="40.0202926" lon="16.139476"><ele>907.0</ele><time>2026-05-02T13:52:39.714Z</time></trkpt><trkpt lat="40.020241" lon="16.1395763"><ele>907.0</ele><time>2026-05-02T13:52:42.715Z</time></trkpt><trkpt lat="40.0201448" lon="16.1396716"><ele>907.0</ele><time>2026-05-02T13:52:44.707Z</time></trkpt><trkpt lat="40.0200911" lon="16.1397393"><ele>906.9999999999999</ele><time>2026-05-02T13:52:45.701Z</time></trkpt><trkpt lat="40.0200352" lon="16.1398258"><ele>907.0</ele><time>2026-05-02T13:52:46.7Z</time></trkpt><trkpt lat="40.0199716" lon="16.1399228"><ele>908.25</ele><time>2026-05-02T13:52:47.714Z</time></trkpt><trkpt lat="40.0198988" lon="16.1400208"><ele>909.5</ele><time>2026-05-02T13:52:48.719Z</time></trkpt><trkpt lat="40.0198232" lon="16.1401269"><ele>910.75</ele><time>2026-05-02T13:52:49.723Z</time></trkpt><trkpt lat="40.019745" lon="16.1402409"><ele>912.0</ele><time>2026-05-02T13:52:50.715Z</time></trkpt><trkpt lat="40.0196636" lon="16.1403584"><ele>912.0</ele><time>2026-05-02T13:52:51.701Z</time></trkpt><trkpt lat="40.0195813" lon="16.1404812"><ele>912.0</ele><time>2026-05-02T13:52:52.701Z</time></trkpt><trkpt lat="40.0194967" lon="16.1406054"><ele>912.0</ele><time>2026-05-02T13:52:53.719Z</time></trkpt><trkpt lat="40.0194192" lon="16.1407361"><ele>912.0</ele><time>2026-05-02T13:52:54.717Z</time></trkpt><trkpt lat="40.0193616" lon="16.1408801"><ele>914.75</ele><time>2026-05-02T13:52:55.691Z</time></trkpt><trkpt lat="40.0193187" lon="16.141046"><ele>917.5</ele><time>2026-05-02T13:52:56.698Z</time></trkpt><trkpt lat="40.019279" lon="16.1412177"><ele>920.25</ele><time>2026-05-02T13:52:57.707Z</time></trkpt><trkpt lat="40.0192135" lon="16.1413854"><ele>923.0</ele><time>2026-05-02T13:52:58.706Z</time></trkpt><trkpt lat="40.0191236" lon="16.1415521"><ele>925.3333333333334</ele><time>2026-05-02T13:52:59.685Z</time></trkpt><trkpt lat="40.0190276" lon="16.1417144"><ele>927.6666666666667</ele><time>2026-05-02T13:53:00.695Z</time></trkpt><trkpt lat="40.0189405" lon="16.1418837"><ele>930.0</ele><time>2026-05-02T13:53:01.698Z</time></trkpt><trkpt lat="40.0188608" lon="16.1420438"><ele>930.0</ele><time>2026-05-02T13:53:02.697Z</time></trkpt><trkpt lat="40.0187877" lon="16.1421763"><ele>930.0</ele><time>2026-05-02T13:53:03.711Z</time></trkpt><trkpt lat="40.0187311" lon="16.1422846"><ele>930.0</ele><time>2026-05-02T13:53:04.704Z</time></trkpt><trkpt lat="40.0186759" lon="16.1423844"><ele>930.0</ele><time>2026-05-02T13:53:05.708Z</time></trkpt><trkpt lat="40.018602" lon="16.142477"><ele>930.0</ele><time>2026-05-02T13:53:06.703Z</time></trkpt><trkpt lat="40.0185085" lon="16.1425498"><ele>931.5</ele><time>2026-05-02T13:53:07.702Z</time></trkpt><trkpt lat="40.0183997" lon="16.1425915"><ele>933.0</ele><time>2026-05-02T13:53:08.697Z</time></trkpt><trkpt lat="40.0182803" lon="16.1426222"><ele>934.5</ele><time>2026-05-02T13:53:09.711Z</time></trkpt><trkpt lat="40.0181584" lon="16.1426596"><ele>936.0</ele><time>2026-05-02T13:53:10.715Z</time></trkpt><trkpt lat="40.0180266" lon="16.1426955"><ele>936.0</ele><time>2026-05-02T13:53:11.72Z</time></trkpt><trkpt lat="40.0179072" lon="16.1427287"><ele>935.9999999999999</ele><time>2026-05-02T13:53:12.719Z</time></trkpt><trkpt lat="40.0178151" lon="16.1427672"><ele>935.9999999999999</ele><time>2026-05-02T13:53:13.723Z</time></trkpt><trkpt lat="40.0177372" lon="16.1428321"><ele>936.0</ele><time>2026-05-02T13:53:14.717Z</time></trkpt><trkpt lat="40.0176653" lon="16.14292"><ele>936.0</ele><time>2026-05-02T13:53:15.71Z</time></trkpt><trkpt lat="40.0176199" lon="16.14301"><ele>936.0</ele><time>2026-05-02T13:53:16.724Z</time></trkpt><trkpt lat="40.0176054" lon="16.1430931"><ele>936.0</ele><time>2026-05-02T13:53:17.708Z</time></trkpt><trkpt lat="40.0176298" lon="16.1431794"><ele>936.0</ele><time>2026-05-02T13:53:18.732Z</time></trkpt><trkpt lat="40.0176819" lon="16.1432537"><ele>936.0</ele><time>2026-05-02T13:53:19.736Z</time></trkpt><trkpt lat="40.017753" lon="16.1433067"><ele>936.0</ele><time>2026-05-02T13:53:20.704Z</time></trkpt><trkpt lat="40.0178362" lon="16.1433325"><ele>936.0</ele><time>2026-05-02T13:53:21.716Z</time></trkpt><trkpt lat="40.0179299" lon="16.1433227"><ele>938.4</ele><time>2026-05-02T13:53:22.715Z</time></trkpt><trkpt lat="40.0180287" lon="16.1432924"><ele>940.8</ele><time>2026-05-02T13:53:23.708Z</time></trkpt><trkpt lat="40.0181377" lon="16.1432712"><ele>943.1999999999999</ele><time>2026-05-02T13:53:24.718Z</time></trkpt><trkpt lat="40.01825" lon="16.1432737"><ele>945.5999999999999</ele><time>2026-05-02T13:53:25.705Z</time></trkpt><trkpt lat="40.0183682" lon="16.1432998"><ele>948.0</ele><time>2026-05-02T13:53:26.709Z</time></trkpt><trkpt lat="40.0184969" lon="16.1433412"><ele>949.2</ele><time>2026-05-02T13:53:27.708Z</time></trkpt><trkpt lat="40.0186255" lon="16.143379"><ele>950.4</ele><time>2026-05-02T13:53:28.715Z</time></trkpt><trkpt lat="40.0187385" lon="16.1433683"><ele>951.6000000000001</ele><time>2026-05-02T13:53:29.698Z</time></trkpt><trkpt lat="40.0188243" lon="16.1433456"><ele>952.8000000000001</ele><time>2026-05-02T13:53:30.703Z</time></trkpt><trkpt lat="40.0189218" lon="16.1433718"><ele>954.0</ele><time>2026-05-02T13:53:32.719Z</time></trkpt><trkpt lat="40.0189102" lon="16.143521"><ele>954.0</ele><time>2026-05-02T13:53:34.718Z</time></trkpt><trkpt lat="40.01885" lon="16.1435705"><ele>954.0000000000001</ele><time>2026-05-02T13:53:35.715Z</time></trkpt><trkpt lat="40.0187612" lon="16.1436233"><ele>954.0000000000001</ele><time>2026-05-02T13:53:36.713Z</time></trkpt><trkpt lat="40.0186549" lon="16.1436677"><ele>954.0</ele><time>2026-05-02T13:53:37.71Z</time></trkpt><trkpt lat="40.0185396" lon="16.1436971"><ele>954.0</ele><time>2026-05-02T13:53:38.703Z</time></trkpt><trkpt lat="40.0184185" lon="16.1437318"><ele>952.5</ele><time>2026-05-02T13:53:39.711Z</time></trkpt><trkpt lat="40.0183033" lon="16.1437823"><ele>951.0</ele><time>2026-05-02T13:53:40.722Z</time></trkpt><trkpt lat="40.0182006" lon="16.1438705"><ele>949.5</ele><time>2026-05-02T13:53:41.72Z</time></trkpt><trkpt lat="40.0181159" lon="16.1440001"><ele>948.0</ele><time>2026-05-02T13:53:42.72Z</time></trkpt><trkpt lat="40.0180312" lon="16.1441501"><ele>952.0</ele><time>2026-05-02T13:53:43.704Z</time></trkpt><trkpt lat="40.0179382" lon="16.1443092"><ele>956.0</ele><time>2026-05-02T13:53:44.708Z</time></trkpt><trkpt lat="40.0178413" lon="16.1444701"><ele>960.0</ele><time>2026-05-02T13:53:45.708Z</time></trkpt><trkpt lat="40.0177511" lon="16.1446134"><ele>960.0</ele><time>2026-05-02T13:53:46.72Z</time></trkpt><trkpt lat="40.0176784" lon="16.144732"><ele>960.0</ele><time>2026-05-02T13:53:47.719Z</time></trkpt><trkpt lat="40.0176366" lon="16.1448437"><ele>960.0</ele><time>2026-05-02T13:53:48.713Z</time></trkpt><trkpt lat="40.0175958" lon="16.1451402"><ele>960.0</ele><time>2026-05-02T13:53:50.704Z</time></trkpt><trkpt lat="40.0175744" lon="16.1453177"><ele>963.6666666666667</ele><time>2026-05-02T13:53:51.708Z</time></trkpt><trkpt lat="40.0175484" lon="16.145506"><ele>967.3333333333334</ele><time>2026-05-02T13:53:52.71Z</time></trkpt><trkpt lat="40.0175282" lon="16.1457075"><ele>971.0</ele><time>2026-05-02T13:53:53.708Z</time></trkpt><trkpt lat="40.0175064" lon="16.1459133"><ele>970.5999999999999</ele><time>2026-05-02T13:53:54.713Z</time></trkpt><trkpt lat="40.0174863" lon="16.1461063"><ele>970.1999999999999</ele><time>2026-05-02T13:53:55.717Z</time></trkpt><trkpt lat="40.0174746" lon="16.1462618"><ele>969.8000000000001</ele><time>2026-05-02T13:53:56.706Z</time></trkpt><trkpt lat="40.0174671" lon="16.1463843"><ele>969.4000000000001</ele><time>2026-05-02T13:53:57.711Z</time></trkpt><trkpt lat="40.0174603" lon="16.1464772"><ele>969.0</ele><time>2026-05-02T13:53:58.705Z</time></trkpt><trkpt lat="40.0174562" lon="16.1466169"><ele>970.0</ele><time>2026-05-02T13:54:00.712Z</time></trkpt><trkpt lat="40.0175099" lon="16.1467642"><ele>971.0</ele><time>2026-05-02T13:54:02.702Z</time></trkpt><trkpt lat="40.0175497" lon="16.1468455"><ele>972.0</ele><time>2026-05-02T13:54:03.722Z</time></trkpt><trkpt lat="40.0176017" lon="16.1469187"><ele>973.0</ele><time>2026-05-02T13:54:04.711Z</time></trkpt><trkpt lat="40.017662" lon="16.1469508"><ele>974.0</ele><time>2026-05-02T13:54:05.709Z</time></trkpt><trkpt lat="40.0177307" lon="16.1469209"><ele>975.0</ele><time>2026-05-02T13:54:06.718Z</time></trkpt><trkpt lat="40.0177801" lon="16.1468515"><ele>975.0</ele><time>2026-05-02T13:54:07.703Z</time></trkpt><trkpt lat="40.017812" lon="16.1467613"><ele>975.0</ele><time>2026-05-02T13:54:08.7Z</time></trkpt><trkpt lat="40.0178297" lon="16.146646"><ele>975.0</ele><time>2026-05-02T13:54:09.703Z</time></trkpt><trkpt lat="40.017856" lon="16.1465089"><ele>975.0</ele><time>2026-05-02T13:54:10.717Z</time></trkpt><trkpt lat="40.0178999" lon="16.1463765"><ele>975.0</ele><time>2026-05-02T13:54:11.718Z</time></trkpt><trkpt lat="40.0179482" lon="16.146249"><ele>975.0</ele><time>2026-05-02T13:54:12.715Z</time></trkpt><trkpt lat="40.0180037" lon="16.1461203"><ele>975.0</ele><time>2026-05-02T13:54:13.724Z</time></trkpt><trkpt lat="40.0180757" lon="16.1460013"><ele>975.0</ele><time>2026-05-02T13:54:14.684Z</time></trkpt><trkpt lat="40.0181634" lon="16.1458824"><ele>975.0</ele><time>2026-05-02T13:54:15.709Z</time></trkpt><trkpt lat="40.0182635" lon="16.1457565"><ele>976.0</ele><time>2026-05-02T13:54:16.686Z</time></trkpt><trkpt lat="40.0183666" lon="16.1456197"><ele>977.0</ele><time>2026-05-02T13:54:17.676Z</time></trkpt><trkpt lat="40.0184708" lon="16.1454849"><ele>978.0</ele><time>2026-05-02T13:54:18.706Z</time></trkpt><trkpt lat="40.0185698" lon="16.1453624"><ele>979.0</ele><time>2026-05-02T13:54:19.69Z</time></trkpt><trkpt lat="40.0186472" lon="16.1452679"><ele>979.0</ele><time>2026-05-02T13:54:20.704Z</time></trkpt><trkpt lat="40.0187084" lon="16.1451957"><ele>979.0000000000001</ele><time>2026-05-02T13:54:21.701Z</time></trkpt><trkpt lat="40.0188082" lon="16.1451363"><ele>979.0000000000001</ele><time>2026-05-02T13:54:23.705Z</time></trkpt><trkpt lat="40.018877" lon="16.1452402"><ele>979.0</ele><time>2026-05-02T13:54:25.711Z</time></trkpt><trkpt lat="40.0188387" lon="16.1453981"><ele>979.0</ele><time>2026-05-02T13:54:27.703Z</time></trkpt><trkpt lat="40.0187882" lon="16.1454644"><ele>979.0</ele><time>2026-05-02T13:54:28.704Z</time></trkpt><trkpt lat="40.018733" lon="16.1455474"><ele>979.0000000000001</ele><time>2026-05-02T13:54:29.712Z</time></trkpt><trkpt lat="40.0186839" lon="16.1456619"><ele>979.0000000000001</ele><time>2026-05-02T13:54:30.705Z</time></trkpt><trkpt lat="40.0186479" lon="16.1458002"><ele>979.0</ele><time>2026-05-02T13:54:31.709Z</time></trkpt><trkpt lat="40.0186124" lon="16.1459541"><ele>979.0</ele><time>2026-05-02T13:54:32.709Z</time></trkpt><trkpt lat="40.0185562" lon="16.146104"><ele>981.0</ele><time>2026-05-02T13:54:33.713Z</time></trkpt><trkpt lat="40.0184847" lon="16.1462357"><ele>983.0</ele><time>2026-05-02T13:54:34.707Z</time></trkpt><trkpt lat="40.018426" lon="16.1463669"><ele>985.0</ele><time>2026-05-02T13:54:35.701Z</time></trkpt><trkpt lat="40.018393" lon="16.1465204"><ele>987.0</ele><time>2026-05-02T13:54:36.712Z</time></trkpt><trkpt lat="40.0183808" lon="16.1466951"><ele>989.75</ele><time>2026-05-02T13:54:37.709Z</time></trkpt><trkpt lat="40.0183767" lon="16.1468875"><ele>992.5</ele><time>2026-05-02T13:54:38.702Z</time></trkpt><trkpt lat="40.0183646" lon="16.1470843"><ele>995.25</ele><time>2026-05-02T13:54:39.712Z</time></trkpt><trkpt lat="40.018345" lon="16.1472698"><ele>998.0</ele><time>2026-05-02T13:54:40.701Z</time></trkpt><trkpt lat="40.0183255" lon="16.1474428"><ele>995.4</ele><time>2026-05-02T13:54:41.702Z</time></trkpt><trkpt lat="40.0183092" lon="16.1475977"><ele>992.8</ele><time>2026-05-02T13:54:42.71Z</time></trkpt><trkpt lat="40.0182874" lon="16.1477321"><ele>990.2</ele><time>2026-05-02T13:54:43.709Z</time></trkpt><trkpt lat="40.0182689" lon="16.1478578"><ele>987.6</ele><time>2026-05-02T13:54:44.71Z</time></trkpt><trkpt lat="40.0182457" lon="16.1479864"><ele>985.0</ele><time>2026-05-02T13:54:45.723Z</time></trkpt><trkpt lat="40.0182126" lon="16.1481195"><ele>987.4</ele><time>2026-05-02T13:54:46.703Z</time></trkpt><trkpt lat="40.0181627" lon="16.1482374"><ele>989.8</ele><time>2026-05-02T13:54:47.697Z</time></trkpt><trkpt lat="40.018095" lon="16.1483412"><ele>992.2</ele><time>2026-05-02T13:54:48.673Z</time></trkpt><trkpt lat="40.0180102" lon="16.1484268"><ele>994.6</ele><time>2026-05-02T13:54:49.707Z</time></trkpt><trkpt lat="40.0179203" lon="16.1485056"><ele>997.0</ele><time>2026-05-02T13:54:50.71Z</time></trkpt><trkpt lat="40.0178465" lon="16.1485865"><ele>996.9999999999999</ele><time>2026-05-02T13:54:51.72Z</time></trkpt><trkpt lat="40.017809" lon="16.148683"><ele>997.0</ele><time>2026-05-02T13:54:52.694Z</time></trkpt><trkpt lat="40.0177905" lon="16.1487951"><ele>997.0</ele><time>2026-05-02T13:54:53.704Z</time></trkpt><trkpt lat="40.0177692" lon="16.1489178"><ele>997.0</ele><time>2026-05-02T13:54:54.706Z</time></trkpt><trkpt lat="40.0177539" lon="16.1490117"><ele>996.9999999999999</ele><time>2026-05-02T13:54:55.697Z</time></trkpt><trkpt lat="40.017767" lon="16.1491434"><ele>997.0</ele><time>2026-05-02T13:54:57.704Z</time></trkpt><trkpt lat="40.0178537" lon="16.1492465"><ele>996.9999999999999</ele><time>2026-05-02T13:54:59.686Z</time></trkpt><trkpt lat="40.0179176" lon="16.1492262"><ele>997.0</ele><time>2026-05-02T13:55:00.721Z</time></trkpt><trkpt lat="40.0179802" lon="16.1491749"><ele>997.0</ele><time>2026-05-02T13:55:01.716Z</time></trkpt><trkpt lat="40.0180382" lon="16.1490859"><ele>997.0</ele><time>2026-05-02T13:55:02.712Z</time></trkpt><trkpt lat="40.0180767" lon="16.1489989"><ele>996.9999999999999</ele><time>2026-05-02T13:55:03.707Z</time></trkpt><trkpt lat="40.0181579" lon="16.1489242"><ele>997.0</ele><time>2026-05-02T13:55:05.708Z</time></trkpt><trkpt lat="40.0182563" lon="16.1489917"><ele>998.8</ele><time>2026-05-02T13:55:07.721Z</time></trkpt><trkpt lat="40.0182695" lon="16.1491375"><ele>1000.6</ele><time>2026-05-02T13:55:09.715Z</time></trkpt><trkpt lat="40.0182094" lon="16.1492836"><ele>1002.3999999999999</ele><time>2026-05-02T13:55:11.704Z</time></trkpt><trkpt lat="40.0181516" lon="16.1493617"><ele>1004.1999999999999</ele><time>2026-05-02T13:55:12.723Z</time></trkpt><trkpt lat="40.018077" lon="16.1494373"><ele>1006.0</ele><time>2026-05-02T13:55:13.715Z</time></trkpt><trkpt lat="40.0180096" lon="16.1495128"><ele>1006.0</ele><time>2026-05-02T13:55:14.711Z</time></trkpt><trkpt lat="40.0179675" lon="16.149578"><ele>1006.0000000000001</ele><time>2026-05-02T13:55:15.698Z</time></trkpt><trkpt lat="40.0179476" lon="16.1496565"><ele>1006.0</ele><time>2026-05-02T13:55:16.708Z</time></trkpt><trkpt lat="40.0179636" lon="16.1497433"><ele>1006.0</ele><time>2026-05-02T13:55:17.708Z</time></trkpt><trkpt lat="40.0180083" lon="16.1498138"><ele>1006.0000000000001</ele><time>2026-05-02T13:55:18.721Z</time></trkpt><trkpt lat="40.0180674" lon="16.1498593"><ele>1006.0</ele><time>2026-05-02T13:55:19.711Z</time></trkpt><trkpt lat="40.0181446" lon="16.1498855"><ele>1006.0</ele><time>2026-05-02T13:55:20.711Z</time></trkpt><trkpt lat="40.0182219" lon="16.1498826"><ele>1006.0</ele><time>2026-05-02T13:55:21.712Z</time></trkpt><trkpt lat="40.0182863" lon="16.1498503"><ele>1006.0000000000001</ele><time>2026-05-02T13:55:22.713Z</time></trkpt><trkpt lat="40.0183446" lon="16.1497998"><ele>1006.0</ele><time>2026-05-02T13:55:23.709Z</time></trkpt><trkpt lat="40.0183873" lon="16.1497161"><ele>1006.0</ele><time>2026-05-02T13:55:24.714Z</time></trkpt><trkpt lat="40.0184385" lon="16.1496397"><ele>1006.0000000000001</ele><time>2026-05-02T13:55:25.705Z</time></trkpt><trkpt lat="40.0185074" lon="16.1495954"><ele>1006.0</ele><time>2026-05-02T13:55:26.713Z</time></trkpt><trkpt lat="40.0185831" lon="16.1495837"><ele>1006.0</ele><time>2026-05-02T13:55:27.716Z</time></trkpt><trkpt lat="40.0186622" lon="16.1496172"><ele>1008.5714285714287</ele><time>2026-05-02T13:55:28.712Z</time></trkpt><trkpt lat="40.0187181" lon="16.1496706"><ele>1011.1428571428572</ele><time>2026-05-02T13:55:29.714Z</time></trkpt><trkpt lat="40.0187578" lon="16.1497419"><ele>1013.7142857142858</ele><time>2026-05-02T13:55:30.714Z</time></trkpt><trkpt lat="40.0187738" lon="16.1498248"><ele>1016.2857142857142</ele><time>2026-05-02T13:55:31.707Z</time></trkpt><trkpt lat="40.0187659" lon="16.1499232"><ele>1018.8571428571428</ele><time>2026-05-02T13:55:32.711Z</time></trkpt><trkpt lat="40.0187413" lon="16.1500277"><ele>1021.4285714285713</ele><time>2026-05-02T13:55:33.708Z</time></trkpt><trkpt lat="40.0187118" lon="16.150126"><ele>1024.0</ele><time>2026-05-02T13:55:34.696Z</time></trkpt><trkpt lat="40.01871" lon="16.1502343"><ele>1024.5</ele><time>2026-05-02T13:55:35.699Z</time></trkpt><trkpt lat="40.0187237" lon="16.1503492"><ele>1025.0</ele><time>2026-05-02T13:55:36.716Z</time></trkpt><trkpt lat="40.0187436" lon="16.1504611"><ele>1025.5</ele><time>2026-05-02T13:55:37.721Z</time></trkpt><trkpt lat="40.0187536" lon="16.1505758"><ele>1026.0</ele><time>2026-05-02T13:55:38.699Z</time></trkpt><trkpt lat="40.0187511" lon="16.1506868"><ele>1026.5</ele><time>2026-05-02T13:55:39.717Z</time></trkpt><trkpt lat="40.0187204" lon="16.1507971"><ele>1027.0</ele><time>2026-05-02T13:55:40.717Z</time></trkpt><trkpt lat="40.0186577" lon="16.1508979"><ele>1028.2</ele><time>2026-05-02T13:55:41.716Z</time></trkpt><trkpt lat="40.0185794" lon="16.1509948"><ele>1029.4</ele><time>2026-05-02T13:55:42.701Z</time></trkpt><trkpt lat="40.0185024" lon="16.1510918"><ele>1030.6</ele><time>2026-05-02T13:55:43.704Z</time></trkpt><trkpt lat="40.0184279" lon="16.1511883"><ele>1031.8</ele><time>2026-05-02T13:55:44.722Z</time></trkpt><trkpt lat="40.0183557" lon="16.1512571"><ele>1033.0</ele><time>2026-05-02T13:55:45.716Z</time></trkpt><trkpt lat="40.0183068" lon="16.1513117"><ele>1033.0</ele><time>2026-05-02T13:55:46.718Z</time></trkpt><trkpt lat="40.0182879" lon="16.1514307"><ele>1033.0</ele><time>2026-05-02T13:55:48.696Z</time></trkpt><trkpt lat="40.018381" lon="16.1514601"><ele>1033.0</ele><time>2026-05-02T13:55:50.701Z</time></trkpt><trkpt lat="40.0184425" lon="16.1514247"><ele>1033.0</ele><time>2026-05-02T13:55:51.689Z</time></trkpt><trkpt lat="40.0185198" lon="16.1513814"><ele>1033.0</ele><time>2026-05-02T13:55:52.712Z</time></trkpt><trkpt lat="40.0186007" lon="16.151346"><ele>1033.0</ele><time>2026-05-02T13:55:53.703Z</time></trkpt><trkpt lat="40.0186806" lon="16.1513196"><ele>1033.0</ele><time>2026-05-02T13:55:54.708Z</time></trkpt><trkpt lat="40.0187715" lon="16.1513579"><ele>1033.0</ele><time>2026-05-02T13:55:56.697Z</time></trkpt><trkpt lat="40.0187411" lon="16.1514714"><ele>1033.0</ele><time>2026-05-02T13:55:59.711Z</time></trkpt><trkpt lat="40.018648" lon="16.1515159"><ele>1033.0</ele><time>2026-05-02T13:56:01.704Z</time></trkpt><trkpt lat="40.0185868" lon="16.1515436"><ele>1033.0</ele><time>2026-05-02T13:56:02.712Z</time></trkpt><trkpt lat="40.0185189" lon="16.1515846"><ele>1033.0</ele><time>2026-05-02T13:56:03.721Z</time></trkpt><trkpt lat="40.0184667" lon="16.1516546"><ele>1034.6666666666665</ele><time>2026-05-02T13:56:04.725Z</time></trkpt><trkpt lat="40.0184563" lon="16.1517513"><ele>1036.3333333333333</ele><time>2026-05-02T13:56:05.71Z</time></trkpt><trkpt lat="40.0184827" lon="16.1518431"><ele>1038.0</ele><time>2026-05-02T13:56:06.72Z</time></trkpt><trkpt lat="40.0185442" lon="16.1519253"><ele>1039.6666666666667</ele><time>2026-05-02T13:56:07.715Z</time></trkpt><trkpt lat="40.0186173" lon="16.1519957"><ele>1041.3333333333335</ele><time>2026-05-02T13:56:08.706Z</time></trkpt><trkpt lat="40.0186852" lon="16.1520823"><ele>1043.0</ele><time>2026-05-02T13:56:09.709Z</time></trkpt><trkpt lat="40.0187357" lon="16.1521966"><ele>1043.0</ele><time>2026-05-02T13:56:10.714Z</time></trkpt><trkpt lat="40.0187545" lon="16.1523228"><ele>1043.0</ele><time>2026-05-02T13:56:11.717Z</time></trkpt><trkpt lat="40.0187484" lon="16.152457"><ele>1043.0</ele><time>2026-05-02T13:56:12.695Z</time></trkpt><trkpt lat="40.0187155" lon="16.1525842"><ele>1043.0</ele><time>2026-05-02T13:56:13.71Z</time></trkpt><trkpt lat="40.0186719" lon="16.1526943"><ele>1043.0</ele><time>2026-05-02T13:56:14.693Z</time></trkpt><trkpt lat="40.0186288" lon="16.1527938"><ele>1044.4</ele><time>2026-05-02T13:56:15.701Z</time></trkpt><trkpt lat="40.0185709" lon="16.1528821"><ele>1045.8</ele><time>2026-05-02T13:56:16.712Z</time></trkpt><trkpt lat="40.0185142" lon="16.1529665"><ele>1047.2</ele><time>2026-05-02T13:56:17.714Z</time></trkpt><trkpt lat="40.0185069" lon="16.1531254"><ele>1048.6</ele><time>2026-05-02T13:56:19.721Z</time></trkpt><trkpt lat="40.018611" lon="16.1531726"><ele>1050.0</ele><time>2026-05-02T13:56:21.722Z</time></trkpt><trkpt lat="40.0186717" lon="16.1531231"><ele>1050.0</ele><time>2026-05-02T13:56:22.722Z</time></trkpt><trkpt lat="40.0187134" lon="16.1530379"><ele>1050.0</ele><time>2026-05-02T13:56:23.724Z</time></trkpt><trkpt lat="40.0187467" lon="16.1529275"><ele>1050.0</ele><time>2026-05-02T13:56:24.715Z</time></trkpt><trkpt lat="40.0187853" lon="16.1527986"><ele>1050.0</ele><time>2026-05-02T13:56:25.729Z</time></trkpt><trkpt lat="40.0188369" lon="16.1526575"><ele>1050.0</ele><time>2026-05-02T13:56:26.73Z</time></trkpt><trkpt lat="40.0188895" lon="16.1525187"><ele>1050.0</ele><time>2026-05-02T13:56:27.72Z</time></trkpt><trkpt lat="40.0189165" lon="16.1523862"><ele>1050.0</ele><time>2026-05-02T13:56:28.71Z</time></trkpt><trkpt lat="40.0189308" lon="16.1522777"><ele>1050.0</ele><time>2026-05-02T13:56:29.711Z</time></trkpt><trkpt lat="40.0189436" lon="16.152193"><ele>1050.0</ele><time>2026-05-02T13:56:30.714Z</time></trkpt><trkpt lat="40.0190261" lon="16.1520729"><ele>1050.0</ele><time>2026-05-02T13:56:32.709Z</time></trkpt><trkpt lat="40.0191065" lon="16.1520463"><ele>1052.4</ele><time>2026-05-02T13:56:33.716Z</time></trkpt><trkpt lat="40.019194" lon="16.1520497"><ele>1054.8</ele><time>2026-05-02T13:56:34.726Z</time></trkpt><trkpt lat="40.0192951" lon="16.1520675"><ele>1057.2</ele><time>2026-05-02T13:56:35.711Z</time></trkpt><trkpt lat="40.0194119" lon="16.1520821"><ele>1059.6</ele><time>2026-05-02T13:56:36.7Z</time></trkpt><trkpt lat="40.019531" lon="16.1520835"><ele>1062.0</ele><time>2026-05-02T13:56:37.713Z</time></trkpt><trkpt lat="40.0196326" lon="16.1520816"><ele>1062.0</ele><time>2026-05-02T13:56:38.708Z</time></trkpt><trkpt lat="40.0197283" lon="16.1521588"><ele>1062.0</ele><time>2026-05-02T13:56:40.716Z</time></trkpt><trkpt lat="40.0196996" lon="16.1523073"><ele>1062.0</ele><time>2026-05-02T13:56:42.716Z</time></trkpt><trkpt lat="40.0196403" lon="16.1523618"><ele>1062.0</ele><time>2026-05-02T13:56:43.715Z</time></trkpt><trkpt lat="40.0195546" lon="16.1523805"><ele>1062.0</ele><time>2026-05-02T13:56:44.722Z</time></trkpt><trkpt lat="40.0194626" lon="16.1523727"><ele>1062.0</ele><time>2026-05-02T13:56:45.705Z</time></trkpt><trkpt lat="40.0193691" lon="16.1523679"><ele>1062.0</ele><time>2026-05-02T13:56:46.702Z</time></trkpt><trkpt lat="40.0192917" lon="16.152393"><ele>1062.0</ele><time>2026-05-02T13:56:47.716Z</time></trkpt><trkpt lat="40.0192366" lon="16.1524626"><ele>1062.0</ele><time>2026-05-02T13:56:48.721Z</time></trkpt><trkpt lat="40.0192027" lon="16.1525739"><ele>1062.0</ele><time>2026-05-02T13:56:49.735Z</time></trkpt><trkpt lat="40.0191544" lon="16.1526989"><ele>1062.0</ele><time>2026-05-02T13:56:50.734Z</time></trkpt><trkpt lat="40.019113" lon="16.1528292"><ele>1063.8</ele><time>2026-05-02T13:56:51.735Z</time></trkpt><trkpt lat="40.0190951" lon="16.1529546"><ele>1065.6</ele><time>2026-05-02T13:56:52.722Z</time></trkpt><trkpt lat="40.0191073" lon="16.1530733"><ele>1067.3999999999999</ele><time>2026-05-02T13:56:53.724Z</time></trkpt><trkpt lat="40.019158" lon="16.1531891"><ele>1069.2</ele><time>2026-05-02T13:56:54.711Z</time></trkpt><trkpt lat="40.0192387" lon="16.1533026"><ele>1071.0</ele><time>2026-05-02T13:56:55.7Z</time></trkpt><trkpt lat="40.0193282" lon="16.1534152"><ele>1072.0</ele><time>2026-05-02T13:56:56.707Z</time></trkpt><trkpt lat="40.0194168" lon="16.1535235"><ele>1073.0</ele><time>2026-05-02T13:56:57.703Z</time></trkpt><trkpt lat="40.0194926" lon="16.153609"><ele>1074.0</ele><time>2026-05-02T13:56:58.703Z</time></trkpt><trkpt lat="40.0195583" lon="16.1536936"><ele>1075.0</ele><time>2026-05-02T13:56:59.703Z</time></trkpt><trkpt lat="40.0196141" lon="16.1537957"><ele>1076.0</ele><time>2026-05-02T13:57:00.705Z</time></trkpt><trkpt lat="40.0196563" lon="16.1539168"><ele>1076.0</ele><time>2026-05-02T13:57:01.702Z</time></trkpt><trkpt lat="40.0196733" lon="16.154034"><ele>1076.0</ele><time>2026-05-02T13:57:02.726Z</time></trkpt><trkpt lat="40.0196702" lon="16.1541428"><ele>1076.0</ele><time>2026-05-02T13:57:03.715Z</time></trkpt><trkpt lat="40.0196836" lon="16.1542612"><ele>1076.0</ele><time>2026-05-02T13:57:04.707Z</time></trkpt><trkpt lat="40.0197208" lon="16.154386"><ele>1076.0</ele><time>2026-05-02T13:57:05.704Z</time></trkpt><trkpt lat="40.0197621" lon="16.1545252"><ele>1075.75</ele><time>2026-05-02T13:57:06.709Z</time></trkpt><trkpt lat="40.0197934" lon="16.1546729"><ele>1075.5</ele><time>2026-05-02T13:57:07.709Z</time></trkpt><trkpt lat="40.019807" lon="16.154826"><ele>1075.25</ele><time>2026-05-02T13:57:08.714Z</time></trkpt><trkpt lat="40.0198219" lon="16.1549711"><ele>1075.0</ele><time>2026-05-02T13:57:09.691Z</time></trkpt><trkpt lat="40.0198478" lon="16.1551078"><ele>1075.5</ele><time>2026-05-02T13:57:10.718Z</time></trkpt><trkpt lat="40.019874" lon="16.1552501"><ele>1076.0</ele><time>2026-05-02T13:57:11.729Z</time></trkpt><trkpt lat="40.0198852" lon="16.1553798"><ele>1076.5</ele><time>2026-05-02T13:57:12.717Z</time></trkpt><trkpt lat="40.0198785" lon="16.1554747"><ele>1077.0</ele><time>2026-05-02T13:57:13.7Z</time></trkpt><trkpt lat="40.019846" lon="16.155558"><ele>1077.5</ele><time>2026-05-02T13:57:14.685Z</time></trkpt><trkpt lat="40.0198085" lon="16.1556535"><ele>1078.0</ele><time>2026-05-02T13:57:15.706Z</time></trkpt><trkpt lat="40.0197565" lon="16.1557731"><ele>1079.25</ele><time>2026-05-02T13:57:16.719Z</time></trkpt><trkpt lat="40.0197081" lon="16.1559078"><ele>1080.5</ele><time>2026-05-02T13:57:17.711Z</time></trkpt><trkpt lat="40.019659" lon="16.1560518"><ele>1081.75</ele><time>2026-05-02T13:57:18.709Z</time></trkpt><trkpt lat="40.019603" lon="16.1561948"><ele>1083.0</ele><time>2026-05-02T13:57:19.702Z</time></trkpt><trkpt lat="40.0195504" lon="16.1563387"><ele>1083.0</ele><time>2026-05-02T13:57:20.704Z</time></trkpt><trkpt lat="40.0195048" lon="16.1564908"><ele>1083.0</ele><time>2026-05-02T13:57:21.711Z</time></trkpt><trkpt lat="40.0194702" lon="16.1566272"><ele>1083.0</ele><time>2026-05-02T13:57:22.72Z</time></trkpt><trkpt lat="40.0194457" lon="16.1567488"><ele>1083.0</ele><time>2026-05-02T13:57:23.714Z</time></trkpt><trkpt lat="40.0194452" lon="16.156885"><ele>1083.0</ele><time>2026-05-02T13:57:24.712Z</time></trkpt><trkpt lat="40.0194647" lon="16.1570376"><ele>1085.0</ele><time>2026-05-02T13:57:25.734Z</time></trkpt><trkpt lat="40.0194798" lon="16.1572047"><ele>1087.0</ele><time>2026-05-02T13:57:26.722Z</time></trkpt><trkpt lat="40.0194805" lon="16.1573662"><ele>1089.0</ele><time>2026-05-02T13:57:27.701Z</time></trkpt><trkpt lat="40.0194753" lon="16.1575228"><ele>1091.0</ele><time>2026-05-02T13:57:28.711Z</time></trkpt><trkpt lat="40.0194666" lon="16.1576756"><ele>1092.5</ele><time>2026-05-02T13:57:29.706Z</time></trkpt><trkpt lat="40.0194544" lon="16.1578298"><ele>1094.0</ele><time>2026-05-02T13:57:30.703Z</time></trkpt><trkpt lat="40.0194262" lon="16.1579778"><ele>1095.5</ele><time>2026-05-02T13:57:31.711Z</time></trkpt><trkpt lat="40.0193874" lon="16.1581267"><ele>1097.0</ele><time>2026-05-02T13:57:32.704Z</time></trkpt><trkpt lat="40.0193476" lon="16.1582701"><ele>1098.3333333333335</ele><time>2026-05-02T13:57:33.683Z</time></trkpt><trkpt lat="40.0193096" lon="16.1583907"><ele>1099.6666666666667</ele><time>2026-05-02T13:57:34.707Z</time></trkpt><trkpt lat="40.0192735" lon="16.1584784"><ele>1101.0</ele><time>2026-05-02T13:57:35.711Z</time></trkpt><trkpt lat="40.0192487" lon="16.158592"><ele>1102.3333333333333</ele><time>2026-05-02T13:57:37.705Z</time></trkpt><trkpt lat="40.0192832" lon="16.1586751"><ele>1103.6666666666665</ele><time>2026-05-02T13:57:39.705Z</time></trkpt><trkpt lat="40.0193521" lon="16.1586507"><ele>1105.0</ele><time>2026-05-02T13:57:41.724Z</time></trkpt><trkpt lat="40.0193956" lon="16.1585478"><ele>1105.0</ele><time>2026-05-02T13:57:43.708Z</time></trkpt><trkpt lat="40.0194245" lon="16.1584632"><ele>1105.0</ele><time>2026-05-02T13:57:44.715Z</time></trkpt><trkpt lat="40.0194707" lon="16.158358"><ele>1105.0</ele><time>2026-05-02T13:57:45.718Z</time></trkpt><trkpt lat="40.0195339" lon="16.1582331"><ele>1105.0</ele><time>2026-05-02T13:57:46.702Z</time></trkpt><trkpt lat="40.0196085" lon="16.1580873"><ele>1105.0</ele><time>2026-05-02T13:57:47.714Z</time></trkpt><trkpt lat="40.0196961" lon="16.1579424"><ele>1103.0</ele><time>2026-05-02T13:57:48.728Z</time></trkpt><trkpt lat="40.0197868" lon="16.1578034"><ele>1101.0</ele><time>2026-05-02T13:57:49.714Z</time></trkpt><trkpt lat="40.0198744" lon="16.1576676"><ele>1099.0</ele><time>2026-05-02T13:57:50.701Z</time></trkpt><trkpt lat="40.0199559" lon="16.1575313"><ele>1097.0</ele><time>2026-05-02T13:57:51.712Z</time></trkpt><trkpt lat="40.0200266" lon="16.15739"><ele>1101.2</ele><time>2026-05-02T13:57:52.715Z</time></trkpt><trkpt lat="40.0200822" lon="16.1572414"><ele>1105.4</ele><time>2026-05-02T13:57:53.736Z</time></trkpt><trkpt lat="40.0201217" lon="16.1571258"><ele>1109.6</ele><time>2026-05-02T13:57:54.715Z</time></trkpt><trkpt lat="40.0201614" lon="16.1570255"><ele>1113.8</ele><time>2026-05-02T13:57:55.721Z</time></trkpt><trkpt lat="40.0202119" lon="16.1569104"><ele>1118.0</ele><time>2026-05-02T13:57:56.714Z</time></trkpt><trkpt lat="40.0202674" lon="16.1567775"><ele>1118.0</ele><time>2026-05-02T13:57:57.724Z</time></trkpt><trkpt lat="40.020321" lon="16.1566416"><ele>1118.0</ele><time>2026-05-02T13:57:58.724Z</time></trkpt><trkpt lat="40.0203682" lon="16.1565224"><ele>1118.0</ele><time>2026-05-02T13:57:59.731Z</time></trkpt><trkpt lat="40.0204107" lon="16.1564417"><ele>1118.0</ele><time>2026-05-02T13:58:00.715Z</time></trkpt><trkpt lat="40.0204633" lon="16.1563624"><ele>1118.0</ele><time>2026-05-02T13:58:01.719Z</time></trkpt><trkpt lat="40.0205296" lon="16.1562742"><ele>1118.6</ele><time>2026-05-02T13:58:02.731Z</time></trkpt><trkpt lat="40.0206143" lon="16.1561728"><ele>1119.1999999999998</ele><time>2026-05-02T13:58:03.729Z</time></trkpt><trkpt lat="40.0207008" lon="16.1560803"><ele>1119.8</ele><time>2026-05-02T13:58:04.744Z</time></trkpt><trkpt lat="40.0207784" lon="16.1560082"><ele>1120.3999999999999</ele><time>2026-05-02T13:58:05.749Z</time></trkpt><trkpt lat="40.0208557" lon="16.1559259"><ele>1121.0</ele><time>2026-05-02T13:58:06.73Z</time></trkpt><trkpt lat="40.0209248" lon="16.1558537"><ele>1121.0</ele><time>2026-05-02T13:58:07.723Z</time></trkpt><trkpt lat="40.0210124" lon="16.155777"><ele>1121.0</ele><time>2026-05-02T13:58:09.724Z</time></trkpt><trkpt lat="40.0210839" lon="16.1557058"><ele>1121.0</ele><time>2026-05-02T13:58:12.721Z</time></trkpt><trkpt lat="40.0211655" lon="16.1556136"><ele>1121.0</ele><time>2026-05-02T13:58:14.72Z</time></trkpt><trkpt lat="40.0212369" lon="16.1554921"><ele>1121.0</ele><time>2026-05-02T13:58:16.696Z</time></trkpt><trkpt lat="40.0212624" lon="16.1554049"><ele>1120.8333333333335</ele><time>2026-05-02T13:58:17.714Z</time></trkpt><trkpt lat="40.0212903" lon="16.1553093"><ele>1120.6666666666667</ele><time>2026-05-02T13:58:18.692Z</time></trkpt><trkpt lat="40.0213133" lon="16.1552208"><ele>1120.5</ele><time>2026-05-02T13:58:19.718Z</time></trkpt><trkpt lat="40.0213358" lon="16.1551002"><ele>1120.3333333333333</ele><time>2026-05-02T13:58:21.719Z</time></trkpt><trkpt lat="40.0213158" lon="16.1549852"><ele>1120.1666666666665</ele><time>2026-05-02T13:58:23.708Z</time></trkpt><trkpt lat="40.0212677" lon="16.1548536"><ele>1120.0</ele><time>2026-05-02T13:58:25.706Z</time></trkpt><trkpt lat="40.0212103" lon="16.1547654"><ele>1119.6666666666665</ele><time>2026-05-02T13:58:27.711Z</time></trkpt><trkpt lat="40.0211477" lon="16.154717"><ele>1119.3333333333333</ele><time>2026-05-02T13:58:29.685Z</time></trkpt><trkpt lat="40.0210616" lon="16.1546969"><ele>1119.0</ele><time>2026-05-02T13:58:31.683Z</time></trkpt><trkpt lat="40.0209695" lon="16.1546845"><ele>1118.6666666666667</ele><time>2026-05-02T13:58:33.723Z</time></trkpt><trkpt lat="40.0208854" lon="16.1546634"><ele>1118.3333333333335</ele><time>2026-05-02T13:58:35.73Z</time></trkpt><trkpt lat="40.0208179" lon="16.1546317"><ele>1118.0</ele><time>2026-05-02T13:58:39.721Z</time></trkpt><trkpt lat="40.0207746" lon="16.1545592"><ele>1118.0</ele><time>2026-05-02T14:01:19.671Z</time></trkpt><trkpt lat="40.0208162" lon="16.154634"><ele>1118.0</ele><time>2026-05-02T14:01:24.672Z</time></trkpt><trkpt lat="40.0208696" lon="16.1546838"><ele>1118.0</ele><time>2026-05-02T14:01:39.687Z</time></trkpt><trkpt lat="40.0208113" lon="16.1546509"><ele>1118.0</ele><time>2026-05-02T14:01:55.674Z</time></trkpt><trkpt lat="40.0208407" lon="16.1545715"><ele>1118.0</ele><time>2026-05-02T14:09:45.693Z</time></trkpt><trkpt lat="40.02091" lon="16.1545579"><ele>1118.0</ele><time>2026-05-02T14:09:47.681Z</time></trkpt><trkpt lat="40.0209784" lon="16.1545789"><ele>1118.0</ele><time>2026-05-02T14:09:49.684Z</time></trkpt><trkpt lat="40.0210623" lon="16.1546496"><ele>1118.0</ele><time>2026-05-02T14:09:51.695Z</time></trkpt><trkpt lat="40.0211529" lon="16.1547191"><ele>1118.0</ele><time>2026-05-02T14:09:53.684Z</time></trkpt><trkpt lat="40.0212366" lon="16.1548152"><ele>1118.0</ele><time>2026-05-02T14:09:55.698Z</time></trkpt><trkpt lat="40.0212773" lon="16.1548856"><ele>1118.0</ele><time>2026-05-02T14:09:56.685Z</time></trkpt><trkpt lat="40.0213053" lon="16.1549607"><ele>1118.0</ele><time>2026-05-02T14:09:57.69Z</time></trkpt><trkpt lat="40.0213322" lon="16.1550974"><ele>1118.4</ele><time>2026-05-02T14:09:59.684Z</time></trkpt><trkpt lat="40.0213071" lon="16.1552414"><ele>1118.8</ele><time>2026-05-02T14:10:01.691Z</time></trkpt><trkpt lat="40.0212809" lon="16.1553414"><ele>1119.2</ele><time>2026-05-02T14:10:02.683Z</time></trkpt><trkpt lat="40.0212511" lon="16.1554407"><ele>1119.6</ele><time>2026-05-02T14:10:03.703Z</time></trkpt><trkpt lat="40.0212191" lon="16.1555158"><ele>1120.0</ele><time>2026-05-02T14:10:04.697Z</time></trkpt><trkpt lat="40.0211324" lon="16.155626"><ele>1120.0</ele><time>2026-05-02T14:10:06.693Z</time></trkpt><trkpt lat="40.02108" lon="16.1556794"><ele>1120.0</ele><time>2026-05-02T14:10:07.697Z</time></trkpt><trkpt lat="40.0210227" lon="16.1557418"><ele>1120.0</ele><time>2026-05-02T14:10:08.695Z</time></trkpt><trkpt lat="40.0209574" lon="16.1558145"><ele>1120.0</ele><time>2026-05-02T14:10:09.699Z</time></trkpt><trkpt lat="40.0208858" lon="16.15589"><ele>1120.0</ele><time>2026-05-02T14:10:10.706Z</time></trkpt><trkpt lat="40.020808" lon="16.1559614"><ele>1120.0</ele><time>2026-05-02T14:10:11.705Z</time></trkpt><trkpt lat="40.0207305" lon="16.1560332"><ele>1117.8333333333333</ele><time>2026-05-02T14:10:12.709Z</time></trkpt><trkpt lat="40.0206607" lon="16.1561141"><ele>1115.6666666666665</ele><time>2026-05-02T14:10:13.691Z</time></trkpt><trkpt lat="40.020591" lon="16.156192"><ele>1113.5</ele><time>2026-05-02T14:10:14.696Z</time></trkpt><trkpt lat="40.0205231" lon="16.1562739"><ele>1111.3333333333333</ele><time>2026-05-02T14:10:15.695Z</time></trkpt><trkpt lat="40.0204604" lon="16.156348"><ele>1109.1666666666667</ele><time>2026-05-02T14:10:16.684Z</time></trkpt><trkpt lat="40.0204122" lon="16.1564282"><ele>1107.0</ele><time>2026-05-02T14:10:17.697Z</time></trkpt><trkpt lat="40.0203666" lon="16.1565268"><ele>1109.2</ele><time>2026-05-02T14:10:18.689Z</time></trkpt><trkpt lat="40.0203212" lon="16.1566485"><ele>1111.4</ele><time>2026-05-02T14:10:19.683Z</time></trkpt><trkpt lat="40.0202737" lon="16.1567789"><ele>1113.6</ele><time>2026-05-02T14:10:20.686Z</time></trkpt><trkpt lat="40.020225" lon="16.1568928"><ele>1115.8</ele><time>2026-05-02T14:10:21.687Z</time></trkpt><trkpt lat="40.0201839" lon="16.1569845"><ele>1118.0</ele><time>2026-05-02T14:10:22.679Z</time></trkpt><trkpt lat="40.0201483" lon="16.1570675"><ele>1118.0</ele><time>2026-05-02T14:10:23.691Z</time></trkpt><trkpt lat="40.0201136" lon="16.1571572"><ele>1118.0</ele><time>2026-05-02T14:10:24.696Z</time></trkpt><trkpt lat="40.0200778" lon="16.1572503"><ele>1118.0</ele><time>2026-05-02T14:10:25.696Z</time></trkpt><trkpt lat="40.0200388" lon="16.1573492"><ele>1118.0</ele><time>2026-05-02T14:10:26.695Z</time></trkpt><trkpt lat="40.0199952" lon="16.1574481"><ele>1118.0</ele><time>2026-05-02T14:10:27.682Z</time></trkpt><trkpt lat="40.0199448" lon="16.1575464"><ele>1118.0</ele><time>2026-05-02T14:10:28.69Z</time></trkpt><trkpt lat="40.0198866" lon="16.1576445"><ele>1113.8</ele><time>2026-05-02T14:10:29.689Z</time></trkpt><trkpt lat="40.0198236" lon="16.1577432"><ele>1109.6</ele><time>2026-05-02T14:10:30.691Z</time></trkpt><trkpt lat="40.0197582" lon="16.1578454"><ele>1105.4</ele><time>2026-05-02T14:10:31.687Z</time></trkpt><trkpt lat="40.0196959" lon="16.1579455"><ele>1101.2</ele><time>2026-05-02T14:10:32.685Z</time></trkpt><trkpt lat="40.0196386" lon="16.1580457"><ele>1097.0</ele><time>2026-05-02T14:10:33.69Z</time></trkpt><trkpt lat="40.0195844" lon="16.1581418"><ele>1098.3333333333335</ele><time>2026-05-02T14:10:34.692Z</time></trkpt><trkpt lat="40.0195364" lon="16.1582339"><ele>1099.6666666666667</ele><time>2026-05-02T14:10:35.697Z</time></trkpt><trkpt lat="40.0194941" lon="16.1583158"><ele>1101.0</ele><time>2026-05-02T14:10:36.685Z</time></trkpt><trkpt lat="40.0194608" lon="16.1583907"><ele>1102.3333333333333</ele><time>2026-05-02T14:10:37.692Z</time></trkpt><trkpt lat="40.0194162" lon="16.1585088"><ele>1103.6666666666665</ele><time>2026-05-02T14:10:39.703Z</time></trkpt><trkpt lat="40.0193866" lon="16.1586013"><ele>1105.0</ele><time>2026-05-02T14:10:42.69Z</time></trkpt><trkpt lat="40.0193211" lon="16.1586842"><ele>1105.0</ele><time>2026-05-02T14:11:03.695Z</time></trkpt><trkpt lat="40.0192362" lon="16.1587464"><ele>1105.0</ele><time>2026-05-02T14:11:05.695Z</time></trkpt><trkpt lat="40.0191477" lon="16.1588406"><ele>1105.0</ele><time>2026-05-02T14:11:07.688Z</time></trkpt><trkpt lat="40.0190928" lon="16.1589838"><ele>1105.0</ele><time>2026-05-02T14:11:09.697Z</time></trkpt><trkpt lat="40.0190412" lon="16.1590996"><ele>1105.0</ele><time>2026-05-02T14:11:11.702Z</time></trkpt><trkpt lat="40.0189695" lon="16.1591828"><ele>1105.6</ele><time>2026-05-02T14:11:13.695Z</time></trkpt><trkpt lat="40.0188794" lon="16.159242"><ele>1106.2</ele><time>2026-05-02T14:11:15.697Z</time></trkpt><trkpt lat="40.0187755" lon="16.1592557"><ele>1106.8</ele><time>2026-05-02T14:11:17.702Z</time></trkpt><trkpt lat="40.0186618" lon="16.1592593"><ele>1107.4</ele><time>2026-05-02T14:11:19.7Z</time></trkpt><trkpt lat="40.0185459" lon="16.1592861"><ele>1108.0</ele><time>2026-05-02T14:11:21.693Z</time></trkpt><trkpt lat="40.0184752" lon="16.1593256"><ele>1108.0</ele><time>2026-05-02T14:11:22.699Z</time></trkpt><trkpt lat="40.018403" lon="16.1593757"><ele>1108.0</ele><time>2026-05-02T14:11:23.698Z</time></trkpt><trkpt lat="40.0183319" lon="16.1594333"><ele>1108.0</ele><time>2026-05-02T14:11:24.685Z</time></trkpt><trkpt lat="40.0182672" lon="16.1594953"><ele>1108.0</ele><time>2026-05-02T14:11:25.7Z</time></trkpt><trkpt lat="40.0182188" lon="16.1595492"><ele>1108.0</ele><time>2026-05-02T14:11:26.704Z</time></trkpt><trkpt lat="40.0181283" lon="16.1596334"><ele>1108.0</ele><time>2026-05-02T14:11:28.69Z</time></trkpt><trkpt lat="40.0180438" lon="16.1596803"><ele>1107.142857142857</ele><time>2026-05-02T14:11:30.701Z</time></trkpt><trkpt lat="40.0179398" lon="16.1596989"><ele>1106.2857142857142</ele><time>2026-05-02T14:11:32.697Z</time></trkpt><trkpt lat="40.0178742" lon="16.1597042"><ele>1105.4285714285713</ele><time>2026-05-02T14:11:33.692Z</time></trkpt><trkpt lat="40.0178073" lon="16.1597103"><ele>1104.5714285714284</ele><time>2026-05-02T14:11:34.693Z</time></trkpt><trkpt lat="40.0177404" lon="16.1597121"><ele>1103.7142857142858</ele><time>2026-05-02T14:11:35.693Z</time></trkpt><trkpt lat="40.0176732" lon="16.1597226"><ele>1102.8571428571427</ele><time>2026-05-02T14:11:36.694Z</time></trkpt><trkpt lat="40.0176057" lon="16.1597416"><ele>1102.0</ele><time>2026-05-02T14:11:37.713Z</time></trkpt><trkpt lat="40.0175358" lon="16.1597708"><ele>1101.0</ele><time>2026-05-02T14:11:38.695Z</time></trkpt><trkpt lat="40.0174659" lon="16.1598099"><ele>1100.0</ele><time>2026-05-02T14:11:39.667Z</time></trkpt><trkpt lat="40.017399" lon="16.1598547"><ele>1099.0</ele><time>2026-05-02T14:11:40.675Z</time></trkpt><trkpt lat="40.0173349" lon="16.1598962"><ele>1098.0</ele><time>2026-05-02T14:11:41.686Z</time></trkpt><trkpt lat="40.0172758" lon="16.159932"><ele>1097.0</ele><time>2026-05-02T14:11:42.697Z</time></trkpt><trkpt lat="40.0171708" lon="16.159977"><ele>1096.0</ele><time>2026-05-02T14:11:44.683Z</time></trkpt><trkpt lat="40.0170983" lon="16.1600254"><ele>1099.3999999999999</ele><time>2026-05-02T14:11:46.685Z</time></trkpt><trkpt lat="40.0170488" lon="16.1601075"><ele>1102.8</ele><time>2026-05-02T14:11:48.684Z</time></trkpt><trkpt lat="40.0170132" lon="16.1602258"><ele>1106.1999999999998</ele><time>2026-05-02T14:11:50.694Z</time></trkpt><trkpt lat="40.0169792" lon="16.1603893"><ele>1109.6</ele><time>2026-05-02T14:11:52.693Z</time></trkpt><trkpt lat="40.0169684" lon="16.1604706"><ele>1113.0</ele><time>2026-05-02T14:11:53.685Z</time></trkpt><trkpt lat="40.0169382" lon="16.1606313"><ele>1114.8333333333333</ele><time>2026-05-02T14:11:55.695Z</time></trkpt><trkpt lat="40.0169144" lon="16.1607089"><ele>1116.6666666666667</ele><time>2026-05-02T14:11:56.695Z</time></trkpt><trkpt lat="40.0168857" lon="16.1607888"><ele>1118.5</ele><time>2026-05-02T14:11:57.712Z</time></trkpt><trkpt lat="40.016839" lon="16.1609361"><ele>1120.3333333333335</ele><time>2026-05-02T14:11:59.693Z</time></trkpt><trkpt lat="40.0168482" lon="16.1610803"><ele>1122.1666666666667</ele><time>2026-05-02T14:12:01.691Z</time></trkpt><trkpt lat="40.016879" lon="16.1611561"><ele>1124.0</ele><time>2026-05-02T14:12:02.683Z</time></trkpt><trkpt lat="40.016917" lon="16.1612305"><ele>1124.0</ele><time>2026-05-02T14:12:03.698Z</time></trkpt><trkpt lat="40.0169742" lon="16.1613484"><ele>1124.0</ele><time>2026-05-02T14:12:05.69Z</time></trkpt><trkpt lat="40.0169822" lon="16.1614576"><ele>1124.0</ele><time>2026-05-02T14:12:07.688Z</time></trkpt><trkpt lat="40.0169369" lon="16.1616012"><ele>1124.0</ele><time>2026-05-02T14:12:09.687Z</time></trkpt><trkpt lat="40.0168867" lon="16.1616724"><ele>1124.0</ele><time>2026-05-02T14:12:10.694Z</time></trkpt><trkpt lat="40.0168354" lon="16.1617478"><ele>1126.0</ele><time>2026-05-02T14:12:11.698Z</time></trkpt><trkpt lat="40.0167922" lon="16.1618228"><ele>1128.0</ele><time>2026-05-02T14:12:12.706Z</time></trkpt><trkpt lat="40.0167459" lon="16.1619678"><ele>1130.0</ele><time>2026-05-02T14:12:14.694Z</time></trkpt><trkpt lat="40.0167367" lon="16.1621067"><ele>1132.0</ele><time>2026-05-02T14:12:16.69Z</time></trkpt><trkpt lat="40.0167027" lon="16.1622204"><ele>1134.0</ele><time>2026-05-02T14:12:18.695Z</time></trkpt><trkpt lat="40.0166287" lon="16.1622929"><ele>1135.3333333333333</ele><time>2026-05-02T14:12:20.695Z</time></trkpt><trkpt lat="40.0165228" lon="16.162353"><ele>1136.6666666666667</ele><time>2026-05-02T14:12:22.689Z</time></trkpt><trkpt lat="40.0164602" lon="16.1623852"><ele>1138.0</ele><time>2026-05-02T14:12:23.688Z</time></trkpt><trkpt lat="40.0163953" lon="16.1624271"><ele>1139.3333333333335</ele><time>2026-05-02T14:12:24.708Z</time></trkpt><trkpt lat="40.016332" lon="16.162479"><ele>1140.6666666666667</ele><time>2026-05-02T14:12:25.703Z</time></trkpt><trkpt lat="40.016274" lon="16.1625304"><ele>1142.0</ele><time>2026-05-02T14:12:26.697Z</time></trkpt><trkpt lat="40.0161886" lon="16.1626074"><ele>1142.0</ele><time>2026-05-02T14:12:28.69Z</time></trkpt><trkpt lat="40.0161153" lon="16.162621"><ele>1142.0</ele><time>2026-05-02T14:12:30.689Z</time></trkpt><trkpt lat="40.0160454" lon="16.1625473"><ele>1142.0</ele><time>2026-05-02T14:12:33.695Z</time></trkpt><trkpt lat="40.0160375" lon="16.1624521"><ele>1142.0</ele><time>2026-05-02T14:12:35.693Z</time></trkpt><trkpt lat="40.0160778" lon="16.162338"><ele>1142.0</ele><time>2026-05-02T14:12:37.699Z</time></trkpt><trkpt lat="40.0161571" lon="16.1622152"><ele>1142.0</ele><time>2026-05-02T14:12:39.703Z</time></trkpt><trkpt lat="40.016206" lon="16.1621455"><ele>1142.0</ele><time>2026-05-02T14:12:40.686Z</time></trkpt><trkpt lat="40.0162575" lon="16.162066"><ele>1142.0</ele><time>2026-05-02T14:12:41.69Z</time></trkpt><trkpt lat="40.0163059" lon="16.1619826"><ele>1142.0</ele><time>2026-05-02T14:12:42.688Z</time></trkpt><trkpt lat="40.016354" lon="16.1618959"><ele>1142.0</ele><time>2026-05-02T14:12:43.692Z</time></trkpt><trkpt lat="40.0163999" lon="16.1618114"><ele>1142.0</ele><time>2026-05-02T14:12:44.695Z</time></trkpt><trkpt lat="40.0164378" lon="16.1617362"><ele>1142.0</ele><time>2026-05-02T14:12:45.69Z</time></trkpt><trkpt lat="40.0164869" lon="16.1616282"><ele>1142.0</ele><time>2026-05-02T14:12:47.698Z</time></trkpt><trkpt lat="40.0164866" lon="16.1615309"><ele>1142.0</ele><time>2026-05-02T14:12:49.699Z</time></trkpt><trkpt lat="40.0164375" lon="16.161471"><ele>1142.0</ele><time>2026-05-02T14:12:51.695Z</time></trkpt><trkpt lat="40.0163642" lon="16.1614777"><ele>1142.0</ele><time>2026-05-02T14:12:53.694Z</time></trkpt><trkpt lat="40.016273" lon="16.1615423"><ele>1142.0</ele><time>2026-05-02T14:12:55.689Z</time></trkpt><trkpt lat="40.0161601" lon="16.1616033"><ele>1142.0</ele><time>2026-05-02T14:12:57.69Z</time></trkpt><trkpt lat="40.0160915" lon="16.1616177"><ele>1142.0</ele><time>2026-05-02T14:12:58.695Z</time></trkpt><trkpt lat="40.0160146" lon="16.1616285"><ele>1142.0</ele><time>2026-05-02T14:12:59.686Z</time></trkpt><trkpt lat="40.0159368" lon="16.161646"><ele>1142.0</ele><time>2026-05-02T14:13:00.691Z</time></trkpt><trkpt lat="40.0158588" lon="16.1616665"><ele>1142.0</ele><time>2026-05-02T14:13:01.698Z</time></trkpt><trkpt lat="40.0157824" lon="16.1616829"><ele>1142.0</ele><time>2026-05-02T14:13:02.684Z</time></trkpt><trkpt lat="40.015713" lon="16.1616966"><ele>1138.8</ele><time>2026-05-02T14:13:03.692Z</time></trkpt><trkpt lat="40.0156003" lon="16.1617248"><ele>1135.6</ele><time>2026-05-02T14:13:05.699Z</time></trkpt><trkpt lat="40.015507" lon="16.1617857"><ele>1132.3999999999999</ele><time>2026-05-02T14:13:07.698Z</time></trkpt><trkpt lat="40.0154313" lon="16.1619185"><ele>1129.2</ele><time>2026-05-02T14:13:09.695Z</time></trkpt><trkpt lat="40.0153928" lon="16.1619878"><ele>1126.0</ele><time>2026-05-02T14:13:10.677Z</time></trkpt><trkpt lat="40.0153604" lon="16.1620636"><ele>1126.0</ele><time>2026-05-02T14:13:11.682Z</time></trkpt><trkpt lat="40.0153393" lon="16.1621563"><ele>1126.0</ele><time>2026-05-02T14:13:12.696Z</time></trkpt><trkpt lat="40.0153277" lon="16.1622464"><ele>1126.0</ele><time>2026-05-02T14:13:13.686Z</time></trkpt><trkpt lat="40.0153078" lon="16.1623244"><ele>1126.0</ele><time>2026-05-02T14:13:14.69Z</time></trkpt><trkpt lat="40.0152774" lon="16.1624"><ele>1126.0</ele><time>2026-05-02T14:13:15.696Z</time></trkpt><trkpt lat="40.0152339" lon="16.1624699"><ele>1126.0</ele><time>2026-05-02T14:13:16.692Z</time></trkpt><trkpt lat="40.015181" lon="16.16255"><ele>1126.0</ele><time>2026-05-02T14:13:17.697Z</time></trkpt><trkpt lat="40.0151255" lon="16.162647"><ele>1126.0</ele><time>2026-05-02T14:13:18.699Z</time></trkpt><trkpt lat="40.0150727" lon="16.1627519"><ele>1126.0</ele><time>2026-05-02T14:13:19.694Z</time></trkpt><trkpt lat="40.0150242" lon="16.162862"><ele>1126.0</ele><time>2026-05-02T14:13:20.695Z</time></trkpt><trkpt lat="40.0149857" lon="16.1629662"><ele>1126.0</ele><time>2026-05-02T14:13:21.715Z</time></trkpt><trkpt lat="40.014947" lon="16.163059"><ele>1126.0</ele><time>2026-05-02T14:13:22.683Z</time></trkpt><trkpt lat="40.0148952" lon="16.1631394"><ele>1126.0</ele><time>2026-05-02T14:13:23.691Z</time></trkpt><trkpt lat="40.0148459" lon="16.1632141"><ele>1128.1666666666665</ele><time>2026-05-02T14:13:24.687Z</time></trkpt><trkpt lat="40.0147899" lon="16.1632802"><ele>1130.3333333333333</ele><time>2026-05-02T14:13:25.691Z</time></trkpt><trkpt lat="40.0147278" lon="16.1633326"><ele>1132.5</ele><time>2026-05-02T14:13:26.68Z</time></trkpt><trkpt lat="40.0146589" lon="16.1633752"><ele>1134.6666666666667</ele><time>2026-05-02T14:13:27.685Z</time></trkpt><trkpt lat="40.0145983" lon="16.1634571"><ele>1136.8333333333335</ele><time>2026-05-02T14:13:28.693Z</time></trkpt><trkpt lat="40.0145488" lon="16.1635377"><ele>1139.0</ele><time>2026-05-02T14:13:29.692Z</time></trkpt><trkpt lat="40.014502" lon="16.1636067"><ele>1139.0</ele><time>2026-05-02T14:13:30.686Z</time></trkpt><trkpt lat="40.014454" lon="16.163673"><ele>1139.0</ele><time>2026-05-02T14:13:31.691Z</time></trkpt><trkpt lat="40.0144023" lon="16.1637218"><ele>1139.0</ele><time>2026-05-02T14:13:32.681Z</time></trkpt><trkpt lat="40.0143455" lon="16.1637703"><ele>1139.0</ele><time>2026-05-02T14:13:33.679Z</time></trkpt><trkpt lat="40.0142815" lon="16.1638152"><ele>1139.0</ele><time>2026-05-02T14:13:34.696Z</time></trkpt><trkpt lat="40.014214" lon="16.1638606"><ele>1139.0</ele><time>2026-05-02T14:13:35.69Z</time></trkpt><trkpt lat="40.0141457" lon="16.1639119"><ele>1139.0</ele><time>2026-05-02T14:13:36.687Z</time></trkpt><trkpt lat="40.0140863" lon="16.1639634"><ele>1138.5714285714287</ele><time>2026-05-02T14:13:37.693Z</time></trkpt><trkpt lat="40.014027" lon="16.1640183"><ele>1138.1428571428573</ele><time>2026-05-02T14:13:38.689Z</time></trkpt><trkpt lat="40.0139695" lon="16.1640763"><ele>1137.7142857142858</ele><time>2026-05-02T14:13:39.681Z</time></trkpt><trkpt lat="40.0139133" lon="16.1641454"><ele>1137.2857142857142</ele><time>2026-05-02T14:13:40.686Z</time></trkpt><trkpt lat="40.0138634" lon="16.1642169"><ele>1136.8571428571427</ele><time>2026-05-02T14:13:41.684Z</time></trkpt><trkpt lat="40.0138184" lon="16.1642912"><ele>1136.4285714285713</ele><time>2026-05-02T14:13:42.679Z</time></trkpt><trkpt lat="40.0137718" lon="16.164361"><ele>1136.0</ele><time>2026-05-02T14:13:43.685Z</time></trkpt><trkpt lat="40.0137283" lon="16.1644296"><ele>1136.0</ele><time>2026-05-02T14:13:44.691Z</time></trkpt><trkpt lat="40.0136887" lon="16.1644945"><ele>1136.0</ele><time>2026-05-02T14:13:45.695Z</time></trkpt><trkpt lat="40.0136289" lon="16.1646412"><ele>1136.0</ele><time>2026-05-02T14:13:47.694Z</time></trkpt><trkpt lat="40.0136132" lon="16.1647456"><ele>1136.0</ele><time>2026-05-02T14:13:48.699Z</time></trkpt><trkpt lat="40.0135965" lon="16.1648512"><ele>1136.0</ele><time>2026-05-02T14:13:49.698Z</time></trkpt><trkpt lat="40.0135811" lon="16.1649405"><ele>1136.0</ele><time>2026-05-02T14:13:50.697Z</time></trkpt><trkpt lat="40.0135328" lon="16.1650811"><ele>1134.5</ele><time>2026-05-02T14:13:52.691Z</time></trkpt><trkpt lat="40.0134918" lon="16.1651554"><ele>1133.0</ele><time>2026-05-02T14:13:53.691Z</time></trkpt><trkpt lat="40.0134437" lon="16.1652245"><ele>1131.5</ele><time>2026-05-02T14:13:54.692Z</time></trkpt><trkpt lat="40.0133818" lon="16.165283"><ele>1130.0</ele><time>2026-05-02T14:13:55.694Z</time></trkpt><trkpt lat="40.0133074" lon="16.165329"><ele>1128.5</ele><time>2026-05-02T14:13:56.692Z</time></trkpt><trkpt lat="40.0132388" lon="16.1653781"><ele>1127.0</ele><time>2026-05-02T14:13:57.697Z</time></trkpt><trkpt lat="40.0131745" lon="16.1654374"><ele>1127.0</ele><time>2026-05-02T14:13:58.693Z</time></trkpt><trkpt lat="40.0131201" lon="16.1655058"><ele>1127.0</ele><time>2026-05-02T14:13:59.704Z</time></trkpt><trkpt lat="40.0130627" lon="16.1655856"><ele>1127.0</ele><time>2026-05-02T14:14:00.703Z</time></trkpt><trkpt lat="40.0130124" lon="16.1656863"><ele>1127.0</ele><time>2026-05-02T14:14:01.703Z</time></trkpt><trkpt lat="40.0129619" lon="16.1657974"><ele>1127.0</ele><time>2026-05-02T14:14:02.691Z</time></trkpt><trkpt lat="40.0129136" lon="16.1658999"><ele>1127.0</ele><time>2026-05-02T14:14:03.689Z</time></trkpt><trkpt lat="40.0128648" lon="16.1659904"><ele>1130.4</ele><time>2026-05-02T14:14:04.694Z</time></trkpt><trkpt lat="40.0128091" lon="16.1660792"><ele>1133.8000000000002</ele><time>2026-05-02T14:14:05.697Z</time></trkpt><trkpt lat="40.0127427" lon="16.1661647"><ele>1137.2</ele><time>2026-05-02T14:14:06.699Z</time></trkpt><trkpt lat="40.0126616" lon="16.1662468"><ele>1140.6000000000001</ele><time>2026-05-02T14:14:07.684Z</time></trkpt><trkpt lat="40.0125789" lon="16.1663377"><ele>1144.0</ele><time>2026-05-02T14:14:08.692Z</time></trkpt><trkpt lat="40.0125018" lon="16.1664326"><ele>1144.6000000000001</ele><time>2026-05-02T14:14:09.695Z</time></trkpt><trkpt lat="40.012438" lon="16.1665182"><ele>1145.2</ele><time>2026-05-02T14:14:10.704Z</time></trkpt><trkpt lat="40.012386" lon="16.1665867"><ele>1145.8000000000002</ele><time>2026-05-02T14:14:11.697Z</time></trkpt><trkpt lat="40.0122896" lon="16.1666669"><ele>1146.4</ele><time>2026-05-02T14:14:13.699Z</time></trkpt><trkpt lat="40.012186" lon="16.1667009"><ele>1147.0</ele><time>2026-05-02T14:14:15.694Z</time></trkpt><trkpt lat="40.0120767" lon="16.1667016"><ele>1147.0</ele><time>2026-05-02T14:14:17.706Z</time></trkpt><trkpt lat="40.0119741" lon="16.1667419"><ele>1147.0</ele><time>2026-05-02T14:14:19.703Z</time></trkpt><trkpt lat="40.0119233" lon="16.1668052"><ele>1147.0</ele><time>2026-05-02T14:14:20.688Z</time></trkpt><trkpt lat="40.0118866" lon="16.1668919"><ele>1147.0</ele><time>2026-05-02T14:14:21.692Z</time></trkpt><trkpt lat="40.0118574" lon="16.1669935"><ele>1147.0</ele><time>2026-05-02T14:14:22.693Z</time></trkpt><trkpt lat="40.0118281" lon="16.1671023"><ele>1147.0</ele><time>2026-05-02T14:14:23.687Z</time></trkpt><trkpt lat="40.0118021" lon="16.1672049"><ele>1147.0</ele><time>2026-05-02T14:14:24.704Z</time></trkpt><trkpt lat="40.0117723" lon="16.1673054"><ele>1147.0</ele><time>2026-05-02T14:14:25.693Z</time></trkpt><trkpt lat="40.0117377" lon="16.1674064"><ele>1147.0</ele><time>2026-05-02T14:14:26.698Z</time></trkpt><trkpt lat="40.0116956" lon="16.1675007"><ele>1147.0</ele><time>2026-05-02T14:14:27.684Z</time></trkpt><trkpt lat="40.0116476" lon="16.1675919"><ele>1147.0</ele><time>2026-05-02T14:14:28.69Z</time></trkpt><trkpt lat="40.0115866" lon="16.1676782"><ele>1147.0</ele><time>2026-05-02T14:14:29.69Z</time></trkpt><trkpt lat="40.0115141" lon="16.1677601"><ele>1148.6</ele><time>2026-05-02T14:14:30.689Z</time></trkpt><trkpt lat="40.0114416" lon="16.1678399"><ele>1150.2</ele><time>2026-05-02T14:14:31.706Z</time></trkpt><trkpt lat="40.0113659" lon="16.1679348"><ele>1151.8</ele><time>2026-05-02T14:14:32.688Z</time></trkpt><trkpt lat="40.0112888" lon="16.1680377"><ele>1153.4</ele><time>2026-05-02T14:14:33.705Z</time></trkpt><trkpt lat="40.0112087" lon="16.16815"><ele>1155.0</ele><time>2026-05-02T14:14:34.695Z</time></trkpt><trkpt lat="40.0111269" lon="16.1682533"><ele>1155.0</ele><time>2026-05-02T14:14:35.685Z</time></trkpt><trkpt lat="40.0110537" lon="16.168344"><ele>1155.0</ele><time>2026-05-02T14:14:36.687Z</time></trkpt><trkpt lat="40.010984" lon="16.1684398"><ele>1155.0</ele><time>2026-05-02T14:14:37.696Z</time></trkpt><trkpt lat="40.0109176" lon="16.1685387"><ele>1155.0</ele><time>2026-05-02T14:14:38.696Z</time></trkpt><trkpt lat="40.0108553" lon="16.1686366"><ele>1155.0</ele><time>2026-05-02T14:14:39.689Z</time></trkpt><trkpt lat="40.0108101" lon="16.168725"><ele>1154.1666666666667</ele><time>2026-05-02T14:14:40.685Z</time></trkpt><trkpt lat="40.0107461" lon="16.168869"><ele>1153.3333333333333</ele><time>2026-05-02T14:14:42.681Z</time></trkpt><trkpt lat="40.0107267" lon="16.1689599"><ele>1152.5</ele><time>2026-05-02T14:14:43.694Z</time></trkpt><trkpt lat="40.0107169" lon="16.1690493"><ele>1151.6666666666665</ele><time>2026-05-02T14:14:44.685Z</time></trkpt><trkpt lat="40.0106925" lon="16.1691782"><ele>1150.8333333333333</ele><time>2026-05-02T14:14:46.683Z</time></trkpt><trkpt lat="40.0106494" lon="16.1692519"><ele>1150.0</ele><time>2026-05-02T14:14:48.692Z</time></trkpt><trkpt lat="40.0105956" lon="16.1693215"><ele>1150.0</ele><time>2026-05-02T14:15:00.703Z</time></trkpt><trkpt lat="40.0105009" lon="16.1693985"><ele>1150.0</ele><time>2026-05-02T14:15:03.701Z</time></trkpt><trkpt lat="40.0104393" lon="16.1694468"><ele>1150.0</ele><time>2026-05-02T14:15:04.692Z</time></trkpt><trkpt lat="40.010369" lon="16.1695012"><ele>1150.0</ele><time>2026-05-02T14:15:05.687Z</time></trkpt><trkpt lat="40.0102963" lon="16.1695655"><ele>1150.0</ele><time>2026-05-02T14:15:06.691Z</time></trkpt><trkpt lat="40.0102312" lon="16.1696353"><ele>1150.0</ele><time>2026-05-02T14:15:07.695Z</time></trkpt><trkpt lat="40.0101732" lon="16.1697089"><ele>1150.0</ele><time>2026-05-02T14:15:08.692Z</time></trkpt><trkpt lat="40.0101254" lon="16.1697896"><ele>1150.0</ele><time>2026-05-02T14:15:09.69Z</time></trkpt><trkpt lat="40.0100825" lon="16.1698652"><ele>1150.0</ele><time>2026-05-02T14:15:10.694Z</time></trkpt><trkpt lat="40.0100552" lon="16.1699428"><ele>1150.0</ele><time>2026-05-02T14:15:11.687Z</time></trkpt><trkpt lat="40.0100336" lon="16.1700915"><ele>1150.0</ele><time>2026-05-02T14:15:13.691Z</time></trkpt><trkpt lat="40.0100533" lon="16.170244"><ele>1152.4</ele><time>2026-05-02T14:15:15.697Z</time></trkpt><trkpt lat="40.0100813" lon="16.1703178"><ele>1154.8</ele><time>2026-05-02T14:15:16.688Z</time></trkpt><trkpt lat="40.0101547" lon="16.1704467"><ele>1157.2</ele><time>2026-05-02T14:15:18.693Z</time></trkpt><trkpt lat="40.0101839" lon="16.1705988"><ele>1159.6</ele><time>2026-05-02T14:15:20.701Z</time></trkpt><trkpt lat="40.0101477" lon="16.1707545"><ele>1162.0</ele><time>2026-05-02T14:15:22.69Z</time></trkpt><trkpt lat="40.0101131" lon="16.1708286"><ele>1163.5714285714287</ele><time>2026-05-02T14:15:23.695Z</time></trkpt><trkpt lat="40.01007" lon="16.1708909"><ele>1165.142857142857</ele><time>2026-05-02T14:15:24.691Z</time></trkpt><trkpt lat="40.0100236" lon="16.1709503"><ele>1166.7142857142858</ele><time>2026-05-02T14:15:25.694Z</time></trkpt><trkpt lat="40.0099742" lon="16.1710029"><ele>1168.2857142857142</ele><time>2026-05-02T14:15:26.695Z</time></trkpt><trkpt lat="40.0099138" lon="16.1710411"><ele>1169.857142857143</ele><time>2026-05-02T14:15:27.69Z</time></trkpt><trkpt lat="40.009844" lon="16.1710764"><ele>1171.4285714285716</ele><time>2026-05-02T14:15:28.693Z</time></trkpt><trkpt lat="40.0097776" lon="16.171118"><ele>1173.0</ele><time>2026-05-02T14:15:29.687Z</time></trkpt><trkpt lat="40.0097191" lon="16.1711634"><ele>1175.0</ele><time>2026-05-02T14:15:30.695Z</time></trkpt><trkpt lat="40.0096728" lon="16.1712191"><ele>1177.0</ele><time>2026-05-02T14:15:31.698Z</time></trkpt><trkpt lat="40.0096155" lon="16.1713482"><ele>1179.0</ele><time>2026-05-02T14:15:33.69Z</time></trkpt><trkpt lat="40.0096014" lon="16.1714859"><ele>1181.0</ele><time>2026-05-02T14:15:35.699Z</time></trkpt><trkpt lat="40.0095525" lon="16.1716037"><ele>1183.0</ele><time>2026-05-02T14:15:37.694Z</time></trkpt><trkpt lat="40.0094481" lon="16.1716585"><ele>1183.0</ele><time>2026-05-02T14:15:39.694Z</time></trkpt><trkpt lat="40.0093524" lon="16.1716068"><ele>1183.0</ele><time>2026-05-02T14:15:41.688Z</time></trkpt><trkpt lat="40.0093248" lon="16.1714778"><ele>1183.0</ele><time>2026-05-02T14:15:43.71Z</time></trkpt><trkpt lat="40.0093309" lon="16.1713957"><ele>1183.0</ele><time>2026-05-02T14:15:44.687Z</time></trkpt><trkpt lat="40.009349" lon="16.1713155"><ele>1183.0</ele><time>2026-05-02T14:15:45.69Z</time></trkpt><trkpt lat="40.0093746" lon="16.1712311"><ele>1183.0</ele><time>2026-05-02T14:15:46.685Z</time></trkpt><trkpt lat="40.0094059" lon="16.1711438"><ele>1183.0</ele><time>2026-05-02T14:15:47.7Z</time></trkpt><trkpt lat="40.0094365" lon="16.1710494"><ele>1183.0</ele><time>2026-05-02T14:15:48.702Z</time></trkpt><trkpt lat="40.0094692" lon="16.1709538"><ele>1183.0</ele><time>2026-05-02T14:15:49.691Z</time></trkpt><trkpt lat="40.0094985" lon="16.1708781"><ele>1183.0</ele><time>2026-05-02T14:15:50.688Z</time></trkpt><trkpt lat="40.0095106" lon="16.1707865"><ele>1183.0</ele><time>2026-05-02T14:15:52.689Z</time></trkpt><trkpt lat="40.0094586" lon="16.1707194"><ele>1183.0</ele><time>2026-05-02T14:15:54.69Z</time></trkpt><trkpt lat="40.0093783" lon="16.170717"><ele>1183.0</ele><time>2026-05-02T14:15:56.68Z</time></trkpt><trkpt lat="40.009308" lon="16.1707629"><ele>1183.0</ele><time>2026-05-02T14:15:58.7Z</time></trkpt><trkpt lat="40.0092574" lon="16.1708692"><ele>1183.0</ele><time>2026-05-02T14:16:00.686Z</time></trkpt><trkpt lat="40.0092319" lon="16.1710032"><ele>1183.0</ele><time>2026-05-02T14:16:02.703Z</time></trkpt><trkpt lat="40.0092348" lon="16.1711454"><ele>1183.0</ele><time>2026-05-02T14:16:04.688Z</time></trkpt><trkpt lat="40.0091911" lon="16.1712902"><ele>1183.0</ele><time>2026-05-02T14:16:06.687Z</time></trkpt><trkpt lat="40.0091499" lon="16.1713539"><ele>1183.0</ele><time>2026-05-02T14:16:07.689Z</time></trkpt><trkpt lat="40.0090906" lon="16.1714179"><ele>1183.0</ele><time>2026-05-02T14:16:08.697Z</time></trkpt><trkpt lat="40.0090209" lon="16.1714816"><ele>1183.0</ele><time>2026-05-02T14:16:09.688Z</time></trkpt><trkpt lat="40.0089608" lon="16.1715536"><ele>1183.0</ele><time>2026-05-02T14:16:10.69Z</time></trkpt><trkpt lat="40.008913" lon="16.1716354"><ele>1183.0</ele><time>2026-05-02T14:16:11.686Z</time></trkpt><trkpt lat="40.0088688" lon="16.1717244"><ele>1183.0</ele><time>2026-05-02T14:16:12.694Z</time></trkpt><trkpt lat="40.0088287" lon="16.1718025"><ele>1183.0</ele><time>2026-05-02T14:16:13.694Z</time></trkpt><trkpt lat="40.0087837" lon="16.171874"><ele>1183.0</ele><time>2026-05-02T14:16:14.691Z</time></trkpt><trkpt lat="40.0087242" lon="16.1719405"><ele>1183.0</ele><time>2026-05-02T14:16:15.684Z</time></trkpt><trkpt lat="40.0086631" lon="16.1719934"><ele>1183.0</ele><time>2026-05-02T14:16:16.691Z</time></trkpt><trkpt lat="40.0086023" lon="16.1720392"><ele>1183.0</ele><time>2026-05-02T14:16:17.688Z</time></trkpt><trkpt lat="40.0085439" lon="16.1720939"><ele>1183.0</ele><time>2026-05-02T14:16:18.685Z</time></trkpt><trkpt lat="40.0084798" lon="16.1721425"><ele>1183.0</ele><time>2026-05-02T14:16:19.706Z</time></trkpt><trkpt lat="40.008423" lon="16.1721953"><ele>1183.0</ele><time>2026-05-02T14:16:20.685Z</time></trkpt><trkpt lat="40.0083726" lon="16.1722604"><ele>1183.0</ele><time>2026-05-02T14:16:21.694Z</time></trkpt><trkpt lat="40.0083394" lon="16.1723445"><ele>1183.0</ele><time>2026-05-02T14:16:22.69Z</time></trkpt><trkpt lat="40.0083193" lon="16.172433"><ele>1183.0</ele><time>2026-05-02T14:16:23.69Z</time></trkpt><trkpt lat="40.0083114" lon="16.1725248"><ele>1183.0</ele><time>2026-05-02T14:16:24.686Z</time></trkpt><trkpt lat="40.008311" lon="16.1726296"><ele>1183.0</ele><time>2026-05-02T14:16:25.702Z</time></trkpt><trkpt lat="40.008312" lon="16.1727383"><ele>1183.0</ele><time>2026-05-02T14:16:26.693Z</time></trkpt><trkpt lat="40.0083122" lon="16.1728532"><ele>1182.6666666666665</ele><time>2026-05-02T14:16:27.69Z</time></trkpt><trkpt lat="40.0083166" lon="16.172962"><ele>1182.3333333333333</ele><time>2026-05-02T14:16:28.69Z</time></trkpt><trkpt lat="40.0083153" lon="16.1730657"><ele>1182.0</ele><time>2026-05-02T14:16:29.701Z</time></trkpt><trkpt lat="40.0083079" lon="16.1731669"><ele>1181.6666666666667</ele><time>2026-05-02T14:16:30.699Z</time></trkpt><trkpt lat="40.008293" lon="16.1732716"><ele>1181.3333333333335</ele><time>2026-05-02T14:16:31.688Z</time></trkpt><trkpt lat="40.0082617" lon="16.1733851"><ele>1181.0</ele><time>2026-05-02T14:16:32.69Z</time></trkpt><trkpt lat="40.0082203" lon="16.1735056"><ele>1181.0</ele><time>2026-05-02T14:16:33.682Z</time></trkpt><trkpt lat="40.0081724" lon="16.1736209"><ele>1181.0</ele><time>2026-05-02T14:16:34.69Z</time></trkpt><trkpt lat="40.0081199" lon="16.1737209"><ele>1181.0</ele><time>2026-05-02T14:16:35.705Z</time></trkpt><trkpt lat="40.0080708" lon="16.1738095"><ele>1181.0</ele><time>2026-05-02T14:16:36.698Z</time></trkpt><trkpt lat="40.0080204" lon="16.1738836"><ele>1181.0</ele><time>2026-05-02T14:16:37.693Z</time></trkpt><trkpt lat="40.007961" lon="16.1739402"><ele>1181.0</ele><time>2026-05-02T14:16:38.692Z</time></trkpt><trkpt lat="40.007902" lon="16.173973"><ele>1181.0</ele><time>2026-05-02T14:16:39.689Z</time></trkpt><trkpt lat="40.0077972" lon="16.1739893"><ele>1181.0</ele><time>2026-05-02T14:16:41.683Z</time></trkpt><trkpt lat="40.0076959" lon="16.1739897"><ele>1181.0</ele><time>2026-05-02T14:16:43.692Z</time></trkpt><trkpt lat="40.0076026" lon="16.1740261"><ele>1181.0</ele><time>2026-05-02T14:16:45.685Z</time></trkpt><trkpt lat="40.0075255" lon="16.1741146"><ele>1181.0</ele><time>2026-05-02T14:16:47.686Z</time></trkpt><trkpt lat="40.0075079" lon="16.1742715"><ele>1183.0</ele><time>2026-05-02T14:16:49.694Z</time></trkpt><trkpt lat="40.0075144" lon="16.1743582"><ele>1185.0</ele><time>2026-05-02T14:16:50.691Z</time></trkpt><trkpt lat="40.0075333" lon="16.1744368"><ele>1187.0</ele><time>2026-05-02T14:16:51.692Z</time></trkpt><trkpt lat="40.0075733" lon="16.1745011"><ele>1189.0</ele><time>2026-05-02T14:16:52.695Z</time></trkpt><trkpt lat="40.0076208" lon="16.174564"><ele>1191.0</ele><time>2026-05-02T14:16:53.697Z</time></trkpt><trkpt lat="40.0076725" lon="16.1746314"><ele>1193.0</ele><time>2026-05-02T14:16:54.687Z</time></trkpt><trkpt lat="40.0077268" lon="16.1747012"><ele>1195.0</ele><time>2026-05-02T14:16:55.695Z</time></trkpt><trkpt lat="40.0077968" lon="16.1748261"><ele>1198.1666666666665</ele><time>2026-05-02T14:16:57.687Z</time></trkpt><trkpt lat="40.0078349" lon="16.1749429"><ele>1201.3333333333333</ele><time>2026-05-02T14:16:59.702Z</time></trkpt><trkpt lat="40.0078344" lon="16.175057"><ele>1204.5</ele><time>2026-05-02T14:17:01.691Z</time></trkpt><trkpt lat="40.0077836" lon="16.175118"><ele>1207.6666666666667</ele><time>2026-05-02T14:17:03.696Z</time></trkpt><trkpt lat="40.0077108" lon="16.1751113"><ele>1210.8333333333335</ele><time>2026-05-02T14:17:05.692Z</time></trkpt><trkpt lat="40.0076477" lon="16.1750235"><ele>1214.0</ele><time>2026-05-02T14:17:07.681Z</time></trkpt><trkpt lat="40.0075893" lon="16.1749026"><ele>1209.5</ele><time>2026-05-02T14:17:09.688Z</time></trkpt><trkpt lat="40.007499" lon="16.1748166"><ele>1205.0</ele><time>2026-05-02T14:17:11.683Z</time></trkpt><trkpt lat="40.0073822" lon="16.1748222"><ele>1200.5</ele><time>2026-05-02T14:17:13.696Z</time></trkpt><trkpt lat="40.0072669" lon="16.1748771"><ele>1196.0</ele><time>2026-05-02T14:17:15.68Z</time></trkpt><trkpt lat="40.0071861" lon="16.1749992"><ele>1196.0</ele><time>2026-05-02T14:17:17.682Z</time></trkpt><trkpt lat="40.0071471" lon="16.175088"><ele>1196.0</ele><time>2026-05-02T14:17:18.696Z</time></trkpt><trkpt lat="40.007112" lon="16.1751873"><ele>1196.0</ele><time>2026-05-02T14:17:19.689Z</time></trkpt><trkpt lat="40.0070807" lon="16.1752892"><ele>1196.0</ele><time>2026-05-02T14:17:20.685Z</time></trkpt><trkpt lat="40.0070441" lon="16.1753961"><ele>1196.0</ele><time>2026-05-02T14:17:21.692Z</time></trkpt><trkpt lat="40.0070082" lon="16.175494"><ele>1196.0</ele><time>2026-05-02T14:17:22.692Z</time></trkpt><trkpt lat="40.0069614" lon="16.17559"><ele>1196.0</ele><time>2026-05-02T14:17:23.708Z</time></trkpt><trkpt lat="40.0069096" lon="16.1756847"><ele>1196.0</ele><time>2026-05-02T14:17:24.691Z</time></trkpt><trkpt lat="40.0068606" lon="16.1757826"><ele>1196.0</ele><time>2026-05-02T14:17:25.706Z</time></trkpt><trkpt lat="40.0068121" lon="16.1758784"><ele>1196.0</ele><time>2026-05-02T14:17:26.695Z</time></trkpt><trkpt lat="40.0067568" lon="16.1759821"><ele>1196.0</ele><time>2026-05-02T14:17:27.7Z</time></trkpt><trkpt lat="40.0067014" lon="16.1760691"><ele>1195.6666666666667</ele><time>2026-05-02T14:17:28.694Z</time></trkpt><trkpt lat="40.0066466" lon="16.1761597"><ele>1195.3333333333335</ele><time>2026-05-02T14:17:29.695Z</time></trkpt><trkpt lat="40.0065847" lon="16.1762592"><ele>1195.0</ele><time>2026-05-02T14:17:30.688Z</time></trkpt><trkpt lat="40.0065282" lon="16.1763623"><ele>1194.6666666666667</ele><time>2026-05-02T14:17:31.691Z</time></trkpt><trkpt lat="40.0064824" lon="16.1764498"><ele>1194.3333333333333</ele><time>2026-05-02T14:17:32.699Z</time></trkpt><trkpt lat="40.0064355" lon="16.176527"><ele>1194.0</ele><time>2026-05-02T14:17:33.708Z</time></trkpt><trkpt lat="40.0063917" lon="16.1766"><ele>1197.8333333333333</ele><time>2026-05-02T14:17:34.685Z</time></trkpt><trkpt lat="40.006362" lon="16.1766757"><ele>1201.6666666666667</ele><time>2026-05-02T14:17:35.687Z</time></trkpt><trkpt lat="40.0063236" lon="16.1768104"><ele>1205.5</ele><time>2026-05-02T14:17:37.698Z</time></trkpt><trkpt lat="40.0063098" lon="16.1768987"><ele>1209.3333333333335</ele><time>2026-05-02T14:17:38.679Z</time></trkpt><trkpt lat="40.0063112" lon="16.1769889"><ele>1213.1666666666667</ele><time>2026-05-02T14:17:39.692Z</time></trkpt><trkpt lat="40.0063167" lon="16.1770734"><ele>1217.0</ele><time>2026-05-02T14:17:40.68Z</time></trkpt><trkpt lat="40.0063158" lon="16.177226"><ele>1220.0</ele><time>2026-05-02T14:17:42.682Z</time></trkpt><trkpt lat="40.0062972" lon="16.1773686"><ele>1223.0</ele><time>2026-05-02T14:17:44.682Z</time></trkpt><trkpt lat="40.0062281" lon="16.1774934"><ele>1226.0</ele><time>2026-05-02T14:17:46.686Z</time></trkpt><trkpt lat="40.0061285" lon="16.1775782"><ele>1229.0</ele><time>2026-05-02T14:17:48.694Z</time></trkpt><trkpt lat="40.0060146" lon="16.1776103"><ele>1229.0</ele><time>2026-05-02T14:17:50.694Z</time></trkpt><trkpt lat="40.0059483" lon="16.1776366"><ele>1229.0</ele><time>2026-05-02T14:17:51.697Z</time></trkpt><trkpt lat="40.0058781" lon="16.1776859"><ele>1229.0</ele><time>2026-05-02T14:17:52.696Z</time></trkpt><trkpt lat="40.0058131" lon="16.1777552"><ele>1229.0</ele><time>2026-05-02T14:17:53.7Z</time></trkpt><trkpt lat="40.005759" lon="16.1778444"><ele>1229.0</ele><time>2026-05-02T14:17:54.693Z</time></trkpt><trkpt lat="40.005713" lon="16.1779392"><ele>1229.0</ele><time>2026-05-02T14:17:55.69Z</time></trkpt><trkpt lat="40.0056596" lon="16.1780281"><ele>1229.3333333333335</ele><time>2026-05-02T14:17:56.695Z</time></trkpt><trkpt lat="40.0056029" lon="16.1781155"><ele>1229.6666666666667</ele><time>2026-05-02T14:17:57.7Z</time></trkpt><trkpt lat="40.0055446" lon="16.1781966"><ele>1230.0</ele><time>2026-05-02T14:17:58.695Z</time></trkpt><trkpt lat="40.0054857" lon="16.1782798"><ele>1230.3333333333333</ele><time>2026-05-02T14:17:59.679Z</time></trkpt><trkpt lat="40.0054367" lon="16.1783614"><ele>1230.6666666666665</ele><time>2026-05-02T14:18:00.682Z</time></trkpt><trkpt lat="40.0054095" lon="16.1784443"><ele>1231.0</ele><time>2026-05-02T14:18:01.703Z</time></trkpt><trkpt lat="40.0053946" lon="16.1785365"><ele>1231.0</ele><time>2026-05-02T14:18:02.701Z</time></trkpt><trkpt lat="40.0053874" lon="16.1786208"><ele>1231.0</ele><time>2026-05-02T14:18:03.687Z</time></trkpt><trkpt lat="40.0053753" lon="16.1787033"><ele>1231.0</ele><time>2026-05-02T14:18:04.691Z</time></trkpt><trkpt lat="40.0053398" lon="16.1788642"><ele>1231.0</ele><time>2026-05-02T14:18:06.696Z</time></trkpt><trkpt lat="40.0053118" lon="16.1789536"><ele>1231.0</ele><time>2026-05-02T14:18:07.697Z</time></trkpt><trkpt lat="40.0052847" lon="16.1790482"><ele>1231.0</ele><time>2026-05-02T14:18:08.685Z</time></trkpt><trkpt lat="40.0052697" lon="16.1791363"><ele>1233.0</ele><time>2026-05-02T14:18:09.695Z</time></trkpt><trkpt lat="40.0052731" lon="16.1792238"><ele>1235.0</ele><time>2026-05-02T14:18:10.697Z</time></trkpt><trkpt lat="40.0053026" lon="16.1793109"><ele>1237.0</ele><time>2026-05-02T14:18:11.691Z</time></trkpt><trkpt lat="40.0053499" lon="16.1793957"><ele>1239.0</ele><time>2026-05-02T14:18:12.684Z</time></trkpt><trkpt lat="40.0054065" lon="16.179467"><ele>1241.0</ele><time>2026-05-02T14:18:13.678Z</time></trkpt><trkpt lat="40.0054606" lon="16.1795326"><ele>1243.0</ele><time>2026-05-02T14:18:14.678Z</time></trkpt><trkpt lat="40.0054991" lon="16.1796034"><ele>1245.0</ele><time>2026-05-02T14:18:15.68Z</time></trkpt><trkpt lat="40.005521" lon="16.1796834"><ele>1245.0</ele><time>2026-05-02T14:18:16.685Z</time></trkpt><trkpt lat="40.0055285" lon="16.1797675"><ele>1245.0</ele><time>2026-05-02T14:18:17.702Z</time></trkpt><trkpt lat="40.0055318" lon="16.1798598"><ele>1245.0</ele><time>2026-05-02T14:18:18.685Z</time></trkpt><trkpt lat="40.0055228" lon="16.1799536"><ele>1245.0</ele><time>2026-05-02T14:18:19.678Z</time></trkpt><trkpt lat="40.0055104" lon="16.1800461"><ele>1245.0</ele><time>2026-05-02T14:18:20.691Z</time></trkpt><trkpt lat="40.0055021" lon="16.1801346"><ele>1245.0</ele><time>2026-05-02T14:18:21.697Z</time></trkpt><trkpt lat="40.0055142" lon="16.1802168"><ele>1245.0</ele><time>2026-05-02T14:18:22.681Z</time></trkpt><trkpt lat="40.0055707" lon="16.1803679"><ele>1248.2</ele><time>2026-05-02T14:18:24.673Z</time></trkpt><trkpt lat="40.0056029" lon="16.1804535"><ele>1251.4</ele><time>2026-05-02T14:18:25.675Z</time></trkpt><trkpt lat="40.0056195" lon="16.1805418"><ele>1254.6</ele><time>2026-05-02T14:18:26.696Z</time></trkpt><trkpt lat="40.0056117" lon="16.1807029"><ele>1257.8</ele><time>2026-05-02T14:18:28.706Z</time></trkpt><trkpt lat="40.005546" lon="16.1808317"><ele>1261.0</ele><time>2026-05-02T14:18:30.688Z</time></trkpt><trkpt lat="40.0054439" lon="16.1808827"><ele>1261.0</ele><time>2026-05-02T14:18:32.678Z</time></trkpt><trkpt lat="40.0053384" lon="16.1808322"><ele>1261.0</ele><time>2026-05-02T14:18:34.688Z</time></trkpt><trkpt lat="40.0053089" lon="16.1807072"><ele>1261.0</ele><time>2026-05-02T14:18:36.677Z</time></trkpt><trkpt lat="40.0053403" lon="16.1805907"><ele>1261.0</ele><time>2026-05-02T14:18:38.691Z</time></trkpt><trkpt lat="40.0053691" lon="16.1804738"><ele>1261.0</ele><time>2026-05-02T14:18:40.691Z</time></trkpt><trkpt lat="40.0053237" lon="16.1803428"><ele>1261.0</ele><time>2026-05-02T14:18:42.688Z</time></trkpt><trkpt lat="40.0052823" lon="16.1802746"><ele>1261.0</ele><time>2026-05-02T14:18:43.685Z</time></trkpt><trkpt lat="40.005243" lon="16.1802015"><ele>1261.0</ele><time>2026-05-02T14:18:44.683Z</time></trkpt><trkpt lat="40.0052038" lon="16.1801326"><ele>1261.0</ele><time>2026-05-02T14:18:45.694Z</time></trkpt><trkpt lat="40.0051272" lon="16.1800318"><ele>1261.0</ele><time>2026-05-02T14:18:47.692Z</time></trkpt><trkpt lat="40.005038" lon="16.1799839"><ele>1261.0</ele><time>2026-05-02T14:18:49.7Z</time></trkpt><trkpt lat="40.0049351" lon="16.180023"><ele>1259.7142857142858</ele><time>2026-05-02T14:18:51.693Z</time></trkpt><trkpt lat="40.0048872" lon="16.1800799"><ele>1258.4285714285713</ele><time>2026-05-02T14:18:52.693Z</time></trkpt><trkpt lat="40.0048466" lon="16.1801584"><ele>1257.142857142857</ele><time>2026-05-02T14:18:53.698Z</time></trkpt><trkpt lat="40.0048129" lon="16.1802364"><ele>1255.857142857143</ele><time>2026-05-02T14:18:54.693Z</time></trkpt><trkpt lat="40.004774" lon="16.1803144"><ele>1254.5714285714287</ele><time>2026-05-02T14:18:55.695Z</time></trkpt><trkpt lat="40.0047372" lon="16.1803965"><ele>1253.2857142857142</ele><time>2026-05-02T14:18:56.696Z</time></trkpt><trkpt lat="40.0047028" lon="16.180472"><ele>1252.0</ele><time>2026-05-02T14:18:57.707Z</time></trkpt><trkpt lat="40.0046686" lon="16.1805566"><ele>1252.0</ele><time>2026-05-02T14:18:58.693Z</time></trkpt><trkpt lat="40.0046361" lon="16.1806514"><ele>1252.0</ele><time>2026-05-02T14:18:59.712Z</time></trkpt><trkpt lat="40.0046022" lon="16.1807438"><ele>1252.0</ele><time>2026-05-02T14:19:00.694Z</time></trkpt><trkpt lat="40.0045666" lon="16.1808317"><ele>1252.0</ele><time>2026-05-02T14:19:01.695Z</time></trkpt><trkpt lat="40.0045287" lon="16.1809251"><ele>1252.0</ele><time>2026-05-02T14:19:02.683Z</time></trkpt><trkpt lat="40.0044854" lon="16.1810195"><ele>1252.0</ele><time>2026-05-02T14:19:03.693Z</time></trkpt><trkpt lat="40.0044426" lon="16.1811225"><ele>1256.0</ele><time>2026-05-02T14:19:04.685Z</time></trkpt><trkpt lat="40.004414" lon="16.1812264"><ele>1260.0</ele><time>2026-05-02T14:19:05.702Z</time></trkpt><trkpt lat="40.004383" lon="16.1813313"><ele>1264.0</ele><time>2026-05-02T14:19:06.697Z</time></trkpt><trkpt lat="40.0043552" lon="16.1814372"><ele>1268.0</ele><time>2026-05-02T14:19:07.679Z</time></trkpt><trkpt lat="40.0043292" lon="16.1815418"><ele>1272.0</ele><time>2026-05-02T14:19:08.677Z</time></trkpt><trkpt lat="40.004304" lon="16.1816487"><ele>1276.0</ele><time>2026-05-02T14:19:09.68Z</time></trkpt><trkpt lat="40.0042885" lon="16.181763"><ele>1277.5</ele><time>2026-05-02T14:19:10.695Z</time></trkpt><trkpt lat="40.0042851" lon="16.1818834"><ele>1279.0</ele><time>2026-05-02T14:19:11.691Z</time></trkpt><trkpt lat="40.0042869" lon="16.1819998"><ele>1280.5</ele><time>2026-05-02T14:19:12.679Z</time></trkpt><trkpt lat="40.0042913" lon="16.1821041"><ele>1282.0</ele><time>2026-05-02T14:19:13.681Z</time></trkpt><trkpt lat="40.0042687" lon="16.1822443"><ele>1283.5</ele><time>2026-05-02T14:19:15.688Z</time></trkpt><trkpt lat="40.0042228" lon="16.182303"><ele>1285.0</ele><time>2026-05-02T14:19:17.689Z</time></trkpt><trkpt lat="40.0041572" lon="16.1822982"><ele>1285.0</ele><time>2026-05-02T14:19:19.688Z</time></trkpt><trkpt lat="40.0041301" lon="16.182221"><ele>1285.0</ele><time>2026-05-02T14:19:21.693Z</time></trkpt><trkpt lat="40.0041361" lon="16.1820946"><ele>1285.0</ele><time>2026-05-02T14:19:23.688Z</time></trkpt><trkpt lat="40.0041686" lon="16.1819735"><ele>1285.0</ele><time>2026-05-02T14:19:25.686Z</time></trkpt><trkpt lat="40.0041584" lon="16.1818746"><ele>1285.0</ele><time>2026-05-02T14:19:26.692Z</time></trkpt><trkpt lat="40.0041431" lon="16.1817874"><ele>1285.0</ele><time>2026-05-02T14:19:27.678Z</time></trkpt><trkpt lat="40.0041182" lon="16.1817082"><ele>1285.0</ele><time>2026-05-02T14:19:28.685Z</time></trkpt><trkpt lat="40.0040773" lon="16.1816392"><ele>1285.0</ele><time>2026-05-02T14:19:29.693Z</time></trkpt><trkpt lat="40.0040297" lon="16.1815854"><ele>1285.0</ele><time>2026-05-02T14:19:30.675Z</time></trkpt><trkpt lat="40.0039442" lon="16.1814937"><ele>1285.0</ele><time>2026-05-02T14:19:32.692Z</time></trkpt><trkpt lat="40.0038515" lon="16.1814424"><ele>1285.0</ele><time>2026-05-02T14:19:34.69Z</time></trkpt><trkpt lat="40.0037698" lon="16.1814934"><ele>1285.0</ele><time>2026-05-02T14:19:36.694Z</time></trkpt><trkpt lat="40.0037269" lon="16.1816211"><ele>1285.0</ele><time>2026-05-02T14:19:38.68Z</time></trkpt><trkpt lat="40.0037585" lon="16.1817564"><ele>1285.0</ele><time>2026-05-02T14:19:40.699Z</time></trkpt><trkpt lat="40.0038193" lon="16.1818724"><ele>1285.0</ele><time>2026-05-02T14:19:42.686Z</time></trkpt><trkpt lat="40.0038402" lon="16.1820288"><ele>1285.0</ele><time>2026-05-02T14:19:44.681Z</time></trkpt><trkpt lat="40.0038099" lon="16.1821712"><ele>1285.0</ele><time>2026-05-02T14:19:46.693Z</time></trkpt><trkpt lat="40.0037305" lon="16.1823141"><ele>1285.0</ele><time>2026-05-02T14:19:48.685Z</time></trkpt><trkpt lat="40.0036735" lon="16.18238"><ele>1285.0</ele><time>2026-05-02T14:19:49.693Z</time></trkpt><trkpt lat="40.0036165" lon="16.182438"><ele>1285.0</ele><time>2026-05-02T14:19:50.694Z</time></trkpt><trkpt lat="40.0035576" lon="16.1824995"><ele>1285.0</ele><time>2026-05-02T14:19:51.698Z</time></trkpt><trkpt lat="40.0034944" lon="16.1825501"><ele>1285.0</ele><time>2026-05-02T14:19:52.693Z</time></trkpt><trkpt lat="40.0034307" lon="16.1825879"><ele>1283.2</ele><time>2026-05-02T14:19:53.689Z</time></trkpt><trkpt lat="40.0033143" lon="16.1826297"><ele>1281.4</ele><time>2026-05-02T14:19:55.703Z</time></trkpt><trkpt lat="40.0032219" lon="16.1826955"><ele>1279.6</ele><time>2026-05-02T14:19:57.702Z</time></trkpt><trkpt lat="40.0031789" lon="16.1827711"><ele>1277.8</ele><time>2026-05-02T14:19:59.682Z</time></trkpt><trkpt lat="40.0031909" lon="16.1828922"><ele>1276.0</ele><time>2026-05-02T14:20:02.675Z</time></trkpt><trkpt lat="40.0032425" lon="16.1829572"><ele>1281.0</ele><time>2026-05-02T14:20:04.686Z</time></trkpt><trkpt lat="40.0033456" lon="16.1829822"><ele>1286.0</ele><time>2026-05-02T14:20:06.668Z</time></trkpt><trkpt lat="40.0034603" lon="16.1829838"><ele>1291.0</ele><time>2026-05-02T14:20:08.692Z</time></trkpt><trkpt lat="40.0035386" lon="16.1830394"><ele>1296.0</ele><time>2026-05-02T14:20:10.692Z</time></trkpt><trkpt lat="40.0035664" lon="16.1831549"><ele>1301.0</ele><time>2026-05-02T14:20:12.676Z</time></trkpt><trkpt lat="40.0035471" lon="16.1832958"><ele>1302.857142857143</ele><time>2026-05-02T14:20:14.678Z</time></trkpt><trkpt lat="40.0035478" lon="16.1833806"><ele>1304.7142857142858</ele><time>2026-05-02T14:20:15.694Z</time></trkpt><trkpt lat="40.0035645" lon="16.1834647"><ele>1306.5714285714284</ele><time>2026-05-02T14:20:16.694Z</time></trkpt><trkpt lat="40.0035846" lon="16.1835535"><ele>1308.4285714285716</ele><time>2026-05-02T14:20:17.691Z</time></trkpt><trkpt lat="40.0036129" lon="16.1836411"><ele>1310.2857142857144</ele><time>2026-05-02T14:20:18.693Z</time></trkpt><trkpt lat="40.003648" lon="16.1837255"><ele>1312.142857142857</ele><time>2026-05-02T14:20:19.689Z</time></trkpt><trkpt lat="40.0036837" lon="16.183815"><ele>1314.0</ele><time>2026-05-02T14:20:20.678Z</time></trkpt><trkpt lat="40.0037215" lon="16.1839031"><ele>1314.0</ele><time>2026-05-02T14:20:21.695Z</time></trkpt><trkpt lat="40.0037552" lon="16.1839889"><ele>1314.0</ele><time>2026-05-02T14:20:22.686Z</time></trkpt><trkpt lat="40.0037848" lon="16.1840715"><ele>1314.0</ele><time>2026-05-02T14:20:23.688Z</time></trkpt><trkpt lat="40.0038109" lon="16.184156"><ele>1314.0</ele><time>2026-05-02T14:20:24.693Z</time></trkpt><trkpt lat="40.0038338" lon="16.1842395"><ele>1314.0</ele><time>2026-05-02T14:20:25.691Z</time></trkpt><trkpt lat="40.0038513" lon="16.1843379"><ele>1314.0</ele><time>2026-05-02T14:20:26.697Z</time></trkpt><trkpt lat="40.0038637" lon="16.1844428"><ele>1314.0</ele><time>2026-05-02T14:20:27.7Z</time></trkpt><trkpt lat="40.0038712" lon="16.184541"><ele>1315.8333333333333</ele><time>2026-05-02T14:20:28.692Z</time></trkpt><trkpt lat="40.0038704" lon="16.1846245"><ele>1317.6666666666667</ele><time>2026-05-02T14:20:29.695Z</time></trkpt><trkpt lat="40.0038434" lon="16.1847366"><ele>1319.5</ele><time>2026-05-02T14:20:31.691Z</time></trkpt><trkpt lat="40.0037622" lon="16.184802"><ele>1321.3333333333335</ele><time>2026-05-02T14:20:33.685Z</time></trkpt><trkpt lat="40.0036814" lon="16.1847935"><ele>1323.1666666666667</ele><time>2026-05-02T14:20:35.684Z</time></trkpt><trkpt lat="40.0036109" lon="16.1847021"><ele>1325.0</ele><time>2026-05-02T14:20:37.683Z</time></trkpt><trkpt lat="40.0035601" lon="16.1845714"><ele>1325.0</ele><time>2026-05-02T14:20:39.705Z</time></trkpt><trkpt lat="40.0035049" lon="16.1844317"><ele>1325.0</ele><time>2026-05-02T14:20:41.688Z</time></trkpt><trkpt lat="40.0034268" lon="16.1843218"><ele>1325.0</ele><time>2026-05-02T14:20:43.672Z</time></trkpt><trkpt lat="40.0033404" lon="16.1842893"><ele>1325.0</ele><time>2026-05-02T14:20:45.677Z</time></trkpt><trkpt lat="40.0032684" lon="16.1843544"><ele>1325.0</ele><time>2026-05-02T14:20:47.684Z</time></trkpt><trkpt lat="40.0032099" lon="16.1844878"><ele>1324.5714285714287</ele><time>2026-05-02T14:20:49.676Z</time></trkpt><trkpt lat="40.0032008" lon="16.1845745"><ele>1324.142857142857</ele><time>2026-05-02T14:20:50.683Z</time></trkpt><trkpt lat="40.0032113" lon="16.1846558"><ele>1323.7142857142858</ele><time>2026-05-02T14:20:51.678Z</time></trkpt><trkpt lat="40.0032336" lon="16.1847361"><ele>1323.2857142857142</ele><time>2026-05-02T14:20:52.68Z</time></trkpt><trkpt lat="40.0032669" lon="16.1848136"><ele>1322.857142857143</ele><time>2026-05-02T14:20:53.68Z</time></trkpt><trkpt lat="40.0032993" lon="16.1848952"><ele>1322.4285714285713</ele><time>2026-05-02T14:20:54.676Z</time></trkpt><trkpt lat="40.0033342" lon="16.1849779"><ele>1322.0</ele><time>2026-05-02T14:20:55.689Z</time></trkpt><trkpt lat="40.0033942" lon="16.1850907"><ele>1324.3333333333335</ele><time>2026-05-02T14:20:57.688Z</time></trkpt><trkpt lat="40.0034266" lon="16.1851621"><ele>1326.6666666666667</ele><time>2026-05-02T14:32:19.688Z</time></trkpt><trkpt lat="40.0034399" lon="16.1852445"><ele>1329.0</ele><time>2026-05-02T14:32:21.688Z</time></trkpt><trkpt lat="40.0034657" lon="16.1853797"><ele>1331.3333333333333</ele><time>2026-05-02T14:32:23.684Z</time></trkpt><trkpt lat="40.0034939" lon="16.185531"><ele>1333.6666666666665</ele><time>2026-05-02T14:32:25.697Z</time></trkpt><trkpt lat="40.0035009" lon="16.1856171"><ele>1336.0</ele><time>2026-05-02T14:32:26.69Z</time></trkpt><trkpt lat="40.0034852" lon="16.1857363"><ele>1336.5</ele><time>2026-05-02T14:32:29.691Z</time></trkpt><trkpt lat="40.0034246" lon="16.1857833"><ele>1337.0</ele><time>2026-05-02T14:32:31.681Z</time></trkpt><trkpt lat="40.0033493" lon="16.1857775"><ele>1337.5</ele><time>2026-05-02T14:32:33.688Z</time></trkpt><trkpt lat="40.0032912" lon="16.1856725"><ele>1338.0</ele><time>2026-05-02T14:32:36.68Z</time></trkpt><trkpt lat="40.0032234" lon="16.1855536"><ele>1338.5</ele><time>2026-05-02T14:32:38.681Z</time></trkpt><trkpt lat="40.0031752" lon="16.1854995"><ele>1339.0</ele><time>2026-05-02T14:32:39.691Z</time></trkpt><trkpt lat="40.0030823" lon="16.1854528"><ele>1338.5</ele><time>2026-05-02T14:32:41.686Z</time></trkpt><trkpt lat="40.0029983" lon="16.1854886"><ele>1338.0</ele><time>2026-05-02T14:32:43.683Z</time></trkpt><trkpt lat="40.0029303" lon="16.1856035"><ele>1337.5</ele><time>2026-05-02T14:32:45.678Z</time></trkpt><trkpt lat="40.0029094" lon="16.185692"><ele>1337.0</ele><time>2026-05-02T14:32:46.675Z</time></trkpt><trkpt lat="40.0028917" lon="16.1857812"><ele>1336.5</ele><time>2026-05-02T14:32:47.683Z</time></trkpt><trkpt lat="40.0028896" lon="16.1858726"><ele>1336.0</ele><time>2026-05-02T14:32:48.692Z</time></trkpt><trkpt lat="40.0028934" lon="16.1859796"><ele>1336.0</ele><time>2026-05-02T14:32:49.686Z</time></trkpt><trkpt lat="40.0028642" lon="16.186095"><ele>1336.0</ele><time>2026-05-02T14:32:50.688Z</time></trkpt><trkpt lat="40.0028253" lon="16.1862089"><ele>1336.0</ele><time>2026-05-02T14:32:51.687Z</time></trkpt><trkpt lat="40.0027842" lon="16.1863299"><ele>1336.0</ele><time>2026-05-02T14:32:52.675Z</time></trkpt><trkpt lat="40.00274" lon="16.1864335"><ele>1336.0</ele><time>2026-05-02T14:32:53.695Z</time></trkpt><trkpt lat="40.0026913" lon="16.1865262"><ele>1337.1999999999998</ele><time>2026-05-02T14:32:54.68Z</time></trkpt><trkpt lat="40.0026435" lon="16.1866173"><ele>1338.3999999999999</ele><time>2026-05-02T14:32:55.688Z</time></trkpt><trkpt lat="40.0025973" lon="16.18671"><ele>1339.6</ele><time>2026-05-02T14:32:56.691Z</time></trkpt><trkpt lat="40.0025488" lon="16.1868042"><ele>1340.8</ele><time>2026-05-02T14:32:57.69Z</time></trkpt><trkpt lat="40.0025077" lon="16.1868877"><ele>1342.0</ele><time>2026-05-02T14:32:58.687Z</time></trkpt><trkpt lat="40.0024511" lon="16.1870291"><ele>1342.0</ele><time>2026-05-02T14:33:00.663Z</time></trkpt><trkpt lat="40.0024196" lon="16.1871056"><ele>1342.0</ele><time>2026-05-02T14:33:01.685Z</time></trkpt><trkpt lat="40.0023852" lon="16.187179"><ele>1342.0</ele><time>2026-05-02T14:33:02.677Z</time></trkpt><trkpt lat="40.0023247" lon="16.1872913"><ele>1342.0</ele><time>2026-05-02T14:33:04.674Z</time></trkpt><trkpt lat="40.002235" lon="16.1874005"><ele>1342.0</ele><time>2026-05-02T14:33:06.687Z</time></trkpt><trkpt lat="40.0021467" lon="16.1874902"><ele>1345.0</ele><time>2026-05-02T14:33:08.701Z</time></trkpt><trkpt lat="40.002101" lon="16.1875531"><ele>1348.0</ele><time>2026-05-02T14:33:09.692Z</time></trkpt><trkpt lat="40.0020586" lon="16.1876241"><ele>1351.0</ele><time>2026-05-02T14:33:10.678Z</time></trkpt><trkpt lat="40.0020058" lon="16.1877628"><ele>1354.0</ele><time>2026-05-02T14:33:12.683Z</time></trkpt><trkpt lat="40.0019766" lon="16.1879292"><ele>1357.0</ele><time>2026-05-02T14:33:14.684Z</time></trkpt><trkpt lat="40.0019814" lon="16.18802"><ele>1357.0</ele><time>2026-05-02T14:33:15.682Z</time></trkpt><trkpt lat="40.001986" lon="16.1881279"><ele>1357.0</ele><time>2026-05-02T14:33:16.69Z</time></trkpt><trkpt lat="40.0019902" lon="16.18824"><ele>1357.0</ele><time>2026-05-02T14:33:17.685Z</time></trkpt><trkpt lat="40.0019926" lon="16.1883412"><ele>1357.0</ele><time>2026-05-02T14:33:18.684Z</time></trkpt><trkpt lat="40.0020059" lon="16.1884357"><ele>1357.0</ele><time>2026-05-02T14:33:19.682Z</time></trkpt><trkpt lat="40.0020218" lon="16.1885354"><ele>1357.0</ele><time>2026-05-02T14:33:20.677Z</time></trkpt><trkpt lat="40.0020354" lon="16.188628"><ele>1358.8333333333333</ele><time>2026-05-02T14:33:21.685Z</time></trkpt><trkpt lat="40.0020369" lon="16.1887119"><ele>1360.6666666666665</ele><time>2026-05-02T14:33:22.691Z</time></trkpt><trkpt lat="40.0020328" lon="16.1888015"><ele>1362.5</ele><time>2026-05-02T14:33:23.691Z</time></trkpt><trkpt lat="40.0020299" lon="16.1888924"><ele>1364.3333333333333</ele><time>2026-05-02T14:33:24.678Z</time></trkpt><trkpt lat="40.0020227" lon="16.189038"><ele>1366.1666666666667</ele><time>2026-05-02T14:33:26.676Z</time></trkpt><trkpt lat="40.0020218" lon="16.1891691"><ele>1368.0</ele><time>2026-05-02T14:33:28.687Z</time></trkpt><trkpt lat="40.0020024" lon="16.1892994"><ele>1369.2857142857142</ele><time>2026-05-02T14:33:30.69Z</time></trkpt><trkpt lat="40.0019553" lon="16.1894251"><ele>1370.5714285714284</ele><time>2026-05-02T14:33:32.683Z</time></trkpt><trkpt lat="40.0019211" lon="16.1894949"><ele>1371.8571428571427</ele><time>2026-05-02T14:33:33.677Z</time></trkpt><trkpt lat="40.0018797" lon="16.1895578"><ele>1373.142857142857</ele><time>2026-05-02T14:33:34.692Z</time></trkpt><trkpt lat="40.0018299" lon="16.1896223"><ele>1374.4285714285716</ele><time>2026-05-02T14:33:35.681Z</time></trkpt><trkpt lat="40.0017796" lon="16.1896874"><ele>1375.7142857142856</ele><time>2026-05-02T14:33:36.684Z</time></trkpt><trkpt lat="40.0017351" lon="16.1897507"><ele>1377.0</ele><time>2026-05-02T14:33:37.688Z</time></trkpt><trkpt lat="40.0016556" lon="16.1898813"><ele>1380.0</ele><time>2026-05-02T14:33:39.678Z</time></trkpt><trkpt lat="40.0016058" lon="16.1900329"><ele>1383.0</ele><time>2026-05-02T14:33:41.673Z</time></trkpt><trkpt lat="40.0016177" lon="16.190177"><ele>1386.0</ele><time>2026-05-02T14:33:43.672Z</time></trkpt><trkpt lat="40.0016147" lon="16.1902843"><ele>1389.0</ele><time>2026-05-02T14:33:46.687Z</time></trkpt><trkpt lat="40.0015726" lon="16.1903847"><ele>1392.0</ele><time>2026-05-02T14:33:49.684Z</time></trkpt><trkpt lat="40.0015162" lon="16.1904521"><ele>1392.0</ele><time>2026-05-02T14:33:51.692Z</time></trkpt><trkpt lat="40.0014616" lon="16.1904956"><ele>1392.0</ele><time>2026-05-02T14:33:53.672Z</time></trkpt><trkpt lat="40.0013817" lon="16.1904351"><ele>1392.0</ele><time>2026-05-02T14:33:56.682Z</time></trkpt><trkpt lat="40.0013375" lon="16.1903107"><ele>1392.0</ele><time>2026-05-02T14:33:58.689Z</time></trkpt><trkpt lat="40.0012981" lon="16.1901589"><ele>1392.0</ele><time>2026-05-02T14:34:00.69Z</time></trkpt><trkpt lat="40.001281" lon="16.1900793"><ele>1392.0</ele><time>2026-05-02T14:34:01.699Z</time></trkpt><trkpt lat="40.0012662" lon="16.1899963"><ele>1392.0</ele><time>2026-05-02T14:34:02.688Z</time></trkpt><trkpt lat="40.0012643" lon="16.1898501"><ele>1392.0</ele><time>2026-05-02T14:34:04.676Z</time></trkpt><trkpt lat="40.0012441" lon="16.1897151"><ele>1392.0</ele><time>2026-05-02T14:34:06.681Z</time></trkpt><trkpt lat="40.0011621" lon="16.1896141"><ele>1392.0</ele><time>2026-05-02T14:34:08.679Z</time></trkpt><trkpt lat="40.0010933" lon="16.1895681"><ele>1392.0</ele><time>2026-05-02T14:34:09.682Z</time></trkpt><trkpt lat="40.0010042" lon="16.1895264"><ele>1390.8333333333333</ele><time>2026-05-02T14:34:10.686Z</time></trkpt><trkpt lat="40.0009143" lon="16.18949"><ele>1389.6666666666667</ele><time>2026-05-02T14:34:11.685Z</time></trkpt><trkpt lat="40.0008243" lon="16.1894555"><ele>1388.5</ele><time>2026-05-02T14:34:12.675Z</time></trkpt><trkpt lat="40.0007447" lon="16.189424"><ele>1387.3333333333335</ele><time>2026-05-02T14:34:13.681Z</time></trkpt><trkpt lat="40.0006716" lon="16.1893908"><ele>1386.1666666666667</ele><time>2026-05-02T14:34:14.684Z</time></trkpt><trkpt lat="40.0005919" lon="16.189369"><ele>1385.0</ele><time>2026-05-02T14:34:15.693Z</time></trkpt><trkpt lat="40.0005121" lon="16.1893599"><ele>1385.0</ele><time>2026-05-02T14:34:16.683Z</time></trkpt><trkpt lat="40.0004437" lon="16.1893571"><ele>1385.0</ele><time>2026-05-02T14:34:17.686Z</time></trkpt><trkpt lat="40.0003378" lon="16.1893397"><ele>1385.0</ele><time>2026-05-02T14:34:19.692Z</time></trkpt><trkpt lat="40.0002642" lon="16.1893167"><ele>1385.0</ele><time>2026-05-02T14:34:21.688Z</time></trkpt><trkpt lat="40.0002028" lon="16.1892627"><ele>1385.0</ele><time>2026-05-02T14:34:27.676Z</time></trkpt><trkpt lat="40.0001467" lon="16.1892208"><ele>1385.0</ele><time>2026-05-02T14:34:29.682Z</time></trkpt><trkpt lat="40.0000511" lon="16.1892071"><ele>1385.0</ele><time>2026-05-02T14:34:31.677Z</time></trkpt><trkpt lat="39.9999311" lon="16.1892549"><ele>1385.0</ele><time>2026-05-02T14:34:33.7Z</time></trkpt><trkpt lat="39.9998221" lon="16.1892819"><ele>1385.0</ele><time>2026-05-02T14:34:35.685Z</time></trkpt><trkpt lat="39.9997185" lon="16.189248"><ele>1385.0</ele><time>2026-05-02T14:34:37.677Z</time></trkpt><trkpt lat="39.9996193" lon="16.1891863"><ele>1385.0</ele><time>2026-05-02T14:34:39.678Z</time></trkpt><trkpt lat="39.9995287" lon="16.1891655"><ele>1385.0</ele><time>2026-05-02T14:34:41.685Z</time></trkpt><trkpt lat="39.9994744" lon="16.189225"><ele>1385.0</ele><time>2026-05-02T14:34:43.683Z</time></trkpt><trkpt lat="39.9994336" lon="16.1893424"><ele>1385.0</ele><time>2026-05-02T14:34:45.686Z</time></trkpt><trkpt lat="39.9994099" lon="16.1894954"><ele>1385.0</ele><time>2026-05-02T14:34:47.692Z</time></trkpt><trkpt lat="39.9994029" lon="16.1896616"><ele>1385.0</ele><time>2026-05-02T14:34:49.69Z</time></trkpt><trkpt lat="39.999398" lon="16.1897536"><ele>1385.0</ele><time>2026-05-02T14:34:50.7Z</time></trkpt><trkpt lat="39.9994047" lon="16.1898467"><ele>1385.0</ele><time>2026-05-02T14:34:51.701Z</time></trkpt><trkpt lat="39.9994144" lon="16.1899414"><ele>1385.0</ele><time>2026-05-02T14:34:52.697Z</time></trkpt><trkpt lat="39.999428" lon="16.1900315"><ele>1385.0</ele><time>2026-05-02T14:34:53.694Z</time></trkpt><trkpt lat="39.9994361" lon="16.1901213"><ele>1385.0</ele><time>2026-05-02T14:34:54.689Z</time></trkpt><trkpt lat="39.999453" lon="16.1902066"><ele>1385.0</ele><time>2026-05-02T14:34:55.687Z</time></trkpt><trkpt lat="39.999474" lon="16.190294"><ele>1387.6666666666667</ele><time>2026-05-02T14:34:56.691Z</time></trkpt><trkpt lat="39.9994973" lon="16.1903846"><ele>1390.3333333333335</ele><time>2026-05-02T14:34:57.707Z</time></trkpt><trkpt lat="39.9995191" lon="16.1904754"><ele>1393.0</ele><time>2026-05-02T14:34:58.684Z</time></trkpt><trkpt lat="39.9995472" lon="16.1905614"><ele>1395.6666666666667</ele><time>2026-05-02T14:34:59.707Z</time></trkpt><trkpt lat="39.9995769" lon="16.1906376"><ele>1398.3333333333333</ele><time>2026-05-02T14:35:00.698Z</time></trkpt><trkpt lat="39.9996417" lon="16.1907708"><ele>1401.0</ele><time>2026-05-02T14:35:02.688Z</time></trkpt><trkpt lat="39.999749" lon="16.1908486"><ele>1401.5</ele><time>2026-05-02T14:35:04.689Z</time></trkpt><trkpt lat="39.9998121" lon="16.1908703"><ele>1402.0</ele><time>2026-05-02T14:35:05.679Z</time></trkpt><trkpt lat="39.9999171" lon="16.1909205"><ele>1402.5</ele><time>2026-05-02T14:35:07.686Z</time></trkpt><trkpt lat="39.9999515" lon="16.1909928"><ele>1403.0</ele><time>2026-05-02T14:35:08.695Z</time></trkpt><trkpt lat="39.9999798" lon="16.1910744"><ele>1403.5</ele><time>2026-05-02T14:35:09.689Z</time></trkpt><trkpt lat="40.0000097" lon="16.1911706"><ele>1404.0</ele><time>2026-05-02T14:35:10.688Z</time></trkpt><trkpt lat="40.0000361" lon="16.1912558"><ele>1404.0</ele><time>2026-05-02T14:35:11.69Z</time></trkpt><trkpt lat="40.0000653" lon="16.1914054"><ele>1404.0</ele><time>2026-05-02T14:35:13.682Z</time></trkpt><trkpt lat="40.0000599" lon="16.1915463"><ele>1404.0</ele><time>2026-05-02T14:35:15.68Z</time></trkpt><trkpt lat="40.0000329" lon="16.191655"><ele>1404.0</ele><time>2026-05-02T14:35:17.684Z</time></trkpt><trkpt lat="39.9999847" lon="16.19173"><ele>1404.0</ele><time>2026-05-02T14:35:20.68Z</time></trkpt><trkpt lat="39.9999419" lon="16.1917991"><ele>1404.3333333333333</ele><time>2026-05-02T14:35:22.707Z</time></trkpt><trkpt lat="39.9998674" lon="16.1918942"><ele>1404.6666666666667</ele><time>2026-05-02T14:35:24.682Z</time></trkpt><trkpt lat="39.9998244" lon="16.1920046"><ele>1405.0</ele><time>2026-05-02T14:35:26.686Z</time></trkpt><trkpt lat="39.999809" lon="16.1921181"><ele>1405.3333333333335</ele><time>2026-05-02T14:35:28.686Z</time></trkpt><trkpt lat="39.9998205" lon="16.1922127"><ele>1405.6666666666667</ele><time>2026-05-02T14:35:29.687Z</time></trkpt><trkpt lat="39.9998412" lon="16.1923187"><ele>1406.0</ele><time>2026-05-02T14:35:30.697Z</time></trkpt><trkpt lat="39.9998694" lon="16.1924254"><ele>1406.3333333333335</ele><time>2026-05-02T14:35:31.694Z</time></trkpt><trkpt lat="39.9999017" lon="16.1925213"><ele>1406.6666666666667</ele><time>2026-05-02T14:35:32.68Z</time></trkpt><trkpt lat="39.9999309" lon="16.1926164"><ele>1407.0</ele><time>2026-05-02T14:35:33.687Z</time></trkpt><trkpt lat="39.99995" lon="16.192703"><ele>1407.3333333333333</ele><time>2026-05-02T14:35:34.687Z</time></trkpt><trkpt lat="39.9999618" lon="16.1928682"><ele>1407.6666666666665</ele><time>2026-05-02T14:35:36.684Z</time></trkpt><trkpt lat="39.9999564" lon="16.1929613"><ele>1408.0</ele><time>2026-05-02T14:35:37.69Z</time></trkpt><trkpt lat="39.9999038" lon="16.193109"><ele>1408.5714285714287</ele><time>2026-05-02T14:35:39.681Z</time></trkpt><trkpt lat="39.9998661" lon="16.193177"><ele>1409.142857142857</ele><time>2026-05-02T14:35:40.681Z</time></trkpt><trkpt lat="39.9998254" lon="16.1932406"><ele>1409.7142857142858</ele><time>2026-05-02T14:35:41.696Z</time></trkpt><trkpt lat="39.9997781" lon="16.1933017"><ele>1410.2857142857142</ele><time>2026-05-02T14:35:42.685Z</time></trkpt><trkpt lat="39.9997232" lon="16.1933641"><ele>1410.857142857143</ele><time>2026-05-02T14:35:43.694Z</time></trkpt><trkpt lat="39.9996655" lon="16.1934276"><ele>1411.4285714285713</ele><time>2026-05-02T14:35:44.686Z</time></trkpt><trkpt lat="39.9996144" lon="16.1935003"><ele>1412.0</ele><time>2026-05-02T14:35:45.706Z</time></trkpt><trkpt lat="39.999571" lon="16.1935796"><ele>1412.0</ele><time>2026-05-02T14:35:46.693Z</time></trkpt><trkpt lat="39.9995421" lon="16.1936633"><ele>1412.0</ele><time>2026-05-02T14:35:47.691Z</time></trkpt><trkpt lat="39.9995286" lon="16.19376"><ele>1412.0</ele><time>2026-05-02T14:35:48.693Z</time></trkpt><trkpt lat="39.9995252" lon="16.1938674"><ele>1412.0</ele><time>2026-05-02T14:35:49.683Z</time></trkpt><trkpt lat="39.999519" lon="16.1939927"><ele>1412.0</ele><time>2026-05-02T14:35:50.683Z</time></trkpt><trkpt lat="39.9995044" lon="16.1941237"><ele>1412.0</ele><time>2026-05-02T14:35:51.689Z</time></trkpt><trkpt lat="39.999488" lon="16.1942647"><ele>1411.6</ele><time>2026-05-02T14:35:52.691Z</time></trkpt><trkpt lat="39.9994687" lon="16.1943943"><ele>1411.1999999999998</ele><time>2026-05-02T14:35:53.712Z</time></trkpt><trkpt lat="39.9994491" lon="16.194517"><ele>1410.8</ele><time>2026-05-02T14:35:54.691Z</time></trkpt><trkpt lat="39.9994395" lon="16.1946528"><ele>1410.4</ele><time>2026-05-02T14:35:55.694Z</time></trkpt><trkpt lat="39.9994336" lon="16.1947909"><ele>1410.0</ele><time>2026-05-02T14:35:56.685Z</time></trkpt><trkpt lat="39.9994116" lon="16.1949215"><ele>1410.0</ele><time>2026-05-02T14:35:57.674Z</time></trkpt><trkpt lat="39.9993945" lon="16.1950484"><ele>1410.0</ele><time>2026-05-02T14:35:58.687Z</time></trkpt><trkpt lat="39.9993716" lon="16.1951657"><ele>1410.0</ele><time>2026-05-02T14:35:59.687Z</time></trkpt><trkpt lat="39.999348" lon="16.1952779"><ele>1410.0</ele><time>2026-05-02T14:36:00.692Z</time></trkpt><trkpt lat="39.9993311" lon="16.195379"><ele>1410.0</ele><time>2026-05-02T14:36:01.683Z</time></trkpt><trkpt lat="39.9993244" lon="16.1954696"><ele>1410.0</ele><time>2026-05-02T14:36:02.698Z</time></trkpt><trkpt lat="39.999329" lon="16.195568"><ele>1409.9999999999998</ele><time>2026-05-02T14:36:03.692Z</time></trkpt><trkpt lat="39.9993437" lon="16.1956561"><ele>1410.0</ele><time>2026-05-02T14:36:04.687Z</time></trkpt><trkpt lat="39.9993701" lon="16.1957417"><ele>1410.0</ele><time>2026-05-02T14:36:05.692Z</time></trkpt><trkpt lat="39.9994028" lon="16.1958242"><ele>1410.0</ele><time>2026-05-02T14:36:06.688Z</time></trkpt><trkpt lat="39.9994361" lon="16.1959037"><ele>1410.0</ele><time>2026-05-02T14:36:07.709Z</time></trkpt><trkpt lat="39.9994597" lon="16.195985"><ele>1409.9999999999998</ele><time>2026-05-02T14:36:08.7Z</time></trkpt><trkpt lat="39.9994757" lon="16.1960689"><ele>1410.0</ele><time>2026-05-02T14:36:09.686Z</time></trkpt><trkpt lat="39.9994862" lon="16.1961519"><ele>1410.4285714285713</ele><time>2026-05-02T14:36:10.673Z</time></trkpt><trkpt lat="39.999486" lon="16.1962443"><ele>1410.857142857143</ele><time>2026-05-02T14:36:11.687Z</time></trkpt><trkpt lat="39.9994834" lon="16.1963486"><ele>1411.2857142857142</ele><time>2026-05-02T14:36:12.688Z</time></trkpt><trkpt lat="39.9994802" lon="16.1964461"><ele>1411.7142857142858</ele><time>2026-05-02T14:36:13.697Z</time></trkpt><trkpt lat="39.9994833" lon="16.1965428"><ele>1412.142857142857</ele><time>2026-05-02T14:36:14.683Z</time></trkpt><trkpt lat="39.999477" lon="16.1966381"><ele>1412.5714285714284</ele><time>2026-05-02T14:36:15.696Z</time></trkpt><trkpt lat="39.999474" lon="16.1967314"><ele>1413.0</ele><time>2026-05-02T14:36:16.685Z</time></trkpt><trkpt lat="39.9994705" lon="16.1968211"><ele>1414.3333333333333</ele><time>2026-05-02T14:36:17.687Z</time></trkpt><trkpt lat="39.9994745" lon="16.1969083"><ele>1415.6666666666667</ele><time>2026-05-02T14:36:18.691Z</time></trkpt><trkpt lat="39.9994623" lon="16.1969971"><ele>1417.0</ele><time>2026-05-02T14:36:19.682Z</time></trkpt><trkpt lat="39.9994343" lon="16.1970985"><ele>1418.3333333333335</ele><time>2026-05-02T14:36:20.692Z</time></trkpt><trkpt lat="39.9993889" lon="16.1972019"><ele>1419.6666666666667</ele><time>2026-05-02T14:36:21.691Z</time></trkpt><trkpt lat="39.999352" lon="16.1972888"><ele>1421.0</ele><time>2026-05-02T14:36:22.685Z</time></trkpt><trkpt lat="39.9993122" lon="16.197376"><ele>1421.7142857142858</ele><time>2026-05-02T14:36:23.7Z</time></trkpt><trkpt lat="39.9992855" lon="16.1974597"><ele>1422.4285714285716</ele><time>2026-05-02T14:36:24.68Z</time></trkpt><trkpt lat="39.9992685" lon="16.197545"><ele>1423.142857142857</ele><time>2026-05-02T14:36:25.684Z</time></trkpt><trkpt lat="39.9992759" lon="16.1976343"><ele>1423.857142857143</ele><time>2026-05-02T14:36:26.677Z</time></trkpt><trkpt lat="39.9992968" lon="16.1977213"><ele>1424.5714285714287</ele><time>2026-05-02T14:36:27.691Z</time></trkpt><trkpt lat="39.9993287" lon="16.197805"><ele>1425.2857142857142</ele><time>2026-05-02T14:36:28.672Z</time></trkpt><trkpt lat="39.9993741" lon="16.1978759"><ele>1426.0</ele><time>2026-05-02T14:36:29.692Z</time></trkpt><trkpt lat="39.9994292" lon="16.1979303"><ele>1426.0</ele><time>2026-05-02T14:36:30.702Z</time></trkpt><trkpt lat="39.9995315" lon="16.1979962"><ele>1426.0</ele><time>2026-05-02T14:36:32.686Z</time></trkpt><trkpt lat="39.9996335" lon="16.1980755"><ele>1426.0</ele><time>2026-05-02T14:36:34.684Z</time></trkpt><trkpt lat="39.9996859" lon="16.1981327"><ele>1426.0</ele><time>2026-05-02T14:36:35.682Z</time></trkpt><trkpt lat="39.999734" lon="16.1981899"><ele>1426.0</ele><time>2026-05-02T14:36:36.683Z</time></trkpt><trkpt lat="39.9998104" lon="16.1982996"><ele>1427.8333333333333</ele><time>2026-05-02T14:36:38.68Z</time></trkpt><trkpt lat="39.9998591" lon="16.1984263"><ele>1429.6666666666665</ele><time>2026-05-02T14:36:40.688Z</time></trkpt><trkpt lat="39.9998762" lon="16.1985787"><ele>1431.5</ele><time>2026-05-02T14:36:42.68Z</time></trkpt><trkpt lat="39.9998731" lon="16.1986645"><ele>1433.3333333333333</ele><time>2026-05-02T14:36:43.69Z</time></trkpt><trkpt lat="39.9998626" lon="16.1987525"><ele>1435.1666666666667</ele><time>2026-05-02T14:36:44.679Z</time></trkpt><trkpt lat="39.9998501" lon="16.1988417"><ele>1437.0</ele><time>2026-05-02T14:36:45.686Z</time></trkpt><trkpt lat="39.9998427" lon="16.1989261"><ele>1438.6666666666667</ele><time>2026-05-02T14:36:46.699Z</time></trkpt><trkpt lat="39.9998405" lon="16.1990122"><ele>1440.3333333333333</ele><time>2026-05-02T14:36:47.684Z</time></trkpt><trkpt lat="39.9998347" lon="16.1991029"><ele>1442.0</ele><time>2026-05-02T14:36:48.702Z</time></trkpt><trkpt lat="39.9998366" lon="16.1991851"><ele>1443.6666666666665</ele><time>2026-05-02T14:36:49.691Z</time></trkpt><trkpt lat="39.9998704" lon="16.1993367"><ele>1445.3333333333333</ele><time>2026-05-02T14:36:51.699Z</time></trkpt><trkpt lat="39.9998853" lon="16.1994759"><ele>1447.0</ele><time>2026-05-02T14:36:53.703Z</time></trkpt><trkpt lat="39.9998783" lon="16.1995644"><ele>1447.0</ele><time>2026-05-02T14:36:54.684Z</time></trkpt><trkpt lat="39.9998638" lon="16.1996518"><ele>1447.0</ele><time>2026-05-02T14:36:55.69Z</time></trkpt><trkpt lat="39.9998394" lon="16.1997488"><ele>1447.0</ele><time>2026-05-02T14:36:56.684Z</time></trkpt><trkpt lat="39.9998138" lon="16.199844"><ele>1447.0</ele><time>2026-05-02T14:36:57.701Z</time></trkpt><trkpt lat="39.9997793" lon="16.1999328"><ele>1447.0</ele><time>2026-05-02T14:36:58.686Z</time></trkpt><trkpt lat="39.9997508" lon="16.2000165"><ele>1447.0</ele><time>2026-05-02T14:36:59.685Z</time></trkpt><trkpt lat="39.9997231" lon="16.200112"><ele>1447.0</ele><time>2026-05-02T14:37:00.688Z</time></trkpt><trkpt lat="39.9996753" lon="16.2002138"><ele>1448.0</ele><time>2026-05-02T14:37:01.684Z</time></trkpt><trkpt lat="39.9996151" lon="16.2003153"><ele>1449.0</ele><time>2026-05-02T14:37:02.697Z</time></trkpt><trkpt lat="39.9995678" lon="16.2004047"><ele>1450.0</ele><time>2026-05-02T14:37:03.679Z</time></trkpt><trkpt lat="39.9995252" lon="16.200493"><ele>1451.0</ele><time>2026-05-02T14:37:04.68Z</time></trkpt><trkpt lat="39.9995018" lon="16.2005969"><ele>1452.0</ele><time>2026-05-02T14:37:05.689Z</time></trkpt><trkpt lat="39.9994851" lon="16.2006919"><ele>1453.0</ele><time>2026-05-02T14:37:06.686Z</time></trkpt><trkpt lat="39.9994673" lon="16.2007779"><ele>1454.1666666666665</ele><time>2026-05-02T14:37:07.683Z</time></trkpt><trkpt lat="39.9994665" lon="16.2008744"><ele>1455.3333333333333</ele><time>2026-05-02T14:37:08.684Z</time></trkpt><trkpt lat="39.999468" lon="16.2009738"><ele>1456.5</ele><time>2026-05-02T14:37:09.677Z</time></trkpt><trkpt lat="39.9994652" lon="16.2010708"><ele>1457.6666666666667</ele><time>2026-05-02T14:37:10.688Z</time></trkpt><trkpt lat="39.9994835" lon="16.2011668"><ele>1458.8333333333335</ele><time>2026-05-02T14:37:11.685Z</time></trkpt><trkpt lat="39.9995106" lon="16.2012604"><ele>1460.0</ele><time>2026-05-02T14:37:12.692Z</time></trkpt><trkpt lat="39.999541" lon="16.2013557"><ele>1460.0</ele><time>2026-05-02T14:37:13.692Z</time></trkpt><trkpt lat="39.9995702" lon="16.2014392"><ele>1460.0</ele><time>2026-05-02T14:37:14.682Z</time></trkpt><trkpt lat="39.9996053" lon="16.2015806"><ele>1460.0</ele><time>2026-05-02T14:37:16.69Z</time></trkpt><trkpt lat="39.9996023" lon="16.2017215"><ele>1460.0</ele><time>2026-05-02T14:37:18.68Z</time></trkpt><trkpt lat="39.999581" lon="16.2018014"><ele>1460.0</ele><time>2026-05-02T14:37:19.688Z</time></trkpt><trkpt lat="39.9995473" lon="16.2018889"><ele>1460.0</ele><time>2026-05-02T14:37:20.692Z</time></trkpt><trkpt lat="39.9995023" lon="16.2019724"><ele>1461.4</ele><time>2026-05-02T14:37:21.683Z</time></trkpt><trkpt lat="39.999451" lon="16.2020585"><ele>1462.8</ele><time>2026-05-02T14:37:22.688Z</time></trkpt><trkpt lat="39.9994015" lon="16.2021366"><ele>1464.1999999999998</ele><time>2026-05-02T14:37:23.669Z</time></trkpt><trkpt lat="39.9993487" lon="16.2022608"><ele>1465.6</ele><time>2026-05-02T14:37:25.686Z</time></trkpt><trkpt lat="39.9993551" lon="16.2023892"><ele>1467.0</ele><time>2026-05-02T14:37:27.693Z</time></trkpt><trkpt lat="39.9993975" lon="16.2025389"><ele>1467.1666666666667</ele><time>2026-05-02T14:37:29.69Z</time></trkpt><trkpt lat="39.9994176" lon="16.2026228"><ele>1467.3333333333333</ele><time>2026-05-02T14:37:30.692Z</time></trkpt><trkpt lat="39.9994349" lon="16.2027198"><ele>1467.5</ele><time>2026-05-02T14:37:31.688Z</time></trkpt><trkpt lat="39.9994522" lon="16.2028296"><ele>1467.6666666666665</ele><time>2026-05-02T14:37:32.688Z</time></trkpt><trkpt lat="39.9994635" lon="16.2029493"><ele>1467.8333333333333</ele><time>2026-05-02T14:37:33.689Z</time></trkpt><trkpt lat="39.999466" lon="16.2030631"><ele>1468.0</ele><time>2026-05-02T14:37:34.688Z</time></trkpt><trkpt lat="39.9994713" lon="16.2031536"><ele>1467.8000000000002</ele><time>2026-05-02T14:37:35.706Z</time></trkpt><trkpt lat="39.9994724" lon="16.2032801"><ele>1467.6</ele><time>2026-05-02T14:37:37.687Z</time></trkpt><trkpt lat="39.9994313" lon="16.2034191"><ele>1467.4</ele><time>2026-05-02T14:37:39.684Z</time></trkpt><trkpt lat="39.9993563" lon="16.2035371"><ele>1467.1999999999998</ele><time>2026-05-02T14:37:41.691Z</time></trkpt><trkpt lat="39.9992922" lon="16.2036462"><ele>1467.0</ele><time>2026-05-02T14:37:43.687Z</time></trkpt><trkpt lat="39.9992476" lon="16.2037564"><ele>1467.0</ele><time>2026-05-02T14:37:45.686Z</time></trkpt><trkpt lat="39.9992147" lon="16.2038868"><ele>1467.0</ele><time>2026-05-02T14:37:47.69Z</time></trkpt><trkpt lat="39.9992141" lon="16.2040244"><ele>1467.0</ele><time>2026-05-02T14:37:49.697Z</time></trkpt><trkpt lat="39.9992027" lon="16.2041634"><ele>1467.0</ele><time>2026-05-02T14:37:51.69Z</time></trkpt><trkpt lat="39.9991599" lon="16.2042944"><ele>1467.0</ele><time>2026-05-02T14:37:53.692Z</time></trkpt><trkpt lat="39.9991127" lon="16.2043964"><ele>1466.0</ele><time>2026-05-02T14:37:55.696Z</time></trkpt><trkpt lat="39.9990646" lon="16.2044912"><ele>1465.0</ele><time>2026-05-02T14:37:57.695Z</time></trkpt><trkpt lat="39.9990246" lon="16.2045871"><ele>1464.0</ele><time>2026-05-02T14:37:59.683Z</time></trkpt><trkpt lat="39.9990016" lon="16.204672"><ele>1463.0</ele><time>2026-05-02T14:38:02.694Z</time></trkpt><trkpt lat="39.9989432" lon="16.2047428"><ele>1462.0</ele><time>2026-05-02T14:38:06.685Z</time></trkpt><trkpt lat="39.9988933" lon="16.2048126"><ele>1461.0</ele><time>2026-05-02T14:38:09.684Z</time></trkpt><trkpt lat="39.9988347" lon="16.2049066"><ele>1461.0</ele><time>2026-05-02T14:38:11.69Z</time></trkpt><trkpt lat="39.9987446" lon="16.2050212"><ele>1461.0</ele><time>2026-05-02T14:38:13.677Z</time></trkpt><trkpt lat="39.9986656" lon="16.2051232"><ele>1461.0</ele><time>2026-05-02T14:38:15.685Z</time></trkpt><trkpt lat="39.9985986" lon="16.20523"><ele>1461.0</ele><time>2026-05-02T14:38:17.683Z</time></trkpt><trkpt lat="39.9985115" lon="16.2053222"><ele>1461.0</ele><time>2026-05-02T14:38:19.678Z</time></trkpt><trkpt lat="39.9984406" lon="16.2053972"><ele>1461.0</ele><time>2026-05-02T14:38:21.694Z</time></trkpt><trkpt lat="39.9983967" lon="16.205481"><ele>1461.0</ele><time>2026-05-02T14:38:23.672Z</time></trkpt><trkpt lat="39.9983587" lon="16.2055909"><ele>1461.0</ele><time>2026-05-02T14:38:25.681Z</time></trkpt><trkpt lat="39.9983273" lon="16.2056735"><ele>1461.0</ele><time>2026-05-02T14:38:27.684Z</time></trkpt><trkpt lat="39.9982942" lon="16.2057475"><ele>1461.0</ele><time>2026-05-02T14:38:29.694Z</time></trkpt><trkpt lat="39.9982676" lon="16.2058338"><ele>1461.142857142857</ele><time>2026-05-02T14:38:31.679Z</time></trkpt><trkpt lat="39.9982309" lon="16.2059092"><ele>1461.2857142857144</ele><time>2026-05-02T14:38:33.686Z</time></trkpt><trkpt lat="39.9981937" lon="16.2059826"><ele>1461.4285714285716</ele><time>2026-05-02T14:38:35.687Z</time></trkpt><trkpt lat="39.9981555" lon="16.2060527"><ele>1461.5714285714284</ele><time>2026-05-02T14:38:37.682Z</time></trkpt><trkpt lat="39.9981032" lon="16.206132"><ele>1461.7142857142858</ele><time>2026-05-02T14:38:40.717Z</time></trkpt><trkpt lat="39.9981057" lon="16.2062208"><ele>1461.857142857143</ele><time>2026-05-02T14:39:11.68Z</time></trkpt><trkpt lat="39.9980386" lon="16.2062665"><ele>1462.0</ele><time>2026-05-02T14:39:15.7Z</time></trkpt><trkpt lat="39.997989" lon="16.206324"><ele>1462.0</ele><time>2026-05-02T14:39:17.688Z</time></trkpt><trkpt lat="39.9979138" lon="16.2063929"><ele>1462.0</ele><time>2026-05-02T14:39:20.683Z</time></trkpt><trkpt lat="39.9978498" lon="16.2064057"><ele>1462.0</ele><time>2026-05-02T14:39:22.681Z</time></trkpt><trkpt lat="39.9977612" lon="16.2063944"><ele>1462.0</ele><time>2026-05-02T14:39:25.687Z</time></trkpt><trkpt lat="39.9976995" lon="16.2063762"><ele>1462.0</ele><time>2026-05-02T14:39:27.679Z</time></trkpt><trkpt lat="39.9976138" lon="16.2063515"><ele>1462.0</ele><time>2026-05-02T14:39:30.672Z</time></trkpt><trkpt lat="39.9975374" lon="16.2063265"><ele>1459.8</ele><time>2026-05-02T14:39:32.674Z</time></trkpt><trkpt lat="39.9974409" lon="16.2063105"><ele>1457.6</ele><time>2026-05-02T14:39:34.679Z</time></trkpt><trkpt lat="39.9973332" lon="16.2062772"><ele>1455.3999999999999</ele><time>2026-05-02T14:39:36.685Z</time></trkpt><trkpt lat="39.9972381" lon="16.2062561"><ele>1453.1999999999998</ele><time>2026-05-02T14:39:38.679Z</time></trkpt><trkpt lat="39.9971534" lon="16.2062958"><ele>1451.0</ele><time>2026-05-02T14:39:40.673Z</time></trkpt><trkpt lat="39.9970696" lon="16.2063749"><ele>1451.0</ele><time>2026-05-02T14:39:42.67Z</time></trkpt><trkpt lat="39.9969972" lon="16.2064804"><ele>1451.0</ele><time>2026-05-02T14:39:44.67Z</time></trkpt><trkpt lat="39.9969104" lon="16.2065799"><ele>1451.0</ele><time>2026-05-02T14:39:46.684Z</time></trkpt><trkpt lat="39.9968144" lon="16.2066374"><ele>1451.0</ele><time>2026-05-02T14:39:48.671Z</time></trkpt><trkpt lat="39.9967334" lon="16.2066699"><ele>1451.0</ele><time>2026-05-02T14:39:50.697Z</time></trkpt><trkpt lat="39.9966588" lon="16.2067024"><ele>1451.6666666666667</ele><time>2026-05-02T14:39:52.683Z</time></trkpt><trkpt lat="39.9965714" lon="16.2067434"><ele>1452.3333333333335</ele><time>2026-05-02T14:39:54.679Z</time></trkpt><trkpt lat="39.9965003" lon="16.2067888"><ele>1453.0</ele><time>2026-05-02T14:39:56.694Z</time></trkpt><trkpt lat="39.9964205" lon="16.2068111"><ele>1453.6666666666667</ele><time>2026-05-02T14:39:58.69Z</time></trkpt><trkpt lat="39.9963249" lon="16.2068099"><ele>1454.3333333333333</ele><time>2026-05-02T14:40:00.674Z</time></trkpt><trkpt lat="39.9962342" lon="16.2067945"><ele>1455.0</ele><time>2026-05-02T14:40:02.688Z</time></trkpt><trkpt lat="39.9961467" lon="16.2067907"><ele>1455.0</ele><time>2026-05-02T14:40:04.688Z</time></trkpt><trkpt lat="39.99606" lon="16.2067771"><ele>1455.0</ele><time>2026-05-02T14:40:06.676Z</time></trkpt><trkpt lat="39.9959764" lon="16.2068171"><ele>1455.0</ele><time>2026-05-02T14:40:08.692Z</time></trkpt><trkpt lat="39.995898" lon="16.2068847"><ele>1455.0</ele><time>2026-05-02T14:40:10.676Z</time></trkpt><trkpt lat="39.9958102" lon="16.206979"><ele>1455.0</ele><time>2026-05-02T14:40:12.68Z</time></trkpt><trkpt lat="39.9957606" lon="16.2070342"><ele>1455.0</ele><time>2026-05-02T14:40:13.68Z</time></trkpt><trkpt lat="39.9957117" lon="16.2070932"><ele>1454.857142857143</ele><time>2026-05-02T14:40:14.688Z</time></trkpt><trkpt lat="39.9956655" lon="16.2071618"><ele>1454.7142857142858</ele><time>2026-05-02T14:40:15.697Z</time></trkpt><trkpt lat="39.9956158" lon="16.2072358"><ele>1454.5714285714284</ele><time>2026-05-02T14:40:16.689Z</time></trkpt><trkpt lat="39.9955724" lon="16.2073188"><ele>1454.4285714285716</ele><time>2026-05-02T14:40:17.678Z</time></trkpt><trkpt lat="39.9955247" lon="16.207394"><ele>1454.2857142857144</ele><time>2026-05-02T14:40:18.686Z</time></trkpt><trkpt lat="39.9954822" lon="16.2074589"><ele>1454.142857142857</ele><time>2026-05-02T14:40:19.705Z</time></trkpt><trkpt lat="39.9954447" lon="16.2075292"><ele>1454.0</ele><time>2026-05-02T14:40:20.695Z</time></trkpt><trkpt lat="39.9954077" lon="16.207598"><ele>1454.0</ele><time>2026-05-02T14:40:21.689Z</time></trkpt><trkpt lat="39.9953299" lon="16.2077066"><ele>1454.0</ele><time>2026-05-02T14:40:23.69Z</time></trkpt><trkpt lat="39.9952532" lon="16.207798"><ele>1454.0</ele><time>2026-05-02T14:40:25.69Z</time></trkpt><trkpt lat="39.9951759" lon="16.2078902"><ele>1454.0</ele><time>2026-05-02T14:40:27.676Z</time></trkpt><trkpt lat="39.9950691" lon="16.2079272"><ele>1454.0</ele><time>2026-05-02T14:40:29.686Z</time></trkpt><trkpt lat="39.9949932" lon="16.2079125"><ele>1452.2</ele><time>2026-05-02T14:40:30.686Z</time></trkpt><trkpt lat="39.9949328" lon="16.2078875"><ele>1450.4</ele><time>2026-05-02T14:40:31.682Z</time></trkpt><trkpt lat="39.9948267" lon="16.2078668"><ele>1448.6</ele><time>2026-05-02T14:40:33.688Z</time></trkpt><trkpt lat="39.994727" lon="16.2079002"><ele>1446.8</ele><time>2026-05-02T14:40:35.684Z</time></trkpt><trkpt lat="39.9946397" lon="16.2079928"><ele>1445.0</ele><time>2026-05-02T14:40:37.683Z</time></trkpt><trkpt lat="39.9945684" lon="16.2080699"><ele>1445.0</ele><time>2026-05-02T14:40:39.695Z</time></trkpt><trkpt lat="39.994502" lon="16.2081292"><ele>1445.0</ele><time>2026-05-02T14:40:42.681Z</time></trkpt><trkpt lat="39.994464" lon="16.2081966"><ele>1445.0</ele><time>2026-05-02T14:40:44.678Z</time></trkpt><trkpt lat="39.994483" lon="16.2082774"><ele>1445.0</ele><time>2026-05-02T14:40:46.695Z</time></trkpt><trkpt lat="39.9945568" lon="16.208312"><ele>1445.0</ele><time>2026-05-02T14:40:48.679Z</time></trkpt><trkpt lat="39.9946604" lon="16.208291"><ele>1445.0</ele><time>2026-05-02T14:40:50.692Z</time></trkpt><trkpt lat="39.9947615" lon="16.2082437"><ele>1447.6666666666667</ele><time>2026-05-02T14:40:52.682Z</time></trkpt><trkpt lat="39.9948267" lon="16.2082061"><ele>1450.3333333333335</ele><time>2026-05-02T14:40:54.675Z</time></trkpt><trkpt lat="39.9949035" lon="16.2082118"><ele>1453.0</ele><time>2026-05-02T14:40:57.696Z</time></trkpt><trkpt lat="39.9949427" lon="16.2082788"><ele>1455.6666666666667</ele><time>2026-05-02T14:40:59.68Z</time></trkpt><trkpt lat="39.99496" lon="16.2083838"><ele>1458.3333333333333</ele><time>2026-05-02T14:41:01.689Z</time></trkpt><trkpt lat="39.9949611" lon="16.2085252"><ele>1461.0</ele><time>2026-05-02T14:41:03.699Z</time></trkpt><trkpt lat="39.994943" lon="16.2086624"><ele>1461.0</ele><time>2026-05-02T14:41:05.69Z</time></trkpt><trkpt lat="39.9948885" lon="16.2087726"><ele>1461.0</ele><time>2026-05-02T14:41:07.695Z</time></trkpt><trkpt lat="39.9948225" lon="16.2088937"><ele>1461.0</ele><time>2026-05-02T14:41:09.688Z</time></trkpt><trkpt lat="39.9947858" lon="16.2089634"><ele>1461.0</ele><time>2026-05-02T14:41:10.686Z</time></trkpt><trkpt lat="39.9947503" lon="16.2090435"><ele>1461.0</ele><time>2026-05-02T14:41:11.684Z</time></trkpt><trkpt lat="39.9947198" lon="16.2091336"><ele>1461.0</ele><time>2026-05-02T14:41:12.679Z</time></trkpt><trkpt lat="39.9946945" lon="16.2092222"><ele>1462.4</ele><time>2026-05-02T14:41:13.693Z</time></trkpt><trkpt lat="39.9946723" lon="16.2093016"><ele>1463.8</ele><time>2026-05-02T14:41:14.681Z</time></trkpt><trkpt lat="39.9946407" lon="16.2094534"><ele>1465.2</ele><time>2026-05-02T14:41:16.679Z</time></trkpt><trkpt lat="39.994592" lon="16.2095989"><ele>1466.6000000000001</ele><time>2026-05-02T14:41:18.68Z</time></trkpt><trkpt lat="39.9945463" lon="16.209681"><ele>1468.0</ele><time>2026-05-02T14:41:19.686Z</time></trkpt><trkpt lat="39.9944919" lon="16.2097718"><ele>1467.6666666666665</ele><time>2026-05-02T14:41:20.686Z</time></trkpt><trkpt lat="39.9944288" lon="16.2098661"><ele>1467.3333333333333</ele><time>2026-05-02T14:41:21.685Z</time></trkpt><trkpt lat="39.9943701" lon="16.2099552"><ele>1467.0</ele><time>2026-05-02T14:41:22.684Z</time></trkpt><trkpt lat="39.9943122" lon="16.2100334"><ele>1466.6666666666667</ele><time>2026-05-02T14:41:23.684Z</time></trkpt><trkpt lat="39.9942475" lon="16.2101039"><ele>1466.3333333333335</ele><time>2026-05-02T14:41:24.684Z</time></trkpt><trkpt lat="39.994191" lon="16.2101799"><ele>1466.0</ele><time>2026-05-02T14:41:25.696Z</time></trkpt><trkpt lat="39.9941397" lon="16.2102559"><ele>1466.0</ele><time>2026-05-02T14:41:26.696Z</time></trkpt><trkpt lat="39.9940912" lon="16.2103222"><ele>1466.0</ele><time>2026-05-02T14:41:27.692Z</time></trkpt><trkpt lat="39.9940396" lon="16.2103745"><ele>1466.0</ele><time>2026-05-02T14:41:28.692Z</time></trkpt><trkpt lat="39.9939495" lon="16.2104464"><ele>1466.0</ele><time>2026-05-02T14:41:30.696Z</time></trkpt><trkpt lat="39.9938762" lon="16.2104682"><ele>1466.0</ele><time>2026-05-02T14:41:33.687Z</time></trkpt><trkpt lat="39.9937978" lon="16.2104882"><ele>1466.0</ele><time>2026-05-02T14:41:35.675Z</time></trkpt><trkpt lat="39.9937161" lon="16.2105232"><ele>1466.0</ele><time>2026-05-02T14:41:37.69Z</time></trkpt><trkpt lat="39.993645" lon="16.2105854"><ele>1466.0</ele><time>2026-05-02T14:41:39.691Z</time></trkpt><trkpt lat="39.993623" lon="16.2107096"><ele>1466.0</ele><time>2026-05-02T14:41:41.689Z</time></trkpt><trkpt lat="39.9936358" lon="16.210851"><ele>1466.0</ele><time>2026-05-02T14:41:43.688Z</time></trkpt><trkpt lat="39.9936723" lon="16.2110004"><ele>1466.0</ele><time>2026-05-02T14:41:45.694Z</time></trkpt><trkpt lat="39.9937079" lon="16.211147"><ele>1467.6</ele><time>2026-05-02T14:41:47.672Z</time></trkpt><trkpt lat="39.9937184" lon="16.2112947"><ele>1469.1999999999998</ele><time>2026-05-02T14:41:49.685Z</time></trkpt><trkpt lat="39.9936956" lon="16.2114338"><ele>1470.8000000000002</ele><time>2026-05-02T14:41:51.687Z</time></trkpt><trkpt lat="39.9936576" lon="16.2115546"><ele>1472.4</ele><time>2026-05-02T14:41:53.684Z</time></trkpt><trkpt lat="39.9936351" lon="16.2116357"><ele>1474.0</ele><time>2026-05-02T14:42:18.694Z</time></trkpt><trkpt lat="39.9935894" lon="16.2117447"><ele>1476.6</ele><time>2026-05-02T14:42:21.691Z</time></trkpt><trkpt lat="39.9935731" lon="16.2118844"><ele>1479.2</ele><time>2026-05-02T14:42:23.693Z</time></trkpt><trkpt lat="39.9935586" lon="16.2120446"><ele>1481.8</ele><time>2026-05-02T14:42:25.691Z</time></trkpt><trkpt lat="39.9935394" lon="16.2121365"><ele>1484.3999999999999</ele><time>2026-05-02T14:42:26.693Z</time></trkpt><trkpt lat="39.9935207" lon="16.212239"><ele>1487.0</ele><time>2026-05-02T14:42:27.697Z</time></trkpt><trkpt lat="39.9935019" lon="16.2123439"><ele>1488.0</ele><time>2026-05-02T14:42:28.683Z</time></trkpt><trkpt lat="39.9934815" lon="16.2124376"><ele>1489.0</ele><time>2026-05-02T14:42:29.695Z</time></trkpt><trkpt lat="39.9934671" lon="16.2125254"><ele>1490.0</ele><time>2026-05-02T14:42:30.687Z</time></trkpt><trkpt lat="39.9934536" lon="16.2126085"><ele>1491.0</ele><time>2026-05-02T14:42:31.681Z</time></trkpt><trkpt lat="39.9934375" lon="16.2127417"><ele>1492.0</ele><time>2026-05-02T14:42:33.686Z</time></trkpt><trkpt lat="39.9934085" lon="16.2128359"><ele>1493.0</ele><time>2026-05-02T14:42:36.682Z</time></trkpt><trkpt lat="39.9933857" lon="16.2129333"><ele>1493.0</ele><time>2026-05-02T14:42:38.685Z</time></trkpt><trkpt lat="39.993369" lon="16.2130591"><ele>1493.0</ele><time>2026-05-02T14:42:40.698Z</time></trkpt><trkpt lat="39.9933112" lon="16.213192"><ele>1493.0</ele><time>2026-05-02T14:42:42.683Z</time></trkpt><trkpt lat="39.9932684" lon="16.2132713"><ele>1493.0</ele><time>2026-05-02T14:42:43.698Z</time></trkpt><trkpt lat="39.9932279" lon="16.2133606"><ele>1493.0</ele><time>2026-05-02T14:42:44.688Z</time></trkpt><trkpt lat="39.9931847" lon="16.2134407"><ele>1493.0</ele><time>2026-05-02T14:42:45.686Z</time></trkpt><trkpt lat="39.9931462" lon="16.2135136"><ele>1491.6000000000001</ele><time>2026-05-02T14:42:46.681Z</time></trkpt><trkpt lat="39.9930909" lon="16.2136138"><ele>1490.2</ele><time>2026-05-02T14:42:48.686Z</time></trkpt><trkpt lat="39.9930174" lon="16.2136981"><ele>1488.8</ele><time>2026-05-02T14:42:50.692Z</time></trkpt><trkpt lat="39.9929124" lon="16.2137731"><ele>1487.4</ele><time>2026-05-02T14:42:52.682Z</time></trkpt><trkpt lat="39.9928047" lon="16.213819"><ele>1486.0</ele><time>2026-05-02T14:42:54.678Z</time></trkpt><trkpt lat="39.9927046" lon="16.2138304"><ele>1486.0</ele><time>2026-05-02T14:42:56.68Z</time></trkpt><trkpt lat="39.9926104" lon="16.2138351"><ele>1486.0</ele><time>2026-05-02T14:42:58.69Z</time></trkpt><trkpt lat="39.9925194" lon="16.2138159"><ele>1486.0</ele><time>2026-05-02T14:43:00.691Z</time></trkpt><trkpt lat="39.9924482" lon="16.2137987"><ele>1486.0</ele><time>2026-05-02T14:43:02.689Z</time></trkpt><trkpt lat="39.9923837" lon="16.2137982"><ele>1486.0</ele><time>2026-05-02T14:43:12.683Z</time></trkpt><trkpt lat="39.9923206" lon="16.2137989"><ele>1486.0</ele><time>2026-05-02T14:43:19.678Z</time></trkpt><trkpt lat="39.9922546" lon="16.2138065"><ele>1485.0</ele><time>2026-05-02T14:43:46.68Z</time></trkpt><trkpt lat="39.9921775" lon="16.2137936"><ele>1484.0</ele><time>2026-05-02T14:44:01.687Z</time></trkpt><trkpt lat="39.9921229" lon="16.2138495"><ele>1483.0</ele><time>2026-05-02T14:44:04.694Z</time></trkpt><trkpt lat="39.9920513" lon="16.21387"><ele>1482.0</ele><time>2026-05-02T14:44:07.683Z</time></trkpt><trkpt lat="39.9919729" lon="16.2139089"><ele>1481.0</ele><time>2026-05-02T14:44:09.677Z</time></trkpt><trkpt lat="39.9918885" lon="16.213951"><ele>1480.0</ele><time>2026-05-02T14:44:11.684Z</time></trkpt><trkpt lat="39.9918039" lon="16.2139787"><ele>1479.9999999999998</ele><time>2026-05-02T14:44:13.68Z</time></trkpt><trkpt lat="39.9917483" lon="16.2139342"><ele>1480.0</ele><time>2026-05-02T14:44:18.683Z</time></trkpt><trkpt lat="39.9916997" lon="16.2138814"><ele>1480.0</ele><time>2026-05-02T14:46:25.68Z</time></trkpt><trkpt lat="39.9916326" lon="16.2138712"><ele>1480.0</ele><time>2026-05-02T14:52:46.684Z</time></trkpt><trkpt lat="39.991569" lon="16.2139222"><ele>1480.0</ele><time>2026-05-02T14:52:50.685Z</time></trkpt><trkpt lat="39.9915162" lon="16.2138584"><ele>1479.9999999999998</ele><time>2026-05-02T14:53:11.672Z</time></trkpt><trkpt lat="39.9915821" lon="16.2138092"><ele>1480.0</ele><time>2026-05-02T14:53:52.677Z</time></trkpt><trkpt lat="39.991679" lon="16.2138047"><ele>1480.0</ele><time>2026-05-02T14:53:55.674Z</time></trkpt><trkpt lat="39.9917481" lon="16.2138104"><ele>1480.0</ele><time>2026-05-02T14:53:57.676Z</time></trkpt><trkpt lat="39.9918254" lon="16.2138058"><ele>1480.0</ele><time>2026-05-02T14:53:59.679Z</time></trkpt><trkpt lat="39.9919147" lon="16.2137842"><ele>1480.0</ele><time>2026-05-02T14:54:01.674Z</time></trkpt><trkpt lat="39.9919957" lon="16.2137615"><ele>1480.0</ele><time>2026-05-02T14:54:03.689Z</time></trkpt><trkpt lat="39.9920603" lon="16.2137319"><ele>1480.0</ele><time>2026-05-02T14:54:05.678Z</time></trkpt><trkpt lat="39.9921247" lon="16.2137267"><ele>1479.9999999999998</ele><time>2026-05-02T14:54:07.676Z</time></trkpt><trkpt lat="39.992189" lon="16.2137258"><ele>1480.0</ele><time>2026-05-02T14:54:11.678Z</time></trkpt><trkpt lat="39.9922536" lon="16.2137375"><ele>1480.0</ele><time>2026-05-02T14:54:20.685Z</time></trkpt><trkpt lat="39.9923149" lon="16.2137793"><ele>1480.0</ele><time>2026-05-02T14:54:25.673Z</time></trkpt><trkpt lat="39.9923997" lon="16.213778"><ele>1480.0</ele><time>2026-05-02T14:58:16.687Z</time></trkpt><trkpt lat="39.992461" lon="16.2138026"><ele>1479.9999999999998</ele><time>2026-05-02T14:58:22.678Z</time></trkpt><trkpt lat="39.9925421" lon="16.2138435"><ele>1480.0</ele><time>2026-05-02T15:00:41.686Z</time></trkpt><trkpt lat="39.9926076" lon="16.213857"><ele>1480.8571428571427</ele><time>2026-05-02T15:00:44.697Z</time></trkpt><trkpt lat="39.9926745" lon="16.2138519"><ele>1481.7142857142858</ele><time>2026-05-02T15:00:48.674Z</time></trkpt><trkpt lat="39.9927448" lon="16.2138404"><ele>1482.5714285714284</ele><time>2026-05-02T15:00:52.668Z</time></trkpt><trkpt lat="39.992805" lon="16.2138038"><ele>1483.4285714285713</ele><time>2026-05-02T15:00:55.691Z</time></trkpt><trkpt lat="39.9928839" lon="16.2138035"><ele>1484.2857142857142</ele><time>2026-05-02T15:01:06.677Z</time></trkpt><trkpt lat="39.9929354" lon="16.2138659"><ele>1485.142857142857</ele><time>2026-05-02T15:01:11.694Z</time></trkpt><trkpt lat="39.9929612" lon="16.2139597"><ele>1486.0</ele><time>2026-05-02T15:01:14.699Z</time></trkpt><trkpt lat="39.9929668" lon="16.21406"><ele>1487.0</ele><time>2026-05-02T15:01:16.69Z</time></trkpt><trkpt lat="39.9929584" lon="16.2141773"><ele>1488.0</ele><time>2026-05-02T15:01:18.687Z</time></trkpt><trkpt lat="39.9929377" lon="16.2143103"><ele>1489.0</ele><time>2026-05-02T15:01:20.699Z</time></trkpt><trkpt lat="39.9929268" lon="16.2144465"><ele>1490.0</ele><time>2026-05-02T15:01:22.691Z</time></trkpt><trkpt lat="39.9929295" lon="16.2145852"><ele>1491.0</ele><time>2026-05-02T15:01:24.676Z</time></trkpt><trkpt lat="39.9929438" lon="16.2147211"><ele>1490.3333333333333</ele><time>2026-05-02T15:01:26.688Z</time></trkpt><trkpt lat="39.9929691" lon="16.2148494"><ele>1489.6666666666667</ele><time>2026-05-02T15:01:28.677Z</time></trkpt><trkpt lat="39.992968" lon="16.2149607"><ele>1489.0</ele><time>2026-05-02T15:01:30.683Z</time></trkpt><trkpt lat="39.9929688" lon="16.2150536"><ele>1488.3333333333335</ele><time>2026-05-02T15:01:32.683Z</time></trkpt><trkpt lat="39.992976" lon="16.2151799"><ele>1487.6666666666667</ele><time>2026-05-02T15:01:35.693Z</time></trkpt><trkpt lat="39.9929701" lon="16.215273"><ele>1487.0</ele><time>2026-05-02T15:01:37.688Z</time></trkpt><trkpt lat="39.9929505" lon="16.2153775"><ele>1486.9999999999998</ele><time>2026-05-02T15:01:40.693Z</time></trkpt><trkpt lat="39.9929223" lon="16.2154758"><ele>1487.0</ele><time>2026-05-02T15:01:43.69Z</time></trkpt><trkpt lat="39.9928978" lon="16.2155728"><ele>1487.0</ele><time>2026-05-02T15:01:46.682Z</time></trkpt><trkpt lat="39.9928653" lon="16.2156688"><ele>1487.0</ele><time>2026-05-02T15:01:49.671Z</time></trkpt><trkpt lat="39.9928306" lon="16.2157374"><ele>1487.0</ele><time>2026-05-02T15:01:53.688Z</time></trkpt><trkpt lat="39.9927739" lon="16.2157782"><ele>1486.9999999999998</ele><time>2026-05-02T15:02:01.697Z</time></trkpt><trkpt lat="39.9927159" lon="16.2158279"><ele>1487.0</ele><time>2026-05-02T15:02:06.69Z</time></trkpt><trkpt lat="39.9926628" lon="16.2158806"><ele>1487.4285714285713</ele><time>2026-05-02T15:02:11.689Z</time></trkpt><trkpt lat="39.992615" lon="16.2159447"><ele>1487.857142857143</ele><time>2026-05-02T15:02:17.676Z</time></trkpt><trkpt lat="39.9925645" lon="16.2160181"><ele>1488.2857142857142</ele><time>2026-05-02T15:02:26.683Z</time></trkpt><trkpt lat="39.9925394" lon="16.2161077"><ele>1488.7142857142858</ele><time>2026-05-02T15:02:30.688Z</time></trkpt><trkpt lat="39.992524" lon="16.2162034"><ele>1489.142857142857</ele><time>2026-05-02T15:02:33.69Z</time></trkpt><trkpt lat="39.9925154" lon="16.2163113"><ele>1489.5714285714284</ele><time>2026-05-02T15:02:36.692Z</time></trkpt><trkpt lat="39.9925092" lon="16.2164053"><ele>1490.0</ele><time>2026-05-02T15:02:40.688Z</time></trkpt><trkpt lat="39.992478" lon="16.2164836"><ele>1490.1666666666667</ele><time>2026-05-02T15:02:46.691Z</time></trkpt><trkpt lat="39.9924942" lon="16.2165744"><ele>1490.3333333333335</ele><time>2026-05-02T15:02:51.688Z</time></trkpt><trkpt lat="39.9925359" lon="16.2167028"><ele>1490.5</ele><time>2026-05-02T15:13:41.684Z</time></trkpt><trkpt lat="39.9925561" lon="16.216785"><ele>1490.6666666666667</ele><time>2026-05-02T15:13:47.68Z</time></trkpt><trkpt lat="39.9925527" lon="16.2168676"><ele>1490.8333333333333</ele><time>2026-05-02T15:14:06.675Z</time></trkpt><trkpt lat="39.9925198" lon="16.216939"><ele>1491.0</ele><time>2026-05-02T15:14:47.676Z</time></trkpt><trkpt lat="39.9929377" lon="16.2143103"><ele>1491.0</ele><time>2026-05-02T15:01:20.699Z</time></trkpt><trkpt lat="39.9929268" lon="16.2144465"><ele>1491.0</ele><time>2026-05-02T15:01:22.691Z</time></trkpt><trkpt lat="39.9929295" lon="16.2145852"><ele>1491.0</ele><time>2026-05-02T15:01:24.676Z</time></trkpt><trkpt lat="39.9929438" lon="16.2147211"><ele>1491.0</ele><time>2026-05-02T15:01:26.688Z</time></trkpt><trkpt lat="39.9929691" lon="16.2148494"><ele>1491.0</ele><time>2026-05-02T15:01:28.677Z</time></trkpt><trkpt lat="39.992968" lon="16.2149607"><ele>1490.3333333333333</ele><time>2026-05-02T15:01:30.683Z</time></trkpt><trkpt lat="39.9929688" lon="16.2150536"><ele>1489.6666666666667</ele><time>2026-05-02T15:01:32.683Z</time></trkpt><trkpt lat="39.992976" lon="16.2151799"><ele>1489.0</ele><time>2026-05-02T15:01:35.693Z</time></trkpt><trkpt lat="39.9929701" lon="16.215273"><ele>1488.3333333333335</ele><time>2026-05-02T15:01:37.688Z</time></trkpt><trkpt lat="39.9929505" lon="16.2153775"><ele>1487.6666666666667</ele><time>2026-05-02T15:01:40.693Z</time></trkpt><trkpt lat="39.9929223" lon="16.2154758"><ele>1487.0</ele><time>2026-05-02T15:01:43.69Z</time></trkpt><trkpt lat="39.9928978" lon="16.2155728"><ele>1485.7142857142856</ele><time>2026-05-02T15:01:46.682Z</time></trkpt><trkpt lat="39.9928653" lon="16.2156688"><ele>1484.4285714285713</ele><time>2026-05-02T15:01:49.671Z</time></trkpt><trkpt lat="39.9928306" lon="16.2157374"><ele>1483.142857142857</ele><time>2026-05-02T15:01:53.688Z</time></trkpt><trkpt lat="39.9927739" lon="16.2157782"><ele>1481.8571428571427</ele><time>2026-05-02T15:02:01.697Z</time></trkpt><trkpt lat="39.9927159" lon="16.2158279"><ele>1480.5714285714287</ele><time>2026-05-02T15:02:06.69Z</time></trkpt><trkpt lat="39.9926628" lon="16.2158806"><ele>1479.2857142857142</ele><time>2026-05-02T15:02:11.689Z</time></trkpt><trkpt lat="39.992615" lon="16.2159447"><ele>1478.0</ele><time>2026-05-02T15:02:17.676Z</time></trkpt><trkpt lat="39.9925645" lon="16.2160181"><ele>1478.0</ele><time>2026-05-02T15:02:26.683Z</time></trkpt><trkpt lat="39.9925394" lon="16.2161077"><ele>1478.0</ele><time>2026-05-02T15:02:30.688Z</time></trkpt><trkpt lat="39.992524" lon="16.2162034"><ele>1478.0</ele><time>2026-05-02T15:02:33.69Z</time></trkpt><trkpt lat="39.9925154" lon="16.2163113"><ele>1478.0</ele><time>2026-05-02T15:02:36.692Z</time></trkpt><trkpt lat="39.9925092" lon="16.2164053"><ele>1478.0</ele><time>2026-05-02T15:02:40.688Z</time></trkpt><trkpt lat="39.992478" lon="16.2164836"><ele>1478.0</ele><time>2026-05-02T15:02:46.691Z</time></trkpt><trkpt lat="39.9924942" lon="16.2165744"><ele>1478.0</ele><time>2026-05-02T15:02:51.688Z</time></trkpt><trkpt lat="39.9925359" lon="16.2167028"><ele>1477.142857142857</ele><time>2026-05-02T15:13:41.684Z</time></trkpt><trkpt lat="39.9925561" lon="16.216785"><ele>1476.2857142857142</ele><time>2026-05-02T15:13:47.68Z</time></trkpt><trkpt lat="39.9925527" lon="16.2168676"><ele>1475.4285714285716</ele><time>2026-05-02T15:14:06.675Z</time></trkpt><trkpt lat="39.9925198" lon="16.216939"><ele>1474.5714285714284</ele><time>2026-05-02T15:14:47.676Z</time></trkpt><trkpt lat="39.9925556" lon="16.21701"><ele>1473.7142857142856</ele><time>2026-05-02T15:15:07.675Z</time></trkpt><trkpt lat="39.992601" lon="16.2170718"><ele>1472.857142857143</ele><time>2026-05-02T15:15:16.671Z</time></trkpt><trkpt lat="39.992651" lon="16.2171352"><ele>1472.0</ele><time>2026-05-02T15:15:25.669Z</time></trkpt><trkpt lat="39.9927011" lon="16.2172239"><ele>1472.0</ele><time>2026-05-02T15:15:29.679Z</time></trkpt><trkpt lat="39.9927299" lon="16.2172987"><ele>1472.0</ele><time>2026-05-02T15:15:33.68Z</time></trkpt><trkpt lat="39.992765" lon="16.2173673"><ele>1472.0</ele><time>2026-05-02T15:16:58.689Z</time></trkpt><trkpt lat="39.9928044" lon="16.2174483"><ele>1472.0</ele><time>2026-05-02T15:17:02.678Z</time></trkpt><trkpt lat="39.9928615" lon="16.2175051"><ele>1472.0</ele><time>2026-05-02T15:17:05.659Z</time></trkpt><trkpt lat="39.9929124" lon="16.2175928"><ele>1472.0</ele><time>2026-05-02T15:17:09.675Z</time></trkpt><trkpt lat="39.9929401" lon="16.2176892"><ele>1472.0</ele><time>2026-05-02T15:17:13.682Z</time></trkpt><trkpt lat="39.9929464" lon="16.2177785"><ele>1470.6666666666667</ele><time>2026-05-02T15:17:18.687Z</time></trkpt><trkpt lat="39.99294" lon="16.2178694"><ele>1469.3333333333335</ele><time>2026-05-02T15:17:25.683Z</time></trkpt><trkpt lat="39.9929363" lon="16.2179533"><ele>1468.0</ele><time>2026-05-02T15:18:06.673Z</time></trkpt><trkpt lat="39.9929164" lon="16.218032"><ele>1466.6666666666667</ele><time>2026-05-02T15:19:46.676Z</time></trkpt><trkpt lat="39.9928603" lon="16.2181377"><ele>1465.3333333333333</ele><time>2026-05-02T15:21:28.656Z</time></trkpt><trkpt lat="39.9928461" lon="16.2182265"><ele>1464.0</ele><time>2026-05-02T15:22:04.678Z</time></trkpt><trkpt lat="39.9928467" lon="16.2184032"><ele>1462.5</ele><time>2026-05-02T15:23:04.677Z</time></trkpt><trkpt lat="39.9928407" lon="16.2184862"><ele>1461.0</ele><time>2026-05-02T15:23:25.687Z</time></trkpt><trkpt lat="39.9928611" lon="16.2185763"><ele>1459.5</ele><time>2026-05-02T15:23:32.668Z</time></trkpt><trkpt lat="39.9928707" lon="16.2186672"><ele>1458.0</ele><time>2026-05-02T15:23:43.691Z</time></trkpt><trkpt lat="39.9928839" lon="16.218751"><ele>1456.5</ele><time>2026-05-02T15:23:51.688Z</time></trkpt><trkpt lat="39.992918" lon="16.218828"><ele>1455.0</ele><time>2026-05-02T15:23:57.693Z</time></trkpt><trkpt lat="39.9918349" lon="16.2197752"><ele>1451.8333333333333</ele><time>2026-05-02T15:41:12.671Z</time></trkpt><trkpt lat="39.9918295" lon="16.2198994"><ele>1448.6666666666667</ele><time>2026-05-02T15:41:14.666Z</time></trkpt><trkpt lat="39.9917701" lon="16.2200204"><ele>1445.5</ele><time>2026-05-02T15:41:52.637Z</time></trkpt><trkpt lat="39.9917975" lon="16.2199222"><ele>1442.3333333333335</ele><time>2026-05-02T15:41:58.665Z</time></trkpt><trkpt lat="39.991724" lon="16.2199199"><ele>1439.1666666666667</ele><time>2026-05-02T15:44:30.676Z</time></trkpt><trkpt lat="39.9916552" lon="16.2199283"><ele>1436.0</ele><time>2026-05-02T15:44:34.678Z</time></trkpt><trkpt lat="39.9915865" lon="16.2199542"><ele>1435.0</ele><time>2026-05-02T15:44:37.686Z</time></trkpt><trkpt lat="39.9915047" lon="16.2199698"><ele>1434.0</ele><time>2026-05-02T15:44:40.679Z</time></trkpt><trkpt lat="39.9914154" lon="16.2199642"><ele>1433.0</ele><time>2026-05-02T15:44:43.674Z</time></trkpt><trkpt lat="39.991341" lon="16.2199926"><ele>1432.0</ele><time>2026-05-02T15:44:46.676Z</time></trkpt><trkpt lat="39.991276" lon="16.2199991"><ele>1431.0</ele><time>2026-05-02T15:45:03.664Z</time></trkpt><trkpt lat="39.9912126" lon="16.220001"><ele>1430.0</ele><time>2026-05-02T15:45:10.675Z</time></trkpt><trkpt lat="39.991139" lon="16.2200046"><ele>1430.0</ele><time>2026-05-02T15:45:14.682Z</time></trkpt><trkpt lat="39.9910629" lon="16.2200455"><ele>1430.0</ele><time>2026-05-02T15:45:17.676Z</time></trkpt><trkpt lat="39.9909923" lon="16.2201119"><ele>1430.0</ele><time>2026-05-02T15:45:20.674Z</time></trkpt><trkpt lat="39.9908728" lon="16.220177"><ele>1430.0</ele><time>2026-05-02T15:45:23.68Z</time></trkpt><trkpt lat="39.9907723" lon="16.2202255"><ele>1430.0</ele><time>2026-05-02T15:45:25.676Z</time></trkpt><trkpt lat="39.9906773" lon="16.2202438"><ele>1428.5714285714287</ele><time>2026-05-02T15:45:27.674Z</time></trkpt><trkpt lat="39.9906046" lon="16.2202692"><ele>1427.142857142857</ele><time>2026-05-02T15:45:29.677Z</time></trkpt><trkpt lat="39.9905431" lon="16.2202895"><ele>1425.7142857142858</ele><time>2026-05-02T15:45:31.681Z</time></trkpt><trkpt lat="39.9904773" lon="16.220317"><ele>1424.2857142857142</ele><time>2026-05-02T15:45:34.679Z</time></trkpt><trkpt lat="39.9904124" lon="16.2203546"><ele>1422.857142857143</ele><time>2026-05-02T15:45:46.674Z</time></trkpt><trkpt lat="39.9903773" lon="16.2204312"><ele>1421.4285714285713</ele><time>2026-05-02T15:45:54.686Z</time></trkpt><trkpt lat="39.9903419" lon="16.2205118"><ele>1420.0</ele><time>2026-05-02T15:46:14.668Z</time></trkpt><trkpt lat="39.9902803" lon="16.2205345"><ele>1420.0</ele><time>2026-05-02T15:47:10.676Z</time></trkpt><trkpt lat="39.99023" lon="16.2205962"><ele>1420.0</ele><time>2026-05-02T15:47:24.694Z</time></trkpt><trkpt lat="39.9901698" lon="16.2206376"><ele>1420.0</ele><time>2026-05-02T15:47:36.679Z</time></trkpt><trkpt lat="39.9901104" lon="16.2206699"><ele>1420.0</ele><time>2026-05-02T15:47:42.677Z</time></trkpt><trkpt lat="39.9900472" lon="16.2207116"><ele>1420.0</ele><time>2026-05-02T15:48:35.664Z</time></trkpt><trkpt lat="39.9899722" lon="16.2207534"><ele>1420.0</ele><time>2026-05-02T15:48:40.694Z</time></trkpt><trkpt lat="39.9898957" lon="16.2207862"><ele>1420.0</ele><time>2026-05-02T15:48:43.675Z</time></trkpt><trkpt lat="39.9898126" lon="16.220842"><ele>1417.8333333333333</ele><time>2026-05-02T15:48:46.682Z</time></trkpt><trkpt lat="39.989746" lon="16.2209019"><ele>1415.6666666666665</ele><time>2026-05-02T15:48:48.676Z</time></trkpt><trkpt lat="39.9896854" lon="16.2209377"><ele>1413.5</ele><time>2026-05-02T15:48:50.679Z</time></trkpt><trkpt lat="39.9896324" lon="16.2209862"><ele>1411.3333333333333</ele><time>2026-05-02T15:48:52.681Z</time></trkpt><trkpt lat="39.9895645" lon="16.2210443"><ele>1409.1666666666667</ele><time>2026-05-02T15:48:55.677Z</time></trkpt><trkpt lat="39.989484" lon="16.2210681"><ele>1407.0</ele><time>2026-05-02T15:48:58.681Z</time></trkpt><trkpt lat="39.9894068" lon="16.2210886"><ele>1407.0</ele><time>2026-05-02T15:49:01.676Z</time></trkpt><trkpt lat="39.9893438" lon="16.2211258"><ele>1407.0</ele><time>2026-05-02T15:49:07.668Z</time></trkpt><trkpt lat="39.9892907" lon="16.2211721"><ele>1407.0</ele><time>2026-05-02T15:49:30.679Z</time></trkpt><trkpt lat="39.9892384" lon="16.2212227"><ele>1407.0</ele><time>2026-05-02T15:49:41.688Z</time></trkpt><trkpt lat="39.9891782" lon="16.221258"><ele>1407.0</ele><time>2026-05-02T15:49:43.684Z</time></trkpt><trkpt lat="39.9891104" lon="16.2213007"><ele>1407.0</ele><time>2026-05-02T15:49:46.681Z</time></trkpt><trkpt lat="39.9890351" lon="16.2213252"><ele>1407.0</ele><time>2026-05-02T15:50:06.682Z</time></trkpt><trkpt lat="39.9889693" lon="16.2213605"><ele>1405.6666666666667</ele><time>2026-05-02T15:50:46.678Z</time></trkpt><trkpt lat="39.9889016" lon="16.2214079"><ele>1404.3333333333333</ele><time>2026-05-02T15:50:51.674Z</time></trkpt><trkpt lat="39.9888431" lon="16.2214429"><ele>1403.0</ele><time>2026-05-02T15:50:56.687Z</time></trkpt><trkpt lat="39.988763" lon="16.2214702"><ele>1401.6666666666665</ele><time>2026-05-02T15:51:03.678Z</time></trkpt><trkpt lat="39.9886899" lon="16.2215178"><ele>1400.3333333333333</ele><time>2026-05-02T15:51:07.674Z</time></trkpt><trkpt lat="39.9886143" lon="16.2215445"><ele>1399.0</ele><time>2026-05-02T15:51:10.676Z</time></trkpt><trkpt lat="39.9885539" lon="16.2215861"><ele>1398.7142857142858</ele><time>2026-05-02T15:51:12.676Z</time></trkpt><trkpt lat="39.9884963" lon="16.2216645"><ele>1398.4285714285716</ele><time>2026-05-02T15:51:15.672Z</time></trkpt><trkpt lat="39.988453" lon="16.2217467"><ele>1398.1428571428573</ele><time>2026-05-02T15:51:22.678Z</time></trkpt><trkpt lat="39.9884132" lon="16.2218176"><ele>1397.857142857143</ele><time>2026-05-02T15:51:27.672Z</time></trkpt><trkpt lat="39.9883847" lon="16.2218913"><ele>1397.5714285714287</ele><time>2026-05-02T15:51:31.678Z</time></trkpt><trkpt lat="39.9883474" lon="16.2219684"><ele>1397.2857142857144</ele><time>2026-05-02T15:51:36.68Z</time></trkpt><trkpt lat="39.9883264" lon="16.2220646"><ele>1397.0</ele><time>2026-05-02T15:51:41.676Z</time></trkpt><trkpt lat="39.988301" lon="16.2221457"><ele>1397.0000000000002</ele><time>2026-05-02T15:51:46.674Z</time></trkpt><trkpt lat="39.988292" lon="16.2222345"><ele>1397.0</ele><time>2026-05-02T15:51:56.673Z</time></trkpt><trkpt lat="39.9882947" lon="16.2223211"><ele>1397.0</ele><time>2026-05-02T15:52:06.672Z</time></trkpt><trkpt lat="39.9883206" lon="16.2223983"><ele>1397.0</ele><time>2026-05-02T15:52:12.676Z</time></trkpt><trkpt lat="39.9883773" lon="16.2224438"><ele>1397.0</ele><time>2026-05-02T15:52:33.686Z</time></trkpt><trkpt lat="39.9883826" lon="16.2225422"><ele>1397.0000000000002</ele><time>2026-05-02T15:52:46.684Z</time></trkpt><trkpt lat="39.9883658" lon="16.2226215"><ele>1397.0</ele><time>2026-05-02T15:59:22.67Z</time></trkpt><trkpt lat="39.9884412" lon="16.2227091"><ele>1394.4285714285716</ele><time>2026-05-02T16:01:04.679Z</time></trkpt><trkpt lat="39.9884459" lon="16.2227944"><ele>1391.857142857143</ele><time>2026-05-02T16:02:06.675Z</time></trkpt><trkpt lat="39.9884573" lon="16.2228775"><ele>1389.2857142857142</ele><time>2026-05-02T16:02:26.681Z</time></trkpt><trkpt lat="39.9885136" lon="16.2229595"><ele>1386.7142857142858</ele><time>2026-05-02T16:02:45.673Z</time></trkpt><trkpt lat="39.9884968" lon="16.2230455"><ele>1384.142857142857</ele><time>2026-05-02T16:03:03.676Z</time></trkpt><trkpt lat="39.9884862" lon="16.2231292"><ele>1381.5714285714287</ele><time>2026-05-02T16:03:25.676Z</time></trkpt><trkpt lat="39.9884869" lon="16.223218"><ele>1379.0</ele><time>2026-05-02T16:03:32.672Z</time></trkpt><trkpt lat="39.9885038" lon="16.2233006"><ele>1377.5714285714287</ele><time>2026-05-02T16:03:39.671Z</time></trkpt><trkpt lat="39.9885393" lon="16.2233697"><ele>1376.142857142857</ele><time>2026-05-02T16:03:47.679Z</time></trkpt><trkpt lat="39.9885537" lon="16.2234595"><ele>1374.7142857142858</ele><time>2026-05-02T16:03:52.684Z</time></trkpt><trkpt lat="39.9885693" lon="16.2235502"><ele>1373.2857142857142</ele><time>2026-05-02T16:03:58.676Z</time></trkpt><trkpt lat="39.9885718" lon="16.2236377"><ele>1371.857142857143</ele><time>2026-05-02T16:04:04.681Z</time></trkpt><trkpt lat="39.9885547" lon="16.2237239"><ele>1370.4285714285716</ele><time>2026-05-02T16:04:09.67Z</time></trkpt><trkpt lat="39.9885128" lon="16.2238022"><ele>1369.0</ele><time>2026-05-02T16:04:23.676Z</time></trkpt><trkpt lat="39.9884928" lon="16.223891"><ele>1369.0000000000002</ele><time>2026-05-02T16:04:29.691Z</time></trkpt><trkpt lat="39.9885297" lon="16.2239622"><ele>1369.0</ele><time>2026-05-02T16:04:39.69Z</time></trkpt><trkpt lat="39.9885469" lon="16.2240513"><ele>1369.0</ele><time>2026-05-02T16:04:46.675Z</time></trkpt><trkpt lat="39.9885403" lon="16.2241754"><ele>1369.0</ele><time>2026-05-02T16:09:28.68Z</time></trkpt><trkpt lat="39.988529" lon="16.2242609"><ele>1369.0</ele><time>2026-05-02T16:09:48.687Z</time></trkpt><trkpt lat="39.9884654" lon="16.2242679"><ele>1369.0000000000002</ele><time>2026-05-02T16:10:11.678Z</time></trkpt><trkpt lat="39.9883981" lon="16.2242976"><ele>1369.0</ele><time>2026-05-02T16:10:21.685Z</time></trkpt><trkpt lat="39.9883209" lon="16.2242994"><ele>1368.7142857142858</ele><time>2026-05-02T16:10:26.678Z</time></trkpt><trkpt lat="39.9882566" lon="16.2243188"><ele>1368.4285714285716</ele><time>2026-05-02T16:16:37.675Z</time></trkpt><trkpt lat="39.988184" lon="16.2242999"><ele>1368.1428571428573</ele><time>2026-05-02T16:16:41.671Z</time></trkpt><trkpt lat="39.9881164" lon="16.2243104"><ele>1367.857142857143</ele><time>2026-05-02T16:16:46.663Z</time></trkpt><trkpt lat="39.9880372" lon="16.224287"><ele>1367.5714285714284</ele><time>2026-05-02T16:17:59.671Z</time></trkpt><trkpt lat="39.9880104" lon="16.2243637"><ele>1367.2857142857144</ele><time>2026-05-02T16:18:12.668Z</time></trkpt><trkpt lat="39.9879952" lon="16.2244488"><ele>1367.0</ele><time>2026-05-02T16:18:19.674Z</time></trkpt><trkpt lat="39.9879606" lon="16.2245342"><ele>1367.0</ele><time>2026-05-02T16:19:16.668Z</time></trkpt><trkpt lat="39.9879557" lon="16.2246217"><ele>1367.0</ele><time>2026-05-02T16:19:23.68Z</time></trkpt><trkpt lat="39.9879428" lon="16.2247299"><ele>1367.0</ele><time>2026-05-02T16:19:30.686Z</time></trkpt><trkpt lat="39.9879307" lon="16.2248312"><ele>1367.0</ele><time>2026-05-02T16:19:34.689Z</time></trkpt><trkpt lat="39.9879272" lon="16.2249311"><ele>1367.0</ele><time>2026-05-02T16:19:37.677Z</time></trkpt><trkpt lat="39.9879145" lon="16.2250257"><ele>1367.0</ele><time>2026-05-02T16:19:40.683Z</time></trkpt><trkpt lat="39.9879063" lon="16.2251219"><ele>1366.142857142857</ele><time>2026-05-02T16:19:43.683Z</time></trkpt><trkpt lat="39.9879056" lon="16.2252301"><ele>1365.2857142857142</ele><time>2026-05-02T16:19:47.686Z</time></trkpt><trkpt lat="39.9879036" lon="16.2253354"><ele>1364.4285714285713</ele><time>2026-05-02T16:19:51.685Z</time></trkpt><trkpt lat="39.9879133" lon="16.2254313"><ele>1363.5714285714284</ele><time>2026-05-02T16:19:55.677Z</time></trkpt><trkpt lat="39.9879155" lon="16.2255136"><ele>1362.7142857142858</ele><time>2026-05-02T16:20:00.674Z</time></trkpt><trkpt lat="39.9879189" lon="16.2255992"><ele>1361.8571428571427</ele><time>2026-05-02T16:20:08.686Z</time></trkpt><trkpt lat="39.9879411" lon="16.2256796"><ele>1361.0</ele><time>2026-05-02T16:20:14.68Z</time></trkpt><trkpt lat="39.9879365" lon="16.2257755"><ele>1360.5714285714284</ele><time>2026-05-02T16:20:19.67Z</time></trkpt><trkpt lat="39.9879138" lon="16.225854"><ele>1360.142857142857</ele><time>2026-05-02T16:20:23.68Z</time></trkpt><trkpt lat="39.9878636" lon="16.2259187"><ele>1359.7142857142858</ele><time>2026-05-02T16:20:26.682Z</time></trkpt><trkpt lat="39.9878063" lon="16.2259685"><ele>1359.2857142857142</ele><time>2026-05-02T16:20:29.683Z</time></trkpt><trkpt lat="39.9877348" lon="16.2260454"><ele>1358.857142857143</ele><time>2026-05-02T16:20:32.679Z</time></trkpt><trkpt lat="39.9876848" lon="16.2261"><ele>1358.4285714285713</ele><time>2026-05-02T16:20:34.682Z</time></trkpt><trkpt lat="39.9876199" lon="16.2261759"><ele>1358.0</ele><time>2026-05-02T16:20:37.675Z</time></trkpt><trkpt lat="39.9875704" lon="16.2262435"><ele>1358.0</ele><time>2026-05-02T16:20:41.678Z</time></trkpt><trkpt lat="39.9875381" lon="16.2263144"><ele>1358.0</ele><time>2026-05-02T16:20:45.672Z</time></trkpt><trkpt lat="39.9875218" lon="16.2263998"><ele>1358.0</ele><time>2026-05-02T16:20:59.691Z</time></trkpt><trkpt lat="39.9874874" lon="16.2264689"><ele>1358.0</ele><time>2026-05-02T16:21:32.686Z</time></trkpt><trkpt lat="39.9875045" lon="16.2265485"><ele>1358.0</ele><time>2026-05-02T16:29:21.666Z</time></trkpt><trkpt lat="39.987473" lon="16.2266226"><ele>1358.0</ele><time>2026-05-02T16:31:11.676Z</time></trkpt><trkpt lat="39.9874563" lon="16.2267227"><ele>1358.0</ele><time>2026-05-02T16:31:33.686Z</time></trkpt><trkpt lat="39.9874673" lon="16.2268151"><ele>1358.0</ele><time>2026-05-02T16:31:39.674Z</time></trkpt><trkpt lat="39.9874754" lon="16.2269004"><ele>1358.0</ele><time>2026-05-02T16:31:46.673Z</time></trkpt><trkpt lat="39.9874743" lon="16.2269853"><ele>1358.0</ele><time>2026-05-02T16:31:56.681Z</time></trkpt><trkpt lat="39.9874902" lon="16.2270665"><ele>1358.0</ele><time>2026-05-02T16:32:15.672Z</time></trkpt><trkpt lat="39.9874754" lon="16.2269004"><ele>1358.0</ele><time>2026-05-02T16:31:46.673Z</time></trkpt><trkpt lat="39.9874743" lon="16.2269853"><ele>1358.0</ele><time>2026-05-02T16:31:56.681Z</time></trkpt><trkpt lat="39.9874902" lon="16.2270665"><ele>1358.0</ele><time>2026-05-02T16:32:15.672Z</time></trkpt><trkpt lat="39.9875074" lon="16.2271459"><ele>1358.0</ele><time>2026-05-02T16:32:26.678Z</time></trkpt><trkpt lat="39.9875245" lon="16.2272498"><ele>1358.0</ele><time>2026-05-02T16:32:31.679Z</time></trkpt><trkpt lat="39.9875331" lon="16.2273475"><ele>1358.0</ele><time>2026-05-02T16:32:40.685Z</time></trkpt><trkpt lat="39.9875591" lon="16.2274258"><ele>1358.0</ele><time>2026-05-02T16:33:20.678Z</time></trkpt><trkpt lat="39.9875634" lon="16.2275125"><ele>1358.0</ele><time>2026-05-02T16:33:36.687Z</time></trkpt><trkpt lat="39.9875369" lon="16.2275906"><ele>1358.0</ele><time>2026-05-02T16:33:55.673Z</time></trkpt><trkpt lat="39.9875265" lon="16.2276758"><ele>1338.0</ele><time>2026-05-02T16:34:10.687Z</time></trkpt><trkpt lat="39.9875261" lon="16.2277717"><ele>1338.0</ele><time>2026-05-02T16:34:26.68Z</time></trkpt><trkpt lat="39.9875266" lon="16.2278671"><ele>1338.0</ele><time>2026-05-02T16:34:49.676Z</time></trkpt><trkpt lat="39.9875377" lon="16.2279597"><ele>1338.0</ele><time>2026-05-02T16:35:01.683Z</time></trkpt><trkpt lat="39.9875375" lon="16.2280576"><ele>1338.0</ele><time>2026-05-02T16:35:05.675Z</time></trkpt></trkseg><trkseg><trkpt lat="39.9875643" lon="16.2282247"><ele>1333.0</ele><time>2026-05-02T16:48:51.68Z</time></trkpt><trkpt lat="39.9875585" lon="16.2283215"><ele>1333.0</ele><time>2026-05-02T16:48:54.678Z</time></trkpt><trkpt lat="39.9875739" lon="16.2284417"><ele>1333.0</ele><time>2026-05-02T16:48:56.672Z</time></trkpt><trkpt lat="39.9875831" lon="16.228547"><ele>1333.0</ele><time>2026-05-02T16:48:58.681Z</time></trkpt><trkpt lat="39.987583" lon="16.2286564"><ele>1333.0</ele><time>2026-05-02T16:49:01.663Z</time></trkpt><trkpt lat="39.9875761" lon="16.2287715"><ele>1333.0</ele><time>2026-05-02T16:49:04.668Z</time></trkpt><trkpt lat="39.987575" lon="16.228889"><ele>1332.9999999999998</ele><time>2026-05-02T16:49:07.679Z</time></trkpt><trkpt lat="39.9875774" lon="16.2289714"><ele>1333.0</ele><time>2026-05-02T16:49:09.678Z</time></trkpt><trkpt lat="39.9875962" lon="16.2290612"><ele>1333.0</ele><time>2026-05-02T16:49:19.677Z</time></trkpt><trkpt lat="39.9876271" lon="16.229135"><ele>1333.0</ele><time>2026-05-02T16:49:47.68Z</time></trkpt><trkpt lat="39.9876707" lon="16.2292006"><ele>1333.0</ele><time>2026-05-02T16:52:14.679Z</time></trkpt><trkpt lat="39.9877128" lon="16.2292703"><ele>1332.9999999999998</ele><time>2026-05-02T16:52:33.676Z</time></trkpt><trkpt lat="39.9877421" lon="16.2293456"><ele>1333.0</ele><time>2026-05-02T16:52:43.689Z</time></trkpt><trkpt lat="39.9877541" lon="16.2294272"><ele>1332.9999999999998</ele><time>2026-05-02T16:52:53.67Z</time></trkpt><trkpt lat="39.9877451" lon="16.2295172"><ele>1333.0</ele><time>2026-05-02T16:53:05.668Z</time></trkpt><trkpt lat="39.9877439" lon="16.229605"><ele>1333.0</ele><time>2026-05-02T16:53:12.676Z</time></trkpt><trkpt lat="39.9877553" lon="16.2296891"><ele>1333.0</ele><time>2026-05-02T16:53:16.682Z</time></trkpt><trkpt lat="39.9877965" lon="16.2297518"><ele>1333.0</ele><time>2026-05-02T16:53:22.677Z</time></trkpt><trkpt lat="39.9878544" lon="16.2297976"><ele>1332.9999999999998</ele><time>2026-05-02T16:54:05.668Z</time></trkpt><trkpt lat="39.9879136" lon="16.2298347"><ele>1333.0</ele><time>2026-05-02T16:54:09.679Z</time></trkpt><trkpt lat="39.9879902" lon="16.2298483"><ele>1332.7142857142856</ele><time>2026-05-02T16:54:14.683Z</time></trkpt><trkpt lat="39.9880685" lon="16.2298438"><ele>1332.4285714285713</ele><time>2026-05-02T16:54:19.674Z</time></trkpt><trkpt lat="39.9881363" lon="16.2298647"><ele>1332.142857142857</ele><time>2026-05-02T16:54:22.687Z</time></trkpt><trkpt lat="39.9881815" lon="16.2299234"><ele>1331.8571428571427</ele><time>2026-05-02T16:54:26.679Z</time></trkpt><trkpt lat="39.9881956" lon="16.2300046"><ele>1331.5714285714284</ele><time>2026-05-02T16:54:30.685Z</time></trkpt><trkpt lat="39.988159" lon="16.2300939"><ele>1331.2857142857142</ele><time>2026-05-02T16:54:34.684Z</time></trkpt><trkpt lat="39.9881186" lon="16.230198"><ele>1331.0</ele><time>2026-05-02T16:54:37.682Z</time></trkpt><trkpt lat="39.9880778" lon="16.2302812"><ele>1331.0</ele><time>2026-05-02T16:54:40.672Z</time></trkpt><trkpt lat="39.9880296" lon="16.2303525"><ele>1331.0</ele><time>2026-05-02T16:54:43.669Z</time></trkpt><trkpt lat="39.9879658" lon="16.2304249"><ele>1331.0</ele><time>2026-05-02T16:54:46.68Z</time></trkpt><trkpt lat="39.987914" lon="16.2304777"><ele>1331.0</ele><time>2026-05-02T16:54:50.669Z</time></trkpt><trkpt lat="39.9878514" lon="16.2305208"><ele>1331.0</ele><time>2026-05-02T16:54:57.673Z</time></trkpt><trkpt lat="39.9877864" lon="16.2305762"><ele>1331.0</ele><time>2026-05-02T16:55:06.676Z</time></trkpt><trkpt lat="39.9877361" lon="16.2306506"><ele>1331.0</ele><time>2026-05-02T16:55:13.673Z</time></trkpt><trkpt lat="39.9877174" lon="16.2307305"><ele>1330.4285714285716</ele><time>2026-05-02T16:55:28.675Z</time></trkpt><trkpt lat="39.9877373" lon="16.2308169"><ele>1329.857142857143</ele><time>2026-05-02T16:55:36.676Z</time></trkpt><trkpt lat="39.9877147" lon="16.2309008"><ele>1329.2857142857142</ele><time>2026-05-02T16:56:46.676Z</time></trkpt><trkpt lat="39.9877038" lon="16.2309908"><ele>1328.7142857142858</ele><time>2026-05-02T16:56:52.674Z</time></trkpt><trkpt lat="39.9877085" lon="16.2310854"><ele>1328.142857142857</ele><time>2026-05-02T16:56:58.682Z</time></trkpt><trkpt lat="39.9877034" lon="16.2311712"><ele>1327.5714285714287</ele><time>2026-05-02T16:57:01.677Z</time></trkpt><trkpt lat="39.9876826" lon="16.231252"><ele>1327.0</ele><time>2026-05-02T16:57:03.667Z</time></trkpt><trkpt lat="39.9876349" lon="16.231311"><ele>1327.0</ele><time>2026-05-02T16:57:04.69Z</time></trkpt><trkpt lat="39.9875452" lon="16.2314082"><ele>1327.0</ele><time>2026-05-02T16:57:06.671Z</time></trkpt><trkpt lat="39.9874706" lon="16.2314711"><ele>1327.0</ele><time>2026-05-02T16:57:08.68Z</time></trkpt><trkpt lat="39.9874132" lon="16.2315052"><ele>1327.0</ele><time>2026-05-02T16:57:10.677Z</time></trkpt><trkpt lat="39.9873487" lon="16.2314923"><ele>1327.0</ele><time>2026-05-02T16:57:28.674Z</time></trkpt><trkpt lat="39.987291" lon="16.231534"><ele>1327.0</ele><time>2026-05-02T16:57:37.677Z</time></trkpt><trkpt lat="39.9872951" lon="16.2316283"><ele>1326.8333333333333</ele><time>2026-05-02T16:58:07.676Z</time></trkpt><trkpt lat="39.9873008" lon="16.2317188"><ele>1326.6666666666665</ele><time>2026-05-02T16:58:12.673Z</time></trkpt><trkpt lat="39.9873339" lon="16.2317997"><ele>1326.5</ele><time>2026-05-02T16:58:14.674Z</time></trkpt><trkpt lat="39.9873803" lon="16.2318949"><ele>1326.3333333333333</ele><time>2026-05-02T16:58:17.681Z</time></trkpt><trkpt lat="39.9874458" lon="16.231982"><ele>1326.1666666666667</ele><time>2026-05-02T16:58:20.677Z</time></trkpt><trkpt lat="39.9875027" lon="16.2320472"><ele>1326.0</ele><time>2026-05-02T16:58:22.678Z</time></trkpt><trkpt lat="39.9875574" lon="16.2321234"><ele>1326.0</ele><time>2026-05-02T16:58:24.682Z</time></trkpt><trkpt lat="39.9876116" lon="16.2322079"><ele>1326.0</ele><time>2026-05-02T16:58:26.673Z</time></trkpt><trkpt lat="39.9876616" lon="16.2322868"><ele>1326.0</ele><time>2026-05-02T16:58:28.682Z</time></trkpt><trkpt lat="39.9877136" lon="16.2323534"><ele>1326.0</ele><time>2026-05-02T16:58:30.676Z</time></trkpt><trkpt lat="39.9877872" lon="16.2324084"><ele>1326.0</ele><time>2026-05-02T16:58:32.686Z</time></trkpt><trkpt lat="39.9878843" lon="16.2324503"><ele>1326.0</ele><time>2026-05-02T16:58:34.681Z</time></trkpt><trkpt lat="39.9879806" lon="16.2324822"><ele>1327.5</ele><time>2026-05-02T16:58:36.671Z</time></trkpt><trkpt lat="39.9880511" lon="16.2325225"><ele>1329.0</ele><time>2026-05-02T16:58:38.681Z</time></trkpt><trkpt lat="39.9881133" lon="16.2325855"><ele>1330.5</ele><time>2026-05-02T16:58:40.671Z</time></trkpt><trkpt lat="39.9881546" lon="16.2326867"><ele>1332.0</ele><time>2026-05-02T16:58:42.673Z</time></trkpt><trkpt lat="39.9881836" lon="16.2327966"><ele>1333.5</ele><time>2026-05-02T16:58:44.674Z</time></trkpt><trkpt lat="39.9882136" lon="16.2329049"><ele>1335.0</ele><time>2026-05-02T16:58:46.671Z</time></trkpt><trkpt lat="39.9882304" lon="16.233023"><ele>1335.0</ele><time>2026-05-02T16:58:48.68Z</time></trkpt><trkpt lat="39.9882398" lon="16.2331377"><ele>1335.0</ele><time>2026-05-02T16:58:50.674Z</time></trkpt><trkpt lat="39.9882529" lon="16.23326"><ele>1335.0</ele><time>2026-05-02T16:58:52.675Z</time></trkpt><trkpt lat="39.9882531" lon="16.2333767"><ele>1335.0</ele><time>2026-05-02T16:58:54.671Z</time></trkpt><trkpt lat="39.9882402" lon="16.2335227"><ele>1335.0</ele><time>2026-05-02T16:58:56.674Z</time></trkpt><trkpt lat="39.9882264" lon="16.2336536"><ele>1336.3333333333333</ele><time>2026-05-02T16:58:58.681Z</time></trkpt><trkpt lat="39.9882205" lon="16.2337461"><ele>1337.6666666666667</ele><time>2026-05-02T16:59:00.679Z</time></trkpt><trkpt lat="39.9882046" lon="16.2338718"><ele>1339.0</ele><time>2026-05-02T16:59:03.673Z</time></trkpt><trkpt lat="39.9881738" lon="16.2339898"><ele>1340.3333333333335</ele><time>2026-05-02T16:59:05.671Z</time></trkpt><trkpt lat="39.9881603" lon="16.2341185"><ele>1341.6666666666667</ele><time>2026-05-02T16:59:07.674Z</time></trkpt><trkpt lat="39.988167" lon="16.2342207"><ele>1343.0</ele><time>2026-05-02T16:59:09.673Z</time></trkpt><trkpt lat="39.9881693" lon="16.234336"><ele>1343.3333333333335</ele><time>2026-05-02T16:59:11.681Z</time></trkpt><trkpt lat="39.9881849" lon="16.2344535"><ele>1343.6666666666667</ele><time>2026-05-02T16:59:13.67Z</time></trkpt><trkpt lat="39.9882163" lon="16.2345633"><ele>1344.0</ele><time>2026-05-02T16:59:15.669Z</time></trkpt><trkpt lat="39.9882465" lon="16.2346698"><ele>1344.3333333333333</ele><time>2026-05-02T16:59:17.682Z</time></trkpt><trkpt lat="39.9882664" lon="16.2347587"><ele>1344.6666666666665</ele><time>2026-05-02T16:59:19.679Z</time></trkpt><trkpt lat="39.988283" lon="16.2348574"><ele>1345.0</ele><time>2026-05-02T16:59:22.672Z</time></trkpt><trkpt lat="39.9882868" lon="16.234945"><ele>1345.2857142857142</ele><time>2026-05-02T16:59:30.674Z</time></trkpt><trkpt lat="39.9882948" lon="16.2350477"><ele>1345.5714285714284</ele><time>2026-05-02T16:59:34.672Z</time></trkpt><trkpt lat="39.988307" lon="16.2351538"><ele>1345.8571428571427</ele><time>2026-05-02T16:59:36.672Z</time></trkpt><trkpt lat="39.9883213" lon="16.235237"><ele>1346.142857142857</ele><time>2026-05-02T16:59:38.667Z</time></trkpt><trkpt lat="39.9883335" lon="16.2353261"><ele>1346.4285714285713</ele><time>2026-05-02T16:59:47.674Z</time></trkpt><trkpt lat="39.9882999" lon="16.2354076"><ele>1346.7142857142856</ele><time>2026-05-02T16:59:55.682Z</time></trkpt><trkpt lat="39.9882718" lon="16.2354903"><ele>1347.0</ele><time>2026-05-02T16:59:57.669Z</time></trkpt><trkpt lat="39.9882341" lon="16.235562"><ele>1347.0</ele><time>2026-05-02T16:59:59.677Z</time></trkpt><trkpt lat="39.9881959" lon="16.235633"><ele>1347.0</ele><time>2026-05-02T17:00:01.691Z</time></trkpt><trkpt lat="39.9881443" lon="16.2356967"><ele>1347.0</ele><time>2026-05-02T17:00:03.681Z</time></trkpt><trkpt lat="39.9880699" lon="16.235748"><ele>1347.0</ele><time>2026-05-02T17:00:06.683Z</time></trkpt><trkpt lat="39.9880128" lon="16.2358068"><ele>1347.0</ele><time>2026-05-02T17:00:09.678Z</time></trkpt><trkpt lat="39.9879569" lon="16.2358598"><ele>1347.0</ele><time>2026-05-02T17:00:12.685Z</time></trkpt><trkpt lat="39.9878804" lon="16.2359272"><ele>1347.2857142857142</ele><time>2026-05-02T17:00:15.69Z</time></trkpt><trkpt lat="39.9878105" lon="16.2359956"><ele>1347.5714285714284</ele><time>2026-05-02T17:00:18.68Z</time></trkpt><trkpt lat="39.98777" lon="16.2360677"><ele>1347.8571428571427</ele><time>2026-05-02T17:00:21.691Z</time></trkpt><trkpt lat="39.9877319" lon="16.2361418"><ele>1348.142857142857</ele><time>2026-05-02T17:00:24.683Z</time></trkpt><trkpt lat="39.98769" lon="16.2362297"><ele>1348.4285714285716</ele><time>2026-05-02T17:00:27.672Z</time></trkpt><trkpt lat="39.9876387" lon="16.2362811"><ele>1348.7142857142856</ele><time>2026-05-02T17:00:29.681Z</time></trkpt><trkpt lat="39.9875826" lon="16.2363188"><ele>1349.0</ele><time>2026-05-02T17:00:31.676Z</time></trkpt><trkpt lat="39.9875284" lon="16.2363613"><ele>1349.5714285714284</ele><time>2026-05-02T17:00:33.679Z</time></trkpt><trkpt lat="39.9874608" lon="16.2363962"><ele>1350.1428571428573</ele><time>2026-05-02T17:00:43.68Z</time></trkpt><trkpt lat="39.9874062" lon="16.236448"><ele>1350.7142857142858</ele><time>2026-05-02T17:00:53.67Z</time></trkpt><trkpt lat="39.9873423" lon="16.2364711"><ele>1351.2857142857142</ele><time>2026-05-02T17:01:02.669Z</time></trkpt><trkpt lat="39.9872922" lon="16.236521"><ele>1351.8571428571427</ele><time>2026-05-02T17:01:04.665Z</time></trkpt><trkpt lat="39.9872458" lon="16.2365959"><ele>1352.4285714285716</ele><time>2026-05-02T17:01:06.682Z</time></trkpt><trkpt lat="39.9872235" lon="16.2366947"><ele>1353.0</ele><time>2026-05-02T17:01:09.677Z</time></trkpt><trkpt lat="39.9871808" lon="16.2367818"><ele>1351.3333333333333</ele><time>2026-05-02T17:01:15.669Z</time></trkpt><trkpt lat="39.9871206" lon="16.2368427"><ele>1349.6666666666667</ele><time>2026-05-02T17:01:19.676Z</time></trkpt><trkpt lat="39.9870551" lon="16.2369354"><ele>1348.0</ele><time>2026-05-02T17:01:22.689Z</time></trkpt><trkpt lat="39.9870179" lon="16.2370137"><ele>1346.3333333333335</ele><time>2026-05-02T17:01:24.685Z</time></trkpt><trkpt lat="39.9869778" lon="16.2371087"><ele>1344.6666666666667</ele><time>2026-05-02T17:01:27.675Z</time></trkpt><trkpt lat="39.9869426" lon="16.2371941"><ele>1343.0</ele><time>2026-05-02T17:01:30.698Z</time></trkpt><trkpt lat="39.9868876" lon="16.2372627"><ele>1341.7142857142858</ele><time>2026-05-02T17:01:34.681Z</time></trkpt><trkpt lat="39.9868386" lon="16.2373227"><ele>1340.4285714285716</ele><time>2026-05-02T17:01:37.689Z</time></trkpt><trkpt lat="39.9867772" lon="16.2373507"><ele>1339.1428571428573</ele><time>2026-05-02T17:01:40.681Z</time></trkpt><trkpt lat="39.9867157" lon="16.237391"><ele>1337.857142857143</ele><time>2026-05-02T17:01:44.678Z</time></trkpt><trkpt lat="39.9866591" lon="16.2374396"><ele>1336.5714285714287</ele><time>2026-05-02T17:01:55.67Z</time></trkpt><trkpt lat="39.9865955" lon="16.2374542"><ele>1335.2857142857144</ele><time>2026-05-02T17:02:03.668Z</time></trkpt><trkpt lat="39.9865371" lon="16.2374902"><ele>1334.0</ele><time>2026-05-02T17:02:11.67Z</time></trkpt><trkpt lat="39.9864772" lon="16.2375318"><ele>1334.0000000000002</ele><time>2026-05-02T17:02:40.683Z</time></trkpt><trkpt lat="39.9864041" lon="16.2375672"><ele>1334.0</ele><time>2026-05-02T17:02:47.667Z</time></trkpt><trkpt lat="39.9863435" lon="16.2376045"><ele>1334.0</ele><time>2026-05-02T17:02:56.676Z</time></trkpt><trkpt lat="39.9862852" lon="16.237637"><ele>1334.0</ele><time>2026-05-02T17:03:05.67Z</time></trkpt><trkpt lat="39.9862964" lon="16.237732"><ele>1334.0</ele><time>2026-05-02T17:03:21.676Z</time></trkpt><trkpt lat="39.9862766" lon="16.2378305"><ele>1334.0000000000002</ele><time>2026-05-02T17:05:01.681Z</time></trkpt><trkpt lat="39.9862821" lon="16.2379177"><ele>1334.0</ele><time>2026-05-02T17:05:34.676Z</time></trkpt><trkpt lat="39.9863326" lon="16.2379731"><ele>1334.0000000000002</ele><time>2026-05-02T17:05:50.671Z</time></trkpt><trkpt lat="39.9864021" lon="16.2379869"><ele>1334.0</ele><time>2026-05-02T17:06:03.666Z</time></trkpt><trkpt lat="39.9864679" lon="16.2379966"><ele>1334.0</ele><time>2026-05-02T17:06:08.66Z</time></trkpt><trkpt lat="39.9865374" lon="16.2380202"><ele>1334.0</ele><time>2026-05-02T17:06:41.675Z</time></trkpt><trkpt lat="39.986603" lon="16.2380109"><ele>1334.0</ele><time>2026-05-02T17:07:17.668Z</time></trkpt><trkpt lat="39.986703" lon="16.2380182"><ele>1334.0000000000002</ele><time>2026-05-02T17:07:43.667Z</time></trkpt><trkpt lat="39.9867673" lon="16.2380324"><ele>1334.0</ele><time>2026-05-02T17:07:58.665Z</time></trkpt><trkpt lat="39.986837" lon="16.2380415"><ele>1333.8333333333335</ele><time>2026-05-02T17:08:05.664Z</time></trkpt><trkpt lat="39.986919" lon="16.238091"><ele>1333.6666666666667</ele><time>2026-05-02T17:08:09.678Z</time></trkpt><trkpt lat="39.9869797" lon="16.2381395"><ele>1333.5</ele><time>2026-05-02T17:08:11.669Z</time></trkpt><trkpt lat="39.987048" lon="16.2381876"><ele>1333.3333333333333</ele><time>2026-05-02T17:08:14.674Z</time></trkpt><trkpt lat="39.9871218" lon="16.2382232"><ele>1333.1666666666665</ele><time>2026-05-02T17:08:18.675Z</time></trkpt><trkpt lat="39.9871975" lon="16.2382471"><ele>1333.0</ele><time>2026-05-02T17:08:21.662Z</time></trkpt><trkpt lat="39.9872519" lon="16.2382885"><ele>1330.9999999999998</ele><time>2026-05-02T17:12:49.67Z</time></trkpt><trkpt lat="39.9872683" lon="16.238378"><ele>1329.0</ele><time>2026-05-02T17:13:04.67Z</time></trkpt><trkpt lat="39.9872459" lon="16.2384614"><ele>1327.0</ele><time>2026-05-02T17:13:10.678Z</time></trkpt><trkpt lat="39.9872021" lon="16.2385279"><ele>1325.0</ele><time>2026-05-02T17:13:17.674Z</time></trkpt><trkpt lat="39.9871337" lon="16.2385774"><ele>1323.0</ele><time>2026-05-02T17:13:24.687Z</time></trkpt><trkpt lat="39.9871355" lon="16.2386634"><ele>1320.9999999999998</ele><time>2026-05-02T17:14:11.667Z</time></trkpt><trkpt lat="39.9871616" lon="16.238745"><ele>1319.0</ele><time>2026-05-02T17:14:25.669Z</time></trkpt><trkpt lat="39.98719" lon="16.2388224"><ele>1319.0</ele><time>2026-05-02T17:14:32.667Z</time></trkpt><trkpt lat="39.9872138" lon="16.2389211"><ele>1319.0</ele><time>2026-05-02T17:14:40.677Z</time></trkpt><trkpt lat="39.9872264" lon="16.2390209"><ele>1319.0</ele><time>2026-05-02T17:14:44.667Z</time></trkpt><trkpt lat="39.9872158" lon="16.2391093"><ele>1319.0</ele><time>2026-05-02T17:14:48.67Z</time></trkpt><trkpt lat="39.9871719" lon="16.2391869"><ele>1319.0</ele><time>2026-05-02T17:14:56.673Z</time></trkpt><trkpt lat="39.9871319" lon="16.2392716"><ele>1319.0</ele><time>2026-05-02T17:14:59.677Z</time></trkpt><trkpt lat="39.9870943" lon="16.2393751"><ele>1317.142857142857</ele><time>2026-05-02T17:15:02.665Z</time></trkpt><trkpt lat="39.9870607" lon="16.2394577"><ele>1315.2857142857142</ele><time>2026-05-02T17:15:04.672Z</time></trkpt><trkpt lat="39.9870258" lon="16.2395267"><ele>1313.4285714285716</ele><time>2026-05-02T17:15:06.672Z</time></trkpt><trkpt lat="39.9869851" lon="16.2395987"><ele>1311.5714285714284</ele><time>2026-05-02T17:15:08.671Z</time></trkpt><trkpt lat="39.9869343" lon="16.2396898"><ele>1309.7142857142858</ele><time>2026-05-02T17:15:10.671Z</time></trkpt><trkpt lat="39.9869107" lon="16.2397844"><ele>1307.857142857143</ele><time>2026-05-02T17:15:12.674Z</time></trkpt><trkpt lat="39.9868873" lon="16.2398831"><ele>1306.0</ele><time>2026-05-02T17:15:14.668Z</time></trkpt><trkpt lat="39.9868843" lon="16.2399989"><ele>1304.8333333333333</ele><time>2026-05-02T17:15:17.672Z</time></trkpt><trkpt lat="39.9868973" lon="16.2401006"><ele>1303.6666666666665</ele><time>2026-05-02T17:15:20.675Z</time></trkpt><trkpt lat="39.9869497" lon="16.2401728"><ele>1302.5</ele><time>2026-05-02T17:15:24.673Z</time></trkpt><trkpt lat="39.9870057" lon="16.2402261"><ele>1301.3333333333333</ele><time>2026-05-02T17:15:31.674Z</time></trkpt><trkpt lat="39.9870348" lon="16.2403425"><ele>1300.1666666666667</ele><time>2026-05-02T17:15:34.681Z</time></trkpt><trkpt lat="39.987049" lon="16.2404268"><ele>1299.0</ele><time>2026-05-02T17:15:36.685Z</time></trkpt><trkpt lat="39.9870657" lon="16.2405437"><ele>1299.0000000000002</ele><time>2026-05-02T17:15:39.668Z</time></trkpt><trkpt lat="39.987092" lon="16.2406206"><ele>1299.0</ele><time>2026-05-02T17:15:41.669Z</time></trkpt><trkpt lat="39.9871178" lon="16.2407128"><ele>1299.0</ele><time>2026-05-02T17:15:43.652Z</time></trkpt><trkpt lat="39.9871456" lon="16.2408074"><ele>1299.0</ele><time>2026-05-02T17:15:45.671Z</time></trkpt><trkpt lat="39.987176" lon="16.2409064"><ele>1299.0</ele><time>2026-05-02T17:15:47.681Z</time></trkpt><trkpt lat="39.9871926" lon="16.2409883"><ele>1299.0000000000002</ele><time>2026-05-02T17:15:49.674Z</time></trkpt><trkpt lat="39.9871907" lon="16.241079"><ele>1299.0</ele><time>2026-05-02T17:15:52.673Z</time></trkpt><trkpt lat="39.9871835" lon="16.2411627"><ele>1297.6666666666667</ele><time>2026-05-02T17:15:56.674Z</time></trkpt><trkpt lat="39.9871836" lon="16.2412635"><ele>1296.3333333333333</ele><time>2026-05-02T17:16:01.677Z</time></trkpt><trkpt lat="39.9871775" lon="16.2413534"><ele>1295.0</ele><time>2026-05-02T17:16:03.673Z</time></trkpt><trkpt lat="39.987177" lon="16.2414817"><ele>1293.6666666666665</ele><time>2026-05-02T17:16:05.668Z</time></trkpt><trkpt lat="39.9871754" lon="16.2415992"><ele>1292.3333333333333</ele><time>2026-05-02T17:16:07.679Z</time></trkpt><trkpt lat="39.9871829" lon="16.2416873"><ele>1291.0</ele><time>2026-05-02T17:16:09.674Z</time></trkpt><trkpt lat="39.9871954" lon="16.2418061"><ele>1289.5714285714284</ele><time>2026-05-02T17:16:12.682Z</time></trkpt><trkpt lat="39.9871849" lon="16.2418916"><ele>1288.142857142857</ele><time>2026-05-02T17:16:14.68Z</time></trkpt><trkpt lat="39.9871704" lon="16.2419896"><ele>1286.7142857142858</ele><time>2026-05-02T17:16:16.665Z</time></trkpt><trkpt lat="39.9871955" lon="16.2420715"><ele>1285.2857142857142</ele><time>2026-05-02T17:16:18.684Z</time></trkpt><trkpt lat="39.9872421" lon="16.2421617"><ele>1283.857142857143</ele><time>2026-05-02T17:16:21.668Z</time></trkpt><trkpt lat="39.9873096" lon="16.2421998"><ele>1282.4285714285713</ele><time>2026-05-02T17:16:26.666Z</time></trkpt><trkpt lat="39.9873824" lon="16.2422155"><ele>1281.0</ele><time>2026-05-02T17:16:33.683Z</time></trkpt><trkpt lat="39.9874564" lon="16.24226"><ele>1279.5714285714287</ele><time>2026-05-02T17:16:36.675Z</time></trkpt><trkpt lat="39.9875105" lon="16.2423408"><ele>1278.142857142857</ele><time>2026-05-02T17:16:39.677Z</time></trkpt><trkpt lat="39.9875716" lon="16.2424033"><ele>1276.7142857142858</ele><time>2026-05-02T17:16:42.676Z</time></trkpt><trkpt lat="39.9876275" lon="16.2424749"><ele>1275.2857142857142</ele><time>2026-05-02T17:16:45.673Z</time></trkpt><trkpt lat="39.9876821" lon="16.2425215"><ele>1273.857142857143</ele><time>2026-05-02T17:16:48.676Z</time></trkpt><trkpt lat="39.9876927" lon="16.2426064"><ele>1272.4285714285716</ele><time>2026-05-02T17:16:52.687Z</time></trkpt><trkpt lat="39.9877113" lon="16.2426883"><ele>1271.0</ele><time>2026-05-02T17:17:02.678Z</time></trkpt><trkpt lat="39.9877222" lon="16.2427841"><ele>1271.0</ele><time>2026-05-02T17:17:08.677Z</time></trkpt><trkpt lat="39.9877386" lon="16.2428647"><ele>1271.0</ele><time>2026-05-02T17:17:10.689Z</time></trkpt><trkpt lat="39.9877897" lon="16.2430058"><ele>1271.0</ele><time>2026-05-02T17:17:12.689Z</time></trkpt><trkpt lat="39.9878275" lon="16.2430815"><ele>1271.0</ele><time>2026-05-02T17:17:13.671Z</time></trkpt><trkpt lat="39.9878639" lon="16.243152"><ele>1271.0</ele><time>2026-05-02T17:17:14.677Z</time></trkpt><trkpt lat="39.9879163" lon="16.2433045"><ele>1271.0</ele><time>2026-05-02T17:17:16.677Z</time></trkpt><trkpt lat="39.9879332" lon="16.243392"><ele>1271.5</ele><time>2026-05-02T17:17:17.688Z</time></trkpt><trkpt lat="39.9879447" lon="16.2434799"><ele>1272.0</ele><time>2026-05-02T17:17:18.677Z</time></trkpt><trkpt lat="39.9879521" lon="16.2435741"><ele>1272.5</ele><time>2026-05-02T17:17:19.675Z</time></trkpt><trkpt lat="39.9879562" lon="16.2436726"><ele>1273.0</ele><time>2026-05-02T17:17:20.68Z</time></trkpt><trkpt lat="39.987955" lon="16.2437602"><ele>1273.5</ele><time>2026-05-02T17:17:21.671Z</time></trkpt><trkpt lat="39.9879405" lon="16.2439045"><ele>1274.0</ele><time>2026-05-02T17:17:23.678Z</time></trkpt><trkpt lat="39.9879198" lon="16.2440099"><ele>1275.0</ele><time>2026-05-02T17:17:25.678Z</time></trkpt><trkpt lat="39.987867" lon="16.2441301"><ele>1276.0</ele><time>2026-05-02T17:17:27.681Z</time></trkpt><trkpt lat="39.9878254" lon="16.2442247"><ele>1277.0</ele><time>2026-05-02T17:17:29.677Z</time></trkpt><trkpt lat="39.987816" lon="16.2443078"><ele>1278.0</ele><time>2026-05-02T17:17:31.672Z</time></trkpt><trkpt lat="39.9878537" lon="16.2444152"><ele>1279.0</ele><time>2026-05-02T17:17:34.671Z</time></trkpt><trkpt lat="39.9878957" lon="16.244482"><ele>1280.0</ele><time>2026-05-02T17:17:36.67Z</time></trkpt><trkpt lat="39.9879357" lon="16.244564"><ele>1280.0</ele><time>2026-05-02T17:17:38.668Z</time></trkpt><trkpt lat="39.9879784" lon="16.24468"><ele>1280.0</ele><time>2026-05-02T17:17:40.677Z</time></trkpt><trkpt lat="39.9879966" lon="16.2447939"><ele>1280.0</ele><time>2026-05-02T17:17:42.675Z</time></trkpt><trkpt lat="39.9880154" lon="16.2448914"><ele>1280.0</ele><time>2026-05-02T17:37:57.692Z</time></trkpt><trkpt lat="39.987998" lon="16.2449939"><ele>1280.0</ele><time>2026-05-02T17:37:59.664Z</time></trkpt><trkpt lat="39.987983" lon="16.2450852"><ele>1280.0</ele><time>2026-05-02T17:38:00.674Z</time></trkpt><trkpt lat="39.9879698" lon="16.2451761"><ele>1281.0</ele><time>2026-05-02T17:38:01.682Z</time></trkpt><trkpt lat="39.98797" lon="16.2452591"><ele>1282.0</ele><time>2026-05-02T17:38:02.653Z</time></trkpt><trkpt lat="39.9879634" lon="16.2454101"><ele>1283.0</ele><time>2026-05-02T17:38:04.69Z</time></trkpt><trkpt lat="39.9879797" lon="16.2455448"><ele>1284.0</ele><time>2026-05-02T17:38:06.695Z</time></trkpt><trkpt lat="39.9880383" lon="16.2456699"><ele>1285.0</ele><time>2026-05-02T17:38:08.677Z</time></trkpt><trkpt lat="39.9881091" lon="16.2457966"><ele>1285.5</ele><time>2026-05-02T17:38:10.694Z</time></trkpt><trkpt lat="39.9881555" lon="16.2459025"><ele>1286.0</ele><time>2026-05-02T17:38:12.683Z</time></trkpt><trkpt lat="39.9881783" lon="16.2459947"><ele>1286.5</ele><time>2026-05-02T17:38:14.704Z</time></trkpt><trkpt lat="39.9881973" lon="16.2460905"><ele>1287.0</ele><time>2026-05-02T17:38:16.701Z</time></trkpt><trkpt lat="39.9882149" lon="16.2462102"><ele>1287.5</ele><time>2026-05-02T17:38:18.693Z</time></trkpt><trkpt lat="39.9882378" lon="16.2463107"><ele>1288.0</ele><time>2026-05-02T17:38:20.675Z</time></trkpt><trkpt lat="39.9882552" lon="16.2464076"><ele>1288.1666666666665</ele><time>2026-05-02T17:38:23.687Z</time></trkpt><trkpt lat="39.9882728" lon="16.2464916"><ele>1288.3333333333333</ele><time>2026-05-02T17:38:28.686Z</time></trkpt><trkpt lat="39.9883041" lon="16.2465759"><ele>1288.5</ele><time>2026-05-02T17:38:30.669Z</time></trkpt><trkpt lat="39.9883629" lon="16.246649"><ele>1288.6666666666667</ele><time>2026-05-02T17:38:32.69Z</time></trkpt><trkpt lat="39.9884474" lon="16.2466695"><ele>1288.8333333333335</ele><time>2026-05-02T17:38:34.673Z</time></trkpt><trkpt lat="39.9885375" lon="16.2466336"><ele>1289.0</ele><time>2026-05-02T17:38:36.687Z</time></trkpt><trkpt lat="39.9886296" lon="16.246597"><ele>1289.0</ele><time>2026-05-02T17:38:38.697Z</time></trkpt><trkpt lat="39.988692" lon="16.2466479"><ele>1289.0</ele><time>2026-05-02T17:38:40.685Z</time></trkpt><trkpt lat="39.9886958" lon="16.2467537"><ele>1289.0</ele><time>2026-05-02T17:38:42.693Z</time></trkpt><trkpt lat="39.9886587" lon="16.2468844"><ele>1289.0</ele><time>2026-05-02T17:38:44.696Z</time></trkpt><trkpt lat="39.9886079" lon="16.247027"><ele>1289.0</ele><time>2026-05-02T17:38:46.693Z</time></trkpt><trkpt lat="39.9885732" lon="16.2471544"><ele>1289.0</ele><time>2026-05-02T17:38:48.687Z</time></trkpt><trkpt lat="39.9885323" lon="16.247254"><ele>1289.0</ele><time>2026-05-02T17:38:51.683Z</time></trkpt><trkpt lat="39.9884728" lon="16.247339"><ele>1289.0</ele><time>2026-05-02T17:39:04.691Z</time></trkpt><trkpt lat="39.9884081" lon="16.2474306"><ele>1289.0</ele><time>2026-05-02T17:39:06.679Z</time></trkpt><trkpt lat="39.9883164" lon="16.2475031"><ele>1289.0</ele><time>2026-05-02T17:39:08.678Z</time></trkpt><trkpt lat="39.9882078" lon="16.2475369"><ele>1292.75</ele><time>2026-05-02T17:39:10.679Z</time></trkpt><trkpt lat="39.9881042" lon="16.2475915"><ele>1296.5</ele><time>2026-05-02T17:39:12.692Z</time></trkpt><trkpt lat="39.9880098" lon="16.247649"><ele>1300.25</ele><time>2026-05-02T17:39:14.691Z</time></trkpt><trkpt lat="39.9879034" lon="16.247707"><ele>1304.0</ele><time>2026-05-02T17:39:16.688Z</time></trkpt><trkpt lat="39.9877988" lon="16.24778"><ele>1304.0</ele><time>2026-05-02T17:39:18.696Z</time></trkpt><trkpt lat="39.9877072" lon="16.2478509"><ele>1304.0</ele><time>2026-05-02T17:39:20.678Z</time></trkpt><trkpt lat="39.9875988" lon="16.2478969"><ele>1304.0</ele><time>2026-05-02T17:39:22.688Z</time></trkpt><trkpt lat="39.987476" lon="16.2479146"><ele>1304.0</ele><time>2026-05-02T17:39:24.68Z</time></trkpt><trkpt lat="39.987409" lon="16.2479176"><ele>1304.0</ele><time>2026-05-02T17:39:25.677Z</time></trkpt><trkpt lat="39.9872973" lon="16.2479415"><ele>1305.8000000000002</ele><time>2026-05-02T17:39:27.683Z</time></trkpt><trkpt lat="39.9871964" lon="16.2479919"><ele>1307.6000000000001</ele><time>2026-05-02T17:39:29.692Z</time></trkpt><trkpt lat="39.9871018" lon="16.2480551"><ele>1309.4</ele><time>2026-05-02T17:39:31.675Z</time></trkpt><trkpt lat="39.9870187" lon="16.2480981"><ele>1311.2</ele><time>2026-05-02T17:39:33.693Z</time></trkpt><trkpt lat="39.9869247" lon="16.2481429"><ele>1313.0</ele><time>2026-05-02T17:39:35.696Z</time></trkpt><trkpt lat="39.9868144" lon="16.2481667"><ele>1314.0</ele><time>2026-05-02T17:39:37.678Z</time></trkpt><trkpt lat="39.9867115" lon="16.2481848"><ele>1315.0</ele><time>2026-05-02T17:39:39.683Z</time></trkpt><trkpt lat="39.9866219" lon="16.2482116"><ele>1316.0</ele><time>2026-05-02T17:39:41.69Z</time></trkpt><trkpt lat="39.9865178" lon="16.2482581"><ele>1317.0</ele><time>2026-05-02T17:39:43.697Z</time></trkpt><trkpt lat="39.9864025" lon="16.2483113"><ele>1318.0</ele><time>2026-05-02T17:39:45.697Z</time></trkpt><trkpt lat="39.9862839" lon="16.248375"><ele>1320.0</ele><time>2026-05-02T17:39:47.691Z</time></trkpt><trkpt lat="39.9861752" lon="16.2484169"><ele>1322.0</ele><time>2026-05-02T17:39:49.695Z</time></trkpt><trkpt lat="39.9860705" lon="16.2484124"><ele>1324.0</ele><time>2026-05-02T17:39:51.691Z</time></trkpt><trkpt lat="39.9859636" lon="16.2483732"><ele>1326.0</ele><time>2026-05-02T17:39:53.698Z</time></trkpt><trkpt lat="39.9858786" lon="16.248313"><ele>1328.0</ele><time>2026-05-02T17:39:55.689Z</time></trkpt><trkpt lat="39.9857829" lon="16.2482507"><ele>1328.6000000000001</ele><time>2026-05-02T17:39:57.687Z</time></trkpt><trkpt lat="39.9856819" lon="16.2481792"><ele>1329.2</ele><time>2026-05-02T17:39:59.701Z</time></trkpt><trkpt lat="39.9856216" lon="16.2481196"><ele>1329.8</ele><time>2026-05-02T17:40:01.693Z</time></trkpt><trkpt lat="39.985585" lon="16.2479839"><ele>1330.4</ele><time>2026-05-02T17:40:03.686Z</time></trkpt><trkpt lat="39.9856158" lon="16.2478523"><ele>1331.0</ele><time>2026-05-02T17:40:05.693Z</time></trkpt><trkpt lat="39.9856602" lon="16.247714"><ele>1331.0</ele><time>2026-05-02T17:40:07.693Z</time></trkpt><trkpt lat="39.9856547" lon="16.2475895"><ele>1331.0</ele><time>2026-05-02T17:40:09.677Z</time></trkpt><trkpt lat="39.9856242" lon="16.2474894"><ele>1331.0</ele><time>2026-05-02T17:40:11.681Z</time></trkpt><trkpt lat="39.9855669" lon="16.2473897"><ele>1331.0</ele><time>2026-05-02T17:40:13.667Z</time></trkpt><trkpt lat="39.9854904" lon="16.2473288"><ele>1331.0</ele><time>2026-05-02T17:40:15.675Z</time></trkpt><trkpt lat="39.9854042" lon="16.2472935"><ele>1331.0</ele><time>2026-05-02T17:40:17.7Z</time></trkpt><trkpt lat="39.9853374" lon="16.2472732"><ele>1331.0</ele><time>2026-05-02T17:40:19.699Z</time></trkpt><trkpt lat="39.9852635" lon="16.2473169"><ele>1331.0</ele><time>2026-05-02T17:40:22.694Z</time></trkpt><trkpt lat="39.9852364" lon="16.2474176"><ele>1331.0</ele><time>2026-05-02T17:40:24.684Z</time></trkpt><trkpt lat="39.9852181" lon="16.2475644"><ele>1331.0</ele><time>2026-05-02T17:40:26.68Z</time></trkpt><trkpt lat="39.9852061" lon="16.247649"><ele>1331.0</ele><time>2026-05-02T17:40:27.684Z</time></trkpt><trkpt lat="39.9851866" lon="16.247739"><ele>1331.0</ele><time>2026-05-02T17:40:28.683Z</time></trkpt><trkpt lat="39.9851409" lon="16.247879"><ele>1331.0</ele><time>2026-05-02T17:40:30.69Z</time></trkpt><trkpt lat="39.9850992" lon="16.2480018"><ele>1331.0</ele><time>2026-05-02T17:40:32.703Z</time></trkpt><trkpt lat="39.9850832" lon="16.2481696"><ele>1331.0</ele><time>2026-05-02T17:40:34.699Z</time></trkpt><trkpt lat="39.9850706" lon="16.2482605"><ele>1331.0</ele><time>2026-05-02T17:40:35.692Z</time></trkpt><trkpt lat="39.9850642" lon="16.2483599"><ele>1330.6666666666667</ele><time>2026-05-02T17:40:36.693Z</time></trkpt><trkpt lat="39.9850546" lon="16.2484528"><ele>1330.3333333333335</ele><time>2026-05-02T17:40:37.699Z</time></trkpt><trkpt lat="39.9850254" lon="16.2485373"><ele>1330.0</ele><time>2026-05-02T17:40:38.707Z</time></trkpt><trkpt lat="39.9849948" lon="16.2486208"><ele>1329.6666666666667</ele><time>2026-05-02T17:40:39.706Z</time></trkpt><trkpt lat="39.9849328" lon="16.2487497"><ele>1329.3333333333333</ele><time>2026-05-02T17:40:41.704Z</time></trkpt><trkpt lat="39.98487" lon="16.2488595"><ele>1329.0</ele><time>2026-05-02T17:40:43.697Z</time></trkpt><trkpt lat="39.9847892" lon="16.2489334"><ele>1330.6</ele><time>2026-05-02T17:40:45.704Z</time></trkpt><trkpt lat="39.9847003" lon="16.2489887"><ele>1332.2</ele><time>2026-05-02T17:40:47.702Z</time></trkpt><trkpt lat="39.9845818" lon="16.2489997"><ele>1333.8</ele><time>2026-05-02T17:40:49.687Z</time></trkpt><trkpt lat="39.9845095" lon="16.2489985"><ele>1335.3999999999999</ele><time>2026-05-02T17:40:50.708Z</time></trkpt><trkpt lat="39.9844372" lon="16.2489914"><ele>1337.0</ele><time>2026-05-02T17:40:51.691Z</time></trkpt><trkpt lat="39.9843214" lon="16.2489895"><ele>1337.0</ele><time>2026-05-02T17:40:53.698Z</time></trkpt><trkpt lat="39.9842241" lon="16.2490163"><ele>1337.0</ele><time>2026-05-02T17:40:55.674Z</time></trkpt><trkpt lat="39.9841306" lon="16.2490655"><ele>1337.0</ele><time>2026-05-02T17:40:57.689Z</time></trkpt><trkpt lat="39.984059" lon="16.2491669"><ele>1337.0</ele><time>2026-05-02T17:40:59.666Z</time></trkpt><trkpt lat="39.9840101" lon="16.2492649"><ele>1337.0</ele><time>2026-05-02T17:41:01.694Z</time></trkpt><trkpt lat="39.9839534" lon="16.2493452"><ele>1333.5</ele><time>2026-05-02T17:41:03.688Z</time></trkpt><trkpt lat="39.9838925" lon="16.2494167"><ele>1330.0</ele><time>2026-05-02T17:41:05.695Z</time></trkpt><trkpt lat="39.9838067" lon="16.2494801"><ele>1326.5</ele><time>2026-05-02T17:41:07.696Z</time></trkpt><trkpt lat="39.983726" lon="16.2495156"><ele>1323.0</ele><time>2026-05-02T17:41:09.685Z</time></trkpt><trkpt lat="39.9836477" lon="16.2495457"><ele>1319.5</ele><time>2026-05-02T17:41:11.683Z</time></trkpt><trkpt lat="39.9835614" lon="16.2496086"><ele>1316.0</ele><time>2026-05-02T17:41:13.692Z</time></trkpt><trkpt lat="39.9835127" lon="16.2497021"><ele>1316.8</ele><time>2026-05-02T17:41:15.689Z</time></trkpt><trkpt lat="39.9835068" lon="16.2498215"><ele>1317.6</ele><time>2026-05-02T17:41:17.679Z</time></trkpt><trkpt lat="39.9835233" lon="16.2499504"><ele>1318.4</ele><time>2026-05-02T17:41:19.689Z</time></trkpt><trkpt lat="39.9835487" lon="16.2500836"><ele>1319.2</ele><time>2026-05-02T17:41:21.68Z</time></trkpt><trkpt lat="39.9835374" lon="16.2501947"><ele>1320.0</ele><time>2026-05-02T17:41:23.692Z</time></trkpt><trkpt lat="39.9834929" lon="16.2502944"><ele>1320.0</ele><time>2026-05-02T17:41:25.692Z</time></trkpt><trkpt lat="39.983448" lon="16.250362"><ele>1320.0</ele><time>2026-05-02T17:41:27.689Z</time></trkpt><trkpt lat="39.983388" lon="16.2504536"><ele>1320.0</ele><time>2026-05-02T17:41:30.684Z</time></trkpt><trkpt lat="39.9833556" lon="16.2505505"><ele>1320.0</ele><time>2026-05-02T17:41:32.678Z</time></trkpt><trkpt lat="39.9833067" lon="16.2506619"><ele>1320.0</ele><time>2026-05-02T17:41:34.673Z</time></trkpt><trkpt lat="39.9832499" lon="16.2507702"><ele>1320.0</ele><time>2026-05-02T17:41:36.681Z</time></trkpt><trkpt lat="39.9831764" lon="16.2508582"><ele>1317.0</ele><time>2026-05-02T17:41:38.692Z</time></trkpt><trkpt lat="39.9830957" lon="16.2509135"><ele>1314.0</ele><time>2026-05-02T17:41:40.689Z</time></trkpt><trkpt lat="39.9829998" lon="16.2509438"><ele>1311.0</ele><time>2026-05-02T17:41:42.7Z</time></trkpt><trkpt lat="39.9829121" lon="16.2509795"><ele>1308.0</ele><time>2026-05-02T17:41:44.692Z</time></trkpt><trkpt lat="39.9828177" lon="16.2510276"><ele>1305.0</ele><time>2026-05-02T17:41:46.673Z</time></trkpt><trkpt lat="39.9827318" lon="16.2510645"><ele>1305.0</ele><time>2026-05-02T17:41:48.682Z</time></trkpt><trkpt lat="39.9826503" lon="16.2510872"><ele>1305.0</ele><time>2026-05-02T17:41:50.69Z</time></trkpt><trkpt lat="39.9825818" lon="16.2510833"><ele>1305.0</ele><time>2026-05-02T17:41:52.684Z</time></trkpt><trkpt lat="39.9825255" lon="16.2510413"><ele>1305.0</ele><time>2026-05-02T17:41:54.689Z</time></trkpt><trkpt lat="39.9825059" lon="16.2509445"><ele>1305.0</ele><time>2026-05-02T17:41:57.668Z</time></trkpt><trkpt lat="39.9825596" lon="16.2508381"><ele>1305.0</ele><time>2026-05-02T17:42:00.674Z</time></trkpt><trkpt lat="39.982624" lon="16.2507775"><ele>1305.0</ele><time>2026-05-02T17:42:02.683Z</time></trkpt><trkpt lat="39.9826886" lon="16.2507011"><ele>1305.0</ele><time>2026-05-02T17:42:04.687Z</time></trkpt><trkpt lat="39.9827496" lon="16.250574"><ele>1305.0</ele><time>2026-05-02T17:42:06.689Z</time></trkpt><trkpt lat="39.9827785" lon="16.2504352"><ele>1305.0</ele><time>2026-05-02T17:42:08.696Z</time></trkpt><trkpt lat="39.9827921" lon="16.250353"><ele>1305.0</ele><time>2026-05-02T17:42:09.683Z</time></trkpt><trkpt lat="39.9827889" lon="16.2502669"><ele>1305.0</ele><time>2026-05-02T17:42:10.703Z</time></trkpt><trkpt lat="39.9828081" lon="16.250187"><ele>1303.8</ele><time>2026-05-02T17:42:11.683Z</time></trkpt><trkpt lat="39.9827907" lon="16.2500266"><ele>1302.6</ele><time>2026-05-02T17:42:13.676Z</time></trkpt><trkpt lat="39.9827464" lon="16.2498686"><ele>1301.4</ele><time>2026-05-02T17:42:15.696Z</time></trkpt><trkpt lat="39.9827024" lon="16.2497954"><ele>1300.2</ele><time>2026-05-02T17:42:16.713Z</time></trkpt><trkpt lat="39.9826654" lon="16.2497249"><ele>1299.0</ele><time>2026-05-02T17:42:17.696Z</time></trkpt><trkpt lat="39.9826209" lon="16.2496603"><ele>1299.0</ele><time>2026-05-02T17:42:18.699Z</time></trkpt><trkpt lat="39.982581" lon="16.2495844"><ele>1299.0</ele><time>2026-05-02T17:42:19.694Z</time></trkpt><trkpt lat="39.9825203" lon="16.2495182"><ele>1299.0</ele><time>2026-05-02T17:42:20.703Z</time></trkpt><trkpt lat="39.9824849" lon="16.2494472"><ele>1299.0</ele><time>2026-05-02T17:42:21.699Z</time></trkpt><trkpt lat="39.9824369" lon="16.2493877"><ele>1299.0</ele><time>2026-05-02T17:42:22.693Z</time></trkpt><trkpt lat="39.9823889" lon="16.2493194"><ele>1299.0</ele><time>2026-05-02T17:42:23.695Z</time></trkpt><trkpt lat="39.9823116" lon="16.249208"><ele>1296.0</ele><time>2026-05-02T17:42:25.697Z</time></trkpt><trkpt lat="39.9822266" lon="16.2491065"><ele>1293.0</ele><time>2026-05-02T17:42:27.695Z</time></trkpt><trkpt lat="39.9821372" lon="16.2490306"><ele>1290.0</ele><time>2026-05-02T17:42:29.69Z</time></trkpt><trkpt lat="39.9820432" lon="16.2489756"><ele>1287.0</ele><time>2026-05-02T17:42:31.707Z</time></trkpt><trkpt lat="39.9819378" lon="16.2489685"><ele>1284.0</ele><time>2026-05-02T17:42:33.683Z</time></trkpt><trkpt lat="39.9818435" lon="16.249005"><ele>1284.0</ele><time>2026-05-02T17:42:35.68Z</time></trkpt><trkpt lat="39.9817555" lon="16.2491025"><ele>1284.0</ele><time>2026-05-02T17:42:37.702Z</time></trkpt><trkpt lat="39.9817214" lon="16.2491743"><ele>1284.0</ele><time>2026-05-02T17:42:38.682Z</time></trkpt><trkpt lat="39.9816745" lon="16.2492939"><ele>1284.0</ele><time>2026-05-02T17:42:40.692Z</time></trkpt><trkpt lat="39.981636" lon="16.2493832"><ele>1284.0</ele><time>2026-05-02T17:42:42.685Z</time></trkpt><trkpt lat="39.9815736" lon="16.2494497"><ele>1284.0</ele><time>2026-05-02T17:42:44.684Z</time></trkpt><trkpt lat="39.9815063" lon="16.2494523"><ele>1281.0</ele><time>2026-05-02T17:42:46.684Z</time></trkpt><trkpt lat="39.981441" lon="16.2494065"><ele>1278.0</ele><time>2026-05-02T17:42:48.691Z</time></trkpt><trkpt lat="39.9813746" lon="16.2493191"><ele>1275.0</ele><time>2026-05-02T17:42:50.693Z</time></trkpt><trkpt lat="39.9813206" lon="16.2492095"><ele>1272.0</ele><time>2026-05-02T17:42:52.689Z</time></trkpt><trkpt lat="39.9812821" lon="16.2490964"><ele>1269.0</ele><time>2026-05-02T17:42:54.692Z</time></trkpt><trkpt lat="39.9812646" lon="16.2489788"><ele>1269.3333333333333</ele><time>2026-05-02T17:42:56.696Z</time></trkpt><trkpt lat="39.981261" lon="16.2488816"><ele>1269.6666666666667</ele><time>2026-05-02T17:42:58.693Z</time></trkpt><trkpt lat="39.9812891" lon="16.2487694"><ele>1270.0</ele><time>2026-05-02T17:43:00.688Z</time></trkpt><trkpt lat="39.9813256" lon="16.2486657"><ele>1270.3333333333335</ele><time>2026-05-02T17:43:02.702Z</time></trkpt><trkpt lat="39.981332" lon="16.2485645"><ele>1270.6666666666667</ele><time>2026-05-02T17:43:05.704Z</time></trkpt><trkpt lat="39.9812735" lon="16.2485165"><ele>1271.0</ele><time>2026-05-02T17:43:08.689Z</time></trkpt><trkpt lat="39.9811841" lon="16.2485348"><ele>1271.0</ele><time>2026-05-02T17:43:11.698Z</time></trkpt><trkpt lat="39.9811007" lon="16.2485985"><ele>1271.0</ele><time>2026-05-02T17:43:13.692Z</time></trkpt><trkpt lat="39.9810189" lon="16.2486766"><ele>1271.0</ele><time>2026-05-02T17:43:15.692Z</time></trkpt><trkpt lat="39.98095" lon="16.2487858"><ele>1271.0</ele><time>2026-05-02T17:43:17.663Z</time></trkpt><trkpt lat="39.9809059" lon="16.2489197"><ele>1271.0</ele><time>2026-05-02T17:43:19.699Z</time></trkpt><trkpt lat="39.9808714" lon="16.2490541"><ele>1267.5</ele><time>2026-05-02T17:43:21.682Z</time></trkpt><trkpt lat="39.9808415" lon="16.249169"><ele>1264.0</ele><time>2026-05-02T17:43:23.677Z</time></trkpt><trkpt lat="39.9807923" lon="16.2492704"><ele>1260.5</ele><time>2026-05-02T17:43:25.689Z</time></trkpt><trkpt lat="39.9807585" lon="16.2493605"><ele>1257.0</ele><time>2026-05-02T17:43:27.684Z</time></trkpt><trkpt lat="39.9806982" lon="16.2494421"><ele>1253.5</ele><time>2026-05-02T17:43:30.691Z</time></trkpt><trkpt lat="39.9806153" lon="16.2494184"><ele>1250.0</ele><time>2026-05-02T17:43:33.687Z</time></trkpt><trkpt lat="39.9805637" lon="16.2493457"><ele>1250.0</ele><time>2026-05-02T17:43:35.678Z</time></trkpt><trkpt lat="39.9805123" lon="16.2492624"><ele>1250.0</ele><time>2026-05-02T17:43:37.703Z</time></trkpt><trkpt lat="39.980431" lon="16.2491926"><ele>1250.0</ele><time>2026-05-02T17:43:39.683Z</time></trkpt><trkpt lat="39.9803456" lon="16.249143"><ele>1250.0</ele><time>2026-05-02T17:43:41.708Z</time></trkpt><trkpt lat="39.9802709" lon="16.2491025"><ele>1250.0</ele><time>2026-05-02T17:43:43.696Z</time></trkpt><trkpt lat="39.9802058" lon="16.2490656"><ele>1250.0</ele><time>2026-05-02T17:43:45.705Z</time></trkpt><trkpt lat="39.9801539" lon="16.2490106"><ele>1250.1666666666667</ele><time>2026-05-02T17:43:47.674Z</time></trkpt><trkpt lat="39.9800802" lon="16.2489307"><ele>1250.3333333333335</ele><time>2026-05-02T17:43:50.694Z</time></trkpt><trkpt lat="39.9800148" lon="16.2489099"><ele>1250.5</ele><time>2026-05-02T17:43:52.691Z</time></trkpt><trkpt lat="39.9799507" lon="16.2489351"><ele>1250.6666666666667</ele><time>2026-05-02T17:43:54.701Z</time></trkpt><trkpt lat="39.9798875" lon="16.2490172"><ele>1250.8333333333333</ele><time>2026-05-02T17:43:56.687Z</time></trkpt><trkpt lat="39.9797929" lon="16.2490993"><ele>1251.0</ele><time>2026-05-02T17:43:58.675Z</time></trkpt><trkpt lat="39.9796739" lon="16.2491415"><ele>1248.2857142857142</ele><time>2026-05-02T17:44:00.698Z</time></trkpt><trkpt lat="39.9796141" lon="16.2491736"><ele>1245.5714285714287</ele><time>2026-05-02T17:44:01.685Z</time></trkpt><trkpt lat="39.9795443" lon="16.2492062"><ele>1242.857142857143</ele><time>2026-05-02T17:44:02.695Z</time></trkpt><trkpt lat="39.9794712" lon="16.2492362"><ele>1240.142857142857</ele><time>2026-05-02T17:44:03.692Z</time></trkpt><trkpt lat="39.9794071" lon="16.2492696"><ele>1237.4285714285716</ele><time>2026-05-02T17:44:04.68Z</time></trkpt><trkpt lat="39.9793347" lon="16.2492963"><ele>1234.7142857142858</ele><time>2026-05-02T17:44:05.671Z</time></trkpt><trkpt lat="39.9792691" lon="16.249297"><ele>1232.0</ele><time>2026-05-02T17:44:06.685Z</time></trkpt><trkpt lat="39.9791853" lon="16.2493633"><ele>1230.0</ele><time>2026-05-02T17:44:08.688Z</time></trkpt><trkpt lat="39.9790984" lon="16.2494491"><ele>1228.0</ele><time>2026-05-02T17:44:10.701Z</time></trkpt><trkpt lat="39.9790198" lon="16.2495561"><ele>1226.0</ele><time>2026-05-02T17:44:12.689Z</time></trkpt><trkpt lat="39.9789604" lon="16.249657"><ele>1224.0</ele><time>2026-05-02T17:44:14.693Z</time></trkpt><trkpt lat="39.9789166" lon="16.2497519"><ele>1222.0</ele><time>2026-05-02T17:44:16.699Z</time></trkpt><trkpt lat="39.978857" lon="16.249872"><ele>1221.5</ele><time>2026-05-02T17:44:18.684Z</time></trkpt><trkpt lat="39.9788107" lon="16.2500196"><ele>1221.0</ele><time>2026-05-02T17:44:20.703Z</time></trkpt><trkpt lat="39.9787895" lon="16.2500994"><ele>1220.5</ele><time>2026-05-02T17:44:21.709Z</time></trkpt><trkpt lat="39.9787768" lon="16.2501814"><ele>1220.0</ele><time>2026-05-02T17:44:22.694Z</time></trkpt><trkpt lat="39.9787715" lon="16.2502737"><ele>1219.5</ele><time>2026-05-02T17:44:23.698Z</time></trkpt><trkpt lat="39.9787697" lon="16.2503631"><ele>1219.0</ele><time>2026-05-02T17:44:24.698Z</time></trkpt><trkpt lat="39.9787752" lon="16.2504524"><ele>1219.0</ele><time>2026-05-02T17:44:25.695Z</time></trkpt><trkpt lat="39.9787839" lon="16.2505484"><ele>1219.0</ele><time>2026-05-02T17:44:26.688Z</time></trkpt><trkpt lat="39.9787987" lon="16.2506522"><ele>1219.0</ele><time>2026-05-02T17:44:27.701Z</time></trkpt><trkpt lat="39.9788169" lon="16.2507582"><ele>1219.0</ele><time>2026-05-02T17:44:28.674Z</time></trkpt><trkpt lat="39.9788271" lon="16.2508507"><ele>1219.0</ele><time>2026-05-02T17:44:29.689Z</time></trkpt><trkpt lat="39.9788324" lon="16.2509392"><ele>1219.0</ele><time>2026-05-02T17:44:30.698Z</time></trkpt><trkpt lat="39.9788374" lon="16.251028"><ele>1219.0</ele><time>2026-05-02T17:44:31.692Z</time></trkpt><trkpt lat="39.9788417" lon="16.251112"><ele>1218.4</ele><time>2026-05-02T17:44:32.683Z</time></trkpt><trkpt lat="39.9788409" lon="16.2511981"><ele>1217.8000000000002</ele><time>2026-05-02T17:44:33.699Z</time></trkpt><trkpt lat="39.9788464" lon="16.2513547"><ele>1217.1999999999998</ele><time>2026-05-02T17:44:35.697Z</time></trkpt><trkpt lat="39.9788554" lon="16.2515006"><ele>1216.6</ele><time>2026-05-02T17:44:37.698Z</time></trkpt><trkpt lat="39.9788608" lon="16.2516243"><ele>1216.0</ele><time>2026-05-02T17:44:39.678Z</time></trkpt><trkpt lat="39.9788666" lon="16.2517229"><ele>1215.7142857142856</ele><time>2026-05-02T17:44:41.691Z</time></trkpt><trkpt lat="39.9788487" lon="16.2518055"><ele>1215.4285714285716</ele><time>2026-05-02T17:44:43.694Z</time></trkpt><trkpt lat="39.9787959" lon="16.2518608"><ele>1215.142857142857</ele><time>2026-05-02T17:44:45.684Z</time></trkpt><trkpt lat="39.9787251" lon="16.2518859"><ele>1214.8571428571427</ele><time>2026-05-02T17:44:48.694Z</time></trkpt><trkpt lat="39.9786526" lon="16.2518359"><ele>1214.5714285714284</ele><time>2026-05-02T17:44:51.688Z</time></trkpt><trkpt lat="39.9786576" lon="16.2517525"><ele>1214.2857142857142</ele><time>2026-05-02T17:44:53.681Z</time></trkpt><trkpt lat="39.9786802" lon="16.2516664"><ele>1214.0</ele><time>2026-05-02T17:44:55.694Z</time></trkpt><trkpt lat="39.9786695" lon="16.2515701"><ele>1214.0</ele><time>2026-05-02T17:44:58.682Z</time></trkpt><trkpt lat="39.9786094" lon="16.2515446"><ele>1214.0</ele><time>2026-05-02T17:45:01.685Z</time></trkpt><trkpt lat="39.9785546" lon="16.2515938"><ele>1214.0</ele><time>2026-05-02T17:45:04.684Z</time></trkpt><trkpt lat="39.978523" lon="16.251727"><ele>1214.0</ele><time>2026-05-02T17:45:07.692Z</time></trkpt><trkpt lat="39.9785083" lon="16.2518829"><ele>1214.0</ele><time>2026-05-02T17:45:09.681Z</time></trkpt><trkpt lat="39.9784812" lon="16.2520206"><ele>1214.0</ele><time>2026-05-02T17:45:11.687Z</time></trkpt><trkpt lat="39.9784134" lon="16.2521394"><ele>1214.0</ele><time>2026-05-02T17:45:13.695Z</time></trkpt><trkpt lat="39.9783135" lon="16.2522401"><ele>1214.0</ele><time>2026-05-02T17:45:15.693Z</time></trkpt><trkpt lat="39.9782573" lon="16.2522834"><ele>1214.0</ele><time>2026-05-02T17:45:16.703Z</time></trkpt><trkpt lat="39.9781624" lon="16.2523862"><ele>1214.0</ele><time>2026-05-02T17:45:18.664Z</time></trkpt><trkpt lat="39.9781226" lon="16.2524512"><ele>1209.8</ele><time>2026-05-02T17:45:19.651Z</time></trkpt><trkpt lat="39.9780769" lon="16.2525989"><ele>1205.6000000000001</ele><time>2026-05-02T17:45:21.705Z</time></trkpt><trkpt lat="39.9780473" lon="16.2527428"><ele>1201.4</ele><time>2026-05-02T17:45:23.69Z</time></trkpt><trkpt lat="39.9780153" lon="16.2528498"><ele>1197.2</ele><time>2026-05-02T17:45:25.695Z</time></trkpt><trkpt lat="39.9779447" lon="16.2529413"><ele>1193.0</ele><time>2026-05-02T17:45:27.687Z</time></trkpt><trkpt lat="39.9778699" lon="16.2530341"><ele>1194.8</ele><time>2026-05-02T17:45:29.698Z</time></trkpt><trkpt lat="39.9778126" lon="16.2531515"><ele>1196.6</ele><time>2026-05-02T17:45:31.699Z</time></trkpt><trkpt lat="39.9777761" lon="16.2532527"><ele>1198.4</ele><time>2026-05-02T17:45:33.686Z</time></trkpt><trkpt lat="39.9777293" lon="16.2533632"><ele>1200.2</ele><time>2026-05-02T17:45:35.695Z</time></trkpt><trkpt lat="39.9776849" lon="16.2535191"><ele>1202.0</ele><time>2026-05-02T17:45:37.688Z</time></trkpt><trkpt lat="39.9776171" lon="16.2536492"><ele>1202.0</ele><time>2026-05-02T17:45:39.69Z</time></trkpt><trkpt lat="39.9775696" lon="16.2537113"><ele>1202.0</ele><time>2026-05-02T17:45:40.692Z</time></trkpt><trkpt lat="39.9775168" lon="16.2537691"><ele>1202.0</ele><time>2026-05-02T17:45:41.7Z</time></trkpt><trkpt lat="39.9774607" lon="16.2538146"><ele>1202.0</ele><time>2026-05-02T17:45:42.701Z</time></trkpt><trkpt lat="39.9774065" lon="16.2538627"><ele>1202.0</ele><time>2026-05-02T17:45:43.685Z</time></trkpt><trkpt lat="39.9773148" lon="16.2539459"><ele>1202.0</ele><time>2026-05-02T17:45:45.703Z</time></trkpt><trkpt lat="39.9772314" lon="16.2540213"><ele>1200.8</ele><time>2026-05-02T17:45:47.698Z</time></trkpt><trkpt lat="39.9771429" lon="16.2540685"><ele>1199.6</ele><time>2026-05-02T17:45:49.682Z</time></trkpt><trkpt lat="39.9770611" lon="16.2541064"><ele>1198.3999999999999</ele><time>2026-05-02T17:45:51.702Z</time></trkpt><trkpt lat="39.9769742" lon="16.2541607"><ele>1197.2</ele><time>2026-05-02T17:45:53.698Z</time></trkpt><trkpt lat="39.9768718" lon="16.2542216"><ele>1196.0</ele><time>2026-05-02T17:45:55.691Z</time></trkpt><trkpt lat="39.9767778" lon="16.2542704"><ele>1193.2</ele><time>2026-05-02T17:45:57.709Z</time></trkpt><trkpt lat="39.9766542" lon="16.2542927"><ele>1190.3999999999999</ele><time>2026-05-02T17:45:59.71Z</time></trkpt><trkpt lat="39.976588" lon="16.2542977"><ele>1187.6</ele><time>2026-05-02T17:46:00.682Z</time></trkpt><trkpt lat="39.9764827" lon="16.254325"><ele>1184.8</ele><time>2026-05-02T17:46:02.715Z</time></trkpt><trkpt lat="39.9763744" lon="16.2544119"><ele>1182.0</ele><time>2026-05-02T17:46:04.671Z</time></trkpt><trkpt lat="39.9763375" lon="16.2544957"><ele>1182.0</ele><time>2026-05-02T17:46:05.687Z</time></trkpt><trkpt lat="39.9763179" lon="16.2545867"><ele>1182.0</ele><time>2026-05-02T17:46:06.704Z</time></trkpt><trkpt lat="39.9762908" lon="16.2547435"><ele>1182.0</ele><time>2026-05-02T17:46:08.718Z</time></trkpt><trkpt lat="39.9762474" lon="16.2549105"><ele>1182.0</ele><time>2026-05-02T17:46:10.701Z</time></trkpt><trkpt lat="39.9761926" lon="16.25501"><ele>1182.0</ele><time>2026-05-02T17:46:11.696Z</time></trkpt><trkpt lat="39.9761265" lon="16.2551168"><ele>1182.5714285714284</ele><time>2026-05-02T17:46:12.701Z</time></trkpt><trkpt lat="39.9760716" lon="16.2552184"><ele>1183.142857142857</ele><time>2026-05-02T17:46:13.701Z</time></trkpt><trkpt lat="39.9760228" lon="16.2553044"><ele>1183.7142857142858</ele><time>2026-05-02T17:46:14.693Z</time></trkpt><trkpt lat="39.975974" lon="16.2553676"><ele>1184.2857142857142</ele><time>2026-05-02T17:46:15.692Z</time></trkpt><trkpt lat="39.9759208" lon="16.2554145"><ele>1184.857142857143</ele><time>2026-05-02T17:46:16.689Z</time></trkpt><trkpt lat="39.97586" lon="16.2554498"><ele>1185.4285714285713</ele><time>2026-05-02T17:46:17.705Z</time></trkpt><trkpt lat="39.9757937" lon="16.2554801"><ele>1186.0</ele><time>2026-05-02T17:46:18.714Z</time></trkpt><trkpt lat="39.9757247" lon="16.2554847"><ele>1183.3333333333333</ele><time>2026-05-02T17:46:19.691Z</time></trkpt><trkpt lat="39.9756466" lon="16.2554813"><ele>1180.6666666666665</ele><time>2026-05-02T17:46:20.787Z</time></trkpt><trkpt lat="39.9755629" lon="16.2554668"><ele>1178.0</ele><time>2026-05-02T17:46:21.706Z</time></trkpt><trkpt lat="39.9754875" lon="16.2554326"><ele>1175.3333333333333</ele><time>2026-05-02T17:46:22.705Z</time></trkpt><trkpt lat="39.9754172" lon="16.2553845"><ele>1172.6666666666667</ele><time>2026-05-02T17:46:23.697Z</time></trkpt><trkpt lat="39.9753189" lon="16.2553178"><ele>1170.0</ele><time>2026-05-02T17:46:25.707Z</time></trkpt><trkpt lat="39.9752003" lon="16.2553308"><ele>1170.0</ele><time>2026-05-02T17:46:27.707Z</time></trkpt><trkpt lat="39.9751389" lon="16.2553691"><ele>1170.0</ele><time>2026-05-02T17:46:28.699Z</time></trkpt><trkpt lat="39.9750393" lon="16.2554165"><ele>1170.0</ele><time>2026-05-02T17:46:30.701Z</time></trkpt><trkpt lat="39.9749644" lon="16.255425"><ele>1170.0</ele><time>2026-05-02T17:46:32.695Z</time></trkpt><trkpt lat="39.9748987" lon="16.2553966"><ele>1170.0</ele><time>2026-05-02T17:46:34.718Z</time></trkpt><trkpt lat="39.9748556" lon="16.2553135"><ele>1170.0</ele><time>2026-05-02T17:46:36.689Z</time></trkpt><trkpt lat="39.9748663" lon="16.2551404"><ele>1167.3333333333333</ele><time>2026-05-02T17:46:38.702Z</time></trkpt><trkpt lat="39.9748883" lon="16.2550623"><ele>1164.6666666666667</ele><time>2026-05-02T17:46:39.689Z</time></trkpt><trkpt lat="39.9749059" lon="16.2549571"><ele>1162.0</ele><time>2026-05-02T17:46:41.696Z</time></trkpt><trkpt lat="39.9748305" lon="16.2548806"><ele>1159.3333333333335</ele><time>2026-05-02T17:46:43.695Z</time></trkpt><trkpt lat="39.9747616" lon="16.2548722"><ele>1156.6666666666667</ele><time>2026-05-02T17:46:44.694Z</time></trkpt><trkpt lat="39.9746815" lon="16.254886"><ele>1154.0</ele><time>2026-05-02T17:46:45.684Z</time></trkpt><trkpt lat="39.974595" lon="16.2549115"><ele>1154.0</ele><time>2026-05-02T17:46:46.693Z</time></trkpt><trkpt lat="39.9745195" lon="16.2549354"><ele>1154.0</ele><time>2026-05-02T17:46:47.688Z</time></trkpt><trkpt lat="39.974458" lon="16.2549552"><ele>1154.0</ele><time>2026-05-02T17:46:48.666Z</time></trkpt><trkpt lat="39.9743583" lon="16.2549529"><ele>1154.0</ele><time>2026-05-02T17:46:50.693Z</time></trkpt><trkpt lat="39.9743064" lon="16.2548788"><ele>1154.0</ele><time>2026-05-02T17:46:52.67Z</time></trkpt><trkpt lat="39.9743305" lon="16.2547339"><ele>1154.0</ele><time>2026-05-02T17:46:54.693Z</time></trkpt><trkpt lat="39.9743812" lon="16.2546579"><ele>1152.5</ele><time>2026-05-02T17:46:55.689Z</time></trkpt><trkpt lat="39.9744285" lon="16.2546035"><ele>1151.0</ele><time>2026-05-02T17:46:56.707Z</time></trkpt><trkpt lat="39.9744443" lon="16.2545192"><ele>1149.5</ele><time>2026-05-02T17:46:57.675Z</time></trkpt><trkpt lat="39.9744334" lon="16.2543694"><ele>1148.0</ele><time>2026-05-02T17:46:59.687Z</time></trkpt><trkpt lat="39.9743622" lon="16.2542725"><ele>1146.5</ele><time>2026-05-02T17:47:01.682Z</time></trkpt><trkpt lat="39.9742646" lon="16.2542684"><ele>1145.0</ele><time>2026-05-02T17:47:03.685Z</time></trkpt><trkpt lat="39.9742085" lon="16.2543183"><ele>1142.3333333333335</ele><time>2026-05-02T17:47:04.701Z</time></trkpt><trkpt lat="39.9741489" lon="16.2543826"><ele>1139.6666666666667</ele><time>2026-05-02T17:47:05.692Z</time></trkpt><trkpt lat="39.9740832" lon="16.2544592"><ele>1137.0</ele><time>2026-05-02T17:47:06.696Z</time></trkpt><trkpt lat="39.9740192" lon="16.2545248"><ele>1134.3333333333333</ele><time>2026-05-02T17:47:07.694Z</time></trkpt><trkpt lat="39.9739682" lon="16.2545798"><ele>1131.6666666666665</ele><time>2026-05-02T17:47:08.692Z</time></trkpt><trkpt lat="39.9738778" lon="16.2546429"><ele>1129.0</ele><time>2026-05-02T17:47:10.699Z</time></trkpt><trkpt lat="39.9737752" lon="16.25462"><ele>1129.0</ele><time>2026-05-02T17:47:12.693Z</time></trkpt><trkpt lat="39.9736833" lon="16.2545172"><ele>1129.0</ele><time>2026-05-02T17:47:14.699Z</time></trkpt><trkpt lat="39.9736324" lon="16.2543932"><ele>1129.0</ele><time>2026-05-02T17:47:16.707Z</time></trkpt><trkpt lat="39.9736309" lon="16.2543036"><ele>1129.0</ele><time>2026-05-02T17:47:17.717Z</time></trkpt><trkpt lat="39.9736512" lon="16.2541929"><ele>1129.0</ele><time>2026-05-02T17:47:18.698Z</time></trkpt><trkpt lat="39.973677" lon="16.2540926"><ele>1129.0</ele><time>2026-05-02T17:47:19.677Z</time></trkpt><trkpt lat="39.9737071" lon="16.2539638"><ele>1129.0</ele><time>2026-05-02T17:47:21.705Z</time></trkpt><trkpt lat="39.9736654" lon="16.2538581"><ele>1129.0</ele><time>2026-05-02T17:47:23.702Z</time></trkpt><trkpt lat="39.9735663" lon="16.2538349"><ele>1129.0</ele><time>2026-05-02T17:47:25.68Z</time></trkpt><trkpt lat="39.9734931" lon="16.2538647"><ele>1129.0</ele><time>2026-05-02T17:47:26.692Z</time></trkpt><trkpt lat="39.9734062" lon="16.2539203"><ele>1125.6666666666665</ele><time>2026-05-02T17:47:27.699Z</time></trkpt><trkpt lat="39.9733116" lon="16.253977"><ele>1122.3333333333333</ele><time>2026-05-02T17:47:28.673Z</time></trkpt><trkpt lat="39.9732306" lon="16.2540231"><ele>1119.0</ele><time>2026-05-02T17:47:29.695Z</time></trkpt><trkpt lat="39.9731607" lon="16.2540722"><ele>1115.6666666666667</ele><time>2026-05-02T17:47:30.696Z</time></trkpt><trkpt lat="39.9730977" lon="16.254134"><ele>1112.3333333333335</ele><time>2026-05-02T17:47:31.696Z</time></trkpt><trkpt lat="39.9730556" lon="16.2542133"><ele>1109.0</ele><time>2026-05-02T17:47:32.693Z</time></trkpt><trkpt lat="39.9730329" lon="16.2542926"><ele>1109.0</ele><time>2026-05-02T17:47:33.694Z</time></trkpt><trkpt lat="39.9730241" lon="16.2543853"><ele>1109.0</ele><time>2026-05-02T17:47:34.685Z</time></trkpt><trkpt lat="39.9730218" lon="16.2544963"><ele>1109.0</ele><time>2026-05-02T17:47:35.7Z</time></trkpt><trkpt lat="39.9730268" lon="16.2546258"><ele>1109.0</ele><time>2026-05-02T17:47:36.685Z</time></trkpt><trkpt lat="39.9730414" lon="16.2547585"><ele>1109.0</ele><time>2026-05-02T17:47:37.69Z</time></trkpt><trkpt lat="39.9730539" lon="16.2548869"><ele>1108.8333333333335</ele><time>2026-05-02T17:47:38.688Z</time></trkpt><trkpt lat="39.9730657" lon="16.2549999"><ele>1108.6666666666667</ele><time>2026-05-02T17:47:39.696Z</time></trkpt><trkpt lat="39.9730753" lon="16.2550941"><ele>1108.5</ele><time>2026-05-02T17:47:40.673Z</time></trkpt><trkpt lat="39.973056" lon="16.2552448"><ele>1108.3333333333333</ele><time>2026-05-02T17:47:42.683Z</time></trkpt><trkpt lat="39.9730208" lon="16.255321"><ele>1108.1666666666665</ele><time>2026-05-02T17:47:43.686Z</time></trkpt><trkpt lat="39.9729662" lon="16.2553877"><ele>1108.0</ele><time>2026-05-02T17:47:44.683Z</time></trkpt><trkpt lat="39.9728916" lon="16.2554626"><ele>1108.0</ele><time>2026-05-02T17:47:45.683Z</time></trkpt><trkpt lat="39.9728156" lon="16.2555516"><ele>1108.0</ele><time>2026-05-02T17:47:46.697Z</time></trkpt><trkpt lat="39.9727499" lon="16.2556418"><ele>1108.0</ele><time>2026-05-02T17:47:47.685Z</time></trkpt><trkpt lat="39.9726986" lon="16.2557271"><ele>1108.0</ele><time>2026-05-02T17:47:48.697Z</time></trkpt><trkpt lat="39.972662" lon="16.2558034"><ele>1108.0</ele><time>2026-05-02T17:47:49.695Z</time></trkpt><trkpt lat="39.9726168" lon="16.2559358"><ele>1107.5</ele><time>2026-05-02T17:47:51.694Z</time></trkpt><trkpt lat="39.9725996" lon="16.2560267"><ele>1107.0</ele><time>2026-05-02T17:47:53.685Z</time></trkpt><trkpt lat="39.9725997" lon="16.2561367"><ele>1106.5</ele><time>2026-05-02T17:47:56.692Z</time></trkpt><trkpt lat="39.9726077" lon="16.2562218"><ele>1106.0</ele><time>2026-05-02T17:47:58.7Z</time></trkpt><trkpt lat="39.9726345" lon="16.2563156"><ele>1105.5</ele><time>2026-05-02T17:58:31.684Z</time></trkpt><trkpt lat="39.9726844" lon="16.2564091"><ele>1105.0</ele><time>2026-05-02T17:58:33.674Z</time></trkpt><trkpt lat="39.972727" lon="16.2564947"><ele>1103.2</ele><time>2026-05-02T17:58:35.67Z</time></trkpt><trkpt lat="39.9727757" lon="16.2566019"><ele>1101.4</ele><time>2026-05-02T17:58:37.68Z</time></trkpt><trkpt lat="39.9728168" lon="16.2567357"><ele>1099.6</ele><time>2026-05-02T17:58:39.676Z</time></trkpt><trkpt lat="39.9728459" lon="16.2568673"><ele>1097.8</ele><time>2026-05-02T17:58:41.677Z</time></trkpt><trkpt lat="39.9728689" lon="16.2569838"><ele>1096.0</ele><time>2026-05-02T17:58:43.678Z</time></trkpt><trkpt lat="39.9728851" lon="16.2571298"><ele>1096.0</ele><time>2026-05-02T17:58:45.666Z</time></trkpt><trkpt lat="39.9728904" lon="16.2572193"><ele>1096.0</ele><time>2026-05-02T17:58:46.677Z</time></trkpt><trkpt lat="39.9728826" lon="16.25732"><ele>1096.0</ele><time>2026-05-02T17:58:47.684Z</time></trkpt><trkpt lat="39.9728486" lon="16.2574301"><ele>1096.0</ele><time>2026-05-02T17:58:48.669Z</time></trkpt><trkpt lat="39.9728084" lon="16.2575536"><ele>1096.0</ele><time>2026-05-02T17:58:49.677Z</time></trkpt><trkpt lat="39.9727688" lon="16.2576811"><ele>1096.0</ele><time>2026-05-02T17:58:50.678Z</time></trkpt><trkpt lat="39.9727356" lon="16.2578012"><ele>1096.2857142857144</ele><time>2026-05-02T17:58:51.67Z</time></trkpt><trkpt lat="39.9727117" lon="16.2579031"><ele>1096.5714285714287</ele><time>2026-05-02T17:58:52.684Z</time></trkpt><trkpt lat="39.9727006" lon="16.2579862"><ele>1096.857142857143</ele><time>2026-05-02T17:58:53.693Z</time></trkpt><trkpt lat="39.972694" lon="16.2580713"><ele>1097.1428571428573</ele><time>2026-05-02T17:58:54.68Z</time></trkpt><trkpt lat="39.9726869" lon="16.2581693"><ele>1097.4285714285716</ele><time>2026-05-02T17:58:55.676Z</time></trkpt><trkpt lat="39.9726846" lon="16.2582707"><ele>1097.7142857142858</ele><time>2026-05-02T17:58:56.679Z</time></trkpt><trkpt lat="39.9726926" lon="16.2583588"><ele>1098.0</ele><time>2026-05-02T17:58:57.671Z</time></trkpt><trkpt lat="39.9727092" lon="16.2584386"><ele>1096.0</ele><time>2026-05-02T17:58:58.685Z</time></trkpt><trkpt lat="39.9727492" lon="16.2585119"><ele>1094.0</ele><time>2026-05-02T17:58:59.686Z</time></trkpt><trkpt lat="39.972804" lon="16.2585949"><ele>1092.0</ele><time>2026-05-02T17:59:00.677Z</time></trkpt><trkpt lat="39.972887" lon="16.258681"><ele>1090.0</ele><time>2026-05-02T17:59:01.678Z</time></trkpt><trkpt lat="39.9729782" lon="16.2587777"><ele>1088.0</ele><time>2026-05-02T17:59:02.684Z</time></trkpt><trkpt lat="39.9730654" lon="16.2588916"><ele>1087.5</ele><time>2026-05-02T17:59:03.678Z</time></trkpt><trkpt lat="39.9731499" lon="16.2590105"><ele>1087.0</ele><time>2026-05-02T17:59:04.682Z</time></trkpt><trkpt lat="39.9732275" lon="16.25913"><ele>1086.5</ele><time>2026-05-02T17:59:05.672Z</time></trkpt><trkpt lat="39.9732963" lon="16.2592378"><ele>1086.0</ele><time>2026-05-02T17:59:06.672Z</time></trkpt><trkpt lat="39.9733616" lon="16.2593387"><ele>1086.0</ele><time>2026-05-02T17:59:07.675Z</time></trkpt><trkpt lat="39.9734238" lon="16.2594324"><ele>1086.0</ele><time>2026-05-02T17:59:08.685Z</time></trkpt><trkpt lat="39.9734774" lon="16.2595232"><ele>1086.0</ele><time>2026-05-02T17:59:09.674Z</time></trkpt><trkpt lat="39.973521" lon="16.25961"><ele>1086.0</ele><time>2026-05-02T17:59:10.687Z</time></trkpt><trkpt lat="39.9735498" lon="16.2596844"><ele>1086.0</ele><time>2026-05-02T17:59:11.68Z</time></trkpt><trkpt lat="39.9735849" lon="16.2597997"><ele>1086.0</ele><time>2026-05-02T17:59:13.674Z</time></trkpt><trkpt lat="39.9736004" lon="16.2598926"><ele>1084.0</ele><time>2026-05-02T17:59:16.675Z</time></trkpt><trkpt lat="39.9736299" lon="16.2600234"><ele>1082.0</ele><time>2026-05-02T18:00:06.67Z</time></trkpt><trkpt lat="39.9736728" lon="16.2601771"><ele>1080.0</ele><time>2026-05-02T18:00:08.682Z</time></trkpt><trkpt lat="39.9736951" lon="16.260284"><ele>1078.0</ele><time>2026-05-02T18:00:09.696Z</time></trkpt><trkpt lat="39.9737214" lon="16.2604073"><ele>1076.0</ele><time>2026-05-02T18:00:10.686Z</time></trkpt><trkpt lat="39.9737441" lon="16.2605317"><ele>1076.0</ele><time>2026-05-02T18:00:11.672Z</time></trkpt><trkpt lat="39.9737747" lon="16.2606604"><ele>1076.0</ele><time>2026-05-02T18:00:12.681Z</time></trkpt><trkpt lat="39.973807" lon="16.2607875"><ele>1076.0</ele><time>2026-05-02T18:00:13.697Z</time></trkpt><trkpt lat="39.9738363" lon="16.2609223"><ele>1076.0</ele><time>2026-05-02T18:00:14.687Z</time></trkpt><trkpt lat="39.9738612" lon="16.2610524"><ele>1076.0</ele><time>2026-05-02T18:00:15.672Z</time></trkpt><trkpt lat="39.9738794" lon="16.2611561"><ele>1076.0</ele><time>2026-05-02T18:00:16.678Z</time></trkpt><trkpt lat="39.9739099" lon="16.2612857"><ele>1076.0</ele><time>2026-05-02T18:00:18.686Z</time></trkpt><trkpt lat="39.9739923" lon="16.2613832"><ele>1076.0</ele><time>2026-05-02T18:00:20.676Z</time></trkpt><trkpt lat="39.9740517" lon="16.2614252"><ele>1076.0</ele><time>2026-05-02T18:00:21.684Z</time></trkpt><trkpt lat="39.9741259" lon="16.2614594"><ele>1076.0</ele><time>2026-05-02T18:00:22.695Z</time></trkpt><trkpt lat="39.9742109" lon="16.2614878"><ele>1076.0</ele><time>2026-05-02T18:00:23.684Z</time></trkpt><trkpt lat="39.9743036" lon="16.26152"><ele>1079.3999999999999</ele><time>2026-05-02T18:00:24.685Z</time></trkpt><trkpt lat="39.9744038" lon="16.2615565"><ele>1082.8</ele><time>2026-05-02T18:00:25.676Z</time></trkpt><trkpt lat="39.9745034" lon="16.2616052"><ele>1086.1999999999998</ele><time>2026-05-02T18:00:26.675Z</time></trkpt><trkpt lat="39.9745886" lon="16.2616582"><ele>1089.6</ele><time>2026-05-02T18:00:27.686Z</time></trkpt><trkpt lat="39.974654" lon="16.2617158"><ele>1093.0</ele><time>2026-05-02T18:00:28.677Z</time></trkpt><trkpt lat="39.9747055" lon="16.2617789"><ele>1093.0</ele><time>2026-05-02T18:00:29.676Z</time></trkpt><trkpt lat="39.9747341" lon="16.2618599"><ele>1093.0</ele><time>2026-05-02T18:00:30.673Z</time></trkpt><trkpt lat="39.9747368" lon="16.2619507"><ele>1093.0</ele><time>2026-05-02T18:00:31.672Z</time></trkpt><trkpt lat="39.974713" lon="16.2620513"><ele>1093.0</ele><time>2026-05-02T18:00:32.681Z</time></trkpt><trkpt lat="39.974683" lon="16.2621576"><ele>1093.0</ele><time>2026-05-02T18:00:33.684Z</time></trkpt><trkpt lat="39.9746466" lon="16.2622679"><ele>1093.0</ele><time>2026-05-02T18:00:34.678Z</time></trkpt><trkpt lat="39.9745963" lon="16.262373"><ele>1093.6</ele><time>2026-05-02T18:00:35.675Z</time></trkpt><trkpt lat="39.9745255" lon="16.262468"><ele>1094.1999999999998</ele><time>2026-05-02T18:00:36.678Z</time></trkpt><trkpt lat="39.9744406" lon="16.2625586"><ele>1094.8</ele><time>2026-05-02T18:00:37.699Z</time></trkpt><trkpt lat="39.9743498" lon="16.2626435"><ele>1095.3999999999999</ele><time>2026-05-02T18:00:38.676Z</time></trkpt><trkpt lat="39.9742685" lon="16.2627154"><ele>1096.0</ele><time>2026-05-02T18:00:39.683Z</time></trkpt><trkpt lat="39.9742039" lon="16.2627689"><ele>1094.8333333333333</ele><time>2026-05-02T18:00:40.689Z</time></trkpt><trkpt lat="39.9741439" lon="16.2628303"><ele>1093.6666666666665</ele><time>2026-05-02T18:00:41.68Z</time></trkpt><trkpt lat="39.9740878" lon="16.2629143"><ele>1092.5</ele><time>2026-05-02T18:00:42.676Z</time></trkpt><trkpt lat="39.9740543" lon="16.2630054"><ele>1091.3333333333333</ele><time>2026-05-02T18:00:43.677Z</time></trkpt><trkpt lat="39.9740495" lon="16.2631008"><ele>1090.1666666666667</ele><time>2026-05-02T18:00:44.67Z</time></trkpt><trkpt lat="39.9740641" lon="16.2632093"><ele>1089.0</ele><time>2026-05-02T18:00:45.672Z</time></trkpt><trkpt lat="39.9740835" lon="16.263325"><ele>1089.0000000000002</ele><time>2026-05-02T18:00:46.677Z</time></trkpt><trkpt lat="39.974093" lon="16.2634333"><ele>1089.0</ele><time>2026-05-02T18:00:47.68Z</time></trkpt><trkpt lat="39.974108" lon="16.2635155"><ele>1089.0</ele><time>2026-05-02T18:00:48.694Z</time></trkpt><trkpt lat="39.9741149" lon="16.2635992"><ele>1089.0</ele><time>2026-05-02T18:00:49.677Z</time></trkpt><trkpt lat="39.9741196" lon="16.2636814"><ele>1089.0</ele><time>2026-05-02T18:00:50.676Z</time></trkpt><trkpt lat="39.9741146" lon="16.2637837"><ele>1089.0000000000002</ele><time>2026-05-02T18:00:51.678Z</time></trkpt><trkpt lat="39.9741004" lon="16.2639002"><ele>1089.0</ele><time>2026-05-02T18:00:52.672Z</time></trkpt><trkpt lat="39.974079" lon="16.2640233"><ele>1089.8</ele><time>2026-05-02T18:00:53.698Z</time></trkpt><trkpt lat="39.9740433" lon="16.2641475"><ele>1090.6000000000001</ele><time>2026-05-02T18:00:54.682Z</time></trkpt><trkpt lat="39.9739907" lon="16.2642677"><ele>1091.4</ele><time>2026-05-02T18:00:55.679Z</time></trkpt><trkpt lat="39.9739303" lon="16.2643869"><ele>1092.2</ele><time>2026-05-02T18:00:56.665Z</time></trkpt><trkpt lat="39.9738746" lon="16.2645077"><ele>1093.0</ele><time>2026-05-02T18:00:57.681Z</time></trkpt><trkpt lat="39.9738417" lon="16.2646114"><ele>1093.0</ele><time>2026-05-02T18:00:58.694Z</time></trkpt><trkpt lat="39.9738282" lon="16.2647095"><ele>1093.0</ele><time>2026-05-02T18:00:59.675Z</time></trkpt><trkpt lat="39.9738315" lon="16.2648125"><ele>1093.0</ele><time>2026-05-02T18:01:00.682Z</time></trkpt><trkpt lat="39.9738419" lon="16.2649152"><ele>1093.0</ele><time>2026-05-02T18:01:01.682Z</time></trkpt><trkpt lat="39.9738748" lon="16.2650194"><ele>1093.0</ele><time>2026-05-02T18:01:02.67Z</time></trkpt><trkpt lat="39.9739059" lon="16.2651205"><ele>1093.0</ele><time>2026-05-02T18:01:03.679Z</time></trkpt><trkpt lat="39.9739278" lon="16.2652097"><ele>1094.3333333333333</ele><time>2026-05-02T18:01:04.676Z</time></trkpt><trkpt lat="39.9739395" lon="16.2652984"><ele>1095.6666666666665</ele><time>2026-05-02T18:01:05.674Z</time></trkpt><trkpt lat="39.9739301" lon="16.2653902"><ele>1097.0</ele><time>2026-05-02T18:01:06.672Z</time></trkpt><trkpt lat="39.9738957" lon="16.2654812"><ele>1098.3333333333333</ele><time>2026-05-02T18:01:07.684Z</time></trkpt><trkpt lat="39.9738409" lon="16.2655794"><ele>1099.6666666666667</ele><time>2026-05-02T18:01:08.682Z</time></trkpt><trkpt lat="39.9737815" lon="16.2656775"><ele>1101.0</ele><time>2026-05-02T18:01:09.683Z</time></trkpt><trkpt lat="39.9737164" lon="16.2657883"><ele>1101.2</ele><time>2026-05-02T18:01:10.681Z</time></trkpt><trkpt lat="39.9736548" lon="16.2659018"><ele>1101.3999999999999</ele><time>2026-05-02T18:01:11.68Z</time></trkpt><trkpt lat="39.9735832" lon="16.2660126"><ele>1101.6</ele><time>2026-05-02T18:01:12.668Z</time></trkpt><trkpt lat="39.9735017" lon="16.2661105"><ele>1101.8</ele><time>2026-05-02T18:01:13.681Z</time></trkpt><trkpt lat="39.9734143" lon="16.2661945"><ele>1102.0</ele><time>2026-05-02T18:01:14.682Z</time></trkpt><trkpt lat="39.973329" lon="16.2662768"><ele>1101.8333333333333</ele><time>2026-05-02T18:01:15.681Z</time></trkpt><trkpt lat="39.9732495" lon="16.2663595"><ele>1101.6666666666665</ele><time>2026-05-02T18:01:16.683Z</time></trkpt><trkpt lat="39.973192" lon="16.2664395"><ele>1101.5</ele><time>2026-05-02T18:01:17.696Z</time></trkpt><trkpt lat="39.9731503" lon="16.2665274"><ele>1101.3333333333333</ele><time>2026-05-02T18:01:18.682Z</time></trkpt><trkpt lat="39.9731314" lon="16.2666229"><ele>1101.1666666666667</ele><time>2026-05-02T18:01:19.694Z</time></trkpt><trkpt lat="39.9731357" lon="16.2667323"><ele>1101.0</ele><time>2026-05-02T18:01:20.687Z</time></trkpt><trkpt lat="39.9731518" lon="16.2668612"><ele>1101.0</ele><time>2026-05-02T18:01:21.692Z</time></trkpt><trkpt lat="39.9731669" lon="16.2670003"><ele>1101.0</ele><time>2026-05-02T18:01:22.686Z</time></trkpt><trkpt lat="39.9731889" lon="16.2671539"><ele>1101.0</ele><time>2026-05-02T18:01:23.679Z</time></trkpt><trkpt lat="39.9732121" lon="16.2673165"><ele>1101.0</ele><time>2026-05-02T18:01:24.682Z</time></trkpt><trkpt lat="39.9732375" lon="16.2674831"><ele>1101.5</ele><time>2026-05-02T18:01:25.677Z</time></trkpt><trkpt lat="39.9732653" lon="16.2676541"><ele>1102.0</ele><time>2026-05-02T18:01:26.684Z</time></trkpt><trkpt lat="39.9732941" lon="16.2678181"><ele>1102.5</ele><time>2026-05-02T18:01:27.676Z</time></trkpt><trkpt lat="39.9733239" lon="16.2679738"><ele>1103.0</ele><time>2026-05-02T18:01:28.673Z</time></trkpt><trkpt lat="39.9733329" lon="16.2681158"><ele>1102.0</ele><time>2026-05-02T18:01:29.668Z</time></trkpt><trkpt lat="39.9733269" lon="16.2682612"><ele>1101.0</ele><time>2026-05-02T18:01:30.676Z</time></trkpt><trkpt lat="39.973317" lon="16.2683957"><ele>1100.0</ele><time>2026-05-02T18:01:31.683Z</time></trkpt><trkpt lat="39.9733181" lon="16.2685361"><ele>1099.0</ele><time>2026-05-02T18:01:32.675Z</time></trkpt><trkpt lat="39.9733293" lon="16.2686731"><ele>1098.0</ele><time>2026-05-02T18:01:33.674Z</time></trkpt><trkpt lat="39.973369" lon="16.2688048"><ele>1106.8</ele><time>2026-05-02T18:01:34.663Z</time></trkpt><trkpt lat="39.9734089" lon="16.2689167"><ele>1115.6</ele><time>2026-05-02T18:01:35.658Z</time></trkpt><trkpt lat="39.9734589" lon="16.2690082"><ele>1124.4</ele><time>2026-05-02T18:01:36.684Z</time></trkpt><trkpt lat="39.9735317" lon="16.2690915"><ele>1133.2</ele><time>2026-05-02T18:01:37.669Z</time></trkpt><trkpt lat="39.9736244" lon="16.2691779"><ele>1142.0</ele><time>2026-05-02T18:01:38.675Z</time></trkpt><trkpt lat="39.9737072" lon="16.2692806"><ele>1142.0</ele><time>2026-05-02T18:01:39.685Z</time></trkpt><trkpt lat="39.9737723" lon="16.2693839"><ele>1142.0</ele><time>2026-05-02T18:01:40.679Z</time></trkpt><trkpt lat="39.9738262" lon="16.2694942"><ele>1142.0</ele><time>2026-05-02T18:01:41.662Z</time></trkpt><trkpt lat="39.9738674" lon="16.2696166"><ele>1142.0</ele><time>2026-05-02T18:01:42.664Z</time></trkpt><trkpt lat="39.9739028" lon="16.2697586"><ele>1142.0</ele><time>2026-05-02T18:01:43.666Z</time></trkpt><trkpt lat="39.9739413" lon="16.2699061"><ele>1137.0</ele><time>2026-05-02T18:01:44.675Z</time></trkpt><trkpt lat="39.9739932" lon="16.2700471"><ele>1132.0</ele><time>2026-05-02T18:01:45.684Z</time></trkpt><trkpt lat="39.9740534" lon="16.270192"><ele>1127.0</ele><time>2026-05-02T18:01:46.675Z</time></trkpt><trkpt lat="39.9741042" lon="16.2703361"><ele>1122.0</ele><time>2026-05-02T18:01:47.669Z</time></trkpt><trkpt lat="39.9741415" lon="16.2704803"><ele>1118.0</ele><time>2026-05-02T18:01:48.679Z</time></trkpt><trkpt lat="39.9741754" lon="16.2706088"><ele>1114.0</ele><time>2026-05-02T18:01:49.676Z</time></trkpt><trkpt lat="39.974209" lon="16.2707167"><ele>1110.0</ele><time>2026-05-02T18:01:50.666Z</time></trkpt><trkpt lat="39.9742338" lon="16.270831"><ele>1106.0</ele><time>2026-05-02T18:01:51.671Z</time></trkpt><trkpt lat="39.9742508" lon="16.2709662"><ele>1102.0</ele><time>2026-05-02T18:01:52.682Z</time></trkpt><trkpt lat="39.9742588" lon="16.2711049"><ele>1102.2</ele><time>2026-05-02T18:01:53.671Z</time></trkpt><trkpt lat="39.9742567" lon="16.2712296"><ele>1102.4</ele><time>2026-05-02T18:01:54.676Z</time></trkpt><trkpt lat="39.9742314" lon="16.2713504"><ele>1102.6</ele><time>2026-05-02T18:01:55.663Z</time></trkpt><trkpt lat="39.97419" lon="16.2714885"><ele>1102.8</ele><time>2026-05-02T18:01:56.675Z</time></trkpt><trkpt lat="39.9741468" lon="16.2716335"><ele>1103.0</ele><time>2026-05-02T18:01:57.674Z</time></trkpt><trkpt lat="39.9741008" lon="16.2717738"><ele>1103.0</ele><time>2026-05-02T18:01:58.67Z</time></trkpt><trkpt lat="39.9740283" lon="16.271909"><ele>1103.0</ele><time>2026-05-02T18:01:59.682Z</time></trkpt><trkpt lat="39.9739428" lon="16.2720294"><ele>1103.0</ele><time>2026-05-02T18:02:00.675Z</time></trkpt><trkpt lat="39.9738613" lon="16.2721268"><ele>1103.0</ele><time>2026-05-02T18:02:01.666Z</time></trkpt><trkpt lat="39.9737874" lon="16.2722019"><ele>1103.0</ele><time>2026-05-02T18:02:02.673Z</time></trkpt><trkpt lat="39.9737267" lon="16.272269"><ele>1103.0</ele><time>2026-05-02T18:02:03.668Z</time></trkpt><trkpt lat="39.9736809" lon="16.272347"><ele>1103.0</ele><time>2026-05-02T18:02:04.67Z</time></trkpt><trkpt lat="39.9736568" lon="16.2724453"><ele>1103.0</ele><time>2026-05-02T18:02:05.674Z</time></trkpt><trkpt lat="39.9736715" lon="16.2725618"><ele>1103.0</ele><time>2026-05-02T18:02:06.677Z</time></trkpt><trkpt lat="39.9737244" lon="16.2726821"><ele>1103.0</ele><time>2026-05-02T18:02:07.661Z</time></trkpt><trkpt lat="39.9737854" lon="16.2728001"><ele>1104.8</ele><time>2026-05-02T18:02:08.671Z</time></trkpt><trkpt lat="39.9738409" lon="16.2729083"><ele>1106.6</ele><time>2026-05-02T18:02:09.658Z</time></trkpt><trkpt lat="39.9738807" lon="16.2730271"><ele>1108.4</ele><time>2026-05-02T18:02:10.672Z</time></trkpt><trkpt lat="39.97391" lon="16.2731695"><ele>1110.2</ele><time>2026-05-02T18:02:11.673Z</time></trkpt><trkpt lat="39.9739253" lon="16.273327"><ele>1112.0</ele><time>2026-05-02T18:02:12.679Z</time></trkpt><trkpt lat="39.9739237" lon="16.2734658"><ele>1112.0</ele><time>2026-05-02T18:02:13.664Z</time></trkpt><trkpt lat="39.9739156" lon="16.2735859"><ele>1112.0</ele><time>2026-05-02T18:02:14.675Z</time></trkpt><trkpt lat="39.9738986" lon="16.2736996"><ele>1112.0</ele><time>2026-05-02T18:02:15.67Z</time></trkpt><trkpt lat="39.9738721" lon="16.2738128"><ele>1112.0</ele><time>2026-05-02T18:02:16.666Z</time></trkpt><trkpt lat="39.9738351" lon="16.2739341"><ele>1112.0</ele><time>2026-05-02T18:02:17.673Z</time></trkpt><trkpt lat="39.9737969" lon="16.2740668"><ele>1112.5</ele><time>2026-05-02T18:02:18.664Z</time></trkpt><trkpt lat="39.9737632" lon="16.274197"><ele>1113.0</ele><time>2026-05-02T18:02:19.675Z</time></trkpt><trkpt lat="39.9737123" lon="16.2743175"><ele>1113.5</ele><time>2026-05-02T18:02:20.677Z</time></trkpt><trkpt lat="39.9736382" lon="16.274434"><ele>1114.0</ele><time>2026-05-02T18:02:21.676Z</time></trkpt><trkpt lat="39.9735468" lon="16.2745489"><ele>1114.0</ele><time>2026-05-02T18:02:22.663Z</time></trkpt><trkpt lat="39.9734619" lon="16.2746418"><ele>1114.0</ele><time>2026-05-02T18:02:23.674Z</time></trkpt><trkpt lat="39.9733916" lon="16.2747143"><ele>1114.0</ele><time>2026-05-02T18:02:24.672Z</time></trkpt><trkpt lat="39.9733477" lon="16.2747924"><ele>1114.0</ele><time>2026-05-02T18:02:25.679Z</time></trkpt><trkpt lat="39.9733322" lon="16.2748814"><ele>1114.0</ele><time>2026-05-02T18:02:26.677Z</time></trkpt><trkpt lat="39.973352" lon="16.2749906"><ele>1114.0</ele><time>2026-05-02T18:02:27.681Z</time></trkpt><trkpt lat="39.9734027" lon="16.2751028"><ele>1113.6000000000001</ele><time>2026-05-02T18:02:28.676Z</time></trkpt><trkpt lat="39.9734678" lon="16.2752074"><ele>1113.2</ele><time>2026-05-02T18:02:29.666Z</time></trkpt><trkpt lat="39.9735236" lon="16.2753288"><ele>1112.8000000000002</ele><time>2026-05-02T18:02:30.679Z</time></trkpt><trkpt lat="39.9735664" lon="16.275447"><ele>1112.4</ele><time>2026-05-02T18:02:31.674Z</time></trkpt><trkpt lat="39.9735969" lon="16.2755653"><ele>1112.0</ele><time>2026-05-02T18:02:32.675Z</time></trkpt><trkpt lat="39.9736157" lon="16.2756931"><ele>1112.0</ele><time>2026-05-02T18:02:33.673Z</time></trkpt><trkpt lat="39.9736187" lon="16.2758298"><ele>1112.0</ele><time>2026-05-02T18:02:34.67Z</time></trkpt><trkpt lat="39.9736237" lon="16.2759699"><ele>1112.0</ele><time>2026-05-02T18:02:35.669Z</time></trkpt><trkpt lat="39.9736381" lon="16.2761032"><ele>1112.0</ele><time>2026-05-02T18:02:36.669Z</time></trkpt><trkpt lat="39.9736464" lon="16.2762179"><ele>1112.0</ele><time>2026-05-02T18:02:37.677Z</time></trkpt><trkpt lat="39.9736452" lon="16.2763127"><ele>1112.0</ele><time>2026-05-02T18:02:38.678Z</time></trkpt><trkpt lat="39.9736368" lon="16.2764006"><ele>1112.0</ele><time>2026-05-02T18:02:39.682Z</time></trkpt><trkpt lat="39.9736027" lon="16.2764836"><ele>1112.0</ele><time>2026-05-02T18:02:40.674Z</time></trkpt><trkpt lat="39.9735513" lon="16.2765703"><ele>1112.0</ele><time>2026-05-02T18:02:41.671Z</time></trkpt><trkpt lat="39.9734755" lon="16.27665"><ele>1112.0</ele><time>2026-05-02T18:02:42.669Z</time></trkpt><trkpt lat="39.9733923" lon="16.2767459"><ele>1112.0</ele><time>2026-05-02T18:02:43.666Z</time></trkpt><trkpt lat="39.9733288" lon="16.276901"><ele>1101.6</ele><time>2026-05-02T18:02:44.667Z</time></trkpt><trkpt lat="39.9732814" lon="16.2770603"><ele>1091.2</ele><time>2026-05-02T18:02:45.67Z</time></trkpt><trkpt lat="39.9732364" lon="16.2771909"><ele>1080.8</ele><time>2026-05-02T18:02:46.666Z</time></trkpt><trkpt lat="39.973192" lon="16.2772918"><ele>1070.4</ele><time>2026-05-02T18:02:47.661Z</time></trkpt><trkpt lat="39.9731594" lon="16.2773861"><ele>1060.0</ele><time>2026-05-02T18:02:48.665Z</time></trkpt><trkpt lat="39.9731465" lon="16.2774892"><ele>1060.0</ele><time>2026-05-02T18:02:49.674Z</time></trkpt><trkpt lat="39.973155" lon="16.2776165"><ele>1060.0</ele><time>2026-05-02T18:02:50.677Z</time></trkpt><trkpt lat="39.9731879" lon="16.2777616"><ele>1060.0</ele><time>2026-05-02T18:02:51.681Z</time></trkpt><trkpt lat="39.9732214" lon="16.2779196"><ele>1060.0</ele><time>2026-05-02T18:02:52.67Z</time></trkpt><trkpt lat="39.9732365" lon="16.2780924"><ele>1059.25</ele><time>2026-05-02T18:02:53.671Z</time></trkpt><trkpt lat="39.9732437" lon="16.2782722"><ele>1058.5</ele><time>2026-05-02T18:02:54.676Z</time></trkpt><trkpt lat="39.973262" lon="16.2784655"><ele>1057.75</ele><time>2026-05-02T18:02:55.68Z</time></trkpt><trkpt lat="39.9732883" lon="16.2786599"><ele>1057.0</ele><time>2026-05-02T18:02:56.687Z</time></trkpt><trkpt lat="39.9733145" lon="16.2788583"><ele>1053.25</ele><time>2026-05-02T18:02:57.679Z</time></trkpt><trkpt lat="39.973336" lon="16.2790396"><ele>1049.5</ele><time>2026-05-02T18:02:58.675Z</time></trkpt><trkpt lat="39.97336" lon="16.2792128"><ele>1045.75</ele><time>2026-05-02T18:02:59.677Z</time></trkpt><trkpt lat="39.9733868" lon="16.2793809"><ele>1042.0</ele><time>2026-05-02T18:03:00.676Z</time></trkpt><trkpt lat="39.9734135" lon="16.2795363"><ele>1044.0</ele><time>2026-05-02T18:03:01.665Z</time></trkpt><trkpt lat="39.9734457" lon="16.2796743"><ele>1046.0</ele><time>2026-05-02T18:03:02.658Z</time></trkpt><trkpt lat="39.973483" lon="16.2798104"><ele>1048.0</ele><time>2026-05-02T18:03:03.659Z</time></trkpt><trkpt lat="39.9735271" lon="16.2799509"><ele>1050.0</ele><time>2026-05-02T18:03:04.659Z</time></trkpt><trkpt lat="39.9735799" lon="16.2800794"><ele>1052.0</ele><time>2026-05-02T18:03:05.675Z</time></trkpt><trkpt lat="39.9736405" lon="16.280188"><ele>1052.0</ele><time>2026-05-02T18:03:06.682Z</time></trkpt><trkpt lat="39.9737001" lon="16.2802806"><ele>1052.0</ele><time>2026-05-02T18:03:07.664Z</time></trkpt><trkpt lat="39.9737586" lon="16.2803722"><ele>1052.0</ele><time>2026-05-02T18:03:08.669Z</time></trkpt><trkpt lat="39.9738224" lon="16.2804691"><ele>1052.0</ele><time>2026-05-02T18:03:09.676Z</time></trkpt><trkpt lat="39.9738727" lon="16.2805835"><ele>1052.0</ele><time>2026-05-02T18:03:10.684Z</time></trkpt><trkpt lat="39.9739193" lon="16.2807066"><ele>1048.0</ele><time>2026-05-02T18:03:11.671Z</time></trkpt><trkpt lat="39.9739585" lon="16.2808294"><ele>1044.0</ele><time>2026-05-02T18:03:12.668Z</time></trkpt><trkpt lat="39.9739774" lon="16.2809604"><ele>1040.0</ele><time>2026-05-02T18:03:13.742Z</time></trkpt><trkpt lat="39.9739897" lon="16.2811001"><ele>1036.0</ele><time>2026-05-02T18:03:14.67Z</time></trkpt><trkpt lat="39.9740148" lon="16.2812426"><ele>1032.0</ele><time>2026-05-02T18:03:15.677Z</time></trkpt><trkpt lat="39.9740448" lon="16.2813686"><ele>1031.5</ele><time>2026-05-02T18:03:16.686Z</time></trkpt><trkpt lat="39.9740775" lon="16.2814776"><ele>1031.0</ele><time>2026-05-02T18:03:17.669Z</time></trkpt><trkpt lat="39.9741148" lon="16.2815673"><ele>1030.5</ele><time>2026-05-02T18:03:18.682Z</time></trkpt><trkpt lat="39.9741558" lon="16.2816345"><ele>1030.0</ele><time>2026-05-02T18:03:19.677Z</time></trkpt><trkpt lat="39.974218" lon="16.2816788"><ele>1029.5</ele><time>2026-05-02T18:03:20.684Z</time></trkpt><trkpt lat="39.9743023" lon="16.2816956"><ele>1029.0</ele><time>2026-05-02T18:03:21.661Z</time></trkpt><trkpt lat="39.9744125" lon="16.2817031"><ele>1029.0</ele><time>2026-05-02T18:03:22.679Z</time></trkpt><trkpt lat="39.9745329" lon="16.2817063"><ele>1029.0</ele><time>2026-05-02T18:03:23.672Z</time></trkpt><trkpt lat="39.9746523" lon="16.2817092"><ele>1029.0</ele><time>2026-05-02T18:03:24.679Z</time></trkpt><trkpt lat="39.9747472" lon="16.2817094"><ele>1029.0</ele><time>2026-05-02T18:03:25.669Z</time></trkpt><trkpt lat="39.9748646" lon="16.2817134"><ele>1029.0</ele><time>2026-05-02T18:03:27.666Z</time></trkpt><trkpt lat="39.9749381" lon="16.2817106"><ele>1029.0</ele><time>2026-05-02T18:03:28.671Z</time></trkpt><trkpt lat="39.9750221" lon="16.2817018"><ele>1029.0</ele><time>2026-05-02T18:03:29.672Z</time></trkpt><trkpt lat="39.9751195" lon="16.2817024"><ele>1029.0</ele><time>2026-05-02T18:03:30.673Z</time></trkpt><trkpt lat="39.9752248" lon="16.2817054"><ele>1029.0</ele><time>2026-05-02T18:03:31.674Z</time></trkpt><trkpt lat="39.9753285" lon="16.281714"><ele>1028.4</ele><time>2026-05-02T18:03:32.667Z</time></trkpt><trkpt lat="39.9754383" lon="16.2817183"><ele>1027.8000000000002</ele><time>2026-05-02T18:03:33.671Z</time></trkpt><trkpt lat="39.9755471" lon="16.2817265"><ele>1027.1999999999998</ele><time>2026-05-02T18:03:34.695Z</time></trkpt><trkpt lat="39.9756602" lon="16.2817357"><ele>1026.6</ele><time>2026-05-02T18:03:35.67Z</time></trkpt><trkpt lat="39.9757766" lon="16.2817542"><ele>1026.0</ele><time>2026-05-02T18:03:36.674Z</time></trkpt><trkpt lat="39.9758988" lon="16.2817747"><ele>1026.0</ele><time>2026-05-02T18:03:37.684Z</time></trkpt><trkpt lat="39.9760287" lon="16.2817983"><ele>1026.0</ele><time>2026-05-02T18:03:38.673Z</time></trkpt><trkpt lat="39.9761557" lon="16.2818223"><ele>1026.0</ele><time>2026-05-02T18:03:39.672Z</time></trkpt><trkpt lat="39.9762699" lon="16.2818447"><ele>1026.0</ele><time>2026-05-02T18:03:40.669Z</time></trkpt><trkpt lat="39.9763741" lon="16.2818642"><ele>1026.0</ele><time>2026-05-02T18:03:41.678Z</time></trkpt><trkpt lat="39.976486" lon="16.2818789"><ele>1026.0</ele><time>2026-05-02T18:03:42.675Z</time></trkpt><trkpt lat="39.9766028" lon="16.2818839"><ele>1026.0</ele><time>2026-05-02T18:03:43.674Z</time></trkpt><trkpt lat="39.9767232" lon="16.2818895"><ele>1026.0</ele><time>2026-05-02T18:03:44.674Z</time></trkpt><trkpt lat="39.9768455" lon="16.2819057"><ele>1026.2</ele><time>2026-05-02T18:03:45.668Z</time></trkpt><trkpt lat="39.9769678" lon="16.2819324"><ele>1026.3999999999999</ele><time>2026-05-02T18:03:46.681Z</time></trkpt><trkpt lat="39.9770766" lon="16.281964"><ele>1026.6</ele><time>2026-05-02T18:03:47.668Z</time></trkpt><trkpt lat="39.9771685" lon="16.28199"><ele>1026.8</ele><time>2026-05-02T18:03:48.678Z</time></trkpt><trkpt lat="39.9772633" lon="16.2820207"><ele>1027.0</ele><time>2026-05-02T18:03:49.675Z</time></trkpt><trkpt lat="39.9773605" lon="16.282076"><ele>1027.0</ele><time>2026-05-02T18:03:50.672Z</time></trkpt><trkpt lat="39.9774485" lon="16.2821416"><ele>1027.0</ele><time>2026-05-02T18:03:51.675Z</time></trkpt><trkpt lat="39.9775302" lon="16.2822072"><ele>1027.0</ele><time>2026-05-02T18:03:52.684Z</time></trkpt><trkpt lat="39.977616" lon="16.282259"><ele>1027.0</ele><time>2026-05-02T18:03:53.675Z</time></trkpt><trkpt lat="39.9777024" lon="16.2822917"><ele>1027.0</ele><time>2026-05-02T18:03:54.672Z</time></trkpt><trkpt lat="39.9777942" lon="16.2823039"><ele>1023.5</ele><time>2026-05-02T18:03:55.678Z</time></trkpt><trkpt lat="39.9778973" lon="16.2822896"><ele>1020.0</ele><time>2026-05-02T18:03:56.677Z</time></trkpt><trkpt lat="39.9780069" lon="16.2822522"><ele>1016.5</ele><time>2026-05-02T18:03:57.678Z</time></trkpt><trkpt lat="39.9781172" lon="16.2821953"><ele>1013.0</ele><time>2026-05-02T18:03:58.674Z</time></trkpt><trkpt lat="39.9782286" lon="16.2821368"><ele>1013.0</ele><time>2026-05-02T18:03:59.682Z</time></trkpt><trkpt lat="39.978338" lon="16.28208"><ele>1013.0</ele><time>2026-05-02T18:04:00.669Z</time></trkpt><trkpt lat="39.9784305" lon="16.2820304"><ele>1013.0</ele><time>2026-05-02T18:04:01.682Z</time></trkpt><trkpt lat="39.9785026" lon="16.2819845"><ele>1013.0</ele><time>2026-05-02T18:04:02.677Z</time></trkpt><trkpt lat="39.9785645" lon="16.2819151"><ele>1013.0</ele><time>2026-05-02T18:04:03.683Z</time></trkpt><trkpt lat="39.978628" lon="16.2818024"><ele>1012.5999999999999</ele><time>2026-05-02T18:04:04.666Z</time></trkpt><trkpt lat="39.9786995" lon="16.2816846"><ele>1012.1999999999999</ele><time>2026-05-02T18:04:05.673Z</time></trkpt><trkpt lat="39.9787794" lon="16.2815755"><ele>1011.8</ele><time>2026-05-02T18:04:06.676Z</time></trkpt><trkpt lat="39.9788578" lon="16.281482"><ele>1011.4</ele><time>2026-05-02T18:04:07.674Z</time></trkpt><trkpt lat="39.9789317" lon="16.2814152"><ele>1011.0</ele><time>2026-05-02T18:04:08.681Z</time></trkpt><trkpt lat="39.978988" lon="16.2813648"><ele>1011.0</ele><time>2026-05-02T18:04:09.67Z</time></trkpt><trkpt lat="39.9790867" lon="16.2812979"><ele>1010.9999999999999</ele><time>2026-05-02T18:04:11.659Z</time></trkpt><trkpt lat="39.9791723" lon="16.2813425"><ele>1010.9999999999999</ele><time>2026-05-02T18:04:13.675Z</time></trkpt><trkpt lat="39.9791983" lon="16.281486"><ele>1011.0</ele><time>2026-05-02T18:04:15.662Z</time></trkpt><trkpt lat="39.979158" lon="16.2816195"><ele>1011.0</ele><time>2026-05-02T18:04:17.656Z</time></trkpt><trkpt lat="39.9790635" lon="16.2817213"><ele>1007.4</ele><time>2026-05-02T18:04:19.664Z</time></trkpt><trkpt lat="39.9789949" lon="16.2817555"><ele>1003.8</ele><time>2026-05-02T18:04:20.677Z</time></trkpt><trkpt lat="39.978916" lon="16.2818092"><ele>1000.1999999999999</ele><time>2026-05-02T18:04:21.656Z</time></trkpt><trkpt lat="39.9788284" lon="16.2818886"><ele>996.5999999999999</ele><time>2026-05-02T18:04:22.676Z</time></trkpt><trkpt lat="39.9787442" lon="16.2819963"><ele>993.0</ele><time>2026-05-02T18:04:23.667Z</time></trkpt><trkpt lat="39.9786697" lon="16.2821042"><ele>993.0</ele><time>2026-05-02T18:04:24.658Z</time></trkpt><trkpt lat="39.9786084" lon="16.2821886"><ele>993.0</ele><time>2026-05-02T18:04:25.672Z</time></trkpt><trkpt lat="39.9785624" lon="16.2822551"><ele>993.0</ele><time>2026-05-02T18:04:26.686Z</time></trkpt><trkpt lat="39.9785127" lon="16.2823093"><ele>993.0</ele><time>2026-05-02T18:04:27.661Z</time></trkpt><trkpt lat="39.9784341" lon="16.2823981"><ele>993.0</ele><time>2026-05-02T18:04:29.674Z</time></trkpt><trkpt lat="39.9784059" lon="16.2825115"><ele>993.0</ele><time>2026-05-02T18:04:31.676Z</time></trkpt><trkpt lat="39.9784763" lon="16.2826394"><ele>988.2</ele><time>2026-05-02T18:04:33.672Z</time></trkpt><trkpt lat="39.9785466" lon="16.2826988"><ele>983.4</ele><time>2026-05-02T18:04:34.68Z</time></trkpt><trkpt lat="39.9786246" lon="16.2827413"><ele>978.6000000000001</ele><time>2026-05-02T18:04:35.673Z</time></trkpt><trkpt lat="39.9787243" lon="16.2827418"><ele>973.8000000000001</ele><time>2026-05-02T18:04:36.68Z</time></trkpt><trkpt lat="39.9788356" lon="16.2827257"><ele>969.0</ele><time>2026-05-02T18:04:37.68Z</time></trkpt><trkpt lat="39.9789396" lon="16.2826886"><ele>969.0</ele><time>2026-05-02T18:04:38.683Z</time></trkpt><trkpt lat="39.9790382" lon="16.2826619"><ele>969.0000000000001</ele><time>2026-05-02T18:04:39.679Z</time></trkpt><trkpt lat="39.9791282" lon="16.2826394"><ele>969.0000000000001</ele><time>2026-05-02T18:04:40.68Z</time></trkpt><trkpt lat="39.9791973" lon="16.2825871"><ele>969.0</ele><time>2026-05-02T18:04:41.67Z</time></trkpt><trkpt lat="39.97926" lon="16.2825056"><ele>969.0</ele><time>2026-05-02T18:04:42.675Z</time></trkpt><trkpt lat="39.9793267" lon="16.2824144"><ele>967.8333333333334</ele><time>2026-05-02T18:04:43.673Z</time></trkpt><trkpt lat="39.9793931" lon="16.2823291"><ele>966.6666666666667</ele><time>2026-05-02T18:04:44.684Z</time></trkpt><trkpt lat="39.9794604" lon="16.282261"><ele>965.5</ele><time>2026-05-02T18:04:45.664Z</time></trkpt><trkpt lat="39.9795166" lon="16.2822047"><ele>964.3333333333334</ele><time>2026-05-02T18:04:46.673Z</time></trkpt><trkpt lat="39.9795757" lon="16.2821632"><ele>963.1666666666667</ele><time>2026-05-02T18:04:47.675Z</time></trkpt><trkpt lat="39.9796459" lon="16.2821378"><ele>962.0</ele><time>2026-05-02T18:04:48.677Z</time></trkpt><trkpt lat="39.9797207" lon="16.2821409"><ele>966.0</ele><time>2026-05-02T18:04:49.678Z</time></trkpt><trkpt lat="39.9798089" lon="16.2821715"><ele>970.0</ele><time>2026-05-02T18:04:50.683Z</time></trkpt><trkpt lat="39.9799039" lon="16.2821855"><ele>974.0</ele><time>2026-05-02T18:04:51.671Z</time></trkpt><trkpt lat="39.9800042" lon="16.2821984"><ele>978.0</ele><time>2026-05-02T18:04:52.663Z</time></trkpt><trkpt lat="39.9801015" lon="16.2821967"><ele>982.0</ele><time>2026-05-02T18:04:53.652Z</time></trkpt><trkpt lat="39.9801814" lon="16.2822184"><ele>984.4999999999999</ele><time>2026-05-02T18:04:54.682Z</time></trkpt><trkpt lat="39.9802485" lon="16.2822593"><ele>987.0</ele><time>2026-05-02T18:04:55.675Z</time></trkpt><trkpt lat="39.9803005" lon="16.2823198"><ele>989.5</ele><time>2026-05-02T18:04:56.669Z</time></trkpt><trkpt lat="39.9803402" lon="16.2823937"><ele>992.0</ele><time>2026-05-02T18:04:57.678Z</time></trkpt><trkpt lat="39.9803649" lon="16.2824869"><ele>994.4999999999999</ele><time>2026-05-02T18:04:58.683Z</time></trkpt><trkpt lat="39.9803789" lon="16.2825943"><ele>997.0</ele><time>2026-05-02T18:04:59.672Z</time></trkpt><trkpt lat="39.980381" lon="16.2827211"><ele>997.6</ele><time>2026-05-02T18:05:00.672Z</time></trkpt><trkpt lat="39.9803764" lon="16.2828493"><ele>998.2</ele><time>2026-05-02T18:05:01.693Z</time></trkpt><trkpt lat="39.9803768" lon="16.2829825"><ele>998.8</ele><time>2026-05-02T18:05:02.679Z</time></trkpt><trkpt lat="39.9803827" lon="16.2831086"><ele>999.4</ele><time>2026-05-02T18:05:03.687Z</time></trkpt><trkpt lat="39.9803988" lon="16.2832194"><ele>1000.0</ele><time>2026-05-02T18:05:04.681Z</time></trkpt><trkpt lat="39.9804354" lon="16.2833142"><ele>997.6</ele><time>2026-05-02T18:05:05.665Z</time></trkpt><trkpt lat="39.9804949" lon="16.2833912"><ele>995.2</ele><time>2026-05-02T18:05:06.675Z</time></trkpt><trkpt lat="39.980564" lon="16.2834584"><ele>992.8</ele><time>2026-05-02T18:05:07.68Z</time></trkpt><trkpt lat="39.9806434" lon="16.2835215"><ele>990.4</ele><time>2026-05-02T18:05:08.682Z</time></trkpt><trkpt lat="39.9806791" lon="16.2836388"><ele>988.0</ele><time>2026-05-02T18:05:09.678Z</time></trkpt><trkpt lat="39.9807003" lon="16.2837602"><ele>987.9999999999999</ele><time>2026-05-02T18:05:10.677Z</time></trkpt><trkpt lat="39.9807236" lon="16.2838773"><ele>988.0</ele><time>2026-05-02T18:05:11.675Z</time></trkpt><trkpt lat="39.9807627" lon="16.2839652"><ele>988.0</ele><time>2026-05-02T18:05:12.667Z</time></trkpt><trkpt lat="39.9808233" lon="16.2840271"><ele>988.0</ele><time>2026-05-02T18:05:13.671Z</time></trkpt><trkpt lat="39.9808991" lon="16.2840818"><ele>987.9999999999999</ele><time>2026-05-02T18:05:14.67Z</time></trkpt><trkpt lat="39.9809898" lon="16.2841213"><ele>988.0</ele><time>2026-05-02T18:05:15.664Z</time></trkpt><trkpt lat="39.9810918" lon="16.2841553"><ele>986.8</ele><time>2026-05-02T18:05:16.677Z</time></trkpt><trkpt lat="39.9812092" lon="16.2841899"><ele>985.5999999999999</ele><time>2026-05-02T18:05:17.672Z</time></trkpt><trkpt lat="39.981324" lon="16.2842132"><ele>984.4000000000001</ele><time>2026-05-02T18:05:18.67Z</time></trkpt><trkpt lat="39.9814277" lon="16.2842379"><ele>983.2</ele><time>2026-05-02T18:05:19.674Z</time></trkpt><trkpt lat="39.9815104" lon="16.2842655"><ele>982.0</ele><time>2026-05-02T18:05:20.678Z</time></trkpt><trkpt lat="39.9815722" lon="16.2843065"><ele>981.9999999999999</ele><time>2026-05-02T18:05:21.671Z</time></trkpt><trkpt lat="39.9816171" lon="16.2843744"><ele>982.0</ele><time>2026-05-02T18:05:22.675Z</time></trkpt><trkpt lat="39.9816596" lon="16.2844648"><ele>982.0</ele><time>2026-05-02T18:05:23.675Z</time></trkpt><trkpt lat="39.9816811" lon="16.2845791"><ele>982.0</ele><time>2026-05-02T18:05:24.674Z</time></trkpt><trkpt lat="39.9816933" lon="16.2847011"><ele>981.9999999999999</ele><time>2026-05-02T18:05:25.683Z</time></trkpt><trkpt lat="39.9817104" lon="16.2848444"><ele>982.0</ele><time>2026-05-02T18:05:26.673Z</time></trkpt><trkpt lat="39.9817335" lon="16.2850076"><ele>981.75</ele><time>2026-05-02T18:05:27.677Z</time></trkpt><trkpt lat="39.9817585" lon="16.2851787"><ele>981.5</ele><time>2026-05-02T18:05:28.678Z</time></trkpt><trkpt lat="39.9817902" lon="16.285362"><ele>981.25</ele><time>2026-05-02T18:05:29.681Z</time></trkpt><trkpt lat="39.9818135" lon="16.2855396"><ele>981.0</ele><time>2026-05-02T18:05:30.68Z</time></trkpt><trkpt lat="39.9818322" lon="16.2856905"><ele>981.0</ele><time>2026-05-02T18:05:31.675Z</time></trkpt><trkpt lat="39.9818564" lon="16.2858174"><ele>981.0</ele><time>2026-05-02T18:05:32.687Z</time></trkpt><trkpt lat="39.98187" lon="16.2859416"><ele>981.0</ele><time>2026-05-02T18:05:33.673Z</time></trkpt><trkpt lat="39.9818897" lon="16.2860379"><ele>981.0</ele><time>2026-05-02T18:05:34.679Z</time></trkpt><trkpt lat="39.9819234" lon="16.2861165"><ele>981.0</ele><time>2026-05-02T18:05:35.678Z</time></trkpt><trkpt lat="39.9819787" lon="16.2861869"><ele>981.0</ele><time>2026-05-02T18:05:36.681Z</time></trkpt><trkpt lat="39.9820613" lon="16.2862594"><ele>981.0</ele><time>2026-05-02T18:05:37.677Z</time></trkpt><trkpt lat="39.9821478" lon="16.2863264"><ele>981.0</ele><time>2026-05-02T18:05:38.678Z</time></trkpt><trkpt lat="39.982219" lon="16.2863928"><ele>981.0</ele><time>2026-05-02T18:05:39.666Z</time></trkpt><trkpt lat="39.9822771" lon="16.2864589"><ele>981.0</ele><time>2026-05-02T18:05:40.683Z</time></trkpt><trkpt lat="39.9823208" lon="16.2865377"><ele>981.0</ele><time>2026-05-02T18:05:41.677Z</time></trkpt><trkpt lat="39.9823457" lon="16.2866328"><ele>981.0</ele><time>2026-05-02T18:05:42.676Z</time></trkpt><trkpt lat="39.9823544" lon="16.2867436"><ele>978.4</ele><time>2026-05-02T18:05:43.678Z</time></trkpt><trkpt lat="39.982354" lon="16.286874"><ele>975.8</ele><time>2026-05-02T18:05:44.683Z</time></trkpt><trkpt lat="39.9823408" lon="16.2869983"><ele>973.1999999999999</ele><time>2026-05-02T18:05:45.679Z</time></trkpt><trkpt lat="39.9823365" lon="16.2871286"><ele>970.5999999999999</ele><time>2026-05-02T18:05:46.671Z</time></trkpt><trkpt lat="39.9823211" lon="16.2872781"><ele>968.0</ele><time>2026-05-02T18:05:47.68Z</time></trkpt><trkpt lat="39.9823136" lon="16.2874313"><ele>967.0</ele><time>2026-05-02T18:05:48.687Z</time></trkpt><trkpt lat="39.9822993" lon="16.2875765"><ele>966.0</ele><time>2026-05-02T18:05:49.684Z</time></trkpt><trkpt lat="39.9822811" lon="16.2877087"><ele>965.0</ele><time>2026-05-02T18:05:50.674Z</time></trkpt><trkpt lat="39.9822586" lon="16.287827"><ele>964.0</ele><time>2026-05-02T18:05:51.67Z</time></trkpt><trkpt lat="39.9822334" lon="16.2879231"><ele>963.0</ele><time>2026-05-02T18:05:52.677Z</time></trkpt><trkpt lat="39.9822159" lon="16.2880687"><ele>961.5999999999999</ele><time>2026-05-02T18:05:54.68Z</time></trkpt><trkpt lat="39.982157" lon="16.2881856"><ele>960.1999999999999</ele><time>2026-05-02T18:05:56.68Z</time></trkpt><trkpt lat="39.9820632" lon="16.2883005"><ele>958.8</ele><time>2026-05-02T18:05:58.677Z</time></trkpt><trkpt lat="39.9820027" lon="16.288384"><ele>957.4</ele><time>2026-05-02T18:05:59.682Z</time></trkpt><trkpt lat="39.9819349" lon="16.2884918"><ele>956.0</ele><time>2026-05-02T18:06:00.686Z</time></trkpt><trkpt lat="39.9818785" lon="16.288613"><ele>956.0</ele><time>2026-05-02T18:06:01.694Z</time></trkpt><trkpt lat="39.9818275" lon="16.2887347"><ele>955.9999999999999</ele><time>2026-05-02T18:06:02.692Z</time></trkpt><trkpt lat="39.9817765" lon="16.288859"><ele>955.9999999999999</ele><time>2026-05-02T18:06:03.686Z</time></trkpt><trkpt lat="39.9817356" lon="16.2889834"><ele>956.0</ele><time>2026-05-02T18:06:04.679Z</time></trkpt><trkpt lat="39.981718" lon="16.2891095"><ele>956.0</ele><time>2026-05-02T18:06:05.675Z</time></trkpt><trkpt lat="39.9817093" lon="16.2892418"><ele>956.0</ele><time>2026-05-02T18:06:06.672Z</time></trkpt><trkpt lat="39.9817079" lon="16.2893805"><ele>955.9999999999999</ele><time>2026-05-02T18:06:07.683Z</time></trkpt><trkpt lat="39.9817062" lon="16.289517"><ele>955.9999999999999</ele><time>2026-05-02T18:06:08.68Z</time></trkpt><trkpt lat="39.9817072" lon="16.2896383"><ele>956.0</ele><time>2026-05-02T18:06:09.695Z</time></trkpt><trkpt lat="39.9817187" lon="16.2897471"><ele>956.0</ele><time>2026-05-02T18:06:10.687Z</time></trkpt><trkpt lat="39.9817445" lon="16.2898444"><ele>956.0</ele><time>2026-05-02T18:06:11.678Z</time></trkpt><trkpt lat="39.9817738" lon="16.2899229"><ele>955.9999999999999</ele><time>2026-05-02T18:06:12.681Z</time></trkpt><trkpt lat="39.981883" lon="16.290013"><ele>955.9999999999999</ele><time>2026-05-02T18:06:14.684Z</time></trkpt><trkpt lat="39.9819862" lon="16.2900487"><ele>956.0</ele><time>2026-05-02T18:06:16.681Z</time></trkpt><trkpt lat="39.9820133" lon="16.2901617"><ele>956.0</ele><time>2026-05-02T18:06:18.675Z</time></trkpt><trkpt lat="39.9819922" lon="16.2903131"><ele>956.0000000000001</ele><time>2026-05-02T18:06:20.671Z</time></trkpt><trkpt lat="39.9819569" lon="16.290399"><ele>956.0</ele><time>2026-05-02T18:06:21.671Z</time></trkpt><trkpt lat="39.9819181" lon="16.2904895"><ele>956.0000000000001</ele><time>2026-05-02T18:06:22.678Z</time></trkpt><trkpt lat="39.9818768" lon="16.290571"><ele>956.0000000000001</ele><time>2026-05-02T18:06:23.679Z</time></trkpt><trkpt lat="39.9818246" lon="16.2906327"><ele>956.0</ele><time>2026-05-02T18:06:24.689Z</time></trkpt><trkpt lat="39.9817717" lon="16.2906845"><ele>956.0000000000001</ele><time>2026-05-02T18:06:25.672Z</time></trkpt><trkpt lat="39.9817231" lon="16.2907428"><ele>956.0000000000001</ele><time>2026-05-02T18:06:26.672Z</time></trkpt><trkpt lat="39.9816797" lon="16.2908222"><ele>951.0</ele><time>2026-05-02T18:06:27.682Z</time></trkpt><trkpt lat="39.9816321" lon="16.2909181"><ele>945.9999999999999</ele><time>2026-05-02T18:06:28.676Z</time></trkpt><trkpt lat="39.9815782" lon="16.2910212"><ele>940.9999999999999</ele><time>2026-05-02T18:06:29.675Z</time></trkpt><trkpt lat="39.9815265" lon="16.2911308"><ele>936.0</ele><time>2026-05-02T18:06:30.677Z</time></trkpt><trkpt lat="39.9814791" lon="16.2912532"><ele>931.0</ele><time>2026-05-02T18:06:31.675Z</time></trkpt><trkpt lat="39.9814326" lon="16.2913618"><ele>932.5999999999999</ele><time>2026-05-02T18:06:32.673Z</time></trkpt><trkpt lat="39.9813651" lon="16.2914623"><ele>934.1999999999999</ele><time>2026-05-02T18:06:33.678Z</time></trkpt><trkpt lat="39.9812916" lon="16.2915626"><ele>935.8000000000001</ele><time>2026-05-02T18:06:34.667Z</time></trkpt><trkpt lat="39.9812239" lon="16.2916557"><ele>937.4000000000001</ele><time>2026-05-02T18:06:35.671Z</time></trkpt><trkpt lat="39.9811677" lon="16.2917439"><ele>939.0</ele><time>2026-05-02T18:06:36.674Z</time></trkpt><trkpt lat="39.981117" lon="16.2918229"><ele>939.0</ele><time>2026-05-02T18:06:37.677Z</time></trkpt><trkpt lat="39.9810696" lon="16.2918931"><ele>939.0</ele><time>2026-05-02T18:06:38.668Z</time></trkpt><trkpt lat="39.9810253" lon="16.2919526"><ele>939.0</ele><time>2026-05-02T18:06:39.679Z</time></trkpt><trkpt lat="39.980945" lon="16.2920589"><ele>939.0</ele><time>2026-05-02T18:06:41.675Z</time></trkpt><trkpt lat="39.9808943" lon="16.2921337"><ele>939.0</ele><time>2026-05-02T18:06:43.667Z</time></trkpt><trkpt lat="39.9808393" lon="16.2922002"><ele>939.0</ele><time>2026-05-02T18:06:46.668Z</time></trkpt><trkpt lat="39.9807958" lon="16.2923292"><ele>935.0</ele><time>2026-05-02T18:07:42.689Z</time></trkpt><trkpt lat="39.9807487" lon="16.2924525"><ele>931.0000000000001</ele><time>2026-05-02T18:07:44.669Z</time></trkpt><trkpt lat="39.9807074" lon="16.292552"><ele>927.0000000000001</ele><time>2026-05-02T18:07:46.681Z</time></trkpt><trkpt lat="39.9806592" lon="16.2926731"><ele>923.0</ele><time>2026-05-02T18:07:48.685Z</time></trkpt><trkpt lat="39.9806262" lon="16.2927579"><ele>919.0</ele><time>2026-05-02T18:07:49.684Z</time></trkpt><trkpt lat="39.9805848" lon="16.292858"><ele>918.9999999999999</ele><time>2026-05-02T18:07:50.694Z</time></trkpt><trkpt lat="39.9805399" lon="16.2929623"><ele>919.0</ele><time>2026-05-02T18:07:51.708Z</time></trkpt><trkpt lat="39.9804862" lon="16.2930683"><ele>919.0</ele><time>2026-05-02T18:07:52.693Z</time></trkpt><trkpt lat="39.9804389" lon="16.2931698"><ele>919.0</ele><time>2026-05-02T18:07:53.701Z</time></trkpt><trkpt lat="39.9803971" lon="16.2932523"><ele>918.9999999999999</ele><time>2026-05-02T18:07:54.7Z</time></trkpt><trkpt lat="39.9803566" lon="16.2933406"><ele>919.0</ele><time>2026-05-02T18:07:55.677Z</time></trkpt><trkpt lat="39.9803201" lon="16.2934289"><ele>920.8000000000001</ele><time>2026-05-02T18:07:56.664Z</time></trkpt><trkpt lat="39.9802866" lon="16.2935099"><ele>922.6000000000001</ele><time>2026-05-02T18:07:57.681Z</time></trkpt><trkpt lat="39.9802487" lon="16.2936661"><ele>924.4</ele><time>2026-05-02T18:07:59.673Z</time></trkpt><trkpt lat="39.9802257" lon="16.293815"><ele>926.2</ele><time>2026-05-02T18:08:01.678Z</time></trkpt><trkpt lat="39.980212" lon="16.2939044"><ele>928.0</ele><time>2026-05-02T18:08:02.678Z</time></trkpt><trkpt lat="39.9801866" lon="16.2940025"><ele>932.1666666666666</ele><time>2026-05-02T18:08:03.666Z</time></trkpt><trkpt lat="39.9801551" lon="16.2940972"><ele>936.3333333333333</ele><time>2026-05-02T18:08:04.685Z</time></trkpt><trkpt lat="39.9801329" lon="16.2941955"><ele>940.5</ele><time>2026-05-02T18:08:05.657Z</time></trkpt><trkpt lat="39.9801104" lon="16.2942895"><ele>944.6666666666667</ele><time>2026-05-02T18:08:06.678Z</time></trkpt><trkpt lat="39.9800892" lon="16.2943929"><ele>948.8333333333334</ele><time>2026-05-02T18:08:07.688Z</time></trkpt><trkpt lat="39.980068" lon="16.2944915"><ele>953.0</ele><time>2026-05-02T18:08:08.69Z</time></trkpt><trkpt lat="39.9800479" lon="16.2945948"><ele>947.3333333333334</ele><time>2026-05-02T18:08:09.69Z</time></trkpt><trkpt lat="39.980016" lon="16.2947003"><ele>941.6666666666667</ele><time>2026-05-02T18:08:10.702Z</time></trkpt><trkpt lat="39.9799745" lon="16.2948071"><ele>936.0</ele><time>2026-05-02T18:08:11.69Z</time></trkpt><trkpt lat="39.9799449" lon="16.2948949"><ele>930.3333333333333</ele><time>2026-05-02T18:08:12.691Z</time></trkpt><trkpt lat="39.9799174" lon="16.2949847"><ele>924.6666666666666</ele><time>2026-05-02T18:08:13.688Z</time></trkpt><trkpt lat="39.9798831" lon="16.2950817"><ele>919.0</ele><time>2026-05-02T18:08:14.706Z</time></trkpt><trkpt lat="39.9798044" lon="16.2952378"><ele>919.0</ele><time>2026-05-02T18:08:16.709Z</time></trkpt><trkpt lat="39.9797652" lon="16.2953038"><ele>918.9999999999999</ele><time>2026-05-02T18:08:17.691Z</time></trkpt><trkpt lat="39.9797179" lon="16.2953681"><ele>919.0</ele><time>2026-05-02T18:08:18.698Z</time></trkpt><trkpt lat="39.9796653" lon="16.2954261"><ele>919.0</ele><time>2026-05-02T18:08:19.679Z</time></trkpt><trkpt lat="39.9796061" lon="16.2954801"><ele>918.9999999999999</ele><time>2026-05-02T18:08:20.696Z</time></trkpt><trkpt lat="39.9795469" lon="16.295533"><ele>919.0</ele><time>2026-05-02T18:08:21.714Z</time></trkpt><trkpt lat="39.9794879" lon="16.2955772"><ele>919.0</ele><time>2026-05-02T18:08:22.678Z</time></trkpt><trkpt lat="39.9794296" lon="16.2956229"><ele>916.1428571428571</ele><time>2026-05-02T18:08:23.679Z</time></trkpt><trkpt lat="39.9793784" lon="16.2956827"><ele>913.2857142857142</ele><time>2026-05-02T18:08:24.686Z</time></trkpt><trkpt lat="39.9793381" lon="16.295746"><ele>910.4285714285713</ele><time>2026-05-02T18:08:25.685Z</time></trkpt><trkpt lat="39.9792959" lon="16.2958231"><ele>907.5714285714284</ele><time>2026-05-02T18:08:26.654Z</time></trkpt><trkpt lat="39.9792534" lon="16.295908"><ele>904.7142857142857</ele><time>2026-05-02T18:08:27.706Z</time></trkpt><trkpt lat="39.9792129" lon="16.2959938"><ele>901.8571428571427</ele><time>2026-05-02T18:08:28.679Z</time></trkpt><trkpt lat="39.9791764" lon="16.2960825"><ele>898.9999999999999</ele><time>2026-05-02T18:08:29.69Z</time></trkpt><trkpt lat="39.9791451" lon="16.2961711"><ele>899.0000000000001</ele><time>2026-05-02T18:08:30.71Z</time></trkpt><trkpt lat="39.979111" lon="16.296246"><ele>899.0</ele><time>2026-05-02T18:08:31.695Z</time></trkpt><trkpt lat="39.9790733" lon="16.2963287"><ele>899.0</ele><time>2026-05-02T18:08:32.697Z</time></trkpt><trkpt lat="39.9790373" lon="16.2964152"><ele>899.0</ele><time>2026-05-02T18:08:33.694Z</time></trkpt><trkpt lat="39.978996" lon="16.2964898"><ele>899.0000000000001</ele><time>2026-05-02T18:08:34.69Z</time></trkpt><trkpt lat="39.9789238" lon="16.2966031"><ele>899.0</ele><time>2026-05-02T18:08:36.675Z</time></trkpt><trkpt lat="39.9788393" lon="16.2966937"><ele>901.3333333333334</ele><time>2026-05-02T18:08:38.688Z</time></trkpt><trkpt lat="39.9787236" lon="16.2967483"><ele>903.6666666666667</ele><time>2026-05-02T18:08:40.684Z</time></trkpt><trkpt lat="39.9786602" lon="16.2967686"><ele>906.0</ele><time>2026-05-02T18:08:41.692Z</time></trkpt><trkpt lat="39.9785889" lon="16.2967971"><ele>908.3333333333333</ele><time>2026-05-02T18:08:42.684Z</time></trkpt><trkpt lat="39.9785195" lon="16.296846"><ele>910.6666666666666</ele><time>2026-05-02T18:08:43.688Z</time></trkpt><trkpt lat="39.9784565" lon="16.296911"><ele>913.0</ele><time>2026-05-02T18:08:44.691Z</time></trkpt><trkpt lat="39.978384" lon="16.2969747"><ele>912.9999999999999</ele><time>2026-05-02T18:08:45.668Z</time></trkpt><trkpt lat="39.9783144" lon="16.2970255"><ele>913.0</ele><time>2026-05-02T18:08:46.7Z</time></trkpt><trkpt lat="39.9782466" lon="16.2970782"><ele>913.0</ele><time>2026-05-02T18:08:47.697Z</time></trkpt><trkpt lat="39.9781702" lon="16.297129"><ele>913.0</ele><time>2026-05-02T18:08:48.697Z</time></trkpt><trkpt lat="39.9780943" lon="16.2971725"><ele>912.9999999999999</ele><time>2026-05-02T18:08:49.677Z</time></trkpt><trkpt lat="39.9780242" lon="16.2972228"><ele>913.0</ele><time>2026-05-02T18:08:50.684Z</time></trkpt><trkpt lat="39.9779491" lon="16.2972762"><ele>913.0</ele><time>2026-05-02T18:08:51.697Z</time></trkpt><trkpt lat="39.9778794" lon="16.2973302"><ele>913.0</ele><time>2026-05-02T18:08:52.709Z</time></trkpt><trkpt lat="39.9778166" lon="16.2973855"><ele>913.0</ele><time>2026-05-02T18:08:53.69Z</time></trkpt><trkpt lat="39.9777269" lon="16.2974693"><ele>913.0</ele><time>2026-05-02T18:08:55.692Z</time></trkpt><trkpt lat="39.9776321" lon="16.29755"><ele>913.0</ele><time>2026-05-02T18:08:57.677Z</time></trkpt><trkpt lat="39.9775292" lon="16.2976246"><ele>910.5999999999999</ele><time>2026-05-02T18:08:59.686Z</time></trkpt><trkpt lat="39.9774398" lon="16.2976832"><ele>908.1999999999999</ele><time>2026-05-02T18:09:01.69Z</time></trkpt><trkpt lat="39.9773626" lon="16.2977771"><ele>905.8</ele><time>2026-05-02T18:09:03.7Z</time></trkpt><trkpt lat="39.9773247" lon="16.2978549"><ele>903.4</ele><time>2026-05-02T18:09:04.689Z</time></trkpt><trkpt lat="39.9772867" lon="16.2979331"><ele>901.0</ele><time>2026-05-02T18:09:05.667Z</time></trkpt><trkpt lat="39.9771943" lon="16.2980355"><ele>902.4999999999999</ele><time>2026-05-02T18:09:07.688Z</time></trkpt><trkpt lat="39.9770993" lon="16.2981396"><ele>904.0</ele><time>2026-05-02T18:09:09.697Z</time></trkpt><trkpt lat="39.977051" lon="16.2981941"><ele>905.5</ele><time>2026-05-02T18:09:10.695Z</time></trkpt><trkpt lat="39.9769874" lon="16.2982558"><ele>907.0</ele><time>2026-05-02T18:09:11.695Z</time></trkpt><trkpt lat="39.9769234" lon="16.2983303"><ele>908.4999999999999</ele><time>2026-05-02T18:09:12.708Z</time></trkpt><trkpt lat="39.9768654" lon="16.2983966"><ele>910.0</ele><time>2026-05-02T18:09:13.69Z</time></trkpt><trkpt lat="39.9768203" lon="16.2984692"><ele>910.0</ele><time>2026-05-02T18:09:14.721Z</time></trkpt><trkpt lat="39.9767764" lon="16.298529"><ele>910.0</ele><time>2026-05-02T18:09:15.668Z</time></trkpt><trkpt lat="39.9766911" lon="16.2986591"><ele>910.0</ele><time>2026-05-02T18:09:17.687Z</time></trkpt><trkpt lat="39.9766289" lon="16.2987281"><ele>910.0</ele><time>2026-05-02T18:09:18.694Z</time></trkpt><trkpt lat="39.9765521" lon="16.298797"><ele>910.0</ele><time>2026-05-02T18:09:19.697Z</time></trkpt><trkpt lat="39.9764822" lon="16.2988783"><ele>907.9999999999999</ele><time>2026-05-02T18:09:20.69Z</time></trkpt><trkpt lat="39.9764114" lon="16.298948"><ele>906.0</ele><time>2026-05-02T18:09:21.7Z</time></trkpt><trkpt lat="39.9763471" lon="16.2990239"><ele>904.0</ele><time>2026-05-02T18:09:22.685Z</time></trkpt><trkpt lat="39.9762872" lon="16.2991113"><ele>902.0</ele><time>2026-05-02T18:09:23.71Z</time></trkpt><trkpt lat="39.9762353" lon="16.2991999"><ele>899.9999999999999</ele><time>2026-05-02T18:09:24.698Z</time></trkpt><trkpt lat="39.976196" lon="16.2992824"><ele>898.0</ele><time>2026-05-02T18:09:25.697Z</time></trkpt><trkpt lat="39.9761516" lon="16.2993621"><ele>897.9999999999999</ele><time>2026-05-02T18:09:26.689Z</time></trkpt><trkpt lat="39.9760993" lon="16.2994311"><ele>898.0</ele><time>2026-05-02T18:09:27.682Z</time></trkpt><trkpt lat="39.9760467" lon="16.2994896"><ele>898.0</ele><time>2026-05-02T18:09:28.705Z</time></trkpt><trkpt lat="39.9759906" lon="16.2995435"><ele>898.0</ele><time>2026-05-02T18:09:29.699Z</time></trkpt><trkpt lat="39.9759216" lon="16.2995998"><ele>897.9999999999999</ele><time>2026-05-02T18:09:30.701Z</time></trkpt><trkpt lat="39.9758461" lon="16.2996545"><ele>898.0</ele><time>2026-05-02T18:09:31.687Z</time></trkpt><trkpt lat="39.9757694" lon="16.2997143"><ele>898.9999999999999</ele><time>2026-05-02T18:09:32.686Z</time></trkpt><trkpt lat="39.9756868" lon="16.2997719"><ele>900.0</ele><time>2026-05-02T18:09:33.689Z</time></trkpt><trkpt lat="39.9755996" lon="16.2998192"><ele>901.0</ele><time>2026-05-02T18:09:34.685Z</time></trkpt><trkpt lat="39.975517" lon="16.2998786"><ele>902.0</ele><time>2026-05-02T18:09:35.675Z</time></trkpt><trkpt lat="39.9754452" lon="16.2999351"><ele>902.9999999999999</ele><time>2026-05-02T18:09:36.689Z</time></trkpt><trkpt lat="39.9753833" lon="16.2999795"><ele>904.0</ele><time>2026-05-02T18:09:37.683Z</time></trkpt><trkpt lat="39.9752923" lon="16.3000466"><ele>904.0</ele><time>2026-05-02T18:09:39.69Z</time></trkpt><trkpt lat="39.9752266" lon="16.3001135"><ele>904.0000000000001</ele><time>2026-05-02T18:09:41.685Z</time></trkpt><trkpt lat="39.9751538" lon="16.3001084"><ele>904.0000000000001</ele><time>2026-05-02T18:09:45.675Z</time></trkpt><trkpt lat="39.9751245" lon="16.3000255"><ele>904.0</ele><time>2026-05-02T18:09:47.694Z</time></trkpt><trkpt lat="39.9751766" lon="16.2998575"><ele>904.0</ele><time>2026-05-02T18:09:49.684Z</time></trkpt><trkpt lat="39.9752267" lon="16.2997351"><ele>900.4000000000001</ele><time>2026-05-02T18:09:50.691Z</time></trkpt><trkpt lat="39.9752741" lon="16.2996225"><ele>896.8000000000001</ele><time>2026-05-02T18:09:51.695Z</time></trkpt><trkpt lat="39.9753145" lon="16.299515"><ele>893.1999999999999</ele><time>2026-05-02T18:09:52.693Z</time></trkpt><trkpt lat="39.9753537" lon="16.2993975"><ele>889.5999999999999</ele><time>2026-05-02T18:09:53.693Z</time></trkpt><trkpt lat="39.9753945" lon="16.2992824"><ele>886.0</ele><time>2026-05-02T18:09:54.713Z</time></trkpt><trkpt lat="39.9754301" lon="16.2991798"><ele>886.0</ele><time>2026-05-02T18:09:55.688Z</time></trkpt><trkpt lat="39.9754673" lon="16.2990978"><ele>885.9999999999999</ele><time>2026-05-02T18:09:56.707Z</time></trkpt><trkpt lat="39.9755399" lon="16.2989799"><ele>885.9999999999999</ele><time>2026-05-02T18:09:58.7Z</time></trkpt><trkpt lat="39.9756404" lon="16.2989131"><ele>886.0</ele><time>2026-05-02T18:10:00.698Z</time></trkpt><trkpt lat="39.9757117" lon="16.2988849"><ele>886.0</ele><time>2026-05-02T18:10:01.684Z</time></trkpt><trkpt lat="39.9758014" lon="16.2988548"><ele>885.8</ele><time>2026-05-02T18:10:02.687Z</time></trkpt><trkpt lat="39.9758993" lon="16.2988345"><ele>885.5999999999999</ele><time>2026-05-02T18:10:03.702Z</time></trkpt><trkpt lat="39.9759966" lon="16.2988222"><ele>885.4</ele><time>2026-05-02T18:10:04.685Z</time></trkpt><trkpt lat="39.9760832" lon="16.2987877"><ele>885.2</ele><time>2026-05-02T18:10:05.687Z</time></trkpt><trkpt lat="39.9761661" lon="16.2987313"><ele>885.0</ele><time>2026-05-02T18:10:06.687Z</time></trkpt><trkpt lat="39.9762439" lon="16.2986494"><ele>885.0</ele><time>2026-05-02T18:10:07.693Z</time></trkpt><trkpt lat="39.9763243" lon="16.2985414"><ele>885.0</ele><time>2026-05-02T18:10:08.687Z</time></trkpt><trkpt lat="39.9764057" lon="16.2984312"><ele>885.0</ele><time>2026-05-02T18:10:09.697Z</time></trkpt><trkpt lat="39.9764733" lon="16.2983184"><ele>885.0</ele><time>2026-05-02T18:10:10.7Z</time></trkpt><trkpt lat="39.9765373" lon="16.2982012"><ele>888.2</ele><time>2026-05-02T18:10:11.688Z</time></trkpt><trkpt lat="39.9765856" lon="16.2980801"><ele>891.4</ele><time>2026-05-02T18:10:12.687Z</time></trkpt><trkpt lat="39.9766253" lon="16.2979534"><ele>894.5999999999999</ele><time>2026-05-02T18:10:13.67Z</time></trkpt><trkpt lat="39.9766604" lon="16.2978119"><ele>897.8</ele><time>2026-05-02T18:10:14.678Z</time></trkpt><trkpt lat="39.9766855" lon="16.2976574"><ele>901.0</ele><time>2026-05-02T18:10:15.663Z</time></trkpt><trkpt lat="39.9767242" lon="16.2975092"><ele>901.0</ele><time>2026-05-02T18:10:16.671Z</time></trkpt><trkpt lat="39.9767691" lon="16.2973774"><ele>900.9999999999999</ele><time>2026-05-02T18:10:17.692Z</time></trkpt><trkpt lat="39.9768192" lon="16.2972572"><ele>900.9999999999999</ele><time>2026-05-02T18:10:18.699Z</time></trkpt><trkpt lat="39.9768957" lon="16.2971543"><ele>901.0</ele><time>2026-05-02T18:10:19.681Z</time></trkpt><trkpt lat="39.976975" lon="16.2970566"><ele>901.0</ele><time>2026-05-02T18:10:20.665Z</time></trkpt><trkpt lat="39.9770698" lon="16.2969684"><ele>895.75</ele><time>2026-05-02T18:10:21.65Z</time></trkpt><trkpt lat="39.9771591" lon="16.2968725"><ele>890.5</ele><time>2026-05-02T18:10:22.684Z</time></trkpt><trkpt lat="39.9772504" lon="16.2967795"><ele>885.25</ele><time>2026-05-02T18:10:23.673Z</time></trkpt><trkpt lat="39.9773399" lon="16.296682"><ele>880.0</ele><time>2026-05-02T18:10:24.68Z</time></trkpt><trkpt lat="39.977422" lon="16.2965665"><ele>880.0</ele><time>2026-05-02T18:10:25.665Z</time></trkpt><trkpt lat="39.9774919" lon="16.2964349"><ele>880.0</ele><time>2026-05-02T18:10:26.69Z</time></trkpt><trkpt lat="39.9775449" lon="16.2963013"><ele>880.0</ele><time>2026-05-02T18:10:27.67Z</time></trkpt><trkpt lat="39.9775813" lon="16.2961679"><ele>880.0</ele><time>2026-05-02T18:10:28.693Z</time></trkpt><trkpt lat="39.9776144" lon="16.2960383"><ele>880.0</ele><time>2026-05-02T18:10:29.687Z</time></trkpt><trkpt lat="39.9776605" lon="16.2959232"><ele>880.0</ele><time>2026-05-02T18:10:30.691Z</time></trkpt><trkpt lat="39.9777252" lon="16.2958173"><ele>880.0</ele><time>2026-05-02T18:10:31.686Z</time></trkpt><trkpt lat="39.9778023" lon="16.2957084"><ele>880.0</ele><time>2026-05-02T18:10:32.689Z</time></trkpt><trkpt lat="39.9778838" lon="16.2955989"><ele>880.0</ele><time>2026-05-02T18:10:33.694Z</time></trkpt><trkpt lat="39.9779792" lon="16.295478"><ele>877.0</ele><time>2026-05-02T18:10:34.683Z</time></trkpt><trkpt lat="39.9780765" lon="16.2953429"><ele>874.0</ele><time>2026-05-02T18:10:35.701Z</time></trkpt><trkpt lat="39.9781561" lon="16.2952149"><ele>871.0</ele><time>2026-05-02T18:10:36.687Z</time></trkpt><trkpt lat="39.9782267" lon="16.2951029"><ele>868.0</ele><time>2026-05-02T18:10:37.684Z</time></trkpt><trkpt lat="39.9782832" lon="16.2949932"><ele>868.0</ele><time>2026-05-02T18:10:38.673Z</time></trkpt><trkpt lat="39.9783279" lon="16.2948721"><ele>868.0</ele><time>2026-05-02T18:10:39.686Z</time></trkpt><trkpt lat="39.9783489" lon="16.2947277"><ele>868.0</ele><time>2026-05-02T18:10:40.682Z</time></trkpt><trkpt lat="39.978364" lon="16.2945758"><ele>868.0</ele><time>2026-05-02T18:10:41.674Z</time></trkpt><trkpt lat="39.9783779" lon="16.2944228"><ele>867.1666666666666</ele><time>2026-05-02T18:10:42.676Z</time></trkpt><trkpt lat="39.9783866" lon="16.2942866"><ele>866.3333333333333</ele><time>2026-05-02T18:10:43.701Z</time></trkpt><trkpt lat="39.9783894" lon="16.2941573"><ele>865.5</ele><time>2026-05-02T18:10:44.697Z</time></trkpt><trkpt lat="39.9783871" lon="16.2940358"><ele>864.6666666666667</ele><time>2026-05-02T18:10:45.667Z</time></trkpt><trkpt lat="39.9783844" lon="16.2939282"><ele>863.8333333333334</ele><time>2026-05-02T18:10:46.68Z</time></trkpt><trkpt lat="39.978379" lon="16.2938458"><ele>863.0</ele><time>2026-05-02T18:10:47.677Z</time></trkpt><trkpt lat="39.9783513" lon="16.2937134"><ele>863.0000000000001</ele><time>2026-05-02T18:10:49.695Z</time></trkpt><trkpt lat="39.978256" lon="16.2936053"><ele>863.0</ele><time>2026-05-02T18:10:51.678Z</time></trkpt><trkpt lat="39.9781955" lon="16.2935709"><ele>863.0</ele><time>2026-05-02T18:10:52.7Z</time></trkpt><trkpt lat="39.9781329" lon="16.2935615"><ele>863.0</ele><time>2026-05-02T18:10:53.677Z</time></trkpt><trkpt lat="39.9780645" lon="16.2935833"><ele>863.0000000000001</ele><time>2026-05-02T18:10:54.7Z</time></trkpt><trkpt lat="39.9779956" lon="16.2936311"><ele>863.0</ele><time>2026-05-02T18:10:55.689Z</time></trkpt><trkpt lat="39.9779287" lon="16.2936714"><ele>863.0000000000001</ele><time>2026-05-02T18:10:56.694Z</time></trkpt><trkpt lat="39.9778667" lon="16.2936969"><ele>863.0</ele><time>2026-05-02T18:10:57.689Z</time></trkpt><trkpt lat="39.9777912" lon="16.293701"><ele>863.0</ele><time>2026-05-02T18:10:58.714Z</time></trkpt><trkpt lat="39.9777078" lon="16.2936771"><ele>863.0</ele><time>2026-05-02T18:10:59.692Z</time></trkpt><trkpt lat="39.9776137" lon="16.2936382"><ele>863.0000000000001</ele><time>2026-05-02T18:11:00.686Z</time></trkpt><trkpt lat="39.9775049" lon="16.2936002"><ele>863.0</ele><time>2026-05-02T18:11:01.695Z</time></trkpt><trkpt lat="39.9774025" lon="16.2935755"><ele>860.8</ele><time>2026-05-02T18:11:02.701Z</time></trkpt><trkpt lat="39.9773185" lon="16.2935394"><ele>858.5999999999999</ele><time>2026-05-02T18:11:03.708Z</time></trkpt><trkpt lat="39.9772423" lon="16.2934881"><ele>856.4000000000001</ele><time>2026-05-02T18:11:04.709Z</time></trkpt><trkpt lat="39.9771672" lon="16.2934114"><ele>854.2</ele><time>2026-05-02T18:11:05.678Z</time></trkpt><trkpt lat="39.9770844" lon="16.2933207"><ele>852.0</ele><time>2026-05-02T18:11:06.702Z</time></trkpt><trkpt lat="39.9769999" lon="16.2932201"><ele>852.0</ele><time>2026-05-02T18:11:07.703Z</time></trkpt><trkpt lat="39.9769266" lon="16.2931305"><ele>852.0</ele><time>2026-05-02T18:11:08.691Z</time></trkpt><trkpt lat="39.9768575" lon="16.2930589"><ele>852.0</ele><time>2026-05-02T18:11:09.701Z</time></trkpt><trkpt lat="39.9767679" lon="16.2929953"><ele>852.0</ele><time>2026-05-02T18:11:10.711Z</time></trkpt><trkpt lat="39.9766728" lon="16.2929313"><ele>852.0</ele><time>2026-05-02T18:11:11.694Z</time></trkpt><trkpt lat="39.97659" lon="16.2928837"><ele>851.1666666666666</ele><time>2026-05-02T18:11:12.69Z</time></trkpt><trkpt lat="39.97652" lon="16.2928661"><ele>850.3333333333333</ele><time>2026-05-02T18:11:13.686Z</time></trkpt><trkpt lat="39.976453" lon="16.2928852"><ele>849.5</ele><time>2026-05-02T18:11:14.697Z</time></trkpt><trkpt lat="39.9763827" lon="16.2929438"><ele>848.6666666666666</ele><time>2026-05-02T18:11:15.685Z</time></trkpt><trkpt lat="39.9763109" lon="16.2930259"><ele>847.8333333333333</ele><time>2026-05-02T18:11:16.704Z</time></trkpt><trkpt lat="39.9762448" lon="16.293105"><ele>847.0</ele><time>2026-05-02T18:11:17.702Z</time></trkpt><trkpt lat="39.9761702" lon="16.2931577"><ele>846.0</ele><time>2026-05-02T18:11:18.705Z</time></trkpt><trkpt lat="39.9760752" lon="16.2931964"><ele>845.0</ele><time>2026-05-02T18:11:19.698Z</time></trkpt><trkpt lat="39.9759789" lon="16.2932307"><ele>844.0</ele><time>2026-05-02T18:11:20.695Z</time></trkpt><trkpt lat="39.9758944" lon="16.2932464"><ele>843.0</ele><time>2026-05-02T18:11:21.677Z</time></trkpt><trkpt lat="39.9758095" lon="16.2932449"><ele>842.0</ele><time>2026-05-02T18:11:22.702Z</time></trkpt><trkpt lat="39.9757082" lon="16.2932205"><ele>840.5</ele><time>2026-05-02T18:11:23.698Z</time></trkpt><trkpt lat="39.975596" lon="16.2931697"><ele>839.0</ele><time>2026-05-02T18:11:24.723Z</time></trkpt><trkpt lat="39.9754694" lon="16.2931269"><ele>837.5</ele><time>2026-05-02T18:11:25.704Z</time></trkpt><trkpt lat="39.9753389" lon="16.2931072"><ele>836.0</ele><time>2026-05-02T18:11:26.701Z</time></trkpt><trkpt lat="39.9752203" lon="16.2930917"><ele>835.0</ele><time>2026-05-02T18:11:27.705Z</time></trkpt><trkpt lat="39.9751103" lon="16.2930645"><ele>834.0</ele><time>2026-05-02T18:11:28.7Z</time></trkpt><trkpt lat="39.9750001" lon="16.2930224"><ele>833.0</ele><time>2026-05-02T18:11:29.705Z</time></trkpt><trkpt lat="39.974915" lon="16.2929948"><ele>832.0</ele><time>2026-05-02T18:11:30.7Z</time></trkpt><trkpt lat="39.974816" lon="16.2929645"><ele>831.0</ele><time>2026-05-02T18:11:32.702Z</time></trkpt><trkpt lat="39.974683" lon="16.2929633"><ele>831.0</ele><time>2026-05-02T18:11:34.708Z</time></trkpt><trkpt lat="39.974601" lon="16.2929925"><ele>831.0</ele><time>2026-05-02T18:11:35.684Z</time></trkpt><trkpt lat="39.9745108" lon="16.2930527"><ele>831.0</ele><time>2026-05-02T18:11:36.692Z</time></trkpt><trkpt lat="39.9744172" lon="16.2931327"><ele>831.0</ele><time>2026-05-02T18:11:37.692Z</time></trkpt><trkpt lat="39.9743153" lon="16.2932253"><ele>831.0</ele><time>2026-05-02T18:11:38.68Z</time></trkpt><trkpt lat="39.9742064" lon="16.2933256"><ele>827.75</ele><time>2026-05-02T18:11:39.688Z</time></trkpt><trkpt lat="39.9740956" lon="16.2934329"><ele>824.5</ele><time>2026-05-02T18:11:40.7Z</time></trkpt><trkpt lat="39.9739856" lon="16.2935408"><ele>821.25</ele><time>2026-05-02T18:11:41.682Z</time></trkpt><trkpt lat="39.9738651" lon="16.2936438"><ele>818.0</ele><time>2026-05-02T18:11:42.683Z</time></trkpt><trkpt lat="39.9737401" lon="16.2937526"><ele>818.0</ele><time>2026-05-02T18:11:43.694Z</time></trkpt><trkpt lat="39.9736232" lon="16.2938632"><ele>818.0</ele><time>2026-05-02T18:11:44.699Z</time></trkpt><trkpt lat="39.9735155" lon="16.2939613"><ele>818.0</ele><time>2026-05-02T18:11:45.69Z</time></trkpt><trkpt lat="39.9734174" lon="16.294052"><ele>818.0</ele><time>2026-05-02T18:11:46.7Z</time></trkpt><trkpt lat="39.9733135" lon="16.2941408"><ele>816.5</ele><time>2026-05-02T18:11:47.682Z</time></trkpt><trkpt lat="39.9732056" lon="16.2942299"><ele>815.0</ele><time>2026-05-02T18:11:48.7Z</time></trkpt><trkpt lat="39.9730904" lon="16.2943243"><ele>813.5</ele><time>2026-05-02T18:11:49.691Z</time></trkpt><trkpt lat="39.9729825" lon="16.294423"><ele>812.0</ele><time>2026-05-02T18:11:50.693Z</time></trkpt><trkpt lat="39.9728838" lon="16.2945131"><ele>812.0000000000001</ele><time>2026-05-02T18:11:51.703Z</time></trkpt><trkpt lat="39.9727892" lon="16.2946005"><ele>812.0</ele><time>2026-05-02T18:11:52.702Z</time></trkpt><trkpt lat="39.9727036" lon="16.294676"><ele>812.0</ele><time>2026-05-02T18:11:53.698Z</time></trkpt><trkpt lat="39.9726359" lon="16.2947444"><ele>812.0</ele><time>2026-05-02T18:11:54.694Z</time></trkpt><trkpt lat="39.9725786" lon="16.2947959"><ele>812.0000000000001</ele><time>2026-05-02T18:11:55.673Z</time></trkpt><trkpt lat="39.9725169" lon="16.2948222"><ele>812.0</ele><time>2026-05-02T18:11:56.674Z</time></trkpt><trkpt lat="39.9724504" lon="16.2948303"><ele>810.6666666666667</ele><time>2026-05-02T18:11:57.685Z</time></trkpt><trkpt lat="39.9723879" lon="16.2948104"><ele>809.3333333333334</ele><time>2026-05-02T18:11:58.706Z</time></trkpt><trkpt lat="39.972326" lon="16.2947694"><ele>808.0</ele><time>2026-05-02T18:11:59.702Z</time></trkpt><trkpt lat="39.9722792" lon="16.2947006"><ele>806.6666666666667</ele><time>2026-05-02T18:12:00.684Z</time></trkpt><trkpt lat="39.9722474" lon="16.2946089"><ele>805.3333333333334</ele><time>2026-05-02T18:12:01.691Z</time></trkpt><trkpt lat="39.9722308" lon="16.294477"><ele>804.0</ele><time>2026-05-02T18:12:02.698Z</time></trkpt><trkpt lat="39.9722079" lon="16.29431"><ele>804.0</ele><time>2026-05-02T18:12:03.686Z</time></trkpt><trkpt lat="39.9721859" lon="16.2941266"><ele>804.0</ele><time>2026-05-02T18:12:04.69Z</time></trkpt><trkpt lat="39.9721708" lon="16.2939578"><ele>804.0</ele><time>2026-05-02T18:12:05.713Z</time></trkpt><trkpt lat="39.9721438" lon="16.2938167"><ele>804.0</ele><time>2026-05-02T18:12:06.699Z</time></trkpt><trkpt lat="39.9721086" lon="16.2936821"><ele>804.0</ele><time>2026-05-02T18:12:07.709Z</time></trkpt><trkpt lat="39.972047" lon="16.293539"><ele>804.0</ele><time>2026-05-02T18:12:08.685Z</time></trkpt><trkpt lat="39.9719731" lon="16.2933799"><ele>804.0</ele><time>2026-05-02T18:12:09.694Z</time></trkpt><trkpt lat="39.9718972" lon="16.2932248"><ele>804.0</ele><time>2026-05-02T18:12:10.699Z</time></trkpt><trkpt lat="39.9718281" lon="16.2930937"><ele>803.6</ele><time>2026-05-02T18:12:11.69Z</time></trkpt><trkpt lat="39.9717635" lon="16.292982"><ele>803.2</ele><time>2026-05-02T18:12:12.693Z</time></trkpt><trkpt lat="39.9717041" lon="16.2928827"><ele>802.8000000000001</ele><time>2026-05-02T18:12:13.697Z</time></trkpt><trkpt lat="39.9716563" lon="16.2927846"><ele>802.4000000000001</ele><time>2026-05-02T18:12:14.69Z</time></trkpt><trkpt lat="39.9716242" lon="16.2926852"><ele>802.0</ele><time>2026-05-02T18:12:15.695Z</time></trkpt><trkpt lat="39.9716251" lon="16.2925819"><ele>801.75</ele><time>2026-05-02T18:12:16.699Z</time></trkpt><trkpt lat="39.9716491" lon="16.2924563"><ele>801.5</ele><time>2026-05-02T18:12:17.676Z</time></trkpt><trkpt lat="39.9716886" lon="16.2923014"><ele>801.25</ele><time>2026-05-02T18:12:18.691Z</time></trkpt><trkpt lat="39.971735" lon="16.2921359"><ele>801.0</ele><time>2026-05-02T18:12:19.705Z</time></trkpt><trkpt lat="39.9717812" lon="16.2919622"><ele>801.0</ele><time>2026-05-02T18:12:20.703Z</time></trkpt><trkpt lat="39.9718331" lon="16.291783"><ele>801.0</ele><time>2026-05-02T18:12:21.709Z</time></trkpt><trkpt lat="39.9718793" lon="16.2916137"><ele>801.0</ele><time>2026-05-02T18:12:22.699Z</time></trkpt><trkpt lat="39.9719204" lon="16.2914656"><ele>801.0</ele><time>2026-05-02T18:12:23.695Z</time></trkpt><trkpt lat="39.9719664" lon="16.291336"><ele>798.4</ele><time>2026-05-02T18:12:24.685Z</time></trkpt><trkpt lat="39.9720225" lon="16.2912129"><ele>795.8</ele><time>2026-05-02T18:12:25.675Z</time></trkpt><trkpt lat="39.9720814" lon="16.2910906"><ele>793.1999999999999</ele><time>2026-05-02T18:12:26.699Z</time></trkpt><trkpt lat="39.9721433" lon="16.2909821"><ele>790.5999999999999</ele><time>2026-05-02T18:12:27.715Z</time></trkpt><trkpt lat="39.9721929" lon="16.2908824"><ele>788.0</ele><time>2026-05-02T18:12:28.693Z</time></trkpt><trkpt lat="39.9722223" lon="16.2907735"><ele>788.0000000000001</ele><time>2026-05-02T18:12:29.701Z</time></trkpt><trkpt lat="39.972243" lon="16.2906517"><ele>788.0</ele><time>2026-05-02T18:12:30.706Z</time></trkpt><trkpt lat="39.9722464" lon="16.2905337"><ele>788.0</ele><time>2026-05-02T18:12:31.686Z</time></trkpt><trkpt lat="39.9722338" lon="16.2904287"><ele>788.0</ele><time>2026-05-02T18:12:32.702Z</time></trkpt><trkpt lat="39.9722064" lon="16.2903279"><ele>788.0000000000001</ele><time>2026-05-02T18:12:33.688Z</time></trkpt><trkpt lat="39.9721469" lon="16.2902393"><ele>788.0</ele><time>2026-05-02T18:12:34.7Z</time></trkpt><trkpt lat="39.9720583" lon="16.2901535"><ele>787.6666666666667</ele><time>2026-05-02T18:12:35.701Z</time></trkpt><trkpt lat="39.9719495" lon="16.2900536"><ele>787.3333333333333</ele><time>2026-05-02T18:12:36.705Z</time></trkpt><trkpt lat="39.9718327" lon="16.2899297"><ele>787.0</ele><time>2026-05-02T18:12:37.691Z</time></trkpt><trkpt lat="39.9716968" lon="16.2897836"><ele>783.0</ele><time>2026-05-02T18:12:38.688Z</time></trkpt><trkpt lat="39.9715543" lon="16.2896381"><ele>779.0</ele><time>2026-05-02T18:12:39.691Z</time></trkpt><trkpt lat="39.9714221" lon="16.2895102"><ele>775.0</ele><time>2026-05-02T18:12:40.701Z</time></trkpt><trkpt lat="39.9713104" lon="16.2893892"><ele>775.0</ele><time>2026-05-02T18:12:41.695Z</time></trkpt><trkpt lat="39.9712033" lon="16.2892903"><ele>775.0</ele><time>2026-05-02T18:12:42.696Z</time></trkpt><trkpt lat="39.9711039" lon="16.2892148"><ele>775.0</ele><time>2026-05-02T18:12:43.693Z</time></trkpt><trkpt lat="39.9709945" lon="16.2891672"><ele>775.0</ele><time>2026-05-02T18:12:44.687Z</time></trkpt><trkpt lat="39.9708814" lon="16.289125"><ele>772.0</ele><time>2026-05-02T18:12:45.68Z</time></trkpt><trkpt lat="39.9707668" lon="16.2890947"><ele>769.0</ele><time>2026-05-02T18:12:46.695Z</time></trkpt><trkpt lat="39.970644" lon="16.2890806"><ele>766.0</ele><time>2026-05-02T18:12:47.684Z</time></trkpt><trkpt lat="39.9705186" lon="16.2890856"><ele>763.0</ele><time>2026-05-02T18:12:48.692Z</time></trkpt><trkpt lat="39.9704061" lon="16.2890818"><ele>763.0</ele><time>2026-05-02T18:12:49.689Z</time></trkpt><trkpt lat="39.9703076" lon="16.2890528"><ele>763.0</ele><time>2026-05-02T18:12:50.691Z</time></trkpt><trkpt lat="39.9702178" lon="16.2889921"><ele>763.0</ele><time>2026-05-02T18:12:51.692Z</time></trkpt><trkpt lat="39.9701347" lon="16.2889065"><ele>763.0</ele><time>2026-05-02T18:12:52.694Z</time></trkpt><trkpt lat="39.9700515" lon="16.2888025"><ele>763.0</ele><time>2026-05-02T18:12:53.694Z</time></trkpt><trkpt lat="39.9699655" lon="16.2886896"><ele>765.0</ele><time>2026-05-02T18:12:54.704Z</time></trkpt><trkpt lat="39.9698881" lon="16.2885799"><ele>767.0</ele><time>2026-05-02T18:12:55.691Z</time></trkpt><trkpt lat="39.9698049" lon="16.2884896"><ele>769.0</ele><time>2026-05-02T18:12:56.706Z</time></trkpt><trkpt lat="39.9697081" lon="16.2884076"><ele>771.0</ele><time>2026-05-02T18:12:57.687Z</time></trkpt><trkpt lat="39.9696187" lon="16.2883287"><ele>773.0</ele><time>2026-05-02T18:12:58.695Z</time></trkpt><trkpt lat="39.9695484" lon="16.2882356"><ele>773.0</ele><time>2026-05-02T18:12:59.698Z</time></trkpt><trkpt lat="39.9694958" lon="16.288124"><ele>773.0</ele><time>2026-05-02T18:13:00.682Z</time></trkpt><trkpt lat="39.9694546" lon="16.2879892"><ele>773.0</ele><time>2026-05-02T18:13:01.693Z</time></trkpt><trkpt lat="39.9694203" lon="16.2878359"><ele>773.0</ele><time>2026-05-02T18:13:02.703Z</time></trkpt><trkpt lat="39.9693854" lon="16.2876781"><ele>773.0</ele><time>2026-05-02T18:13:03.685Z</time></trkpt><trkpt lat="39.969353" lon="16.2875286"><ele>773.0</ele><time>2026-05-02T18:13:04.675Z</time></trkpt><trkpt lat="39.9693248" lon="16.2874003"><ele>773.0</ele><time>2026-05-02T18:13:05.67Z</time></trkpt><trkpt lat="39.9692897" lon="16.2872752"><ele>773.0</ele><time>2026-05-02T18:13:06.707Z</time></trkpt><trkpt lat="39.969238" lon="16.28715"><ele>773.0</ele><time>2026-05-02T18:13:07.725Z</time></trkpt><trkpt lat="39.9691746" lon="16.2870262"><ele>779.75</ele><time>2026-05-02T18:13:08.707Z</time></trkpt><trkpt lat="39.9691008" lon="16.2868974"><ele>786.5</ele><time>2026-05-02T18:13:09.692Z</time></trkpt><trkpt lat="39.9690252" lon="16.2867626"><ele>793.25</ele><time>2026-05-02T18:13:10.686Z</time></trkpt><trkpt lat="39.9689497" lon="16.2866331"><ele>800.0</ele><time>2026-05-02T18:13:11.67Z</time></trkpt><trkpt lat="39.9688808" lon="16.2865048"><ele>799.0</ele><time>2026-05-02T18:13:12.685Z</time></trkpt><trkpt lat="39.9688214" lon="16.2863604"><ele>798.0</ele><time>2026-05-02T18:13:13.662Z</time></trkpt><trkpt lat="39.9687668" lon="16.2862092"><ele>797.0</ele><time>2026-05-02T18:13:14.688Z</time></trkpt><trkpt lat="39.9687198" lon="16.2860496"><ele>796.0</ele><time>2026-05-02T18:13:15.666Z</time></trkpt><trkpt lat="39.9686735" lon="16.2858824"><ele>796.0</ele><time>2026-05-02T18:13:16.688Z</time></trkpt><trkpt lat="39.9686296" lon="16.2857156"><ele>796.0</ele><time>2026-05-02T18:13:17.702Z</time></trkpt><trkpt lat="39.9685809" lon="16.2855411"><ele>796.0</ele><time>2026-05-02T18:13:18.694Z</time></trkpt><trkpt lat="39.9685287" lon="16.2853583"><ele>796.0</ele><time>2026-05-02T18:13:19.699Z</time></trkpt><trkpt lat="39.9684781" lon="16.2851799"><ele>795.5</ele><time>2026-05-02T18:13:20.686Z</time></trkpt><trkpt lat="39.9684271" lon="16.2850009"><ele>795.0</ele><time>2026-05-02T18:13:21.702Z</time></trkpt><trkpt lat="39.9683846" lon="16.2848206"><ele>794.5</ele><time>2026-05-02T18:13:22.685Z</time></trkpt><trkpt lat="39.9683544" lon="16.284647"><ele>794.0</ele><time>2026-05-02T18:13:23.687Z</time></trkpt><trkpt lat="39.9683367" lon="16.2844829"><ele>802.4000000000001</ele><time>2026-05-02T18:13:24.694Z</time></trkpt><trkpt lat="39.9683216" lon="16.2843317"><ele>810.8</ele><time>2026-05-02T18:13:25.671Z</time></trkpt><trkpt lat="39.9683046" lon="16.2841825"><ele>819.2</ele><time>2026-05-02T18:13:26.709Z</time></trkpt><trkpt lat="39.9682966" lon="16.2840514"><ele>827.5999999999999</ele><time>2026-05-02T18:13:27.695Z</time></trkpt><trkpt lat="39.9682952" lon="16.2839589"><ele>836.0</ele><time>2026-05-02T18:13:28.696Z</time></trkpt><trkpt lat="39.9682488" lon="16.2838529"><ele>836.0000000000001</ele><time>2026-05-02T18:13:30.692Z</time></trkpt><trkpt lat="39.9681792" lon="16.2838487"><ele>836.0</ele><time>2026-05-02T18:13:32.686Z</time></trkpt><trkpt lat="39.9681185" lon="16.283955"><ele>836.0</ele><time>2026-05-02T18:13:34.686Z</time></trkpt><trkpt lat="39.9680951" lon="16.2840339"><ele>836.0</ele><time>2026-05-02T18:13:35.699Z</time></trkpt><trkpt lat="39.9680739" lon="16.2841441"><ele>836.0000000000001</ele><time>2026-05-02T18:13:36.699Z</time></trkpt><trkpt lat="39.9680529" lon="16.2842673"><ele>836.0</ele><time>2026-05-02T18:13:37.692Z</time></trkpt><trkpt lat="39.9680292" lon="16.2844151"><ele>836.5</ele><time>2026-05-02T18:13:38.694Z</time></trkpt><trkpt lat="39.9680125" lon="16.2845706"><ele>837.0</ele><time>2026-05-02T18:13:39.686Z</time></trkpt><trkpt lat="39.9679959" lon="16.2847372"><ele>837.5</ele><time>2026-05-02T18:13:40.684Z</time></trkpt><trkpt lat="39.967979" lon="16.2849065"><ele>838.0</ele><time>2026-05-02T18:13:41.687Z</time></trkpt><trkpt lat="39.967959" lon="16.2850819"><ele>838.0</ele><time>2026-05-02T18:13:42.688Z</time></trkpt><trkpt lat="39.9679338" lon="16.2852584"><ele>838.0</ele><time>2026-05-02T18:13:43.682Z</time></trkpt><trkpt lat="39.9679054" lon="16.2854333"><ele>838.0</ele><time>2026-05-02T18:13:44.68Z</time></trkpt><trkpt lat="39.9678694" lon="16.2856017"><ele>838.0</ele><time>2026-05-02T18:13:45.665Z</time></trkpt><trkpt lat="39.9678341" lon="16.2857633"><ele>838.75</ele><time>2026-05-02T18:13:46.68Z</time></trkpt><trkpt lat="39.9678034" lon="16.2859308"><ele>839.5</ele><time>2026-05-02T18:13:47.7Z</time></trkpt><trkpt lat="39.9677726" lon="16.2861056"><ele>840.25</ele><time>2026-05-02T18:13:48.693Z</time></trkpt><trkpt lat="39.9677502" lon="16.2862735"><ele>841.0</ele><time>2026-05-02T18:13:49.687Z</time></trkpt><trkpt lat="39.9677364" lon="16.2864368"><ele>841.0</ele><time>2026-05-02T18:13:50.686Z</time></trkpt><trkpt lat="39.9677406" lon="16.2865936"><ele>841.0</ele><time>2026-05-02T18:13:51.703Z</time></trkpt><trkpt lat="39.9677495" lon="16.2867352"><ele>841.0</ele><time>2026-05-02T18:13:52.703Z</time></trkpt><trkpt lat="39.9677703" lon="16.2868656"><ele>841.0</ele><time>2026-05-02T18:13:53.696Z</time></trkpt><trkpt lat="39.9677963" lon="16.2869969"><ele>841.0</ele><time>2026-05-02T18:13:54.699Z</time></trkpt><trkpt lat="39.9678046" lon="16.2871404"><ele>842.9999999999999</ele><time>2026-05-02T18:13:55.674Z</time></trkpt><trkpt lat="39.9678049" lon="16.2872627"><ele>845.0</ele><time>2026-05-02T18:13:56.686Z</time></trkpt><trkpt lat="39.967806" lon="16.2873625"><ele>847.0</ele><time>2026-05-02T18:13:57.697Z</time></trkpt><trkpt lat="39.9677904" lon="16.2874542"><ele>849.0</ele><time>2026-05-02T18:13:58.689Z</time></trkpt><trkpt lat="39.9677581" lon="16.2875419"><ele>850.9999999999999</ele><time>2026-05-02T18:13:59.7Z</time></trkpt><trkpt lat="39.9676958" lon="16.2876188"><ele>853.0</ele><time>2026-05-02T18:14:00.692Z</time></trkpt><trkpt lat="39.9676166" lon="16.2876949"><ele>853.0</ele><time>2026-05-02T18:14:01.707Z</time></trkpt><trkpt lat="39.9675387" lon="16.2877742"><ele>853.0</ele><time>2026-05-02T18:14:02.703Z</time></trkpt><trkpt lat="39.9674616" lon="16.2878601"><ele>853.0</ele><time>2026-05-02T18:14:03.684Z</time></trkpt><trkpt lat="39.9673939" lon="16.2879473"><ele>853.0</ele><time>2026-05-02T18:14:04.682Z</time></trkpt><trkpt lat="39.9673372" lon="16.2880395"><ele>853.0</ele><time>2026-05-02T18:14:05.664Z</time></trkpt><trkpt lat="39.967296" lon="16.2881286"><ele>859.2</ele><time>2026-05-02T18:14:06.695Z</time></trkpt><trkpt lat="39.9672502" lon="16.2882394"><ele>865.4</ele><time>2026-05-02T18:14:08.695Z</time></trkpt><trkpt lat="39.9671677" lon="16.2882621"><ele>871.6000000000001</ele><time>2026-05-02T18:14:10.686Z</time></trkpt><trkpt lat="39.9671114" lon="16.2881677"><ele>877.8000000000001</ele><time>2026-05-02T18:14:12.678Z</time></trkpt><trkpt lat="39.9671268" lon="16.2880073"><ele>884.0</ele><time>2026-05-02T18:14:14.697Z</time></trkpt><trkpt lat="39.9671239" lon="16.2879065"><ele>884.4000000000001</ele><time>2026-05-02T18:14:15.666Z</time></trkpt><trkpt lat="39.9671097" lon="16.2878078"><ele>884.8000000000001</ele><time>2026-05-02T18:14:16.674Z</time></trkpt><trkpt lat="39.9670802" lon="16.2876728"><ele>885.1999999999999</ele><time>2026-05-02T18:14:18.704Z</time></trkpt><trkpt lat="39.9669907" lon="16.2875937"><ele>885.5999999999999</ele><time>2026-05-02T18:14:20.684Z</time></trkpt><trkpt lat="39.9668824" lon="16.2875073"><ele>886.0</ele><time>2026-05-02T18:14:22.688Z</time></trkpt><trkpt lat="39.9668439" lon="16.2874252"><ele>886.0</ele><time>2026-05-02T18:14:23.695Z</time></trkpt><trkpt lat="39.9668207" lon="16.2873074"><ele>885.9999999999999</ele><time>2026-05-02T18:14:24.692Z</time></trkpt><trkpt lat="39.9668025" lon="16.2871692"><ele>885.9999999999999</ele><time>2026-05-02T18:14:25.682Z</time></trkpt><trkpt lat="39.9667903" lon="16.2870304"><ele>886.0</ele><time>2026-05-02T18:14:26.685Z</time></trkpt><trkpt lat="39.9667813" lon="16.2868847"><ele>886.0</ele><time>2026-05-02T18:14:27.706Z</time></trkpt><trkpt lat="39.9667892" lon="16.2867451"><ele>885.75</ele><time>2026-05-02T18:14:28.694Z</time></trkpt><trkpt lat="39.9667941" lon="16.2866005"><ele>885.5</ele><time>2026-05-02T18:14:29.685Z</time></trkpt><trkpt lat="39.9667826" lon="16.2864404"><ele>885.25</ele><time>2026-05-02T18:14:30.702Z</time></trkpt><trkpt lat="39.9667706" lon="16.2862713"><ele>885.0</ele><time>2026-05-02T18:14:31.684Z</time></trkpt><trkpt lat="39.9667725" lon="16.2861004"><ele>884.4</ele><time>2026-05-02T18:14:32.693Z</time></trkpt><trkpt lat="39.9667896" lon="16.2859424"><ele>883.8</ele><time>2026-05-02T18:14:33.698Z</time></trkpt><trkpt lat="39.9667999" lon="16.2858035"><ele>883.2</ele><time>2026-05-02T18:14:34.685Z</time></trkpt><trkpt lat="39.9667958" lon="16.2856737"><ele>882.6</ele><time>2026-05-02T18:14:35.688Z</time></trkpt><trkpt lat="39.9667638" lon="16.285538"><ele>882.0</ele><time>2026-05-02T18:14:36.682Z</time></trkpt><trkpt lat="39.9667187" lon="16.2854023"><ele>889.4000000000001</ele><time>2026-05-02T18:14:37.69Z</time></trkpt><trkpt lat="39.9666842" lon="16.285269"><ele>896.8000000000001</ele><time>2026-05-02T18:14:38.692Z</time></trkpt><trkpt lat="39.9666588" lon="16.2851585"><ele>904.2</ele><time>2026-05-02T18:14:39.696Z</time></trkpt><trkpt lat="39.9666327" lon="16.2850788"><ele>911.6</ele><time>2026-05-02T18:14:40.694Z</time></trkpt><trkpt lat="39.9665799" lon="16.2849682"><ele>919.0</ele><time>2026-05-02T18:14:42.69Z</time></trkpt><trkpt lat="39.9664905" lon="16.2849844"><ele>918.9999999999999</ele><time>2026-05-02T18:14:44.695Z</time></trkpt><trkpt lat="39.9664539" lon="16.2851264"><ele>919.0</ele><time>2026-05-02T18:14:46.7Z</time></trkpt><trkpt lat="39.9664612" lon="16.2852212"><ele>919.0</ele><time>2026-05-02T18:14:47.702Z</time></trkpt><trkpt lat="39.9664695" lon="16.2853208"><ele>919.0</ele><time>2026-05-02T18:14:48.687Z</time></trkpt><trkpt lat="39.9664687" lon="16.2854269"><ele>918.9999999999999</ele><time>2026-05-02T18:14:49.693Z</time></trkpt><trkpt lat="39.9664615" lon="16.2855319"><ele>919.0</ele><time>2026-05-02T18:14:50.7Z</time></trkpt><trkpt lat="39.9664366" lon="16.2856334"><ele>919.1666666666666</ele><time>2026-05-02T18:14:51.708Z</time></trkpt><trkpt lat="39.9663954" lon="16.2857236"><ele>919.3333333333333</ele><time>2026-05-02T18:14:52.706Z</time></trkpt><trkpt lat="39.9663487" lon="16.2858131"><ele>919.5</ele><time>2026-05-02T18:14:53.709Z</time></trkpt><trkpt lat="39.9662852" lon="16.2858898"><ele>919.6666666666667</ele><time>2026-05-02T18:14:54.694Z</time></trkpt><trkpt lat="39.9662025" lon="16.2859619"><ele>919.8333333333334</ele><time>2026-05-02T18:14:55.691Z</time></trkpt><trkpt lat="39.9661155" lon="16.2860235"><ele>920.0</ele><time>2026-05-02T18:14:56.688Z</time></trkpt><trkpt lat="39.9660243" lon="16.2860669"><ele>920.0</ele><time>2026-05-02T18:14:57.674Z</time></trkpt><trkpt lat="39.9659338" lon="16.2860889"><ele>920.0</ele><time>2026-05-02T18:14:58.682Z</time></trkpt><trkpt lat="39.965835" lon="16.2860922"><ele>920.0</ele><time>2026-05-02T18:14:59.685Z</time></trkpt><trkpt lat="39.9657323" lon="16.2861079"><ele>920.0</ele><time>2026-05-02T18:15:00.71Z</time></trkpt><trkpt lat="39.9656419" lon="16.286158"><ele>920.0</ele><time>2026-05-02T18:15:01.693Z</time></trkpt><trkpt lat="39.9655669" lon="16.286233"><ele>922.8</ele><time>2026-05-02T18:15:02.691Z</time></trkpt><trkpt lat="39.9655075" lon="16.2863299"><ele>925.6</ele><time>2026-05-02T18:15:03.682Z</time></trkpt><trkpt lat="39.9654651" lon="16.2864435"><ele>928.4000000000001</ele><time>2026-05-02T18:15:04.691Z</time></trkpt><trkpt lat="39.9654379" lon="16.2865756"><ele>931.2</ele><time>2026-05-02T18:15:05.692Z</time></trkpt><trkpt lat="39.9654265" lon="16.2867294"><ele>934.0</ele><time>2026-05-02T18:15:06.694Z</time></trkpt><trkpt lat="39.9654308" lon="16.2868987"><ele>934.0</ele><time>2026-05-02T18:15:07.683Z</time></trkpt><trkpt lat="39.9654389" lon="16.2870748"><ele>934.0000000000001</ele><time>2026-05-02T18:15:08.7Z</time></trkpt><trkpt lat="39.9654431" lon="16.2872249"><ele>934.0000000000001</ele><time>2026-05-02T18:15:09.688Z</time></trkpt><trkpt lat="39.9654536" lon="16.2873383"><ele>934.0</ele><time>2026-05-02T18:15:10.695Z</time></trkpt><trkpt lat="39.9654616" lon="16.2874256"><ele>934.0</ele><time>2026-05-02T18:15:11.689Z</time></trkpt><trkpt lat="39.9654614" lon="16.287544"><ele>933.0</ele><time>2026-05-02T18:15:13.686Z</time></trkpt><trkpt lat="39.9654682" lon="16.2876388"><ele>932.0000000000001</ele><time>2026-05-02T18:15:25.67Z</time></trkpt><trkpt lat="39.9654682" lon="16.2877371"><ele>931.0000000000001</ele><time>2026-05-02T18:15:27.711Z</time></trkpt><trkpt lat="39.9654406" lon="16.2879131"><ele>930.0</ele><time>2026-05-02T18:15:29.709Z</time></trkpt><trkpt lat="39.9654066" lon="16.2880273"><ele>929.0</ele><time>2026-05-02T18:15:30.697Z</time></trkpt><trkpt lat="39.9653653" lon="16.2881441"><ele>928.6</ele><time>2026-05-02T18:15:31.683Z</time></trkpt><trkpt lat="39.9653217" lon="16.2882617"><ele>928.2</ele><time>2026-05-02T18:15:32.678Z</time></trkpt><trkpt lat="39.9652742" lon="16.2883937"><ele>927.8000000000001</ele><time>2026-05-02T18:15:33.701Z</time></trkpt><trkpt lat="39.9652285" lon="16.2885378"><ele>927.4000000000001</ele><time>2026-05-02T18:15:34.704Z</time></trkpt><trkpt lat="39.9651851" lon="16.2886667"><ele>927.0</ele><time>2026-05-02T18:15:35.691Z</time></trkpt><trkpt lat="39.9651471" lon="16.2887681"><ele>926.9999999999999</ele><time>2026-05-02T18:15:36.696Z</time></trkpt><trkpt lat="39.9651053" lon="16.288844"><ele>927.0</ele><time>2026-05-02T18:15:37.698Z</time></trkpt><trkpt lat="39.9650631" lon="16.2889056"><ele>926.9999999999999</ele><time>2026-05-02T18:15:38.687Z</time></trkpt><trkpt lat="39.9650165" lon="16.2889715"><ele>926.9999999999999</ele><time>2026-05-02T18:15:39.697Z</time></trkpt><trkpt lat="39.9649769" lon="16.2890476"><ele>927.0</ele><time>2026-05-02T18:15:40.695Z</time></trkpt><trkpt lat="39.9649478" lon="16.2891325"><ele>926.9999999999999</ele><time>2026-05-02T18:15:41.686Z</time></trkpt><trkpt lat="39.9649437" lon="16.2892238"><ele>926.9999999999999</ele><time>2026-05-02T18:15:42.687Z</time></trkpt><trkpt lat="39.9649606" lon="16.2893265"><ele>926.8</ele><time>2026-05-02T18:15:43.697Z</time></trkpt><trkpt lat="39.9649906" lon="16.289445"><ele>926.6</ele><time>2026-05-02T18:15:44.696Z</time></trkpt><trkpt lat="39.9650257" lon="16.2895751"><ele>926.3999999999999</ele><time>2026-05-02T18:15:45.664Z</time></trkpt><trkpt lat="39.9650625" lon="16.2897142"><ele>926.1999999999999</ele><time>2026-05-02T18:15:46.707Z</time></trkpt><trkpt lat="39.9650929" lon="16.2898636"><ele>926.0</ele><time>2026-05-02T18:15:47.702Z</time></trkpt><trkpt lat="39.9651198" lon="16.2900015"><ele>925.4</ele><time>2026-05-02T18:15:48.689Z</time></trkpt><trkpt lat="39.9651372" lon="16.2901147"><ele>924.8</ele><time>2026-05-02T18:15:49.692Z</time></trkpt><trkpt lat="39.9651496" lon="16.2902068"><ele>924.1999999999999</ele><time>2026-05-02T18:15:50.688Z</time></trkpt><trkpt lat="39.9651507" lon="16.2902907"><ele>923.5999999999999</ele><time>2026-05-02T18:15:51.687Z</time></trkpt><trkpt lat="39.965096" lon="16.2904519"><ele>923.0</ele><time>2026-05-02T18:15:53.703Z</time></trkpt><trkpt lat="39.965034" lon="16.2905413"><ele>927.0</ele><time>2026-05-02T18:15:54.696Z</time></trkpt><trkpt lat="39.9649447" lon="16.2906493"><ele>931.0</ele><time>2026-05-02T18:15:55.671Z</time></trkpt><trkpt lat="39.9648481" lon="16.2907646"><ele>935.0</ele><time>2026-05-02T18:15:56.708Z</time></trkpt><trkpt lat="39.9647658" lon="16.2908664"><ele>939.0</ele><time>2026-05-02T18:15:57.695Z</time></trkpt><trkpt lat="39.9646898" lon="16.290945"><ele>939.0</ele><time>2026-05-02T18:15:58.715Z</time></trkpt><trkpt lat="39.9646062" lon="16.2910025"><ele>939.0000000000001</ele><time>2026-05-02T18:15:59.691Z</time></trkpt><trkpt lat="39.9645062" lon="16.2910483"><ele>939.0000000000001</ele><time>2026-05-02T18:16:00.703Z</time></trkpt><trkpt lat="39.9643978" lon="16.2910934"><ele>939.0</ele><time>2026-05-02T18:16:01.694Z</time></trkpt><trkpt lat="39.9642781" lon="16.2911422"><ele>939.0</ele><time>2026-05-02T18:16:02.692Z</time></trkpt><trkpt lat="39.9641447" lon="16.2911988"><ele>948.3333333333333</ele><time>2026-05-02T18:16:03.714Z</time></trkpt><trkpt lat="39.963997" lon="16.2912554"><ele>957.6666666666666</ele><time>2026-05-02T18:16:04.711Z</time></trkpt><trkpt lat="39.9638449" lon="16.2913092"><ele>967.0</ele><time>2026-05-02T18:16:05.697Z</time></trkpt><trkpt lat="39.9636868" lon="16.2913704"><ele>963.3333333333333</ele><time>2026-05-02T18:16:06.7Z</time></trkpt><trkpt lat="39.9635221" lon="16.2914384"><ele>959.6666666666667</ele><time>2026-05-02T18:16:07.699Z</time></trkpt><trkpt lat="39.9633606" lon="16.2914972"><ele>956.0</ele><time>2026-05-02T18:16:08.687Z</time></trkpt><trkpt lat="39.9631999" lon="16.2915638"><ele>956.0</ele><time>2026-05-02T18:16:09.69Z</time></trkpt><trkpt lat="39.9630449" lon="16.2916337"><ele>956.0</ele><time>2026-05-02T18:16:10.676Z</time></trkpt><trkpt lat="39.9629088" lon="16.2917034"><ele>956.0</ele><time>2026-05-02T18:16:11.722Z</time></trkpt><trkpt lat="39.9627967" lon="16.2917732"><ele>956.0</ele><time>2026-05-02T18:16:12.784Z</time></trkpt><trkpt lat="39.9626955" lon="16.2918557"><ele>956.0</ele><time>2026-05-02T18:16:13.691Z</time></trkpt><trkpt lat="39.9625962" lon="16.291964"><ele>956.0</ele><time>2026-05-02T18:16:14.71Z</time></trkpt><trkpt lat="39.9625029" lon="16.2920859"><ele>956.0</ele><time>2026-05-02T18:16:15.679Z</time></trkpt><trkpt lat="39.9624077" lon="16.2922189"><ele>956.0</ele><time>2026-05-02T18:16:16.714Z</time></trkpt><trkpt lat="39.9623148" lon="16.2923566"><ele>956.75</ele><time>2026-05-02T18:16:17.699Z</time></trkpt><trkpt lat="39.9622175" lon="16.2924692"><ele>957.5</ele><time>2026-05-02T18:16:18.69Z</time></trkpt><trkpt lat="39.9621134" lon="16.2925614"><ele>958.25</ele><time>2026-05-02T18:16:19.707Z</time></trkpt><trkpt lat="39.9619926" lon="16.2926374"><ele>959.0</ele><time>2026-05-02T18:16:20.686Z</time></trkpt><trkpt lat="39.9618637" lon="16.2927318"><ele>959.0</ele><time>2026-05-02T18:16:21.701Z</time></trkpt><trkpt lat="39.9617368" lon="16.2928579"><ele>959.0</ele><time>2026-05-02T18:16:22.688Z</time></trkpt><trkpt lat="39.9616176" lon="16.2929989"><ele>959.0</ele><time>2026-05-02T18:16:23.689Z</time></trkpt><trkpt lat="39.9615137" lon="16.2931267"><ele>962.0</ele><time>2026-05-02T18:16:24.697Z</time></trkpt><trkpt lat="39.961429" lon="16.2932301"><ele>965.0</ele><time>2026-05-02T18:16:25.698Z</time></trkpt><trkpt lat="39.9613469" lon="16.293331"><ele>968.0</ele><time>2026-05-02T18:16:26.688Z</time></trkpt><trkpt lat="39.9612535" lon="16.2934404"><ele>971.0</ele><time>2026-05-02T18:16:27.688Z</time></trkpt><trkpt lat="39.9611499" lon="16.2935666"><ele>971.0</ele><time>2026-05-02T18:16:28.689Z</time></trkpt><trkpt lat="39.9610363" lon="16.2937029"><ele>971.0</ele><time>2026-05-02T18:16:29.707Z</time></trkpt><trkpt lat="39.9609133" lon="16.2938431"><ele>971.0</ele><time>2026-05-02T18:16:30.696Z</time></trkpt><trkpt lat="39.9608117" lon="16.2939741"><ele>972.4</ele><time>2026-05-02T18:16:31.703Z</time></trkpt><trkpt lat="39.9607299" lon="16.2940879"><ele>973.8</ele><time>2026-05-02T18:16:32.688Z</time></trkpt><trkpt lat="39.9606655" lon="16.2941872"><ele>975.1999999999999</ele><time>2026-05-02T18:16:33.688Z</time></trkpt><trkpt lat="39.9606212" lon="16.294287"><ele>976.5999999999999</ele><time>2026-05-02T18:16:34.707Z</time></trkpt><trkpt lat="39.960585" lon="16.2944043"><ele>978.0</ele><time>2026-05-02T18:16:35.7Z</time></trkpt><trkpt lat="39.9605505" lon="16.2945511"><ele>978.0</ele><time>2026-05-02T18:16:36.696Z</time></trkpt><trkpt lat="39.9605209" lon="16.294714"><ele>978.0</ele><time>2026-05-02T18:16:37.702Z</time></trkpt><trkpt lat="39.9604971" lon="16.2948768"><ele>978.0</ele><time>2026-05-02T18:16:38.699Z</time></trkpt><trkpt lat="39.9604675" lon="16.2950347"><ele>978.0</ele><time>2026-05-02T18:16:39.692Z</time></trkpt><trkpt lat="39.9604349" lon="16.2951813"><ele>976.4</ele><time>2026-05-02T18:16:40.7Z</time></trkpt><trkpt lat="39.9604072" lon="16.2953177"><ele>974.8</ele><time>2026-05-02T18:16:41.699Z</time></trkpt><trkpt lat="39.9603944" lon="16.2954473"><ele>973.2</ele><time>2026-05-02T18:16:42.678Z</time></trkpt><trkpt lat="39.9604072" lon="16.2955742"><ele>971.6</ele><time>2026-05-02T18:16:43.691Z</time></trkpt><trkpt lat="39.9604375" lon="16.2956885"><ele>970.0</ele><time>2026-05-02T18:16:44.695Z</time></trkpt><trkpt lat="39.9604703" lon="16.295767"><ele>969.6</ele><time>2026-05-02T18:16:45.707Z</time></trkpt><trkpt lat="39.9604637" lon="16.2959197"><ele>969.2</ele><time>2026-05-02T18:16:47.687Z</time></trkpt><trkpt lat="39.960424" lon="16.2960064"><ele>968.8</ele><time>2026-05-02T18:16:48.708Z</time></trkpt><trkpt lat="39.9603605" lon="16.2960975"><ele>968.4</ele><time>2026-05-02T18:16:49.697Z</time></trkpt><trkpt lat="39.9602851" lon="16.2962139"><ele>968.0</ele><time>2026-05-02T18:16:50.697Z</time></trkpt><trkpt lat="39.9602076" lon="16.2963578"><ele>967.25</ele><time>2026-05-02T18:16:51.706Z</time></trkpt><trkpt lat="39.9601303" lon="16.2965142"><ele>966.5</ele><time>2026-05-02T18:16:52.693Z</time></trkpt><trkpt lat="39.9600681" lon="16.2966932"><ele>965.75</ele><time>2026-05-02T18:16:53.678Z</time></trkpt><trkpt lat="39.9600288" lon="16.2968658"><ele>965.0</ele><time>2026-05-02T18:16:54.663Z</time></trkpt><trkpt lat="39.95999" lon="16.2969959"><ele>967.3333333333334</ele><time>2026-05-02T18:16:55.674Z</time></trkpt><trkpt lat="39.9599352" lon="16.2970918"><ele>969.6666666666667</ele><time>2026-05-02T18:16:56.689Z</time></trkpt><trkpt lat="39.9598701" lon="16.2971536"><ele>972.0</ele><time>2026-05-02T18:16:57.7Z</time></trkpt><trkpt lat="39.9597932" lon="16.2971729"><ele>974.3333333333333</ele><time>2026-05-02T18:16:58.7Z</time></trkpt><trkpt lat="39.9597066" lon="16.2971921"><ele>976.6666666666666</ele><time>2026-05-02T18:16:59.706Z</time></trkpt><trkpt lat="39.9596191" lon="16.2971758"><ele>979.0</ele><time>2026-05-02T18:17:00.681Z</time></trkpt><trkpt lat="39.9595207" lon="16.2972058"><ele>979.0</ele><time>2026-05-02T18:17:01.704Z</time></trkpt><trkpt lat="39.9594414" lon="16.2972403"><ele>979.0000000000001</ele><time>2026-05-02T18:17:02.696Z</time></trkpt><trkpt lat="39.9593294" lon="16.2973232"><ele>979.0000000000001</ele><time>2026-05-02T18:17:04.683Z</time></trkpt><trkpt lat="39.9592438" lon="16.2973916"><ele>979.0</ele><time>2026-05-02T18:17:05.688Z</time></trkpt><trkpt lat="39.9591455" lon="16.2974588"><ele>979.0</ele><time>2026-05-02T18:17:06.707Z</time></trkpt><trkpt lat="39.9590323" lon="16.297525"><ele>982.5</ele><time>2026-05-02T18:17:07.693Z</time></trkpt><trkpt lat="39.9589041" lon="16.2975789"><ele>986.0</ele><time>2026-05-02T18:17:08.708Z</time></trkpt><trkpt lat="39.9587704" lon="16.2976294"><ele>989.5</ele><time>2026-05-02T18:17:09.715Z</time></trkpt><trkpt lat="39.9586403" lon="16.2976815"><ele>993.0</ele><time>2026-05-02T18:17:10.704Z</time></trkpt><trkpt lat="39.9585186" lon="16.2977248"><ele>993.0</ele><time>2026-05-02T18:17:11.685Z</time></trkpt><trkpt lat="39.9584096" lon="16.2977639"><ele>993.0</ele><time>2026-05-02T18:17:12.701Z</time></trkpt><trkpt lat="39.9583152" lon="16.2978027"><ele>993.0</ele><time>2026-05-02T18:17:13.689Z</time></trkpt><trkpt lat="39.958237" lon="16.2978273"><ele>993.0</ele><time>2026-05-02T18:17:14.684Z</time></trkpt><trkpt lat="39.9581712" lon="16.2978337"><ele>993.0</ele><time>2026-05-02T18:17:15.674Z</time></trkpt><trkpt lat="39.9580694" lon="16.2977775"><ele>993.1666666666666</ele><time>2026-05-02T18:17:17.688Z</time></trkpt><trkpt lat="39.9580251" lon="16.2977044"><ele>993.3333333333333</ele><time>2026-05-02T18:17:18.693Z</time></trkpt><trkpt lat="39.957994" lon="16.2976056"><ele>993.5</ele><time>2026-05-02T18:17:19.701Z</time></trkpt><trkpt lat="39.9579624" lon="16.2974997"><ele>993.6666666666666</ele><time>2026-05-02T18:17:20.697Z</time></trkpt><trkpt lat="39.9579203" lon="16.2974087"><ele>993.8333333333333</ele><time>2026-05-02T18:17:21.692Z</time></trkpt><trkpt lat="39.9578575" lon="16.2973341"><ele>994.0</ele><time>2026-05-02T18:17:22.699Z</time></trkpt><trkpt lat="39.9577812" lon="16.2972904"><ele>994.0</ele><time>2026-05-02T18:17:23.679Z</time></trkpt><trkpt lat="39.9576847" lon="16.2972611"><ele>994.0000000000001</ele><time>2026-05-02T18:17:24.688Z</time></trkpt><trkpt lat="39.9575801" lon="16.2972461"><ele>994.0000000000001</ele><time>2026-05-02T18:17:25.698Z</time></trkpt><trkpt lat="39.957478" lon="16.2972353"><ele>994.0</ele><time>2026-05-02T18:17:26.687Z</time></trkpt><trkpt lat="39.9573946" lon="16.2972294"><ele>994.0</ele><time>2026-05-02T18:17:27.694Z</time></trkpt><trkpt lat="39.9573192" lon="16.2972205"><ele>995.6</ele><time>2026-05-02T18:17:28.703Z</time></trkpt><trkpt lat="39.9572414" lon="16.2971948"><ele>997.2</ele><time>2026-05-02T18:17:29.697Z</time></trkpt><trkpt lat="39.9571622" lon="16.2971379"><ele>998.8000000000001</ele><time>2026-05-02T18:17:30.703Z</time></trkpt><trkpt lat="39.9570855" lon="16.2970629"><ele>1000.4000000000001</ele><time>2026-05-02T18:17:31.702Z</time></trkpt><trkpt lat="39.9570152" lon="16.2969613"><ele>1002.0</ele><time>2026-05-02T18:17:32.707Z</time></trkpt><trkpt lat="39.9569446" lon="16.2968597"><ele>1002.0</ele><time>2026-05-02T18:17:33.7Z</time></trkpt><trkpt lat="39.9568839" lon="16.2967713"><ele>1002.0</ele><time>2026-05-02T18:17:34.691Z</time></trkpt><trkpt lat="39.9568428" lon="16.2966797"><ele>1002.0</ele><time>2026-05-02T18:17:35.694Z</time></trkpt><trkpt lat="39.9568134" lon="16.2965798"><ele>1002.0</ele><time>2026-05-02T18:17:36.693Z</time></trkpt><trkpt lat="39.9567935" lon="16.2964727"><ele>1002.0</ele><time>2026-05-02T18:17:37.698Z</time></trkpt><trkpt lat="39.9567942" lon="16.2963662"><ele>1002.0</ele><time>2026-05-02T18:17:38.688Z</time></trkpt><trkpt lat="39.9568176" lon="16.2962583"><ele>1005.6</ele><time>2026-05-02T18:17:39.692Z</time></trkpt><trkpt lat="39.9568471" lon="16.2961447"><ele>1009.2</ele><time>2026-05-02T18:17:40.685Z</time></trkpt><trkpt lat="39.9568918" lon="16.2960406"><ele>1012.8</ele><time>2026-05-02T18:17:41.696Z</time></trkpt><trkpt lat="39.9569458" lon="16.2959672"><ele>1016.4</ele><time>2026-05-02T18:17:42.698Z</time></trkpt><trkpt lat="39.9570356" lon="16.2959424"><ele>1020.0</ele><time>2026-05-02T18:17:44.707Z</time></trkpt><trkpt lat="39.957135" lon="16.2959631"><ele>1020.0</ele><time>2026-05-02T18:17:46.7Z</time></trkpt><trkpt lat="39.9572329" lon="16.2959376"><ele>1020.0</ele><time>2026-05-02T18:17:48.711Z</time></trkpt><trkpt lat="39.9572812" lon="16.2958349"><ele>1020.0</ele><time>2026-05-02T18:17:50.696Z</time></trkpt><trkpt lat="39.9572909" lon="16.2957533"><ele>1020.0</ele><time>2026-05-02T18:17:51.705Z</time></trkpt><trkpt lat="39.957309" lon="16.2956587"><ele>1020.0</ele><time>2026-05-02T18:17:52.686Z</time></trkpt><trkpt lat="39.9573434" lon="16.2955661"><ele>1020.0</ele><time>2026-05-02T18:17:53.682Z</time></trkpt><trkpt lat="39.9573886" lon="16.2954874"><ele>1022.3333333333334</ele><time>2026-05-02T18:17:54.692Z</time></trkpt><trkpt lat="39.9574476" lon="16.2954305"><ele>1024.6666666666667</ele><time>2026-05-02T18:17:55.698Z</time></trkpt><trkpt lat="39.9575165" lon="16.2953861"><ele>1027.0</ele><time>2026-05-02T18:17:56.697Z</time></trkpt><trkpt lat="39.9575915" lon="16.295345"><ele>1029.3333333333335</ele><time>2026-05-02T18:17:57.69Z</time></trkpt><trkpt lat="39.9576623" lon="16.2952852"><ele>1031.6666666666667</ele><time>2026-05-02T18:17:58.697Z</time></trkpt><trkpt lat="39.9577262" lon="16.2952134"><ele>1034.0</ele><time>2026-05-02T18:17:59.682Z</time></trkpt><trkpt lat="39.9578003" lon="16.2951559"><ele>1034.0</ele><time>2026-05-02T18:18:00.683Z</time></trkpt><trkpt lat="39.9578848" lon="16.2951164"><ele>1034.0</ele><time>2026-05-02T18:18:01.696Z</time></trkpt><trkpt lat="39.9579821" lon="16.2950973"><ele>1034.0</ele><time>2026-05-02T18:18:02.698Z</time></trkpt><trkpt lat="39.9580829" lon="16.2950874"><ele>1034.0</ele><time>2026-05-02T18:18:03.692Z</time></trkpt><trkpt lat="39.9581731" lon="16.29508"><ele>1034.0</ele><time>2026-05-02T18:18:04.694Z</time></trkpt><trkpt lat="39.9582516" lon="16.2950627"><ele>1034.0</ele><time>2026-05-02T18:18:05.668Z</time></trkpt><trkpt lat="39.9583293" lon="16.2950177"><ele>1034.0</ele><time>2026-05-02T18:18:06.702Z</time></trkpt><trkpt lat="39.9583949" lon="16.2949528"><ele>1034.0</ele><time>2026-05-02T18:18:07.678Z</time></trkpt><trkpt lat="39.9584394" lon="16.294882"><ele>1034.0</ele><time>2026-05-02T18:18:08.702Z</time></trkpt><trkpt lat="39.9584536" lon="16.2947292"><ele>1034.0</ele><time>2026-05-02T18:18:10.705Z</time></trkpt><trkpt lat="39.9584129" lon="16.2946619"><ele>1034.0</ele><time>2026-05-02T18:18:11.704Z</time></trkpt><trkpt lat="39.9583525" lon="16.2946072"><ele>1035.6000000000001</ele><time>2026-05-02T18:18:12.691Z</time></trkpt><trkpt lat="39.9582701" lon="16.2945812"><ele>1037.2</ele><time>2026-05-02T18:18:13.691Z</time></trkpt><trkpt lat="39.9581778" lon="16.2945659"><ele>1038.8000000000002</ele><time>2026-05-02T18:18:14.699Z</time></trkpt><trkpt lat="39.9580795" lon="16.2945325"><ele>1040.4</ele><time>2026-05-02T18:18:15.695Z</time></trkpt><trkpt lat="39.9579748" lon="16.2944819"><ele>1042.0</ele><time>2026-05-02T18:18:16.702Z</time></trkpt><trkpt lat="39.9578633" lon="16.2944157"><ele>1042.0</ele><time>2026-05-02T18:18:17.683Z</time></trkpt><trkpt lat="39.9577493" lon="16.2943461"><ele>1042.0</ele><time>2026-05-02T18:18:18.676Z</time></trkpt><trkpt lat="39.9576315" lon="16.2942542"><ele>1042.0</ele><time>2026-05-02T18:18:19.696Z</time></trkpt><trkpt lat="39.9575164" lon="16.2941558"><ele>1042.0</ele><time>2026-05-02T18:18:20.705Z</time></trkpt><trkpt lat="39.9574089" lon="16.2940509"><ele>1044.0</ele><time>2026-05-02T18:18:21.68Z</time></trkpt><trkpt lat="39.9573122" lon="16.2939582"><ele>1046.0</ele><time>2026-05-02T18:18:22.71Z</time></trkpt><trkpt lat="39.9572453" lon="16.2938873"><ele>1048.0</ele><time>2026-05-02T18:18:23.695Z</time></trkpt><trkpt lat="39.9571939" lon="16.2938158"><ele>1050.0</ele><time>2026-05-02T18:18:24.694Z</time></trkpt><trkpt lat="39.9571597" lon="16.2937324"><ele>1052.0</ele><time>2026-05-02T18:18:25.709Z</time></trkpt><trkpt lat="39.9571361" lon="16.2936423"><ele>1054.0</ele><time>2026-05-02T18:18:26.707Z</time></trkpt><trkpt lat="39.9571293" lon="16.2935328"><ele>1055.0</ele><time>2026-05-02T18:18:27.708Z</time></trkpt><trkpt lat="39.9571331" lon="16.2933961"><ele>1056.0</ele><time>2026-05-02T18:18:28.69Z</time></trkpt><trkpt lat="39.9571396" lon="16.2932507"><ele>1057.0</ele><time>2026-05-02T18:18:29.708Z</time></trkpt><trkpt lat="39.9571432" lon="16.2931321"><ele>1058.0</ele><time>2026-05-02T18:18:30.711Z</time></trkpt><trkpt lat="39.9571454" lon="16.2930331"><ele>1059.0</ele><time>2026-05-02T18:18:31.705Z</time></trkpt><trkpt lat="39.9571416" lon="16.2929206"><ele>1061.4</ele><time>2026-05-02T18:18:32.72Z</time></trkpt><trkpt lat="39.9571298" lon="16.2928025"><ele>1063.8000000000002</ele><time>2026-05-02T18:18:33.691Z</time></trkpt><trkpt lat="39.9570861" lon="16.2926818"><ele>1066.1999999999998</ele><time>2026-05-02T18:18:34.674Z</time></trkpt><trkpt lat="39.9570377" lon="16.2925549"><ele>1068.6</ele><time>2026-05-02T18:18:35.687Z</time></trkpt><trkpt lat="39.9569783" lon="16.2924219"><ele>1071.0</ele><time>2026-05-02T18:18:36.7Z</time></trkpt><trkpt lat="39.9569244" lon="16.2922931"><ele>1075.6</ele><time>2026-05-02T18:18:37.71Z</time></trkpt><trkpt lat="39.9568727" lon="16.2921727"><ele>1080.1999999999998</ele><time>2026-05-02T18:18:38.715Z</time></trkpt><trkpt lat="39.9568343" lon="16.2920424"><ele>1084.8000000000002</ele><time>2026-05-02T18:18:39.705Z</time></trkpt><trkpt lat="39.9568066" lon="16.2919093"><ele>1089.4</ele><time>2026-05-02T18:18:40.689Z</time></trkpt><trkpt lat="39.9567835" lon="16.2917747"><ele>1094.0</ele><time>2026-05-02T18:18:41.706Z</time></trkpt><trkpt lat="39.9567578" lon="16.291656"><ele>1094.0</ele><time>2026-05-02T18:18:42.693Z</time></trkpt><trkpt lat="39.956716" lon="16.291562"><ele>1094.0</ele><time>2026-05-02T18:18:43.699Z</time></trkpt><trkpt lat="39.9566492" lon="16.29148"><ele>1094.0</ele><time>2026-05-02T18:18:44.688Z</time></trkpt><trkpt lat="39.9565784" lon="16.2913987"><ele>1094.0</ele><time>2026-05-02T18:18:45.705Z</time></trkpt><trkpt lat="39.9565178" lon="16.2913267"><ele>1094.0</ele><time>2026-05-02T18:18:46.708Z</time></trkpt><trkpt lat="39.9564649" lon="16.2912587"><ele>1094.0</ele><time>2026-05-02T18:18:47.709Z</time></trkpt><trkpt lat="39.9564094" lon="16.2911714"><ele>1097.4</ele><time>2026-05-02T18:18:48.691Z</time></trkpt><trkpt lat="39.956353" lon="16.291071"><ele>1100.8000000000002</ele><time>2026-05-02T18:18:49.682Z</time></trkpt><trkpt lat="39.9562913" lon="16.290962"><ele>1104.1999999999998</ele><time>2026-05-02T18:18:50.69Z</time></trkpt><trkpt lat="39.9562353" lon="16.2908506"><ele>1107.6</ele><time>2026-05-02T18:18:51.716Z</time></trkpt><trkpt lat="39.9561733" lon="16.2907422"><ele>1111.0</ele><time>2026-05-02T18:18:52.702Z</time></trkpt><trkpt lat="39.9561116" lon="16.2906207"><ele>1109.6</ele><time>2026-05-02T18:18:53.69Z</time></trkpt><trkpt lat="39.9560486" lon="16.2904918"><ele>1108.1999999999998</ele><time>2026-05-02T18:18:54.69Z</time></trkpt><trkpt lat="39.955988" lon="16.290364"><ele>1106.8000000000002</ele><time>2026-05-02T18:18:55.693Z</time></trkpt><trkpt lat="39.9559257" lon="16.2902468"><ele>1105.4</ele><time>2026-05-02T18:18:56.673Z</time></trkpt><trkpt lat="39.9558827" lon="16.2901503"><ele>1104.0</ele><time>2026-05-02T18:18:57.694Z</time></trkpt><trkpt lat="39.9558557" lon="16.2900582"><ele>1104.0</ele><time>2026-05-02T18:18:58.694Z</time></trkpt><trkpt lat="39.9558386" lon="16.2899574"><ele>1104.0</ele><time>2026-05-02T18:18:59.685Z</time></trkpt><trkpt lat="39.955828" lon="16.2898444"><ele>1104.0</ele><time>2026-05-02T18:19:00.691Z</time></trkpt><trkpt lat="39.9558112" lon="16.2897315"><ele>1104.0</ele><time>2026-05-02T18:19:01.691Z</time></trkpt><trkpt lat="39.9557744" lon="16.2896213"><ele>1104.0</ele><time>2026-05-02T18:19:02.697Z</time></trkpt><trkpt lat="39.9557224" lon="16.2895148"><ele>1104.0</ele><time>2026-05-02T18:19:03.698Z</time></trkpt><trkpt lat="39.9556542" lon="16.2894245"><ele>1109.0</ele><time>2026-05-02T18:19:04.69Z</time></trkpt><trkpt lat="39.955592" lon="16.2893467"><ele>1114.0</ele><time>2026-05-02T18:19:05.695Z</time></trkpt><trkpt lat="39.9555522" lon="16.2892688"><ele>1119.0</ele><time>2026-05-02T18:19:06.687Z</time></trkpt><trkpt lat="39.9555175" lon="16.2891784"><ele>1124.0</ele><time>2026-05-02T18:19:07.687Z</time></trkpt><trkpt lat="39.9554778" lon="16.2890802"><ele>1129.0</ele><time>2026-05-02T18:19:08.691Z</time></trkpt><trkpt lat="39.9554315" lon="16.2889761"><ele>1134.0</ele><time>2026-05-02T18:19:09.702Z</time></trkpt><trkpt lat="39.9553875" lon="16.2888797"><ele>1136.5</ele><time>2026-05-02T18:19:10.692Z</time></trkpt><trkpt lat="39.9553463" lon="16.2887943"><ele>1139.0</ele><time>2026-05-02T18:19:11.68Z</time></trkpt><trkpt lat="39.9552998" lon="16.2887043"><ele>1141.5</ele><time>2026-05-02T18:19:12.689Z</time></trkpt><trkpt lat="39.9552481" lon="16.2886101"><ele>1144.0</ele><time>2026-05-02T18:19:13.705Z</time></trkpt><trkpt lat="39.9552062" lon="16.2885258"><ele>1146.5</ele><time>2026-05-02T18:19:14.692Z</time></trkpt><trkpt lat="39.9551188" lon="16.2884247"><ele>1149.0</ele><time>2026-05-02T18:19:16.7Z</time></trkpt><trkpt lat="39.9550474" lon="16.2883816"><ele>1143.5</ele><time>2026-05-02T18:19:17.7Z</time></trkpt><trkpt lat="39.9549597" lon="16.2883357"><ele>1138.0</ele><time>2026-05-02T18:19:18.692Z</time></trkpt><trkpt lat="39.9548746" lon="16.2882661"><ele>1132.5</ele><time>2026-05-02T18:19:19.672Z</time></trkpt><trkpt lat="39.9548016" lon="16.2881942"><ele>1127.0</ele><time>2026-05-02T18:19:20.698Z</time></trkpt><trkpt lat="39.9547391" lon="16.2881421"><ele>1121.5</ele><time>2026-05-02T18:19:21.696Z</time></trkpt><trkpt lat="39.9546776" lon="16.2881188"><ele>1116.0</ele><time>2026-05-02T18:19:22.689Z</time></trkpt><trkpt lat="39.9546122" lon="16.2881268"><ele>1116.0</ele><time>2026-05-02T18:19:23.711Z</time></trkpt><trkpt lat="39.9545118" lon="16.2882339"><ele>1116.0</ele><time>2026-05-02T18:19:25.709Z</time></trkpt><trkpt lat="39.9544914" lon="16.2883384"><ele>1116.0</ele><time>2026-05-02T18:19:26.685Z</time></trkpt><trkpt lat="39.9544755" lon="16.2884534"><ele>1116.0</ele><time>2026-05-02T18:19:27.691Z</time></trkpt><trkpt lat="39.9544895" lon="16.2885544"><ele>1116.0</ele><time>2026-05-02T18:19:28.693Z</time></trkpt><trkpt lat="39.9544446" lon="16.2886616"><ele>1116.0</ele><time>2026-05-02T18:19:29.7Z</time></trkpt><trkpt lat="39.9543956" lon="16.2887745"><ele>1116.0</ele><time>2026-05-02T18:19:30.702Z</time></trkpt><trkpt lat="39.9543387" lon="16.288889"><ele>1116.0</ele><time>2026-05-02T18:19:31.697Z</time></trkpt><trkpt lat="39.9542955" lon="16.2889904"><ele>1116.0</ele><time>2026-05-02T18:19:32.696Z</time></trkpt><trkpt lat="39.9542665" lon="16.2890663"><ele>1116.0</ele><time>2026-05-02T18:19:33.696Z</time></trkpt><trkpt lat="39.9541813" lon="16.2891746"><ele>1115.3999999999999</ele><time>2026-05-02T18:19:35.695Z</time></trkpt><trkpt lat="39.9541198" lon="16.2892009"><ele>1114.8</ele><time>2026-05-02T18:19:36.701Z</time></trkpt><trkpt lat="39.953979" lon="16.2891724"><ele>1114.1999999999998</ele><time>2026-05-02T18:19:38.708Z</time></trkpt><trkpt lat="39.9538777" lon="16.2891496"><ele>1113.6</ele><time>2026-05-02T18:19:39.688Z</time></trkpt><trkpt lat="39.9537764" lon="16.2891377"><ele>1113.0</ele><time>2026-05-02T18:19:40.705Z</time></trkpt><trkpt lat="39.9536802" lon="16.2891315"><ele>1113.0</ele><time>2026-05-02T18:19:41.694Z</time></trkpt><trkpt lat="39.9535839" lon="16.2891313"><ele>1113.0</ele><time>2026-05-02T18:19:42.666Z</time></trkpt><trkpt lat="39.9534694" lon="16.2891149"><ele>1113.0</ele><time>2026-05-02T18:19:43.717Z</time></trkpt><trkpt lat="39.9533557" lon="16.2890962"><ele>1113.0</ele><time>2026-05-02T18:19:44.702Z</time></trkpt><trkpt lat="39.9532629" lon="16.2890755"><ele>1113.0</ele><time>2026-05-02T18:19:45.69Z</time></trkpt><trkpt lat="39.9531863" lon="16.2890707"><ele>1114.0</ele><time>2026-05-02T18:19:46.686Z</time></trkpt><trkpt lat="39.9531123" lon="16.2890715"><ele>1115.0</ele><time>2026-05-02T18:19:47.72Z</time></trkpt><trkpt lat="39.9530372" lon="16.2890964"><ele>1116.0</ele><time>2026-05-02T18:19:48.703Z</time></trkpt><trkpt lat="39.9529571" lon="16.2891498"><ele>1117.0</ele><time>2026-05-02T18:19:49.691Z</time></trkpt><trkpt lat="39.9528826" lon="16.2892214"><ele>1118.0</ele><time>2026-05-02T18:19:50.726Z</time></trkpt><trkpt lat="39.9528272" lon="16.2892894"><ele>1119.0</ele><time>2026-05-02T18:19:51.694Z</time></trkpt><trkpt lat="39.9527338" lon="16.289381"><ele>1119.0</ele><time>2026-05-02T18:19:53.69Z</time></trkpt><trkpt lat="39.9526617" lon="16.2893985"><ele>1119.0</ele><time>2026-05-02T18:19:55.688Z</time></trkpt><trkpt lat="39.9525948" lon="16.2893744"><ele>1119.0</ele><time>2026-05-02T18:19:57.691Z</time></trkpt><trkpt lat="39.9525329" lon="16.2892588"><ele>1119.0</ele><time>2026-05-02T18:19:59.685Z</time></trkpt><trkpt lat="39.9525092" lon="16.2891801"><ele>1119.0</ele><time>2026-05-02T18:20:00.69Z</time></trkpt><trkpt lat="39.9524879" lon="16.2891002"><ele>1119.0</ele><time>2026-05-02T18:20:01.705Z</time></trkpt><trkpt lat="39.9524695" lon="16.289008"><ele>1123.5</ele><time>2026-05-02T18:20:02.681Z</time></trkpt><trkpt lat="39.9524458" lon="16.2889151"><ele>1128.0</ele><time>2026-05-02T18:20:03.696Z</time></trkpt><trkpt lat="39.9524221" lon="16.288825"><ele>1132.5</ele><time>2026-05-02T18:20:04.704Z</time></trkpt><trkpt lat="39.9523966" lon="16.2887372"><ele>1137.0</ele><time>2026-05-02T18:20:05.688Z</time></trkpt><trkpt lat="39.9523537" lon="16.2886461"><ele>1141.5</ele><time>2026-05-02T18:20:06.69Z</time></trkpt><trkpt lat="39.9522905" lon="16.2885532"><ele>1146.0</ele><time>2026-05-02T18:20:07.693Z</time></trkpt><trkpt lat="39.9522144" lon="16.2884599"><ele>1146.0</ele><time>2026-05-02T18:20:08.696Z</time></trkpt><trkpt lat="39.9521322" lon="16.2883645"><ele>1146.0</ele><time>2026-05-02T18:20:09.7Z</time></trkpt><trkpt lat="39.9520531" lon="16.2882617"><ele>1146.0</ele><time>2026-05-02T18:20:10.702Z</time></trkpt><trkpt lat="39.9519911" lon="16.2881568"><ele>1146.0</ele><time>2026-05-02T18:20:11.702Z</time></trkpt><trkpt lat="39.9519468" lon="16.2880615"><ele>1146.0</ele><time>2026-05-02T18:20:12.698Z</time></trkpt><trkpt lat="39.951909" lon="16.2879778"><ele>1147.0</ele><time>2026-05-02T18:20:13.694Z</time></trkpt><trkpt lat="39.95186" lon="16.2879007"><ele>1148.0</ele><time>2026-05-02T18:20:14.688Z</time></trkpt><trkpt lat="39.9518065" lon="16.2878492"><ele>1149.0</ele><time>2026-05-02T18:20:15.685Z</time></trkpt><trkpt lat="39.9516808" lon="16.2878103"><ele>1150.0</ele><time>2026-05-02T18:20:17.69Z</time></trkpt><trkpt lat="39.9516118" lon="16.2878105"><ele>1151.0</ele><time>2026-05-02T18:20:18.697Z</time></trkpt><trkpt lat="39.9515407" lon="16.2878328"><ele>1152.0</ele><time>2026-05-02T18:20:19.702Z</time></trkpt><trkpt lat="39.9514528" lon="16.2878488"><ele>1152.0</ele><time>2026-05-02T18:20:20.702Z</time></trkpt><trkpt lat="39.9513648" lon="16.2878484"><ele>1152.0</ele><time>2026-05-02T18:20:21.696Z</time></trkpt><trkpt lat="39.9512839" lon="16.2878341"><ele>1152.0</ele><time>2026-05-02T18:20:22.707Z</time></trkpt><trkpt lat="39.9512182" lon="16.2878036"><ele>1152.0</ele><time>2026-05-02T18:20:23.702Z</time></trkpt><trkpt lat="39.9511675" lon="16.287753"><ele>1152.0</ele><time>2026-05-02T18:20:24.702Z</time></trkpt><trkpt lat="39.9510991" lon="16.2876222"><ele>1152.0</ele><time>2026-05-02T18:20:26.693Z</time></trkpt><trkpt lat="39.9510752" lon="16.2875345"><ele>1152.0</ele><time>2026-05-02T18:20:27.682Z</time></trkpt><trkpt lat="39.9510522" lon="16.2874476"><ele>1152.0</ele><time>2026-05-02T18:20:28.7Z</time></trkpt><trkpt lat="39.9510331" lon="16.2873614"><ele>1152.0</ele><time>2026-05-02T18:20:29.686Z</time></trkpt><trkpt lat="39.9510165" lon="16.2872718"><ele>1152.0</ele><time>2026-05-02T18:20:30.696Z</time></trkpt><trkpt lat="39.9509704" lon="16.2871568"><ele>1152.0</ele><time>2026-05-02T18:20:32.704Z</time></trkpt><trkpt lat="39.9508803" lon="16.2870382"><ele>1152.0</ele><time>2026-05-02T18:20:34.698Z</time></trkpt><trkpt lat="39.9508177" lon="16.2869775"><ele>1151.3333333333333</ele><time>2026-05-02T18:20:35.701Z</time></trkpt><trkpt lat="39.9507562" lon="16.2869329"><ele>1150.6666666666667</ele><time>2026-05-02T18:20:36.703Z</time></trkpt><trkpt lat="39.9506966" lon="16.2868956"><ele>1150.0</ele><time>2026-05-02T18:20:37.701Z</time></trkpt><trkpt lat="39.9506065" lon="16.2868772"><ele>1149.3333333333335</ele><time>2026-05-02T18:20:38.691Z</time></trkpt><trkpt lat="39.9505065" lon="16.2868641"><ele>1148.6666666666667</ele><time>2026-05-02T18:20:39.694Z</time></trkpt><trkpt lat="39.9504086" lon="16.2868451"><ele>1148.0</ele><time>2026-05-02T18:20:40.698Z</time></trkpt><trkpt lat="39.9503143" lon="16.2868107"><ele>1148.0</ele><time>2026-05-02T18:20:41.7Z</time></trkpt><trkpt lat="39.9502314" lon="16.2867839"><ele>1148.0</ele><time>2026-05-02T18:20:42.697Z</time></trkpt><trkpt lat="39.950154" lon="16.2867555"><ele>1148.0</ele><time>2026-05-02T18:20:43.697Z</time></trkpt><trkpt lat="39.9500787" lon="16.286716"><ele>1148.0</ele><time>2026-05-02T18:20:44.706Z</time></trkpt><trkpt lat="39.9500121" lon="16.2866679"><ele>1148.0</ele><time>2026-05-02T18:20:45.701Z</time></trkpt><trkpt lat="39.9499444" lon="16.2866039"><ele>1148.0</ele><time>2026-05-02T18:20:46.707Z</time></trkpt><trkpt lat="39.949872" lon="16.2865269"><ele>1148.2</ele><time>2026-05-02T18:20:47.708Z</time></trkpt><trkpt lat="39.9498047" lon="16.2864396"><ele>1148.4</ele><time>2026-05-02T18:20:48.682Z</time></trkpt><trkpt lat="39.9497373" lon="16.2863757"><ele>1148.6000000000001</ele><time>2026-05-02T18:20:49.693Z</time></trkpt><trkpt lat="39.9496482" lon="16.2863409"><ele>1148.8</ele><time>2026-05-02T18:20:50.682Z</time></trkpt><trkpt lat="39.9495485" lon="16.2863258"><ele>1149.0</ele><time>2026-05-02T18:20:51.696Z</time></trkpt><trkpt lat="39.9494597" lon="16.2863095"><ele>1150.1666666666667</ele><time>2026-05-02T18:20:52.707Z</time></trkpt><trkpt lat="39.949381" lon="16.2863135"><ele>1151.3333333333333</ele><time>2026-05-02T18:20:53.695Z</time></trkpt><trkpt lat="39.9493013" lon="16.2863417"><ele>1152.5</ele><time>2026-05-02T18:20:54.712Z</time></trkpt><trkpt lat="39.9492219" lon="16.2863922"><ele>1153.6666666666665</ele><time>2026-05-02T18:20:55.702Z</time></trkpt><trkpt lat="39.949147" lon="16.2864666"><ele>1154.8333333333333</ele><time>2026-05-02T18:20:56.705Z</time></trkpt><trkpt lat="39.9490712" lon="16.2865415"><ele>1156.0</ele><time>2026-05-02T18:20:57.689Z</time></trkpt><trkpt lat="39.9490181" lon="16.2866119"><ele>1156.0</ele><time>2026-05-02T18:20:58.714Z</time></trkpt><trkpt lat="39.9489819" lon="16.2866883"><ele>1156.0</ele><time>2026-05-02T18:20:59.677Z</time></trkpt><trkpt lat="39.9489639" lon="16.286767"><ele>1156.0</ele><time>2026-05-02T18:21:00.685Z</time></trkpt><trkpt lat="39.9489706" lon="16.2868634"><ele>1156.0</ele><time>2026-05-02T18:21:01.701Z</time></trkpt><trkpt lat="39.9489997" lon="16.2869814"><ele>1156.0</ele><time>2026-05-02T18:21:02.704Z</time></trkpt><trkpt lat="39.949024" lon="16.2871172"><ele>1156.0</ele><time>2026-05-02T18:21:03.69Z</time></trkpt><trkpt lat="39.9490435" lon="16.2872407"><ele>1155.0</ele><time>2026-05-02T18:21:04.674Z</time></trkpt><trkpt lat="39.9490465" lon="16.287344"><ele>1154.0</ele><time>2026-05-02T18:21:05.656Z</time></trkpt><trkpt lat="39.9490264" lon="16.2874473"><ele>1153.0</ele><time>2026-05-02T18:21:06.67Z</time></trkpt><trkpt lat="39.9490022" lon="16.2875566"><ele>1152.0</ele><time>2026-05-02T18:21:07.689Z</time></trkpt><trkpt lat="39.9489586" lon="16.2876764"><ele>1151.0</ele><time>2026-05-02T18:21:08.686Z</time></trkpt><trkpt lat="39.9489091" lon="16.2877869"><ele>1150.0</ele><time>2026-05-02T18:21:09.688Z</time></trkpt><trkpt lat="39.9488612" lon="16.2878974"><ele>1150.0</ele><time>2026-05-02T18:21:10.682Z</time></trkpt><trkpt lat="39.948817" lon="16.2880181"><ele>1150.0</ele><time>2026-05-02T18:21:11.681Z</time></trkpt><trkpt lat="39.9487885" lon="16.2881488"><ele>1150.0</ele><time>2026-05-02T18:21:12.669Z</time></trkpt><trkpt lat="39.9487635" lon="16.2882679"><ele>1150.0</ele><time>2026-05-02T18:21:13.686Z</time></trkpt><trkpt lat="39.948738" lon="16.2883561"><ele>1150.0</ele><time>2026-05-02T18:21:14.7Z</time></trkpt><trkpt lat="39.9487105" lon="16.288446"><ele>1150.0</ele><time>2026-05-02T18:21:15.686Z</time></trkpt><trkpt lat="39.9486743" lon="16.2885278"><ele>1149.0</ele><time>2026-05-02T18:21:16.672Z</time></trkpt><trkpt lat="39.9486289" lon="16.2886026"><ele>1148.0</ele><time>2026-05-02T18:21:17.687Z</time></trkpt><trkpt lat="39.9485808" lon="16.2886661"><ele>1147.0</ele><time>2026-05-02T18:21:18.698Z</time></trkpt><trkpt lat="39.9484934" lon="16.2887167"><ele>1146.0</ele><time>2026-05-02T18:21:20.689Z</time></trkpt><trkpt lat="39.9484087" lon="16.2886788"><ele>1145.0</ele><time>2026-05-02T18:21:22.71Z</time></trkpt><trkpt lat="39.9483664" lon="16.2886141"><ele>1144.0</ele><time>2026-05-02T18:21:23.685Z</time></trkpt><trkpt lat="39.9483314" lon="16.2885431"><ele>1146.8</ele><time>2026-05-02T18:21:24.661Z</time></trkpt><trkpt lat="39.948284" lon="16.2884306"><ele>1149.6000000000001</ele><time>2026-05-02T18:21:26.684Z</time></trkpt><trkpt lat="39.9482177" lon="16.28835"><ele>1152.4</ele><time>2026-05-02T18:21:28.686Z</time></trkpt><trkpt lat="39.9481112" lon="16.2882645"><ele>1155.2</ele><time>2026-05-02T18:21:30.709Z</time></trkpt><trkpt lat="39.9480385" lon="16.2882158"><ele>1158.0</ele><time>2026-05-02T18:21:31.697Z</time></trkpt><trkpt lat="39.9479559" lon="16.2881779"><ele>1158.0</ele><time>2026-05-02T18:21:32.712Z</time></trkpt><trkpt lat="39.9478619" lon="16.2881478"><ele>1158.0</ele><time>2026-05-02T18:21:33.69Z</time></trkpt><trkpt lat="39.9477598" lon="16.28813"><ele>1158.0</ele><time>2026-05-02T18:21:34.695Z</time></trkpt><trkpt lat="39.9476609" lon="16.2881046"><ele>1158.0</ele><time>2026-05-02T18:21:35.677Z</time></trkpt><trkpt lat="39.9475836" lon="16.2881033"><ele>1158.0</ele><time>2026-05-02T18:21:36.71Z</time></trkpt><trkpt lat="39.9474838" lon="16.2880687"><ele>1160.0</ele><time>2026-05-02T18:21:38.715Z</time></trkpt><trkpt lat="39.9473993" lon="16.2879634"><ele>1162.0</ele><time>2026-05-02T18:21:40.7Z</time></trkpt><trkpt lat="39.947328" lon="16.2878675"><ele>1164.0</ele><time>2026-05-02T18:21:42.707Z</time></trkpt><trkpt lat="39.9472142" lon="16.2878372"><ele>1166.0</ele><time>2026-05-02T18:21:44.694Z</time></trkpt><trkpt lat="39.9471499" lon="16.2878581"><ele>1168.0</ele><time>2026-05-02T18:21:45.685Z</time></trkpt><trkpt lat="39.9470738" lon="16.2879103"><ele>1168.0</ele><time>2026-05-02T18:21:46.695Z</time></trkpt><trkpt lat="39.9469948" lon="16.2879769"><ele>1168.0</ele><time>2026-05-02T18:21:47.705Z</time></trkpt><trkpt lat="39.9469241" lon="16.2880478"><ele>1168.0</ele><time>2026-05-02T18:21:48.699Z</time></trkpt><trkpt lat="39.9468514" lon="16.2881118"><ele>1168.0</ele><time>2026-05-02T18:21:49.671Z</time></trkpt><trkpt lat="39.9467775" lon="16.2881724"><ele>1168.0</ele><time>2026-05-02T18:21:50.661Z</time></trkpt><trkpt lat="39.9467105" lon="16.288236"><ele>1168.0</ele><time>2026-05-02T18:21:51.697Z</time></trkpt><trkpt lat="39.9466484" lon="16.2882796"><ele>1168.4</ele><time>2026-05-02T18:21:52.681Z</time></trkpt><trkpt lat="39.9465286" lon="16.2882964"><ele>1168.8</ele><time>2026-05-02T18:21:54.696Z</time></trkpt><trkpt lat="39.9464625" lon="16.2882686"><ele>1169.2</ele><time>2026-05-02T18:21:55.704Z</time></trkpt><trkpt lat="39.9463616" lon="16.2881712"><ele>1169.6</ele><time>2026-05-02T18:21:57.683Z</time></trkpt><trkpt lat="39.9463047" lon="16.2881008"><ele>1170.0</ele><time>2026-05-02T18:21:58.68Z</time></trkpt><trkpt lat="39.9462332" lon="16.2880324"><ele>1171.6666666666667</ele><time>2026-05-02T18:21:59.694Z</time></trkpt><trkpt lat="39.946157" lon="16.2879727"><ele>1173.3333333333333</ele><time>2026-05-02T18:22:00.697Z</time></trkpt><trkpt lat="39.9460894" lon="16.2879134"><ele>1175.0</ele><time>2026-05-02T18:22:01.682Z</time></trkpt><trkpt lat="39.946027" lon="16.2878696"><ele>1176.6666666666665</ele><time>2026-05-02T18:22:02.676Z</time></trkpt><trkpt lat="39.9459653" lon="16.2878415"><ele>1178.3333333333333</ele><time>2026-05-02T18:22:03.689Z</time></trkpt><trkpt lat="39.9458947" lon="16.2878423"><ele>1180.0</ele><time>2026-05-02T18:22:04.705Z</time></trkpt><trkpt lat="39.9458172" lon="16.2878788"><ele>1180.0</ele><time>2026-05-02T18:22:05.688Z</time></trkpt><trkpt lat="39.9457268" lon="16.2879406"><ele>1180.0</ele><time>2026-05-02T18:22:06.693Z</time></trkpt><trkpt lat="39.9456345" lon="16.2880147"><ele>1180.0</ele><time>2026-05-02T18:22:07.69Z</time></trkpt><trkpt lat="39.9455499" lon="16.2880877"><ele>1180.0</ele><time>2026-05-02T18:22:08.691Z</time></trkpt><trkpt lat="39.9454768" lon="16.2881537"><ele>1180.0</ele><time>2026-05-02T18:22:09.694Z</time></trkpt><trkpt lat="39.9454082" lon="16.2881938"><ele>1180.0000000000002</ele><time>2026-05-02T18:22:10.7Z</time></trkpt><trkpt lat="39.945342" lon="16.2882193"><ele>1180.0</ele><time>2026-05-02T18:22:11.69Z</time></trkpt><trkpt lat="39.9452739" lon="16.2882346"><ele>1180.0</ele><time>2026-05-02T18:22:12.699Z</time></trkpt><trkpt lat="39.9452089" lon="16.2882384"><ele>1180.0</ele><time>2026-05-02T18:22:13.694Z</time></trkpt><trkpt lat="39.9451366" lon="16.2882308"><ele>1180.0</ele><time>2026-05-02T18:22:14.698Z</time></trkpt><trkpt lat="39.9450651" lon="16.2882254"><ele>1180.0000000000002</ele><time>2026-05-02T18:22:15.686Z</time></trkpt><trkpt lat="39.9449933" lon="16.2882103"><ele>1180.0</ele><time>2026-05-02T18:22:16.691Z</time></trkpt><trkpt lat="39.944925" lon="16.2881918"><ele>1181.1428571428573</ele><time>2026-05-02T18:22:17.695Z</time></trkpt><trkpt lat="39.9448573" lon="16.2881778"><ele>1182.2857142857142</ele><time>2026-05-02T18:22:18.711Z</time></trkpt><trkpt lat="39.9447931" lon="16.2881754"><ele>1183.4285714285716</ele><time>2026-05-02T18:22:19.705Z</time></trkpt><trkpt lat="39.9447233" lon="16.288178"><ele>1184.5714285714287</ele><time>2026-05-02T18:22:20.703Z</time></trkpt><trkpt lat="39.9446433" lon="16.2881786"><ele>1185.7142857142858</ele><time>2026-05-02T18:22:21.684Z</time></trkpt><trkpt lat="39.9445606" lon="16.2881866"><ele>1186.857142857143</ele><time>2026-05-02T18:22:22.692Z</time></trkpt><trkpt lat="39.944481" lon="16.2882"><ele>1188.0</ele><time>2026-05-02T18:22:23.697Z</time></trkpt><trkpt lat="39.9444095" lon="16.2882204"><ele>1188.0</ele><time>2026-05-02T18:22:24.698Z</time></trkpt><trkpt lat="39.9443147" lon="16.2882519"><ele>1188.0</ele><time>2026-05-02T18:22:26.69Z</time></trkpt><trkpt lat="39.9442449" lon="16.2882612"><ele>1188.0</ele><time>2026-05-02T18:22:27.694Z</time></trkpt><trkpt lat="39.9441523" lon="16.2882475"><ele>1188.0</ele><time>2026-05-02T18:22:28.687Z</time></trkpt><trkpt lat="39.9440535" lon="16.2882255"><ele>1188.0</ele><time>2026-05-02T18:22:29.691Z</time></trkpt><trkpt lat="39.9439706" lon="16.2881997"><ele>1188.0</ele><time>2026-05-02T18:22:30.685Z</time></trkpt><trkpt lat="39.9438977" lon="16.2881934"><ele>1188.142857142857</ele><time>2026-05-02T18:22:31.696Z</time></trkpt><trkpt lat="39.943835" lon="16.288203"><ele>1188.2857142857144</ele><time>2026-05-02T18:22:32.689Z</time></trkpt><trkpt lat="39.9437776" lon="16.2882414"><ele>1188.4285714285716</ele><time>2026-05-02T18:22:33.68Z</time></trkpt><trkpt lat="39.9437138" lon="16.2882886"><ele>1188.5714285714287</ele><time>2026-05-02T18:22:34.705Z</time></trkpt><trkpt lat="39.9436377" lon="16.2883337"><ele>1188.7142857142858</ele><time>2026-05-02T18:22:35.698Z</time></trkpt><trkpt lat="39.9435771" lon="16.2883757"><ele>1188.857142857143</ele><time>2026-05-02T18:22:36.694Z</time></trkpt><trkpt lat="39.9435276" lon="16.2884273"><ele>1189.0</ele><time>2026-05-02T18:22:37.704Z</time></trkpt><trkpt lat="39.94348" lon="16.2884955"><ele>1189.0</ele><time>2026-05-02T18:22:38.691Z</time></trkpt><trkpt lat="39.9434423" lon="16.2885785"><ele>1189.0</ele><time>2026-05-02T18:22:39.694Z</time></trkpt><trkpt lat="39.9434197" lon="16.2886767"><ele>1189.0</ele><time>2026-05-02T18:22:40.697Z</time></trkpt><trkpt lat="39.9434089" lon="16.2887774"><ele>1189.0</ele><time>2026-05-02T18:22:41.699Z</time></trkpt><trkpt lat="39.9434037" lon="16.2888648"><ele>1189.0</ele><time>2026-05-02T18:22:42.701Z</time></trkpt><trkpt lat="39.9433539" lon="16.2890156"><ele>1189.0</ele><time>2026-05-02T18:22:44.696Z</time></trkpt><trkpt lat="39.9433025" lon="16.2891051"><ele>1188.0</ele><time>2026-05-02T18:22:45.692Z</time></trkpt><trkpt lat="39.9432414" lon="16.2892105"><ele>1187.0</ele><time>2026-05-02T18:22:46.712Z</time></trkpt><trkpt lat="39.943164" lon="16.2893253"><ele>1186.0</ele><time>2026-05-02T18:22:47.693Z</time></trkpt><trkpt lat="39.9430868" lon="16.2894407"><ele>1185.0</ele><time>2026-05-02T18:22:48.696Z</time></trkpt><trkpt lat="39.9430082" lon="16.2895556"><ele>1185.0</ele><time>2026-05-02T18:22:49.697Z</time></trkpt><trkpt lat="39.9429291" lon="16.2896677"><ele>1185.0</ele><time>2026-05-02T18:22:50.686Z</time></trkpt><trkpt lat="39.942848" lon="16.2897891"><ele>1185.0</ele><time>2026-05-02T18:22:51.689Z</time></trkpt><trkpt lat="39.9427729" lon="16.2899059"><ele>1185.0</ele><time>2026-05-02T18:22:52.682Z</time></trkpt><trkpt lat="39.9426957" lon="16.29002"><ele>1184.8</ele><time>2026-05-02T18:22:53.675Z</time></trkpt><trkpt lat="39.9426122" lon="16.2901161"><ele>1184.6</ele><time>2026-05-02T18:22:54.698Z</time></trkpt><trkpt lat="39.9425291" lon="16.290197"><ele>1184.4</ele><time>2026-05-02T18:22:55.689Z</time></trkpt><trkpt lat="39.9424422" lon="16.2902779"><ele>1184.2</ele><time>2026-05-02T18:22:56.698Z</time></trkpt><trkpt lat="39.9423668" lon="16.290361"><ele>1184.0</ele><time>2026-05-02T18:22:57.68Z</time></trkpt><trkpt lat="39.9423025" lon="16.2904267"><ele>1185.2</ele><time>2026-05-02T18:22:58.702Z</time></trkpt><trkpt lat="39.9422387" lon="16.2904642"><ele>1186.4</ele><time>2026-05-02T18:22:59.7Z</time></trkpt><trkpt lat="39.9421617" lon="16.2905012"><ele>1187.6</ele><time>2026-05-02T18:23:00.708Z</time></trkpt><trkpt lat="39.9420733" lon="16.290546"><ele>1188.8</ele><time>2026-05-02T18:23:01.699Z</time></trkpt><trkpt lat="39.9419669" lon="16.2905915"><ele>1190.0</ele><time>2026-05-02T18:23:02.689Z</time></trkpt><trkpt lat="39.9418539" lon="16.2906465"><ele>1190.0</ele><time>2026-05-02T18:23:03.699Z</time></trkpt><trkpt lat="39.9417398" lon="16.2906924"><ele>1190.0</ele><time>2026-05-02T18:23:04.703Z</time></trkpt><trkpt lat="39.9416319" lon="16.2907253"><ele>1190.0</ele><time>2026-05-02T18:23:05.697Z</time></trkpt><trkpt lat="39.9415363" lon="16.2907549"><ele>1190.0</ele><time>2026-05-02T18:23:06.698Z</time></trkpt><trkpt lat="39.9414537" lon="16.2907959"><ele>1190.0</ele><time>2026-05-02T18:23:07.692Z</time></trkpt><trkpt lat="39.9413778" lon="16.2908569"><ele>1192.1666666666667</ele><time>2026-05-02T18:23:08.71Z</time></trkpt><trkpt lat="39.9413096" lon="16.2909262"><ele>1194.3333333333335</ele><time>2026-05-02T18:23:09.691Z</time></trkpt><trkpt lat="39.9412526" lon="16.2910159"><ele>1196.5</ele><time>2026-05-02T18:23:10.685Z</time></trkpt><trkpt lat="39.9412095" lon="16.2910985"><ele>1198.6666666666667</ele><time>2026-05-02T18:23:11.697Z</time></trkpt><trkpt lat="39.9411682" lon="16.2911738"><ele>1200.8333333333333</ele><time>2026-05-02T18:23:12.693Z</time></trkpt><trkpt lat="39.9411272" lon="16.2912383"><ele>1203.0</ele><time>2026-05-02T18:23:13.686Z</time></trkpt><trkpt lat="39.9410875" lon="16.2913034"><ele>1203.0</ele><time>2026-05-02T18:23:14.704Z</time></trkpt><trkpt lat="39.9410479" lon="16.2913833"><ele>1203.0</ele><time>2026-05-02T18:23:15.692Z</time></trkpt><trkpt lat="39.9410107" lon="16.2914741"><ele>1203.0</ele><time>2026-05-02T18:23:16.689Z</time></trkpt><trkpt lat="39.9409681" lon="16.2915641"><ele>1203.0</ele><time>2026-05-02T18:23:17.7Z</time></trkpt><trkpt lat="39.9409201" lon="16.2916466"><ele>1203.0</ele><time>2026-05-02T18:23:18.703Z</time></trkpt><trkpt lat="39.9408583" lon="16.2917181"><ele>1203.0</ele><time>2026-05-02T18:23:19.694Z</time></trkpt><trkpt lat="39.940788" lon="16.2917825"><ele>1204.8333333333333</ele><time>2026-05-02T18:23:20.69Z</time></trkpt><trkpt lat="39.9407201" lon="16.2918303"><ele>1206.6666666666667</ele><time>2026-05-02T18:23:21.68Z</time></trkpt><trkpt lat="39.9406456" lon="16.2918614"><ele>1208.5</ele><time>2026-05-02T18:23:22.711Z</time></trkpt><trkpt lat="39.9405676" lon="16.2918826"><ele>1210.3333333333335</ele><time>2026-05-02T18:23:23.706Z</time></trkpt><trkpt lat="39.9404823" lon="16.2918966"><ele>1212.1666666666667</ele><time>2026-05-02T18:23:24.693Z</time></trkpt><trkpt lat="39.9403937" lon="16.2919072"><ele>1214.0</ele><time>2026-05-02T18:23:25.682Z</time></trkpt><trkpt lat="39.940314" lon="16.2919132"><ele>1214.0</ele><time>2026-05-02T18:23:26.691Z</time></trkpt><trkpt lat="39.9402134" lon="16.2919131"><ele>1214.0</ele><time>2026-05-02T18:23:28.706Z</time></trkpt><trkpt lat="39.9401415" lon="16.2918977"><ele>1214.0</ele><time>2026-05-02T18:23:30.701Z</time></trkpt><trkpt lat="39.9400597" lon="16.2919229"><ele>1214.0</ele><time>2026-05-02T18:23:32.683Z</time></trkpt><trkpt lat="39.9400079" lon="16.2920146"><ele>1214.0</ele><time>2026-05-02T18:23:34.688Z</time></trkpt><trkpt lat="39.9399918" lon="16.2921623"><ele>1214.1666666666667</ele><time>2026-05-02T18:23:36.702Z</time></trkpt><trkpt lat="39.9399302" lon="16.2922841"><ele>1214.3333333333335</ele><time>2026-05-02T18:23:38.707Z</time></trkpt><trkpt lat="39.9398524" lon="16.2923309"><ele>1214.5</ele><time>2026-05-02T18:23:40.708Z</time></trkpt><trkpt lat="39.9397868" lon="16.2923448"><ele>1214.6666666666667</ele><time>2026-05-02T18:23:41.706Z</time></trkpt><trkpt lat="39.9397165" lon="16.2923583"><ele>1214.8333333333333</ele><time>2026-05-02T18:23:42.712Z</time></trkpt><trkpt lat="39.9396424" lon="16.2923804"><ele>1215.0</ele><time>2026-05-02T18:23:43.695Z</time></trkpt><trkpt lat="39.9395707" lon="16.2923976"><ele>1215.0</ele><time>2026-05-02T18:23:44.687Z</time></trkpt><trkpt lat="39.9394912" lon="16.2924139"><ele>1215.0</ele><time>2026-05-02T18:23:45.683Z</time></trkpt><trkpt lat="39.9394123" lon="16.2924345"><ele>1215.0</ele><time>2026-05-02T18:23:46.706Z</time></trkpt><trkpt lat="39.9393465" lon="16.2924587"><ele>1215.0</ele><time>2026-05-02T18:23:47.705Z</time></trkpt><trkpt lat="39.9392872" lon="16.2924885"><ele>1215.0</ele><time>2026-05-02T18:23:48.693Z</time></trkpt><trkpt lat="39.9392119" lon="16.2925297"><ele>1215.0</ele><time>2026-05-02T18:23:49.706Z</time></trkpt><trkpt lat="39.93913" lon="16.292575"><ele>1217.0</ele><time>2026-05-02T18:23:50.696Z</time></trkpt><trkpt lat="39.9390446" lon="16.2926179"><ele>1219.0</ele><time>2026-05-02T18:23:51.693Z</time></trkpt><trkpt lat="39.9389503" lon="16.2926494"><ele>1221.0</ele><time>2026-05-02T18:23:52.708Z</time></trkpt><trkpt lat="39.9388506" lon="16.2926756"><ele>1223.0</ele><time>2026-05-02T18:23:53.694Z</time></trkpt><trkpt lat="39.9387617" lon="16.2926871"><ele>1225.0</ele><time>2026-05-02T18:23:54.695Z</time></trkpt><trkpt lat="39.9386904" lon="16.2926863"><ele>1225.0</ele><time>2026-05-02T18:23:55.68Z</time></trkpt><trkpt lat="39.9385744" lon="16.292728"><ele>1225.0</ele><time>2026-05-02T18:23:57.69Z</time></trkpt><trkpt lat="39.9385185" lon="16.2927815"><ele>1225.0</ele><time>2026-05-02T18:23:58.694Z</time></trkpt><trkpt lat="39.9384686" lon="16.2928521"><ele>1225.0</ele><time>2026-05-02T18:23:59.677Z</time></trkpt><trkpt lat="39.9384174" lon="16.2929118"><ele>1225.0</ele><time>2026-05-02T18:24:00.699Z</time></trkpt><trkpt lat="39.9383085" lon="16.29295"><ele>1225.0</ele><time>2026-05-02T18:24:02.714Z</time></trkpt><trkpt lat="39.9381761" lon="16.2929227"><ele>1227.0</ele><time>2026-05-02T18:24:04.713Z</time></trkpt><trkpt lat="39.9381014" lon="16.2929136"><ele>1229.0</ele><time>2026-05-02T18:24:05.709Z</time></trkpt><trkpt lat="39.938027" lon="16.2929319"><ele>1231.0</ele><time>2026-05-02T18:24:06.712Z</time></trkpt><trkpt lat="39.9379477" lon="16.2929446"><ele>1233.0</ele><time>2026-05-02T18:24:07.693Z</time></trkpt><trkpt lat="39.9378645" lon="16.2929404"><ele>1235.0</ele><time>2026-05-02T18:24:08.721Z</time></trkpt><trkpt lat="39.9377803" lon="16.2929352"><ele>1237.0</ele><time>2026-05-02T18:24:09.682Z</time></trkpt><trkpt lat="39.937694" lon="16.2929404"><ele>1237.0</ele><time>2026-05-02T18:24:10.715Z</time></trkpt><trkpt lat="39.9376056" lon="16.2929435"><ele>1237.0</ele><time>2026-05-02T18:24:11.703Z</time></trkpt><trkpt lat="39.937519" lon="16.2929447"><ele>1237.0</ele><time>2026-05-02T18:24:12.714Z</time></trkpt><trkpt lat="39.9374443" lon="16.2929342"><ele>1237.0</ele><time>2026-05-02T18:24:13.699Z</time></trkpt><trkpt lat="39.9373551" lon="16.2928926"><ele>1237.0</ele><time>2026-05-02T18:24:15.709Z</time></trkpt><trkpt lat="39.937275" lon="16.2928237"><ele>1237.0</ele><time>2026-05-02T18:24:17.696Z</time></trkpt><trkpt lat="39.9371723" lon="16.2927262"><ele>1238.1666666666665</ele><time>2026-05-02T18:24:19.687Z</time></trkpt><trkpt lat="39.9371105" lon="16.2926762"><ele>1239.3333333333333</ele><time>2026-05-02T18:24:20.705Z</time></trkpt><trkpt lat="39.9370413" lon="16.2926255"><ele>1240.5</ele><time>2026-05-02T18:24:21.699Z</time></trkpt><trkpt lat="39.9369658" lon="16.2925804"><ele>1241.6666666666667</ele><time>2026-05-02T18:24:22.694Z</time></trkpt><trkpt lat="39.9368923" lon="16.2925399"><ele>1242.8333333333335</ele><time>2026-05-02T18:24:23.695Z</time></trkpt><trkpt lat="39.9368367" lon="16.2925009"><ele>1244.0</ele><time>2026-05-02T18:24:24.704Z</time></trkpt><trkpt lat="39.9367295" lon="16.2924572"><ele>1245.0</ele><time>2026-05-02T18:24:26.706Z</time></trkpt><trkpt lat="39.9366127" lon="16.2924744"><ele>1246.0</ele><time>2026-05-02T18:24:28.706Z</time></trkpt><trkpt lat="39.9365453" lon="16.2925099"><ele>1247.0</ele><time>2026-05-02T18:24:29.708Z</time></trkpt><trkpt lat="39.9364772" lon="16.2925577"><ele>1248.0</ele><time>2026-05-02T18:24:30.677Z</time></trkpt><trkpt lat="39.9363814" lon="16.2926292"><ele>1249.0</ele><time>2026-05-02T18:24:32.678Z</time></trkpt><trkpt lat="39.9363015" lon="16.2926687"><ele>1249.0</ele><time>2026-05-02T18:24:34.701Z</time></trkpt><trkpt lat="39.9361934" lon="16.2926709"><ele>1249.0</ele><time>2026-05-02T18:24:36.706Z</time></trkpt><trkpt lat="39.9360772" lon="16.2926746"><ele>1249.0</ele><time>2026-05-02T18:24:38.717Z</time></trkpt><trkpt lat="39.9359611" lon="16.292723"><ele>1249.0</ele><time>2026-05-02T18:24:40.695Z</time></trkpt><trkpt lat="39.9359046" lon="16.2927741"><ele>1249.0</ele><time>2026-05-02T18:24:41.717Z</time></trkpt><trkpt lat="39.9358416" lon="16.2928533"><ele>1249.8333333333333</ele><time>2026-05-02T18:24:42.698Z</time></trkpt><trkpt lat="39.9357839" lon="16.2929496"><ele>1250.6666666666665</ele><time>2026-05-02T18:24:43.701Z</time></trkpt><trkpt lat="39.9357311" lon="16.2930507"><ele>1251.5</ele><time>2026-05-02T18:24:44.68Z</time></trkpt><trkpt lat="39.9356899" lon="16.2931455"><ele>1252.3333333333333</ele><time>2026-05-02T18:24:45.688Z</time></trkpt><trkpt lat="39.9356577" lon="16.2932375"><ele>1253.1666666666667</ele><time>2026-05-02T18:24:46.685Z</time></trkpt><trkpt lat="39.9356301" lon="16.2933161"><ele>1254.0</ele><time>2026-05-02T18:24:47.683Z</time></trkpt><trkpt lat="39.9355861" lon="16.2934174"><ele>1254.0</ele><time>2026-05-02T18:24:49.697Z</time></trkpt><trkpt lat="39.9355284" lon="16.2934512"><ele>1254.0</ele><time>2026-05-02T18:24:57.703Z</time></trkpt><trkpt lat="39.9354366" lon="16.2934842"><ele>1254.0</ele><time>2026-05-02T18:24:59.7Z</time></trkpt><trkpt lat="39.9353695" lon="16.2934995"><ele>1254.0</ele><time>2026-05-02T18:25:00.687Z</time></trkpt><trkpt lat="39.9352911" lon="16.2935181"><ele>1254.0</ele><time>2026-05-02T18:25:01.701Z</time></trkpt><trkpt lat="39.9352124" lon="16.2935558"><ele>1254.0</ele><time>2026-05-02T18:25:02.705Z</time></trkpt><trkpt lat="39.9351412" lon="16.2936004"><ele>1257.4</ele><time>2026-05-02T18:25:03.694Z</time></trkpt><trkpt lat="39.9350482" lon="16.293633"><ele>1260.8000000000002</ele><time>2026-05-02T18:25:05.697Z</time></trkpt><trkpt lat="39.9349691" lon="16.2936288"><ele>1264.1999999999998</ele><time>2026-05-02T18:25:07.712Z</time></trkpt><trkpt lat="39.9348887" lon="16.2935759"><ele>1267.6</ele><time>2026-05-02T18:25:09.717Z</time></trkpt><trkpt lat="39.9347939" lon="16.2934858"><ele>1271.0</ele><time>2026-05-02T18:25:11.698Z</time></trkpt><trkpt lat="39.9347152" lon="16.2933812"><ele>1271.0</ele><time>2026-05-02T18:25:13.703Z</time></trkpt><trkpt lat="39.9346526" lon="16.2933137"><ele>1271.0</ele><time>2026-05-02T18:25:15.674Z</time></trkpt><trkpt lat="39.9345913" lon="16.2932764"><ele>1271.0</ele><time>2026-05-02T18:25:17.693Z</time></trkpt><trkpt lat="39.9344953" lon="16.2932594"><ele>1271.0</ele><time>2026-05-02T18:25:19.703Z</time></trkpt><trkpt lat="39.9344298" lon="16.2932559"><ele>1271.0</ele><time>2026-05-02T18:25:20.707Z</time></trkpt><trkpt lat="39.9343583" lon="16.2932507"><ele>1271.0</ele><time>2026-05-02T18:25:21.695Z</time></trkpt><trkpt lat="39.9342863" lon="16.2932498"><ele>1271.1666666666667</ele><time>2026-05-02T18:25:22.687Z</time></trkpt><trkpt lat="39.9342043" lon="16.2932454"><ele>1271.3333333333335</ele><time>2026-05-02T18:25:23.709Z</time></trkpt><trkpt lat="39.9341188" lon="16.2932468"><ele>1271.5</ele><time>2026-05-02T18:25:24.705Z</time></trkpt><trkpt lat="39.9340397" lon="16.2932579"><ele>1271.6666666666667</ele><time>2026-05-02T18:25:25.693Z</time></trkpt><trkpt lat="39.9339696" lon="16.293284"><ele>1271.8333333333333</ele><time>2026-05-02T18:25:26.695Z</time></trkpt><trkpt lat="39.933899" lon="16.2933107"><ele>1272.0</ele><time>2026-05-02T18:25:27.703Z</time></trkpt><trkpt lat="39.9338367" lon="16.2933548"><ele>1272.0</ele><time>2026-05-02T18:25:28.693Z</time></trkpt><trkpt lat="39.933753" lon="16.2934605"><ele>1272.0</ele><time>2026-05-02T18:25:30.675Z</time></trkpt><trkpt lat="39.9336586" lon="16.2935471"><ele>1272.0</ele><time>2026-05-02T18:25:32.701Z</time></trkpt><trkpt lat="39.9335923" lon="16.2935843"><ele>1272.0</ele><time>2026-05-02T18:25:33.697Z</time></trkpt><trkpt lat="39.9335271" lon="16.2936168"><ele>1272.0</ele><time>2026-05-02T18:25:34.711Z</time></trkpt><trkpt lat="39.9334567" lon="16.2936386"><ele>1272.0</ele><time>2026-05-02T18:25:35.687Z</time></trkpt><trkpt lat="39.9333831" lon="16.2936543"><ele>1272.1666666666667</ele><time>2026-05-02T18:25:36.702Z</time></trkpt><trkpt lat="39.9333055" lon="16.2936701"><ele>1272.3333333333333</ele><time>2026-05-02T18:25:37.698Z</time></trkpt><trkpt lat="39.9332391" lon="16.293689"><ele>1272.5</ele><time>2026-05-02T18:25:38.692Z</time></trkpt><trkpt lat="39.9331424" lon="16.2937458"><ele>1272.6666666666665</ele><time>2026-05-02T18:25:40.705Z</time></trkpt><trkpt lat="39.9330903" lon="16.2938147"><ele>1272.8333333333333</ele><time>2026-05-02T18:25:42.692Z</time></trkpt><trkpt lat="39.93307" lon="16.2939275"><ele>1273.0</ele><time>2026-05-02T18:25:44.681Z</time></trkpt><trkpt lat="39.9330578" lon="16.2940153"><ele>1272.142857142857</ele><time>2026-05-02T18:25:45.7Z</time></trkpt><trkpt lat="39.9330306" lon="16.2941094"><ele>1271.2857142857142</ele><time>2026-05-02T18:25:46.684Z</time></trkpt><trkpt lat="39.932997" lon="16.29421"><ele>1270.4285714285716</ele><time>2026-05-02T18:25:47.68Z</time></trkpt><trkpt lat="39.9329637" lon="16.2943006"><ele>1269.5714285714284</ele><time>2026-05-02T18:25:48.693Z</time></trkpt><trkpt lat="39.9329473" lon="16.29438"><ele>1268.7142857142858</ele><time>2026-05-02T18:25:49.679Z</time></trkpt><trkpt lat="39.9329413" lon="16.2944657"><ele>1267.857142857143</ele><time>2026-05-02T18:25:50.687Z</time></trkpt><trkpt lat="39.9329239" lon="16.2945656"><ele>1267.0</ele><time>2026-05-02T18:25:51.701Z</time></trkpt><trkpt lat="39.9329011" lon="16.2946688"><ele>1265.3333333333333</ele><time>2026-05-02T18:25:52.688Z</time></trkpt><trkpt lat="39.9328609" lon="16.2947725"><ele>1263.6666666666665</ele><time>2026-05-02T18:25:53.694Z</time></trkpt><trkpt lat="39.9328126" lon="16.2948697"><ele>1262.0</ele><time>2026-05-02T18:25:54.71Z</time></trkpt><trkpt lat="39.9327734" lon="16.2949449"><ele>1260.3333333333333</ele><time>2026-05-02T18:25:55.692Z</time></trkpt><trkpt lat="39.9327298" lon="16.2950217"><ele>1258.6666666666667</ele><time>2026-05-02T18:25:56.694Z</time></trkpt><trkpt lat="39.9326849" lon="16.2951153"><ele>1257.0</ele><time>2026-05-02T18:25:57.713Z</time></trkpt><trkpt lat="39.9326338" lon="16.2952126"><ele>1257.0</ele><time>2026-05-02T18:25:58.696Z</time></trkpt><trkpt lat="39.9325939" lon="16.295299"><ele>1257.0</ele><time>2026-05-02T18:25:59.712Z</time></trkpt><trkpt lat="39.9325633" lon="16.2953854"><ele>1257.0</ele><time>2026-05-02T18:26:00.681Z</time></trkpt><trkpt lat="39.9325424" lon="16.2954818"><ele>1257.0</ele><time>2026-05-02T18:26:01.692Z</time></trkpt><trkpt lat="39.9325228" lon="16.2955797"><ele>1257.0</ele><time>2026-05-02T18:26:02.7Z</time></trkpt><trkpt lat="39.9325002" lon="16.2956844"><ele>1257.0</ele><time>2026-05-02T18:26:03.707Z</time></trkpt><trkpt lat="39.9324769" lon="16.2958001"><ele>1257.0</ele><time>2026-05-02T18:26:04.707Z</time></trkpt><trkpt lat="39.9324609" lon="16.2959143"><ele>1257.0</ele><time>2026-05-02T18:26:05.672Z</time></trkpt><trkpt lat="39.9324464" lon="16.2960085"><ele>1257.0</ele><time>2026-05-02T18:26:06.704Z</time></trkpt><trkpt lat="39.9324334" lon="16.2960987"><ele>1257.0</ele><time>2026-05-02T18:26:07.704Z</time></trkpt><trkpt lat="39.9324173" lon="16.2961984"><ele>1257.0</ele><time>2026-05-02T18:26:08.704Z</time></trkpt><trkpt lat="39.9324036" lon="16.2963116"><ele>1257.0</ele><time>2026-05-02T18:26:09.707Z</time></trkpt><trkpt lat="39.9323911" lon="16.2964451"><ele>1255.6</ele><time>2026-05-02T18:26:10.699Z</time></trkpt><trkpt lat="39.9323848" lon="16.2965849"><ele>1254.2</ele><time>2026-05-02T18:26:11.693Z</time></trkpt><trkpt lat="39.9323746" lon="16.2967235"><ele>1252.8</ele><time>2026-05-02T18:26:12.678Z</time></trkpt><trkpt lat="39.932372" lon="16.296856"><ele>1251.4</ele><time>2026-05-02T18:26:13.665Z</time></trkpt><trkpt lat="39.9323746" lon="16.2969831"><ele>1250.0</ele><time>2026-05-02T18:26:14.671Z</time></trkpt><trkpt lat="39.9323699" lon="16.2970808"><ele>1250.0</ele><time>2026-05-02T18:26:15.701Z</time></trkpt><trkpt lat="39.932334" lon="16.2972336"><ele>1250.0</ele><time>2026-05-02T18:26:17.712Z</time></trkpt><trkpt lat="39.9323053" lon="16.2973248"><ele>1250.0</ele><time>2026-05-02T18:26:18.691Z</time></trkpt><trkpt lat="39.9322795" lon="16.2974207"><ele>1250.0</ele><time>2026-05-02T18:26:19.699Z</time></trkpt><trkpt lat="39.9322547" lon="16.2975196"><ele>1250.0</ele><time>2026-05-02T18:26:20.721Z</time></trkpt><trkpt lat="39.932228" lon="16.2976192"><ele>1250.0</ele><time>2026-05-02T18:26:21.725Z</time></trkpt><trkpt lat="39.932204" lon="16.297729"><ele>1249.6666666666667</ele><time>2026-05-02T18:26:22.719Z</time></trkpt><trkpt lat="39.9321891" lon="16.2978491"><ele>1249.3333333333335</ele><time>2026-05-02T18:26:23.671Z</time></trkpt><trkpt lat="39.9321818" lon="16.2979668"><ele>1249.0</ele><time>2026-05-02T18:26:24.705Z</time></trkpt><trkpt lat="39.9321777" lon="16.2980765"><ele>1248.6666666666667</ele><time>2026-05-02T18:26:25.689Z</time></trkpt><trkpt lat="39.9321744" lon="16.2981858"><ele>1248.3333333333333</ele><time>2026-05-02T18:26:26.695Z</time></trkpt><trkpt lat="39.9321721" lon="16.2982892"><ele>1248.0</ele><time>2026-05-02T18:26:27.703Z</time></trkpt><trkpt lat="39.9321721" lon="16.2983793"><ele>1247.8333333333333</ele><time>2026-05-02T18:26:28.71Z</time></trkpt><trkpt lat="39.9321659" lon="16.2984615"><ele>1247.6666666666667</ele><time>2026-05-02T18:26:29.699Z</time></trkpt><trkpt lat="39.9321563" lon="16.2985546"><ele>1247.5</ele><time>2026-05-02T18:26:30.705Z</time></trkpt><trkpt lat="39.9321429" lon="16.2986603"><ele>1247.3333333333335</ele><time>2026-05-02T18:26:31.707Z</time></trkpt><trkpt lat="39.9321286" lon="16.2987779"><ele>1247.1666666666667</ele><time>2026-05-02T18:26:32.701Z</time></trkpt><trkpt lat="39.9321194" lon="16.2989113"><ele>1247.0</ele><time>2026-05-02T18:26:33.703Z</time></trkpt><trkpt lat="39.932109" lon="16.2990679"><ele>1246.2</ele><time>2026-05-02T18:26:34.698Z</time></trkpt><trkpt lat="39.9320941" lon="16.299228"><ele>1245.4</ele><time>2026-05-02T18:26:35.682Z</time></trkpt><trkpt lat="39.9320754" lon="16.2993651"><ele>1244.6</ele><time>2026-05-02T18:26:36.704Z</time></trkpt><trkpt lat="39.9320434" lon="16.2994674"><ele>1243.8</ele><time>2026-05-02T18:26:37.698Z</time></trkpt><trkpt lat="39.9320054" lon="16.2995502"><ele>1243.0</ele><time>2026-05-02T18:26:38.694Z</time></trkpt><trkpt lat="39.9319522" lon="16.2996337"><ele>1243.0</ele><time>2026-05-02T18:26:39.689Z</time></trkpt><trkpt lat="39.9318905" lon="16.299723"><ele>1243.0</ele><time>2026-05-02T18:26:40.706Z</time></trkpt><trkpt lat="39.9318208" lon="16.2998116"><ele>1243.0</ele><time>2026-05-02T18:26:41.675Z</time></trkpt><trkpt lat="39.9317582" lon="16.299885"><ele>1243.0</ele><time>2026-05-02T18:26:42.684Z</time></trkpt><trkpt lat="39.9317126" lon="16.2999448"><ele>1243.0</ele><time>2026-05-02T18:26:43.693Z</time></trkpt><trkpt lat="39.9316622" lon="16.3000309"><ele>1243.0</ele><time>2026-05-02T18:26:45.693Z</time></trkpt><trkpt lat="39.9316325" lon="16.3001058"><ele>1243.4</ele><time>2026-05-02T18:26:47.698Z</time></trkpt><trkpt lat="39.93164" lon="16.3002154"><ele>1243.8</ele><time>2026-05-02T18:26:50.686Z</time></trkpt><trkpt lat="39.9316883" lon="16.3002983"><ele>1244.2</ele><time>2026-05-02T18:26:52.692Z</time></trkpt><trkpt lat="39.9317537" lon="16.3003828"><ele>1244.6</ele><time>2026-05-02T18:26:54.691Z</time></trkpt><trkpt lat="39.9318114" lon="16.3004931"><ele>1245.0</ele><time>2026-05-02T18:26:56.705Z</time></trkpt><trkpt lat="39.9318179" lon="16.3006184"><ele>1245.1666666666667</ele><time>2026-05-02T18:26:58.69Z</time></trkpt><trkpt lat="39.9317714" lon="16.3007685"><ele>1245.3333333333333</ele><time>2026-05-02T18:27:00.692Z</time></trkpt><trkpt lat="39.9317413" lon="16.300861"><ele>1245.5</ele><time>2026-05-02T18:27:01.698Z</time></trkpt><trkpt lat="39.9317044" lon="16.3009592"><ele>1245.6666666666665</ele><time>2026-05-02T18:27:02.7Z</time></trkpt><trkpt lat="39.9316631" lon="16.3010579"><ele>1245.8333333333333</ele><time>2026-05-02T18:27:03.692Z</time></trkpt><trkpt lat="39.9316226" lon="16.301142"><ele>1246.0</ele><time>2026-05-02T18:27:04.695Z</time></trkpt><trkpt lat="39.9315864" lon="16.3012114"><ele>1246.1666666666665</ele><time>2026-05-02T18:27:05.694Z</time></trkpt><trkpt lat="39.9315483" lon="16.3012819"><ele>1246.3333333333333</ele><time>2026-05-02T18:27:06.682Z</time></trkpt><trkpt lat="39.9314541" lon="16.3014226"><ele>1246.5</ele><time>2026-05-02T18:27:08.688Z</time></trkpt><trkpt lat="39.9313965" lon="16.3014972"><ele>1246.6666666666667</ele><time>2026-05-02T18:27:09.699Z</time></trkpt><trkpt lat="39.9313344" lon="16.3015652"><ele>1246.8333333333335</ele><time>2026-05-02T18:27:10.706Z</time></trkpt><trkpt lat="39.9312813" lon="16.3016237"><ele>1247.0</ele><time>2026-05-02T18:27:11.698Z</time></trkpt><trkpt lat="39.9311933" lon="16.3016971"><ele>1247.4</ele><time>2026-05-02T18:27:13.69Z</time></trkpt><trkpt lat="39.9311159" lon="16.3017313"><ele>1247.8000000000002</ele><time>2026-05-02T18:27:15.68Z</time></trkpt><trkpt lat="39.9310389" lon="16.3017117"><ele>1248.2</ele><time>2026-05-02T18:27:17.687Z</time></trkpt><trkpt lat="39.9309516" lon="16.3016145"><ele>1248.6000000000001</ele><time>2026-05-02T18:27:19.693Z</time></trkpt><trkpt lat="39.930874" lon="16.3015135"><ele>1249.0</ele><time>2026-05-02T18:27:21.691Z</time></trkpt><trkpt lat="39.930795" lon="16.3014819"><ele>1246.2</ele><time>2026-05-02T18:27:23.698Z</time></trkpt><trkpt lat="39.9306742" lon="16.3015891"><ele>1243.4</ele><time>2026-05-02T18:27:26.686Z</time></trkpt><trkpt lat="39.9306246" lon="16.3016739"><ele>1240.6</ele><time>2026-05-02T18:27:27.682Z</time></trkpt><trkpt lat="39.9305585" lon="16.3017585"><ele>1237.8</ele><time>2026-05-02T18:27:28.694Z</time></trkpt><trkpt lat="39.9304978" lon="16.3018308"><ele>1235.0</ele><time>2026-05-02T18:27:29.731Z</time></trkpt><trkpt lat="39.9304506" lon="16.3018918"><ele>1235.0</ele><time>2026-05-02T18:27:30.693Z</time></trkpt><trkpt lat="39.9304255" lon="16.3020016"><ele>1235.0</ele><time>2026-05-02T18:27:32.705Z</time></trkpt><trkpt lat="39.9304878" lon="16.3021168"><ele>1235.0</ele><time>2026-05-02T18:27:34.696Z</time></trkpt><trkpt lat="39.9305867" lon="16.302206"><ele>1235.0</ele><time>2026-05-02T18:27:36.693Z</time></trkpt><trkpt lat="39.9306307" lon="16.3022656"><ele>1235.0</ele><time>2026-05-02T18:27:37.691Z</time></trkpt><trkpt lat="39.9306789" lon="16.3023987"><ele>1233.6666666666667</ele><time>2026-05-02T18:27:39.691Z</time></trkpt><trkpt lat="39.9306827" lon="16.3025635"><ele>1232.3333333333335</ele><time>2026-05-02T18:27:41.681Z</time></trkpt><trkpt lat="39.930672" lon="16.302657"><ele>1231.0</ele><time>2026-05-02T18:27:42.692Z</time></trkpt><trkpt lat="39.9306489" lon="16.3027432"><ele>1229.6666666666667</ele><time>2026-05-02T18:27:43.699Z</time></trkpt><trkpt lat="39.9306154" lon="16.3028233"><ele>1228.3333333333333</ele><time>2026-05-02T18:27:44.695Z</time></trkpt><trkpt lat="39.9305724" lon="16.3028992"><ele>1227.0</ele><time>2026-05-02T18:27:45.693Z</time></trkpt><trkpt lat="39.9305034" lon="16.3029741"><ele>1227.0</ele><time>2026-05-02T18:27:46.683Z</time></trkpt><trkpt lat="39.930429" lon="16.3030512"><ele>1227.0</ele><time>2026-05-02T18:27:47.706Z</time></trkpt><trkpt lat="39.930337" lon="16.3031483"><ele>1227.0</ele><time>2026-05-02T18:27:48.691Z</time></trkpt><trkpt lat="39.9302431" lon="16.3032614"><ele>1227.0</ele><time>2026-05-02T18:27:49.681Z</time></trkpt><trkpt lat="39.9301573" lon="16.3033577"><ele>1225.0</ele><time>2026-05-02T18:27:50.699Z</time></trkpt><trkpt lat="39.9300892" lon="16.3034345"><ele>1223.0</ele><time>2026-05-02T18:27:51.699Z</time></trkpt><trkpt lat="39.93002" lon="16.3035052"><ele>1221.0</ele><time>2026-05-02T18:27:52.698Z</time></trkpt><trkpt lat="39.929947" lon="16.3035884"><ele>1219.0</ele><time>2026-05-02T18:27:53.698Z</time></trkpt><trkpt lat="39.9298698" lon="16.3036885"><ele>1217.0</ele><time>2026-05-02T18:27:54.693Z</time></trkpt><trkpt lat="39.9297807" lon="16.3037984"><ele>1214.0</ele><time>2026-05-02T18:27:55.68Z</time></trkpt><trkpt lat="39.9296923" lon="16.3039169"><ele>1211.0</ele><time>2026-05-02T18:27:56.69Z</time></trkpt><trkpt lat="39.9296077" lon="16.3040175"><ele>1208.0</ele><time>2026-05-02T18:27:57.694Z</time></trkpt><trkpt lat="39.9295383" lon="16.3040895"><ele>1205.0</ele><time>2026-05-02T18:27:58.699Z</time></trkpt><trkpt lat="39.9294513" lon="16.3041427"><ele>1202.0</ele><time>2026-05-02T18:28:00.695Z</time></trkpt><trkpt lat="39.9293784" lon="16.3041054"><ele>1202.0</ele><time>2026-05-02T18:28:02.698Z</time></trkpt><trkpt lat="39.9293096" lon="16.3039626"><ele>1202.0</ele><time>2026-05-02T18:28:04.709Z</time></trkpt><trkpt lat="39.9292968" lon="16.3038289"><ele>1202.0</ele><time>2026-05-02T18:28:06.707Z</time></trkpt><trkpt lat="39.9293429" lon="16.3036989"><ele>1202.0</ele><time>2026-05-02T18:28:08.715Z</time></trkpt><trkpt lat="39.929393" lon="16.3036202"><ele>1202.0</ele><time>2026-05-02T18:28:09.694Z</time></trkpt><trkpt lat="39.9294394" lon="16.3035334"><ele>1203.0</ele><time>2026-05-02T18:28:10.713Z</time></trkpt><trkpt lat="39.9294745" lon="16.3034436"><ele>1204.0</ele><time>2026-05-02T18:28:11.699Z</time></trkpt><trkpt lat="39.9295038" lon="16.3033529"><ele>1205.0</ele><time>2026-05-02T18:28:12.708Z</time></trkpt><trkpt lat="39.9295336" lon="16.3032506"><ele>1206.0</ele><time>2026-05-02T18:28:13.707Z</time></trkpt><trkpt lat="39.9295584" lon="16.3031538"><ele>1207.0</ele><time>2026-05-02T18:28:14.716Z</time></trkpt><trkpt lat="39.9295696" lon="16.3030665"><ele>1208.0</ele><time>2026-05-02T18:28:15.676Z</time></trkpt><trkpt lat="39.9295718" lon="16.3029102"><ele>1208.6666666666667</ele><time>2026-05-02T18:28:17.709Z</time></trkpt><trkpt lat="39.9295675" lon="16.302821"><ele>1209.3333333333335</ele><time>2026-05-02T18:28:18.699Z</time></trkpt><trkpt lat="39.9295526" lon="16.302725"><ele>1210.0</ele><time>2026-05-02T18:28:19.711Z</time></trkpt><trkpt lat="39.9295302" lon="16.3026321"><ele>1210.6666666666667</ele><time>2026-05-02T18:28:20.703Z</time></trkpt><trkpt lat="39.9294976" lon="16.3025492"><ele>1211.3333333333333</ele><time>2026-05-02T18:28:21.686Z</time></trkpt><trkpt lat="39.9294223" lon="16.3024466"><ele>1212.0</ele><time>2026-05-02T18:28:23.718Z</time></trkpt><trkpt lat="39.9293405" lon="16.3024324"><ele>1212.0</ele><time>2026-05-02T18:28:25.684Z</time></trkpt><trkpt lat="39.92925" lon="16.3025008"><ele>1212.0</ele><time>2026-05-02T18:28:27.671Z</time></trkpt><trkpt lat="39.9292055" lon="16.3025733"><ele>1212.0</ele><time>2026-05-02T18:28:28.69Z</time></trkpt><trkpt lat="39.929165" lon="16.3026488"><ele>1212.0</ele><time>2026-05-02T18:28:29.685Z</time></trkpt><trkpt lat="39.929094" lon="16.3027443"><ele>1212.0</ele><time>2026-05-02T18:28:31.707Z</time></trkpt><trkpt lat="39.9290156" lon="16.302742"><ele>1212.0</ele><time>2026-05-02T18:28:33.695Z</time></trkpt><trkpt lat="39.9289501" lon="16.302655"><ele>1207.8</ele><time>2026-05-02T18:28:35.679Z</time></trkpt><trkpt lat="39.9288929" lon="16.3025156"><ele>1203.6</ele><time>2026-05-02T18:28:37.697Z</time></trkpt><trkpt lat="39.9288018" lon="16.3024239"><ele>1199.3999999999999</ele><time>2026-05-02T18:28:39.704Z</time></trkpt><trkpt lat="39.9286747" lon="16.3024037"><ele>1195.2</ele><time>2026-05-02T18:28:41.687Z</time></trkpt><trkpt lat="39.9286001" lon="16.3023937"><ele>1191.0</ele><time>2026-05-02T18:28:42.69Z</time></trkpt><trkpt lat="39.9285188" lon="16.3023788"><ele>1191.0</ele><time>2026-05-02T18:28:43.69Z</time></trkpt><trkpt lat="39.928442" lon="16.3023657"><ele>1191.0</ele><time>2026-05-02T18:28:44.692Z</time></trkpt><trkpt lat="39.9283572" lon="16.3023558"><ele>1191.0</ele><time>2026-05-02T18:28:45.675Z</time></trkpt><trkpt lat="39.9282683" lon="16.3023529"><ele>1191.0</ele><time>2026-05-02T18:28:46.681Z</time></trkpt><trkpt lat="39.9281764" lon="16.3023592"><ele>1191.0</ele><time>2026-05-02T18:28:47.687Z</time></trkpt><trkpt lat="39.9280878" lon="16.3023628"><ele>1191.0</ele><time>2026-05-02T18:28:48.706Z</time></trkpt><trkpt lat="39.9280014" lon="16.3023637"><ele>1188.5</ele><time>2026-05-02T18:28:49.702Z</time></trkpt><trkpt lat="39.927913" lon="16.302363"><ele>1186.0</ele><time>2026-05-02T18:28:50.696Z</time></trkpt><trkpt lat="39.9278315" lon="16.3023667"><ele>1183.5</ele><time>2026-05-02T18:28:51.704Z</time></trkpt><trkpt lat="39.9277552" lon="16.3023661"><ele>1181.0</ele><time>2026-05-02T18:28:52.704Z</time></trkpt><trkpt lat="39.9276829" lon="16.3023722"><ele>1178.5</ele><time>2026-05-02T18:28:53.705Z</time></trkpt><trkpt lat="39.9276131" lon="16.3023923"><ele>1176.0</ele><time>2026-05-02T18:28:54.7Z</time></trkpt><trkpt lat="39.9275496" lon="16.3024258"><ele>1173.3333333333333</ele><time>2026-05-02T18:28:55.679Z</time></trkpt><trkpt lat="39.9274848" lon="16.3024779"><ele>1170.6666666666667</ele><time>2026-05-02T18:28:56.697Z</time></trkpt><trkpt lat="39.9274124" lon="16.3025458"><ele>1168.0</ele><time>2026-05-02T18:28:57.683Z</time></trkpt><trkpt lat="39.9273392" lon="16.3026184"><ele>1165.3333333333335</ele><time>2026-05-02T18:28:58.688Z</time></trkpt><trkpt lat="39.927262" lon="16.3026833"><ele>1162.6666666666667</ele><time>2026-05-02T18:28:59.691Z</time></trkpt><trkpt lat="39.9271829" lon="16.3027519"><ele>1160.0</ele><time>2026-05-02T18:29:00.694Z</time></trkpt><trkpt lat="39.9271072" lon="16.3028183"><ele>1160.0</ele><time>2026-05-02T18:29:01.698Z</time></trkpt><trkpt lat="39.9270469" lon="16.3028789"><ele>1160.0</ele><time>2026-05-02T18:29:02.707Z</time></trkpt><trkpt lat="39.927" lon="16.3029396"><ele>1160.0</ele><time>2026-05-02T18:29:03.686Z</time></trkpt><trkpt lat="39.9269665" lon="16.3030104"><ele>1160.0</ele><time>2026-05-02T18:29:04.701Z</time></trkpt><trkpt lat="39.9269378" lon="16.3031035"><ele>1160.0</ele><time>2026-05-02T18:29:05.678Z</time></trkpt><trkpt lat="39.9269148" lon="16.3032012"><ele>1160.0</ele><time>2026-05-02T18:29:06.691Z</time></trkpt><trkpt lat="39.9268936" lon="16.3032803"><ele>1160.0</ele><time>2026-05-02T18:29:07.696Z</time></trkpt><trkpt lat="39.9268275" lon="16.3033882"><ele>1158.6666666666667</ele><time>2026-05-02T18:29:09.703Z</time></trkpt><trkpt lat="39.9267665" lon="16.3034221"><ele>1157.3333333333335</ele><time>2026-05-02T18:29:10.699Z</time></trkpt><trkpt lat="39.9266948" lon="16.303458"><ele>1156.0</ele><time>2026-05-02T18:29:11.687Z</time></trkpt><trkpt lat="39.9266066" lon="16.3034833"><ele>1154.6666666666667</ele><time>2026-05-02T18:29:12.689Z</time></trkpt><trkpt lat="39.9265168" lon="16.3035239"><ele>1153.3333333333333</ele><time>2026-05-02T18:29:13.701Z</time></trkpt><trkpt lat="39.9264279" lon="16.3035735"><ele>1152.0</ele><time>2026-05-02T18:29:14.703Z</time></trkpt><trkpt lat="39.9263443" lon="16.3036347"><ele>1149.6</ele><time>2026-05-02T18:29:15.683Z</time></trkpt><trkpt lat="39.9262599" lon="16.3037021"><ele>1147.2</ele><time>2026-05-02T18:29:16.694Z</time></trkpt><trkpt lat="39.9261677" lon="16.3037663"><ele>1144.8</ele><time>2026-05-02T18:29:17.691Z</time></trkpt><trkpt lat="39.9260611" lon="16.3038339"><ele>1142.4</ele><time>2026-05-02T18:29:18.703Z</time></trkpt><trkpt lat="39.9259553" lon="16.3039021"><ele>1140.0</ele><time>2026-05-02T18:29:19.696Z</time></trkpt><trkpt lat="39.9258642" lon="16.3039566"><ele>1136.6</ele><time>2026-05-02T18:29:20.693Z</time></trkpt><trkpt lat="39.9257748" lon="16.3040095"><ele>1133.2</ele><time>2026-05-02T18:29:21.707Z</time></trkpt><trkpt lat="39.925687" lon="16.3040684"><ele>1129.8</ele><time>2026-05-02T18:29:22.705Z</time></trkpt><trkpt lat="39.9255963" lon="16.3041245"><ele>1126.4</ele><time>2026-05-02T18:29:23.705Z</time></trkpt><trkpt lat="39.925494" lon="16.3041698"><ele>1123.0</ele><time>2026-05-02T18:29:24.706Z</time></trkpt><trkpt lat="39.9253812" lon="16.3042108"><ele>1123.0</ele><time>2026-05-02T18:29:25.693Z</time></trkpt><trkpt lat="39.925263" lon="16.3042556"><ele>1123.0</ele><time>2026-05-02T18:29:26.699Z</time></trkpt><trkpt lat="39.9251494" lon="16.304297"><ele>1123.0</ele><time>2026-05-02T18:29:27.705Z</time></trkpt><trkpt lat="39.925052" lon="16.3043304"><ele>1123.0</ele><time>2026-05-02T18:29:28.715Z</time></trkpt><trkpt lat="39.9249651" lon="16.3043624"><ele>1123.0</ele><time>2026-05-02T18:29:29.7Z</time></trkpt><trkpt lat="39.9248762" lon="16.3043988"><ele>1120.0</ele><time>2026-05-02T18:29:30.686Z</time></trkpt><trkpt lat="39.9247882" lon="16.3044398"><ele>1117.0</ele><time>2026-05-02T18:29:31.695Z</time></trkpt><trkpt lat="39.9247105" lon="16.3044912"><ele>1114.0</ele><time>2026-05-02T18:29:32.709Z</time></trkpt><trkpt lat="39.9246278" lon="16.3045636"><ele>1111.0</ele><time>2026-05-02T18:29:33.695Z</time></trkpt><trkpt lat="39.924541" lon="16.3046414"><ele>1108.0</ele><time>2026-05-02T18:29:34.693Z</time></trkpt><trkpt lat="39.9244602" lon="16.3046943"><ele>1108.0</ele><time>2026-05-02T18:29:35.673Z</time></trkpt><trkpt lat="39.9243895" lon="16.3047308"><ele>1108.0</ele><time>2026-05-02T18:29:36.693Z</time></trkpt><trkpt lat="39.9243094" lon="16.3047612"><ele>1108.0</ele><time>2026-05-02T18:29:37.69Z</time></trkpt><trkpt lat="39.9242145" lon="16.304796"><ele>1108.0</ele><time>2026-05-02T18:29:38.69Z</time></trkpt><trkpt lat="39.9241169" lon="16.3048449"><ele>1108.0</ele><time>2026-05-02T18:29:39.708Z</time></trkpt><trkpt lat="39.9240196" lon="16.304909"><ele>1105.5</ele><time>2026-05-02T18:29:40.688Z</time></trkpt><trkpt lat="39.9239368" lon="16.3049743"><ele>1103.0</ele><time>2026-05-02T18:29:41.7Z</time></trkpt><trkpt lat="39.9238655" lon="16.3050241"><ele>1100.5</ele><time>2026-05-02T18:29:42.7Z</time></trkpt><trkpt lat="39.9238004" lon="16.3050681"><ele>1098.0</ele><time>2026-05-02T18:29:43.69Z</time></trkpt><trkpt lat="39.9237263" lon="16.3051091"><ele>1095.5</ele><time>2026-05-02T18:29:44.676Z</time></trkpt><trkpt lat="39.9236474" lon="16.3051406"><ele>1093.0</ele><time>2026-05-02T18:29:45.692Z</time></trkpt><trkpt lat="39.923558" lon="16.3051588"><ele>1093.0</ele><time>2026-05-02T18:29:46.688Z</time></trkpt><trkpt lat="39.9234685" lon="16.305169"><ele>1093.0</ele><time>2026-05-02T18:29:47.68Z</time></trkpt><trkpt lat="39.9234047" lon="16.3051778"><ele>1093.0</ele><time>2026-05-02T18:29:48.711Z</time></trkpt><trkpt lat="39.9233023" lon="16.3051712"><ele>1093.0</ele><time>2026-05-02T18:29:50.687Z</time></trkpt><trkpt lat="39.9231831" lon="16.3051235"><ele>1093.0</ele><time>2026-05-02T18:29:52.698Z</time></trkpt><trkpt lat="39.9231203" lon="16.3051085"><ele>1093.0</ele><time>2026-05-02T18:29:53.691Z</time></trkpt><trkpt lat="39.9230487" lon="16.3050995"><ele>1091.7142857142858</ele><time>2026-05-02T18:29:54.692Z</time></trkpt><trkpt lat="39.922971" lon="16.3050895"><ele>1090.4285714285713</ele><time>2026-05-02T18:29:55.726Z</time></trkpt><trkpt lat="39.9229011" lon="16.3050863"><ele>1089.142857142857</ele><time>2026-05-02T18:29:56.692Z</time></trkpt><trkpt lat="39.9228308" lon="16.3050812"><ele>1087.857142857143</ele><time>2026-05-02T18:29:57.703Z</time></trkpt><trkpt lat="39.9227524" lon="16.3050774"><ele>1086.5714285714287</ele><time>2026-05-02T18:29:58.702Z</time></trkpt><trkpt lat="39.9226697" lon="16.3050748"><ele>1085.2857142857142</ele><time>2026-05-02T18:29:59.689Z</time></trkpt><trkpt lat="39.9226011" lon="16.3050816"><ele>1084.0</ele><time>2026-05-02T18:30:00.705Z</time></trkpt><trkpt lat="39.9224741" lon="16.305138"><ele>1082.1666666666665</ele><time>2026-05-02T18:30:02.712Z</time></trkpt><trkpt lat="39.922413" lon="16.3051912"><ele>1080.3333333333333</ele><time>2026-05-02T18:30:03.691Z</time></trkpt><trkpt lat="39.9223534" lon="16.305253"><ele>1078.5</ele><time>2026-05-02T18:30:04.697Z</time></trkpt><trkpt lat="39.9222969" lon="16.3053364"><ele>1076.6666666666667</ele><time>2026-05-02T18:30:05.691Z</time></trkpt><trkpt lat="39.9222508" lon="16.305421"><ele>1074.8333333333335</ele><time>2026-05-02T18:30:06.695Z</time></trkpt><trkpt lat="39.9222119" lon="16.305497"><ele>1073.0</ele><time>2026-05-02T18:30:07.698Z</time></trkpt><trkpt lat="39.9221356" lon="16.3055902"><ele>1073.0</ele><time>2026-05-02T18:30:09.691Z</time></trkpt><trkpt lat="39.9220173" lon="16.3056052"><ele>1073.0</ele><time>2026-05-02T18:30:11.702Z</time></trkpt><trkpt lat="39.9219429" lon="16.3055725"><ele>1073.0</ele><time>2026-05-02T18:30:12.699Z</time></trkpt><trkpt lat="39.9218637" lon="16.3055312"><ele>1073.0</ele><time>2026-05-02T18:30:13.69Z</time></trkpt><trkpt lat="39.921797" lon="16.3054905"><ele>1073.0</ele><time>2026-05-02T18:30:14.704Z</time></trkpt><trkpt lat="39.921735" lon="16.3054012"><ele>1073.0</ele><time>2026-05-02T18:30:16.709Z</time></trkpt><trkpt lat="39.9217558" lon="16.3052697"><ele>1072.8333333333335</ele><time>2026-05-02T18:30:18.713Z</time></trkpt><trkpt lat="39.9218005" lon="16.3051952"><ele>1072.6666666666667</ele><time>2026-05-02T18:30:19.704Z</time></trkpt><trkpt lat="39.9218605" lon="16.3051245"><ele>1072.5</ele><time>2026-05-02T18:30:20.7Z</time></trkpt><trkpt lat="39.921887" lon="16.3050193"><ele>1072.3333333333333</ele><time>2026-05-02T18:30:21.704Z</time></trkpt><trkpt lat="39.9218989" lon="16.3049064"><ele>1072.1666666666665</ele><time>2026-05-02T18:30:22.693Z</time></trkpt><trkpt lat="39.9219161" lon="16.3048022"><ele>1072.0</ele><time>2026-05-02T18:30:23.711Z</time></trkpt><trkpt lat="39.9219212" lon="16.3047194"><ele>1071.3333333333333</ele><time>2026-05-02T18:30:24.68Z</time></trkpt><trkpt lat="39.9219162" lon="16.3045733"><ele>1070.6666666666665</ele><time>2026-05-02T18:30:26.685Z</time></trkpt><trkpt lat="39.9218985" lon="16.3044787"><ele>1070.0</ele><time>2026-05-02T18:30:27.659Z</time></trkpt><trkpt lat="39.9218752" lon="16.304379"><ele>1069.3333333333333</ele><time>2026-05-02T18:30:28.671Z</time></trkpt><trkpt lat="39.9218575" lon="16.3042848"><ele>1068.6666666666667</ele><time>2026-05-02T18:30:29.673Z</time></trkpt><trkpt lat="39.9217978" lon="16.3041728"><ele>1068.0</ele><time>2026-05-02T18:30:31.684Z</time></trkpt><trkpt lat="39.9216816" lon="16.3041334"><ele>1065.2</ele><time>2026-05-02T18:30:33.67Z</time></trkpt><trkpt lat="39.9215969" lon="16.3041212"><ele>1062.4</ele><time>2026-05-02T18:30:34.697Z</time></trkpt><trkpt lat="39.9214968" lon="16.304113"><ele>1059.6000000000001</ele><time>2026-05-02T18:30:35.687Z</time></trkpt><trkpt lat="39.9213993" lon="16.3041082"><ele>1056.8</ele><time>2026-05-02T18:30:36.686Z</time></trkpt><trkpt lat="39.921309" lon="16.3040922"><ele>1054.0</ele><time>2026-05-02T18:30:37.695Z</time></trkpt><trkpt lat="39.9212229" lon="16.3040592"><ele>1054.0</ele><time>2026-05-02T18:30:38.702Z</time></trkpt><trkpt lat="39.9211353" lon="16.3040139"><ele>1054.0</ele><time>2026-05-02T18:30:39.689Z</time></trkpt><trkpt lat="39.9210479" lon="16.30396"><ele>1054.0</ele><time>2026-05-02T18:30:40.687Z</time></trkpt><trkpt lat="39.92098" lon="16.3039139"><ele>1054.0</ele><time>2026-05-02T18:30:41.685Z</time></trkpt><trkpt lat="39.9209071" lon="16.3038135"><ele>1054.0</ele><time>2026-05-02T18:30:43.715Z</time></trkpt><trkpt lat="39.9208621" lon="16.3037319"><ele>1052.0</ele><time>2026-05-02T18:30:44.698Z</time></trkpt><trkpt lat="39.9208274" lon="16.3036216"><ele>1050.0</ele><time>2026-05-02T18:30:45.7Z</time></trkpt><trkpt lat="39.9207887" lon="16.3034931"><ele>1048.0</ele><time>2026-05-02T18:30:46.698Z</time></trkpt><trkpt lat="39.920749" lon="16.3033654"><ele>1046.0</ele><time>2026-05-02T18:30:47.71Z</time></trkpt><trkpt lat="39.9207135" lon="16.3032529"><ele>1044.0</ele><time>2026-05-02T18:30:48.701Z</time></trkpt><trkpt lat="39.9206763" lon="16.3031442"><ele>1044.0</ele><time>2026-05-02T18:30:49.717Z</time></trkpt><trkpt lat="39.9206311" lon="16.3030203"><ele>1044.0</ele><time>2026-05-02T18:30:50.704Z</time></trkpt><trkpt lat="39.9205853" lon="16.3028945"><ele>1044.0</ele><time>2026-05-02T18:30:51.701Z</time></trkpt><trkpt lat="39.9205427" lon="16.3027852"><ele>1044.0</ele><time>2026-05-02T18:30:52.688Z</time></trkpt><trkpt lat="39.9205043" lon="16.3026846"><ele>1044.0</ele><time>2026-05-02T18:30:53.698Z</time></trkpt><trkpt lat="39.9204707" lon="16.3025862"><ele>1044.0</ele><time>2026-05-02T18:30:54.689Z</time></trkpt><trkpt lat="39.9204391" lon="16.3024801"><ele>1044.0</ele><time>2026-05-02T18:30:55.697Z</time></trkpt><trkpt lat="39.9204135" lon="16.3023599"><ele>1044.0</ele><time>2026-05-02T18:30:56.702Z</time></trkpt><trkpt lat="39.9203943" lon="16.3022402"><ele>1044.0</ele><time>2026-05-02T18:30:57.699Z</time></trkpt><trkpt lat="39.9203772" lon="16.3021403"><ele>1044.0</ele><time>2026-05-02T18:30:58.71Z</time></trkpt><trkpt lat="39.9203532" lon="16.3020633"><ele>1044.0</ele><time>2026-05-02T18:30:59.685Z</time></trkpt><trkpt lat="39.9202787" lon="16.301947"><ele>1043.4</ele><time>2026-05-02T18:31:01.705Z</time></trkpt><trkpt lat="39.9202287" lon="16.3018949"><ele>1042.8000000000002</ele><time>2026-05-02T18:31:02.702Z</time></trkpt><trkpt lat="39.9201695" lon="16.3018436"><ele>1042.1999999999998</ele><time>2026-05-02T18:31:03.706Z</time></trkpt><trkpt lat="39.9201013" lon="16.3018129"><ele>1041.6</ele><time>2026-05-02T18:31:04.697Z</time></trkpt><trkpt lat="39.9199941" lon="16.3018304"><ele>1041.0</ele><time>2026-05-02T18:31:06.698Z</time></trkpt><trkpt lat="39.9198837" lon="16.3019446"><ele>1040.0</ele><time>2026-05-02T18:31:08.707Z</time></trkpt><trkpt lat="39.919819" lon="16.3020274"><ele>1039.0</ele><time>2026-05-02T18:31:09.694Z</time></trkpt><trkpt lat="39.9197483" lon="16.3021333"><ele>1038.0</ele><time>2026-05-02T18:31:10.699Z</time></trkpt><trkpt lat="39.9196756" lon="16.3022516"><ele>1037.0</ele><time>2026-05-02T18:31:11.702Z</time></trkpt><trkpt lat="39.9196044" lon="16.3023864"><ele>1036.0</ele><time>2026-05-02T18:31:12.696Z</time></trkpt><trkpt lat="39.9195418" lon="16.3025152"><ele>1034.6666666666665</ele><time>2026-05-02T18:31:13.683Z</time></trkpt><trkpt lat="39.9194819" lon="16.3026187"><ele>1033.3333333333333</ele><time>2026-05-02T18:31:14.701Z</time></trkpt><trkpt lat="39.9194441" lon="16.3027098"><ele>1032.0</ele><time>2026-05-02T18:31:15.695Z</time></trkpt><trkpt lat="39.9194105" lon="16.3027827"><ele>1030.6666666666667</ele><time>2026-05-02T18:31:16.698Z</time></trkpt><trkpt lat="39.9193334" lon="16.30288"><ele>1029.3333333333335</ele><time>2026-05-02T18:31:18.703Z</time></trkpt><trkpt lat="39.9192433" lon="16.302873"><ele>1028.0</ele><time>2026-05-02T18:31:20.686Z</time></trkpt><trkpt lat="39.9191522" lon="16.3027614"><ele>1027.6</ele><time>2026-05-02T18:31:22.671Z</time></trkpt><trkpt lat="39.9191134" lon="16.3026851"><ele>1027.1999999999998</ele><time>2026-05-02T18:31:23.663Z</time></trkpt><trkpt lat="39.919032" lon="16.3025895"><ele>1026.8</ele><time>2026-05-02T18:31:25.702Z</time></trkpt><trkpt lat="39.9189155" lon="16.302543"><ele>1026.3999999999999</ele><time>2026-05-02T18:31:27.686Z</time></trkpt><trkpt lat="39.9188339" lon="16.3025404"><ele>1026.0</ele><time>2026-05-02T18:31:28.71Z</time></trkpt><trkpt lat="39.9187285" lon="16.302541"><ele>1026.0</ele><time>2026-05-02T18:31:29.704Z</time></trkpt><trkpt lat="39.9186136" lon="16.3025438"><ele>1026.0</ele><time>2026-05-02T18:31:30.682Z</time></trkpt><trkpt lat="39.9184964" lon="16.3025551"><ele>1026.0</ele><time>2026-05-02T18:31:31.682Z</time></trkpt><trkpt lat="39.9183927" lon="16.3025759"><ele>1026.0</ele><time>2026-05-02T18:31:32.693Z</time></trkpt><trkpt lat="39.9182986" lon="16.3025894"><ele>1026.0</ele><time>2026-05-02T18:31:33.7Z</time></trkpt><trkpt lat="39.9182099" lon="16.3025946"><ele>1024.8</ele><time>2026-05-02T18:31:34.708Z</time></trkpt><trkpt lat="39.9181172" lon="16.3025883"><ele>1023.5999999999999</ele><time>2026-05-02T18:31:35.689Z</time></trkpt><trkpt lat="39.9180133" lon="16.3025731"><ele>1022.4</ele><time>2026-05-02T18:31:36.701Z</time></trkpt><trkpt lat="39.9179165" lon="16.3025607"><ele>1021.2</ele><time>2026-05-02T18:31:37.696Z</time></trkpt><trkpt lat="39.9178255" lon="16.3025595"><ele>1020.0</ele><time>2026-05-02T18:31:38.723Z</time></trkpt><trkpt lat="39.9177359" lon="16.3025752"><ele>1020.0</ele><time>2026-05-02T18:31:39.699Z</time></trkpt><trkpt lat="39.9176403" lon="16.3025982"><ele>1020.0</ele><time>2026-05-02T18:31:40.698Z</time></trkpt><trkpt lat="39.9175506" lon="16.3026206"><ele>1020.0</ele><time>2026-05-02T18:31:41.701Z</time></trkpt><trkpt lat="39.917464" lon="16.302647"><ele>1020.0</ele><time>2026-05-02T18:31:42.682Z</time></trkpt><trkpt lat="39.9173722" lon="16.302692"><ele>1020.0</ele><time>2026-05-02T18:31:43.697Z</time></trkpt><trkpt lat="39.9172716" lon="16.3027422"><ele>1019.25</ele><time>2026-05-02T18:31:44.695Z</time></trkpt><trkpt lat="39.9171609" lon="16.3028059"><ele>1018.5</ele><time>2026-05-02T18:31:45.711Z</time></trkpt><trkpt lat="39.9170441" lon="16.3028769"><ele>1017.75</ele><time>2026-05-02T18:31:46.699Z</time></trkpt><trkpt lat="39.9169363" lon="16.3029436"><ele>1017.0</ele><time>2026-05-02T18:31:47.697Z</time></trkpt><trkpt lat="39.9168535" lon="16.3030011"><ele>1017.0</ele><time>2026-05-02T18:31:48.714Z</time></trkpt><trkpt lat="39.9167825" lon="16.3030604"><ele>1017.0</ele><time>2026-05-02T18:31:49.682Z</time></trkpt><trkpt lat="39.916719" lon="16.3031276"><ele>1017.0</ele><time>2026-05-02T18:31:50.705Z</time></trkpt><trkpt lat="39.9166556" lon="16.3031825"><ele>1017.0</ele><time>2026-05-02T18:31:51.694Z</time></trkpt><trkpt lat="39.9165438" lon="16.3032462"><ele>1017.0</ele><time>2026-05-02T18:31:53.691Z</time></trkpt><trkpt lat="39.9164701" lon="16.3032661"><ele>1017.0</ele><time>2026-05-02T18:31:54.704Z</time></trkpt><trkpt lat="39.9163775" lon="16.3032868"><ele>1015.6</ele><time>2026-05-02T18:31:55.686Z</time></trkpt><trkpt lat="39.9162801" lon="16.3033162"><ele>1014.2</ele><time>2026-05-02T18:31:56.7Z</time></trkpt><trkpt lat="39.916182" lon="16.3033458"><ele>1012.8</ele><time>2026-05-02T18:31:57.701Z</time></trkpt><trkpt lat="39.9160806" lon="16.3033557"><ele>1011.4</ele><time>2026-05-02T18:31:58.697Z</time></trkpt><trkpt lat="39.9159713" lon="16.303365"><ele>1010.0</ele><time>2026-05-02T18:31:59.699Z</time></trkpt><trkpt lat="39.9158538" lon="16.3033729"><ele>1010.0</ele><time>2026-05-02T18:32:00.699Z</time></trkpt><trkpt lat="39.9157355" lon="16.3033917"><ele>1010.0</ele><time>2026-05-02T18:32:01.685Z</time></trkpt><trkpt lat="39.9156144" lon="16.3034082"><ele>1010.0</ele><time>2026-05-02T18:32:02.71Z</time></trkpt><trkpt lat="39.9155072" lon="16.3034207"><ele>1010.0</ele><time>2026-05-02T18:32:03.695Z</time></trkpt><trkpt lat="39.9154296" lon="16.303428"><ele>1010.0</ele><time>2026-05-02T18:32:04.701Z</time></trkpt><trkpt lat="39.9153583" lon="16.3034322"><ele>1010.0000000000001</ele><time>2026-05-02T18:32:05.693Z</time></trkpt><trkpt lat="39.9152909" lon="16.3034227"><ele>1010.0</ele><time>2026-05-02T18:32:06.709Z</time></trkpt><trkpt lat="39.9152274" lon="16.3034018"><ele>1010.0</ele><time>2026-05-02T18:32:07.698Z</time></trkpt><trkpt lat="39.9151224" lon="16.30332"><ele>1010.0</ele><time>2026-05-02T18:32:09.689Z</time></trkpt><trkpt lat="39.9150777" lon="16.3032462"><ele>1010.0000000000001</ele><time>2026-05-02T18:32:10.682Z</time></trkpt><trkpt lat="39.9150301" lon="16.3031675"><ele>1010.0</ele><time>2026-05-02T18:32:11.695Z</time></trkpt><trkpt lat="39.9149799" lon="16.3030875"><ele>1010.6</ele><time>2026-05-02T18:32:12.683Z</time></trkpt><trkpt lat="39.9149338" lon="16.3030189"><ele>1011.2</ele><time>2026-05-02T18:32:13.701Z</time></trkpt><trkpt lat="39.9148373" lon="16.3029501"><ele>1011.8</ele><time>2026-05-02T18:32:15.697Z</time></trkpt><trkpt lat="39.914728" lon="16.3029"><ele>1012.4</ele><time>2026-05-02T18:32:17.701Z</time></trkpt><trkpt lat="39.9146646" lon="16.3028846"><ele>1013.0</ele><time>2026-05-02T18:32:18.693Z</time></trkpt><trkpt lat="39.9145413" lon="16.3028895"><ele>1013.0</ele><time>2026-05-02T18:32:20.7Z</time></trkpt><trkpt lat="39.9144702" lon="16.3029186"><ele>1013.0000000000001</ele><time>2026-05-02T18:32:21.7Z</time></trkpt><trkpt lat="39.9143973" lon="16.3029506"><ele>1013.0</ele><time>2026-05-02T18:32:22.702Z</time></trkpt><trkpt lat="39.9143405" lon="16.3029882"><ele>1013.0</ele><time>2026-05-02T18:32:23.699Z</time></trkpt><trkpt lat="39.9142969" lon="16.3030479"><ele>1013.0000000000001</ele><time>2026-05-02T18:32:24.701Z</time></trkpt><trkpt lat="39.9142614" lon="16.3031229"><ele>1013.0</ele><time>2026-05-02T18:32:25.681Z</time></trkpt><trkpt lat="39.9142229" lon="16.3032118"><ele>1013.0</ele><time>2026-05-02T18:32:26.687Z</time></trkpt><trkpt lat="39.9141778" lon="16.3032914"><ele>1011.3333333333334</ele><time>2026-05-02T18:32:27.701Z</time></trkpt><trkpt lat="39.9141259" lon="16.3033618"><ele>1009.6666666666667</ele><time>2026-05-02T18:32:28.699Z</time></trkpt><trkpt lat="39.9140678" lon="16.3034234"><ele>1008.0</ele><time>2026-05-02T18:32:29.694Z</time></trkpt><trkpt lat="39.9140018" lon="16.3034733"><ele>1006.3333333333333</ele><time>2026-05-02T18:32:30.702Z</time></trkpt><trkpt lat="39.9139393" lon="16.3035114"><ele>1004.6666666666666</ele><time>2026-05-02T18:32:31.694Z</time></trkpt><trkpt lat="39.9138167" lon="16.303574"><ele>1003.0</ele><time>2026-05-02T18:32:33.699Z</time></trkpt><trkpt lat="39.91374" lon="16.3036172"><ele>1003.0</ele><time>2026-05-02T18:32:34.703Z</time></trkpt><trkpt lat="39.9136577" lon="16.3036652"><ele>1003.0</ele><time>2026-05-02T18:32:35.708Z</time></trkpt><trkpt lat="39.9135698" lon="16.3037124"><ele>1003.0</ele><time>2026-05-02T18:32:36.708Z</time></trkpt><trkpt lat="39.9134707" lon="16.3037616"><ele>1003.0</ele><time>2026-05-02T18:32:37.709Z</time></trkpt><trkpt lat="39.9133726" lon="16.3038171"><ele>1003.0</ele><time>2026-05-02T18:32:38.687Z</time></trkpt><trkpt lat="39.9132849" lon="16.3038738"><ele>1001.8333333333333</ele><time>2026-05-02T18:32:39.706Z</time></trkpt><trkpt lat="39.9132096" lon="16.3039219"><ele>1000.6666666666666</ele><time>2026-05-02T18:32:40.7Z</time></trkpt><trkpt lat="39.9131352" lon="16.3039611"><ele>999.5</ele><time>2026-05-02T18:32:41.678Z</time></trkpt><trkpt lat="39.9130679" lon="16.3039816"><ele>998.3333333333333</ele><time>2026-05-02T18:32:42.699Z</time></trkpt><trkpt lat="39.9129428" lon="16.3039747"><ele>997.1666666666666</ele><time>2026-05-02T18:32:44.697Z</time></trkpt><trkpt lat="39.9128671" lon="16.3039549"><ele>996.0</ele><time>2026-05-02T18:32:45.7Z</time></trkpt><trkpt lat="39.9127752" lon="16.3039235"><ele>998.8</ele><time>2026-05-02T18:32:46.701Z</time></trkpt><trkpt lat="39.9126732" lon="16.3038894"><ele>1001.5999999999999</ele><time>2026-05-02T18:32:47.703Z</time></trkpt><trkpt lat="39.9125749" lon="16.3038642"><ele>1004.4</ele><time>2026-05-02T18:32:48.686Z</time></trkpt><trkpt lat="39.9124806" lon="16.3038452"><ele>1007.2</ele><time>2026-05-02T18:32:49.71Z</time></trkpt><trkpt lat="39.9123827" lon="16.3038369"><ele>1010.0</ele><time>2026-05-02T18:32:50.693Z</time></trkpt><trkpt lat="39.9122805" lon="16.3038331"><ele>1010.0000000000001</ele><time>2026-05-02T18:32:51.693Z</time></trkpt><trkpt lat="39.9121794" lon="16.3038335"><ele>1010.0</ele><time>2026-05-02T18:32:52.71Z</time></trkpt><trkpt lat="39.9120911" lon="16.3038448"><ele>1010.0</ele><time>2026-05-02T18:32:53.702Z</time></trkpt><trkpt lat="39.9120136" lon="16.3038502"><ele>1010.0</ele><time>2026-05-02T18:32:54.674Z</time></trkpt><trkpt lat="39.911946" lon="16.303863"><ele>1010.0000000000001</ele><time>2026-05-02T18:32:55.689Z</time></trkpt><trkpt lat="39.9118758" lon="16.3038808"><ele>1010.0</ele><time>2026-05-02T18:32:56.688Z</time></trkpt><trkpt lat="39.9117971" lon="16.3039015"><ele>1005.8</ele><time>2026-05-02T18:32:57.704Z</time></trkpt><trkpt lat="39.9117117" lon="16.3039279"><ele>1001.6</ele><time>2026-05-02T18:32:58.703Z</time></trkpt><trkpt lat="39.9116197" lon="16.3039526"><ele>997.4000000000001</ele><time>2026-05-02T18:32:59.705Z</time></trkpt><trkpt lat="39.9115371" lon="16.3039851"><ele>993.2</ele><time>2026-05-02T18:33:00.698Z</time></trkpt><trkpt lat="39.9114535" lon="16.3040192"><ele>989.0</ele><time>2026-05-02T18:33:01.69Z</time></trkpt><trkpt lat="39.9113595" lon="16.3040512"><ele>989.0</ele><time>2026-05-02T18:33:02.706Z</time></trkpt><trkpt lat="39.9111399" lon="16.3041267"><ele>989.0</ele><time>2026-05-02T18:33:04.668Z</time></trkpt><trkpt lat="39.9110495" lon="16.3041641"><ele>989.0</ele><time>2026-05-02T18:33:05.696Z</time></trkpt><trkpt lat="39.9109778" lon="16.304193"><ele>989.0</ele><time>2026-05-02T18:33:06.691Z</time></trkpt><trkpt lat="39.9109129" lon="16.3042279"><ele>988.8000000000001</ele><time>2026-05-02T18:33:07.693Z</time></trkpt><trkpt lat="39.9108384" lon="16.3042638"><ele>988.6000000000001</ele><time>2026-05-02T18:33:08.703Z</time></trkpt><trkpt lat="39.9107586" lon="16.3043052"><ele>988.4</ele><time>2026-05-02T18:33:09.698Z</time></trkpt><trkpt lat="39.9106798" lon="16.3043567"><ele>988.2</ele><time>2026-05-02T18:33:10.721Z</time></trkpt><trkpt lat="39.910594" lon="16.3044278"><ele>988.0</ele><time>2026-05-02T18:33:11.708Z</time></trkpt><trkpt lat="39.9104898" lon="16.3045116"><ele>988.0</ele><time>2026-05-02T18:33:12.719Z</time></trkpt><trkpt lat="39.9103821" lon="16.3045996"><ele>988.0</ele><time>2026-05-02T18:33:13.686Z</time></trkpt><trkpt lat="39.9102887" lon="16.3046808"><ele>988.0</ele><time>2026-05-02T18:33:14.705Z</time></trkpt><trkpt lat="39.9102122" lon="16.3047482"><ele>988.0</ele><time>2026-05-02T18:33:15.695Z</time></trkpt><trkpt lat="39.9101332" lon="16.3048084"><ele>988.0</ele><time>2026-05-02T18:33:16.692Z</time></trkpt><trkpt lat="39.9100495" lon="16.3048641"><ele>985.0</ele><time>2026-05-02T18:33:17.689Z</time></trkpt><trkpt lat="39.9099589" lon="16.3049059"><ele>982.0</ele><time>2026-05-02T18:33:18.702Z</time></trkpt><trkpt lat="39.9098544" lon="16.3049413"><ele>979.0</ele><time>2026-05-02T18:33:19.693Z</time></trkpt><trkpt lat="39.9097385" lon="16.3049851"><ele>976.0</ele><time>2026-05-02T18:33:20.707Z</time></trkpt><trkpt lat="39.9096389" lon="16.3050268"><ele>973.0</ele><time>2026-05-02T18:33:21.688Z</time></trkpt><trkpt lat="39.9095614" lon="16.3050473"><ele>972.9999999999999</ele><time>2026-05-02T18:33:22.698Z</time></trkpt><trkpt lat="39.9094888" lon="16.3050491"><ele>973.0</ele><time>2026-05-02T18:33:23.711Z</time></trkpt><trkpt lat="39.9094237" lon="16.3050334"><ele>973.0</ele><time>2026-05-02T18:33:24.729Z</time></trkpt><trkpt lat="39.9093225" lon="16.3050422"><ele>973.0</ele><time>2026-05-02T18:33:26.692Z</time></trkpt><trkpt lat="39.9092387" lon="16.3051037"><ele>972.9999999999999</ele><time>2026-05-02T18:33:28.669Z</time></trkpt><trkpt lat="39.9091602" lon="16.3051922"><ele>973.0</ele><time>2026-05-02T18:33:30.717Z</time></trkpt><trkpt lat="39.9090959" lon="16.3053058"><ele>972.0</ele><time>2026-05-02T18:33:32.719Z</time></trkpt><trkpt lat="39.9090622" lon="16.305437"><ele>971.0</ele><time>2026-05-02T18:33:34.712Z</time></trkpt><trkpt lat="39.9090375" lon="16.3055763"><ele>970.0</ele><time>2026-05-02T18:33:36.683Z</time></trkpt><trkpt lat="39.9089903" lon="16.3056934"><ele>969.0</ele><time>2026-05-02T18:33:38.714Z</time></trkpt><trkpt lat="39.9089426" lon="16.3057499"><ele>968.0</ele><time>2026-05-02T18:33:39.67Z</time></trkpt><trkpt lat="39.9088713" lon="16.3058145"><ele>965.8</ele><time>2026-05-02T18:33:40.703Z</time></trkpt><trkpt lat="39.9087837" lon="16.3058833"><ele>963.5999999999999</ele><time>2026-05-02T18:33:41.704Z</time></trkpt><trkpt lat="39.9086991" lon="16.3059438"><ele>961.4000000000001</ele><time>2026-05-02T18:33:42.702Z</time></trkpt><trkpt lat="39.9086244" lon="16.3059996"><ele>959.2</ele><time>2026-05-02T18:33:43.721Z</time></trkpt><trkpt lat="39.908547" lon="16.3060497"><ele>957.0</ele><time>2026-05-02T18:33:44.698Z</time></trkpt><trkpt lat="39.9084671" lon="16.3061126"><ele>955.6</ele><time>2026-05-02T18:33:45.712Z</time></trkpt><trkpt lat="39.908374" lon="16.3061841"><ele>954.2</ele><time>2026-05-02T18:33:46.706Z</time></trkpt><trkpt lat="39.9082724" lon="16.3062629"><ele>952.8</ele><time>2026-05-02T18:33:47.696Z</time></trkpt><trkpt lat="39.9081803" lon="16.3063477"><ele>951.4</ele><time>2026-05-02T18:33:48.67Z</time></trkpt><trkpt lat="39.9081071" lon="16.3064324"><ele>950.0</ele><time>2026-05-02T18:33:49.683Z</time></trkpt><trkpt lat="39.9080433" lon="16.3065001"><ele>948.3333333333334</ele><time>2026-05-02T18:33:50.696Z</time></trkpt><trkpt lat="39.9079855" lon="16.3065522"><ele>946.6666666666667</ele><time>2026-05-02T18:33:51.693Z</time></trkpt><trkpt lat="39.9078969" lon="16.3066773"><ele>945.0</ele><time>2026-05-02T18:33:53.7Z</time></trkpt><trkpt lat="39.9078644" lon="16.3067611"><ele>943.3333333333333</ele><time>2026-05-02T18:33:54.69Z</time></trkpt><trkpt lat="39.9078388" lon="16.3068573"><ele>941.6666666666666</ele><time>2026-05-02T18:33:55.682Z</time></trkpt><trkpt lat="39.9078134" lon="16.3069628"><ele>940.0</ele><time>2026-05-02T18:33:56.677Z</time></trkpt><trkpt lat="39.9077837" lon="16.3070563"><ele>939.9999999999999</ele><time>2026-05-02T18:33:57.698Z</time></trkpt><trkpt lat="39.9077152" lon="16.3071677"><ele>940.0</ele><time>2026-05-02T18:33:59.691Z</time></trkpt><trkpt lat="39.9076658" lon="16.3072195"><ele>940.0</ele><time>2026-05-02T18:34:00.699Z</time></trkpt><trkpt lat="39.9076028" lon="16.3072701"><ele>940.0</ele><time>2026-05-02T18:34:01.704Z</time></trkpt><trkpt lat="39.9075369" lon="16.3073307"><ele>939.9999999999999</ele><time>2026-05-02T18:34:02.7Z</time></trkpt><trkpt lat="39.9074773" lon="16.3073854"><ele>940.0</ele><time>2026-05-02T18:34:03.707Z</time></trkpt><trkpt lat="39.9074063" lon="16.3075167"><ele>937.6666666666666</ele><time>2026-05-02T18:34:05.714Z</time></trkpt><trkpt lat="39.9073754" lon="16.3075989"><ele>935.3333333333333</ele><time>2026-05-02T18:34:06.692Z</time></trkpt><trkpt lat="39.9073457" lon="16.3076757"><ele>933.0</ele><time>2026-05-02T18:34:07.714Z</time></trkpt><trkpt lat="39.9072931" lon="16.3077895"><ele>930.6666666666667</ele><time>2026-05-02T18:34:09.702Z</time></trkpt><trkpt lat="39.9072392" lon="16.3078687"><ele>928.3333333333334</ele><time>2026-05-02T18:34:11.685Z</time></trkpt><trkpt lat="39.9071462" lon="16.3079512"><ele>926.0</ele><time>2026-05-02T18:34:13.714Z</time></trkpt><trkpt lat="39.9070843" lon="16.3080233"><ele>923.5999999999999</ele><time>2026-05-02T18:34:14.719Z</time></trkpt><trkpt lat="39.907034" lon="16.3081125"><ele>921.1999999999999</ele><time>2026-05-02T18:34:15.693Z</time></trkpt><trkpt lat="39.9069847" lon="16.3082194"><ele>918.8000000000001</ele><time>2026-05-02T18:34:16.708Z</time></trkpt><trkpt lat="39.9069262" lon="16.308349"><ele>916.4000000000001</ele><time>2026-05-02T18:34:17.709Z</time></trkpt><trkpt lat="39.9068618" lon="16.3084792"><ele>914.0</ele><time>2026-05-02T18:34:18.691Z</time></trkpt><trkpt lat="39.9068001" lon="16.3086033"><ele>913.3333333333334</ele><time>2026-05-02T18:34:19.688Z</time></trkpt><trkpt lat="39.9067376" lon="16.308721"><ele>912.6666666666667</ele><time>2026-05-02T18:34:20.698Z</time></trkpt><trkpt lat="39.9066833" lon="16.3088231"><ele>912.0</ele><time>2026-05-02T18:34:21.705Z</time></trkpt><trkpt lat="39.90664" lon="16.308899"><ele>911.3333333333333</ele><time>2026-05-02T18:34:22.691Z</time></trkpt><trkpt lat="39.9065875" lon="16.3089779"><ele>910.6666666666666</ele><time>2026-05-02T18:34:24.703Z</time></trkpt><trkpt lat="39.9065485" lon="16.3090447"><ele>910.0</ele><time>2026-05-02T18:34:26.701Z</time></trkpt><trkpt lat="39.9065013" lon="16.3091512"><ele>907.8333333333333</ele><time>2026-05-02T18:34:28.689Z</time></trkpt><trkpt lat="39.9064629" lon="16.3092209"><ele>905.6666666666666</ele><time>2026-05-02T18:34:29.683Z</time></trkpt><trkpt lat="39.9064175" lon="16.3093071"><ele>903.5</ele><time>2026-05-02T18:34:30.699Z</time></trkpt><trkpt lat="39.9063565" lon="16.3093978"><ele>901.3333333333333</ele><time>2026-05-02T18:34:31.703Z</time></trkpt><trkpt lat="39.9062915" lon="16.3094718"><ele>899.1666666666666</ele><time>2026-05-02T18:34:32.687Z</time></trkpt><trkpt lat="39.9062222" lon="16.3095271"><ele>897.0</ele><time>2026-05-02T18:34:33.691Z</time></trkpt><trkpt lat="39.9061497" lon="16.3095806"><ele>897.0</ele><time>2026-05-02T18:34:34.709Z</time></trkpt><trkpt lat="39.9060681" lon="16.3096255"><ele>897.0</ele><time>2026-05-02T18:34:35.703Z</time></trkpt><trkpt lat="39.9059898" lon="16.3096814"><ele>897.0</ele><time>2026-05-02T18:34:36.691Z</time></trkpt><trkpt lat="39.9059152" lon="16.3097606"><ele>897.0</ele><time>2026-05-02T18:34:37.71Z</time></trkpt><trkpt lat="39.9058588" lon="16.3098485"><ele>897.0</ele><time>2026-05-02T18:34:38.695Z</time></trkpt><trkpt lat="39.9058198" lon="16.3099348"><ele>897.0</ele><time>2026-05-02T18:34:39.684Z</time></trkpt><trkpt lat="39.9057891" lon="16.3100282"><ele>896.5</ele><time>2026-05-02T18:34:40.685Z</time></trkpt><trkpt lat="39.9057514" lon="16.3101425"><ele>896.0</ele><time>2026-05-02T18:34:41.69Z</time></trkpt><trkpt lat="39.9057123" lon="16.3102511"><ele>895.5</ele><time>2026-05-02T18:34:42.697Z</time></trkpt><trkpt lat="39.9056865" lon="16.3103484"><ele>895.0</ele><time>2026-05-02T18:34:43.7Z</time></trkpt><trkpt lat="39.9056678" lon="16.3104459"><ele>894.5</ele><time>2026-05-02T18:34:44.703Z</time></trkpt><trkpt lat="39.9056642" lon="16.310562"><ele>894.0</ele><time>2026-05-02T18:34:45.697Z</time></trkpt><trkpt lat="39.9056702" lon="16.3106938"><ele>893.1666666666666</ele><time>2026-05-02T18:34:46.701Z</time></trkpt><trkpt lat="39.9056913" lon="16.3108283"><ele>892.3333333333333</ele><time>2026-05-02T18:34:47.705Z</time></trkpt><trkpt lat="39.9057052" lon="16.3109416"><ele>891.5</ele><time>2026-05-02T18:34:48.706Z</time></trkpt><trkpt lat="39.9057236" lon="16.3110404"><ele>890.6666666666666</ele><time>2026-05-02T18:34:49.677Z</time></trkpt><trkpt lat="39.9057194" lon="16.3111255"><ele>889.8333333333333</ele><time>2026-05-02T18:34:50.697Z</time></trkpt><trkpt lat="39.9056646" lon="16.3112497"><ele>889.0</ele><time>2026-05-02T18:34:52.7Z</time></trkpt><trkpt lat="39.9055654" lon="16.3112893"><ele>888.9999999999999</ele><time>2026-05-02T18:34:54.703Z</time></trkpt><trkpt lat="39.9054957" lon="16.31127"><ele>889.0</ele><time>2026-05-02T18:34:55.725Z</time></trkpt><trkpt lat="39.9054332" lon="16.3112346"><ele>889.0</ele><time>2026-05-02T18:34:56.694Z</time></trkpt><trkpt lat="39.9053636" lon="16.3111779"><ele>889.0</ele><time>2026-05-02T18:34:57.704Z</time></trkpt><trkpt lat="39.9052883" lon="16.311141"><ele>888.9999999999999</ele><time>2026-05-02T18:34:58.709Z</time></trkpt><trkpt lat="39.9052155" lon="16.3111293"><ele>889.0</ele><time>2026-05-02T18:34:59.706Z</time></trkpt><trkpt lat="39.9051403" lon="16.3111409"><ele>888.8333333333333</ele><time>2026-05-02T18:35:00.706Z</time></trkpt><trkpt lat="39.9050693" lon="16.3111738"><ele>888.6666666666666</ele><time>2026-05-02T18:35:01.711Z</time></trkpt><trkpt lat="39.9049952" lon="16.3112151"><ele>888.5</ele><time>2026-05-02T18:35:02.71Z</time></trkpt><trkpt lat="39.9049203" lon="16.3112842"><ele>888.3333333333333</ele><time>2026-05-02T18:35:03.692Z</time></trkpt><trkpt lat="39.9048586" lon="16.3113503"><ele>888.1666666666666</ele><time>2026-05-02T18:35:04.706Z</time></trkpt><trkpt lat="39.9048015" lon="16.3114003"><ele>888.0</ele><time>2026-05-02T18:35:05.713Z</time></trkpt><trkpt lat="39.9046834" lon="16.3114233"><ele>888.0</ele><time>2026-05-02T18:35:07.719Z</time></trkpt><trkpt lat="39.9046201" lon="16.3114023"><ele>888.0</ele><time>2026-05-02T18:35:08.675Z</time></trkpt><trkpt lat="39.9045565" lon="16.3113608"><ele>888.0</ele><time>2026-05-02T18:35:09.692Z</time></trkpt><trkpt lat="39.9045041" lon="16.3113115"><ele>888.0</ele><time>2026-05-02T18:35:10.708Z</time></trkpt><trkpt lat="39.9044294" lon="16.311195"><ele>888.0</ele><time>2026-05-02T18:35:12.697Z</time></trkpt><trkpt lat="39.9044044" lon="16.3111147"><ele>888.0</ele><time>2026-05-02T18:35:13.712Z</time></trkpt><trkpt lat="39.9043934" lon="16.3110083"><ele>888.0</ele><time>2026-05-02T18:35:14.692Z</time></trkpt><trkpt lat="39.9043855" lon="16.310897"><ele>888.0</ele><time>2026-05-02T18:35:15.709Z</time></trkpt><trkpt lat="39.9043872" lon="16.3107907"><ele>888.0</ele><time>2026-05-02T18:35:16.707Z</time></trkpt><trkpt lat="39.9043982" lon="16.3106797"><ele>888.0</ele><time>2026-05-02T18:35:17.702Z</time></trkpt><trkpt lat="39.9044051" lon="16.3105674"><ele>888.0</ele><time>2026-05-02T18:35:18.708Z</time></trkpt><trkpt lat="39.9044071" lon="16.3104701"><ele>888.0</ele><time>2026-05-02T18:35:19.708Z</time></trkpt><trkpt lat="39.9044018" lon="16.3103866"><ele>888.4285714285714</ele><time>2026-05-02T18:35:20.712Z</time></trkpt><trkpt lat="39.9043898" lon="16.3102989"><ele>888.8571428571429</ele><time>2026-05-02T18:35:21.698Z</time></trkpt><trkpt lat="39.9043701" lon="16.3102067"><ele>889.2857142857143</ele><time>2026-05-02T18:35:22.706Z</time></trkpt><trkpt lat="39.9043452" lon="16.3101259"><ele>889.7142857142858</ele><time>2026-05-02T18:35:23.701Z</time></trkpt><trkpt lat="39.9043036" lon="16.310051"><ele>890.1428571428571</ele><time>2026-05-02T18:35:24.703Z</time></trkpt><trkpt lat="39.9042468" lon="16.3099736"><ele>890.5714285714287</ele><time>2026-05-02T18:35:25.685Z</time></trkpt><trkpt lat="39.9041831" lon="16.3099052"><ele>891.0</ele><time>2026-05-02T18:35:26.695Z</time></trkpt><trkpt lat="39.9041239" lon="16.3098536"><ele>887.0</ele><time>2026-05-02T18:35:27.706Z</time></trkpt><trkpt lat="39.9040641" lon="16.3098253"><ele>883.0</ele><time>2026-05-02T18:35:28.694Z</time></trkpt><trkpt lat="39.903996" lon="16.3098182"><ele>879.0</ele><time>2026-05-02T18:35:29.712Z</time></trkpt><trkpt lat="39.903915" lon="16.3098255"><ele>875.0</ele><time>2026-05-02T18:35:30.718Z</time></trkpt><trkpt lat="39.903844" lon="16.3098364"><ele>871.0</ele><time>2026-05-02T18:35:31.696Z</time></trkpt><trkpt lat="39.9037248" lon="16.3098192"><ele>867.0</ele><time>2026-05-02T18:35:33.716Z</time></trkpt><trkpt lat="39.9036644" lon="16.3097765"><ele>867.5</ele><time>2026-05-02T18:35:34.705Z</time></trkpt><trkpt lat="39.9035712" lon="16.3097068"><ele>868.0</ele><time>2026-05-02T18:35:36.703Z</time></trkpt><trkpt lat="39.9034616" lon="16.30963"><ele>868.5</ele><time>2026-05-02T18:35:38.704Z</time></trkpt><trkpt lat="39.903406" lon="16.3095806"><ele>869.0</ele><time>2026-05-02T18:35:39.703Z</time></trkpt><trkpt lat="39.9033534" lon="16.3095309"><ele>869.5</ele><time>2026-05-02T18:35:40.703Z</time></trkpt><trkpt lat="39.9032978" lon="16.3094803"><ele>870.0</ele><time>2026-05-02T18:35:41.721Z</time></trkpt><trkpt lat="39.9032299" lon="16.3094119"><ele>866.6</ele><time>2026-05-02T18:35:42.721Z</time></trkpt><trkpt lat="39.9031465" lon="16.3093358"><ele>863.2</ele><time>2026-05-02T18:35:43.709Z</time></trkpt><trkpt lat="39.903057" lon="16.3092498"><ele>859.8</ele><time>2026-05-02T18:35:44.714Z</time></trkpt><trkpt lat="39.9029682" lon="16.3091697"><ele>856.4</ele><time>2026-05-02T18:35:45.713Z</time></trkpt><trkpt lat="39.9028791" lon="16.3091121"><ele>853.0</ele><time>2026-05-02T18:35:46.704Z</time></trkpt><trkpt lat="39.9027899" lon="16.309064"><ele>852.9999999999999</ele><time>2026-05-02T18:35:47.707Z</time></trkpt><trkpt lat="39.9027016" lon="16.3090329"><ele>853.0</ele><time>2026-05-02T18:35:48.716Z</time></trkpt><trkpt lat="39.902611" lon="16.3090085"><ele>853.0</ele><time>2026-05-02T18:35:49.701Z</time></trkpt><trkpt lat="39.9025252" lon="16.3089728"><ele>853.0</ele><time>2026-05-02T18:35:50.704Z</time></trkpt><trkpt lat="39.9024436" lon="16.3089293"><ele>852.9999999999999</ele><time>2026-05-02T18:35:51.718Z</time></trkpt><trkpt lat="39.9023691" lon="16.3088777"><ele>853.0</ele><time>2026-05-02T18:35:52.689Z</time></trkpt><trkpt lat="39.9023081" lon="16.3088195"><ele>853.3333333333333</ele><time>2026-05-02T18:35:53.715Z</time></trkpt><trkpt lat="39.9022504" lon="16.3087464"><ele>853.6666666666666</ele><time>2026-05-02T18:35:54.697Z</time></trkpt><trkpt lat="39.9021992" lon="16.3086657"><ele>854.0</ele><time>2026-05-02T18:35:55.715Z</time></trkpt><trkpt lat="39.9021588" lon="16.3085671"><ele>854.3333333333333</ele><time>2026-05-02T18:35:56.698Z</time></trkpt><trkpt lat="39.9021204" lon="16.3084669"><ele>854.6666666666666</ele><time>2026-05-02T18:35:57.707Z</time></trkpt><trkpt lat="39.9020779" lon="16.3083822"><ele>855.0</ele><time>2026-05-02T18:35:58.699Z</time></trkpt><trkpt lat="39.9020328" lon="16.3083186"><ele>855.0</ele><time>2026-05-02T18:35:59.71Z</time></trkpt><trkpt lat="39.9019709" lon="16.3082634"><ele>855.0</ele><time>2026-05-02T18:36:00.691Z</time></trkpt><trkpt lat="39.9018942" lon="16.3081987"><ele>855.0</ele><time>2026-05-02T18:36:01.693Z</time></trkpt><trkpt lat="39.9018156" lon="16.3081294"><ele>855.0</ele><time>2026-05-02T18:36:02.687Z</time></trkpt><trkpt lat="39.9017556" lon="16.3080715"><ele>855.0</ele><time>2026-05-02T18:36:03.707Z</time></trkpt><trkpt lat="39.9016784" lon="16.30802"><ele>855.0</ele><time>2026-05-02T18:36:05.697Z</time></trkpt><trkpt lat="39.9016566" lon="16.3080993"><ele>855.0</ele><time>2026-05-02T18:36:07.695Z</time></trkpt><trkpt lat="39.9017273" lon="16.3081978"><ele>855.0</ele><time>2026-05-02T18:36:09.69Z</time></trkpt><trkpt lat="39.9017732" lon="16.3082587"><ele>855.0</ele><time>2026-05-02T18:36:10.696Z</time></trkpt><trkpt lat="39.9018182" lon="16.3083197"><ele>855.0</ele><time>2026-05-02T18:36:11.714Z</time></trkpt><trkpt lat="39.9018641" lon="16.3083825"><ele>855.0</ele><time>2026-05-02T18:36:12.697Z</time></trkpt><trkpt lat="39.9019103" lon="16.3084531"><ele>855.0</ele><time>2026-05-02T18:36:13.682Z</time></trkpt><trkpt lat="39.9019604" lon="16.308532"><ele>855.0</ele><time>2026-05-02T18:36:14.708Z</time></trkpt><trkpt lat="39.9019999" lon="16.308622"><ele>855.0</ele><time>2026-05-02T18:36:15.702Z</time></trkpt><trkpt lat="39.9020263" lon="16.3087107"><ele>855.0</ele><time>2026-05-02T18:36:16.714Z</time></trkpt><trkpt lat="39.9020423" lon="16.3087999"><ele>855.0</ele><time>2026-05-02T18:36:17.695Z</time></trkpt><trkpt lat="39.902054" lon="16.308897"><ele>855.0</ele><time>2026-05-02T18:36:18.708Z</time></trkpt><trkpt lat="39.9020685" lon="16.3090066"><ele>855.0</ele><time>2026-05-02T18:36:19.692Z</time></trkpt><trkpt lat="39.9020743" lon="16.3091311"><ele>852.0</ele><time>2026-05-02T18:36:20.679Z</time></trkpt><trkpt lat="39.9020743" lon="16.3092613"><ele>849.0</ele><time>2026-05-02T18:36:21.709Z</time></trkpt><trkpt lat="39.9020759" lon="16.3093841"><ele>846.0</ele><time>2026-05-02T18:36:22.698Z</time></trkpt><trkpt lat="39.9020754" lon="16.3095046"><ele>843.0</ele><time>2026-05-02T18:36:23.704Z</time></trkpt><trkpt lat="39.9020739" lon="16.3096229"><ele>840.0</ele><time>2026-05-02T18:36:24.702Z</time></trkpt><trkpt lat="39.9020642" lon="16.3097449"><ele>838.8333333333334</ele><time>2026-05-02T18:36:25.713Z</time></trkpt><trkpt lat="39.9020589" lon="16.309859"><ele>837.6666666666667</ele><time>2026-05-02T18:36:26.702Z</time></trkpt><trkpt lat="39.9020575" lon="16.3099588"><ele>836.5</ele><time>2026-05-02T18:36:27.695Z</time></trkpt><trkpt lat="39.9020435" lon="16.3100502"><ele>835.3333333333334</ele><time>2026-05-02T18:36:28.711Z</time></trkpt><trkpt lat="39.9020193" lon="16.310132"><ele>834.1666666666667</ele><time>2026-05-02T18:36:29.714Z</time></trkpt><trkpt lat="39.9019867" lon="16.3102185"><ele>833.0</ele><time>2026-05-02T18:36:30.705Z</time></trkpt><trkpt lat="39.9019541" lon="16.3103081"><ele>833.0000000000001</ele><time>2026-05-02T18:36:31.7Z</time></trkpt><trkpt lat="39.9019265" lon="16.3104116"><ele>833.0</ele><time>2026-05-02T18:36:32.7Z</time></trkpt><trkpt lat="39.9019053" lon="16.3105129"><ele>833.0</ele><time>2026-05-02T18:36:33.68Z</time></trkpt><trkpt lat="39.9018926" lon="16.3106051"><ele>833.0</ele><time>2026-05-02T18:36:34.698Z</time></trkpt><trkpt lat="39.9018919" lon="16.3106997"><ele>833.0000000000001</ele><time>2026-05-02T18:36:35.705Z</time></trkpt><trkpt lat="39.9019152" lon="16.3108065"><ele>833.0</ele><time>2026-05-02T18:36:36.71Z</time></trkpt><trkpt lat="39.9019491" lon="16.3109241"><ele>832.1666666666667</ele><time>2026-05-02T18:36:37.691Z</time></trkpt><trkpt lat="39.9019905" lon="16.3110462"><ele>831.3333333333334</ele><time>2026-05-02T18:36:38.696Z</time></trkpt><trkpt lat="39.9020273" lon="16.3111671"><ele>830.5</ele><time>2026-05-02T18:36:39.69Z</time></trkpt><trkpt lat="39.9020601" lon="16.3112687"><ele>829.6666666666667</ele><time>2026-05-02T18:36:40.705Z</time></trkpt><trkpt lat="39.9020931" lon="16.3113557"><ele>828.8333333333334</ele><time>2026-05-02T18:36:41.691Z</time></trkpt><trkpt lat="39.9021285" lon="16.3114415"><ele>828.0</ele><time>2026-05-02T18:36:42.694Z</time></trkpt><trkpt lat="39.9021665" lon="16.3115196"><ele>828.0</ele><time>2026-05-02T18:36:43.69Z</time></trkpt><trkpt lat="39.9022035" lon="16.3116028"><ele>828.0</ele><time>2026-05-02T18:36:44.711Z</time></trkpt><trkpt lat="39.9022349" lon="16.3116934"><ele>828.0</ele><time>2026-05-02T18:36:45.705Z</time></trkpt><trkpt lat="39.9022637" lon="16.3118001"><ele>828.0</ele><time>2026-05-02T18:36:46.699Z</time></trkpt><trkpt lat="39.9022867" lon="16.3119278"><ele>828.0</ele><time>2026-05-02T18:36:47.692Z</time></trkpt><trkpt lat="39.9023162" lon="16.312073"><ele>828.0</ele><time>2026-05-02T18:36:48.703Z</time></trkpt><trkpt lat="39.9023445" lon="16.3122351"><ele>828.0</ele><time>2026-05-02T18:36:49.691Z</time></trkpt><trkpt lat="39.9023714" lon="16.3124041"><ele>828.0</ele><time>2026-05-02T18:36:50.725Z</time></trkpt><trkpt lat="39.9023971" lon="16.3125543"><ele>828.0</ele><time>2026-05-02T18:36:51.699Z</time></trkpt><trkpt lat="39.902419" lon="16.3126759"><ele>827.6666666666666</ele><time>2026-05-02T18:36:52.694Z</time></trkpt><trkpt lat="39.9024432" lon="16.3127781"><ele>827.3333333333333</ele><time>2026-05-02T18:36:53.701Z</time></trkpt><trkpt lat="39.9024689" lon="16.3128643"><ele>827.0</ele><time>2026-05-02T18:36:54.689Z</time></trkpt><trkpt lat="39.902521" lon="16.3130082"><ele>826.6666666666666</ele><time>2026-05-02T18:36:56.693Z</time></trkpt><trkpt lat="39.9025551" lon="16.3130794"><ele>826.3333333333333</ele><time>2026-05-02T18:36:57.655Z</time></trkpt><trkpt lat="39.9026026" lon="16.3131499"><ele>826.0</ele><time>2026-05-02T18:36:58.666Z</time></trkpt><trkpt lat="39.9026636" lon="16.3132129"><ele>825.6666666666666</ele><time>2026-05-02T18:36:59.662Z</time></trkpt><trkpt lat="39.9027312" lon="16.313279"><ele>825.3333333333333</ele><time>2026-05-02T18:37:00.663Z</time></trkpt><trkpt lat="39.9028035" lon="16.3133491"><ele>825.0</ele><time>2026-05-02T18:37:01.664Z</time></trkpt><trkpt lat="39.9028739" lon="16.3134219"><ele>824.6666666666667</ele><time>2026-05-02T18:37:02.686Z</time></trkpt><trkpt lat="39.9029418" lon="16.3134972"><ele>824.3333333333334</ele><time>2026-05-02T18:37:03.686Z</time></trkpt><trkpt lat="39.9030082" lon="16.3135771"><ele>824.0</ele><time>2026-05-02T18:37:04.677Z</time></trkpt><trkpt lat="39.9030717" lon="16.3136649"><ele>824.0000000000001</ele><time>2026-05-02T18:37:05.669Z</time></trkpt><trkpt lat="39.9031312" lon="16.313764"><ele>824.0</ele><time>2026-05-02T18:37:06.703Z</time></trkpt><trkpt lat="39.9031841" lon="16.3138588"><ele>824.0</ele><time>2026-05-02T18:37:07.714Z</time></trkpt><trkpt lat="39.9032358" lon="16.3139341"><ele>824.0</ele><time>2026-05-02T18:37:08.703Z</time></trkpt><trkpt lat="39.9032921" lon="16.313991"><ele>824.0000000000001</ele><time>2026-05-02T18:37:09.677Z</time></trkpt><trkpt lat="39.9033641" lon="16.3140411"><ele>824.0</ele><time>2026-05-02T18:37:10.676Z</time></trkpt><trkpt lat="39.9034483" lon="16.3140946"><ele>823.5714285714286</ele><time>2026-05-02T18:37:11.667Z</time></trkpt><trkpt lat="39.9035296" lon="16.3141542"><ele>823.1428571428571</ele><time>2026-05-02T18:37:12.689Z</time></trkpt><trkpt lat="39.9035896" lon="16.3142108"><ele>822.7142857142858</ele><time>2026-05-02T18:37:13.682Z</time></trkpt><trkpt lat="39.9036317" lon="16.3142721"><ele>822.2857142857142</ele><time>2026-05-02T18:37:14.692Z</time></trkpt><trkpt lat="39.9036618" lon="16.3143448"><ele>821.8571428571429</ele><time>2026-05-02T18:37:15.694Z</time></trkpt><trkpt lat="39.9036767" lon="16.3144313"><ele>821.4285714285714</ele><time>2026-05-02T18:37:16.697Z</time></trkpt><trkpt lat="39.9036834" lon="16.3145287"><ele>821.0</ele><time>2026-05-02T18:37:17.678Z</time></trkpt><trkpt lat="39.9036747" lon="16.3146183"><ele>819.0</ele><time>2026-05-02T18:37:18.693Z</time></trkpt><trkpt lat="39.903623" lon="16.3147448"><ele>817.0</ele><time>2026-05-02T18:37:20.706Z</time></trkpt><trkpt lat="39.903569" lon="16.3148089"><ele>815.0</ele><time>2026-05-02T18:37:21.715Z</time></trkpt><trkpt lat="39.9035018" lon="16.3148834"><ele>813.0</ele><time>2026-05-02T18:37:22.702Z</time></trkpt><trkpt lat="39.9034215" lon="16.314984"><ele>811.0</ele><time>2026-05-02T18:37:23.688Z</time></trkpt><trkpt lat="39.9033388" lon="16.3151074"><ele>809.1999999999999</ele><time>2026-05-02T18:37:24.707Z</time></trkpt><trkpt lat="39.9032605" lon="16.3152276"><ele>807.4</ele><time>2026-05-02T18:37:25.681Z</time></trkpt><trkpt lat="39.9031927" lon="16.3153253"><ele>805.6</ele><time>2026-05-02T18:37:26.69Z</time></trkpt><trkpt lat="39.903134" lon="16.3154123"><ele>803.8</ele><time>2026-05-02T18:37:27.697Z</time></trkpt><trkpt lat="39.9030708" lon="16.3155064"><ele>802.0</ele><time>2026-05-02T18:37:28.677Z</time></trkpt><trkpt lat="39.9029927" lon="16.3156048"><ele>798.75</ele><time>2026-05-02T18:37:29.672Z</time></trkpt><trkpt lat="39.9028939" lon="16.3157142"><ele>795.5</ele><time>2026-05-02T18:37:30.702Z</time></trkpt><trkpt lat="39.9027968" lon="16.3158265"><ele>792.25</ele><time>2026-05-02T18:37:31.693Z</time></trkpt><trkpt lat="39.9027155" lon="16.315937"><ele>789.0</ele><time>2026-05-02T18:37:32.665Z</time></trkpt><trkpt lat="39.9026432" lon="16.3160307"><ele>789.6</ele><time>2026-05-02T18:37:33.707Z</time></trkpt><trkpt lat="39.9025718" lon="16.3161199"><ele>790.2</ele><time>2026-05-02T18:37:34.707Z</time></trkpt><trkpt lat="39.90249" lon="16.3161998"><ele>790.8000000000001</ele><time>2026-05-02T18:37:35.701Z</time></trkpt><trkpt lat="39.9023913" lon="16.3162793"><ele>791.4000000000001</ele><time>2026-05-02T18:37:36.694Z</time></trkpt><trkpt lat="39.9023008" lon="16.3163562"><ele>792.0</ele><time>2026-05-02T18:37:37.693Z</time></trkpt><trkpt lat="39.9022181" lon="16.3164274"><ele>789.2</ele><time>2026-05-02T18:37:38.701Z</time></trkpt><trkpt lat="39.9021358" lon="16.316503"><ele>786.4000000000001</ele><time>2026-05-02T18:37:39.701Z</time></trkpt><trkpt lat="39.9020564" lon="16.3165878"><ele>783.5999999999999</ele><time>2026-05-02T18:37:40.707Z</time></trkpt><trkpt lat="39.9019903" lon="16.3166765"><ele>780.8</ele><time>2026-05-02T18:37:41.684Z</time></trkpt><trkpt lat="39.9019277" lon="16.3167816"><ele>778.0</ele><time>2026-05-02T18:37:42.713Z</time></trkpt><trkpt lat="39.9018699" lon="16.316898"><ele>778.0</ele><time>2026-05-02T18:37:43.702Z</time></trkpt><trkpt lat="39.9018217" lon="16.317016"><ele>778.0</ele><time>2026-05-02T18:37:44.708Z</time></trkpt><trkpt lat="39.9017808" lon="16.3171179"><ele>778.0</ele><time>2026-05-02T18:37:45.69Z</time></trkpt><trkpt lat="39.9017441" lon="16.3171992"><ele>778.0</ele><time>2026-05-02T18:37:46.69Z</time></trkpt><trkpt lat="39.9016946" lon="16.3172605"><ele>778.0</ele><time>2026-05-02T18:37:47.694Z</time></trkpt><trkpt lat="39.9015824" lon="16.3173133"><ele>777.3333333333333</ele><time>2026-05-02T18:37:49.707Z</time></trkpt><trkpt lat="39.9015176" lon="16.317337"><ele>776.6666666666666</ele><time>2026-05-02T18:37:50.692Z</time></trkpt><trkpt lat="39.9014496" lon="16.3173504"><ele>776.0</ele><time>2026-05-02T18:37:51.712Z</time></trkpt><trkpt lat="39.901372" lon="16.3173556"><ele>775.3333333333333</ele><time>2026-05-02T18:37:52.691Z</time></trkpt><trkpt lat="39.9012847" lon="16.3173626"><ele>774.6666666666666</ele><time>2026-05-02T18:37:53.699Z</time></trkpt><trkpt lat="39.901189" lon="16.3173734"><ele>774.0</ele><time>2026-05-02T18:37:54.696Z</time></trkpt><trkpt lat="39.9010925" lon="16.3173844"><ele>774.0</ele><time>2026-05-02T18:37:55.708Z</time></trkpt><trkpt lat="39.9010117" lon="16.3174099"><ele>774.0</ele><time>2026-05-02T18:37:56.706Z</time></trkpt><trkpt lat="39.9009431" lon="16.3174446"><ele>774.0</ele><time>2026-05-02T18:37:57.7Z</time></trkpt><trkpt lat="39.9008781" lon="16.3174858"><ele>774.0</ele><time>2026-05-02T18:37:58.688Z</time></trkpt><trkpt lat="39.9008064" lon="16.3175399"><ele>774.0</ele><time>2026-05-02T18:37:59.7Z</time></trkpt><trkpt lat="39.9007348" lon="16.3176014"><ele>774.0</ele><time>2026-05-02T18:38:00.713Z</time></trkpt><trkpt lat="39.9006662" lon="16.3176591"><ele>774.4000000000001</ele><time>2026-05-02T18:38:01.695Z</time></trkpt><trkpt lat="39.9005872" lon="16.3177055"><ele>774.8</ele><time>2026-05-02T18:38:02.71Z</time></trkpt><trkpt lat="39.9004913" lon="16.31774"><ele>775.2</ele><time>2026-05-02T18:38:03.697Z</time></trkpt><trkpt lat="39.9003896" lon="16.3177738"><ele>775.5999999999999</ele><time>2026-05-02T18:38:04.688Z</time></trkpt><trkpt lat="39.9002855" lon="16.3178086"><ele>776.0</ele><time>2026-05-02T18:38:05.683Z</time></trkpt><trkpt lat="39.900179" lon="16.3178532"><ele>776.0000000000001</ele><time>2026-05-02T18:38:06.694Z</time></trkpt><trkpt lat="39.9000873" lon="16.3179064"><ele>776.0</ele><time>2026-05-02T18:38:07.698Z</time></trkpt><trkpt lat="39.9000048" lon="16.3179581"><ele>776.0</ele><time>2026-05-02T18:38:08.705Z</time></trkpt><trkpt lat="39.8999217" lon="16.3179962"><ele>776.0</ele><time>2026-05-02T18:38:09.692Z</time></trkpt><trkpt lat="39.8998453" lon="16.318008"><ele>776.0000000000001</ele><time>2026-05-02T18:38:10.695Z</time></trkpt><trkpt lat="39.8997768" lon="16.3179971"><ele>776.0</ele><time>2026-05-02T18:38:11.68Z</time></trkpt><trkpt lat="39.8996953" lon="16.3178889"><ele>774.1999999999999</ele><time>2026-05-02T18:38:13.691Z</time></trkpt><trkpt lat="39.8996741" lon="16.317724"><ele>772.4</ele><time>2026-05-02T18:38:15.713Z</time></trkpt><trkpt lat="39.8996831" lon="16.3176331"><ele>770.6</ele><time>2026-05-02T18:38:16.687Z</time></trkpt><trkpt lat="39.8997167" lon="16.3175443"><ele>768.8</ele><time>2026-05-02T18:38:17.696Z</time></trkpt><trkpt lat="39.8997586" lon="16.3174594"><ele>767.0</ele><time>2026-05-02T18:38:18.705Z</time></trkpt><trkpt lat="39.8998239" lon="16.3173561"><ele>767.0</ele><time>2026-05-02T18:38:19.696Z</time></trkpt><trkpt lat="39.8999044" lon="16.3172373"><ele>767.0</ele><time>2026-05-02T18:38:20.69Z</time></trkpt><trkpt lat="39.9000017" lon="16.3171008"><ele>767.0</ele><time>2026-05-02T18:38:21.705Z</time></trkpt><trkpt lat="39.9001023" lon="16.3169627"><ele>767.0</ele><time>2026-05-02T18:38:22.703Z</time></trkpt><trkpt lat="39.9002065" lon="16.3168449"><ele>766.5</ele><time>2026-05-02T18:38:23.7Z</time></trkpt><trkpt lat="39.9003005" lon="16.3167284"><ele>766.0</ele><time>2026-05-02T18:38:24.687Z</time></trkpt><trkpt lat="39.9003836" lon="16.3166194"><ele>765.5</ele><time>2026-05-02T18:38:25.704Z</time></trkpt><trkpt lat="39.9004608" lon="16.3165128"><ele>765.0</ele><time>2026-05-02T18:38:26.69Z</time></trkpt><trkpt lat="39.9005462" lon="16.3163928"><ele>765.0</ele><time>2026-05-02T18:38:27.698Z</time></trkpt><trkpt lat="39.9006203" lon="16.3162633"><ele>765.0</ele><time>2026-05-02T18:38:28.703Z</time></trkpt><trkpt lat="39.9006971" lon="16.3161335"><ele>765.0</ele><time>2026-05-02T18:38:29.689Z</time></trkpt><trkpt lat="39.9007677" lon="16.3159986"><ele>765.0</ele><time>2026-05-02T18:38:30.711Z</time></trkpt><trkpt lat="39.9008227" lon="16.3158598"><ele>765.0</ele><time>2026-05-02T18:38:31.703Z</time></trkpt><trkpt lat="39.9008645" lon="16.3157282"><ele>765.0</ele><time>2026-05-02T18:38:32.708Z</time></trkpt><trkpt lat="39.9008837" lon="16.3156277"><ele>765.0</ele><time>2026-05-02T18:38:33.702Z</time></trkpt><trkpt lat="39.9008699" lon="16.3154656"><ele>765.0</ele><time>2026-05-02T18:38:35.691Z</time></trkpt><trkpt lat="39.9008368" lon="16.315392"><ele>765.0</ele><time>2026-05-02T18:38:36.705Z</time></trkpt><trkpt lat="39.9007954" lon="16.3153002"><ele>764.6</ele><time>2026-05-02T18:38:37.695Z</time></trkpt><trkpt lat="39.900739" lon="16.3151998"><ele>764.2</ele><time>2026-05-02T18:38:38.692Z</time></trkpt><trkpt lat="39.9006794" lon="16.3150758"><ele>763.8</ele><time>2026-05-02T18:38:39.7Z</time></trkpt><trkpt lat="39.9006142" lon="16.3149462"><ele>763.4</ele><time>2026-05-02T18:38:40.698Z</time></trkpt><trkpt lat="39.9005525" lon="16.3148203"><ele>763.0</ele><time>2026-05-02T18:38:41.691Z</time></trkpt><trkpt lat="39.900496" lon="16.3147077"><ele>764.5999999999999</ele><time>2026-05-02T18:38:42.702Z</time></trkpt><trkpt lat="39.9004445" lon="16.3145948"><ele>766.1999999999999</ele><time>2026-05-02T18:38:43.696Z</time></trkpt><trkpt lat="39.9003851" lon="16.3144798"><ele>767.8</ele><time>2026-05-02T18:38:44.695Z</time></trkpt><trkpt lat="39.9003226" lon="16.3143818"><ele>769.4</ele><time>2026-05-02T18:38:45.689Z</time></trkpt><trkpt lat="39.9002615" lon="16.3143061"><ele>771.0</ele><time>2026-05-02T18:38:46.677Z</time></trkpt><trkpt lat="39.9001994" lon="16.3142345"><ele>771.0</ele><time>2026-05-02T18:38:47.683Z</time></trkpt><trkpt lat="39.9001334" lon="16.3141695"><ele>771.0</ele><time>2026-05-02T18:38:48.69Z</time></trkpt><trkpt lat="39.9000492" lon="16.3141145"><ele>771.0</ele><time>2026-05-02T18:38:49.681Z</time></trkpt><trkpt lat="39.8999601" lon="16.3140854"><ele>771.0</ele><time>2026-05-02T18:38:50.675Z</time></trkpt><trkpt lat="39.8998704" lon="16.3140669"><ele>771.0</ele><time>2026-05-02T18:38:51.703Z</time></trkpt><trkpt lat="39.8997898" lon="16.3140594"><ele>771.0</ele><time>2026-05-02T18:38:52.693Z</time></trkpt><trkpt lat="39.8997188" lon="16.3140736"><ele>769.5</ele><time>2026-05-02T18:38:53.695Z</time></trkpt><trkpt lat="39.8996428" lon="16.3141671"><ele>768.0</ele><time>2026-05-02T18:38:55.685Z</time></trkpt><trkpt lat="39.8996196" lon="16.3142451"><ele>766.5</ele><time>2026-05-02T18:38:56.692Z</time></trkpt><trkpt lat="39.8995971" lon="16.3143527"><ele>765.0</ele><time>2026-05-02T18:38:57.686Z</time></trkpt><trkpt lat="39.8995683" lon="16.3144716"><ele>763.5</ele><time>2026-05-02T18:38:58.693Z</time></trkpt><trkpt lat="39.899538" lon="16.3145799"><ele>762.0</ele><time>2026-05-02T18:38:59.698Z</time></trkpt><trkpt lat="39.8994975" lon="16.314683"><ele>760.6666666666666</ele><time>2026-05-02T18:39:00.7Z</time></trkpt><trkpt lat="39.8994556" lon="16.3147691"><ele>759.3333333333334</ele><time>2026-05-02T18:39:01.684Z</time></trkpt><trkpt lat="39.8994012" lon="16.3148444"><ele>758.0</ele><time>2026-05-02T18:39:02.682Z</time></trkpt><trkpt lat="39.8993412" lon="16.3149"><ele>756.6666666666667</ele><time>2026-05-02T18:39:03.693Z</time></trkpt><trkpt lat="39.8992757" lon="16.3149565"><ele>755.3333333333334</ele><time>2026-05-02T18:39:04.705Z</time></trkpt><trkpt lat="39.8992025" lon="16.3150142"><ele>754.0</ele><time>2026-05-02T18:39:05.692Z</time></trkpt><trkpt lat="39.8991251" lon="16.3150904"><ele>753.0</ele><time>2026-05-02T18:39:06.712Z</time></trkpt><trkpt lat="39.8990454" lon="16.3151672"><ele>752.0</ele><time>2026-05-02T18:39:07.698Z</time></trkpt><trkpt lat="39.8989689" lon="16.315252"><ele>751.0</ele><time>2026-05-02T18:39:08.679Z</time></trkpt><trkpt lat="39.8989007" lon="16.3153525"><ele>750.0</ele><time>2026-05-02T18:39:09.71Z</time></trkpt><trkpt lat="39.8988371" lon="16.315463"><ele>749.0</ele><time>2026-05-02T18:39:10.705Z</time></trkpt><trkpt lat="39.8987715" lon="16.3155619"><ele>747.6666666666666</ele><time>2026-05-02T18:39:11.7Z</time></trkpt><trkpt lat="39.8987148" lon="16.315639"><ele>746.3333333333333</ele><time>2026-05-02T18:39:12.704Z</time></trkpt><trkpt lat="39.8986537" lon="16.3156964"><ele>745.0</ele><time>2026-05-02T18:39:13.707Z</time></trkpt><trkpt lat="39.8985827" lon="16.3157326"><ele>743.6666666666666</ele><time>2026-05-02T18:39:14.691Z</time></trkpt><trkpt lat="39.8984933" lon="16.3157644"><ele>742.3333333333334</ele><time>2026-05-02T18:39:15.691Z</time></trkpt><trkpt lat="39.8984017" lon="16.3158012"><ele>741.0</ele><time>2026-05-02T18:39:16.698Z</time></trkpt><trkpt lat="39.8983233" lon="16.3158511"><ele>740.0</ele><time>2026-05-02T18:39:17.72Z</time></trkpt><trkpt lat="39.8982559" lon="16.3159246"><ele>739.0</ele><time>2026-05-02T18:39:18.694Z</time></trkpt><trkpt lat="39.8981906" lon="16.3160139"><ele>738.0</ele><time>2026-05-02T18:39:19.691Z</time></trkpt><trkpt lat="39.8981185" lon="16.3161011"><ele>737.0</ele><time>2026-05-02T18:39:20.694Z</time></trkpt><trkpt lat="39.8980672" lon="16.3161813"><ele>736.0</ele><time>2026-05-02T18:39:21.711Z</time></trkpt><trkpt lat="39.8980348" lon="16.3162711"><ele>735.0</ele><time>2026-05-02T18:39:22.695Z</time></trkpt><trkpt lat="39.8980231" lon="16.3163741"><ele>734.0</ele><time>2026-05-02T18:39:23.708Z</time></trkpt><trkpt lat="39.8980277" lon="16.3164818"><ele>733.0</ele><time>2026-05-02T18:39:24.698Z</time></trkpt><trkpt lat="39.8980748" lon="16.3166388"><ele>732.0</ele><time>2026-05-02T18:39:26.69Z</time></trkpt><trkpt lat="39.8981174" lon="16.3167273"><ele>731.0</ele><time>2026-05-02T18:39:27.689Z</time></trkpt><trkpt lat="39.8981868" lon="16.316824"><ele>730.0</ele><time>2026-05-02T18:39:28.703Z</time></trkpt><trkpt lat="39.8982717" lon="16.3169269"><ele>730.0</ele><time>2026-05-02T18:39:29.698Z</time></trkpt><trkpt lat="39.8983525" lon="16.3170209"><ele>730.0</ele><time>2026-05-02T18:39:30.71Z</time></trkpt><trkpt lat="39.8984432" lon="16.3170907"><ele>730.0</ele><time>2026-05-02T18:39:31.695Z</time></trkpt><trkpt lat="39.8985251" lon="16.3171388"><ele>730.0</ele><time>2026-05-02T18:39:32.706Z</time></trkpt><trkpt lat="39.8985888" lon="16.3171843"><ele>730.0</ele><time>2026-05-02T18:39:33.696Z</time></trkpt><trkpt lat="39.8986465" lon="16.3172894"><ele>729.1666666666667</ele><time>2026-05-02T18:39:35.691Z</time></trkpt><trkpt lat="39.898618" lon="16.3174254"><ele>728.3333333333334</ele><time>2026-05-02T18:39:37.703Z</time></trkpt><trkpt lat="39.8985742" lon="16.3174951"><ele>727.5</ele><time>2026-05-02T18:39:38.693Z</time></trkpt><trkpt lat="39.8985198" lon="16.3175705"><ele>726.6666666666666</ele><time>2026-05-02T18:39:39.701Z</time></trkpt><trkpt lat="39.8984591" lon="16.3176457"><ele>725.8333333333333</ele><time>2026-05-02T18:39:40.7Z</time></trkpt><trkpt lat="39.8984013" lon="16.317733"><ele>725.0</ele><time>2026-05-02T18:39:41.703Z</time></trkpt><trkpt lat="39.8983344" lon="16.3178309"><ele>725.0</ele><time>2026-05-02T18:39:42.702Z</time></trkpt><trkpt lat="39.8982635" lon="16.3179284"><ele>725.0</ele><time>2026-05-02T18:39:43.692Z</time></trkpt><trkpt lat="39.8982017" lon="16.3180252"><ele>725.0</ele><time>2026-05-02T18:39:44.71Z</time></trkpt><trkpt lat="39.8981597" lon="16.3181043"><ele>725.0</ele><time>2026-05-02T18:39:45.702Z</time></trkpt><trkpt lat="39.898138" lon="16.3182436"><ele>725.0</ele><time>2026-05-02T18:39:47.691Z</time></trkpt><trkpt lat="39.8982068" lon="16.3183902"><ele>725.3333333333333</ele><time>2026-05-02T18:39:49.736Z</time></trkpt><trkpt lat="39.8982618" lon="16.3184647"><ele>725.6666666666666</ele><time>2026-05-02T18:39:50.698Z</time></trkpt><trkpt lat="39.8983234" lon="16.318542"><ele>726.0</ele><time>2026-05-02T18:39:51.701Z</time></trkpt><trkpt lat="39.8983912" lon="16.3186239"><ele>726.3333333333334</ele><time>2026-05-02T18:39:52.698Z</time></trkpt><trkpt lat="39.8984607" lon="16.3187132"><ele>726.6666666666667</ele><time>2026-05-02T18:39:53.7Z</time></trkpt><trkpt lat="39.8985268" lon="16.3187988"><ele>727.0</ele><time>2026-05-02T18:39:54.686Z</time></trkpt><trkpt lat="39.8985827" lon="16.3188614"><ele>727.3333333333334</ele><time>2026-05-02T18:39:55.695Z</time></trkpt><trkpt lat="39.8986486" lon="16.3189068"><ele>727.6666666666667</ele><time>2026-05-02T18:39:56.706Z</time></trkpt><trkpt lat="39.8987271" lon="16.318953"><ele>728.0</ele><time>2026-05-02T18:39:57.693Z</time></trkpt><trkpt lat="39.8988211" lon="16.3189989"><ele>728.3333333333334</ele><time>2026-05-02T18:39:58.707Z</time></trkpt><trkpt lat="39.8989161" lon="16.3190378"><ele>728.6666666666666</ele><time>2026-05-02T18:39:59.702Z</time></trkpt><trkpt lat="39.8989993" lon="16.3190521"><ele>729.0</ele><time>2026-05-02T18:40:00.697Z</time></trkpt><trkpt lat="39.8990796" lon="16.3190479"><ele>729.0</ele><time>2026-05-02T18:40:01.69Z</time></trkpt><trkpt lat="39.8991542" lon="16.3190347"><ele>729.0</ele><time>2026-05-02T18:40:02.698Z</time></trkpt><trkpt lat="39.8992588" lon="16.3190748"><ele>729.0</ele><time>2026-05-02T18:40:04.706Z</time></trkpt><trkpt lat="39.8993311" lon="16.3192031"><ele>729.0</ele><time>2026-05-02T18:40:06.695Z</time></trkpt><trkpt lat="39.8993409" lon="16.319311"><ele>729.0</ele><time>2026-05-02T18:40:07.69Z</time></trkpt><trkpt lat="39.8993401" lon="16.3194299"><ele>727.6666666666666</ele><time>2026-05-02T18:40:08.685Z</time></trkpt><trkpt lat="39.8993359" lon="16.3195377"><ele>726.3333333333334</ele><time>2026-05-02T18:40:09.704Z</time></trkpt><trkpt lat="39.8993497" lon="16.3196246"><ele>725.0</ele><time>2026-05-02T18:40:10.701Z</time></trkpt><trkpt lat="39.8993801" lon="16.3197007"><ele>723.6666666666667</ele><time>2026-05-02T18:40:11.697Z</time></trkpt><trkpt lat="39.8994335" lon="16.3197694"><ele>722.3333333333334</ele><time>2026-05-02T18:40:12.703Z</time></trkpt><trkpt lat="39.8994976" lon="16.3198359"><ele>721.0</ele><time>2026-05-02T18:40:13.687Z</time></trkpt><trkpt lat="39.8995669" lon="16.3198797"><ele>721.0</ele><time>2026-05-02T18:40:14.686Z</time></trkpt><trkpt lat="39.8996471" lon="16.3198947"><ele>721.0</ele><time>2026-05-02T18:40:15.686Z</time></trkpt><trkpt lat="39.8997123" lon="16.3199054"><ele>721.0</ele><time>2026-05-02T18:40:16.699Z</time></trkpt><trkpt lat="39.8998049" lon="16.3199666"><ele>721.0</ele><time>2026-05-02T18:40:18.697Z</time></trkpt><trkpt lat="39.8997876" lon="16.3200764"><ele>721.0</ele><time>2026-05-02T18:40:20.688Z</time></trkpt><trkpt lat="39.8996918" lon="16.3201832"><ele>721.0</ele><time>2026-05-02T18:40:22.687Z</time></trkpt><trkpt lat="39.8996288" lon="16.3202314"><ele>721.0</ele><time>2026-05-02T18:40:23.7Z</time></trkpt><trkpt lat="39.8995576" lon="16.3202892"><ele>721.0</ele><time>2026-05-02T18:40:24.703Z</time></trkpt><trkpt lat="39.8994639" lon="16.3203528"><ele>721.0</ele><time>2026-05-02T18:40:25.699Z</time></trkpt><trkpt lat="39.8993533" lon="16.3204152"><ele>721.0</ele><time>2026-05-02T18:40:26.697Z</time></trkpt><trkpt lat="39.8992385" lon="16.320483"><ele>719.5999999999999</ele><time>2026-05-02T18:40:27.691Z</time></trkpt><trkpt lat="39.8991298" lon="16.3205514"><ele>718.2</ele><time>2026-05-02T18:40:28.691Z</time></trkpt><trkpt lat="39.899041" lon="16.3206215"><ele>716.8</ele><time>2026-05-02T18:40:29.666Z</time></trkpt><trkpt lat="39.898962" lon="16.3206848"><ele>715.4000000000001</ele><time>2026-05-02T18:40:30.675Z</time></trkpt><trkpt lat="39.8988955" lon="16.3207626"><ele>714.0</ele><time>2026-05-02T18:40:31.712Z</time></trkpt><trkpt lat="39.8988239" lon="16.3208525"><ele>712.3333333333334</ele><time>2026-05-02T18:40:32.695Z</time></trkpt><trkpt lat="39.8987473" lon="16.3209413"><ele>710.6666666666666</ele><time>2026-05-02T18:40:33.697Z</time></trkpt><trkpt lat="39.8986973" lon="16.3210083"><ele>709.0</ele><time>2026-05-02T18:40:34.694Z</time></trkpt><trkpt lat="39.8986645" lon="16.3211352"><ele>707.3333333333333</ele><time>2026-05-02T18:40:36.687Z</time></trkpt><trkpt lat="39.8986856" lon="16.3212146"><ele>705.6666666666666</ele><time>2026-05-02T18:40:37.693Z</time></trkpt><trkpt lat="39.8987656" lon="16.3212563"><ele>704.0</ele><time>2026-05-02T18:40:39.709Z</time></trkpt><trkpt lat="39.8989205" lon="16.3212541"><ele>704.0</ele><time>2026-05-02T18:40:41.698Z</time></trkpt><trkpt lat="39.8990277" lon="16.3212557"><ele>704.0</ele><time>2026-05-02T18:40:42.706Z</time></trkpt><trkpt lat="39.8991437" lon="16.3212569"><ele>704.0</ele><time>2026-05-02T18:40:43.694Z</time></trkpt><trkpt lat="39.89926" lon="16.3212455"><ele>704.0</ele><time>2026-05-02T18:40:44.683Z</time></trkpt><trkpt lat="39.8993653" lon="16.3212252"><ele>704.0</ele><time>2026-05-02T18:40:45.704Z</time></trkpt><trkpt lat="39.899463" lon="16.3212159"><ele>702.6666666666666</ele><time>2026-05-02T18:40:46.699Z</time></trkpt><trkpt lat="39.8995548" lon="16.3212243"><ele>701.3333333333333</ele><time>2026-05-02T18:40:47.692Z</time></trkpt><trkpt lat="39.899639" lon="16.3212513"><ele>700.0</ele><time>2026-05-02T18:40:48.679Z</time></trkpt><trkpt lat="39.8997149" lon="16.3212818"><ele>698.6666666666666</ele><time>2026-05-02T18:40:49.69Z</time></trkpt><trkpt lat="39.8997902" lon="16.321302"><ele>697.3333333333334</ele><time>2026-05-02T18:40:50.685Z</time></trkpt><trkpt lat="39.8998795" lon="16.3212902"><ele>696.0</ele><time>2026-05-02T18:40:51.683Z</time></trkpt><trkpt lat="39.8999666" lon="16.3212613"><ele>696.0</ele><time>2026-05-02T18:40:52.687Z</time></trkpt><trkpt lat="39.9000436" lon="16.3212324"><ele>696.0</ele><time>2026-05-02T18:40:53.677Z</time></trkpt><trkpt lat="39.900116" lon="16.3212129"><ele>696.0</ele><time>2026-05-02T18:40:54.69Z</time></trkpt><trkpt lat="39.9002249" lon="16.3212564"><ele>696.0</ele><time>2026-05-02T18:40:56.691Z</time></trkpt><trkpt lat="39.9002705" lon="16.3213712"><ele>696.0</ele><time>2026-05-02T18:40:58.689Z</time></trkpt><trkpt lat="39.9002735" lon="16.3214549"><ele>696.0</ele><time>2026-05-02T18:40:59.676Z</time></trkpt><trkpt lat="39.9002721" lon="16.3215619"><ele>691.0</ele><time>2026-05-02T18:41:00.696Z</time></trkpt><trkpt lat="39.9002634" lon="16.321669"><ele>686.0</ele><time>2026-05-02T18:41:01.695Z</time></trkpt><trkpt lat="39.9002984" lon="16.321824"><ele>681.0</ele><time>2026-05-02T18:41:03.692Z</time></trkpt><trkpt lat="39.9003843" lon="16.3219339"><ele>676.0</ele><time>2026-05-02T18:41:05.692Z</time></trkpt><trkpt lat="39.9004872" lon="16.3219724"><ele>671.0</ele><time>2026-05-02T18:41:07.706Z</time></trkpt><trkpt lat="39.900594" lon="16.3219222"><ele>671.0</ele><time>2026-05-02T18:41:09.695Z</time></trkpt><trkpt lat="39.9006903" lon="16.3218266"><ele>671.0</ele><time>2026-05-02T18:41:11.704Z</time></trkpt><trkpt lat="39.9007896" lon="16.3217653"><ele>671.0</ele><time>2026-05-02T18:41:13.694Z</time></trkpt><trkpt lat="39.9008985" lon="16.3217789"><ele>671.0</ele><time>2026-05-02T18:41:15.686Z</time></trkpt><trkpt lat="39.9009798" lon="16.3218901"><ele>671.8</ele><time>2026-05-02T18:41:17.696Z</time></trkpt><trkpt lat="39.9010334" lon="16.3219736"><ele>672.5999999999999</ele><time>2026-05-02T18:41:18.686Z</time></trkpt><trkpt lat="39.9010929" lon="16.3220676"><ele>673.4</ele><time>2026-05-02T18:41:19.71Z</time></trkpt><trkpt lat="39.9011536" lon="16.3221666"><ele>674.2</ele><time>2026-05-02T18:41:20.693Z</time></trkpt><trkpt lat="39.9012147" lon="16.3222541"><ele>675.0</ele><time>2026-05-02T18:41:21.693Z</time></trkpt><trkpt lat="39.9012783" lon="16.3223302"><ele>672.6666666666666</ele><time>2026-05-02T18:41:22.699Z</time></trkpt><trkpt lat="39.9013462" lon="16.3223961"><ele>670.3333333333334</ele><time>2026-05-02T18:41:23.707Z</time></trkpt><trkpt lat="39.9014171" lon="16.3224604"><ele>668.0</ele><time>2026-05-02T18:41:24.692Z</time></trkpt><trkpt lat="39.9014928" lon="16.3225245"><ele>665.6666666666667</ele><time>2026-05-02T18:41:25.693Z</time></trkpt><trkpt lat="39.9015594" lon="16.322577"><ele>663.3333333333334</ele><time>2026-05-02T18:41:26.705Z</time></trkpt><trkpt lat="39.9016231" lon="16.3226168"><ele>661.0</ele><time>2026-05-02T18:41:27.705Z</time></trkpt><trkpt lat="39.9017248" lon="16.3226667"><ele>661.0</ele><time>2026-05-02T18:41:29.695Z</time></trkpt><trkpt lat="39.9017895" lon="16.3227816"><ele>661.0</ele><time>2026-05-02T18:41:31.693Z</time></trkpt><trkpt lat="39.9018208" lon="16.3228654"><ele>661.0</ele><time>2026-05-02T18:41:32.694Z</time></trkpt><trkpt lat="39.901843" lon="16.3229555"><ele>661.0</ele><time>2026-05-02T18:41:33.699Z</time></trkpt><trkpt lat="39.9018567" lon="16.3230593"><ele>661.0</ele><time>2026-05-02T18:41:34.699Z</time></trkpt><trkpt lat="39.9018592" lon="16.3231621"><ele>661.0</ele><time>2026-05-02T18:41:35.692Z</time></trkpt><trkpt lat="39.9018154" lon="16.3232964"><ele>660.6666666666667</ele><time>2026-05-02T18:41:37.696Z</time></trkpt><trkpt lat="39.9017667" lon="16.3233652"><ele>660.3333333333334</ele><time>2026-05-02T18:41:38.687Z</time></trkpt><trkpt lat="39.9017121" lon="16.3234342"><ele>660.0</ele><time>2026-05-02T18:41:39.693Z</time></trkpt><trkpt lat="39.9016485" lon="16.3235056"><ele>659.6666666666666</ele><time>2026-05-02T18:41:40.71Z</time></trkpt><trkpt lat="39.9015681" lon="16.323572"><ele>659.3333333333333</ele><time>2026-05-02T18:41:41.708Z</time></trkpt><trkpt lat="39.9014751" lon="16.3236332"><ele>659.0</ele><time>2026-05-02T18:41:42.691Z</time></trkpt><trkpt lat="39.9013819" lon="16.3236947"><ele>659.0</ele><time>2026-05-02T18:41:43.69Z</time></trkpt><trkpt lat="39.901302" lon="16.3237623"><ele>659.0</ele><time>2026-05-02T18:41:44.696Z</time></trkpt><trkpt lat="39.9012326" lon="16.3238262"><ele>659.0</ele><time>2026-05-02T18:41:45.712Z</time></trkpt><trkpt lat="39.9011735" lon="16.3238894"><ele>659.0</ele><time>2026-05-02T18:41:46.693Z</time></trkpt><trkpt lat="39.901126" lon="16.3239624"><ele>659.0</ele><time>2026-05-02T18:41:47.703Z</time></trkpt><trkpt lat="39.9010886" lon="16.3240449"><ele>659.0</ele><time>2026-05-02T18:41:48.686Z</time></trkpt><trkpt lat="39.9010612" lon="16.3241501"><ele>660.2</ele><time>2026-05-02T18:41:49.689Z</time></trkpt><trkpt lat="39.9010333" lon="16.324273"><ele>661.4000000000001</ele><time>2026-05-02T18:41:50.703Z</time></trkpt><trkpt lat="39.901006" lon="16.324401"><ele>662.6</ele><time>2026-05-02T18:41:51.699Z</time></trkpt><trkpt lat="39.9009806" lon="16.3245007"><ele>663.8</ele><time>2026-05-02T18:41:52.679Z</time></trkpt><trkpt lat="39.9009247" lon="16.3246111"><ele>665.0</ele><time>2026-05-02T18:41:54.675Z</time></trkpt><trkpt lat="39.9008064" lon="16.3246634"><ele>665.0</ele><time>2026-05-02T18:41:56.664Z</time></trkpt><trkpt lat="39.9007343" lon="16.3246652"><ele>665.0</ele><time>2026-05-02T18:41:57.693Z</time></trkpt><trkpt lat="39.9006631" lon="16.3246546"><ele>665.0</ele><time>2026-05-02T18:41:58.701Z</time></trkpt><trkpt lat="39.9005799" lon="16.3246622"><ele>665.0</ele><time>2026-05-02T18:41:59.712Z</time></trkpt><trkpt lat="39.9005071" lon="16.3246781"><ele>665.0</ele><time>2026-05-02T18:42:00.719Z</time></trkpt><trkpt lat="39.9004499" lon="16.324713"><ele>665.0</ele><time>2026-05-02T18:42:01.68Z</time></trkpt><trkpt lat="39.9003909" lon="16.3248114"><ele>667.8333333333333</ele><time>2026-05-02T18:42:03.696Z</time></trkpt><trkpt lat="39.9004276" lon="16.3249235"><ele>670.6666666666666</ele><time>2026-05-02T18:42:05.702Z</time></trkpt><trkpt lat="39.9005222" lon="16.3250252"><ele>673.5</ele><time>2026-05-02T18:42:07.683Z</time></trkpt><trkpt lat="39.9005789" lon="16.3250769"><ele>676.3333333333334</ele><time>2026-05-02T18:42:08.692Z</time></trkpt><trkpt lat="39.9006373" lon="16.325129"><ele>679.1666666666667</ele><time>2026-05-02T18:42:09.696Z</time></trkpt><trkpt lat="39.9007055" lon="16.3251766"><ele>682.0</ele><time>2026-05-02T18:42:10.696Z</time></trkpt><trkpt lat="39.9007813" lon="16.3252208"><ele>682.0</ele><time>2026-05-02T18:42:11.698Z</time></trkpt><trkpt lat="39.9008607" lon="16.3252728"><ele>682.0</ele><time>2026-05-02T18:42:12.687Z</time></trkpt><trkpt lat="39.9009554" lon="16.3253273"><ele>682.0</ele><time>2026-05-02T18:42:13.703Z</time></trkpt><trkpt lat="39.901038" lon="16.3253715"><ele>682.0</ele><time>2026-05-02T18:42:14.69Z</time></trkpt><trkpt lat="39.9011117" lon="16.3254068"><ele>682.0</ele><time>2026-05-02T18:42:15.703Z</time></trkpt><trkpt lat="39.9011868" lon="16.3254409"><ele>682.0</ele><time>2026-05-02T18:42:16.671Z</time></trkpt><trkpt lat="39.9012688" lon="16.3254843"><ele>683.6666666666667</ele><time>2026-05-02T18:42:17.696Z</time></trkpt><trkpt lat="39.9013494" lon="16.3255191"><ele>685.3333333333334</ele><time>2026-05-02T18:42:18.698Z</time></trkpt><trkpt lat="39.9014287" lon="16.3255298"><ele>687.0</ele><time>2026-05-02T18:42:19.679Z</time></trkpt><trkpt lat="39.901509" lon="16.3255345"><ele>688.6666666666666</ele><time>2026-05-02T18:42:20.701Z</time></trkpt><trkpt lat="39.901596" lon="16.325542"><ele>690.3333333333333</ele><time>2026-05-02T18:42:21.689Z</time></trkpt><trkpt lat="39.9016788" lon="16.3255423"><ele>692.0</ele><time>2026-05-02T18:42:22.691Z</time></trkpt><trkpt lat="39.9017428" lon="16.3255145"><ele>693.6</ele><time>2026-05-02T18:42:23.682Z</time></trkpt><trkpt lat="39.9018151" lon="16.3254148"><ele>695.2</ele><time>2026-05-02T18:42:25.693Z</time></trkpt><trkpt lat="39.9018497" lon="16.32526"><ele>696.8</ele><time>2026-05-02T18:42:27.682Z</time></trkpt><trkpt lat="39.9018582" lon="16.3251019"><ele>698.4</ele><time>2026-05-02T18:42:29.706Z</time></trkpt><trkpt lat="39.9019204" lon="16.3250068"><ele>700.0</ele><time>2026-05-02T18:42:31.692Z</time></trkpt><trkpt lat="39.9020136" lon="16.3249896"><ele>700.0</ele><time>2026-05-02T18:42:33.701Z</time></trkpt><trkpt lat="39.9020772" lon="16.3250057"><ele>700.0</ele><time>2026-05-02T18:42:34.688Z</time></trkpt><trkpt lat="39.9021425" lon="16.3250385"><ele>700.0</ele><time>2026-05-02T18:42:35.68Z</time></trkpt><trkpt lat="39.9022101" lon="16.3250893"><ele>700.0</ele><time>2026-05-02T18:42:36.692Z</time></trkpt><trkpt lat="39.9022808" lon="16.3251434"><ele>700.0</ele><time>2026-05-02T18:42:37.693Z</time></trkpt><trkpt lat="39.902357" lon="16.3251927"><ele>700.0</ele><time>2026-05-02T18:42:38.683Z</time></trkpt><trkpt lat="39.9024332" lon="16.3252122"><ele>700.0</ele><time>2026-05-02T18:42:39.685Z</time></trkpt><trkpt lat="39.9024983" lon="16.3252231"><ele>700.0</ele><time>2026-05-02T18:42:40.71Z</time></trkpt><trkpt lat="39.902576" lon="16.3252935"><ele>700.0</ele><time>2026-05-02T18:42:42.669Z</time></trkpt><trkpt lat="39.9026088" lon="16.3254321"><ele>700.0</ele><time>2026-05-02T18:42:44.688Z</time></trkpt><trkpt lat="39.9025822" lon="16.3255857"><ele>700.0</ele><time>2026-05-02T18:42:46.678Z</time></trkpt><trkpt lat="39.9025397" lon="16.3256642"><ele>702.5</ele><time>2026-05-02T18:42:47.673Z</time></trkpt><trkpt lat="39.9024841" lon="16.3257445"><ele>705.0</ele><time>2026-05-02T18:42:48.709Z</time></trkpt><trkpt lat="39.9024202" lon="16.3258068"><ele>707.5</ele><time>2026-05-02T18:42:49.706Z</time></trkpt><trkpt lat="39.9023638" lon="16.3258616"><ele>710.0</ele><time>2026-05-02T18:42:50.697Z</time></trkpt><trkpt lat="39.9023153" lon="16.3259194"><ele>712.5</ele><time>2026-05-02T18:42:51.694Z</time></trkpt><trkpt lat="39.9022644" lon="16.3259936"><ele>715.0</ele><time>2026-05-02T18:42:52.688Z</time></trkpt><trkpt lat="39.9022159" lon="16.3260832"><ele>715.0</ele><time>2026-05-02T18:42:53.687Z</time></trkpt><trkpt lat="39.9021665" lon="16.3261975"><ele>715.0</ele><time>2026-05-02T18:42:54.697Z</time></trkpt><trkpt lat="39.9021113" lon="16.3263261"><ele>715.0</ele><time>2026-05-02T18:42:55.701Z</time></trkpt><trkpt lat="39.9020613" lon="16.3264403"><ele>715.0</ele><time>2026-05-02T18:42:56.691Z</time></trkpt><trkpt lat="39.9020219" lon="16.3265387"><ele>715.0</ele><time>2026-05-02T18:42:57.674Z</time></trkpt><trkpt lat="39.901985" lon="16.3266198"><ele>715.0</ele><time>2026-05-02T18:42:58.682Z</time></trkpt><trkpt lat="39.9019338" lon="16.3267008"><ele>715.0</ele><time>2026-05-02T18:42:59.697Z</time></trkpt><trkpt lat="39.9018722" lon="16.326786"><ele>715.0</ele><time>2026-05-02T18:43:00.682Z</time></trkpt><trkpt lat="39.9018094" lon="16.3268758"><ele>715.0</ele><time>2026-05-02T18:43:01.701Z</time></trkpt><trkpt lat="39.9017449" lon="16.3269642"><ele>715.0</ele><time>2026-05-02T18:43:02.691Z</time></trkpt><trkpt lat="39.9016787" lon="16.3270415"><ele>715.0</ele><time>2026-05-02T18:43:03.674Z</time></trkpt><trkpt lat="39.9016191" lon="16.3270984"><ele>715.0</ele><time>2026-05-02T18:43:04.684Z</time></trkpt><trkpt lat="39.9015612" lon="16.3271476"><ele>715.0</ele><time>2026-05-02T18:43:05.693Z</time></trkpt><trkpt lat="39.9015047" lon="16.3271998"><ele>715.0</ele><time>2026-05-02T18:43:06.681Z</time></trkpt><trkpt lat="39.9014232" lon="16.3272763"><ele>715.0</ele><time>2026-05-02T18:43:08.682Z</time></trkpt><trkpt lat="39.9013756" lon="16.327333"><ele>715.0</ele><time>2026-05-02T18:43:10.701Z</time></trkpt><trkpt lat="39.9013359" lon="16.3274274"><ele>715.0</ele><time>2026-05-02T18:43:20.678Z</time></trkpt><trkpt lat="39.9013247" lon="16.3275506"><ele>718.6</ele><time>2026-05-02T18:43:22.691Z</time></trkpt><trkpt lat="39.9013059" lon="16.3276913"><ele>722.2</ele><time>2026-05-02T18:43:24.679Z</time></trkpt><trkpt lat="39.9013056" lon="16.3277848"><ele>725.8</ele><time>2026-05-02T18:43:25.683Z</time></trkpt><trkpt lat="39.9013037" lon="16.327878"><ele>729.4</ele><time>2026-05-02T18:43:26.697Z</time></trkpt><trkpt lat="39.9012823" lon="16.3280275"><ele>733.0</ele><time>2026-05-02T18:43:28.698Z</time></trkpt><trkpt lat="39.9012433" lon="16.328175"><ele>734.8</ele><time>2026-05-02T18:43:30.715Z</time></trkpt><trkpt lat="39.90124" lon="16.3282573"><ele>736.5999999999999</ele><time>2026-05-02T18:43:31.701Z</time></trkpt><trkpt lat="39.9013052" lon="16.3284027"><ele>738.4000000000001</ele><time>2026-05-02T18:43:33.691Z</time></trkpt><trkpt lat="39.9013834" lon="16.3284985"><ele>740.2</ele><time>2026-05-02T18:43:35.7Z</time></trkpt><trkpt lat="39.9014409" lon="16.3286235"><ele>742.0</ele><time>2026-05-02T18:43:37.703Z</time></trkpt><trkpt lat="39.9014198" lon="16.3287861"><ele>742.0</ele><time>2026-05-02T18:43:39.684Z</time></trkpt><trkpt lat="39.9013849" lon="16.3288633"><ele>742.0</ele><time>2026-05-02T18:43:40.689Z</time></trkpt><trkpt lat="39.9013452" lon="16.3289478"><ele>742.0</ele><time>2026-05-02T18:43:41.685Z</time></trkpt><trkpt lat="39.9012891" lon="16.3290274"><ele>742.0</ele><time>2026-05-02T18:43:42.69Z</time></trkpt><trkpt lat="39.9012445" lon="16.329122"><ele>742.0</ele><time>2026-05-02T18:43:43.688Z</time></trkpt><trkpt lat="39.9011786" lon="16.329203"><ele>742.0</ele><time>2026-05-02T18:43:44.692Z</time></trkpt><trkpt lat="39.901111" lon="16.3292854"><ele>742.0</ele><time>2026-05-02T18:43:45.706Z</time></trkpt><trkpt lat="39.9010539" lon="16.3293543"><ele>742.0</ele><time>2026-05-02T18:43:46.692Z</time></trkpt><trkpt lat="39.9009953" lon="16.3294052"><ele>742.0</ele><time>2026-05-02T18:43:47.695Z</time></trkpt><trkpt lat="39.9009423" lon="16.3294759"><ele>742.0</ele><time>2026-05-02T18:43:48.687Z</time></trkpt><trkpt lat="39.9008824" lon="16.3295606"><ele>742.0</ele><time>2026-05-02T18:43:49.69Z</time></trkpt><trkpt lat="39.9008089" lon="16.3296602"><ele>742.0</ele><time>2026-05-02T18:43:50.713Z</time></trkpt><trkpt lat="39.9007366" lon="16.3297709"><ele>744.3333333333334</ele><time>2026-05-02T18:43:51.691Z</time></trkpt><trkpt lat="39.9006639" lon="16.3298686"><ele>746.6666666666667</ele><time>2026-05-02T18:43:52.699Z</time></trkpt><trkpt lat="39.9005975" lon="16.3299446"><ele>749.0</ele><time>2026-05-02T18:43:53.687Z</time></trkpt><trkpt lat="39.9005218" lon="16.3299897"><ele>751.3333333333334</ele><time>2026-05-02T18:43:54.695Z</time></trkpt><trkpt lat="39.9004472" lon="16.3299971"><ele>753.6666666666666</ele><time>2026-05-02T18:43:55.729Z</time></trkpt><trkpt lat="39.900377" lon="16.3299788"><ele>756.0</ele><time>2026-05-02T18:43:56.684Z</time></trkpt><trkpt lat="39.9002994" lon="16.3299396"><ele>756.0</ele><time>2026-05-02T18:43:57.697Z</time></trkpt><trkpt lat="39.9002186" lon="16.3298736"><ele>756.0</ele><time>2026-05-02T18:43:58.694Z</time></trkpt><trkpt lat="39.9001348" lon="16.3297945"><ele>756.0</ele><time>2026-05-02T18:43:59.683Z</time></trkpt><trkpt lat="39.9000614" lon="16.329707"><ele>756.0</ele><time>2026-05-02T18:44:00.705Z</time></trkpt><trkpt lat="39.8999877" lon="16.3296159"><ele>756.0</ele><time>2026-05-02T18:44:01.691Z</time></trkpt><trkpt lat="39.8999133" lon="16.3295265"><ele>751.1999999999999</ele><time>2026-05-02T18:44:02.695Z</time></trkpt><trkpt lat="39.8998314" lon="16.3294382"><ele>746.4</ele><time>2026-05-02T18:44:03.694Z</time></trkpt><trkpt lat="39.8997367" lon="16.329365"><ele>741.6</ele><time>2026-05-02T18:44:04.679Z</time></trkpt><trkpt lat="39.8996525" lon="16.3292864"><ele>736.8</ele><time>2026-05-02T18:44:05.688Z</time></trkpt><trkpt lat="39.8995682" lon="16.3292254"><ele>732.0</ele><time>2026-05-02T18:44:06.71Z</time></trkpt><trkpt lat="39.8994797" lon="16.329186"><ele>732.0</ele><time>2026-05-02T18:44:07.698Z</time></trkpt><trkpt lat="39.899407" lon="16.329143"><ele>732.0</ele><time>2026-05-02T18:44:08.682Z</time></trkpt><trkpt lat="39.899342" lon="16.329093"><ele>732.0</ele><time>2026-05-02T18:44:09.705Z</time></trkpt><trkpt lat="39.8992646" lon="16.3290301"><ele>732.0</ele><time>2026-05-02T18:44:10.691Z</time></trkpt><trkpt lat="39.8991906" lon="16.328958"><ele>732.0</ele><time>2026-05-02T18:44:11.689Z</time></trkpt><trkpt lat="39.8991259" lon="16.3288812"><ele>732.0</ele><time>2026-05-02T18:44:12.706Z</time></trkpt><trkpt lat="39.8990819" lon="16.3288017"><ele>732.5714285714286</ele><time>2026-05-02T18:44:13.671Z</time></trkpt><trkpt lat="39.8990458" lon="16.3287094"><ele>733.1428571428571</ele><time>2026-05-02T18:44:14.692Z</time></trkpt><trkpt lat="39.8990204" lon="16.3286103"><ele>733.7142857142858</ele><time>2026-05-02T18:44:15.691Z</time></trkpt><trkpt lat="39.8989955" lon="16.3285219"><ele>734.2857142857142</ele><time>2026-05-02T18:44:16.68Z</time></trkpt><trkpt lat="39.8989585" lon="16.3284461"><ele>734.8571428571428</ele><time>2026-05-02T18:44:17.692Z</time></trkpt><trkpt lat="39.8989115" lon="16.3283915"><ele>735.4285714285714</ele><time>2026-05-02T18:44:18.683Z</time></trkpt><trkpt lat="39.8988506" lon="16.3283409"><ele>736.0</ele><time>2026-05-02T18:44:19.691Z</time></trkpt><trkpt lat="39.8987723" lon="16.3282972"><ele>736.0</ele><time>2026-05-02T18:44:20.677Z</time></trkpt><trkpt lat="39.8986832" lon="16.3282573"><ele>736.0</ele><time>2026-05-02T18:44:21.694Z</time></trkpt><trkpt lat="39.898592" lon="16.3282151"><ele>736.0</ele><time>2026-05-02T18:44:22.691Z</time></trkpt><trkpt lat="39.8985069" lon="16.3281778"><ele>736.0</ele><time>2026-05-02T18:44:23.691Z</time></trkpt><trkpt lat="39.8984295" lon="16.3281654"><ele>736.0</ele><time>2026-05-02T18:44:24.703Z</time></trkpt><trkpt lat="39.8983502" lon="16.3281575"><ele>736.0</ele><time>2026-05-02T18:44:25.708Z</time></trkpt><trkpt lat="39.8982634" lon="16.3281339"><ele>734.0</ele><time>2026-05-02T18:44:26.705Z</time></trkpt><trkpt lat="39.8981821" lon="16.3280913"><ele>732.0</ele><time>2026-05-02T18:44:27.688Z</time></trkpt><trkpt lat="39.8981171" lon="16.3280522"><ele>730.0</ele><time>2026-05-02T18:44:28.69Z</time></trkpt><trkpt lat="39.8980007" lon="16.3280424"><ele>728.0</ele><time>2026-05-02T18:44:30.683Z</time></trkpt><trkpt lat="39.8979326" lon="16.3280729"><ele>726.0</ele><time>2026-05-02T18:44:31.705Z</time></trkpt><trkpt lat="39.8978552" lon="16.3281141"><ele>724.0</ele><time>2026-05-02T18:44:32.7Z</time></trkpt><trkpt lat="39.8977683" lon="16.3281443"><ele>731.0</ele><time>2026-05-02T18:44:33.708Z</time></trkpt><trkpt lat="39.8976735" lon="16.3281738"><ele>738.0</ele><time>2026-05-02T18:44:34.69Z</time></trkpt><trkpt lat="39.8975642" lon="16.3281924"><ele>745.0</ele><time>2026-05-02T18:44:35.699Z</time></trkpt><trkpt lat="39.8974711" lon="16.3281964"><ele>752.0</ele><time>2026-05-02T18:44:36.685Z</time></trkpt><trkpt lat="39.8973836" lon="16.3281977"><ele>759.0</ele><time>2026-05-02T18:44:37.705Z</time></trkpt><trkpt lat="39.8973012" lon="16.3282096"><ele>760.1666666666666</ele><time>2026-05-02T18:44:38.693Z</time></trkpt><trkpt lat="39.8972258" lon="16.3282402"><ele>761.3333333333334</ele><time>2026-05-02T18:44:39.692Z</time></trkpt><trkpt lat="39.8971464" lon="16.3282878"><ele>762.5</ele><time>2026-05-02T18:44:40.702Z</time></trkpt><trkpt lat="39.8970642" lon="16.3283452"><ele>763.6666666666667</ele><time>2026-05-02T18:44:41.697Z</time></trkpt><trkpt lat="39.8969792" lon="16.3283903"><ele>764.8333333333334</ele><time>2026-05-02T18:44:42.682Z</time></trkpt><trkpt lat="39.8968884" lon="16.3284319"><ele>766.0</ele><time>2026-05-02T18:44:43.688Z</time></trkpt><trkpt lat="39.8967946" lon="16.3284702"><ele>764.4</ele><time>2026-05-02T18:44:44.691Z</time></trkpt><trkpt lat="39.8966985" lon="16.3285032"><ele>762.8</ele><time>2026-05-02T18:44:45.69Z</time></trkpt><trkpt lat="39.8966002" lon="16.3285471"><ele>761.1999999999999</ele><time>2026-05-02T18:44:46.684Z</time></trkpt><trkpt lat="39.8965033" lon="16.3285896"><ele>759.5999999999999</ele><time>2026-05-02T18:44:47.694Z</time></trkpt><trkpt lat="39.8964114" lon="16.3286261"><ele>758.0</ele><time>2026-05-02T18:44:48.688Z</time></trkpt><trkpt lat="39.8963245" lon="16.3286483"><ele>758.0</ele><time>2026-05-02T18:44:49.691Z</time></trkpt><trkpt lat="39.8962238" lon="16.3286632"><ele>758.0</ele><time>2026-05-02T18:44:50.696Z</time></trkpt><trkpt lat="39.8961203" lon="16.3286618"><ele>758.0</ele><time>2026-05-02T18:44:51.691Z</time></trkpt><trkpt lat="39.8960151" lon="16.3286469"><ele>758.0</ele><time>2026-05-02T18:44:52.704Z</time></trkpt><trkpt lat="39.8959175" lon="16.3286147"><ele>758.0</ele><time>2026-05-02T18:44:53.699Z</time></trkpt><trkpt lat="39.8958237" lon="16.3285938"><ele>757.5</ele><time>2026-05-02T18:44:54.698Z</time></trkpt><trkpt lat="39.8957374" lon="16.3285913"><ele>757.0</ele><time>2026-05-02T18:44:55.69Z</time></trkpt><trkpt lat="39.8956627" lon="16.3286123"><ele>756.5</ele><time>2026-05-02T18:44:56.698Z</time></trkpt><trkpt lat="39.8955827" lon="16.3286489"><ele>756.0</ele><time>2026-05-02T18:44:57.674Z</time></trkpt><trkpt lat="39.8954988" lon="16.3286969"><ele>755.5</ele><time>2026-05-02T18:44:58.693Z</time></trkpt><trkpt lat="39.8954164" lon="16.3287366"><ele>755.0</ele><time>2026-05-02T18:44:59.673Z</time></trkpt><trkpt lat="39.8953374" lon="16.328769"><ele>755.0</ele><time>2026-05-02T18:45:00.694Z</time></trkpt><trkpt lat="39.8952543" lon="16.3287908"><ele>755.0</ele><time>2026-05-02T18:45:01.692Z</time></trkpt><trkpt lat="39.895167" lon="16.328804"><ele>755.0</ele><time>2026-05-02T18:45:02.706Z</time></trkpt><trkpt lat="39.895074" lon="16.3288169"><ele>755.0</ele><time>2026-05-02T18:45:03.693Z</time></trkpt><trkpt lat="39.8949735" lon="16.3288352"><ele>755.0</ele><time>2026-05-02T18:45:04.684Z</time></trkpt><trkpt lat="39.8948696" lon="16.3288537"><ele>755.0</ele><time>2026-05-02T18:45:05.687Z</time></trkpt><trkpt lat="39.8947709" lon="16.3288832"><ele>755.0</ele><time>2026-05-02T18:45:06.689Z</time></trkpt><trkpt lat="39.894681" lon="16.328917"><ele>755.0</ele><time>2026-05-02T18:45:07.703Z</time></trkpt><trkpt lat="39.8946034" lon="16.3289591"><ele>755.0</ele><time>2026-05-02T18:45:08.69Z</time></trkpt><trkpt lat="39.8945265" lon="16.3289916"><ele>755.0</ele><time>2026-05-02T18:45:09.69Z</time></trkpt><trkpt lat="39.8944558" lon="16.3290208"><ele>755.0</ele><time>2026-05-02T18:45:10.695Z</time></trkpt><trkpt lat="39.8943456" lon="16.3290248"><ele>759.0</ele><time>2026-05-02T18:45:12.686Z</time></trkpt><trkpt lat="39.8942202" lon="16.3289892"><ele>763.0</ele><time>2026-05-02T18:45:14.687Z</time></trkpt><trkpt lat="39.8941557" lon="16.328968"><ele>767.0</ele><time>2026-05-02T18:45:15.725Z</time></trkpt><trkpt lat="39.894027" lon="16.3289575"><ele>771.0</ele><time>2026-05-02T18:45:17.698Z</time></trkpt><trkpt lat="39.893956" lon="16.3289749"><ele>775.0</ele><time>2026-05-02T18:45:18.685Z</time></trkpt><trkpt lat="39.8938834" lon="16.3290009"><ele>774.9999999999999</ele><time>2026-05-02T18:45:19.693Z</time></trkpt><trkpt lat="39.8938056" lon="16.3290221"><ele>775.0</ele><time>2026-05-02T18:45:20.709Z</time></trkpt><trkpt lat="39.8937223" lon="16.3290384"><ele>775.0</ele><time>2026-05-02T18:45:21.703Z</time></trkpt><trkpt lat="39.8936355" lon="16.3290418"><ele>775.0</ele><time>2026-05-02T18:45:22.691Z</time></trkpt><trkpt lat="39.8935581" lon="16.3290456"><ele>774.9999999999999</ele><time>2026-05-02T18:45:23.694Z</time></trkpt><trkpt lat="39.8934899" lon="16.3290385"><ele>775.0</ele><time>2026-05-02T18:45:24.696Z</time></trkpt><trkpt lat="39.8934127" lon="16.3290344"><ele>776.0</ele><time>2026-05-02T18:45:35.693Z</time></trkpt><trkpt lat="39.8933516" lon="16.329069"><ele>777.0</ele><time>2026-05-02T18:45:37.695Z</time></trkpt><trkpt lat="39.8932565" lon="16.3291365"><ele>778.0</ele><time>2026-05-02T18:45:39.704Z</time></trkpt><trkpt lat="39.8931348" lon="16.3291614"><ele>779.0</ele><time>2026-05-02T18:45:41.699Z</time></trkpt><trkpt lat="39.8930527" lon="16.3291577"><ele>780.0</ele><time>2026-05-02T18:45:42.693Z</time></trkpt><trkpt lat="39.8929729" lon="16.329154"><ele>780.0</ele><time>2026-05-02T18:45:43.712Z</time></trkpt><trkpt lat="39.89289" lon="16.3291737"><ele>780.0</ele><time>2026-05-02T18:45:44.698Z</time></trkpt><trkpt lat="39.892811" lon="16.3292086"><ele>780.0</ele><time>2026-05-02T18:45:45.715Z</time></trkpt><trkpt lat="39.8927314" lon="16.3292589"><ele>780.0</ele><time>2026-05-02T18:45:46.692Z</time></trkpt><trkpt lat="39.8926539" lon="16.3293167"><ele>780.0</ele><time>2026-05-02T18:45:47.683Z</time></trkpt><trkpt lat="39.8925787" lon="16.3293546"><ele>780.0</ele><time>2026-05-02T18:45:48.694Z</time></trkpt><trkpt lat="39.8924594" lon="16.3293469"><ele>780.0</ele><time>2026-05-02T18:45:50.682Z</time></trkpt><trkpt lat="39.8923956" lon="16.3293252"><ele>780.0</ele><time>2026-05-02T18:45:51.717Z</time></trkpt><trkpt lat="39.8922896" lon="16.329316"><ele>780.0</ele><time>2026-05-02T18:45:53.705Z</time></trkpt><trkpt lat="39.892213" lon="16.3293536"><ele>780.0</ele><time>2026-05-02T18:45:55.706Z</time></trkpt><trkpt lat="39.8921594" lon="16.32943"><ele>780.0</ele><time>2026-05-02T18:45:57.694Z</time></trkpt><trkpt lat="39.8921383" lon="16.3295249"><ele>780.0</ele><time>2026-05-02T18:47:20.673Z</time></trkpt><trkpt lat="39.8920966" lon="16.3295932"><ele>780.0</ele><time>2026-05-02T18:47:22.664Z</time></trkpt><trkpt lat="39.8920175" lon="16.3296831"><ele>780.0</ele><time>2026-05-02T18:47:24.669Z</time></trkpt><trkpt lat="39.8919283" lon="16.3297842"><ele>780.0</ele><time>2026-05-02T18:47:26.683Z</time></trkpt><trkpt lat="39.8918239" lon="16.3298604"><ele>780.0</ele><time>2026-05-02T18:47:28.682Z</time></trkpt><trkpt lat="39.8917077" lon="16.329899"><ele>782.0</ele><time>2026-05-02T18:47:30.664Z</time></trkpt><trkpt lat="39.8915946" lon="16.3299536"><ele>784.0</ele><time>2026-05-02T18:47:32.673Z</time></trkpt><trkpt lat="39.8914953" lon="16.330005"><ele>786.0</ele><time>2026-05-02T18:47:34.657Z</time></trkpt><trkpt lat="39.8914028" lon="16.3300287"><ele>788.0</ele><time>2026-05-02T18:47:36.683Z</time></trkpt><trkpt lat="39.8913231" lon="16.3300313"><ele>790.0</ele><time>2026-05-02T18:47:38.687Z</time></trkpt><trkpt lat="39.8912361" lon="16.3300018"><ele>789.9999999999999</ele><time>2026-05-02T18:47:41.683Z</time></trkpt><trkpt lat="39.8911777" lon="16.3299625"><ele>790.0</ele><time>2026-05-02T18:48:45.703Z</time></trkpt><trkpt lat="39.8911001" lon="16.3298766"><ele>790.0</ele><time>2026-05-02T18:48:47.705Z</time></trkpt><trkpt lat="39.8910125" lon="16.3297508"><ele>790.0</ele><time>2026-05-02T18:48:49.695Z</time></trkpt><trkpt lat="39.8909504" lon="16.3296886"><ele>789.9999999999999</ele><time>2026-05-02T18:48:50.692Z</time></trkpt><trkpt lat="39.8908923" lon="16.3296427"><ele>790.0</ele><time>2026-05-02T18:48:51.689Z</time></trkpt><trkpt lat="39.8908126" lon="16.3295753"><ele>787.4999999999999</ele><time>2026-05-02T18:48:53.696Z</time></trkpt><trkpt lat="39.890737" lon="16.3295049"><ele>785.0</ele><time>2026-05-02T18:48:55.669Z</time></trkpt><trkpt lat="39.8906639" lon="16.3293721"><ele>782.5</ele><time>2026-05-02T18:48:57.697Z</time></trkpt><trkpt lat="39.890623" lon="16.3292941"><ele>780.0</ele><time>2026-05-02T18:48:58.701Z</time></trkpt><trkpt lat="39.8905833" lon="16.3292097"><ele>777.4999999999999</ele><time>2026-05-02T18:48:59.685Z</time></trkpt><trkpt lat="39.8905536" lon="16.329131"><ele>775.0</ele><time>2026-05-02T18:49:00.676Z</time></trkpt><trkpt lat="39.8904881" lon="16.3290105"><ele>774.9999999999999</ele><time>2026-05-02T18:49:02.701Z</time></trkpt><trkpt lat="39.8904448" lon="16.3289418"><ele>775.0</ele><time>2026-05-02T18:49:03.682Z</time></trkpt><trkpt lat="39.8903951" lon="16.3288685"><ele>775.0</ele><time>2026-05-02T18:49:04.676Z</time></trkpt><trkpt lat="39.8903395" lon="16.3287979"><ele>775.0</ele><time>2026-05-02T18:49:05.704Z</time></trkpt><trkpt lat="39.8902958" lon="16.3287261"><ele>774.9999999999999</ele><time>2026-05-02T18:49:06.689Z</time></trkpt><trkpt lat="39.8902628" lon="16.3286514"><ele>775.0</ele><time>2026-05-02T18:49:07.69Z</time></trkpt><trkpt lat="39.8902012" lon="16.3285146"><ele>774.8333333333333</ele><time>2026-05-02T18:49:09.677Z</time></trkpt><trkpt lat="39.8901439" lon="16.3284564"><ele>774.6666666666666</ele><time>2026-05-02T18:49:10.712Z</time></trkpt><trkpt lat="39.8900693" lon="16.3283998"><ele>774.5</ele><time>2026-05-02T18:49:11.673Z</time></trkpt><trkpt lat="39.8899848" lon="16.3283531"><ele>774.3333333333333</ele><time>2026-05-02T18:49:12.683Z</time></trkpt><trkpt lat="39.8899032" lon="16.3283124"><ele>774.1666666666666</ele><time>2026-05-02T18:49:13.708Z</time></trkpt><trkpt lat="39.889828" lon="16.328274"><ele>774.0</ele><time>2026-05-02T18:49:14.7Z</time></trkpt><trkpt lat="39.8897656" lon="16.3282194"><ele>774.0</ele><time>2026-05-02T18:49:15.702Z</time></trkpt><trkpt lat="39.8897104" lon="16.3281596"><ele>774.0</ele><time>2026-05-02T18:49:16.691Z</time></trkpt><trkpt lat="39.8896629" lon="16.328087"><ele>774.0</ele><time>2026-05-02T18:49:17.701Z</time></trkpt><trkpt lat="39.8896049" lon="16.3280146"><ele>774.0</ele><time>2026-05-02T18:49:18.697Z</time></trkpt><trkpt lat="39.8895352" lon="16.3279409"><ele>774.0</ele><time>2026-05-02T18:49:19.695Z</time></trkpt><trkpt lat="39.8894707" lon="16.3278609"><ele>774.0</ele><time>2026-05-02T18:49:20.694Z</time></trkpt><trkpt lat="39.8894076" lon="16.3277734"><ele>772.8333333333334</ele><time>2026-05-02T18:49:21.695Z</time></trkpt><trkpt lat="39.8893531" lon="16.3276896"><ele>771.6666666666666</ele><time>2026-05-02T18:49:22.685Z</time></trkpt><trkpt lat="39.8893105" lon="16.3276155"><ele>770.5</ele><time>2026-05-02T18:49:23.693Z</time></trkpt><trkpt lat="39.8892428" lon="16.3275336"><ele>769.3333333333333</ele><time>2026-05-02T18:49:25.71Z</time></trkpt><trkpt lat="39.8891729" lon="16.3274725"><ele>768.1666666666666</ele><time>2026-05-02T18:49:27.7Z</time></trkpt><trkpt lat="39.8890789" lon="16.3273966"><ele>767.0</ele><time>2026-05-02T18:49:29.706Z</time></trkpt><trkpt lat="39.8889873" lon="16.3273479"><ele>767.0</ele><time>2026-05-02T18:49:31.694Z</time></trkpt><trkpt lat="39.8888841" lon="16.3273748"><ele>767.0</ele><time>2026-05-02T18:49:33.696Z</time></trkpt><trkpt lat="39.8887747" lon="16.3274466"><ele>767.0</ele><time>2026-05-02T18:49:35.701Z</time></trkpt><trkpt lat="39.8887172" lon="16.3275056"><ele>767.0</ele><time>2026-05-02T18:49:36.708Z</time></trkpt><trkpt lat="39.8886593" lon="16.3275593"><ele>767.0</ele><time>2026-05-02T18:49:37.682Z</time></trkpt><trkpt lat="39.8886073" lon="16.3276147"><ele>767.0</ele><time>2026-05-02T18:49:38.689Z</time></trkpt><trkpt lat="39.8885165" lon="16.3277103"><ele>767.0</ele><time>2026-05-02T18:49:40.697Z</time></trkpt><trkpt lat="39.8884621" lon="16.3277855"><ele>767.0</ele><time>2026-05-02T18:49:42.665Z</time></trkpt><trkpt lat="39.8884011" lon="16.3278538"><ele>767.0</ele><time>2026-05-02T18:49:45.699Z</time></trkpt><trkpt lat="39.8883442" lon="16.3279171"><ele>767.0</ele><time>2026-05-02T18:52:41.697Z</time></trkpt><trkpt lat="39.8882674" lon="16.3280159"><ele>767.0</ele><time>2026-05-02T18:52:49.673Z</time></trkpt><trkpt lat="39.8881496" lon="16.3280864"><ele>767.4285714285714</ele><time>2026-05-02T18:52:51.705Z</time></trkpt><trkpt lat="39.8880929" lon="16.3281256"><ele>767.8571428571429</ele><time>2026-05-02T18:52:52.706Z</time></trkpt><trkpt lat="39.8880343" lon="16.3281703"><ele>768.2857142857142</ele><time>2026-05-02T18:52:53.703Z</time></trkpt><trkpt lat="39.8879746" lon="16.3282208"><ele>768.7142857142858</ele><time>2026-05-02T18:52:54.698Z</time></trkpt><trkpt lat="39.8879142" lon="16.3282738"><ele>769.1428571428571</ele><time>2026-05-02T18:52:55.695Z</time></trkpt><trkpt lat="39.8878565" lon="16.3283359"><ele>769.5714285714286</ele><time>2026-05-02T18:52:56.694Z</time></trkpt><trkpt lat="39.8878037" lon="16.3284044"><ele>770.0</ele><time>2026-05-02T18:52:57.715Z</time></trkpt><trkpt lat="39.88774" lon="16.3284801"><ele>770.0000000000001</ele><time>2026-05-02T18:52:58.704Z</time></trkpt><trkpt lat="39.8876709" lon="16.3285517"><ele>770.0</ele><time>2026-05-02T18:52:59.706Z</time></trkpt><trkpt lat="39.8875284" lon="16.3286477"><ele>770.0</ele><time>2026-05-02T18:53:01.657Z</time></trkpt><trkpt lat="39.8874654" lon="16.3286616"><ele>770.0</ele><time>2026-05-02T18:53:02.662Z</time></trkpt><trkpt lat="39.8874026" lon="16.3286741"><ele>770.0000000000001</ele><time>2026-05-02T18:53:03.662Z</time></trkpt><trkpt lat="39.8873349" lon="16.3286746"><ele>770.0</ele><time>2026-05-02T18:53:04.674Z</time></trkpt><trkpt lat="39.8872693" lon="16.3286649"><ele>768.0000000000001</ele><time>2026-05-02T18:53:05.689Z</time></trkpt><trkpt lat="39.8872052" lon="16.3286491"><ele>766.0</ele><time>2026-05-02T18:53:06.666Z</time></trkpt><trkpt lat="39.8871403" lon="16.3286409"><ele>764.0</ele><time>2026-05-02T18:53:07.682Z</time></trkpt><trkpt lat="39.8870735" lon="16.3286361"><ele>762.0</ele><time>2026-05-02T18:53:08.669Z</time></trkpt><trkpt lat="39.8869322" lon="16.3286271"><ele>760.0</ele><time>2026-05-02T18:53:10.681Z</time></trkpt><trkpt lat="39.8868558" lon="16.3286239"><ele>758.0</ele><time>2026-05-02T18:53:11.666Z</time></trkpt><trkpt lat="39.8867842" lon="16.328625"><ele>757.5</ele><time>2026-05-02T18:53:12.66Z</time></trkpt><trkpt lat="39.8867094" lon="16.3286183"><ele>757.0</ele><time>2026-05-02T18:53:13.66Z</time></trkpt><trkpt lat="39.8866367" lon="16.3286158"><ele>756.5</ele><time>2026-05-02T18:53:14.685Z</time></trkpt><trkpt lat="39.8865665" lon="16.3286223"><ele>756.0</ele><time>2026-05-02T18:53:15.711Z</time></trkpt><trkpt lat="39.8864993" lon="16.3286422"><ele>755.5</ele><time>2026-05-02T18:53:16.682Z</time></trkpt><trkpt lat="39.8864355" lon="16.3286675"><ele>755.0</ele><time>2026-05-02T18:53:17.688Z</time></trkpt><trkpt lat="39.8863475" lon="16.3287172"><ele>755.0</ele><time>2026-05-02T18:53:19.666Z</time></trkpt><trkpt lat="39.8862772" lon="16.3287644"><ele>755.0</ele><time>2026-05-02T18:53:21.701Z</time></trkpt><trkpt lat="39.8862147" lon="16.3288259"><ele>755.0</ele><time>2026-05-02T18:53:23.671Z</time></trkpt><trkpt lat="39.8861498" lon="16.3288306"><ele>755.0</ele><time>2026-05-02T18:53:47.707Z</time></trkpt><trkpt lat="39.8862342" lon="16.3288287"><ele>755.0</ele><time>2026-05-02T18:54:01.694Z</time></trkpt><trkpt lat="39.8863186" lon="16.3287723"><ele>755.0</ele><time>2026-05-02T18:54:03.692Z</time></trkpt><trkpt lat="39.8864122" lon="16.3287136"><ele>755.0</ele><time>2026-05-02T18:54:05.714Z</time></trkpt><trkpt lat="39.8865443" lon="16.3286696"><ele>755.0</ele><time>2026-05-02T18:54:07.702Z</time></trkpt><trkpt lat="39.8866211" lon="16.3286574"><ele>755.0</ele><time>2026-05-02T18:54:08.695Z</time></trkpt><trkpt lat="39.8867244" lon="16.3286537"><ele>755.0</ele><time>2026-05-02T18:54:10.69Z</time></trkpt><trkpt lat="39.8867977" lon="16.3286602"><ele>755.0</ele><time>2026-05-02T18:54:12.709Z</time></trkpt><trkpt lat="39.8868736" lon="16.3286813"><ele>755.5</ele><time>2026-05-02T18:54:14.706Z</time></trkpt><trkpt lat="39.8869658" lon="16.3287104"><ele>756.0</ele><time>2026-05-02T18:54:16.693Z</time></trkpt><trkpt lat="39.8870506" lon="16.3287251"><ele>756.5</ele><time>2026-05-02T18:54:18.7Z</time></trkpt><trkpt lat="39.8871238" lon="16.3287435"><ele>757.0</ele><time>2026-05-02T18:54:20.702Z</time></trkpt><trkpt lat="39.8871941" lon="16.3287526"><ele>757.5</ele><time>2026-05-02T18:54:22.709Z</time></trkpt><trkpt lat="39.8872658" lon="16.3287615"><ele>758.0</ele><time>2026-05-02T18:54:24.689Z</time></trkpt><trkpt lat="39.8873449" lon="16.3287779"><ele>758.0</ele><time>2026-05-02T18:54:26.705Z</time></trkpt><trkpt lat="39.8874225" lon="16.3287837"><ele>758.0</ele><time>2026-05-02T18:54:28.69Z</time></trkpt><trkpt lat="39.8874974" lon="16.3287541"><ele>758.0</ele><time>2026-05-02T18:54:30.706Z</time></trkpt><trkpt lat="39.8875793" lon="16.3287047"><ele>758.0</ele><time>2026-05-02T18:54:32.709Z</time></trkpt><trkpt lat="39.8876447" lon="16.3286628"><ele>758.0</ele><time>2026-05-02T18:54:35.705Z</time></trkpt><trkpt lat="39.8877137" lon="16.3286485"><ele>758.0</ele><time>2026-05-02T18:54:38.685Z</time></trkpt><trkpt lat="39.8877895" lon="16.3286596"><ele>760.4</ele><time>2026-05-02T18:54:41.699Z</time></trkpt><trkpt lat="39.8878564" lon="16.3286859"><ele>762.8</ele><time>2026-05-02T18:54:43.714Z</time></trkpt><trkpt lat="39.8879223" lon="16.3287223"><ele>765.2</ele><time>2026-05-02T18:54:45.686Z</time></trkpt><trkpt lat="39.8879721" lon="16.3287763"><ele>767.6</ele><time>2026-05-02T18:54:47.688Z</time></trkpt><trkpt lat="39.8880199" lon="16.3288438"><ele>770.0</ele><time>2026-05-02T18:55:09.693Z</time></trkpt><trkpt lat="39.8888881" lon="16.3281329"><ele>770.0</ele><time>2026-05-02T19:08:05.651Z</time></trkpt><trkpt lat="39.888469" lon="16.3279947"><ele>770.0</ele><time>2026-05-02T19:41:36.249Z</time></trkpt><trkpt lat="39.8882651" lon="16.3280655"><ele>770.0</ele><time>2026-05-02T19:42:42.356Z</time></trkpt><trkpt lat="39.8881761" lon="16.3281691"><ele>770.0</ele><time>2026-05-02T19:47:36.511Z</time></trkpt><trkpt lat="39.8881761" lon="16.3281691"><ele>770.0</ele><time>2026-05-02T19:47:36.511Z</time></trkpt><trkpt lat="39.8881761" lon="16.3281691"><ele>770.0</ele><time>2026-05-02T19:47:36.511Z</time></trkpt></trkseg></trk></gpx>